<?xml version="1.0" encoding="UTF-8" standalone="no" ?>
<gpx xmlns="http://www.topografix.com/GPX/1/1" xmlns:xsi="http://www.w3.org/2001/XMLSchema-instance" xsi:schemaLocation="http://www.topografix.com/GPX/1/1 http://www.topografix.com/GPX/1/1/gpx.xsd" version="1.1" creator="VisuGPX - https://www.visugpx.com">
  <metadata>
    <name>trail de plaimbois du miroir</name>
    <desc><![CDATA[trail de plaimbois 2018 parcours du 32 km]]></desc>
  </metadata>
  <trk>
    <name><![CDATA[20180704225802-wrBPv]]></name>
    <trkseg>
      <trkpt lat="47.18844" lon="6.65136">
        <ele>863</ele>
        <time>2018-07-01T07:03:32.000Z</time>
      </trkpt>
      <trkpt lat="47.18844" lon="6.65136">
        <ele>863</ele>
        <time>2018-07-01T07:03:33.000Z</time>
      </trkpt>
      <trkpt lat="47.18843" lon="6.65136">
        <ele>863</ele>
        <time>2018-07-01T07:03:34.000Z</time>
      </trkpt>
      <trkpt lat="47.18842" lon="6.65135">
        <ele>863</ele>
        <time>2018-07-01T07:03:35.000Z</time>
      </trkpt>
      <trkpt lat="47.1884" lon="6.65134">
        <ele>863</ele>
        <time>2018-07-01T07:03:36.000Z</time>
      </trkpt>
      <trkpt lat="47.18838" lon="6.65133">
        <ele>863</ele>
        <time>2018-07-01T07:03:37.000Z</time>
      </trkpt>
      <trkpt lat="47.18836" lon="6.65133">
        <ele>863</ele>
        <time>2018-07-01T07:03:38.000Z</time>
      </trkpt>
      <trkpt lat="47.18833" lon="6.65133">
        <ele>862</ele>
        <time>2018-07-01T07:03:39.000Z</time>
      </trkpt>
      <trkpt lat="47.1883" lon="6.65133">
        <ele>862</ele>
        <time>2018-07-01T07:03:40.000Z</time>
      </trkpt>
      <trkpt lat="47.18827" lon="6.65132">
        <ele>862</ele>
        <time>2018-07-01T07:03:41.000Z</time>
      </trkpt>
      <trkpt lat="47.18824" lon="6.65132">
        <ele>862</ele>
        <time>2018-07-01T07:03:42.000Z</time>
      </trkpt>
      <trkpt lat="47.18821" lon="6.65131">
        <ele>862</ele>
        <time>2018-07-01T07:03:43.000Z</time>
      </trkpt>
      <trkpt lat="47.18818" lon="6.65131">
        <ele>862</ele>
        <time>2018-07-01T07:03:44.000Z</time>
      </trkpt>
      <trkpt lat="47.18815" lon="6.6513">
        <ele>862</ele>
        <time>2018-07-01T07:03:45.000Z</time>
      </trkpt>
      <trkpt lat="47.18812" lon="6.6513">
        <ele>862</ele>
        <time>2018-07-01T07:03:46.000Z</time>
      </trkpt>
      <trkpt lat="47.18808" lon="6.6513">
        <ele>862</ele>
        <time>2018-07-01T07:03:47.000Z</time>
      </trkpt>
      <trkpt lat="47.18805" lon="6.65131">
        <ele>862</ele>
        <time>2018-07-01T07:03:48.000Z</time>
      </trkpt>
      <trkpt lat="47.18802" lon="6.6513">
        <ele>862</ele>
        <time>2018-07-01T07:03:49.000Z</time>
      </trkpt>
      <trkpt lat="47.18799" lon="6.6513">
        <ele>861</ele>
        <time>2018-07-01T07:03:50.000Z</time>
      </trkpt>
      <trkpt lat="47.18796" lon="6.6513">
        <ele>861</ele>
        <time>2018-07-01T07:03:51.000Z</time>
      </trkpt>
      <trkpt lat="47.18793" lon="6.65129">
        <ele>861</ele>
        <time>2018-07-01T07:03:52.000Z</time>
      </trkpt>
      <trkpt lat="47.1879" lon="6.65129">
        <ele>861</ele>
        <time>2018-07-01T07:03:53.000Z</time>
      </trkpt>
      <trkpt lat="47.18787" lon="6.65129">
        <ele>861</ele>
        <time>2018-07-01T07:03:54.000Z</time>
      </trkpt>
      <trkpt lat="47.18784" lon="6.65128">
        <ele>861</ele>
        <time>2018-07-01T07:03:55.000Z</time>
      </trkpt>
      <trkpt lat="47.1878" lon="6.65128">
        <ele>861</ele>
        <time>2018-07-01T07:03:56.000Z</time>
      </trkpt>
      <trkpt lat="47.18777" lon="6.65128">
        <ele>861</ele>
        <time>2018-07-01T07:03:57.000Z</time>
      </trkpt>
      <trkpt lat="47.18774" lon="6.65129">
        <ele>861</ele>
        <time>2018-07-01T07:03:58.000Z</time>
      </trkpt>
      <trkpt lat="47.18771" lon="6.65128">
        <ele>860</ele>
        <time>2018-07-01T07:03:59.000Z</time>
      </trkpt>
      <trkpt lat="47.18768" lon="6.65128">
        <ele>860</ele>
        <time>2018-07-01T07:04:00.000Z</time>
      </trkpt>
      <trkpt lat="47.18765" lon="6.65128">
        <ele>860</ele>
        <time>2018-07-01T07:04:01.000Z</time>
      </trkpt>
      <trkpt lat="47.18762" lon="6.65128">
        <ele>860</ele>
        <time>2018-07-01T07:04:02.000Z</time>
      </trkpt>
      <trkpt lat="47.18759" lon="6.65128">
        <ele>860</ele>
        <time>2018-07-01T07:04:03.000Z</time>
      </trkpt>
      <trkpt lat="47.18756" lon="6.65127">
        <ele>860</ele>
        <time>2018-07-01T07:04:04.000Z</time>
      </trkpt>
      <trkpt lat="47.18754" lon="6.65126">
        <ele>860</ele>
        <time>2018-07-01T07:04:05.000Z</time>
      </trkpt>
      <trkpt lat="47.18751" lon="6.65124">
        <ele>860</ele>
        <time>2018-07-01T07:04:06.000Z</time>
      </trkpt>
      <trkpt lat="47.18749" lon="6.65122">
        <ele>855</ele>
        <time>2018-07-01T07:04:07.000Z</time>
      </trkpt>
      <trkpt lat="47.18748" lon="6.65118">
        <ele>856</ele>
        <time>2018-07-01T07:04:08.000Z</time>
      </trkpt>
      <trkpt lat="47.18747" lon="6.65114">
        <ele>856</ele>
        <time>2018-07-01T07:04:09.000Z</time>
      </trkpt>
      <trkpt lat="47.18748" lon="6.65109">
        <ele>857</ele>
        <time>2018-07-01T07:04:10.000Z</time>
      </trkpt>
      <trkpt lat="47.1875" lon="6.65104">
        <ele>857</ele>
        <time>2018-07-01T07:04:11.000Z</time>
      </trkpt>
      <trkpt lat="47.18752" lon="6.65099">
        <ele>861</ele>
        <time>2018-07-01T07:04:12.000Z</time>
      </trkpt>
      <trkpt lat="47.18753" lon="6.65094">
        <ele>862</ele>
        <time>2018-07-01T07:04:13.000Z</time>
      </trkpt>
      <trkpt lat="47.18755" lon="6.6509">
        <ele>862</ele>
        <time>2018-07-01T07:04:14.000Z</time>
      </trkpt>
      <trkpt lat="47.18757" lon="6.65085">
        <ele>862</ele>
        <time>2018-07-01T07:04:15.000Z</time>
      </trkpt>
      <trkpt lat="47.18758" lon="6.65081">
        <ele>862</ele>
        <time>2018-07-01T07:04:16.000Z</time>
      </trkpt>
      <trkpt lat="47.1876" lon="6.65077">
        <ele>862</ele>
        <time>2018-07-01T07:04:17.000Z</time>
      </trkpt>
      <trkpt lat="47.18762" lon="6.65073">
        <ele>863</ele>
        <time>2018-07-01T07:04:18.000Z</time>
      </trkpt>
      <trkpt lat="47.18765" lon="6.65069">
        <ele>863</ele>
        <time>2018-07-01T07:04:19.000Z</time>
      </trkpt>
      <trkpt lat="47.18767" lon="6.65066">
        <ele>863</ele>
        <time>2018-07-01T07:04:20.000Z</time>
      </trkpt>
      <trkpt lat="47.18771" lon="6.65064">
        <ele>863</ele>
        <time>2018-07-01T07:04:21.000Z</time>
      </trkpt>
      <trkpt lat="47.18774" lon="6.65064">
        <ele>863</ele>
        <time>2018-07-01T07:04:22.000Z</time>
      </trkpt>
      <trkpt lat="47.18778" lon="6.65065">
        <ele>863</ele>
        <time>2018-07-01T07:04:23.000Z</time>
      </trkpt>
      <trkpt lat="47.18781" lon="6.65067">
        <ele>863</ele>
        <time>2018-07-01T07:04:24.000Z</time>
      </trkpt>
      <trkpt lat="47.18785" lon="6.65069">
        <ele>863</ele>
        <time>2018-07-01T07:04:25.000Z</time>
      </trkpt>
      <trkpt lat="47.18788" lon="6.65071">
        <ele>863</ele>
        <time>2018-07-01T07:04:26.000Z</time>
      </trkpt>
      <trkpt lat="47.18791" lon="6.65073">
        <ele>863</ele>
        <time>2018-07-01T07:04:27.000Z</time>
      </trkpt>
      <trkpt lat="47.18794" lon="6.65076">
        <ele>863</ele>
        <time>2018-07-01T07:04:28.000Z</time>
      </trkpt>
      <trkpt lat="47.18797" lon="6.65078">
        <ele>863</ele>
        <time>2018-07-01T07:04:29.000Z</time>
      </trkpt>
      <trkpt lat="47.188" lon="6.6508">
        <ele>863</ele>
        <time>2018-07-01T07:04:30.000Z</time>
      </trkpt>
      <trkpt lat="47.18803" lon="6.65082">
        <ele>863</ele>
        <time>2018-07-01T07:04:31.000Z</time>
      </trkpt>
      <trkpt lat="47.18806" lon="6.65085">
        <ele>862</ele>
        <time>2018-07-01T07:04:32.000Z</time>
      </trkpt>
      <trkpt lat="47.18809" lon="6.65087">
        <ele>862</ele>
        <time>2018-07-01T07:04:33.000Z</time>
      </trkpt>
      <trkpt lat="47.18812" lon="6.65089">
        <ele>863</ele>
        <time>2018-07-01T07:04:34.000Z</time>
      </trkpt>
      <trkpt lat="47.18815" lon="6.65091">
        <ele>863</ele>
        <time>2018-07-01T07:04:35.000Z</time>
      </trkpt>
      <trkpt lat="47.18818" lon="6.65094">
        <ele>863</ele>
        <time>2018-07-01T07:04:36.000Z</time>
      </trkpt>
      <trkpt lat="47.18821" lon="6.65096">
        <ele>863</ele>
        <time>2018-07-01T07:04:37.000Z</time>
      </trkpt>
      <trkpt lat="47.18824" lon="6.65098">
        <ele>863</ele>
        <time>2018-07-01T07:04:38.000Z</time>
      </trkpt>
      <trkpt lat="47.18827" lon="6.651">
        <ele>863</ele>
        <time>2018-07-01T07:04:39.000Z</time>
      </trkpt>
      <trkpt lat="47.18829" lon="6.65101">
        <ele>863</ele>
        <time>2018-07-01T07:04:40.000Z</time>
      </trkpt>
      <trkpt lat="47.18832" lon="6.65103">
        <ele>863</ele>
        <time>2018-07-01T07:04:41.000Z</time>
      </trkpt>
      <trkpt lat="47.18835" lon="6.65105">
        <ele>863</ele>
        <time>2018-07-01T07:04:42.000Z</time>
      </trkpt>
      <trkpt lat="47.18838" lon="6.65107">
        <ele>863</ele>
        <time>2018-07-01T07:04:43.000Z</time>
      </trkpt>
      <trkpt lat="47.18841" lon="6.65109">
        <ele>863</ele>
        <time>2018-07-01T07:04:44.000Z</time>
      </trkpt>
      <trkpt lat="47.18844" lon="6.65112">
        <ele>863</ele>
        <time>2018-07-01T07:04:45.000Z</time>
      </trkpt>
      <trkpt lat="47.18847" lon="6.65114">
        <ele>863</ele>
        <time>2018-07-01T07:04:46.000Z</time>
      </trkpt>
      <trkpt lat="47.1885" lon="6.65116">
        <ele>863</ele>
        <time>2018-07-01T07:04:47.000Z</time>
      </trkpt>
      <trkpt lat="47.18853" lon="6.65118">
        <ele>863</ele>
        <time>2018-07-01T07:04:48.000Z</time>
      </trkpt>
      <trkpt lat="47.18856" lon="6.6512">
        <ele>863</ele>
        <time>2018-07-01T07:04:49.000Z</time>
      </trkpt>
      <trkpt lat="47.18859" lon="6.65121">
        <ele>863</ele>
        <time>2018-07-01T07:04:50.000Z</time>
      </trkpt>
      <trkpt lat="47.18862" lon="6.65123">
        <ele>863</ele>
        <time>2018-07-01T07:04:51.000Z</time>
      </trkpt>
      <trkpt lat="47.18865" lon="6.65125">
        <ele>863</ele>
        <time>2018-07-01T07:04:52.000Z</time>
      </trkpt>
      <trkpt lat="47.18868" lon="6.65127">
        <ele>863</ele>
        <time>2018-07-01T07:04:53.000Z</time>
      </trkpt>
      <trkpt lat="47.18871" lon="6.65129">
        <ele>863</ele>
        <time>2018-07-01T07:04:54.000Z</time>
      </trkpt>
      <trkpt lat="47.18874" lon="6.65131">
        <ele>863</ele>
        <time>2018-07-01T07:04:55.000Z</time>
      </trkpt>
      <trkpt lat="47.18877" lon="6.65132">
        <ele>863</ele>
        <time>2018-07-01T07:04:56.000Z</time>
      </trkpt>
      <trkpt lat="47.1888" lon="6.65134">
        <ele>863</ele>
        <time>2018-07-01T07:04:57.000Z</time>
      </trkpt>
      <trkpt lat="47.18882" lon="6.65136">
        <ele>863</ele>
        <time>2018-07-01T07:04:58.000Z</time>
      </trkpt>
      <trkpt lat="47.18885" lon="6.65138">
        <ele>863</ele>
        <time>2018-07-01T07:04:59.000Z</time>
      </trkpt>
      <trkpt lat="47.18888" lon="6.6514">
        <ele>863</ele>
        <time>2018-07-01T07:05:00.000Z</time>
      </trkpt>
      <trkpt lat="47.18891" lon="6.65141">
        <ele>863</ele>
        <time>2018-07-01T07:05:01.000Z</time>
      </trkpt>
      <trkpt lat="47.18894" lon="6.65143">
        <ele>863</ele>
        <time>2018-07-01T07:05:02.000Z</time>
      </trkpt>
      <trkpt lat="47.18897" lon="6.65144">
        <ele>863</ele>
        <time>2018-07-01T07:05:03.000Z</time>
      </trkpt>
      <trkpt lat="47.189" lon="6.65146">
        <ele>863</ele>
        <time>2018-07-01T07:05:04.000Z</time>
      </trkpt>
      <trkpt lat="47.18903" lon="6.65147">
        <ele>863</ele>
        <time>2018-07-01T07:05:05.000Z</time>
      </trkpt>
      <trkpt lat="47.18906" lon="6.65149">
        <ele>863</ele>
        <time>2018-07-01T07:05:06.000Z</time>
      </trkpt>
      <trkpt lat="47.18909" lon="6.6515">
        <ele>863</ele>
        <time>2018-07-01T07:05:07.000Z</time>
      </trkpt>
      <trkpt lat="47.18912" lon="6.65151">
        <ele>863</ele>
        <time>2018-07-01T07:05:08.000Z</time>
      </trkpt>
      <trkpt lat="47.18915" lon="6.65152">
        <ele>863</ele>
        <time>2018-07-01T07:05:09.000Z</time>
      </trkpt>
      <trkpt lat="47.18918" lon="6.65154">
        <ele>862</ele>
        <time>2018-07-01T07:05:10.000Z</time>
      </trkpt>
      <trkpt lat="47.18921" lon="6.65154">
        <ele>862</ele>
        <time>2018-07-01T07:05:11.000Z</time>
      </trkpt>
      <trkpt lat="47.18924" lon="6.65154">
        <ele>862</ele>
        <time>2018-07-01T07:05:12.000Z</time>
      </trkpt>
      <trkpt lat="47.18927" lon="6.65155">
        <ele>862</ele>
        <time>2018-07-01T07:05:13.000Z</time>
      </trkpt>
      <trkpt lat="47.18931" lon="6.65154">
        <ele>862</ele>
        <time>2018-07-01T07:05:14.000Z</time>
      </trkpt>
      <trkpt lat="47.18934" lon="6.65154">
        <ele>861</ele>
        <time>2018-07-01T07:05:15.000Z</time>
      </trkpt>
      <trkpt lat="47.18938" lon="6.65154">
        <ele>861</ele>
        <time>2018-07-01T07:05:16.000Z</time>
      </trkpt>
      <trkpt lat="47.18942" lon="6.65154">
        <ele>861</ele>
        <time>2018-07-01T07:05:17.000Z</time>
      </trkpt>
      <trkpt lat="47.18945" lon="6.65154">
        <ele>861</ele>
        <time>2018-07-01T07:05:18.000Z</time>
      </trkpt>
      <trkpt lat="47.18949" lon="6.65153">
        <ele>861</ele>
        <time>2018-07-01T07:05:19.000Z</time>
      </trkpt>
      <trkpt lat="47.18952" lon="6.65153">
        <ele>860</ele>
        <time>2018-07-01T07:05:20.000Z</time>
      </trkpt>
      <trkpt lat="47.18956" lon="6.65153">
        <ele>860</ele>
        <time>2018-07-01T07:05:21.000Z</time>
      </trkpt>
      <trkpt lat="47.18959" lon="6.65152">
        <ele>860</ele>
        <time>2018-07-01T07:05:22.000Z</time>
      </trkpt>
      <trkpt lat="47.18963" lon="6.65152">
        <ele>860</ele>
        <time>2018-07-01T07:05:23.000Z</time>
      </trkpt>
      <trkpt lat="47.18967" lon="6.65152">
        <ele>860</ele>
        <time>2018-07-01T07:05:24.000Z</time>
      </trkpt>
      <trkpt lat="47.1897" lon="6.65152">
        <ele>860</ele>
        <time>2018-07-01T07:05:25.000Z</time>
      </trkpt>
      <trkpt lat="47.18973" lon="6.65152">
        <ele>860</ele>
        <time>2018-07-01T07:05:26.000Z</time>
      </trkpt>
      <trkpt lat="47.18977" lon="6.65152">
        <ele>860</ele>
        <time>2018-07-01T07:05:27.000Z</time>
      </trkpt>
      <trkpt lat="47.1898" lon="6.65151">
        <ele>860</ele>
        <time>2018-07-01T07:05:28.000Z</time>
      </trkpt>
      <trkpt lat="47.18983" lon="6.65149">
        <ele>860</ele>
        <time>2018-07-01T07:05:29.000Z</time>
      </trkpt>
      <trkpt lat="47.18986" lon="6.65147">
        <ele>860</ele>
        <time>2018-07-01T07:05:30.000Z</time>
      </trkpt>
      <trkpt lat="47.18989" lon="6.65143">
        <ele>859</ele>
        <time>2018-07-01T07:05:31.000Z</time>
      </trkpt>
      <trkpt lat="47.18992" lon="6.6514">
        <ele>859</ele>
        <time>2018-07-01T07:05:32.000Z</time>
      </trkpt>
      <trkpt lat="47.18994" lon="6.65136">
        <ele>859</ele>
        <time>2018-07-01T07:05:33.000Z</time>
      </trkpt>
      <trkpt lat="47.18997" lon="6.65132">
        <ele>859</ele>
        <time>2018-07-01T07:05:34.000Z</time>
      </trkpt>
      <trkpt lat="47.18999" lon="6.65128">
        <ele>859</ele>
        <time>2018-07-01T07:05:35.000Z</time>
      </trkpt>
      <trkpt lat="47.19002" lon="6.65123">
        <ele>854</ele>
        <time>2018-07-01T07:05:36.000Z</time>
      </trkpt>
      <trkpt lat="47.19004" lon="6.65118">
        <ele>854</ele>
        <time>2018-07-01T07:05:37.000Z</time>
      </trkpt>
      <trkpt lat="47.19005" lon="6.65113">
        <ele>854</ele>
        <time>2018-07-01T07:05:38.000Z</time>
      </trkpt>
      <trkpt lat="47.19007" lon="6.65108">
        <ele>854</ele>
        <time>2018-07-01T07:05:39.000Z</time>
      </trkpt>
      <trkpt lat="47.19009" lon="6.65103">
        <ele>854</ele>
        <time>2018-07-01T07:05:40.000Z</time>
      </trkpt>
      <trkpt lat="47.19011" lon="6.65097">
        <ele>853</ele>
        <time>2018-07-01T07:05:41.000Z</time>
      </trkpt>
      <trkpt lat="47.19012" lon="6.65092">
        <ele>853</ele>
        <time>2018-07-01T07:05:42.000Z</time>
      </trkpt>
      <trkpt lat="47.19014" lon="6.65087">
        <ele>853</ele>
        <time>2018-07-01T07:05:43.000Z</time>
      </trkpt>
      <trkpt lat="47.19015" lon="6.65082">
        <ele>852</ele>
        <time>2018-07-01T07:05:44.000Z</time>
      </trkpt>
      <trkpt lat="47.19017" lon="6.65077">
        <ele>851</ele>
        <time>2018-07-01T07:05:45.000Z</time>
      </trkpt>
      <trkpt lat="47.19018" lon="6.65072">
        <ele>851</ele>
        <time>2018-07-01T07:05:46.000Z</time>
      </trkpt>
      <trkpt lat="47.1902" lon="6.65067">
        <ele>851</ele>
        <time>2018-07-01T07:05:47.000Z</time>
      </trkpt>
      <trkpt lat="47.19021" lon="6.65062">
        <ele>850</ele>
        <time>2018-07-01T07:05:48.000Z</time>
      </trkpt>
      <trkpt lat="47.19022" lon="6.65057">
        <ele>850</ele>
        <time>2018-07-01T07:05:49.000Z</time>
      </trkpt>
      <trkpt lat="47.19024" lon="6.65051">
        <ele>850</ele>
        <time>2018-07-01T07:05:50.000Z</time>
      </trkpt>
      <trkpt lat="47.19025" lon="6.65046">
        <ele>849</ele>
        <time>2018-07-01T07:05:51.000Z</time>
      </trkpt>
      <trkpt lat="47.19026" lon="6.65041">
        <ele>849</ele>
        <time>2018-07-01T07:05:52.000Z</time>
      </trkpt>
      <trkpt lat="47.19027" lon="6.65035">
        <ele>849</ele>
        <time>2018-07-01T07:05:53.000Z</time>
      </trkpt>
      <trkpt lat="47.19028" lon="6.6503">
        <ele>849</ele>
        <time>2018-07-01T07:05:54.000Z</time>
      </trkpt>
      <trkpt lat="47.19029" lon="6.65025">
        <ele>849</ele>
        <time>2018-07-01T07:05:55.000Z</time>
      </trkpt>
      <trkpt lat="47.1903" lon="6.6502">
        <ele>849</ele>
        <time>2018-07-01T07:05:56.000Z</time>
      </trkpt>
      <trkpt lat="47.19031" lon="6.65015">
        <ele>849</ele>
        <time>2018-07-01T07:05:57.000Z</time>
      </trkpt>
      <trkpt lat="47.19032" lon="6.65009">
        <ele>848</ele>
        <time>2018-07-01T07:05:58.000Z</time>
      </trkpt>
      <trkpt lat="47.19033" lon="6.65004">
        <ele>848</ele>
        <time>2018-07-01T07:05:59.000Z</time>
      </trkpt>
      <trkpt lat="47.19034" lon="6.64999">
        <ele>847</ele>
        <time>2018-07-01T07:06:00.000Z</time>
      </trkpt>
      <trkpt lat="47.19034" lon="6.64994">
        <ele>846</ele>
        <time>2018-07-01T07:06:01.000Z</time>
      </trkpt>
      <trkpt lat="47.19035" lon="6.64989">
        <ele>846</ele>
        <time>2018-07-01T07:06:02.000Z</time>
      </trkpt>
      <trkpt lat="47.19035" lon="6.64983">
        <ele>846</ele>
        <time>2018-07-01T07:06:03.000Z</time>
      </trkpt>
      <trkpt lat="47.19036" lon="6.64978">
        <ele>846</ele>
        <time>2018-07-01T07:06:04.000Z</time>
      </trkpt>
      <trkpt lat="47.19036" lon="6.64973">
        <ele>846</ele>
        <time>2018-07-01T07:06:05.000Z</time>
      </trkpt>
      <trkpt lat="47.19036" lon="6.64967">
        <ele>846</ele>
        <time>2018-07-01T07:06:06.000Z</time>
      </trkpt>
      <trkpt lat="47.19037" lon="6.64962">
        <ele>846</ele>
        <time>2018-07-01T07:06:07.000Z</time>
      </trkpt>
      <trkpt lat="47.19037" lon="6.64957">
        <ele>846</ele>
        <time>2018-07-01T07:06:08.000Z</time>
      </trkpt>
      <trkpt lat="47.19037" lon="6.64951">
        <ele>846</ele>
        <time>2018-07-01T07:06:09.000Z</time>
      </trkpt>
      <trkpt lat="47.19037" lon="6.64946">
        <ele>846</ele>
        <time>2018-07-01T07:06:10.000Z</time>
      </trkpt>
      <trkpt lat="47.19037" lon="6.64941">
        <ele>846</ele>
        <time>2018-07-01T07:06:11.000Z</time>
      </trkpt>
      <trkpt lat="47.19037" lon="6.64936">
        <ele>846</ele>
        <time>2018-07-01T07:06:12.000Z</time>
      </trkpt>
      <trkpt lat="47.19038" lon="6.64931">
        <ele>846</ele>
        <time>2018-07-01T07:06:13.000Z</time>
      </trkpt>
      <trkpt lat="47.19038" lon="6.64926">
        <ele>846</ele>
        <time>2018-07-01T07:06:14.000Z</time>
      </trkpt>
      <trkpt lat="47.19038" lon="6.64921">
        <ele>845</ele>
        <time>2018-07-01T07:06:15.000Z</time>
      </trkpt>
      <trkpt lat="47.19039" lon="6.64915">
        <ele>844</ele>
        <time>2018-07-01T07:06:16.000Z</time>
      </trkpt>
      <trkpt lat="47.19039" lon="6.6491">
        <ele>844</ele>
        <time>2018-07-01T07:06:17.000Z</time>
      </trkpt>
      <trkpt lat="47.1904" lon="6.64905">
        <ele>844</ele>
        <time>2018-07-01T07:06:18.000Z</time>
      </trkpt>
      <trkpt lat="47.19041" lon="6.649">
        <ele>843</ele>
        <time>2018-07-01T07:06:19.000Z</time>
      </trkpt>
      <trkpt lat="47.19041" lon="6.64895">
        <ele>843</ele>
        <time>2018-07-01T07:06:20.000Z</time>
      </trkpt>
      <trkpt lat="47.19042" lon="6.6489">
        <ele>843</ele>
        <time>2018-07-01T07:06:21.000Z</time>
      </trkpt>
      <trkpt lat="47.19043" lon="6.64885">
        <ele>843</ele>
        <time>2018-07-01T07:06:22.000Z</time>
      </trkpt>
      <trkpt lat="47.19044" lon="6.6488">
        <ele>843</ele>
        <time>2018-07-01T07:06:23.000Z</time>
      </trkpt>
      <trkpt lat="47.19046" lon="6.64875">
        <ele>843</ele>
        <time>2018-07-01T07:06:24.000Z</time>
      </trkpt>
      <trkpt lat="47.19047" lon="6.6487">
        <ele>843</ele>
        <time>2018-07-01T07:06:25.000Z</time>
      </trkpt>
      <trkpt lat="47.19048" lon="6.64865">
        <ele>843</ele>
        <time>2018-07-01T07:06:26.000Z</time>
      </trkpt>
      <trkpt lat="47.19049" lon="6.6486">
        <ele>842</ele>
        <time>2018-07-01T07:06:27.000Z</time>
      </trkpt>
      <trkpt lat="47.1905" lon="6.64854">
        <ele>842</ele>
        <time>2018-07-01T07:06:28.000Z</time>
      </trkpt>
      <trkpt lat="47.19051" lon="6.64849">
        <ele>842</ele>
        <time>2018-07-01T07:06:29.000Z</time>
      </trkpt>
      <trkpt lat="47.19052" lon="6.64844">
        <ele>842</ele>
        <time>2018-07-01T07:06:30.000Z</time>
      </trkpt>
      <trkpt lat="47.19053" lon="6.6484">
        <ele>842</ele>
        <time>2018-07-01T07:06:31.000Z</time>
      </trkpt>
      <trkpt lat="47.19054" lon="6.64835">
        <ele>842</ele>
        <time>2018-07-01T07:06:32.000Z</time>
      </trkpt>
      <trkpt lat="47.19056" lon="6.6483">
        <ele>841</ele>
        <time>2018-07-01T07:06:33.000Z</time>
      </trkpt>
      <trkpt lat="47.19057" lon="6.64825">
        <ele>841</ele>
        <time>2018-07-01T07:06:34.000Z</time>
      </trkpt>
      <trkpt lat="47.19058" lon="6.64821">
        <ele>840</ele>
        <time>2018-07-01T07:06:35.000Z</time>
      </trkpt>
      <trkpt lat="47.1906" lon="6.64816">
        <ele>840</ele>
        <time>2018-07-01T07:06:36.000Z</time>
      </trkpt>
      <trkpt lat="47.19062" lon="6.64811">
        <ele>840</ele>
        <time>2018-07-01T07:06:37.000Z</time>
      </trkpt>
      <trkpt lat="47.19063" lon="6.64806">
        <ele>840</ele>
        <time>2018-07-01T07:06:38.000Z</time>
      </trkpt>
      <trkpt lat="47.19064" lon="6.64802">
        <ele>840</ele>
        <time>2018-07-01T07:06:39.000Z</time>
      </trkpt>
      <trkpt lat="47.19066" lon="6.64797">
        <ele>840</ele>
        <time>2018-07-01T07:06:40.000Z</time>
      </trkpt>
      <trkpt lat="47.19067" lon="6.64792">
        <ele>840</ele>
        <time>2018-07-01T07:06:41.000Z</time>
      </trkpt>
      <trkpt lat="47.19069" lon="6.64788">
        <ele>840</ele>
        <time>2018-07-01T07:06:42.000Z</time>
      </trkpt>
      <trkpt lat="47.19071" lon="6.64783">
        <ele>840</ele>
        <time>2018-07-01T07:06:43.000Z</time>
      </trkpt>
      <trkpt lat="47.19072" lon="6.64779">
        <ele>840</ele>
        <time>2018-07-01T07:06:44.000Z</time>
      </trkpt>
      <trkpt lat="47.19073" lon="6.64774">
        <ele>840</ele>
        <time>2018-07-01T07:06:45.000Z</time>
      </trkpt>
      <trkpt lat="47.19075" lon="6.6477">
        <ele>840</ele>
        <time>2018-07-01T07:06:46.000Z</time>
      </trkpt>
      <trkpt lat="47.19076" lon="6.64766">
        <ele>839</ele>
        <time>2018-07-01T07:06:47.000Z</time>
      </trkpt>
      <trkpt lat="47.19077" lon="6.64761">
        <ele>839</ele>
        <time>2018-07-01T07:06:48.000Z</time>
      </trkpt>
      <trkpt lat="47.19079" lon="6.64757">
        <ele>839</ele>
        <time>2018-07-01T07:06:49.000Z</time>
      </trkpt>
      <trkpt lat="47.1908" lon="6.64752">
        <ele>838</ele>
        <time>2018-07-01T07:06:50.000Z</time>
      </trkpt>
      <trkpt lat="47.19082" lon="6.64748">
        <ele>838</ele>
        <time>2018-07-01T07:06:51.000Z</time>
      </trkpt>
      <trkpt lat="47.19084" lon="6.64743">
        <ele>837</ele>
        <time>2018-07-01T07:06:52.000Z</time>
      </trkpt>
      <trkpt lat="47.19085" lon="6.64738">
        <ele>837</ele>
        <time>2018-07-01T07:06:53.000Z</time>
      </trkpt>
      <trkpt lat="47.19086" lon="6.64734">
        <ele>837</ele>
        <time>2018-07-01T07:06:54.000Z</time>
      </trkpt>
      <trkpt lat="47.19088" lon="6.64729">
        <ele>837</ele>
        <time>2018-07-01T07:06:55.000Z</time>
      </trkpt>
      <trkpt lat="47.19089" lon="6.64724">
        <ele>837</ele>
        <time>2018-07-01T07:06:56.000Z</time>
      </trkpt>
      <trkpt lat="47.1909" lon="6.6472">
        <ele>837</ele>
        <time>2018-07-01T07:06:57.000Z</time>
      </trkpt>
      <trkpt lat="47.19092" lon="6.64715">
        <ele>837</ele>
        <time>2018-07-01T07:06:58.000Z</time>
      </trkpt>
      <trkpt lat="47.19093" lon="6.6471">
        <ele>836</ele>
        <time>2018-07-01T07:06:59.000Z</time>
      </trkpt>
      <trkpt lat="47.19094" lon="6.64706">
        <ele>836</ele>
        <time>2018-07-01T07:07:00.000Z</time>
      </trkpt>
      <trkpt lat="47.19096" lon="6.64702">
        <ele>836</ele>
        <time>2018-07-01T07:07:01.000Z</time>
      </trkpt>
      <trkpt lat="47.19097" lon="6.64697">
        <ele>836</ele>
        <time>2018-07-01T07:07:02.000Z</time>
      </trkpt>
      <trkpt lat="47.19098" lon="6.64693">
        <ele>836</ele>
        <time>2018-07-01T07:07:03.000Z</time>
      </trkpt>
      <trkpt lat="47.191" lon="6.64689">
        <ele>836</ele>
        <time>2018-07-01T07:07:04.000Z</time>
      </trkpt>
      <trkpt lat="47.19101" lon="6.64684">
        <ele>836</ele>
        <time>2018-07-01T07:07:05.000Z</time>
      </trkpt>
      <trkpt lat="47.19103" lon="6.6468">
        <ele>837</ele>
        <time>2018-07-01T07:07:06.000Z</time>
      </trkpt>
      <trkpt lat="47.19104" lon="6.64676">
        <ele>837</ele>
        <time>2018-07-01T07:07:07.000Z</time>
      </trkpt>
      <trkpt lat="47.19105" lon="6.64671">
        <ele>836</ele>
        <time>2018-07-01T07:07:08.000Z</time>
      </trkpt>
      <trkpt lat="47.19107" lon="6.64666">
        <ele>836</ele>
        <time>2018-07-01T07:07:09.000Z</time>
      </trkpt>
      <trkpt lat="47.19108" lon="6.64662">
        <ele>836</ele>
        <time>2018-07-01T07:07:10.000Z</time>
      </trkpt>
      <trkpt lat="47.1911" lon="6.64657">
        <ele>836</ele>
        <time>2018-07-01T07:07:11.000Z</time>
      </trkpt>
      <trkpt lat="47.19112" lon="6.64652">
        <ele>835</ele>
        <time>2018-07-01T07:07:12.000Z</time>
      </trkpt>
      <trkpt lat="47.19114" lon="6.64648">
        <ele>835</ele>
        <time>2018-07-01T07:07:13.000Z</time>
      </trkpt>
      <trkpt lat="47.19116" lon="6.64643">
        <ele>835</ele>
        <time>2018-07-01T07:07:14.000Z</time>
      </trkpt>
      <trkpt lat="47.19117" lon="6.64639">
        <ele>835</ele>
        <time>2018-07-01T07:07:15.000Z</time>
      </trkpt>
      <trkpt lat="47.19119" lon="6.64635">
        <ele>835</ele>
        <time>2018-07-01T07:07:16.000Z</time>
      </trkpt>
      <trkpt lat="47.19121" lon="6.64631">
        <ele>835</ele>
        <time>2018-07-01T07:07:17.000Z</time>
      </trkpt>
      <trkpt lat="47.19123" lon="6.64627">
        <ele>835</ele>
        <time>2018-07-01T07:07:18.000Z</time>
      </trkpt>
      <trkpt lat="47.19125" lon="6.64623">
        <ele>835</ele>
        <time>2018-07-01T07:07:19.000Z</time>
      </trkpt>
      <trkpt lat="47.19127" lon="6.64619">
        <ele>835</ele>
        <time>2018-07-01T07:07:20.000Z</time>
      </trkpt>
      <trkpt lat="47.19129" lon="6.64615">
        <ele>835</ele>
        <time>2018-07-01T07:07:21.000Z</time>
      </trkpt>
      <trkpt lat="47.19131" lon="6.64611">
        <ele>834</ele>
        <time>2018-07-01T07:07:22.000Z</time>
      </trkpt>
      <trkpt lat="47.19133" lon="6.64608">
        <ele>834</ele>
        <time>2018-07-01T07:07:23.000Z</time>
      </trkpt>
      <trkpt lat="47.19136" lon="6.64604">
        <ele>834</ele>
        <time>2018-07-01T07:07:24.000Z</time>
      </trkpt>
      <trkpt lat="47.19138" lon="6.64601">
        <ele>834</ele>
        <time>2018-07-01T07:07:25.000Z</time>
      </trkpt>
      <trkpt lat="47.1914" lon="6.64597">
        <ele>834</ele>
        <time>2018-07-01T07:07:26.000Z</time>
      </trkpt>
      <trkpt lat="47.19142" lon="6.64593">
        <ele>834</ele>
        <time>2018-07-01T07:07:27.000Z</time>
      </trkpt>
      <trkpt lat="47.19144" lon="6.64589">
        <ele>834</ele>
        <time>2018-07-01T07:07:28.000Z</time>
      </trkpt>
      <trkpt lat="47.19147" lon="6.64585">
        <ele>834</ele>
        <time>2018-07-01T07:07:29.000Z</time>
      </trkpt>
      <trkpt lat="47.19149" lon="6.64581">
        <ele>833</ele>
        <time>2018-07-01T07:07:30.000Z</time>
      </trkpt>
      <trkpt lat="47.19151" lon="6.64577">
        <ele>833</ele>
        <time>2018-07-01T07:07:31.000Z</time>
      </trkpt>
      <trkpt lat="47.19153" lon="6.64574">
        <ele>833</ele>
        <time>2018-07-01T07:07:32.000Z</time>
      </trkpt>
      <trkpt lat="47.19156" lon="6.6457">
        <ele>833</ele>
        <time>2018-07-01T07:07:33.000Z</time>
      </trkpt>
      <trkpt lat="47.19159" lon="6.64567">
        <ele>833</ele>
        <time>2018-07-01T07:07:34.000Z</time>
      </trkpt>
      <trkpt lat="47.19161" lon="6.64565">
        <ele>833</ele>
        <time>2018-07-01T07:07:35.000Z</time>
      </trkpt>
      <trkpt lat="47.19165" lon="6.64565">
        <ele>833</ele>
        <time>2018-07-01T07:07:36.000Z</time>
      </trkpt>
      <trkpt lat="47.19169" lon="6.64566">
        <ele>831</ele>
        <time>2018-07-01T07:07:37.000Z</time>
      </trkpt>
      <trkpt lat="47.19172" lon="6.64568">
        <ele>831</ele>
        <time>2018-07-01T07:07:38.000Z</time>
      </trkpt>
      <trkpt lat="47.19176" lon="6.64572">
        <ele>831</ele>
        <time>2018-07-01T07:07:39.000Z</time>
      </trkpt>
      <trkpt lat="47.19179" lon="6.64576">
        <ele>831</ele>
        <time>2018-07-01T07:07:40.000Z</time>
      </trkpt>
      <trkpt lat="47.19182" lon="6.6458">
        <ele>831</ele>
        <time>2018-07-01T07:07:41.000Z</time>
      </trkpt>
      <trkpt lat="47.19184" lon="6.64585">
        <ele>831</ele>
        <time>2018-07-01T07:07:42.000Z</time>
      </trkpt>
      <trkpt lat="47.19186" lon="6.6459">
        <ele>831</ele>
        <time>2018-07-01T07:07:43.000Z</time>
      </trkpt>
      <trkpt lat="47.19188" lon="6.64596">
        <ele>831</ele>
        <time>2018-07-01T07:07:44.000Z</time>
      </trkpt>
      <trkpt lat="47.19189" lon="6.64602">
        <ele>831</ele>
        <time>2018-07-01T07:07:45.000Z</time>
      </trkpt>
      <trkpt lat="47.19189" lon="6.64607">
        <ele>830</ele>
        <time>2018-07-01T07:07:46.000Z</time>
      </trkpt>
      <trkpt lat="47.19189" lon="6.64613">
        <ele>830</ele>
        <time>2018-07-01T07:07:47.000Z</time>
      </trkpt>
      <trkpt lat="47.19189" lon="6.64619">
        <ele>830</ele>
        <time>2018-07-01T07:07:48.000Z</time>
      </trkpt>
      <trkpt lat="47.19189" lon="6.64624">
        <ele>830</ele>
        <time>2018-07-01T07:07:49.000Z</time>
      </trkpt>
      <trkpt lat="47.19189" lon="6.6463">
        <ele>830</ele>
        <time>2018-07-01T07:07:50.000Z</time>
      </trkpt>
      <trkpt lat="47.19189" lon="6.64635">
        <ele>831</ele>
        <time>2018-07-01T07:07:51.000Z</time>
      </trkpt>
      <trkpt lat="47.19189" lon="6.6464">
        <ele>831</ele>
        <time>2018-07-01T07:07:52.000Z</time>
      </trkpt>
      <trkpt lat="47.19189" lon="6.64646">
        <ele>831</ele>
        <time>2018-07-01T07:07:53.000Z</time>
      </trkpt>
      <trkpt lat="47.1919" lon="6.64651">
        <ele>831</ele>
        <time>2018-07-01T07:07:54.000Z</time>
      </trkpt>
      <trkpt lat="47.1919" lon="6.64656">
        <ele>831</ele>
        <time>2018-07-01T07:07:55.000Z</time>
      </trkpt>
      <trkpt lat="47.1919" lon="6.64661">
        <ele>831</ele>
        <time>2018-07-01T07:07:56.000Z</time>
      </trkpt>
      <trkpt lat="47.19191" lon="6.64666">
        <ele>831</ele>
        <time>2018-07-01T07:07:57.000Z</time>
      </trkpt>
      <trkpt lat="47.19192" lon="6.64671">
        <ele>832</ele>
        <time>2018-07-01T07:07:58.000Z</time>
      </trkpt>
      <trkpt lat="47.19192" lon="6.64676">
        <ele>832</ele>
        <time>2018-07-01T07:07:59.000Z</time>
      </trkpt>
      <trkpt lat="47.19193" lon="6.64681">
        <ele>832</ele>
        <time>2018-07-01T07:08:00.000Z</time>
      </trkpt>
      <trkpt lat="47.19194" lon="6.64685">
        <ele>832</ele>
        <time>2018-07-01T07:08:01.000Z</time>
      </trkpt>
      <trkpt lat="47.19194" lon="6.6469">
        <ele>832</ele>
        <time>2018-07-01T07:08:02.000Z</time>
      </trkpt>
      <trkpt lat="47.19195" lon="6.64694">
        <ele>832</ele>
        <time>2018-07-01T07:08:03.000Z</time>
      </trkpt>
      <trkpt lat="47.19196" lon="6.64699">
        <ele>832</ele>
        <time>2018-07-01T07:08:04.000Z</time>
      </trkpt>
      <trkpt lat="47.19197" lon="6.64703">
        <ele>832</ele>
        <time>2018-07-01T07:08:05.000Z</time>
      </trkpt>
      <trkpt lat="47.19198" lon="6.64708">
        <ele>832</ele>
        <time>2018-07-01T07:08:06.000Z</time>
      </trkpt>
      <trkpt lat="47.19198" lon="6.64712">
        <ele>832</ele>
        <time>2018-07-01T07:08:07.000Z</time>
      </trkpt>
      <trkpt lat="47.192" lon="6.64716">
        <ele>832</ele>
        <time>2018-07-01T07:08:08.000Z</time>
      </trkpt>
      <trkpt lat="47.19201" lon="6.6472">
        <ele>832</ele>
        <time>2018-07-01T07:08:09.000Z</time>
      </trkpt>
      <trkpt lat="47.19202" lon="6.64725">
        <ele>832</ele>
        <time>2018-07-01T07:08:10.000Z</time>
      </trkpt>
      <trkpt lat="47.19203" lon="6.64729">
        <ele>832</ele>
        <time>2018-07-01T07:08:11.000Z</time>
      </trkpt>
      <trkpt lat="47.19204" lon="6.64733">
        <ele>833</ele>
        <time>2018-07-01T07:08:12.000Z</time>
      </trkpt>
      <trkpt lat="47.19206" lon="6.64737">
        <ele>833</ele>
        <time>2018-07-01T07:08:13.000Z</time>
      </trkpt>
      <trkpt lat="47.19207" lon="6.64742">
        <ele>833</ele>
        <time>2018-07-01T07:08:14.000Z</time>
      </trkpt>
      <trkpt lat="47.19208" lon="6.64746">
        <ele>833</ele>
        <time>2018-07-01T07:08:15.000Z</time>
      </trkpt>
      <trkpt lat="47.19209" lon="6.64751">
        <ele>833</ele>
        <time>2018-07-01T07:08:16.000Z</time>
      </trkpt>
      <trkpt lat="47.1921" lon="6.64755">
        <ele>833</ele>
        <time>2018-07-01T07:08:17.000Z</time>
      </trkpt>
      <trkpt lat="47.19211" lon="6.6476">
        <ele>833</ele>
        <time>2018-07-01T07:08:18.000Z</time>
      </trkpt>
      <trkpt lat="47.19212" lon="6.64764">
        <ele>833</ele>
        <time>2018-07-01T07:08:19.000Z</time>
      </trkpt>
      <trkpt lat="47.19213" lon="6.64768">
        <ele>833</ele>
        <time>2018-07-01T07:08:20.000Z</time>
      </trkpt>
      <trkpt lat="47.19213" lon="6.64773">
        <ele>833</ele>
        <time>2018-07-01T07:08:21.000Z</time>
      </trkpt>
      <trkpt lat="47.19214" lon="6.64777">
        <ele>833</ele>
        <time>2018-07-01T07:08:22.000Z</time>
      </trkpt>
      <trkpt lat="47.19215" lon="6.64781">
        <ele>833</ele>
        <time>2018-07-01T07:08:23.000Z</time>
      </trkpt>
      <trkpt lat="47.19215" lon="6.64785">
        <ele>833</ele>
        <time>2018-07-01T07:08:24.000Z</time>
      </trkpt>
      <trkpt lat="47.19216" lon="6.64789">
        <ele>833</ele>
        <time>2018-07-01T07:08:25.000Z</time>
      </trkpt>
      <trkpt lat="47.19217" lon="6.64794">
        <ele>833</ele>
        <time>2018-07-01T07:08:26.000Z</time>
      </trkpt>
      <trkpt lat="47.19218" lon="6.64798">
        <ele>833</ele>
        <time>2018-07-01T07:08:27.000Z</time>
      </trkpt>
      <trkpt lat="47.1922" lon="6.64802">
        <ele>833</ele>
        <time>2018-07-01T07:08:28.000Z</time>
      </trkpt>
      <trkpt lat="47.19221" lon="6.64805">
        <ele>833</ele>
        <time>2018-07-01T07:08:29.000Z</time>
      </trkpt>
      <trkpt lat="47.19223" lon="6.64809">
        <ele>833</ele>
        <time>2018-07-01T07:08:30.000Z</time>
      </trkpt>
      <trkpt lat="47.19226" lon="6.64811">
        <ele>833</ele>
        <time>2018-07-01T07:08:31.000Z</time>
      </trkpt>
      <trkpt lat="47.19228" lon="6.64814">
        <ele>833</ele>
        <time>2018-07-01T07:08:32.000Z</time>
      </trkpt>
      <trkpt lat="47.1923" lon="6.64816">
        <ele>833</ele>
        <time>2018-07-01T07:08:33.000Z</time>
      </trkpt>
      <trkpt lat="47.19232" lon="6.64818">
        <ele>832</ele>
        <time>2018-07-01T07:08:34.000Z</time>
      </trkpt>
      <trkpt lat="47.19234" lon="6.6482">
        <ele>832</ele>
        <time>2018-07-01T07:08:35.000Z</time>
      </trkpt>
      <trkpt lat="47.19236" lon="6.64822">
        <ele>832</ele>
        <time>2018-07-01T07:08:36.000Z</time>
      </trkpt>
      <trkpt lat="47.19239" lon="6.64824">
        <ele>832</ele>
        <time>2018-07-01T07:08:37.000Z</time>
      </trkpt>
      <trkpt lat="47.19241" lon="6.64826">
        <ele>832</ele>
        <time>2018-07-01T07:08:38.000Z</time>
      </trkpt>
      <trkpt lat="47.19243" lon="6.64828">
        <ele>832</ele>
        <time>2018-07-01T07:08:39.000Z</time>
      </trkpt>
      <trkpt lat="47.19246" lon="6.64829">
        <ele>831</ele>
        <time>2018-07-01T07:08:40.000Z</time>
      </trkpt>
      <trkpt lat="47.19248" lon="6.64831">
        <ele>831</ele>
        <time>2018-07-01T07:08:41.000Z</time>
      </trkpt>
      <trkpt lat="47.19251" lon="6.64833">
        <ele>831</ele>
        <time>2018-07-01T07:08:42.000Z</time>
      </trkpt>
      <trkpt lat="47.19253" lon="6.64835">
        <ele>831</ele>
        <time>2018-07-01T07:08:43.000Z</time>
      </trkpt>
      <trkpt lat="47.19256" lon="6.64837">
        <ele>832</ele>
        <time>2018-07-01T07:08:44.000Z</time>
      </trkpt>
      <trkpt lat="47.19258" lon="6.64839">
        <ele>832</ele>
        <time>2018-07-01T07:08:45.000Z</time>
      </trkpt>
      <trkpt lat="47.19261" lon="6.64841">
        <ele>832</ele>
        <time>2018-07-01T07:08:46.000Z</time>
      </trkpt>
      <trkpt lat="47.19263" lon="6.64843">
        <ele>832</ele>
        <time>2018-07-01T07:08:47.000Z</time>
      </trkpt>
      <trkpt lat="47.19266" lon="6.64845">
        <ele>832</ele>
        <time>2018-07-01T07:08:48.000Z</time>
      </trkpt>
      <trkpt lat="47.19268" lon="6.64847">
        <ele>833</ele>
        <time>2018-07-01T07:08:49.000Z</time>
      </trkpt>
      <trkpt lat="47.19271" lon="6.64849">
        <ele>833</ele>
        <time>2018-07-01T07:08:50.000Z</time>
      </trkpt>
      <trkpt lat="47.19274" lon="6.64851">
        <ele>833</ele>
        <time>2018-07-01T07:08:51.000Z</time>
      </trkpt>
      <trkpt lat="47.19276" lon="6.64852">
        <ele>833</ele>
        <time>2018-07-01T07:08:52.000Z</time>
      </trkpt>
      <trkpt lat="47.19279" lon="6.64854">
        <ele>833</ele>
        <time>2018-07-01T07:08:53.000Z</time>
      </trkpt>
      <trkpt lat="47.19281" lon="6.64857">
        <ele>833</ele>
        <time>2018-07-01T07:08:54.000Z</time>
      </trkpt>
      <trkpt lat="47.19284" lon="6.64858">
        <ele>833</ele>
        <time>2018-07-01T07:08:55.000Z</time>
      </trkpt>
      <trkpt lat="47.19287" lon="6.6486">
        <ele>833</ele>
        <time>2018-07-01T07:08:56.000Z</time>
      </trkpt>
      <trkpt lat="47.19289" lon="6.64862">
        <ele>834</ele>
        <time>2018-07-01T07:08:57.000Z</time>
      </trkpt>
      <trkpt lat="47.19292" lon="6.64864">
        <ele>834</ele>
        <time>2018-07-01T07:08:58.000Z</time>
      </trkpt>
      <trkpt lat="47.19295" lon="6.64866">
        <ele>834</ele>
        <time>2018-07-01T07:08:59.000Z</time>
      </trkpt>
      <trkpt lat="47.19297" lon="6.64868">
        <ele>834</ele>
        <time>2018-07-01T07:09:00.000Z</time>
      </trkpt>
      <trkpt lat="47.193" lon="6.6487">
        <ele>834</ele>
        <time>2018-07-01T07:09:01.000Z</time>
      </trkpt>
      <trkpt lat="47.19302" lon="6.64872">
        <ele>834</ele>
        <time>2018-07-01T07:09:02.000Z</time>
      </trkpt>
      <trkpt lat="47.19305" lon="6.64874">
        <ele>834</ele>
        <time>2018-07-01T07:09:03.000Z</time>
      </trkpt>
      <trkpt lat="47.19307" lon="6.64875">
        <ele>834</ele>
        <time>2018-07-01T07:09:04.000Z</time>
      </trkpt>
      <trkpt lat="47.1931" lon="6.64878">
        <ele>834</ele>
        <time>2018-07-01T07:09:05.000Z</time>
      </trkpt>
      <trkpt lat="47.19313" lon="6.64879">
        <ele>834</ele>
        <time>2018-07-01T07:09:06.000Z</time>
      </trkpt>
      <trkpt lat="47.19315" lon="6.64881">
        <ele>834</ele>
        <time>2018-07-01T07:09:07.000Z</time>
      </trkpt>
      <trkpt lat="47.19318" lon="6.64883">
        <ele>834</ele>
        <time>2018-07-01T07:09:08.000Z</time>
      </trkpt>
      <trkpt lat="47.1932" lon="6.64885">
        <ele>835</ele>
        <time>2018-07-01T07:09:09.000Z</time>
      </trkpt>
      <trkpt lat="47.19323" lon="6.64887">
        <ele>835</ele>
        <time>2018-07-01T07:09:10.000Z</time>
      </trkpt>
      <trkpt lat="47.19325" lon="6.64889">
        <ele>835</ele>
        <time>2018-07-01T07:09:11.000Z</time>
      </trkpt>
      <trkpt lat="47.19328" lon="6.64891">
        <ele>835</ele>
        <time>2018-07-01T07:09:12.000Z</time>
      </trkpt>
      <trkpt lat="47.1933" lon="6.64892">
        <ele>835</ele>
        <time>2018-07-01T07:09:13.000Z</time>
      </trkpt>
      <trkpt lat="47.19333" lon="6.64894">
        <ele>835</ele>
        <time>2018-07-01T07:09:14.000Z</time>
      </trkpt>
      <trkpt lat="47.19335" lon="6.64896">
        <ele>837</ele>
        <time>2018-07-01T07:09:15.000Z</time>
      </trkpt>
      <trkpt lat="47.19338" lon="6.64898">
        <ele>837</ele>
        <time>2018-07-01T07:09:16.000Z</time>
      </trkpt>
      <trkpt lat="47.19341" lon="6.649">
        <ele>837</ele>
        <time>2018-07-01T07:09:17.000Z</time>
      </trkpt>
      <trkpt lat="47.19343" lon="6.64901">
        <ele>837</ele>
        <time>2018-07-01T07:09:18.000Z</time>
      </trkpt>
      <trkpt lat="47.19346" lon="6.64903">
        <ele>837</ele>
        <time>2018-07-01T07:09:19.000Z</time>
      </trkpt>
      <trkpt lat="47.19348" lon="6.64904">
        <ele>837</ele>
        <time>2018-07-01T07:09:20.000Z</time>
      </trkpt>
      <trkpt lat="47.19351" lon="6.64906">
        <ele>837</ele>
        <time>2018-07-01T07:09:21.000Z</time>
      </trkpt>
      <trkpt lat="47.19353" lon="6.64908">
        <ele>838</ele>
        <time>2018-07-01T07:09:22.000Z</time>
      </trkpt>
      <trkpt lat="47.19356" lon="6.64909">
        <ele>838</ele>
        <time>2018-07-01T07:09:23.000Z</time>
      </trkpt>
      <trkpt lat="47.19358" lon="6.64911">
        <ele>838</ele>
        <time>2018-07-01T07:09:24.000Z</time>
      </trkpt>
      <trkpt lat="47.19361" lon="6.64912">
        <ele>838</ele>
        <time>2018-07-01T07:09:25.000Z</time>
      </trkpt>
      <trkpt lat="47.19364" lon="6.64914">
        <ele>838</ele>
        <time>2018-07-01T07:09:26.000Z</time>
      </trkpt>
      <trkpt lat="47.19367" lon="6.64915">
        <ele>838</ele>
        <time>2018-07-01T07:09:27.000Z</time>
      </trkpt>
      <trkpt lat="47.19369" lon="6.64917">
        <ele>838</ele>
        <time>2018-07-01T07:09:28.000Z</time>
      </trkpt>
      <trkpt lat="47.19372" lon="6.64918">
        <ele>839</ele>
        <time>2018-07-01T07:09:29.000Z</time>
      </trkpt>
      <trkpt lat="47.19375" lon="6.64919">
        <ele>839</ele>
        <time>2018-07-01T07:09:30.000Z</time>
      </trkpt>
      <trkpt lat="47.19378" lon="6.64921">
        <ele>839</ele>
        <time>2018-07-01T07:09:31.000Z</time>
      </trkpt>
      <trkpt lat="47.1938" lon="6.64922">
        <ele>839</ele>
        <time>2018-07-01T07:09:32.000Z</time>
      </trkpt>
      <trkpt lat="47.19383" lon="6.64923">
        <ele>839</ele>
        <time>2018-07-01T07:09:33.000Z</time>
      </trkpt>
      <trkpt lat="47.19386" lon="6.64925">
        <ele>840</ele>
        <time>2018-07-01T07:09:34.000Z</time>
      </trkpt>
      <trkpt lat="47.19389" lon="6.64926">
        <ele>840</ele>
        <time>2018-07-01T07:09:35.000Z</time>
      </trkpt>
      <trkpt lat="47.19391" lon="6.64927">
        <ele>840</ele>
        <time>2018-07-01T07:09:36.000Z</time>
      </trkpt>
      <trkpt lat="47.19394" lon="6.64928">
        <ele>840</ele>
        <time>2018-07-01T07:09:37.000Z</time>
      </trkpt>
      <trkpt lat="47.19397" lon="6.64929">
        <ele>840</ele>
        <time>2018-07-01T07:09:38.000Z</time>
      </trkpt>
      <trkpt lat="47.194" lon="6.6493">
        <ele>840</ele>
        <time>2018-07-01T07:09:39.000Z</time>
      </trkpt>
      <trkpt lat="47.19402" lon="6.64931">
        <ele>840</ele>
        <time>2018-07-01T07:09:40.000Z</time>
      </trkpt>
      <trkpt lat="47.19405" lon="6.64932">
        <ele>840</ele>
        <time>2018-07-01T07:09:41.000Z</time>
      </trkpt>
      <trkpt lat="47.19408" lon="6.64932">
        <ele>840</ele>
        <time>2018-07-01T07:09:42.000Z</time>
      </trkpt>
      <trkpt lat="47.1941" lon="6.64933">
        <ele>840</ele>
        <time>2018-07-01T07:09:43.000Z</time>
      </trkpt>
      <trkpt lat="47.19413" lon="6.64934">
        <ele>840</ele>
        <time>2018-07-01T07:09:44.000Z</time>
      </trkpt>
      <trkpt lat="47.19416" lon="6.64935">
        <ele>840</ele>
        <time>2018-07-01T07:09:45.000Z</time>
      </trkpt>
      <trkpt lat="47.19418" lon="6.64936">
        <ele>843</ele>
        <time>2018-07-01T07:09:46.000Z</time>
      </trkpt>
      <trkpt lat="47.19421" lon="6.64937">
        <ele>843</ele>
        <time>2018-07-01T07:09:47.000Z</time>
      </trkpt>
      <trkpt lat="47.19424" lon="6.64938">
        <ele>843</ele>
        <time>2018-07-01T07:09:48.000Z</time>
      </trkpt>
      <trkpt lat="47.19426" lon="6.64939">
        <ele>843</ele>
        <time>2018-07-01T07:09:49.000Z</time>
      </trkpt>
      <trkpt lat="47.19429" lon="6.6494">
        <ele>844</ele>
        <time>2018-07-01T07:09:50.000Z</time>
      </trkpt>
      <trkpt lat="47.19431" lon="6.64941">
        <ele>844</ele>
        <time>2018-07-01T07:09:51.000Z</time>
      </trkpt>
      <trkpt lat="47.19434" lon="6.64943">
        <ele>844</ele>
        <time>2018-07-01T07:09:52.000Z</time>
      </trkpt>
      <trkpt lat="47.19436" lon="6.64943">
        <ele>844</ele>
        <time>2018-07-01T07:09:53.000Z</time>
      </trkpt>
      <trkpt lat="47.19439" lon="6.64944">
        <ele>844</ele>
        <time>2018-07-01T07:09:54.000Z</time>
      </trkpt>
      <trkpt lat="47.19442" lon="6.64945">
        <ele>844</ele>
        <time>2018-07-01T07:09:55.000Z</time>
      </trkpt>
      <trkpt lat="47.19444" lon="6.64946">
        <ele>844</ele>
        <time>2018-07-01T07:09:56.000Z</time>
      </trkpt>
      <trkpt lat="47.19447" lon="6.64948">
        <ele>845</ele>
        <time>2018-07-01T07:09:57.000Z</time>
      </trkpt>
      <trkpt lat="47.1945" lon="6.64949">
        <ele>845</ele>
        <time>2018-07-01T07:09:58.000Z</time>
      </trkpt>
      <trkpt lat="47.19452" lon="6.6495">
        <ele>845</ele>
        <time>2018-07-01T07:09:59.000Z</time>
      </trkpt>
      <trkpt lat="47.19455" lon="6.64951">
        <ele>845</ele>
        <time>2018-07-01T07:10:00.000Z</time>
      </trkpt>
      <trkpt lat="47.19458" lon="6.64953">
        <ele>845</ele>
        <time>2018-07-01T07:10:01.000Z</time>
      </trkpt>
      <trkpt lat="47.1946" lon="6.64954">
        <ele>845</ele>
        <time>2018-07-01T07:10:02.000Z</time>
      </trkpt>
      <trkpt lat="47.19463" lon="6.64956">
        <ele>845</ele>
        <time>2018-07-01T07:10:03.000Z</time>
      </trkpt>
      <trkpt lat="47.19465" lon="6.64957">
        <ele>846</ele>
        <time>2018-07-01T07:10:04.000Z</time>
      </trkpt>
      <trkpt lat="47.19468" lon="6.64958">
        <ele>846</ele>
        <time>2018-07-01T07:10:05.000Z</time>
      </trkpt>
      <trkpt lat="47.1947" lon="6.6496">
        <ele>846</ele>
        <time>2018-07-01T07:10:06.000Z</time>
      </trkpt>
      <trkpt lat="47.19473" lon="6.64962">
        <ele>846</ele>
        <time>2018-07-01T07:10:07.000Z</time>
      </trkpt>
      <trkpt lat="47.19475" lon="6.64964">
        <ele>846</ele>
        <time>2018-07-01T07:10:08.000Z</time>
      </trkpt>
      <trkpt lat="47.19478" lon="6.64965">
        <ele>846</ele>
        <time>2018-07-01T07:10:09.000Z</time>
      </trkpt>
      <trkpt lat="47.1948" lon="6.64968">
        <ele>846</ele>
        <time>2018-07-01T07:10:10.000Z</time>
      </trkpt>
      <trkpt lat="47.19482" lon="6.6497">
        <ele>846</ele>
        <time>2018-07-01T07:10:11.000Z</time>
      </trkpt>
      <trkpt lat="47.19485" lon="6.64972">
        <ele>847</ele>
        <time>2018-07-01T07:10:12.000Z</time>
      </trkpt>
      <trkpt lat="47.19487" lon="6.64974">
        <ele>847</ele>
        <time>2018-07-01T07:10:13.000Z</time>
      </trkpt>
      <trkpt lat="47.19489" lon="6.64976">
        <ele>847</ele>
        <time>2018-07-01T07:10:14.000Z</time>
      </trkpt>
      <trkpt lat="47.19491" lon="6.64979">
        <ele>847</ele>
        <time>2018-07-01T07:10:15.000Z</time>
      </trkpt>
      <trkpt lat="47.19493" lon="6.64981">
        <ele>847</ele>
        <time>2018-07-01T07:10:16.000Z</time>
      </trkpt>
      <trkpt lat="47.19495" lon="6.64983">
        <ele>848</ele>
        <time>2018-07-01T07:10:17.000Z</time>
      </trkpt>
      <trkpt lat="47.19498" lon="6.64986">
        <ele>848</ele>
        <time>2018-07-01T07:10:18.000Z</time>
      </trkpt>
      <trkpt lat="47.195" lon="6.64988">
        <ele>848</ele>
        <time>2018-07-01T07:10:19.000Z</time>
      </trkpt>
      <trkpt lat="47.19502" lon="6.64991">
        <ele>851</ele>
        <time>2018-07-01T07:10:20.000Z</time>
      </trkpt>
      <trkpt lat="47.19504" lon="6.64993">
        <ele>850</ele>
        <time>2018-07-01T07:10:21.000Z</time>
      </trkpt>
      <trkpt lat="47.19506" lon="6.64996">
        <ele>850</ele>
        <time>2018-07-01T07:10:22.000Z</time>
      </trkpt>
      <trkpt lat="47.19509" lon="6.64998">
        <ele>851</ele>
        <time>2018-07-01T07:10:23.000Z</time>
      </trkpt>
      <trkpt lat="47.19511" lon="6.65001">
        <ele>851</ele>
        <time>2018-07-01T07:10:24.000Z</time>
      </trkpt>
      <trkpt lat="47.19513" lon="6.65004">
        <ele>851</ele>
        <time>2018-07-01T07:10:25.000Z</time>
      </trkpt>
      <trkpt lat="47.19515" lon="6.65007">
        <ele>851</ele>
        <time>2018-07-01T07:10:26.000Z</time>
      </trkpt>
      <trkpt lat="47.19517" lon="6.65009">
        <ele>851</ele>
        <time>2018-07-01T07:10:27.000Z</time>
      </trkpt>
      <trkpt lat="47.1952" lon="6.65012">
        <ele>851</ele>
        <time>2018-07-01T07:10:28.000Z</time>
      </trkpt>
      <trkpt lat="47.19522" lon="6.65014">
        <ele>851</ele>
        <time>2018-07-01T07:10:29.000Z</time>
      </trkpt>
      <trkpt lat="47.19524" lon="6.65017">
        <ele>851</ele>
        <time>2018-07-01T07:10:30.000Z</time>
      </trkpt>
      <trkpt lat="47.19526" lon="6.65019">
        <ele>852</ele>
        <time>2018-07-01T07:10:31.000Z</time>
      </trkpt>
      <trkpt lat="47.19528" lon="6.65022">
        <ele>852</ele>
        <time>2018-07-01T07:10:32.000Z</time>
      </trkpt>
      <trkpt lat="47.1953" lon="6.65024">
        <ele>852</ele>
        <time>2018-07-01T07:10:33.000Z</time>
      </trkpt>
      <trkpt lat="47.19533" lon="6.65026">
        <ele>852</ele>
        <time>2018-07-01T07:10:34.000Z</time>
      </trkpt>
      <trkpt lat="47.19535" lon="6.65029">
        <ele>852</ele>
        <time>2018-07-01T07:10:35.000Z</time>
      </trkpt>
      <trkpt lat="47.19537" lon="6.65031">
        <ele>852</ele>
        <time>2018-07-01T07:10:36.000Z</time>
      </trkpt>
      <trkpt lat="47.19539" lon="6.65033">
        <ele>852</ele>
        <time>2018-07-01T07:10:37.000Z</time>
      </trkpt>
      <trkpt lat="47.19542" lon="6.65036">
        <ele>852</ele>
        <time>2018-07-01T07:10:38.000Z</time>
      </trkpt>
      <trkpt lat="47.19544" lon="6.65038">
        <ele>852</ele>
        <time>2018-07-01T07:10:39.000Z</time>
      </trkpt>
      <trkpt lat="47.19546" lon="6.6504">
        <ele>852</ele>
        <time>2018-07-01T07:10:40.000Z</time>
      </trkpt>
      <trkpt lat="47.19549" lon="6.65043">
        <ele>852</ele>
        <time>2018-07-01T07:10:41.000Z</time>
      </trkpt>
      <trkpt lat="47.19551" lon="6.65045">
        <ele>852</ele>
        <time>2018-07-01T07:10:42.000Z</time>
      </trkpt>
      <trkpt lat="47.19554" lon="6.65047">
        <ele>852</ele>
        <time>2018-07-01T07:10:43.000Z</time>
      </trkpt>
      <trkpt lat="47.19556" lon="6.65049">
        <ele>852</ele>
        <time>2018-07-01T07:10:44.000Z</time>
      </trkpt>
      <trkpt lat="47.19559" lon="6.65051">
        <ele>852</ele>
        <time>2018-07-01T07:10:45.000Z</time>
      </trkpt>
      <trkpt lat="47.19561" lon="6.65053">
        <ele>853</ele>
        <time>2018-07-01T07:10:46.000Z</time>
      </trkpt>
      <trkpt lat="47.19564" lon="6.65056">
        <ele>853</ele>
        <time>2018-07-01T07:10:47.000Z</time>
      </trkpt>
      <trkpt lat="47.19566" lon="6.65058">
        <ele>853</ele>
        <time>2018-07-01T07:10:48.000Z</time>
      </trkpt>
      <trkpt lat="47.19569" lon="6.65059">
        <ele>853</ele>
        <time>2018-07-01T07:10:49.000Z</time>
      </trkpt>
      <trkpt lat="47.19571" lon="6.65061">
        <ele>853</ele>
        <time>2018-07-01T07:10:50.000Z</time>
      </trkpt>
      <trkpt lat="47.19573" lon="6.65063">
        <ele>853</ele>
        <time>2018-07-01T07:10:51.000Z</time>
      </trkpt>
      <trkpt lat="47.19576" lon="6.65066">
        <ele>853</ele>
        <time>2018-07-01T07:10:52.000Z</time>
      </trkpt>
      <trkpt lat="47.19578" lon="6.65068">
        <ele>853</ele>
        <time>2018-07-01T07:10:53.000Z</time>
      </trkpt>
      <trkpt lat="47.1958" lon="6.6507">
        <ele>853</ele>
        <time>2018-07-01T07:10:54.000Z</time>
      </trkpt>
      <trkpt lat="47.19583" lon="6.65072">
        <ele>853</ele>
        <time>2018-07-01T07:10:55.000Z</time>
      </trkpt>
      <trkpt lat="47.19585" lon="6.65074">
        <ele>855</ele>
        <time>2018-07-01T07:10:56.000Z</time>
      </trkpt>
      <trkpt lat="47.19588" lon="6.65076">
        <ele>855</ele>
        <time>2018-07-01T07:10:57.000Z</time>
      </trkpt>
      <trkpt lat="47.1959" lon="6.65078">
        <ele>855</ele>
        <time>2018-07-01T07:10:58.000Z</time>
      </trkpt>
      <trkpt lat="47.19592" lon="6.6508">
        <ele>855</ele>
        <time>2018-07-01T07:10:59.000Z</time>
      </trkpt>
      <trkpt lat="47.19595" lon="6.65082">
        <ele>855</ele>
        <time>2018-07-01T07:11:00.000Z</time>
      </trkpt>
      <trkpt lat="47.19597" lon="6.65084">
        <ele>855</ele>
        <time>2018-07-01T07:11:01.000Z</time>
      </trkpt>
      <trkpt lat="47.196" lon="6.65086">
        <ele>855</ele>
        <time>2018-07-01T07:11:02.000Z</time>
      </trkpt>
      <trkpt lat="47.19602" lon="6.65089">
        <ele>855</ele>
        <time>2018-07-01T07:11:03.000Z</time>
      </trkpt>
      <trkpt lat="47.19605" lon="6.65091">
        <ele>855</ele>
        <time>2018-07-01T07:11:04.000Z</time>
      </trkpt>
      <trkpt lat="47.19607" lon="6.65093">
        <ele>855</ele>
        <time>2018-07-01T07:11:05.000Z</time>
      </trkpt>
      <trkpt lat="47.1961" lon="6.65094">
        <ele>855</ele>
        <time>2018-07-01T07:11:06.000Z</time>
      </trkpt>
      <trkpt lat="47.19612" lon="6.65096">
        <ele>855</ele>
        <time>2018-07-01T07:11:07.000Z</time>
      </trkpt>
      <trkpt lat="47.19615" lon="6.65098">
        <ele>855</ele>
        <time>2018-07-01T07:11:08.000Z</time>
      </trkpt>
      <trkpt lat="47.19617" lon="6.651">
        <ele>855</ele>
        <time>2018-07-01T07:11:09.000Z</time>
      </trkpt>
      <trkpt lat="47.1962" lon="6.65102">
        <ele>856</ele>
        <time>2018-07-01T07:11:10.000Z</time>
      </trkpt>
      <trkpt lat="47.19622" lon="6.65104">
        <ele>856</ele>
        <time>2018-07-01T07:11:11.000Z</time>
      </trkpt>
      <trkpt lat="47.19625" lon="6.65106">
        <ele>856</ele>
        <time>2018-07-01T07:11:12.000Z</time>
      </trkpt>
      <trkpt lat="47.19627" lon="6.65108">
        <ele>856</ele>
        <time>2018-07-01T07:11:13.000Z</time>
      </trkpt>
      <trkpt lat="47.19629" lon="6.6511">
        <ele>856</ele>
        <time>2018-07-01T07:11:14.000Z</time>
      </trkpt>
      <trkpt lat="47.19632" lon="6.65112">
        <ele>856</ele>
        <time>2018-07-01T07:11:15.000Z</time>
      </trkpt>
      <trkpt lat="47.19634" lon="6.65114">
        <ele>856</ele>
        <time>2018-07-01T07:11:16.000Z</time>
      </trkpt>
      <trkpt lat="47.19637" lon="6.65116">
        <ele>856</ele>
        <time>2018-07-01T07:11:17.000Z</time>
      </trkpt>
      <trkpt lat="47.19639" lon="6.65117">
        <ele>856</ele>
        <time>2018-07-01T07:11:18.000Z</time>
      </trkpt>
      <trkpt lat="47.19642" lon="6.65119">
        <ele>856</ele>
        <time>2018-07-01T07:11:19.000Z</time>
      </trkpt>
      <trkpt lat="47.19644" lon="6.65121">
        <ele>856</ele>
        <time>2018-07-01T07:11:20.000Z</time>
      </trkpt>
      <trkpt lat="47.19647" lon="6.65123">
        <ele>856</ele>
        <time>2018-07-01T07:11:21.000Z</time>
      </trkpt>
      <trkpt lat="47.1965" lon="6.65124">
        <ele>856</ele>
        <time>2018-07-01T07:11:22.000Z</time>
      </trkpt>
      <trkpt lat="47.19652" lon="6.65126">
        <ele>856</ele>
        <time>2018-07-01T07:11:23.000Z</time>
      </trkpt>
      <trkpt lat="47.19655" lon="6.65129">
        <ele>857</ele>
        <time>2018-07-01T07:11:24.000Z</time>
      </trkpt>
      <trkpt lat="47.19657" lon="6.65131">
        <ele>857</ele>
        <time>2018-07-01T07:11:25.000Z</time>
      </trkpt>
      <trkpt lat="47.1966" lon="6.65133">
        <ele>857</ele>
        <time>2018-07-01T07:11:26.000Z</time>
      </trkpt>
      <trkpt lat="47.19662" lon="6.65135">
        <ele>857</ele>
        <time>2018-07-01T07:11:27.000Z</time>
      </trkpt>
      <trkpt lat="47.19665" lon="6.65137">
        <ele>857</ele>
        <time>2018-07-01T07:11:28.000Z</time>
      </trkpt>
      <trkpt lat="47.19667" lon="6.65139">
        <ele>858</ele>
        <time>2018-07-01T07:11:29.000Z</time>
      </trkpt>
      <trkpt lat="47.1967" lon="6.65142">
        <ele>858</ele>
        <time>2018-07-01T07:11:30.000Z</time>
      </trkpt>
      <trkpt lat="47.19672" lon="6.65145">
        <ele>858</ele>
        <time>2018-07-01T07:11:31.000Z</time>
      </trkpt>
      <trkpt lat="47.19675" lon="6.65147">
        <ele>858</ele>
        <time>2018-07-01T07:11:32.000Z</time>
      </trkpt>
      <trkpt lat="47.19677" lon="6.6515">
        <ele>858</ele>
        <time>2018-07-01T07:11:33.000Z</time>
      </trkpt>
      <trkpt lat="47.1968" lon="6.65153">
        <ele>858</ele>
        <time>2018-07-01T07:11:34.000Z</time>
      </trkpt>
      <trkpt lat="47.19682" lon="6.65156">
        <ele>858</ele>
        <time>2018-07-01T07:11:35.000Z</time>
      </trkpt>
      <trkpt lat="47.19684" lon="6.65159">
        <ele>858</ele>
        <time>2018-07-01T07:11:36.000Z</time>
      </trkpt>
      <trkpt lat="47.19687" lon="6.65162">
        <ele>858</ele>
        <time>2018-07-01T07:11:37.000Z</time>
      </trkpt>
      <trkpt lat="47.19689" lon="6.65164">
        <ele>858</ele>
        <time>2018-07-01T07:11:38.000Z</time>
      </trkpt>
      <trkpt lat="47.19692" lon="6.65168">
        <ele>859</ele>
        <time>2018-07-01T07:11:39.000Z</time>
      </trkpt>
      <trkpt lat="47.19694" lon="6.65171">
        <ele>859</ele>
        <time>2018-07-01T07:11:40.000Z</time>
      </trkpt>
      <trkpt lat="47.19696" lon="6.65173">
        <ele>859</ele>
        <time>2018-07-01T07:11:41.000Z</time>
      </trkpt>
      <trkpt lat="47.19698" lon="6.65176">
        <ele>859</ele>
        <time>2018-07-01T07:11:42.000Z</time>
      </trkpt>
      <trkpt lat="47.19701" lon="6.65179">
        <ele>859</ele>
        <time>2018-07-01T07:11:43.000Z</time>
      </trkpt>
      <trkpt lat="47.19703" lon="6.65182">
        <ele>859</ele>
        <time>2018-07-01T07:11:44.000Z</time>
      </trkpt>
      <trkpt lat="47.19705" lon="6.65185">
        <ele>859</ele>
        <time>2018-07-01T07:11:45.000Z</time>
      </trkpt>
      <trkpt lat="47.19707" lon="6.65188">
        <ele>859</ele>
        <time>2018-07-01T07:11:46.000Z</time>
      </trkpt>
      <trkpt lat="47.1971" lon="6.65191">
        <ele>859</ele>
        <time>2018-07-01T07:11:47.000Z</time>
      </trkpt>
      <trkpt lat="47.19712" lon="6.65194">
        <ele>859</ele>
        <time>2018-07-01T07:11:48.000Z</time>
      </trkpt>
      <trkpt lat="47.19714" lon="6.65197">
        <ele>859</ele>
        <time>2018-07-01T07:11:49.000Z</time>
      </trkpt>
      <trkpt lat="47.19716" lon="6.652">
        <ele>859</ele>
        <time>2018-07-01T07:11:50.000Z</time>
      </trkpt>
      <trkpt lat="47.19719" lon="6.65203">
        <ele>859</ele>
        <time>2018-07-01T07:11:51.000Z</time>
      </trkpt>
      <trkpt lat="47.19721" lon="6.65206">
        <ele>859</ele>
        <time>2018-07-01T07:11:52.000Z</time>
      </trkpt>
      <trkpt lat="47.19723" lon="6.65208">
        <ele>859</ele>
        <time>2018-07-01T07:11:53.000Z</time>
      </trkpt>
      <trkpt lat="47.19726" lon="6.65211">
        <ele>859</ele>
        <time>2018-07-01T07:11:54.000Z</time>
      </trkpt>
      <trkpt lat="47.19728" lon="6.65214">
        <ele>859</ele>
        <time>2018-07-01T07:11:55.000Z</time>
      </trkpt>
      <trkpt lat="47.1973" lon="6.65217">
        <ele>859</ele>
        <time>2018-07-01T07:11:56.000Z</time>
      </trkpt>
      <trkpt lat="47.19732" lon="6.65219">
        <ele>859</ele>
        <time>2018-07-01T07:11:57.000Z</time>
      </trkpt>
      <trkpt lat="47.19735" lon="6.65221">
        <ele>859</ele>
        <time>2018-07-01T07:11:58.000Z</time>
      </trkpt>
      <trkpt lat="47.19737" lon="6.65223">
        <ele>860</ele>
        <time>2018-07-01T07:11:59.000Z</time>
      </trkpt>
      <trkpt lat="47.1974" lon="6.65225">
        <ele>860</ele>
        <time>2018-07-01T07:12:00.000Z</time>
      </trkpt>
      <trkpt lat="47.19742" lon="6.65227">
        <ele>860</ele>
        <time>2018-07-01T07:12:01.000Z</time>
      </trkpt>
      <trkpt lat="47.19745" lon="6.65228">
        <ele>860</ele>
        <time>2018-07-01T07:12:02.000Z</time>
      </trkpt>
      <trkpt lat="47.19748" lon="6.6523">
        <ele>860</ele>
        <time>2018-07-01T07:12:03.000Z</time>
      </trkpt>
      <trkpt lat="47.19751" lon="6.65231">
        <ele>859</ele>
        <time>2018-07-01T07:12:04.000Z</time>
      </trkpt>
      <trkpt lat="47.19754" lon="6.65232">
        <ele>859</ele>
        <time>2018-07-01T07:12:05.000Z</time>
      </trkpt>
      <trkpt lat="47.19756" lon="6.65233">
        <ele>859</ele>
        <time>2018-07-01T07:12:06.000Z</time>
      </trkpt>
      <trkpt lat="47.19759" lon="6.65234">
        <ele>859</ele>
        <time>2018-07-01T07:12:07.000Z</time>
      </trkpt>
      <trkpt lat="47.19762" lon="6.65234">
        <ele>859</ele>
        <time>2018-07-01T07:12:08.000Z</time>
      </trkpt>
      <trkpt lat="47.19765" lon="6.65235">
        <ele>859</ele>
        <time>2018-07-01T07:12:09.000Z</time>
      </trkpt>
      <trkpt lat="47.19768" lon="6.65236">
        <ele>859</ele>
        <time>2018-07-01T07:12:10.000Z</time>
      </trkpt>
      <trkpt lat="47.19771" lon="6.65236">
        <ele>859</ele>
        <time>2018-07-01T07:12:11.000Z</time>
      </trkpt>
      <trkpt lat="47.19773" lon="6.65237">
        <ele>859</ele>
        <time>2018-07-01T07:12:12.000Z</time>
      </trkpt>
      <trkpt lat="47.19776" lon="6.65238">
        <ele>859</ele>
        <time>2018-07-01T07:12:13.000Z</time>
      </trkpt>
      <trkpt lat="47.19779" lon="6.65239">
        <ele>859</ele>
        <time>2018-07-01T07:12:14.000Z</time>
      </trkpt>
      <trkpt lat="47.19782" lon="6.65241">
        <ele>859</ele>
        <time>2018-07-01T07:12:15.000Z</time>
      </trkpt>
      <trkpt lat="47.19785" lon="6.65243">
        <ele>859</ele>
        <time>2018-07-01T07:12:16.000Z</time>
      </trkpt>
      <trkpt lat="47.19788" lon="6.65246">
        <ele>859</ele>
        <time>2018-07-01T07:12:17.000Z</time>
      </trkpt>
      <trkpt lat="47.1979" lon="6.65248">
        <ele>859</ele>
        <time>2018-07-01T07:12:18.000Z</time>
      </trkpt>
      <trkpt lat="47.19793" lon="6.6525">
        <ele>859</ele>
        <time>2018-07-01T07:12:19.000Z</time>
      </trkpt>
      <trkpt lat="47.19796" lon="6.65253">
        <ele>860</ele>
        <time>2018-07-01T07:12:20.000Z</time>
      </trkpt>
      <trkpt lat="47.19798" lon="6.65256">
        <ele>860</ele>
        <time>2018-07-01T07:12:21.000Z</time>
      </trkpt>
      <trkpt lat="47.19801" lon="6.65259">
        <ele>860</ele>
        <time>2018-07-01T07:12:22.000Z</time>
      </trkpt>
      <trkpt lat="47.19803" lon="6.65262">
        <ele>860</ele>
        <time>2018-07-01T07:12:23.000Z</time>
      </trkpt>
      <trkpt lat="47.19805" lon="6.65265">
        <ele>860</ele>
        <time>2018-07-01T07:12:24.000Z</time>
      </trkpt>
      <trkpt lat="47.19807" lon="6.65268">
        <ele>860</ele>
        <time>2018-07-01T07:12:25.000Z</time>
      </trkpt>
      <trkpt lat="47.19809" lon="6.65272">
        <ele>860</ele>
        <time>2018-07-01T07:12:26.000Z</time>
      </trkpt>
      <trkpt lat="47.19811" lon="6.65275">
        <ele>860</ele>
        <time>2018-07-01T07:12:27.000Z</time>
      </trkpt>
      <trkpt lat="47.19812" lon="6.65279">
        <ele>860</ele>
        <time>2018-07-01T07:12:28.000Z</time>
      </trkpt>
      <trkpt lat="47.19814" lon="6.65283">
        <ele>860</ele>
        <time>2018-07-01T07:12:29.000Z</time>
      </trkpt>
      <trkpt lat="47.19815" lon="6.65287">
        <ele>860</ele>
        <time>2018-07-01T07:12:30.000Z</time>
      </trkpt>
      <trkpt lat="47.19816" lon="6.65291">
        <ele>860</ele>
        <time>2018-07-01T07:12:31.000Z</time>
      </trkpt>
      <trkpt lat="47.19818" lon="6.65295">
        <ele>861</ele>
        <time>2018-07-01T07:12:32.000Z</time>
      </trkpt>
      <trkpt lat="47.19819" lon="6.65299">
        <ele>861</ele>
        <time>2018-07-01T07:12:33.000Z</time>
      </trkpt>
      <trkpt lat="47.1982" lon="6.65303">
        <ele>861</ele>
        <time>2018-07-01T07:12:34.000Z</time>
      </trkpt>
      <trkpt lat="47.19821" lon="6.65308">
        <ele>861</ele>
        <time>2018-07-01T07:12:35.000Z</time>
      </trkpt>
      <trkpt lat="47.19823" lon="6.65312">
        <ele>861</ele>
        <time>2018-07-01T07:12:36.000Z</time>
      </trkpt>
      <trkpt lat="47.19824" lon="6.65316">
        <ele>861</ele>
        <time>2018-07-01T07:12:37.000Z</time>
      </trkpt>
      <trkpt lat="47.19825" lon="6.65321">
        <ele>861</ele>
        <time>2018-07-01T07:12:38.000Z</time>
      </trkpt>
      <trkpt lat="47.19826" lon="6.65325">
        <ele>861</ele>
        <time>2018-07-01T07:12:39.000Z</time>
      </trkpt>
      <trkpt lat="47.19827" lon="6.65329">
        <ele>861</ele>
        <time>2018-07-01T07:12:40.000Z</time>
      </trkpt>
      <trkpt lat="47.19828" lon="6.65334">
        <ele>861</ele>
        <time>2018-07-01T07:12:41.000Z</time>
      </trkpt>
      <trkpt lat="47.19828" lon="6.65338">
        <ele>861</ele>
        <time>2018-07-01T07:12:42.000Z</time>
      </trkpt>
      <trkpt lat="47.19829" lon="6.65342">
        <ele>861</ele>
        <time>2018-07-01T07:12:43.000Z</time>
      </trkpt>
      <trkpt lat="47.1983" lon="6.65346">
        <ele>861</ele>
        <time>2018-07-01T07:12:44.000Z</time>
      </trkpt>
      <trkpt lat="47.19831" lon="6.6535">
        <ele>861</ele>
        <time>2018-07-01T07:12:45.000Z</time>
      </trkpt>
      <trkpt lat="47.19832" lon="6.65355">
        <ele>861</ele>
        <time>2018-07-01T07:12:46.000Z</time>
      </trkpt>
      <trkpt lat="47.19832" lon="6.65359">
        <ele>861</ele>
        <time>2018-07-01T07:12:47.000Z</time>
      </trkpt>
      <trkpt lat="47.19833" lon="6.65363">
        <ele>861</ele>
        <time>2018-07-01T07:12:48.000Z</time>
      </trkpt>
      <trkpt lat="47.19834" lon="6.65368">
        <ele>861</ele>
        <time>2018-07-01T07:12:49.000Z</time>
      </trkpt>
      <trkpt lat="47.19835" lon="6.65372">
        <ele>861</ele>
        <time>2018-07-01T07:12:50.000Z</time>
      </trkpt>
      <trkpt lat="47.19836" lon="6.65377">
        <ele>861</ele>
        <time>2018-07-01T07:12:51.000Z</time>
      </trkpt>
      <trkpt lat="47.19837" lon="6.65381">
        <ele>861</ele>
        <time>2018-07-01T07:12:52.000Z</time>
      </trkpt>
      <trkpt lat="47.19838" lon="6.65386">
        <ele>861</ele>
        <time>2018-07-01T07:12:53.000Z</time>
      </trkpt>
      <trkpt lat="47.19839" lon="6.65391">
        <ele>861</ele>
        <time>2018-07-01T07:12:54.000Z</time>
      </trkpt>
      <trkpt lat="47.19841" lon="6.65395">
        <ele>861</ele>
        <time>2018-07-01T07:12:55.000Z</time>
      </trkpt>
      <trkpt lat="47.19842" lon="6.654">
        <ele>860</ele>
        <time>2018-07-01T07:12:56.000Z</time>
      </trkpt>
      <trkpt lat="47.19843" lon="6.65405">
        <ele>860</ele>
        <time>2018-07-01T07:12:57.000Z</time>
      </trkpt>
      <trkpt lat="47.19844" lon="6.65409">
        <ele>860</ele>
        <time>2018-07-01T07:12:58.000Z</time>
      </trkpt>
      <trkpt lat="47.19846" lon="6.65414">
        <ele>860</ele>
        <time>2018-07-01T07:12:59.000Z</time>
      </trkpt>
      <trkpt lat="47.19847" lon="6.65418">
        <ele>860</ele>
        <time>2018-07-01T07:13:00.000Z</time>
      </trkpt>
      <trkpt lat="47.19849" lon="6.65422">
        <ele>859</ele>
        <time>2018-07-01T07:13:01.000Z</time>
      </trkpt>
      <trkpt lat="47.1985" lon="6.65426">
        <ele>859</ele>
        <time>2018-07-01T07:13:02.000Z</time>
      </trkpt>
      <trkpt lat="47.19852" lon="6.6543">
        <ele>859</ele>
        <time>2018-07-01T07:13:03.000Z</time>
      </trkpt>
      <trkpt lat="47.19854" lon="6.65434">
        <ele>859</ele>
        <time>2018-07-01T07:13:04.000Z</time>
      </trkpt>
      <trkpt lat="47.19855" lon="6.65437">
        <ele>859</ele>
        <time>2018-07-01T07:13:05.000Z</time>
      </trkpt>
      <trkpt lat="47.19857" lon="6.65441">
        <ele>859</ele>
        <time>2018-07-01T07:13:06.000Z</time>
      </trkpt>
      <trkpt lat="47.19858" lon="6.65445">
        <ele>859</ele>
        <time>2018-07-01T07:13:07.000Z</time>
      </trkpt>
      <trkpt lat="47.1986" lon="6.65449">
        <ele>859</ele>
        <time>2018-07-01T07:13:08.000Z</time>
      </trkpt>
      <trkpt lat="47.19862" lon="6.65453">
        <ele>859</ele>
        <time>2018-07-01T07:13:09.000Z</time>
      </trkpt>
      <trkpt lat="47.19864" lon="6.65457">
        <ele>859</ele>
        <time>2018-07-01T07:13:10.000Z</time>
      </trkpt>
      <trkpt lat="47.19866" lon="6.65461">
        <ele>859</ele>
        <time>2018-07-01T07:13:11.000Z</time>
      </trkpt>
      <trkpt lat="47.19869" lon="6.65465">
        <ele>859</ele>
        <time>2018-07-01T07:13:12.000Z</time>
      </trkpt>
      <trkpt lat="47.19871" lon="6.65469">
        <ele>859</ele>
        <time>2018-07-01T07:13:13.000Z</time>
      </trkpt>
      <trkpt lat="47.19873" lon="6.65473">
        <ele>859</ele>
        <time>2018-07-01T07:13:14.000Z</time>
      </trkpt>
      <trkpt lat="47.19875" lon="6.65477">
        <ele>858</ele>
        <time>2018-07-01T07:13:15.000Z</time>
      </trkpt>
      <trkpt lat="47.19876" lon="6.65481">
        <ele>858</ele>
        <time>2018-07-01T07:13:16.000Z</time>
      </trkpt>
      <trkpt lat="47.19878" lon="6.65485">
        <ele>858</ele>
        <time>2018-07-01T07:13:17.000Z</time>
      </trkpt>
      <trkpt lat="47.1988" lon="6.65489">
        <ele>858</ele>
        <time>2018-07-01T07:13:18.000Z</time>
      </trkpt>
      <trkpt lat="47.19882" lon="6.65493">
        <ele>858</ele>
        <time>2018-07-01T07:13:19.000Z</time>
      </trkpt>
      <trkpt lat="47.19884" lon="6.65497">
        <ele>858</ele>
        <time>2018-07-01T07:13:20.000Z</time>
      </trkpt>
      <trkpt lat="47.19885" lon="6.65501">
        <ele>856</ele>
        <time>2018-07-01T07:13:21.000Z</time>
      </trkpt>
      <trkpt lat="47.19887" lon="6.65505">
        <ele>856</ele>
        <time>2018-07-01T07:13:22.000Z</time>
      </trkpt>
      <trkpt lat="47.19888" lon="6.65509">
        <ele>856</ele>
        <time>2018-07-01T07:13:23.000Z</time>
      </trkpt>
      <trkpt lat="47.1989" lon="6.65513">
        <ele>856</ele>
        <time>2018-07-01T07:13:24.000Z</time>
      </trkpt>
      <trkpt lat="47.19891" lon="6.65517">
        <ele>856</ele>
        <time>2018-07-01T07:13:25.000Z</time>
      </trkpt>
      <trkpt lat="47.19892" lon="6.65521">
        <ele>856</ele>
        <time>2018-07-01T07:13:26.000Z</time>
      </trkpt>
      <trkpt lat="47.19894" lon="6.65526">
        <ele>856</ele>
        <time>2018-07-01T07:13:27.000Z</time>
      </trkpt>
      <trkpt lat="47.19895" lon="6.6553">
        <ele>856</ele>
        <time>2018-07-01T07:13:28.000Z</time>
      </trkpt>
      <trkpt lat="47.19896" lon="6.65534">
        <ele>856</ele>
        <time>2018-07-01T07:13:29.000Z</time>
      </trkpt>
      <trkpt lat="47.19898" lon="6.65538">
        <ele>856</ele>
        <time>2018-07-01T07:13:30.000Z</time>
      </trkpt>
      <trkpt lat="47.19899" lon="6.65543">
        <ele>856</ele>
        <time>2018-07-01T07:13:31.000Z</time>
      </trkpt>
      <trkpt lat="47.199" lon="6.65547">
        <ele>856</ele>
        <time>2018-07-01T07:13:32.000Z</time>
      </trkpt>
      <trkpt lat="47.19902" lon="6.65552">
        <ele>855</ele>
        <time>2018-07-01T07:13:33.000Z</time>
      </trkpt>
      <trkpt lat="47.19902" lon="6.65556">
        <ele>855</ele>
        <time>2018-07-01T07:13:34.000Z</time>
      </trkpt>
      <trkpt lat="47.19904" lon="6.65561">
        <ele>855</ele>
        <time>2018-07-01T07:13:35.000Z</time>
      </trkpt>
      <trkpt lat="47.19905" lon="6.65566">
        <ele>855</ele>
        <time>2018-07-01T07:13:36.000Z</time>
      </trkpt>
      <trkpt lat="47.19906" lon="6.65571">
        <ele>855</ele>
        <time>2018-07-01T07:13:37.000Z</time>
      </trkpt>
      <trkpt lat="47.19907" lon="6.65576">
        <ele>854</ele>
        <time>2018-07-01T07:13:38.000Z</time>
      </trkpt>
      <trkpt lat="47.19908" lon="6.65581">
        <ele>854</ele>
        <time>2018-07-01T07:13:39.000Z</time>
      </trkpt>
      <trkpt lat="47.19909" lon="6.65585">
        <ele>853</ele>
        <time>2018-07-01T07:13:40.000Z</time>
      </trkpt>
      <trkpt lat="47.1991" lon="6.6559">
        <ele>853</ele>
        <time>2018-07-01T07:13:41.000Z</time>
      </trkpt>
      <trkpt lat="47.19911" lon="6.65595">
        <ele>853</ele>
        <time>2018-07-01T07:13:42.000Z</time>
      </trkpt>
      <trkpt lat="47.19912" lon="6.656">
        <ele>853</ele>
        <time>2018-07-01T07:13:43.000Z</time>
      </trkpt>
      <trkpt lat="47.19913" lon="6.65605">
        <ele>853</ele>
        <time>2018-07-01T07:13:44.000Z</time>
      </trkpt>
      <trkpt lat="47.19914" lon="6.6561">
        <ele>853</ele>
        <time>2018-07-01T07:13:45.000Z</time>
      </trkpt>
      <trkpt lat="47.19916" lon="6.65614">
        <ele>853</ele>
        <time>2018-07-01T07:13:46.000Z</time>
      </trkpt>
      <trkpt lat="47.19917" lon="6.65619">
        <ele>853</ele>
        <time>2018-07-01T07:13:47.000Z</time>
      </trkpt>
      <trkpt lat="47.19918" lon="6.65624">
        <ele>853</ele>
        <time>2018-07-01T07:13:48.000Z</time>
      </trkpt>
      <trkpt lat="47.19919" lon="6.65628">
        <ele>853</ele>
        <time>2018-07-01T07:13:49.000Z</time>
      </trkpt>
      <trkpt lat="47.19921" lon="6.65633">
        <ele>853</ele>
        <time>2018-07-01T07:13:50.000Z</time>
      </trkpt>
      <trkpt lat="47.19922" lon="6.65637">
        <ele>853</ele>
        <time>2018-07-01T07:13:51.000Z</time>
      </trkpt>
      <trkpt lat="47.19924" lon="6.65641">
        <ele>852</ele>
        <time>2018-07-01T07:13:52.000Z</time>
      </trkpt>
      <trkpt lat="47.19926" lon="6.65646">
        <ele>852</ele>
        <time>2018-07-01T07:13:53.000Z</time>
      </trkpt>
      <trkpt lat="47.19927" lon="6.6565">
        <ele>852</ele>
        <time>2018-07-01T07:13:54.000Z</time>
      </trkpt>
      <trkpt lat="47.19929" lon="6.65655">
        <ele>852</ele>
        <time>2018-07-01T07:13:55.000Z</time>
      </trkpt>
      <trkpt lat="47.19931" lon="6.65659">
        <ele>852</ele>
        <time>2018-07-01T07:13:56.000Z</time>
      </trkpt>
      <trkpt lat="47.19933" lon="6.65663">
        <ele>852</ele>
        <time>2018-07-01T07:13:57.000Z</time>
      </trkpt>
      <trkpt lat="47.19935" lon="6.65667">
        <ele>850</ele>
        <time>2018-07-01T07:13:58.000Z</time>
      </trkpt>
      <trkpt lat="47.19936" lon="6.65672">
        <ele>850</ele>
        <time>2018-07-01T07:13:59.000Z</time>
      </trkpt>
      <trkpt lat="47.19938" lon="6.65676">
        <ele>850</ele>
        <time>2018-07-01T07:14:00.000Z</time>
      </trkpt>
      <trkpt lat="47.1994" lon="6.6568">
        <ele>850</ele>
        <time>2018-07-01T07:14:01.000Z</time>
      </trkpt>
      <trkpt lat="47.19942" lon="6.65684">
        <ele>850</ele>
        <time>2018-07-01T07:14:02.000Z</time>
      </trkpt>
      <trkpt lat="47.19943" lon="6.65688">
        <ele>850</ele>
        <time>2018-07-01T07:14:03.000Z</time>
      </trkpt>
      <trkpt lat="47.19945" lon="6.65692">
        <ele>849</ele>
        <time>2018-07-01T07:14:04.000Z</time>
      </trkpt>
      <trkpt lat="47.19947" lon="6.65696">
        <ele>849</ele>
        <time>2018-07-01T07:14:05.000Z</time>
      </trkpt>
      <trkpt lat="47.19949" lon="6.65699">
        <ele>849</ele>
        <time>2018-07-01T07:14:06.000Z</time>
      </trkpt>
      <trkpt lat="47.19951" lon="6.65703">
        <ele>849</ele>
        <time>2018-07-01T07:14:07.000Z</time>
      </trkpt>
      <trkpt lat="47.19953" lon="6.65707">
        <ele>849</ele>
        <time>2018-07-01T07:14:08.000Z</time>
      </trkpt>
      <trkpt lat="47.19955" lon="6.6571">
        <ele>849</ele>
        <time>2018-07-01T07:14:09.000Z</time>
      </trkpt>
      <trkpt lat="47.19957" lon="6.65713">
        <ele>849</ele>
        <time>2018-07-01T07:14:10.000Z</time>
      </trkpt>
      <trkpt lat="47.19959" lon="6.65716">
        <ele>849</ele>
        <time>2018-07-01T07:14:11.000Z</time>
      </trkpt>
      <trkpt lat="47.19962" lon="6.65719">
        <ele>849</ele>
        <time>2018-07-01T07:14:12.000Z</time>
      </trkpt>
      <trkpt lat="47.19965" lon="6.65722">
        <ele>849</ele>
        <time>2018-07-01T07:14:13.000Z</time>
      </trkpt>
      <trkpt lat="47.19967" lon="6.65725">
        <ele>849</ele>
        <time>2018-07-01T07:14:14.000Z</time>
      </trkpt>
      <trkpt lat="47.1997" lon="6.65728">
        <ele>849</ele>
        <time>2018-07-01T07:14:15.000Z</time>
      </trkpt>
      <trkpt lat="47.19973" lon="6.6573">
        <ele>849</ele>
        <time>2018-07-01T07:14:16.000Z</time>
      </trkpt>
      <trkpt lat="47.19976" lon="6.65732">
        <ele>849</ele>
        <time>2018-07-01T07:14:17.000Z</time>
      </trkpt>
      <trkpt lat="47.19978" lon="6.65734">
        <ele>849</ele>
        <time>2018-07-01T07:14:18.000Z</time>
      </trkpt>
      <trkpt lat="47.19981" lon="6.65736">
        <ele>849</ele>
        <time>2018-07-01T07:14:19.000Z</time>
      </trkpt>
      <trkpt lat="47.19984" lon="6.65738">
        <ele>849</ele>
        <time>2018-07-01T07:14:20.000Z</time>
      </trkpt>
      <trkpt lat="47.19987" lon="6.65739">
        <ele>849</ele>
        <time>2018-07-01T07:14:21.000Z</time>
      </trkpt>
      <trkpt lat="47.19989" lon="6.65741">
        <ele>849</ele>
        <time>2018-07-01T07:14:22.000Z</time>
      </trkpt>
      <trkpt lat="47.19992" lon="6.65742">
        <ele>848</ele>
        <time>2018-07-01T07:14:23.000Z</time>
      </trkpt>
      <trkpt lat="47.19995" lon="6.65743">
        <ele>848</ele>
        <time>2018-07-01T07:14:24.000Z</time>
      </trkpt>
      <trkpt lat="47.19999" lon="6.65743">
        <ele>848</ele>
        <time>2018-07-01T07:14:25.000Z</time>
      </trkpt>
      <trkpt lat="47.20002" lon="6.65744">
        <ele>849</ele>
        <time>2018-07-01T07:14:26.000Z</time>
      </trkpt>
      <trkpt lat="47.20005" lon="6.65744">
        <ele>849</ele>
        <time>2018-07-01T07:14:27.000Z</time>
      </trkpt>
      <trkpt lat="47.20008" lon="6.65744">
        <ele>850</ele>
        <time>2018-07-01T07:14:28.000Z</time>
      </trkpt>
      <trkpt lat="47.20011" lon="6.65745">
        <ele>850</ele>
        <time>2018-07-01T07:14:29.000Z</time>
      </trkpt>
      <trkpt lat="47.20015" lon="6.65745">
        <ele>850</ele>
        <time>2018-07-01T07:14:30.000Z</time>
      </trkpt>
      <trkpt lat="47.20018" lon="6.65745">
        <ele>850</ele>
        <time>2018-07-01T07:14:31.000Z</time>
      </trkpt>
      <trkpt lat="47.20021" lon="6.65745">
        <ele>851</ele>
        <time>2018-07-01T07:14:32.000Z</time>
      </trkpt>
      <trkpt lat="47.20025" lon="6.65745">
        <ele>851</ele>
        <time>2018-07-01T07:14:33.000Z</time>
      </trkpt>
      <trkpt lat="47.20028" lon="6.65745">
        <ele>851</ele>
        <time>2018-07-01T07:14:34.000Z</time>
      </trkpt>
      <trkpt lat="47.20031" lon="6.65746">
        <ele>851</ele>
        <time>2018-07-01T07:14:35.000Z</time>
      </trkpt>
      <trkpt lat="47.20035" lon="6.65746">
        <ele>851</ele>
        <time>2018-07-01T07:14:36.000Z</time>
      </trkpt>
      <trkpt lat="47.20038" lon="6.65746">
        <ele>851</ele>
        <time>2018-07-01T07:14:37.000Z</time>
      </trkpt>
      <trkpt lat="47.20041" lon="6.65746">
        <ele>852</ele>
        <time>2018-07-01T07:14:38.000Z</time>
      </trkpt>
      <trkpt lat="47.20045" lon="6.65747">
        <ele>852</ele>
        <time>2018-07-01T07:14:39.000Z</time>
      </trkpt>
      <trkpt lat="47.20048" lon="6.65747">
        <ele>852</ele>
        <time>2018-07-01T07:14:40.000Z</time>
      </trkpt>
      <trkpt lat="47.20051" lon="6.65748">
        <ele>852</ele>
        <time>2018-07-01T07:14:41.000Z</time>
      </trkpt>
      <trkpt lat="47.20055" lon="6.65748">
        <ele>852</ele>
        <time>2018-07-01T07:14:42.000Z</time>
      </trkpt>
      <trkpt lat="47.20058" lon="6.65749">
        <ele>852</ele>
        <time>2018-07-01T07:14:43.000Z</time>
      </trkpt>
      <trkpt lat="47.20062" lon="6.6575">
        <ele>852</ele>
        <time>2018-07-01T07:14:44.000Z</time>
      </trkpt>
      <trkpt lat="47.20065" lon="6.65751">
        <ele>849</ele>
        <time>2018-07-01T07:14:45.000Z</time>
      </trkpt>
      <trkpt lat="47.20069" lon="6.65752">
        <ele>849</ele>
        <time>2018-07-01T07:14:46.000Z</time>
      </trkpt>
      <trkpt lat="47.20072" lon="6.65753">
        <ele>850</ele>
        <time>2018-07-01T07:14:47.000Z</time>
      </trkpt>
      <trkpt lat="47.20076" lon="6.65754">
        <ele>850</ele>
        <time>2018-07-01T07:14:48.000Z</time>
      </trkpt>
      <trkpt lat="47.20079" lon="6.65755">
        <ele>850</ele>
        <time>2018-07-01T07:14:49.000Z</time>
      </trkpt>
      <trkpt lat="47.20083" lon="6.65756">
        <ele>850</ele>
        <time>2018-07-01T07:14:50.000Z</time>
      </trkpt>
      <trkpt lat="47.20086" lon="6.65757">
        <ele>849</ele>
        <time>2018-07-01T07:14:51.000Z</time>
      </trkpt>
      <trkpt lat="47.20089" lon="6.65757">
        <ele>849</ele>
        <time>2018-07-01T07:14:52.000Z</time>
      </trkpt>
      <trkpt lat="47.20093" lon="6.65757">
        <ele>848</ele>
        <time>2018-07-01T07:14:53.000Z</time>
      </trkpt>
      <trkpt lat="47.20097" lon="6.65758">
        <ele>848</ele>
        <time>2018-07-01T07:14:54.000Z</time>
      </trkpt>
      <trkpt lat="47.201" lon="6.65757">
        <ele>847</ele>
        <time>2018-07-01T07:14:55.000Z</time>
      </trkpt>
      <trkpt lat="47.20104" lon="6.65757">
        <ele>847</ele>
        <time>2018-07-01T07:14:56.000Z</time>
      </trkpt>
      <trkpt lat="47.20107" lon="6.65758">
        <ele>847</ele>
        <time>2018-07-01T07:14:57.000Z</time>
      </trkpt>
      <trkpt lat="47.2011" lon="6.65758">
        <ele>846</ele>
        <time>2018-07-01T07:14:58.000Z</time>
      </trkpt>
      <trkpt lat="47.20113" lon="6.65759">
        <ele>846</ele>
        <time>2018-07-01T07:14:59.000Z</time>
      </trkpt>
      <trkpt lat="47.20116" lon="6.65759">
        <ele>846</ele>
        <time>2018-07-01T07:15:00.000Z</time>
      </trkpt>
      <trkpt lat="47.20119" lon="6.6576">
        <ele>846</ele>
        <time>2018-07-01T07:15:01.000Z</time>
      </trkpt>
      <trkpt lat="47.20121" lon="6.65761">
        <ele>846</ele>
        <time>2018-07-01T07:15:02.000Z</time>
      </trkpt>
      <trkpt lat="47.20124" lon="6.65762">
        <ele>846</ele>
        <time>2018-07-01T07:15:03.000Z</time>
      </trkpt>
      <trkpt lat="47.20127" lon="6.65762">
        <ele>845</ele>
        <time>2018-07-01T07:15:04.000Z</time>
      </trkpt>
      <trkpt lat="47.2013" lon="6.65762">
        <ele>845</ele>
        <time>2018-07-01T07:15:05.000Z</time>
      </trkpt>
      <trkpt lat="47.20132" lon="6.65763">
        <ele>845</ele>
        <time>2018-07-01T07:15:06.000Z</time>
      </trkpt>
      <trkpt lat="47.20135" lon="6.65763">
        <ele>845</ele>
        <time>2018-07-01T07:15:07.000Z</time>
      </trkpt>
      <trkpt lat="47.20137" lon="6.65763">
        <ele>845</ele>
        <time>2018-07-01T07:15:08.000Z</time>
      </trkpt>
      <trkpt lat="47.2014" lon="6.65763">
        <ele>845</ele>
        <time>2018-07-01T07:15:09.000Z</time>
      </trkpt>
      <trkpt lat="47.20143" lon="6.65763">
        <ele>845</ele>
        <time>2018-07-01T07:15:10.000Z</time>
      </trkpt>
      <trkpt lat="47.20146" lon="6.65764">
        <ele>845</ele>
        <time>2018-07-01T07:15:11.000Z</time>
      </trkpt>
      <trkpt lat="47.20149" lon="6.65764">
        <ele>845</ele>
        <time>2018-07-01T07:15:12.000Z</time>
      </trkpt>
      <trkpt lat="47.20152" lon="6.65764">
        <ele>846</ele>
        <time>2018-07-01T07:15:13.000Z</time>
      </trkpt>
      <trkpt lat="47.20156" lon="6.65765">
        <ele>846</ele>
        <time>2018-07-01T07:15:14.000Z</time>
      </trkpt>
      <trkpt lat="47.2016" lon="6.65765">
        <ele>846</ele>
        <time>2018-07-01T07:15:15.000Z</time>
      </trkpt>
      <trkpt lat="47.20163" lon="6.65765">
        <ele>846</ele>
        <time>2018-07-01T07:15:16.000Z</time>
      </trkpt>
      <trkpt lat="47.20167" lon="6.65765">
        <ele>842</ele>
        <time>2018-07-01T07:15:17.000Z</time>
      </trkpt>
      <trkpt lat="47.2017" lon="6.65766">
        <ele>841</ele>
        <time>2018-07-01T07:15:18.000Z</time>
      </trkpt>
      <trkpt lat="47.20173" lon="6.65765">
        <ele>841</ele>
        <time>2018-07-01T07:15:19.000Z</time>
      </trkpt>
      <trkpt lat="47.20176" lon="6.65765">
        <ele>841</ele>
        <time>2018-07-01T07:15:20.000Z</time>
      </trkpt>
      <trkpt lat="47.2018" lon="6.65765">
        <ele>840</ele>
        <time>2018-07-01T07:15:21.000Z</time>
      </trkpt>
      <trkpt lat="47.20183" lon="6.65765">
        <ele>840</ele>
        <time>2018-07-01T07:15:22.000Z</time>
      </trkpt>
      <trkpt lat="47.20187" lon="6.65764">
        <ele>839</ele>
        <time>2018-07-01T07:15:23.000Z</time>
      </trkpt>
      <trkpt lat="47.20191" lon="6.65763">
        <ele>838</ele>
        <time>2018-07-01T07:15:24.000Z</time>
      </trkpt>
      <trkpt lat="47.20195" lon="6.65762">
        <ele>838</ele>
        <time>2018-07-01T07:15:25.000Z</time>
      </trkpt>
      <trkpt lat="47.20199" lon="6.6576">
        <ele>837</ele>
        <time>2018-07-01T07:15:26.000Z</time>
      </trkpt>
      <trkpt lat="47.20203" lon="6.65759">
        <ele>837</ele>
        <time>2018-07-01T07:15:27.000Z</time>
      </trkpt>
      <trkpt lat="47.20207" lon="6.65758">
        <ele>836</ele>
        <time>2018-07-01T07:15:28.000Z</time>
      </trkpt>
      <trkpt lat="47.20211" lon="6.65758">
        <ele>836</ele>
        <time>2018-07-01T07:15:29.000Z</time>
      </trkpt>
      <trkpt lat="47.20215" lon="6.65758">
        <ele>835</ele>
        <time>2018-07-01T07:15:30.000Z</time>
      </trkpt>
      <trkpt lat="47.2022" lon="6.65758">
        <ele>834</ele>
        <time>2018-07-01T07:15:31.000Z</time>
      </trkpt>
      <trkpt lat="47.20224" lon="6.65759">
        <ele>834</ele>
        <time>2018-07-01T07:15:32.000Z</time>
      </trkpt>
      <trkpt lat="47.20229" lon="6.6576">
        <ele>834</ele>
        <time>2018-07-01T07:15:33.000Z</time>
      </trkpt>
      <trkpt lat="47.20234" lon="6.65762">
        <ele>833</ele>
        <time>2018-07-01T07:15:34.000Z</time>
      </trkpt>
      <trkpt lat="47.20239" lon="6.65764">
        <ele>833</ele>
        <time>2018-07-01T07:15:35.000Z</time>
      </trkpt>
      <trkpt lat="47.20244" lon="6.65766">
        <ele>833</ele>
        <time>2018-07-01T07:15:36.000Z</time>
      </trkpt>
      <trkpt lat="47.20249" lon="6.65769">
        <ele>832</ele>
        <time>2018-07-01T07:15:37.000Z</time>
      </trkpt>
      <trkpt lat="47.20253" lon="6.65771">
        <ele>825</ele>
        <time>2018-07-01T07:15:38.000Z</time>
      </trkpt>
      <trkpt lat="47.20258" lon="6.65774">
        <ele>825</ele>
        <time>2018-07-01T07:15:39.000Z</time>
      </trkpt>
      <trkpt lat="47.20261" lon="6.65777">
        <ele>824</ele>
        <time>2018-07-01T07:15:40.000Z</time>
      </trkpt>
      <trkpt lat="47.20265" lon="6.6578">
        <ele>823</ele>
        <time>2018-07-01T07:15:41.000Z</time>
      </trkpt>
      <trkpt lat="47.20268" lon="6.65784">
        <ele>823</ele>
        <time>2018-07-01T07:15:42.000Z</time>
      </trkpt>
      <trkpt lat="47.20271" lon="6.65787">
        <ele>822</ele>
        <time>2018-07-01T07:15:43.000Z</time>
      </trkpt>
      <trkpt lat="47.20274" lon="6.65791">
        <ele>822</ele>
        <time>2018-07-01T07:15:44.000Z</time>
      </trkpt>
      <trkpt lat="47.20276" lon="6.65795">
        <ele>821</ele>
        <time>2018-07-01T07:15:45.000Z</time>
      </trkpt>
      <trkpt lat="47.20279" lon="6.65799">
        <ele>821</ele>
        <time>2018-07-01T07:15:46.000Z</time>
      </trkpt>
      <trkpt lat="47.20281" lon="6.65803">
        <ele>820</ele>
        <time>2018-07-01T07:15:47.000Z</time>
      </trkpt>
      <trkpt lat="47.20284" lon="6.65807">
        <ele>820</ele>
        <time>2018-07-01T07:15:48.000Z</time>
      </trkpt>
      <trkpt lat="47.20285" lon="6.65812">
        <ele>820</ele>
        <time>2018-07-01T07:15:49.000Z</time>
      </trkpt>
      <trkpt lat="47.20286" lon="6.65816">
        <ele>819</ele>
        <time>2018-07-01T07:15:50.000Z</time>
      </trkpt>
      <trkpt lat="47.20286" lon="6.6582">
        <ele>819</ele>
        <time>2018-07-01T07:15:51.000Z</time>
      </trkpt>
      <trkpt lat="47.20286" lon="6.65824">
        <ele>819</ele>
        <time>2018-07-01T07:15:52.000Z</time>
      </trkpt>
      <trkpt lat="47.20285" lon="6.65829">
        <ele>819</ele>
        <time>2018-07-01T07:15:53.000Z</time>
      </trkpt>
      <trkpt lat="47.20283" lon="6.65834">
        <ele>815</ele>
        <time>2018-07-01T07:15:54.000Z</time>
      </trkpt>
      <trkpt lat="47.20281" lon="6.65839">
        <ele>815</ele>
        <time>2018-07-01T07:15:55.000Z</time>
      </trkpt>
      <trkpt lat="47.2028" lon="6.65845">
        <ele>815</ele>
        <time>2018-07-01T07:15:56.000Z</time>
      </trkpt>
      <trkpt lat="47.20281" lon="6.6585">
        <ele>815</ele>
        <time>2018-07-01T07:15:57.000Z</time>
      </trkpt>
      <trkpt lat="47.20282" lon="6.65855">
        <ele>814</ele>
        <time>2018-07-01T07:15:58.000Z</time>
      </trkpt>
      <trkpt lat="47.20284" lon="6.65861">
        <ele>814</ele>
        <time>2018-07-01T07:15:59.000Z</time>
      </trkpt>
      <trkpt lat="47.20287" lon="6.65865">
        <ele>814</ele>
        <time>2018-07-01T07:16:00.000Z</time>
      </trkpt>
      <trkpt lat="47.2029" lon="6.6587">
        <ele>813</ele>
        <time>2018-07-01T07:16:01.000Z</time>
      </trkpt>
      <trkpt lat="47.20293" lon="6.65873">
        <ele>813</ele>
        <time>2018-07-01T07:16:02.000Z</time>
      </trkpt>
      <trkpt lat="47.20296" lon="6.65877">
        <ele>813</ele>
        <time>2018-07-01T07:16:03.000Z</time>
      </trkpt>
      <trkpt lat="47.20299" lon="6.6588">
        <ele>813</ele>
        <time>2018-07-01T07:16:04.000Z</time>
      </trkpt>
      <trkpt lat="47.20302" lon="6.65883">
        <ele>812</ele>
        <time>2018-07-01T07:16:05.000Z</time>
      </trkpt>
      <trkpt lat="47.20305" lon="6.65886">
        <ele>812</ele>
        <time>2018-07-01T07:16:06.000Z</time>
      </trkpt>
      <trkpt lat="47.20309" lon="6.65889">
        <ele>811</ele>
        <time>2018-07-01T07:16:07.000Z</time>
      </trkpt>
      <trkpt lat="47.20312" lon="6.65893">
        <ele>811</ele>
        <time>2018-07-01T07:16:08.000Z</time>
      </trkpt>
      <trkpt lat="47.20316" lon="6.65897">
        <ele>810</ele>
        <time>2018-07-01T07:16:09.000Z</time>
      </trkpt>
      <trkpt lat="47.20319" lon="6.659">
        <ele>809</ele>
        <time>2018-07-01T07:16:10.000Z</time>
      </trkpt>
      <trkpt lat="47.20323" lon="6.65904">
        <ele>809</ele>
        <time>2018-07-01T07:16:11.000Z</time>
      </trkpt>
      <trkpt lat="47.20327" lon="6.65908">
        <ele>807</ele>
        <time>2018-07-01T07:16:12.000Z</time>
      </trkpt>
      <trkpt lat="47.2033" lon="6.65911">
        <ele>806</ele>
        <time>2018-07-01T07:16:13.000Z</time>
      </trkpt>
      <trkpt lat="47.20333" lon="6.65915">
        <ele>805</ele>
        <time>2018-07-01T07:16:14.000Z</time>
      </trkpt>
      <trkpt lat="47.20337" lon="6.65919">
        <ele>803</ele>
        <time>2018-07-01T07:16:15.000Z</time>
      </trkpt>
      <trkpt lat="47.2034" lon="6.65922">
        <ele>802</ele>
        <time>2018-07-01T07:16:16.000Z</time>
      </trkpt>
      <trkpt lat="47.20343" lon="6.65926">
        <ele>801</ele>
        <time>2018-07-01T07:16:17.000Z</time>
      </trkpt>
      <trkpt lat="47.20346" lon="6.6593">
        <ele>801</ele>
        <time>2018-07-01T07:16:18.000Z</time>
      </trkpt>
      <trkpt lat="47.20349" lon="6.65934">
        <ele>800</ele>
        <time>2018-07-01T07:16:19.000Z</time>
      </trkpt>
      <trkpt lat="47.20352" lon="6.65938">
        <ele>800</ele>
        <time>2018-07-01T07:16:20.000Z</time>
      </trkpt>
      <trkpt lat="47.20354" lon="6.65942">
        <ele>799</ele>
        <time>2018-07-01T07:16:21.000Z</time>
      </trkpt>
      <trkpt lat="47.20357" lon="6.65946">
        <ele>799</ele>
        <time>2018-07-01T07:16:22.000Z</time>
      </trkpt>
      <trkpt lat="47.2036" lon="6.6595">
        <ele>799</ele>
        <time>2018-07-01T07:16:23.000Z</time>
      </trkpt>
      <trkpt lat="47.20363" lon="6.65955">
        <ele>799</ele>
        <time>2018-07-01T07:16:24.000Z</time>
      </trkpt>
      <trkpt lat="47.20366" lon="6.65959">
        <ele>799</ele>
        <time>2018-07-01T07:16:25.000Z</time>
      </trkpt>
      <trkpt lat="47.20369" lon="6.65963">
        <ele>798</ele>
        <time>2018-07-01T07:16:26.000Z</time>
      </trkpt>
      <trkpt lat="47.20371" lon="6.65967">
        <ele>798</ele>
        <time>2018-07-01T07:16:27.000Z</time>
      </trkpt>
      <trkpt lat="47.20374" lon="6.65971">
        <ele>798</ele>
        <time>2018-07-01T07:16:28.000Z</time>
      </trkpt>
      <trkpt lat="47.20377" lon="6.65975">
        <ele>798</ele>
        <time>2018-07-01T07:16:29.000Z</time>
      </trkpt>
      <trkpt lat="47.2038" lon="6.65979">
        <ele>797</ele>
        <time>2018-07-01T07:16:30.000Z</time>
      </trkpt>
      <trkpt lat="47.20382" lon="6.65982">
        <ele>797</ele>
        <time>2018-07-01T07:16:31.000Z</time>
      </trkpt>
      <trkpt lat="47.20384" lon="6.65986">
        <ele>796</ele>
        <time>2018-07-01T07:16:32.000Z</time>
      </trkpt>
      <trkpt lat="47.20387" lon="6.6599">
        <ele>796</ele>
        <time>2018-07-01T07:16:33.000Z</time>
      </trkpt>
      <trkpt lat="47.20389" lon="6.65994">
        <ele>795</ele>
        <time>2018-07-01T07:16:34.000Z</time>
      </trkpt>
      <trkpt lat="47.20391" lon="6.65998">
        <ele>795</ele>
        <time>2018-07-01T07:16:35.000Z</time>
      </trkpt>
      <trkpt lat="47.20393" lon="6.66002">
        <ele>799</ele>
        <time>2018-07-01T07:16:36.000Z</time>
      </trkpt>
      <trkpt lat="47.20394" lon="6.66007">
        <ele>799</ele>
        <time>2018-07-01T07:16:37.000Z</time>
      </trkpt>
      <trkpt lat="47.20396" lon="6.66011">
        <ele>799</ele>
        <time>2018-07-01T07:16:38.000Z</time>
      </trkpt>
      <trkpt lat="47.20398" lon="6.66015">
        <ele>799</ele>
        <time>2018-07-01T07:16:39.000Z</time>
      </trkpt>
      <trkpt lat="47.20399" lon="6.66019">
        <ele>799</ele>
        <time>2018-07-01T07:16:40.000Z</time>
      </trkpt>
      <trkpt lat="47.20399" lon="6.66023">
        <ele>800</ele>
        <time>2018-07-01T07:16:41.000Z</time>
      </trkpt>
      <trkpt lat="47.20399" lon="6.66027">
        <ele>800</ele>
        <time>2018-07-01T07:16:42.000Z</time>
      </trkpt>
      <trkpt lat="47.204" lon="6.66031">
        <ele>801</ele>
        <time>2018-07-01T07:16:43.000Z</time>
      </trkpt>
      <trkpt lat="47.204" lon="6.66035">
        <ele>801</ele>
        <time>2018-07-01T07:16:44.000Z</time>
      </trkpt>
      <trkpt lat="47.204" lon="6.66038">
        <ele>801</ele>
        <time>2018-07-01T07:16:45.000Z</time>
      </trkpt>
      <trkpt lat="47.204" lon="6.66042">
        <ele>802</ele>
        <time>2018-07-01T07:16:46.000Z</time>
      </trkpt>
      <trkpt lat="47.204" lon="6.66046">
        <ele>802</ele>
        <time>2018-07-01T07:16:47.000Z</time>
      </trkpt>
      <trkpt lat="47.20401" lon="6.6605">
        <ele>802</ele>
        <time>2018-07-01T07:16:48.000Z</time>
      </trkpt>
      <trkpt lat="47.20401" lon="6.66054">
        <ele>802</ele>
        <time>2018-07-01T07:16:49.000Z</time>
      </trkpt>
      <trkpt lat="47.20401" lon="6.66058">
        <ele>802</ele>
        <time>2018-07-01T07:16:50.000Z</time>
      </trkpt>
      <trkpt lat="47.20402" lon="6.66063">
        <ele>802</ele>
        <time>2018-07-01T07:16:51.000Z</time>
      </trkpt>
      <trkpt lat="47.20403" lon="6.66068">
        <ele>801</ele>
        <time>2018-07-01T07:16:52.000Z</time>
      </trkpt>
      <trkpt lat="47.20404" lon="6.66072">
        <ele>801</ele>
        <time>2018-07-01T07:16:53.000Z</time>
      </trkpt>
      <trkpt lat="47.20405" lon="6.66076">
        <ele>800</ele>
        <time>2018-07-01T07:16:54.000Z</time>
      </trkpt>
      <trkpt lat="47.20406" lon="6.6608">
        <ele>799</ele>
        <time>2018-07-01T07:16:55.000Z</time>
      </trkpt>
      <trkpt lat="47.20408" lon="6.66085">
        <ele>801</ele>
        <time>2018-07-01T07:16:56.000Z</time>
      </trkpt>
      <trkpt lat="47.20409" lon="6.66088">
        <ele>801</ele>
        <time>2018-07-01T07:16:57.000Z</time>
      </trkpt>
      <trkpt lat="47.2041" lon="6.66093">
        <ele>802</ele>
        <time>2018-07-01T07:16:58.000Z</time>
      </trkpt>
      <trkpt lat="47.20412" lon="6.66097">
        <ele>803</ele>
        <time>2018-07-01T07:16:59.000Z</time>
      </trkpt>
      <trkpt lat="47.20414" lon="6.66101">
        <ele>804</ele>
        <time>2018-07-01T07:17:00.000Z</time>
      </trkpt>
      <trkpt lat="47.20416" lon="6.66106">
        <ele>805</ele>
        <time>2018-07-01T07:17:01.000Z</time>
      </trkpt>
      <trkpt lat="47.20417" lon="6.66111">
        <ele>787</ele>
        <time>2018-07-01T07:17:02.000Z</time>
      </trkpt>
      <trkpt lat="47.20419" lon="6.66116">
        <ele>786</ele>
        <time>2018-07-01T07:17:03.000Z</time>
      </trkpt>
      <trkpt lat="47.20421" lon="6.66121">
        <ele>786</ele>
        <time>2018-07-01T07:17:04.000Z</time>
      </trkpt>
      <trkpt lat="47.20422" lon="6.66126">
        <ele>786</ele>
        <time>2018-07-01T07:17:05.000Z</time>
      </trkpt>
      <trkpt lat="47.20424" lon="6.66131">
        <ele>786</ele>
        <time>2018-07-01T07:17:06.000Z</time>
      </trkpt>
      <trkpt lat="47.20425" lon="6.66137">
        <ele>787</ele>
        <time>2018-07-01T07:17:07.000Z</time>
      </trkpt>
      <trkpt lat="47.20426" lon="6.66142">
        <ele>787</ele>
        <time>2018-07-01T07:17:08.000Z</time>
      </trkpt>
      <trkpt lat="47.20428" lon="6.66146">
        <ele>788</ele>
        <time>2018-07-01T07:17:09.000Z</time>
      </trkpt>
      <trkpt lat="47.20429" lon="6.66151">
        <ele>789</ele>
        <time>2018-07-01T07:17:10.000Z</time>
      </trkpt>
      <trkpt lat="47.2043" lon="6.66156">
        <ele>790</ele>
        <time>2018-07-01T07:17:11.000Z</time>
      </trkpt>
      <trkpt lat="47.20432" lon="6.66161">
        <ele>790</ele>
        <time>2018-07-01T07:17:12.000Z</time>
      </trkpt>
      <trkpt lat="47.20433" lon="6.66165">
        <ele>790</ele>
        <time>2018-07-01T07:17:13.000Z</time>
      </trkpt>
      <trkpt lat="47.20434" lon="6.6617">
        <ele>792</ele>
        <time>2018-07-01T07:17:14.000Z</time>
      </trkpt>
      <trkpt lat="47.20435" lon="6.66174">
        <ele>792</ele>
        <time>2018-07-01T07:17:15.000Z</time>
      </trkpt>
      <trkpt lat="47.20435" lon="6.66178">
        <ele>791</ele>
        <time>2018-07-01T07:17:16.000Z</time>
      </trkpt>
      <trkpt lat="47.20436" lon="6.66182">
        <ele>790</ele>
        <time>2018-07-01T07:17:17.000Z</time>
      </trkpt>
      <trkpt lat="47.20436" lon="6.66185">
        <ele>790</ele>
        <time>2018-07-01T07:17:18.000Z</time>
      </trkpt>
      <trkpt lat="47.20437" lon="6.66188">
        <ele>790</ele>
        <time>2018-07-01T07:17:19.000Z</time>
      </trkpt>
      <trkpt lat="47.20437" lon="6.66192">
        <ele>790</ele>
        <time>2018-07-01T07:17:20.000Z</time>
      </trkpt>
      <trkpt lat="47.20437" lon="6.66195">
        <ele>789</ele>
        <time>2018-07-01T07:17:21.000Z</time>
      </trkpt>
      <trkpt lat="47.20437" lon="6.66199">
        <ele>789</ele>
        <time>2018-07-01T07:17:22.000Z</time>
      </trkpt>
      <trkpt lat="47.20438" lon="6.66203">
        <ele>789</ele>
        <time>2018-07-01T07:17:23.000Z</time>
      </trkpt>
      <trkpt lat="47.20438" lon="6.66206">
        <ele>789</ele>
        <time>2018-07-01T07:17:24.000Z</time>
      </trkpt>
      <trkpt lat="47.20438" lon="6.6621">
        <ele>790</ele>
        <time>2018-07-01T07:17:25.000Z</time>
      </trkpt>
      <trkpt lat="47.20438" lon="6.66213">
        <ele>790</ele>
        <time>2018-07-01T07:17:26.000Z</time>
      </trkpt>
      <trkpt lat="47.20438" lon="6.66216">
        <ele>790</ele>
        <time>2018-07-01T07:17:27.000Z</time>
      </trkpt>
      <trkpt lat="47.20438" lon="6.66219">
        <ele>790</ele>
        <time>2018-07-01T07:17:28.000Z</time>
      </trkpt>
      <trkpt lat="47.20438" lon="6.66223">
        <ele>791</ele>
        <time>2018-07-01T07:17:29.000Z</time>
      </trkpt>
      <trkpt lat="47.20438" lon="6.66226">
        <ele>792</ele>
        <time>2018-07-01T07:17:30.000Z</time>
      </trkpt>
      <trkpt lat="47.20437" lon="6.66229">
        <ele>792</ele>
        <time>2018-07-01T07:17:31.000Z</time>
      </trkpt>
      <trkpt lat="47.20437" lon="6.66233">
        <ele>793</ele>
        <time>2018-07-01T07:17:32.000Z</time>
      </trkpt>
      <trkpt lat="47.20437" lon="6.66236">
        <ele>794</ele>
        <time>2018-07-01T07:17:33.000Z</time>
      </trkpt>
      <trkpt lat="47.20437" lon="6.6624">
        <ele>795</ele>
        <time>2018-07-01T07:17:34.000Z</time>
      </trkpt>
      <trkpt lat="47.20437" lon="6.66244">
        <ele>795</ele>
        <time>2018-07-01T07:17:35.000Z</time>
      </trkpt>
      <trkpt lat="47.20436" lon="6.66248">
        <ele>796</ele>
        <time>2018-07-01T07:17:36.000Z</time>
      </trkpt>
      <trkpt lat="47.20436" lon="6.66253">
        <ele>801</ele>
        <time>2018-07-01T07:17:37.000Z</time>
      </trkpt>
      <trkpt lat="47.20436" lon="6.66257">
        <ele>801</ele>
        <time>2018-07-01T07:17:38.000Z</time>
      </trkpt>
      <trkpt lat="47.20436" lon="6.66261">
        <ele>801</ele>
        <time>2018-07-01T07:17:39.000Z</time>
      </trkpt>
      <trkpt lat="47.20436" lon="6.66266">
        <ele>800</ele>
        <time>2018-07-01T07:17:40.000Z</time>
      </trkpt>
      <trkpt lat="47.20436" lon="6.6627">
        <ele>800</ele>
        <time>2018-07-01T07:17:41.000Z</time>
      </trkpt>
      <trkpt lat="47.20436" lon="6.66274">
        <ele>800</ele>
        <time>2018-07-01T07:17:42.000Z</time>
      </trkpt>
      <trkpt lat="47.20436" lon="6.66278">
        <ele>800</ele>
        <time>2018-07-01T07:17:43.000Z</time>
      </trkpt>
      <trkpt lat="47.20436" lon="6.66282">
        <ele>800</ele>
        <time>2018-07-01T07:17:44.000Z</time>
      </trkpt>
      <trkpt lat="47.20436" lon="6.66285">
        <ele>800</ele>
        <time>2018-07-01T07:17:45.000Z</time>
      </trkpt>
      <trkpt lat="47.20437" lon="6.66289">
        <ele>800</ele>
        <time>2018-07-01T07:17:46.000Z</time>
      </trkpt>
      <trkpt lat="47.20437" lon="6.66293">
        <ele>800</ele>
        <time>2018-07-01T07:17:47.000Z</time>
      </trkpt>
      <trkpt lat="47.20437" lon="6.66297">
        <ele>800</ele>
        <time>2018-07-01T07:17:48.000Z</time>
      </trkpt>
      <trkpt lat="47.20437" lon="6.66301">
        <ele>800</ele>
        <time>2018-07-01T07:17:49.000Z</time>
      </trkpt>
      <trkpt lat="47.20438" lon="6.66305">
        <ele>801</ele>
        <time>2018-07-01T07:17:50.000Z</time>
      </trkpt>
      <trkpt lat="47.20438" lon="6.66309">
        <ele>801</ele>
        <time>2018-07-01T07:17:51.000Z</time>
      </trkpt>
      <trkpt lat="47.20438" lon="6.66314">
        <ele>802</ele>
        <time>2018-07-01T07:17:52.000Z</time>
      </trkpt>
      <trkpt lat="47.20439" lon="6.66319">
        <ele>803</ele>
        <time>2018-07-01T07:17:53.000Z</time>
      </trkpt>
      <trkpt lat="47.20439" lon="6.66324">
        <ele>803</ele>
        <time>2018-07-01T07:17:54.000Z</time>
      </trkpt>
      <trkpt lat="47.2044" lon="6.66329">
        <ele>803</ele>
        <time>2018-07-01T07:17:55.000Z</time>
      </trkpt>
      <trkpt lat="47.2044" lon="6.66333">
        <ele>803</ele>
        <time>2018-07-01T07:17:56.000Z</time>
      </trkpt>
      <trkpt lat="47.20441" lon="6.66337">
        <ele>808</ele>
        <time>2018-07-01T07:17:57.000Z</time>
      </trkpt>
      <trkpt lat="47.20442" lon="6.66341">
        <ele>808</ele>
        <time>2018-07-01T07:17:58.000Z</time>
      </trkpt>
      <trkpt lat="47.20443" lon="6.66346">
        <ele>808</ele>
        <time>2018-07-01T07:17:59.000Z</time>
      </trkpt>
      <trkpt lat="47.20444" lon="6.6635">
        <ele>807</ele>
        <time>2018-07-01T07:18:00.000Z</time>
      </trkpt>
      <trkpt lat="47.20446" lon="6.66354">
        <ele>807</ele>
        <time>2018-07-01T07:18:01.000Z</time>
      </trkpt>
      <trkpt lat="47.20447" lon="6.66359">
        <ele>807</ele>
        <time>2018-07-01T07:18:02.000Z</time>
      </trkpt>
      <trkpt lat="47.20448" lon="6.66363">
        <ele>807</ele>
        <time>2018-07-01T07:18:03.000Z</time>
      </trkpt>
      <trkpt lat="47.20449" lon="6.66367">
        <ele>807</ele>
        <time>2018-07-01T07:18:04.000Z</time>
      </trkpt>
      <trkpt lat="47.20451" lon="6.66372">
        <ele>807</ele>
        <time>2018-07-01T07:18:05.000Z</time>
      </trkpt>
      <trkpt lat="47.20452" lon="6.66376">
        <ele>807</ele>
        <time>2018-07-01T07:18:06.000Z</time>
      </trkpt>
      <trkpt lat="47.20453" lon="6.66381">
        <ele>807</ele>
        <time>2018-07-01T07:18:07.000Z</time>
      </trkpt>
      <trkpt lat="47.20454" lon="6.66386">
        <ele>807</ele>
        <time>2018-07-01T07:18:08.000Z</time>
      </trkpt>
      <trkpt lat="47.20455" lon="6.6639">
        <ele>807</ele>
        <time>2018-07-01T07:18:09.000Z</time>
      </trkpt>
      <trkpt lat="47.20456" lon="6.66395">
        <ele>807</ele>
        <time>2018-07-01T07:18:10.000Z</time>
      </trkpt>
      <trkpt lat="47.20458" lon="6.664">
        <ele>807</ele>
        <time>2018-07-01T07:18:11.000Z</time>
      </trkpt>
      <trkpt lat="47.20459" lon="6.66405">
        <ele>807</ele>
        <time>2018-07-01T07:18:12.000Z</time>
      </trkpt>
      <trkpt lat="47.2046" lon="6.66409">
        <ele>807</ele>
        <time>2018-07-01T07:18:13.000Z</time>
      </trkpt>
      <trkpt lat="47.2046" lon="6.66413">
        <ele>807</ele>
        <time>2018-07-01T07:18:14.000Z</time>
      </trkpt>
      <trkpt lat="47.20461" lon="6.66417">
        <ele>811</ele>
        <time>2018-07-01T07:18:15.000Z</time>
      </trkpt>
      <trkpt lat="47.20462" lon="6.66421">
        <ele>810</ele>
        <time>2018-07-01T07:18:16.000Z</time>
      </trkpt>
      <trkpt lat="47.20463" lon="6.66425">
        <ele>810</ele>
        <time>2018-07-01T07:18:17.000Z</time>
      </trkpt>
      <trkpt lat="47.20464" lon="6.66429">
        <ele>810</ele>
        <time>2018-07-01T07:18:18.000Z</time>
      </trkpt>
      <trkpt lat="47.20464" lon="6.66433">
        <ele>810</ele>
        <time>2018-07-01T07:18:19.000Z</time>
      </trkpt>
      <trkpt lat="47.20464" lon="6.66437">
        <ele>810</ele>
        <time>2018-07-01T07:18:20.000Z</time>
      </trkpt>
      <trkpt lat="47.20465" lon="6.66441">
        <ele>810</ele>
        <time>2018-07-01T07:18:21.000Z</time>
      </trkpt>
      <trkpt lat="47.20465" lon="6.66444">
        <ele>811</ele>
        <time>2018-07-01T07:18:22.000Z</time>
      </trkpt>
      <trkpt lat="47.20466" lon="6.66448">
        <ele>811</ele>
        <time>2018-07-01T07:18:23.000Z</time>
      </trkpt>
      <trkpt lat="47.20467" lon="6.66452">
        <ele>811</ele>
        <time>2018-07-01T07:18:24.000Z</time>
      </trkpt>
      <trkpt lat="47.20468" lon="6.66456">
        <ele>811</ele>
        <time>2018-07-01T07:18:25.000Z</time>
      </trkpt>
      <trkpt lat="47.20469" lon="6.6646">
        <ele>811</ele>
        <time>2018-07-01T07:18:26.000Z</time>
      </trkpt>
      <trkpt lat="47.2047" lon="6.66464">
        <ele>811</ele>
        <time>2018-07-01T07:18:27.000Z</time>
      </trkpt>
      <trkpt lat="47.2047" lon="6.66468">
        <ele>811</ele>
        <time>2018-07-01T07:18:28.000Z</time>
      </trkpt>
      <trkpt lat="47.20471" lon="6.66472">
        <ele>810</ele>
        <time>2018-07-01T07:18:29.000Z</time>
      </trkpt>
      <trkpt lat="47.20471" lon="6.66477">
        <ele>810</ele>
        <time>2018-07-01T07:18:30.000Z</time>
      </trkpt>
      <trkpt lat="47.20471" lon="6.66481">
        <ele>810</ele>
        <time>2018-07-01T07:18:31.000Z</time>
      </trkpt>
      <trkpt lat="47.20471" lon="6.66486">
        <ele>810</ele>
        <time>2018-07-01T07:18:32.000Z</time>
      </trkpt>
      <trkpt lat="47.2047" lon="6.6649">
        <ele>810</ele>
        <time>2018-07-01T07:18:33.000Z</time>
      </trkpt>
      <trkpt lat="47.2047" lon="6.66495">
        <ele>811</ele>
        <time>2018-07-01T07:18:34.000Z</time>
      </trkpt>
      <trkpt lat="47.20469" lon="6.66499">
        <ele>811</ele>
        <time>2018-07-01T07:18:35.000Z</time>
      </trkpt>
      <trkpt lat="47.20468" lon="6.66503">
        <ele>812</ele>
        <time>2018-07-01T07:18:36.000Z</time>
      </trkpt>
      <trkpt lat="47.20467" lon="6.66507">
        <ele>812</ele>
        <time>2018-07-01T07:18:37.000Z</time>
      </trkpt>
      <trkpt lat="47.20466" lon="6.66511">
        <ele>812</ele>
        <time>2018-07-01T07:18:38.000Z</time>
      </trkpt>
      <trkpt lat="47.20465" lon="6.66516">
        <ele>812</ele>
        <time>2018-07-01T07:18:39.000Z</time>
      </trkpt>
      <trkpt lat="47.20463" lon="6.66519">
        <ele>813</ele>
        <time>2018-07-01T07:18:40.000Z</time>
      </trkpt>
      <trkpt lat="47.20462" lon="6.66523">
        <ele>813</ele>
        <time>2018-07-01T07:18:41.000Z</time>
      </trkpt>
      <trkpt lat="47.2046" lon="6.66528">
        <ele>813</ele>
        <time>2018-07-01T07:18:42.000Z</time>
      </trkpt>
      <trkpt lat="47.2046" lon="6.66532">
        <ele>813</ele>
        <time>2018-07-01T07:18:43.000Z</time>
      </trkpt>
      <trkpt lat="47.2046" lon="6.66537">
        <ele>813</ele>
        <time>2018-07-01T07:18:44.000Z</time>
      </trkpt>
      <trkpt lat="47.2046" lon="6.66541">
        <ele>813</ele>
        <time>2018-07-01T07:18:45.000Z</time>
      </trkpt>
      <trkpt lat="47.20461" lon="6.66545">
        <ele>813</ele>
        <time>2018-07-01T07:18:46.000Z</time>
      </trkpt>
      <trkpt lat="47.20463" lon="6.66548">
        <ele>813</ele>
        <time>2018-07-01T07:18:47.000Z</time>
      </trkpt>
      <trkpt lat="47.20466" lon="6.66552">
        <ele>812</ele>
        <time>2018-07-01T07:18:48.000Z</time>
      </trkpt>
      <trkpt lat="47.20468" lon="6.66554">
        <ele>812</ele>
        <time>2018-07-01T07:18:49.000Z</time>
      </trkpt>
      <trkpt lat="47.20471" lon="6.66557">
        <ele>811</ele>
        <time>2018-07-01T07:18:50.000Z</time>
      </trkpt>
      <trkpt lat="47.20474" lon="6.6656">
        <ele>811</ele>
        <time>2018-07-01T07:18:51.000Z</time>
      </trkpt>
      <trkpt lat="47.20477" lon="6.66562">
        <ele>810</ele>
        <time>2018-07-01T07:18:52.000Z</time>
      </trkpt>
      <trkpt lat="47.2048" lon="6.66565">
        <ele>810</ele>
        <time>2018-07-01T07:18:53.000Z</time>
      </trkpt>
      <trkpt lat="47.20484" lon="6.66568">
        <ele>809</ele>
        <time>2018-07-01T07:18:54.000Z</time>
      </trkpt>
      <trkpt lat="47.20488" lon="6.66572">
        <ele>808</ele>
        <time>2018-07-01T07:18:55.000Z</time>
      </trkpt>
      <trkpt lat="47.20492" lon="6.66576">
        <ele>807</ele>
        <time>2018-07-01T07:18:56.000Z</time>
      </trkpt>
      <trkpt lat="47.20496" lon="6.6658">
        <ele>805</ele>
        <time>2018-07-01T07:18:57.000Z</time>
      </trkpt>
      <trkpt lat="47.20499" lon="6.66583">
        <ele>803</ele>
        <time>2018-07-01T07:18:58.000Z</time>
      </trkpt>
      <trkpt lat="47.20502" lon="6.66587">
        <ele>801</ele>
        <time>2018-07-01T07:18:59.000Z</time>
      </trkpt>
      <trkpt lat="47.20505" lon="6.66591">
        <ele>799</ele>
        <time>2018-07-01T07:19:00.000Z</time>
      </trkpt>
      <trkpt lat="47.20509" lon="6.66595">
        <ele>797</ele>
        <time>2018-07-01T07:19:01.000Z</time>
      </trkpt>
      <trkpt lat="47.20512" lon="6.66599">
        <ele>796</ele>
        <time>2018-07-01T07:19:02.000Z</time>
      </trkpt>
      <trkpt lat="47.20516" lon="6.66603">
        <ele>794</ele>
        <time>2018-07-01T07:19:03.000Z</time>
      </trkpt>
      <trkpt lat="47.2052" lon="6.66607">
        <ele>793</ele>
        <time>2018-07-01T07:19:04.000Z</time>
      </trkpt>
      <trkpt lat="47.20523" lon="6.66611">
        <ele>792</ele>
        <time>2018-07-01T07:19:05.000Z</time>
      </trkpt>
      <trkpt lat="47.20526" lon="6.66615">
        <ele>792</ele>
        <time>2018-07-01T07:19:06.000Z</time>
      </trkpt>
      <trkpt lat="47.20529" lon="6.66619">
        <ele>791</ele>
        <time>2018-07-01T07:19:07.000Z</time>
      </trkpt>
      <trkpt lat="47.20532" lon="6.66623">
        <ele>791</ele>
        <time>2018-07-01T07:19:08.000Z</time>
      </trkpt>
      <trkpt lat="47.20535" lon="6.66627">
        <ele>790</ele>
        <time>2018-07-01T07:19:09.000Z</time>
      </trkpt>
      <trkpt lat="47.20538" lon="6.66631">
        <ele>790</ele>
        <time>2018-07-01T07:19:10.000Z</time>
      </trkpt>
      <trkpt lat="47.20541" lon="6.66635">
        <ele>789</ele>
        <time>2018-07-01T07:19:11.000Z</time>
      </trkpt>
      <trkpt lat="47.20543" lon="6.66639">
        <ele>789</ele>
        <time>2018-07-01T07:19:12.000Z</time>
      </trkpt>
      <trkpt lat="47.20545" lon="6.66642">
        <ele>788</ele>
        <time>2018-07-01T07:19:13.000Z</time>
      </trkpt>
      <trkpt lat="47.20547" lon="6.66645">
        <ele>788</ele>
        <time>2018-07-01T07:19:14.000Z</time>
      </trkpt>
      <trkpt lat="47.20549" lon="6.66648">
        <ele>787</ele>
        <time>2018-07-01T07:19:15.000Z</time>
      </trkpt>
      <trkpt lat="47.20549" lon="6.66651">
        <ele>787</ele>
        <time>2018-07-01T07:19:16.000Z</time>
      </trkpt>
      <trkpt lat="47.20549" lon="6.66654">
        <ele>787</ele>
        <time>2018-07-01T07:19:17.000Z</time>
      </trkpt>
      <trkpt lat="47.20549" lon="6.66657">
        <ele>787</ele>
        <time>2018-07-01T07:19:18.000Z</time>
      </trkpt>
      <trkpt lat="47.20548" lon="6.66659">
        <ele>787</ele>
        <time>2018-07-01T07:19:19.000Z</time>
      </trkpt>
      <trkpt lat="47.20547" lon="6.66661">
        <ele>787</ele>
        <time>2018-07-01T07:19:20.000Z</time>
      </trkpt>
      <trkpt lat="47.20546" lon="6.66664">
        <ele>787</ele>
        <time>2018-07-01T07:19:21.000Z</time>
      </trkpt>
      <trkpt lat="47.20544" lon="6.66666">
        <ele>787</ele>
        <time>2018-07-01T07:19:22.000Z</time>
      </trkpt>
      <trkpt lat="47.20542" lon="6.66668">
        <ele>782</ele>
        <time>2018-07-01T07:19:23.000Z</time>
      </trkpt>
      <trkpt lat="47.20539" lon="6.6667">
        <ele>782</ele>
        <time>2018-07-01T07:19:24.000Z</time>
      </trkpt>
      <trkpt lat="47.20537" lon="6.66672">
        <ele>783</ele>
        <time>2018-07-01T07:19:25.000Z</time>
      </trkpt>
      <trkpt lat="47.20535" lon="6.66675">
        <ele>783</ele>
        <time>2018-07-01T07:19:26.000Z</time>
      </trkpt>
      <trkpt lat="47.20534" lon="6.66677">
        <ele>783</ele>
        <time>2018-07-01T07:19:27.000Z</time>
      </trkpt>
      <trkpt lat="47.20532" lon="6.6668">
        <ele>784</ele>
        <time>2018-07-01T07:19:28.000Z</time>
      </trkpt>
      <trkpt lat="47.2053" lon="6.66682">
        <ele>784</ele>
        <time>2018-07-01T07:19:29.000Z</time>
      </trkpt>
      <trkpt lat="47.20529" lon="6.66686">
        <ele>784</ele>
        <time>2018-07-01T07:19:30.000Z</time>
      </trkpt>
      <trkpt lat="47.2053" lon="6.66689">
        <ele>783</ele>
        <time>2018-07-01T07:19:31.000Z</time>
      </trkpt>
      <trkpt lat="47.2053" lon="6.66692">
        <ele>783</ele>
        <time>2018-07-01T07:19:32.000Z</time>
      </trkpt>
      <trkpt lat="47.20532" lon="6.66695">
        <ele>782</ele>
        <time>2018-07-01T07:19:33.000Z</time>
      </trkpt>
      <trkpt lat="47.20533" lon="6.66697">
        <ele>782</ele>
        <time>2018-07-01T07:19:34.000Z</time>
      </trkpt>
      <trkpt lat="47.20536" lon="6.66699">
        <ele>781</ele>
        <time>2018-07-01T07:19:35.000Z</time>
      </trkpt>
      <trkpt lat="47.20538" lon="6.66701">
        <ele>781</ele>
        <time>2018-07-01T07:19:36.000Z</time>
      </trkpt>
      <trkpt lat="47.20539" lon="6.66703">
        <ele>780</ele>
        <time>2018-07-01T07:19:37.000Z</time>
      </trkpt>
      <trkpt lat="47.20541" lon="6.66704">
        <ele>780</ele>
        <time>2018-07-01T07:19:38.000Z</time>
      </trkpt>
      <trkpt lat="47.20543" lon="6.66706">
        <ele>779</ele>
        <time>2018-07-01T07:19:39.000Z</time>
      </trkpt>
      <trkpt lat="47.20545" lon="6.66708">
        <ele>779</ele>
        <time>2018-07-01T07:19:40.000Z</time>
      </trkpt>
      <trkpt lat="47.20546" lon="6.66709">
        <ele>779</ele>
        <time>2018-07-01T07:19:41.000Z</time>
      </trkpt>
      <trkpt lat="47.20547" lon="6.66711">
        <ele>778</ele>
        <time>2018-07-01T07:19:42.000Z</time>
      </trkpt>
      <trkpt lat="47.20548" lon="6.66712">
        <ele>778</ele>
        <time>2018-07-01T07:19:43.000Z</time>
      </trkpt>
      <trkpt lat="47.20548" lon="6.66712">
        <ele>778</ele>
        <time>2018-07-01T07:19:44.000Z</time>
      </trkpt>
      <trkpt lat="47.20549" lon="6.66713">
        <ele>778</ele>
        <time>2018-07-01T07:19:45.000Z</time>
      </trkpt>
      <trkpt lat="47.20549" lon="6.66714">
        <ele>778</ele>
        <time>2018-07-01T07:19:46.000Z</time>
      </trkpt>
      <trkpt lat="47.2055" lon="6.66716">
        <ele>777</ele>
        <time>2018-07-01T07:19:47.000Z</time>
      </trkpt>
      <trkpt lat="47.20551" lon="6.66719">
        <ele>777</ele>
        <time>2018-07-01T07:19:48.000Z</time>
      </trkpt>
      <trkpt lat="47.20551" lon="6.66721">
        <ele>777</ele>
        <time>2018-07-01T07:19:49.000Z</time>
      </trkpt>
      <trkpt lat="47.20552" lon="6.66724">
        <ele>776</ele>
        <time>2018-07-01T07:19:50.000Z</time>
      </trkpt>
      <trkpt lat="47.20553" lon="6.66726">
        <ele>776</ele>
        <time>2018-07-01T07:19:51.000Z</time>
      </trkpt>
      <trkpt lat="47.20554" lon="6.66728">
        <ele>775</ele>
        <time>2018-07-01T07:19:52.000Z</time>
      </trkpt>
      <trkpt lat="47.20554" lon="6.66729">
        <ele>775</ele>
        <time>2018-07-01T07:19:53.000Z</time>
      </trkpt>
      <trkpt lat="47.20555" lon="6.6673">
        <ele>775</ele>
        <time>2018-07-01T07:19:54.000Z</time>
      </trkpt>
      <trkpt lat="47.20556" lon="6.66732">
        <ele>774</ele>
        <time>2018-07-01T07:19:55.000Z</time>
      </trkpt>
      <trkpt lat="47.20557" lon="6.66733">
        <ele>774</ele>
        <time>2018-07-01T07:19:56.000Z</time>
      </trkpt>
      <trkpt lat="47.20558" lon="6.66735">
        <ele>773</ele>
        <time>2018-07-01T07:19:57.000Z</time>
      </trkpt>
      <trkpt lat="47.20559" lon="6.66736">
        <ele>773</ele>
        <time>2018-07-01T07:19:58.000Z</time>
      </trkpt>
      <trkpt lat="47.2056" lon="6.66738">
        <ele>772</ele>
        <time>2018-07-01T07:19:59.000Z</time>
      </trkpt>
      <trkpt lat="47.20561" lon="6.6674">
        <ele>772</ele>
        <time>2018-07-01T07:20:00.000Z</time>
      </trkpt>
      <trkpt lat="47.20562" lon="6.66741">
        <ele>771</ele>
        <time>2018-07-01T07:20:01.000Z</time>
      </trkpt>
      <trkpt lat="47.20562" lon="6.66742">
        <ele>771</ele>
        <time>2018-07-01T07:20:02.000Z</time>
      </trkpt>
      <trkpt lat="47.20563" lon="6.66743">
        <ele>770</ele>
        <time>2018-07-01T07:20:03.000Z</time>
      </trkpt>
      <trkpt lat="47.20563" lon="6.66744">
        <ele>770</ele>
        <time>2018-07-01T07:20:04.000Z</time>
      </trkpt>
      <trkpt lat="47.20563" lon="6.66745">
        <ele>770</ele>
        <time>2018-07-01T07:20:05.000Z</time>
      </trkpt>
      <trkpt lat="47.20564" lon="6.66745">
        <ele>770</ele>
        <time>2018-07-01T07:20:06.000Z</time>
      </trkpt>
      <trkpt lat="47.20564" lon="6.66745">
        <ele>770</ele>
        <time>2018-07-01T07:20:07.000Z</time>
      </trkpt>
      <trkpt lat="47.20564" lon="6.66745">
        <ele>770</ele>
        <time>2018-07-01T07:20:08.000Z</time>
      </trkpt>
      <trkpt lat="47.20565" lon="6.66746">
        <ele>769</ele>
        <time>2018-07-01T07:20:09.000Z</time>
      </trkpt>
      <trkpt lat="47.20567" lon="6.66747">
        <ele>768</ele>
        <time>2018-07-01T07:20:10.000Z</time>
      </trkpt>
      <trkpt lat="47.20568" lon="6.66749">
        <ele>767</ele>
        <time>2018-07-01T07:20:11.000Z</time>
      </trkpt>
      <trkpt lat="47.20569" lon="6.6675">
        <ele>763</ele>
        <time>2018-07-01T07:20:12.000Z</time>
      </trkpt>
      <trkpt lat="47.2057" lon="6.66752">
        <ele>763</ele>
        <time>2018-07-01T07:20:13.000Z</time>
      </trkpt>
      <trkpt lat="47.20571" lon="6.66753">
        <ele>762</ele>
        <time>2018-07-01T07:20:14.000Z</time>
      </trkpt>
      <trkpt lat="47.20572" lon="6.66755">
        <ele>762</ele>
        <time>2018-07-01T07:20:15.000Z</time>
      </trkpt>
      <trkpt lat="47.20573" lon="6.66756">
        <ele>762</ele>
        <time>2018-07-01T07:20:16.000Z</time>
      </trkpt>
      <trkpt lat="47.20573" lon="6.66757">
        <ele>762</ele>
        <time>2018-07-01T07:20:17.000Z</time>
      </trkpt>
      <trkpt lat="47.20574" lon="6.66758">
        <ele>762</ele>
        <time>2018-07-01T07:20:18.000Z</time>
      </trkpt>
      <trkpt lat="47.20574" lon="6.66759">
        <ele>762</ele>
        <time>2018-07-01T07:20:19.000Z</time>
      </trkpt>
      <trkpt lat="47.20574" lon="6.6676">
        <ele>762</ele>
        <time>2018-07-01T07:20:20.000Z</time>
      </trkpt>
      <trkpt lat="47.20574" lon="6.66761">
        <ele>763</ele>
        <time>2018-07-01T07:20:21.000Z</time>
      </trkpt>
      <trkpt lat="47.20575" lon="6.66762">
        <ele>763</ele>
        <time>2018-07-01T07:20:22.000Z</time>
      </trkpt>
      <trkpt lat="47.20575" lon="6.66763">
        <ele>763</ele>
        <time>2018-07-01T07:20:23.000Z</time>
      </trkpt>
      <trkpt lat="47.20576" lon="6.66764">
        <ele>763</ele>
        <time>2018-07-01T07:20:24.000Z</time>
      </trkpt>
      <trkpt lat="47.20576" lon="6.66765">
        <ele>763</ele>
        <time>2018-07-01T07:20:25.000Z</time>
      </trkpt>
      <trkpt lat="47.20576" lon="6.66766">
        <ele>763</ele>
        <time>2018-07-01T07:20:26.000Z</time>
      </trkpt>
      <trkpt lat="47.20576" lon="6.66768">
        <ele>763</ele>
        <time>2018-07-01T07:20:27.000Z</time>
      </trkpt>
      <trkpt lat="47.20575" lon="6.6677">
        <ele>764</ele>
        <time>2018-07-01T07:20:28.000Z</time>
      </trkpt>
      <trkpt lat="47.20575" lon="6.66772">
        <ele>764</ele>
        <time>2018-07-01T07:20:29.000Z</time>
      </trkpt>
      <trkpt lat="47.20575" lon="6.66775">
        <ele>764</ele>
        <time>2018-07-01T07:20:30.000Z</time>
      </trkpt>
      <trkpt lat="47.20575" lon="6.66778">
        <ele>764</ele>
        <time>2018-07-01T07:20:31.000Z</time>
      </trkpt>
      <trkpt lat="47.20575" lon="6.66782">
        <ele>764</ele>
        <time>2018-07-01T07:20:32.000Z</time>
      </trkpt>
      <trkpt lat="47.20575" lon="6.66785">
        <ele>764</ele>
        <time>2018-07-01T07:20:33.000Z</time>
      </trkpt>
      <trkpt lat="47.20576" lon="6.66789">
        <ele>764</ele>
        <time>2018-07-01T07:20:34.000Z</time>
      </trkpt>
      <trkpt lat="47.20576" lon="6.66792">
        <ele>764</ele>
        <time>2018-07-01T07:20:35.000Z</time>
      </trkpt>
      <trkpt lat="47.20576" lon="6.66795">
        <ele>763</ele>
        <time>2018-07-01T07:20:36.000Z</time>
      </trkpt>
      <trkpt lat="47.20575" lon="6.66798">
        <ele>763</ele>
        <time>2018-07-01T07:20:37.000Z</time>
      </trkpt>
      <trkpt lat="47.20576" lon="6.668">
        <ele>763</ele>
        <time>2018-07-01T07:20:38.000Z</time>
      </trkpt>
      <trkpt lat="47.20576" lon="6.66803">
        <ele>762</ele>
        <time>2018-07-01T07:20:39.000Z</time>
      </trkpt>
      <trkpt lat="47.20576" lon="6.66805">
        <ele>762</ele>
        <time>2018-07-01T07:20:40.000Z</time>
      </trkpt>
      <trkpt lat="47.20576" lon="6.66808">
        <ele>761</ele>
        <time>2018-07-01T07:20:41.000Z</time>
      </trkpt>
      <trkpt lat="47.20576" lon="6.66811">
        <ele>760</ele>
        <time>2018-07-01T07:20:42.000Z</time>
      </trkpt>
      <trkpt lat="47.20577" lon="6.66814">
        <ele>759</ele>
        <time>2018-07-01T07:20:43.000Z</time>
      </trkpt>
      <trkpt lat="47.20577" lon="6.66816">
        <ele>758</ele>
        <time>2018-07-01T07:20:44.000Z</time>
      </trkpt>
      <trkpt lat="47.20577" lon="6.66818">
        <ele>757</ele>
        <time>2018-07-01T07:20:45.000Z</time>
      </trkpt>
      <trkpt lat="47.20577" lon="6.6682">
        <ele>756</ele>
        <time>2018-07-01T07:20:46.000Z</time>
      </trkpt>
      <trkpt lat="47.20577" lon="6.66823">
        <ele>755</ele>
        <time>2018-07-01T07:20:47.000Z</time>
      </trkpt>
      <trkpt lat="47.20577" lon="6.66825">
        <ele>754</ele>
        <time>2018-07-01T07:20:48.000Z</time>
      </trkpt>
      <trkpt lat="47.20577" lon="6.66828">
        <ele>752</ele>
        <time>2018-07-01T07:20:49.000Z</time>
      </trkpt>
      <trkpt lat="47.20577" lon="6.66831">
        <ele>751</ele>
        <time>2018-07-01T07:20:50.000Z</time>
      </trkpt>
      <trkpt lat="47.20578" lon="6.66834">
        <ele>750</ele>
        <time>2018-07-01T07:20:51.000Z</time>
      </trkpt>
      <trkpt lat="47.20578" lon="6.66838">
        <ele>751</ele>
        <time>2018-07-01T07:20:52.000Z</time>
      </trkpt>
      <trkpt lat="47.20578" lon="6.66841">
        <ele>752</ele>
        <time>2018-07-01T07:20:53.000Z</time>
      </trkpt>
      <trkpt lat="47.20578" lon="6.66845">
        <ele>754</ele>
        <time>2018-07-01T07:20:54.000Z</time>
      </trkpt>
      <trkpt lat="47.20578" lon="6.66848">
        <ele>755</ele>
        <time>2018-07-01T07:20:55.000Z</time>
      </trkpt>
      <trkpt lat="47.20578" lon="6.66851">
        <ele>757</ele>
        <time>2018-07-01T07:20:56.000Z</time>
      </trkpt>
      <trkpt lat="47.20578" lon="6.66854">
        <ele>758</ele>
        <time>2018-07-01T07:20:57.000Z</time>
      </trkpt>
      <trkpt lat="47.20578" lon="6.66857">
        <ele>759</ele>
        <time>2018-07-01T07:20:58.000Z</time>
      </trkpt>
      <trkpt lat="47.20577" lon="6.66859">
        <ele>759</ele>
        <time>2018-07-01T07:20:59.000Z</time>
      </trkpt>
      <trkpt lat="47.20577" lon="6.66862">
        <ele>760</ele>
        <time>2018-07-01T07:21:00.000Z</time>
      </trkpt>
      <trkpt lat="47.20577" lon="6.66864">
        <ele>760</ele>
        <time>2018-07-01T07:21:01.000Z</time>
      </trkpt>
      <trkpt lat="47.20577" lon="6.66867">
        <ele>761</ele>
        <time>2018-07-01T07:21:02.000Z</time>
      </trkpt>
      <trkpt lat="47.20577" lon="6.66869">
        <ele>761</ele>
        <time>2018-07-01T07:21:03.000Z</time>
      </trkpt>
      <trkpt lat="47.20577" lon="6.66873">
        <ele>761</ele>
        <time>2018-07-01T07:21:04.000Z</time>
      </trkpt>
      <trkpt lat="47.20577" lon="6.66876">
        <ele>761</ele>
        <time>2018-07-01T07:21:05.000Z</time>
      </trkpt>
      <trkpt lat="47.20578" lon="6.66879">
        <ele>761</ele>
        <time>2018-07-01T07:21:06.000Z</time>
      </trkpt>
      <trkpt lat="47.20578" lon="6.66881">
        <ele>761</ele>
        <time>2018-07-01T07:21:07.000Z</time>
      </trkpt>
      <trkpt lat="47.20578" lon="6.66884">
        <ele>761</ele>
        <time>2018-07-01T07:21:08.000Z</time>
      </trkpt>
      <trkpt lat="47.20579" lon="6.66886">
        <ele>761</ele>
        <time>2018-07-01T07:21:09.000Z</time>
      </trkpt>
      <trkpt lat="47.20579" lon="6.66888">
        <ele>760</ele>
        <time>2018-07-01T07:21:10.000Z</time>
      </trkpt>
      <trkpt lat="47.20579" lon="6.6689">
        <ele>760</ele>
        <time>2018-07-01T07:21:11.000Z</time>
      </trkpt>
      <trkpt lat="47.2058" lon="6.66892">
        <ele>759</ele>
        <time>2018-07-01T07:21:12.000Z</time>
      </trkpt>
      <trkpt lat="47.2058" lon="6.66894">
        <ele>759</ele>
        <time>2018-07-01T07:21:13.000Z</time>
      </trkpt>
      <trkpt lat="47.2058" lon="6.66896">
        <ele>759</ele>
        <time>2018-07-01T07:21:14.000Z</time>
      </trkpt>
      <trkpt lat="47.20581" lon="6.66898">
        <ele>758</ele>
        <time>2018-07-01T07:21:15.000Z</time>
      </trkpt>
      <trkpt lat="47.20581" lon="6.66901">
        <ele>757</ele>
        <time>2018-07-01T07:21:16.000Z</time>
      </trkpt>
      <trkpt lat="47.2058" lon="6.66903">
        <ele>756</ele>
        <time>2018-07-01T07:21:17.000Z</time>
      </trkpt>
      <trkpt lat="47.2058" lon="6.66905">
        <ele>756</ele>
        <time>2018-07-01T07:21:18.000Z</time>
      </trkpt>
      <trkpt lat="47.20579" lon="6.66908">
        <ele>754</ele>
        <time>2018-07-01T07:21:19.000Z</time>
      </trkpt>
      <trkpt lat="47.20579" lon="6.66911">
        <ele>753</ele>
        <time>2018-07-01T07:21:20.000Z</time>
      </trkpt>
      <trkpt lat="47.20578" lon="6.66914">
        <ele>753</ele>
        <time>2018-07-01T07:21:21.000Z</time>
      </trkpt>
      <trkpt lat="47.20578" lon="6.66917">
        <ele>753</ele>
        <time>2018-07-01T07:21:22.000Z</time>
      </trkpt>
      <trkpt lat="47.20578" lon="6.66919">
        <ele>754</ele>
        <time>2018-07-01T07:21:23.000Z</time>
      </trkpt>
      <trkpt lat="47.20578" lon="6.66922">
        <ele>754</ele>
        <time>2018-07-01T07:21:24.000Z</time>
      </trkpt>
      <trkpt lat="47.20579" lon="6.66924">
        <ele>755</ele>
        <time>2018-07-01T07:21:25.000Z</time>
      </trkpt>
      <trkpt lat="47.2058" lon="6.66927">
        <ele>757</ele>
        <time>2018-07-01T07:21:26.000Z</time>
      </trkpt>
      <trkpt lat="47.20581" lon="6.66929">
        <ele>757</ele>
        <time>2018-07-01T07:21:27.000Z</time>
      </trkpt>
      <trkpt lat="47.20582" lon="6.66931">
        <ele>758</ele>
        <time>2018-07-01T07:21:28.000Z</time>
      </trkpt>
      <trkpt lat="47.20584" lon="6.66932">
        <ele>741</ele>
        <time>2018-07-01T07:21:29.000Z</time>
      </trkpt>
      <trkpt lat="47.20585" lon="6.66934">
        <ele>741</ele>
        <time>2018-07-01T07:21:30.000Z</time>
      </trkpt>
      <trkpt lat="47.20586" lon="6.66936">
        <ele>741</ele>
        <time>2018-07-01T07:21:31.000Z</time>
      </trkpt>
      <trkpt lat="47.20588" lon="6.66937">
        <ele>740</ele>
        <time>2018-07-01T07:21:32.000Z</time>
      </trkpt>
      <trkpt lat="47.2059" lon="6.66937">
        <ele>740</ele>
        <time>2018-07-01T07:21:33.000Z</time>
      </trkpt>
      <trkpt lat="47.20591" lon="6.66939">
        <ele>739</ele>
        <time>2018-07-01T07:21:34.000Z</time>
      </trkpt>
      <trkpt lat="47.20592" lon="6.6694">
        <ele>739</ele>
        <time>2018-07-01T07:21:35.000Z</time>
      </trkpt>
      <trkpt lat="47.20594" lon="6.66942">
        <ele>739</ele>
        <time>2018-07-01T07:21:36.000Z</time>
      </trkpt>
      <trkpt lat="47.20595" lon="6.66944">
        <ele>738</ele>
        <time>2018-07-01T07:21:37.000Z</time>
      </trkpt>
      <trkpt lat="47.20596" lon="6.66946">
        <ele>738</ele>
        <time>2018-07-01T07:21:38.000Z</time>
      </trkpt>
      <trkpt lat="47.20596" lon="6.66948">
        <ele>738</ele>
        <time>2018-07-01T07:21:39.000Z</time>
      </trkpt>
      <trkpt lat="47.20597" lon="6.66949">
        <ele>738</ele>
        <time>2018-07-01T07:21:40.000Z</time>
      </trkpt>
      <trkpt lat="47.20598" lon="6.66951">
        <ele>738</ele>
        <time>2018-07-01T07:21:41.000Z</time>
      </trkpt>
      <trkpt lat="47.20598" lon="6.66953">
        <ele>738</ele>
        <time>2018-07-01T07:21:42.000Z</time>
      </trkpt>
      <trkpt lat="47.20599" lon="6.66954">
        <ele>738</ele>
        <time>2018-07-01T07:21:43.000Z</time>
      </trkpt>
      <trkpt lat="47.20599" lon="6.66955">
        <ele>738</ele>
        <time>2018-07-01T07:21:44.000Z</time>
      </trkpt>
      <trkpt lat="47.20599" lon="6.66957">
        <ele>738</ele>
        <time>2018-07-01T07:21:45.000Z</time>
      </trkpt>
      <trkpt lat="47.206" lon="6.66958">
        <ele>738</ele>
        <time>2018-07-01T07:21:46.000Z</time>
      </trkpt>
      <trkpt lat="47.206" lon="6.6696">
        <ele>738</ele>
        <time>2018-07-01T07:21:47.000Z</time>
      </trkpt>
      <trkpt lat="47.206" lon="6.66962">
        <ele>738</ele>
        <time>2018-07-01T07:21:48.000Z</time>
      </trkpt>
      <trkpt lat="47.20601" lon="6.66963">
        <ele>738</ele>
        <time>2018-07-01T07:21:49.000Z</time>
      </trkpt>
      <trkpt lat="47.20601" lon="6.66964">
        <ele>738</ele>
        <time>2018-07-01T07:21:50.000Z</time>
      </trkpt>
      <trkpt lat="47.20601" lon="6.66965">
        <ele>739</ele>
        <time>2018-07-01T07:21:51.000Z</time>
      </trkpt>
      <trkpt lat="47.20601" lon="6.66967">
        <ele>739</ele>
        <time>2018-07-01T07:21:52.000Z</time>
      </trkpt>
      <trkpt lat="47.20601" lon="6.66968">
        <ele>739</ele>
        <time>2018-07-01T07:21:53.000Z</time>
      </trkpt>
      <trkpt lat="47.20601" lon="6.6697">
        <ele>739</ele>
        <time>2018-07-01T07:21:54.000Z</time>
      </trkpt>
      <trkpt lat="47.20601" lon="6.66972">
        <ele>740</ele>
        <time>2018-07-01T07:21:55.000Z</time>
      </trkpt>
      <trkpt lat="47.20601" lon="6.66975">
        <ele>740</ele>
        <time>2018-07-01T07:21:56.000Z</time>
      </trkpt>
      <trkpt lat="47.20601" lon="6.66978">
        <ele>741</ele>
        <time>2018-07-01T07:21:57.000Z</time>
      </trkpt>
      <trkpt lat="47.20601" lon="6.66981">
        <ele>742</ele>
        <time>2018-07-01T07:21:58.000Z</time>
      </trkpt>
      <trkpt lat="47.206" lon="6.66984">
        <ele>743</ele>
        <time>2018-07-01T07:21:59.000Z</time>
      </trkpt>
      <trkpt lat="47.206" lon="6.66987">
        <ele>744</ele>
        <time>2018-07-01T07:22:00.000Z</time>
      </trkpt>
      <trkpt lat="47.206" lon="6.6699">
        <ele>745</ele>
        <time>2018-07-01T07:22:01.000Z</time>
      </trkpt>
      <trkpt lat="47.20599" lon="6.66993">
        <ele>746</ele>
        <time>2018-07-01T07:22:02.000Z</time>
      </trkpt>
      <trkpt lat="47.20599" lon="6.66995">
        <ele>747</ele>
        <time>2018-07-01T07:22:03.000Z</time>
      </trkpt>
      <trkpt lat="47.20599" lon="6.66998">
        <ele>747</ele>
        <time>2018-07-01T07:22:04.000Z</time>
      </trkpt>
      <trkpt lat="47.206" lon="6.67001">
        <ele>755</ele>
        <time>2018-07-01T07:22:05.000Z</time>
      </trkpt>
      <trkpt lat="47.206" lon="6.67004">
        <ele>755</ele>
        <time>2018-07-01T07:22:06.000Z</time>
      </trkpt>
      <trkpt lat="47.206" lon="6.67007">
        <ele>755</ele>
        <time>2018-07-01T07:22:07.000Z</time>
      </trkpt>
      <trkpt lat="47.206" lon="6.6701">
        <ele>755</ele>
        <time>2018-07-01T07:22:08.000Z</time>
      </trkpt>
      <trkpt lat="47.20601" lon="6.67013">
        <ele>755</ele>
        <time>2018-07-01T07:22:09.000Z</time>
      </trkpt>
      <trkpt lat="47.20601" lon="6.67015">
        <ele>755</ele>
        <time>2018-07-01T07:22:10.000Z</time>
      </trkpt>
      <trkpt lat="47.20601" lon="6.67018">
        <ele>755</ele>
        <time>2018-07-01T07:22:11.000Z</time>
      </trkpt>
      <trkpt lat="47.20601" lon="6.6702">
        <ele>755</ele>
        <time>2018-07-01T07:22:12.000Z</time>
      </trkpt>
      <trkpt lat="47.20601" lon="6.67023">
        <ele>755</ele>
        <time>2018-07-01T07:22:13.000Z</time>
      </trkpt>
      <trkpt lat="47.20602" lon="6.67025">
        <ele>755</ele>
        <time>2018-07-01T07:22:14.000Z</time>
      </trkpt>
      <trkpt lat="47.20602" lon="6.67027">
        <ele>755</ele>
        <time>2018-07-01T07:22:15.000Z</time>
      </trkpt>
      <trkpt lat="47.20602" lon="6.6703">
        <ele>755</ele>
        <time>2018-07-01T07:22:16.000Z</time>
      </trkpt>
      <trkpt lat="47.20602" lon="6.67032">
        <ele>756</ele>
        <time>2018-07-01T07:22:17.000Z</time>
      </trkpt>
      <trkpt lat="47.20602" lon="6.67035">
        <ele>756</ele>
        <time>2018-07-01T07:22:18.000Z</time>
      </trkpt>
      <trkpt lat="47.20602" lon="6.67037">
        <ele>756</ele>
        <time>2018-07-01T07:22:19.000Z</time>
      </trkpt>
      <trkpt lat="47.20603" lon="6.67039">
        <ele>756</ele>
        <time>2018-07-01T07:22:20.000Z</time>
      </trkpt>
      <trkpt lat="47.20603" lon="6.67042">
        <ele>757</ele>
        <time>2018-07-01T07:22:21.000Z</time>
      </trkpt>
      <trkpt lat="47.20604" lon="6.67044">
        <ele>757</ele>
        <time>2018-07-01T07:22:22.000Z</time>
      </trkpt>
      <trkpt lat="47.20604" lon="6.67047">
        <ele>757</ele>
        <time>2018-07-01T07:22:23.000Z</time>
      </trkpt>
      <trkpt lat="47.20605" lon="6.67049">
        <ele>758</ele>
        <time>2018-07-01T07:22:24.000Z</time>
      </trkpt>
      <trkpt lat="47.20605" lon="6.67052">
        <ele>758</ele>
        <time>2018-07-01T07:22:25.000Z</time>
      </trkpt>
      <trkpt lat="47.20606" lon="6.67054">
        <ele>758</ele>
        <time>2018-07-01T07:22:26.000Z</time>
      </trkpt>
      <trkpt lat="47.20607" lon="6.67056">
        <ele>758</ele>
        <time>2018-07-01T07:22:27.000Z</time>
      </trkpt>
      <trkpt lat="47.20608" lon="6.67058">
        <ele>759</ele>
        <time>2018-07-01T07:22:28.000Z</time>
      </trkpt>
      <trkpt lat="47.20608" lon="6.6706">
        <ele>759</ele>
        <time>2018-07-01T07:22:29.000Z</time>
      </trkpt>
      <trkpt lat="47.20609" lon="6.67062">
        <ele>759</ele>
        <time>2018-07-01T07:22:30.000Z</time>
      </trkpt>
      <trkpt lat="47.20609" lon="6.67064">
        <ele>760</ele>
        <time>2018-07-01T07:22:31.000Z</time>
      </trkpt>
      <trkpt lat="47.2061" lon="6.67066">
        <ele>760</ele>
        <time>2018-07-01T07:22:32.000Z</time>
      </trkpt>
      <trkpt lat="47.20611" lon="6.67067">
        <ele>760</ele>
        <time>2018-07-01T07:22:33.000Z</time>
      </trkpt>
      <trkpt lat="47.20612" lon="6.67069">
        <ele>760</ele>
        <time>2018-07-01T07:22:34.000Z</time>
      </trkpt>
      <trkpt lat="47.20613" lon="6.67071">
        <ele>760</ele>
        <time>2018-07-01T07:22:35.000Z</time>
      </trkpt>
      <trkpt lat="47.20613" lon="6.67073">
        <ele>760</ele>
        <time>2018-07-01T07:22:36.000Z</time>
      </trkpt>
      <trkpt lat="47.20614" lon="6.67074">
        <ele>760</ele>
        <time>2018-07-01T07:22:37.000Z</time>
      </trkpt>
      <trkpt lat="47.20615" lon="6.67076">
        <ele>760</ele>
        <time>2018-07-01T07:22:38.000Z</time>
      </trkpt>
      <trkpt lat="47.20615" lon="6.67078">
        <ele>760</ele>
        <time>2018-07-01T07:22:39.000Z</time>
      </trkpt>
      <trkpt lat="47.20616" lon="6.6708">
        <ele>760</ele>
        <time>2018-07-01T07:22:40.000Z</time>
      </trkpt>
      <trkpt lat="47.20616" lon="6.67082">
        <ele>760</ele>
        <time>2018-07-01T07:22:41.000Z</time>
      </trkpt>
      <trkpt lat="47.20617" lon="6.67083">
        <ele>760</ele>
        <time>2018-07-01T07:22:42.000Z</time>
      </trkpt>
      <trkpt lat="47.20618" lon="6.67085">
        <ele>773</ele>
        <time>2018-07-01T07:22:43.000Z</time>
      </trkpt>
      <trkpt lat="47.20619" lon="6.67087">
        <ele>773</ele>
        <time>2018-07-01T07:22:44.000Z</time>
      </trkpt>
      <trkpt lat="47.2062" lon="6.67088">
        <ele>773</ele>
        <time>2018-07-01T07:22:45.000Z</time>
      </trkpt>
      <trkpt lat="47.20621" lon="6.6709">
        <ele>772</ele>
        <time>2018-07-01T07:22:46.000Z</time>
      </trkpt>
      <trkpt lat="47.20622" lon="6.67092">
        <ele>772</ele>
        <time>2018-07-01T07:22:47.000Z</time>
      </trkpt>
      <trkpt lat="47.20622" lon="6.67094">
        <ele>772</ele>
        <time>2018-07-01T07:22:48.000Z</time>
      </trkpt>
      <trkpt lat="47.20623" lon="6.67096">
        <ele>772</ele>
        <time>2018-07-01T07:22:49.000Z</time>
      </trkpt>
      <trkpt lat="47.20623" lon="6.67098">
        <ele>772</ele>
        <time>2018-07-01T07:22:50.000Z</time>
      </trkpt>
      <trkpt lat="47.20623" lon="6.671">
        <ele>773</ele>
        <time>2018-07-01T07:22:51.000Z</time>
      </trkpt>
      <trkpt lat="47.20624" lon="6.67102">
        <ele>773</ele>
        <time>2018-07-01T07:22:52.000Z</time>
      </trkpt>
      <trkpt lat="47.20624" lon="6.67104">
        <ele>773</ele>
        <time>2018-07-01T07:22:53.000Z</time>
      </trkpt>
      <trkpt lat="47.20625" lon="6.67106">
        <ele>773</ele>
        <time>2018-07-01T07:22:54.000Z</time>
      </trkpt>
      <trkpt lat="47.20625" lon="6.67108">
        <ele>773</ele>
        <time>2018-07-01T07:22:55.000Z</time>
      </trkpt>
      <trkpt lat="47.20626" lon="6.67109">
        <ele>773</ele>
        <time>2018-07-01T07:22:56.000Z</time>
      </trkpt>
      <trkpt lat="47.20626" lon="6.67111">
        <ele>773</ele>
        <time>2018-07-01T07:22:57.000Z</time>
      </trkpt>
      <trkpt lat="47.20627" lon="6.67114">
        <ele>773</ele>
        <time>2018-07-01T07:22:58.000Z</time>
      </trkpt>
      <trkpt lat="47.20627" lon="6.67116">
        <ele>773</ele>
        <time>2018-07-01T07:22:59.000Z</time>
      </trkpt>
      <trkpt lat="47.20628" lon="6.67118">
        <ele>774</ele>
        <time>2018-07-01T07:23:00.000Z</time>
      </trkpt>
      <trkpt lat="47.20629" lon="6.6712">
        <ele>774</ele>
        <time>2018-07-01T07:23:01.000Z</time>
      </trkpt>
      <trkpt lat="47.20629" lon="6.67122">
        <ele>774</ele>
        <time>2018-07-01T07:23:02.000Z</time>
      </trkpt>
      <trkpt lat="47.2063" lon="6.67125">
        <ele>774</ele>
        <time>2018-07-01T07:23:03.000Z</time>
      </trkpt>
      <trkpt lat="47.20631" lon="6.67127">
        <ele>774</ele>
        <time>2018-07-01T07:23:04.000Z</time>
      </trkpt>
      <trkpt lat="47.20631" lon="6.67128">
        <ele>774</ele>
        <time>2018-07-01T07:23:05.000Z</time>
      </trkpt>
      <trkpt lat="47.20632" lon="6.6713">
        <ele>774</ele>
        <time>2018-07-01T07:23:06.000Z</time>
      </trkpt>
      <trkpt lat="47.20633" lon="6.67132">
        <ele>775</ele>
        <time>2018-07-01T07:23:07.000Z</time>
      </trkpt>
      <trkpt lat="47.20633" lon="6.67133">
        <ele>775</ele>
        <time>2018-07-01T07:23:08.000Z</time>
      </trkpt>
      <trkpt lat="47.20634" lon="6.67135">
        <ele>775</ele>
        <time>2018-07-01T07:23:09.000Z</time>
      </trkpt>
      <trkpt lat="47.20634" lon="6.67137">
        <ele>775</ele>
        <time>2018-07-01T07:23:10.000Z</time>
      </trkpt>
      <trkpt lat="47.20635" lon="6.67139">
        <ele>775</ele>
        <time>2018-07-01T07:23:11.000Z</time>
      </trkpt>
      <trkpt lat="47.20636" lon="6.67141">
        <ele>775</ele>
        <time>2018-07-01T07:23:12.000Z</time>
      </trkpt>
      <trkpt lat="47.20636" lon="6.67142">
        <ele>775</ele>
        <time>2018-07-01T07:23:13.000Z</time>
      </trkpt>
      <trkpt lat="47.20636" lon="6.67144">
        <ele>775</ele>
        <time>2018-07-01T07:23:14.000Z</time>
      </trkpt>
      <trkpt lat="47.20636" lon="6.67146">
        <ele>776</ele>
        <time>2018-07-01T07:23:15.000Z</time>
      </trkpt>
      <trkpt lat="47.20636" lon="6.67148">
        <ele>776</ele>
        <time>2018-07-01T07:23:16.000Z</time>
      </trkpt>
      <trkpt lat="47.20636" lon="6.67149">
        <ele>776</ele>
        <time>2018-07-01T07:23:17.000Z</time>
      </trkpt>
      <trkpt lat="47.20637" lon="6.67151">
        <ele>776</ele>
        <time>2018-07-01T07:23:18.000Z</time>
      </trkpt>
      <trkpt lat="47.20637" lon="6.67153">
        <ele>776</ele>
        <time>2018-07-01T07:23:19.000Z</time>
      </trkpt>
      <trkpt lat="47.20637" lon="6.67155">
        <ele>776</ele>
        <time>2018-07-01T07:23:20.000Z</time>
      </trkpt>
      <trkpt lat="47.20638" lon="6.67157">
        <ele>776</ele>
        <time>2018-07-01T07:23:21.000Z</time>
      </trkpt>
      <trkpt lat="47.20639" lon="6.67159">
        <ele>776</ele>
        <time>2018-07-01T07:23:22.000Z</time>
      </trkpt>
      <trkpt lat="47.20639" lon="6.67161">
        <ele>776</ele>
        <time>2018-07-01T07:23:23.000Z</time>
      </trkpt>
      <trkpt lat="47.20639" lon="6.67163">
        <ele>776</ele>
        <time>2018-07-01T07:23:24.000Z</time>
      </trkpt>
      <trkpt lat="47.20639" lon="6.67164">
        <ele>776</ele>
        <time>2018-07-01T07:23:25.000Z</time>
      </trkpt>
      <trkpt lat="47.2064" lon="6.67166">
        <ele>776</ele>
        <time>2018-07-01T07:23:26.000Z</time>
      </trkpt>
      <trkpt lat="47.20641" lon="6.67168">
        <ele>784</ele>
        <time>2018-07-01T07:23:27.000Z</time>
      </trkpt>
      <trkpt lat="47.20641" lon="6.67169">
        <ele>784</ele>
        <time>2018-07-01T07:23:28.000Z</time>
      </trkpt>
      <trkpt lat="47.20641" lon="6.67171">
        <ele>784</ele>
        <time>2018-07-01T07:23:29.000Z</time>
      </trkpt>
      <trkpt lat="47.20642" lon="6.67172">
        <ele>784</ele>
        <time>2018-07-01T07:23:30.000Z</time>
      </trkpt>
      <trkpt lat="47.20643" lon="6.67173">
        <ele>784</ele>
        <time>2018-07-01T07:23:31.000Z</time>
      </trkpt>
      <trkpt lat="47.20644" lon="6.67175">
        <ele>784</ele>
        <time>2018-07-01T07:23:32.000Z</time>
      </trkpt>
      <trkpt lat="47.20644" lon="6.67176">
        <ele>784</ele>
        <time>2018-07-01T07:23:33.000Z</time>
      </trkpt>
      <trkpt lat="47.20645" lon="6.67178">
        <ele>784</ele>
        <time>2018-07-01T07:23:34.000Z</time>
      </trkpt>
      <trkpt lat="47.20646" lon="6.67179">
        <ele>784</ele>
        <time>2018-07-01T07:23:35.000Z</time>
      </trkpt>
      <trkpt lat="47.20647" lon="6.6718">
        <ele>784</ele>
        <time>2018-07-01T07:23:36.000Z</time>
      </trkpt>
      <trkpt lat="47.20647" lon="6.67182">
        <ele>784</ele>
        <time>2018-07-01T07:23:37.000Z</time>
      </trkpt>
      <trkpt lat="47.20647" lon="6.67183">
        <ele>784</ele>
        <time>2018-07-01T07:23:38.000Z</time>
      </trkpt>
      <trkpt lat="47.20648" lon="6.67185">
        <ele>784</ele>
        <time>2018-07-01T07:23:39.000Z</time>
      </trkpt>
      <trkpt lat="47.20649" lon="6.67186">
        <ele>784</ele>
        <time>2018-07-01T07:23:40.000Z</time>
      </trkpt>
      <trkpt lat="47.20649" lon="6.67188">
        <ele>784</ele>
        <time>2018-07-01T07:23:41.000Z</time>
      </trkpt>
      <trkpt lat="47.2065" lon="6.67189">
        <ele>784</ele>
        <time>2018-07-01T07:23:42.000Z</time>
      </trkpt>
      <trkpt lat="47.20651" lon="6.6719">
        <ele>784</ele>
        <time>2018-07-01T07:23:43.000Z</time>
      </trkpt>
      <trkpt lat="47.20651" lon="6.67191">
        <ele>784</ele>
        <time>2018-07-01T07:23:44.000Z</time>
      </trkpt>
      <trkpt lat="47.20652" lon="6.67192">
        <ele>784</ele>
        <time>2018-07-01T07:23:45.000Z</time>
      </trkpt>
      <trkpt lat="47.20652" lon="6.67194">
        <ele>785</ele>
        <time>2018-07-01T07:23:46.000Z</time>
      </trkpt>
      <trkpt lat="47.20653" lon="6.67195">
        <ele>785</ele>
        <time>2018-07-01T07:23:47.000Z</time>
      </trkpt>
      <trkpt lat="47.20654" lon="6.67197">
        <ele>785</ele>
        <time>2018-07-01T07:23:48.000Z</time>
      </trkpt>
      <trkpt lat="47.20654" lon="6.67198">
        <ele>785</ele>
        <time>2018-07-01T07:23:49.000Z</time>
      </trkpt>
      <trkpt lat="47.20655" lon="6.67201">
        <ele>785</ele>
        <time>2018-07-01T07:23:50.000Z</time>
      </trkpt>
      <trkpt lat="47.20656" lon="6.67203">
        <ele>785</ele>
        <time>2018-07-01T07:23:51.000Z</time>
      </trkpt>
      <trkpt lat="47.20657" lon="6.67206">
        <ele>785</ele>
        <time>2018-07-01T07:23:52.000Z</time>
      </trkpt>
      <trkpt lat="47.20657" lon="6.67209">
        <ele>786</ele>
        <time>2018-07-01T07:23:53.000Z</time>
      </trkpt>
      <trkpt lat="47.20658" lon="6.67212">
        <ele>786</ele>
        <time>2018-07-01T07:23:54.000Z</time>
      </trkpt>
      <trkpt lat="47.20659" lon="6.67215">
        <ele>786</ele>
        <time>2018-07-01T07:23:55.000Z</time>
      </trkpt>
      <trkpt lat="47.2066" lon="6.67217">
        <ele>786</ele>
        <time>2018-07-01T07:23:56.000Z</time>
      </trkpt>
      <trkpt lat="47.20661" lon="6.6722">
        <ele>786</ele>
        <time>2018-07-01T07:23:57.000Z</time>
      </trkpt>
      <trkpt lat="47.20661" lon="6.67223">
        <ele>785</ele>
        <time>2018-07-01T07:23:58.000Z</time>
      </trkpt>
      <trkpt lat="47.20662" lon="6.67226">
        <ele>785</ele>
        <time>2018-07-01T07:23:59.000Z</time>
      </trkpt>
      <trkpt lat="47.20662" lon="6.67228">
        <ele>785</ele>
        <time>2018-07-01T07:24:00.000Z</time>
      </trkpt>
      <trkpt lat="47.20663" lon="6.67231">
        <ele>785</ele>
        <time>2018-07-01T07:24:01.000Z</time>
      </trkpt>
      <trkpt lat="47.20664" lon="6.67234">
        <ele>784</ele>
        <time>2018-07-01T07:24:02.000Z</time>
      </trkpt>
      <trkpt lat="47.20664" lon="6.67237">
        <ele>784</ele>
        <time>2018-07-01T07:24:03.000Z</time>
      </trkpt>
      <trkpt lat="47.20665" lon="6.6724">
        <ele>783</ele>
        <time>2018-07-01T07:24:04.000Z</time>
      </trkpt>
      <trkpt lat="47.20666" lon="6.67242">
        <ele>783</ele>
        <time>2018-07-01T07:24:05.000Z</time>
      </trkpt>
      <trkpt lat="47.20667" lon="6.67245">
        <ele>782</ele>
        <time>2018-07-01T07:24:06.000Z</time>
      </trkpt>
      <trkpt lat="47.20667" lon="6.67247">
        <ele>779</ele>
        <time>2018-07-01T07:24:07.000Z</time>
      </trkpt>
      <trkpt lat="47.20668" lon="6.6725">
        <ele>780</ele>
        <time>2018-07-01T07:24:08.000Z</time>
      </trkpt>
      <trkpt lat="47.20669" lon="6.67253">
        <ele>780</ele>
        <time>2018-07-01T07:24:09.000Z</time>
      </trkpt>
      <trkpt lat="47.2067" lon="6.67256">
        <ele>780</ele>
        <time>2018-07-01T07:24:10.000Z</time>
      </trkpt>
      <trkpt lat="47.20671" lon="6.67258">
        <ele>780</ele>
        <time>2018-07-01T07:24:11.000Z</time>
      </trkpt>
      <trkpt lat="47.20672" lon="6.67261">
        <ele>780</ele>
        <time>2018-07-01T07:24:12.000Z</time>
      </trkpt>
      <trkpt lat="47.20673" lon="6.67264">
        <ele>780</ele>
        <time>2018-07-01T07:24:13.000Z</time>
      </trkpt>
      <trkpt lat="47.20674" lon="6.67267">
        <ele>781</ele>
        <time>2018-07-01T07:24:14.000Z</time>
      </trkpt>
      <trkpt lat="47.20675" lon="6.6727">
        <ele>781</ele>
        <time>2018-07-01T07:24:15.000Z</time>
      </trkpt>
      <trkpt lat="47.20676" lon="6.67273">
        <ele>781</ele>
        <time>2018-07-01T07:24:16.000Z</time>
      </trkpt>
      <trkpt lat="47.20677" lon="6.67276">
        <ele>781</ele>
        <time>2018-07-01T07:24:17.000Z</time>
      </trkpt>
      <trkpt lat="47.20678" lon="6.67279">
        <ele>781</ele>
        <time>2018-07-01T07:24:18.000Z</time>
      </trkpt>
      <trkpt lat="47.20678" lon="6.67282">
        <ele>781</ele>
        <time>2018-07-01T07:24:19.000Z</time>
      </trkpt>
      <trkpt lat="47.20679" lon="6.67285">
        <ele>782</ele>
        <time>2018-07-01T07:24:20.000Z</time>
      </trkpt>
      <trkpt lat="47.2068" lon="6.67288">
        <ele>782</ele>
        <time>2018-07-01T07:24:21.000Z</time>
      </trkpt>
      <trkpt lat="47.20681" lon="6.67291">
        <ele>782</ele>
        <time>2018-07-01T07:24:22.000Z</time>
      </trkpt>
      <trkpt lat="47.20681" lon="6.67294">
        <ele>782</ele>
        <time>2018-07-01T07:24:23.000Z</time>
      </trkpt>
      <trkpt lat="47.20682" lon="6.67297">
        <ele>782</ele>
        <time>2018-07-01T07:24:24.000Z</time>
      </trkpt>
      <trkpt lat="47.20683" lon="6.67299">
        <ele>783</ele>
        <time>2018-07-01T07:24:25.000Z</time>
      </trkpt>
      <trkpt lat="47.20683" lon="6.67302">
        <ele>783</ele>
        <time>2018-07-01T07:24:26.000Z</time>
      </trkpt>
      <trkpt lat="47.20684" lon="6.67305">
        <ele>783</ele>
        <time>2018-07-01T07:24:27.000Z</time>
      </trkpt>
      <trkpt lat="47.20685" lon="6.67308">
        <ele>783</ele>
        <time>2018-07-01T07:24:28.000Z</time>
      </trkpt>
      <trkpt lat="47.20685" lon="6.6731">
        <ele>783</ele>
        <time>2018-07-01T07:24:29.000Z</time>
      </trkpt>
      <trkpt lat="47.20686" lon="6.67313">
        <ele>784</ele>
        <time>2018-07-01T07:24:30.000Z</time>
      </trkpt>
      <trkpt lat="47.20687" lon="6.67315">
        <ele>784</ele>
        <time>2018-07-01T07:24:31.000Z</time>
      </trkpt>
      <trkpt lat="47.20688" lon="6.67318">
        <ele>784</ele>
        <time>2018-07-01T07:24:32.000Z</time>
      </trkpt>
      <trkpt lat="47.20688" lon="6.6732">
        <ele>784</ele>
        <time>2018-07-01T07:24:33.000Z</time>
      </trkpt>
      <trkpt lat="47.20689" lon="6.67322">
        <ele>784</ele>
        <time>2018-07-01T07:24:34.000Z</time>
      </trkpt>
      <trkpt lat="47.2069" lon="6.67325">
        <ele>784</ele>
        <time>2018-07-01T07:24:35.000Z</time>
      </trkpt>
      <trkpt lat="47.20691" lon="6.67327">
        <ele>784</ele>
        <time>2018-07-01T07:24:36.000Z</time>
      </trkpt>
      <trkpt lat="47.20692" lon="6.67329">
        <ele>784</ele>
        <time>2018-07-01T07:24:37.000Z</time>
      </trkpt>
      <trkpt lat="47.20692" lon="6.67332">
        <ele>784</ele>
        <time>2018-07-01T07:24:38.000Z</time>
      </trkpt>
      <trkpt lat="47.20693" lon="6.67334">
        <ele>790</ele>
        <time>2018-07-01T07:24:39.000Z</time>
      </trkpt>
      <trkpt lat="47.20694" lon="6.67337">
        <ele>790</ele>
        <time>2018-07-01T07:24:40.000Z</time>
      </trkpt>
      <trkpt lat="47.20695" lon="6.67339">
        <ele>790</ele>
        <time>2018-07-01T07:24:41.000Z</time>
      </trkpt>
      <trkpt lat="47.20695" lon="6.67341">
        <ele>790</ele>
        <time>2018-07-01T07:24:42.000Z</time>
      </trkpt>
      <trkpt lat="47.20696" lon="6.67344">
        <ele>790</ele>
        <time>2018-07-01T07:24:43.000Z</time>
      </trkpt>
      <trkpt lat="47.20697" lon="6.67346">
        <ele>790</ele>
        <time>2018-07-01T07:24:44.000Z</time>
      </trkpt>
      <trkpt lat="47.20697" lon="6.67349">
        <ele>791</ele>
        <time>2018-07-01T07:24:45.000Z</time>
      </trkpt>
      <trkpt lat="47.20698" lon="6.67351">
        <ele>791</ele>
        <time>2018-07-01T07:24:46.000Z</time>
      </trkpt>
      <trkpt lat="47.20698" lon="6.67354">
        <ele>791</ele>
        <time>2018-07-01T07:24:47.000Z</time>
      </trkpt>
      <trkpt lat="47.20698" lon="6.67357">
        <ele>791</ele>
        <time>2018-07-01T07:24:48.000Z</time>
      </trkpt>
      <trkpt lat="47.20699" lon="6.67359">
        <ele>791</ele>
        <time>2018-07-01T07:24:49.000Z</time>
      </trkpt>
      <trkpt lat="47.20699" lon="6.67362">
        <ele>791</ele>
        <time>2018-07-01T07:24:50.000Z</time>
      </trkpt>
      <trkpt lat="47.207" lon="6.67365">
        <ele>791</ele>
        <time>2018-07-01T07:24:51.000Z</time>
      </trkpt>
      <trkpt lat="47.20701" lon="6.67367">
        <ele>791</ele>
        <time>2018-07-01T07:24:52.000Z</time>
      </trkpt>
      <trkpt lat="47.20702" lon="6.6737">
        <ele>792</ele>
        <time>2018-07-01T07:24:53.000Z</time>
      </trkpt>
      <trkpt lat="47.20703" lon="6.67374">
        <ele>792</ele>
        <time>2018-07-01T07:24:54.000Z</time>
      </trkpt>
      <trkpt lat="47.20704" lon="6.67377">
        <ele>792</ele>
        <time>2018-07-01T07:24:55.000Z</time>
      </trkpt>
      <trkpt lat="47.20705" lon="6.6738">
        <ele>792</ele>
        <time>2018-07-01T07:24:56.000Z</time>
      </trkpt>
      <trkpt lat="47.20706" lon="6.67384">
        <ele>792</ele>
        <time>2018-07-01T07:24:57.000Z</time>
      </trkpt>
      <trkpt lat="47.20707" lon="6.67387">
        <ele>792</ele>
        <time>2018-07-01T07:24:58.000Z</time>
      </trkpt>
      <trkpt lat="47.20708" lon="6.67391">
        <ele>793</ele>
        <time>2018-07-01T07:24:59.000Z</time>
      </trkpt>
      <trkpt lat="47.20709" lon="6.67394">
        <ele>793</ele>
        <time>2018-07-01T07:25:00.000Z</time>
      </trkpt>
      <trkpt lat="47.20711" lon="6.67398">
        <ele>793</ele>
        <time>2018-07-01T07:25:01.000Z</time>
      </trkpt>
      <trkpt lat="47.20712" lon="6.67402">
        <ele>793</ele>
        <time>2018-07-01T07:25:02.000Z</time>
      </trkpt>
      <trkpt lat="47.20713" lon="6.67405">
        <ele>793</ele>
        <time>2018-07-01T07:25:03.000Z</time>
      </trkpt>
      <trkpt lat="47.20714" lon="6.67408">
        <ele>793</ele>
        <time>2018-07-01T07:25:04.000Z</time>
      </trkpt>
      <trkpt lat="47.20716" lon="6.67412">
        <ele>793</ele>
        <time>2018-07-01T07:25:05.000Z</time>
      </trkpt>
      <trkpt lat="47.20717" lon="6.67415">
        <ele>793</ele>
        <time>2018-07-01T07:25:06.000Z</time>
      </trkpt>
      <trkpt lat="47.20718" lon="6.67419">
        <ele>798</ele>
        <time>2018-07-01T07:25:07.000Z</time>
      </trkpt>
      <trkpt lat="47.20719" lon="6.67423">
        <ele>798</ele>
        <time>2018-07-01T07:25:08.000Z</time>
      </trkpt>
      <trkpt lat="47.2072" lon="6.67427">
        <ele>798</ele>
        <time>2018-07-01T07:25:09.000Z</time>
      </trkpt>
      <trkpt lat="47.20722" lon="6.67431">
        <ele>798</ele>
        <time>2018-07-01T07:25:10.000Z</time>
      </trkpt>
      <trkpt lat="47.20723" lon="6.67435">
        <ele>798</ele>
        <time>2018-07-01T07:25:11.000Z</time>
      </trkpt>
      <trkpt lat="47.20724" lon="6.67439">
        <ele>798</ele>
        <time>2018-07-01T07:25:12.000Z</time>
      </trkpt>
      <trkpt lat="47.20726" lon="6.67443">
        <ele>798</ele>
        <time>2018-07-01T07:25:13.000Z</time>
      </trkpt>
      <trkpt lat="47.20727" lon="6.67447">
        <ele>798</ele>
        <time>2018-07-01T07:25:14.000Z</time>
      </trkpt>
      <trkpt lat="47.20729" lon="6.67451">
        <ele>798</ele>
        <time>2018-07-01T07:25:15.000Z</time>
      </trkpt>
      <trkpt lat="47.20731" lon="6.67456">
        <ele>798</ele>
        <time>2018-07-01T07:25:16.000Z</time>
      </trkpt>
      <trkpt lat="47.20732" lon="6.6746">
        <ele>798</ele>
        <time>2018-07-01T07:25:17.000Z</time>
      </trkpt>
      <trkpt lat="47.20734" lon="6.67465">
        <ele>798</ele>
        <time>2018-07-01T07:25:18.000Z</time>
      </trkpt>
      <trkpt lat="47.20735" lon="6.67469">
        <ele>798</ele>
        <time>2018-07-01T07:25:19.000Z</time>
      </trkpt>
      <trkpt lat="47.20737" lon="6.67474">
        <ele>798</ele>
        <time>2018-07-01T07:25:20.000Z</time>
      </trkpt>
      <trkpt lat="47.20738" lon="6.67478">
        <ele>798</ele>
        <time>2018-07-01T07:25:21.000Z</time>
      </trkpt>
      <trkpt lat="47.2074" lon="6.67483">
        <ele>797</ele>
        <time>2018-07-01T07:25:22.000Z</time>
      </trkpt>
      <trkpt lat="47.20741" lon="6.67487">
        <ele>797</ele>
        <time>2018-07-01T07:25:23.000Z</time>
      </trkpt>
      <trkpt lat="47.20741" lon="6.6749">
        <ele>797</ele>
        <time>2018-07-01T07:25:24.000Z</time>
      </trkpt>
      <trkpt lat="47.20742" lon="6.67494">
        <ele>796</ele>
        <time>2018-07-01T07:25:25.000Z</time>
      </trkpt>
      <trkpt lat="47.20744" lon="6.67498">
        <ele>796</ele>
        <time>2018-07-01T07:25:26.000Z</time>
      </trkpt>
      <trkpt lat="47.20745" lon="6.67502">
        <ele>797</ele>
        <time>2018-07-01T07:25:27.000Z</time>
      </trkpt>
      <trkpt lat="47.20746" lon="6.67506">
        <ele>797</ele>
        <time>2018-07-01T07:25:28.000Z</time>
      </trkpt>
      <trkpt lat="47.20747" lon="6.6751">
        <ele>798</ele>
        <time>2018-07-01T07:25:29.000Z</time>
      </trkpt>
      <trkpt lat="47.20749" lon="6.67515">
        <ele>799</ele>
        <time>2018-07-01T07:25:30.000Z</time>
      </trkpt>
      <trkpt lat="47.2075" lon="6.67518">
        <ele>790</ele>
        <time>2018-07-01T07:25:31.000Z</time>
      </trkpt>
      <trkpt lat="47.20752" lon="6.67522">
        <ele>789</ele>
        <time>2018-07-01T07:25:32.000Z</time>
      </trkpt>
      <trkpt lat="47.20753" lon="6.67527">
        <ele>789</ele>
        <time>2018-07-01T07:25:33.000Z</time>
      </trkpt>
      <trkpt lat="47.20754" lon="6.67531">
        <ele>789</ele>
        <time>2018-07-01T07:25:34.000Z</time>
      </trkpt>
      <trkpt lat="47.20756" lon="6.67535">
        <ele>788</ele>
        <time>2018-07-01T07:25:35.000Z</time>
      </trkpt>
      <trkpt lat="47.20757" lon="6.67539">
        <ele>788</ele>
        <time>2018-07-01T07:25:36.000Z</time>
      </trkpt>
      <trkpt lat="47.20758" lon="6.67543">
        <ele>788</ele>
        <time>2018-07-01T07:25:37.000Z</time>
      </trkpt>
      <trkpt lat="47.2076" lon="6.67547">
        <ele>789</ele>
        <time>2018-07-01T07:25:38.000Z</time>
      </trkpt>
      <trkpt lat="47.20762" lon="6.67552">
        <ele>789</ele>
        <time>2018-07-01T07:25:39.000Z</time>
      </trkpt>
      <trkpt lat="47.20764" lon="6.67557">
        <ele>789</ele>
        <time>2018-07-01T07:25:40.000Z</time>
      </trkpt>
      <trkpt lat="47.20766" lon="6.67562">
        <ele>789</ele>
        <time>2018-07-01T07:25:41.000Z</time>
      </trkpt>
      <trkpt lat="47.20768" lon="6.67567">
        <ele>790</ele>
        <time>2018-07-01T07:25:42.000Z</time>
      </trkpt>
      <trkpt lat="47.20769" lon="6.67572">
        <ele>790</ele>
        <time>2018-07-01T07:25:43.000Z</time>
      </trkpt>
      <trkpt lat="47.20771" lon="6.67576">
        <ele>790</ele>
        <time>2018-07-01T07:25:44.000Z</time>
      </trkpt>
      <trkpt lat="47.20773" lon="6.67581">
        <ele>790</ele>
        <time>2018-07-01T07:25:45.000Z</time>
      </trkpt>
      <trkpt lat="47.20774" lon="6.67585">
        <ele>790</ele>
        <time>2018-07-01T07:25:46.000Z</time>
      </trkpt>
      <trkpt lat="47.20775" lon="6.6759">
        <ele>790</ele>
        <time>2018-07-01T07:25:47.000Z</time>
      </trkpt>
      <trkpt lat="47.20777" lon="6.67595">
        <ele>789</ele>
        <time>2018-07-01T07:25:48.000Z</time>
      </trkpt>
      <trkpt lat="47.20778" lon="6.676">
        <ele>789</ele>
        <time>2018-07-01T07:25:49.000Z</time>
      </trkpt>
      <trkpt lat="47.2078" lon="6.67605">
        <ele>788</ele>
        <time>2018-07-01T07:25:50.000Z</time>
      </trkpt>
      <trkpt lat="47.20781" lon="6.67611">
        <ele>788</ele>
        <time>2018-07-01T07:25:51.000Z</time>
      </trkpt>
      <trkpt lat="47.20783" lon="6.67615">
        <ele>787</ele>
        <time>2018-07-01T07:25:52.000Z</time>
      </trkpt>
      <trkpt lat="47.20785" lon="6.6762">
        <ele>787</ele>
        <time>2018-07-01T07:25:53.000Z</time>
      </trkpt>
      <trkpt lat="47.20787" lon="6.67624">
        <ele>786</ele>
        <time>2018-07-01T07:25:54.000Z</time>
      </trkpt>
      <trkpt lat="47.20789" lon="6.67628">
        <ele>786</ele>
        <time>2018-07-01T07:25:55.000Z</time>
      </trkpt>
      <trkpt lat="47.20791" lon="6.67633">
        <ele>786</ele>
        <time>2018-07-01T07:25:56.000Z</time>
      </trkpt>
      <trkpt lat="47.20793" lon="6.67637">
        <ele>785</ele>
        <time>2018-07-01T07:25:57.000Z</time>
      </trkpt>
      <trkpt lat="47.20795" lon="6.67642">
        <ele>785</ele>
        <time>2018-07-01T07:25:58.000Z</time>
      </trkpt>
      <trkpt lat="47.20797" lon="6.67647">
        <ele>784</ele>
        <time>2018-07-01T07:25:59.000Z</time>
      </trkpt>
      <trkpt lat="47.20799" lon="6.67652">
        <ele>784</ele>
        <time>2018-07-01T07:26:00.000Z</time>
      </trkpt>
      <trkpt lat="47.20801" lon="6.67657">
        <ele>783</ele>
        <time>2018-07-01T07:26:01.000Z</time>
      </trkpt>
      <trkpt lat="47.20803" lon="6.67661">
        <ele>783</ele>
        <time>2018-07-01T07:26:02.000Z</time>
      </trkpt>
      <trkpt lat="47.20805" lon="6.67666">
        <ele>782</ele>
        <time>2018-07-01T07:26:03.000Z</time>
      </trkpt>
      <trkpt lat="47.20806" lon="6.67671">
        <ele>782</ele>
        <time>2018-07-01T07:26:04.000Z</time>
      </trkpt>
      <trkpt lat="47.20808" lon="6.67676">
        <ele>781</ele>
        <time>2018-07-01T07:26:05.000Z</time>
      </trkpt>
      <trkpt lat="47.2081" lon="6.67681">
        <ele>781</ele>
        <time>2018-07-01T07:26:06.000Z</time>
      </trkpt>
      <trkpt lat="47.20811" lon="6.67685">
        <ele>781</ele>
        <time>2018-07-01T07:26:07.000Z</time>
      </trkpt>
      <trkpt lat="47.20813" lon="6.6769">
        <ele>781</ele>
        <time>2018-07-01T07:26:08.000Z</time>
      </trkpt>
      <trkpt lat="47.20815" lon="6.67695">
        <ele>781</ele>
        <time>2018-07-01T07:26:09.000Z</time>
      </trkpt>
      <trkpt lat="47.20817" lon="6.677">
        <ele>781</ele>
        <time>2018-07-01T07:26:10.000Z</time>
      </trkpt>
      <trkpt lat="47.20818" lon="6.67704">
        <ele>782</ele>
        <time>2018-07-01T07:26:11.000Z</time>
      </trkpt>
      <trkpt lat="47.20821" lon="6.67709">
        <ele>781</ele>
        <time>2018-07-01T07:26:12.000Z</time>
      </trkpt>
      <trkpt lat="47.20822" lon="6.67714">
        <ele>781</ele>
        <time>2018-07-01T07:26:13.000Z</time>
      </trkpt>
      <trkpt lat="47.20824" lon="6.67719">
        <ele>781</ele>
        <time>2018-07-01T07:26:14.000Z</time>
      </trkpt>
      <trkpt lat="47.20826" lon="6.67724">
        <ele>780</ele>
        <time>2018-07-01T07:26:15.000Z</time>
      </trkpt>
      <trkpt lat="47.20828" lon="6.67728">
        <ele>780</ele>
        <time>2018-07-01T07:26:16.000Z</time>
      </trkpt>
      <trkpt lat="47.20831" lon="6.67732">
        <ele>779</ele>
        <time>2018-07-01T07:26:17.000Z</time>
      </trkpt>
      <trkpt lat="47.20833" lon="6.67737">
        <ele>778</ele>
        <time>2018-07-01T07:26:18.000Z</time>
      </trkpt>
      <trkpt lat="47.20835" lon="6.67742">
        <ele>770</ele>
        <time>2018-07-01T07:26:19.000Z</time>
      </trkpt>
      <trkpt lat="47.20838" lon="6.67747">
        <ele>771</ele>
        <time>2018-07-01T07:26:20.000Z</time>
      </trkpt>
      <trkpt lat="47.20841" lon="6.67752">
        <ele>770</ele>
        <time>2018-07-01T07:26:21.000Z</time>
      </trkpt>
      <trkpt lat="47.20844" lon="6.67757">
        <ele>769</ele>
        <time>2018-07-01T07:26:22.000Z</time>
      </trkpt>
      <trkpt lat="47.20847" lon="6.67762">
        <ele>768</ele>
        <time>2018-07-01T07:26:23.000Z</time>
      </trkpt>
      <trkpt lat="47.2085" lon="6.67768">
        <ele>767</ele>
        <time>2018-07-01T07:26:24.000Z</time>
      </trkpt>
      <trkpt lat="47.20853" lon="6.67774">
        <ele>766</ele>
        <time>2018-07-01T07:26:25.000Z</time>
      </trkpt>
      <trkpt lat="47.20855" lon="6.67779">
        <ele>765</ele>
        <time>2018-07-01T07:26:26.000Z</time>
      </trkpt>
      <trkpt lat="47.20857" lon="6.67785">
        <ele>765</ele>
        <time>2018-07-01T07:26:27.000Z</time>
      </trkpt>
      <trkpt lat="47.20859" lon="6.6779">
        <ele>765</ele>
        <time>2018-07-01T07:26:28.000Z</time>
      </trkpt>
      <trkpt lat="47.2086" lon="6.67795">
        <ele>765</ele>
        <time>2018-07-01T07:26:29.000Z</time>
      </trkpt>
      <trkpt lat="47.20862" lon="6.678">
        <ele>765</ele>
        <time>2018-07-01T07:26:30.000Z</time>
      </trkpt>
      <trkpt lat="47.20863" lon="6.67805">
        <ele>765</ele>
        <time>2018-07-01T07:26:31.000Z</time>
      </trkpt>
      <trkpt lat="47.20865" lon="6.6781">
        <ele>765</ele>
        <time>2018-07-01T07:26:32.000Z</time>
      </trkpt>
      <trkpt lat="47.20866" lon="6.67815">
        <ele>765</ele>
        <time>2018-07-01T07:26:33.000Z</time>
      </trkpt>
      <trkpt lat="47.20868" lon="6.67821">
        <ele>765</ele>
        <time>2018-07-01T07:26:34.000Z</time>
      </trkpt>
      <trkpt lat="47.2087" lon="6.67826">
        <ele>764</ele>
        <time>2018-07-01T07:26:35.000Z</time>
      </trkpt>
      <trkpt lat="47.20871" lon="6.67831">
        <ele>764</ele>
        <time>2018-07-01T07:26:36.000Z</time>
      </trkpt>
      <trkpt lat="47.20872" lon="6.67836">
        <ele>766</ele>
        <time>2018-07-01T07:26:37.000Z</time>
      </trkpt>
      <trkpt lat="47.20874" lon="6.67842">
        <ele>765</ele>
        <time>2018-07-01T07:26:38.000Z</time>
      </trkpt>
      <trkpt lat="47.20875" lon="6.67847">
        <ele>765</ele>
        <time>2018-07-01T07:26:39.000Z</time>
      </trkpt>
      <trkpt lat="47.20876" lon="6.67852">
        <ele>765</ele>
        <time>2018-07-01T07:26:40.000Z</time>
      </trkpt>
      <trkpt lat="47.20876" lon="6.67857">
        <ele>765</ele>
        <time>2018-07-01T07:26:41.000Z</time>
      </trkpt>
      <trkpt lat="47.20876" lon="6.67862">
        <ele>765</ele>
        <time>2018-07-01T07:26:42.000Z</time>
      </trkpt>
      <trkpt lat="47.20876" lon="6.67866">
        <ele>765</ele>
        <time>2018-07-01T07:26:43.000Z</time>
      </trkpt>
      <trkpt lat="47.20876" lon="6.67871">
        <ele>765</ele>
        <time>2018-07-01T07:26:44.000Z</time>
      </trkpt>
      <trkpt lat="47.20875" lon="6.67875">
        <ele>765</ele>
        <time>2018-07-01T07:26:45.000Z</time>
      </trkpt>
      <trkpt lat="47.20875" lon="6.67879">
        <ele>766</ele>
        <time>2018-07-01T07:26:46.000Z</time>
      </trkpt>
      <trkpt lat="47.20874" lon="6.67882">
        <ele>766</ele>
        <time>2018-07-01T07:26:47.000Z</time>
      </trkpt>
      <trkpt lat="47.20873" lon="6.67885">
        <ele>766</ele>
        <time>2018-07-01T07:26:48.000Z</time>
      </trkpt>
      <trkpt lat="47.20872" lon="6.67888">
        <ele>766</ele>
        <time>2018-07-01T07:26:49.000Z</time>
      </trkpt>
      <trkpt lat="47.20872" lon="6.67891">
        <ele>766</ele>
        <time>2018-07-01T07:26:50.000Z</time>
      </trkpt>
      <trkpt lat="47.20872" lon="6.67894">
        <ele>766</ele>
        <time>2018-07-01T07:26:51.000Z</time>
      </trkpt>
      <trkpt lat="47.20873" lon="6.67897">
        <ele>766</ele>
        <time>2018-07-01T07:26:52.000Z</time>
      </trkpt>
      <trkpt lat="47.20873" lon="6.679">
        <ele>766</ele>
        <time>2018-07-01T07:26:53.000Z</time>
      </trkpt>
      <trkpt lat="47.20874" lon="6.67903">
        <ele>766</ele>
        <time>2018-07-01T07:26:54.000Z</time>
      </trkpt>
      <trkpt lat="47.20876" lon="6.67906">
        <ele>766</ele>
        <time>2018-07-01T07:26:55.000Z</time>
      </trkpt>
      <trkpt lat="47.20877" lon="6.67909">
        <ele>766</ele>
        <time>2018-07-01T07:26:56.000Z</time>
      </trkpt>
      <trkpt lat="47.20879" lon="6.67912">
        <ele>765</ele>
        <time>2018-07-01T07:26:57.000Z</time>
      </trkpt>
      <trkpt lat="47.20881" lon="6.67915">
        <ele>765</ele>
        <time>2018-07-01T07:26:58.000Z</time>
      </trkpt>
      <trkpt lat="47.20884" lon="6.67918">
        <ele>768</ele>
        <time>2018-07-01T07:26:59.000Z</time>
      </trkpt>
      <trkpt lat="47.20886" lon="6.6792">
        <ele>768</ele>
        <time>2018-07-01T07:27:00.000Z</time>
      </trkpt>
      <trkpt lat="47.20888" lon="6.67923">
        <ele>767</ele>
        <time>2018-07-01T07:27:01.000Z</time>
      </trkpt>
      <trkpt lat="47.20891" lon="6.67925">
        <ele>767</ele>
        <time>2018-07-01T07:27:02.000Z</time>
      </trkpt>
      <trkpt lat="47.20893" lon="6.67928">
        <ele>766</ele>
        <time>2018-07-01T07:27:03.000Z</time>
      </trkpt>
      <trkpt lat="47.20895" lon="6.67931">
        <ele>766</ele>
        <time>2018-07-01T07:27:04.000Z</time>
      </trkpt>
      <trkpt lat="47.20897" lon="6.67934">
        <ele>766</ele>
        <time>2018-07-01T07:27:05.000Z</time>
      </trkpt>
      <trkpt lat="47.209" lon="6.67937">
        <ele>766</ele>
        <time>2018-07-01T07:27:06.000Z</time>
      </trkpt>
      <trkpt lat="47.20902" lon="6.6794">
        <ele>766</ele>
        <time>2018-07-01T07:27:07.000Z</time>
      </trkpt>
      <trkpt lat="47.20904" lon="6.67943">
        <ele>766</ele>
        <time>2018-07-01T07:27:08.000Z</time>
      </trkpt>
      <trkpt lat="47.20906" lon="6.67946">
        <ele>767</ele>
        <time>2018-07-01T07:27:09.000Z</time>
      </trkpt>
      <trkpt lat="47.20908" lon="6.67948">
        <ele>767</ele>
        <time>2018-07-01T07:27:10.000Z</time>
      </trkpt>
      <trkpt lat="47.2091" lon="6.67951">
        <ele>767</ele>
        <time>2018-07-01T07:27:11.000Z</time>
      </trkpt>
      <trkpt lat="47.20911" lon="6.67954">
        <ele>767</ele>
        <time>2018-07-01T07:27:12.000Z</time>
      </trkpt>
      <trkpt lat="47.20913" lon="6.67957">
        <ele>768</ele>
        <time>2018-07-01T07:27:13.000Z</time>
      </trkpt>
      <trkpt lat="47.20914" lon="6.6796">
        <ele>768</ele>
        <time>2018-07-01T07:27:14.000Z</time>
      </trkpt>
      <trkpt lat="47.20916" lon="6.67964">
        <ele>768</ele>
        <time>2018-07-01T07:27:15.000Z</time>
      </trkpt>
      <trkpt lat="47.20918" lon="6.67967">
        <ele>758</ele>
        <time>2018-07-01T07:27:16.000Z</time>
      </trkpt>
      <trkpt lat="47.20919" lon="6.67971">
        <ele>758</ele>
        <time>2018-07-01T07:27:17.000Z</time>
      </trkpt>
      <trkpt lat="47.20921" lon="6.67974">
        <ele>758</ele>
        <time>2018-07-01T07:27:18.000Z</time>
      </trkpt>
      <trkpt lat="47.20923" lon="6.67978">
        <ele>759</ele>
        <time>2018-07-01T07:27:19.000Z</time>
      </trkpt>
      <trkpt lat="47.20924" lon="6.67982">
        <ele>760</ele>
        <time>2018-07-01T07:27:20.000Z</time>
      </trkpt>
      <trkpt lat="47.20926" lon="6.67986">
        <ele>760</ele>
        <time>2018-07-01T07:27:21.000Z</time>
      </trkpt>
      <trkpt lat="47.20926" lon="6.6799">
        <ele>761</ele>
        <time>2018-07-01T07:27:22.000Z</time>
      </trkpt>
      <trkpt lat="47.20927" lon="6.67994">
        <ele>762</ele>
        <time>2018-07-01T07:27:23.000Z</time>
      </trkpt>
      <trkpt lat="47.20927" lon="6.67998">
        <ele>762</ele>
        <time>2018-07-01T07:27:24.000Z</time>
      </trkpt>
      <trkpt lat="47.20927" lon="6.68001">
        <ele>765</ele>
        <time>2018-07-01T07:27:25.000Z</time>
      </trkpt>
      <trkpt lat="47.20927" lon="6.68005">
        <ele>765</ele>
        <time>2018-07-01T07:27:26.000Z</time>
      </trkpt>
      <trkpt lat="47.20927" lon="6.68009">
        <ele>764</ele>
        <time>2018-07-01T07:27:27.000Z</time>
      </trkpt>
      <trkpt lat="47.20928" lon="6.68012">
        <ele>764</ele>
        <time>2018-07-01T07:27:28.000Z</time>
      </trkpt>
      <trkpt lat="47.20928" lon="6.68016">
        <ele>764</ele>
        <time>2018-07-01T07:27:29.000Z</time>
      </trkpt>
      <trkpt lat="47.20929" lon="6.6802">
        <ele>764</ele>
        <time>2018-07-01T07:27:30.000Z</time>
      </trkpt>
      <trkpt lat="47.20929" lon="6.68023">
        <ele>764</ele>
        <time>2018-07-01T07:27:31.000Z</time>
      </trkpt>
      <trkpt lat="47.20929" lon="6.68026">
        <ele>764</ele>
        <time>2018-07-01T07:27:32.000Z</time>
      </trkpt>
      <trkpt lat="47.20929" lon="6.68029">
        <ele>764</ele>
        <time>2018-07-01T07:27:33.000Z</time>
      </trkpt>
      <trkpt lat="47.20929" lon="6.68031">
        <ele>764</ele>
        <time>2018-07-01T07:27:34.000Z</time>
      </trkpt>
      <trkpt lat="47.20929" lon="6.68034">
        <ele>764</ele>
        <time>2018-07-01T07:27:35.000Z</time>
      </trkpt>
      <trkpt lat="47.2093" lon="6.68036">
        <ele>764</ele>
        <time>2018-07-01T07:27:36.000Z</time>
      </trkpt>
      <trkpt lat="47.2093" lon="6.6804">
        <ele>765</ele>
        <time>2018-07-01T07:27:37.000Z</time>
      </trkpt>
      <trkpt lat="47.2093" lon="6.68043">
        <ele>765</ele>
        <time>2018-07-01T07:27:38.000Z</time>
      </trkpt>
      <trkpt lat="47.2093" lon="6.68046">
        <ele>765</ele>
        <time>2018-07-01T07:27:39.000Z</time>
      </trkpt>
      <trkpt lat="47.2093" lon="6.68049">
        <ele>765</ele>
        <time>2018-07-01T07:27:40.000Z</time>
      </trkpt>
      <trkpt lat="47.2093" lon="6.68051">
        <ele>766</ele>
        <time>2018-07-01T07:27:41.000Z</time>
      </trkpt>
      <trkpt lat="47.2093" lon="6.68054">
        <ele>766</ele>
        <time>2018-07-01T07:27:42.000Z</time>
      </trkpt>
      <trkpt lat="47.2093" lon="6.68057">
        <ele>766</ele>
        <time>2018-07-01T07:27:43.000Z</time>
      </trkpt>
      <trkpt lat="47.2093" lon="6.68059">
        <ele>767</ele>
        <time>2018-07-01T07:27:44.000Z</time>
      </trkpt>
      <trkpt lat="47.20929" lon="6.68062">
        <ele>767</ele>
        <time>2018-07-01T07:27:45.000Z</time>
      </trkpt>
      <trkpt lat="47.20929" lon="6.68066">
        <ele>768</ele>
        <time>2018-07-01T07:27:46.000Z</time>
      </trkpt>
      <trkpt lat="47.20929" lon="6.68069">
        <ele>768</ele>
        <time>2018-07-01T07:27:47.000Z</time>
      </trkpt>
      <trkpt lat="47.20929" lon="6.68073">
        <ele>769</ele>
        <time>2018-07-01T07:27:48.000Z</time>
      </trkpt>
      <trkpt lat="47.20929" lon="6.68077">
        <ele>769</ele>
        <time>2018-07-01T07:27:49.000Z</time>
      </trkpt>
      <trkpt lat="47.20929" lon="6.68081">
        <ele>770</ele>
        <time>2018-07-01T07:27:50.000Z</time>
      </trkpt>
      <trkpt lat="47.20929" lon="6.68086">
        <ele>773</ele>
        <time>2018-07-01T07:27:51.000Z</time>
      </trkpt>
      <trkpt lat="47.20929" lon="6.68089">
        <ele>773</ele>
        <time>2018-07-01T07:27:52.000Z</time>
      </trkpt>
      <trkpt lat="47.20929" lon="6.68093">
        <ele>773</ele>
        <time>2018-07-01T07:27:53.000Z</time>
      </trkpt>
      <trkpt lat="47.20929" lon="6.68097">
        <ele>772</ele>
        <time>2018-07-01T07:27:54.000Z</time>
      </trkpt>
      <trkpt lat="47.20929" lon="6.68101">
        <ele>772</ele>
        <time>2018-07-01T07:27:55.000Z</time>
      </trkpt>
      <trkpt lat="47.20929" lon="6.68104">
        <ele>772</ele>
        <time>2018-07-01T07:27:56.000Z</time>
      </trkpt>
      <trkpt lat="47.20929" lon="6.68108">
        <ele>772</ele>
        <time>2018-07-01T07:27:57.000Z</time>
      </trkpt>
      <trkpt lat="47.20929" lon="6.68112">
        <ele>772</ele>
        <time>2018-07-01T07:27:58.000Z</time>
      </trkpt>
      <trkpt lat="47.2093" lon="6.68116">
        <ele>772</ele>
        <time>2018-07-01T07:27:59.000Z</time>
      </trkpt>
      <trkpt lat="47.2093" lon="6.6812">
        <ele>772</ele>
        <time>2018-07-01T07:28:00.000Z</time>
      </trkpt>
      <trkpt lat="47.2093" lon="6.68123">
        <ele>773</ele>
        <time>2018-07-01T07:28:01.000Z</time>
      </trkpt>
      <trkpt lat="47.2093" lon="6.68127">
        <ele>773</ele>
        <time>2018-07-01T07:28:02.000Z</time>
      </trkpt>
      <trkpt lat="47.20931" lon="6.68131">
        <ele>773</ele>
        <time>2018-07-01T07:28:03.000Z</time>
      </trkpt>
      <trkpt lat="47.20931" lon="6.68135">
        <ele>773</ele>
        <time>2018-07-01T07:28:04.000Z</time>
      </trkpt>
      <trkpt lat="47.20931" lon="6.68138">
        <ele>774</ele>
        <time>2018-07-01T07:28:05.000Z</time>
      </trkpt>
      <trkpt lat="47.20931" lon="6.68141">
        <ele>774</ele>
        <time>2018-07-01T07:28:06.000Z</time>
      </trkpt>
      <trkpt lat="47.20932" lon="6.68145">
        <ele>775</ele>
        <time>2018-07-01T07:28:07.000Z</time>
      </trkpt>
      <trkpt lat="47.20932" lon="6.68149">
        <ele>775</ele>
        <time>2018-07-01T07:28:08.000Z</time>
      </trkpt>
      <trkpt lat="47.20932" lon="6.68152">
        <ele>776</ele>
        <time>2018-07-01T07:28:09.000Z</time>
      </trkpt>
      <trkpt lat="47.20933" lon="6.68156">
        <ele>776</ele>
        <time>2018-07-01T07:28:10.000Z</time>
      </trkpt>
      <trkpt lat="47.20933" lon="6.6816">
        <ele>777</ele>
        <time>2018-07-01T07:28:11.000Z</time>
      </trkpt>
      <trkpt lat="47.20933" lon="6.68163">
        <ele>777</ele>
        <time>2018-07-01T07:28:12.000Z</time>
      </trkpt>
      <trkpt lat="47.20934" lon="6.68166">
        <ele>777</ele>
        <time>2018-07-01T07:28:13.000Z</time>
      </trkpt>
      <trkpt lat="47.20934" lon="6.6817">
        <ele>780</ele>
        <time>2018-07-01T07:28:14.000Z</time>
      </trkpt>
      <trkpt lat="47.20934" lon="6.68173">
        <ele>780</ele>
        <time>2018-07-01T07:28:15.000Z</time>
      </trkpt>
      <trkpt lat="47.20935" lon="6.68176">
        <ele>780</ele>
        <time>2018-07-01T07:28:16.000Z</time>
      </trkpt>
      <trkpt lat="47.20935" lon="6.68179">
        <ele>780</ele>
        <time>2018-07-01T07:28:17.000Z</time>
      </trkpt>
      <trkpt lat="47.20935" lon="6.68182">
        <ele>780</ele>
        <time>2018-07-01T07:28:18.000Z</time>
      </trkpt>
      <trkpt lat="47.20935" lon="6.68186">
        <ele>780</ele>
        <time>2018-07-01T07:28:19.000Z</time>
      </trkpt>
      <trkpt lat="47.20935" lon="6.68189">
        <ele>780</ele>
        <time>2018-07-01T07:28:20.000Z</time>
      </trkpt>
      <trkpt lat="47.20936" lon="6.68192">
        <ele>780</ele>
        <time>2018-07-01T07:28:21.000Z</time>
      </trkpt>
      <trkpt lat="47.20936" lon="6.68196">
        <ele>780</ele>
        <time>2018-07-01T07:28:22.000Z</time>
      </trkpt>
      <trkpt lat="47.20937" lon="6.68199">
        <ele>780</ele>
        <time>2018-07-01T07:28:23.000Z</time>
      </trkpt>
      <trkpt lat="47.20938" lon="6.68202">
        <ele>780</ele>
        <time>2018-07-01T07:28:24.000Z</time>
      </trkpt>
      <trkpt lat="47.20939" lon="6.68206">
        <ele>780</ele>
        <time>2018-07-01T07:28:25.000Z</time>
      </trkpt>
      <trkpt lat="47.20939" lon="6.68209">
        <ele>780</ele>
        <time>2018-07-01T07:28:26.000Z</time>
      </trkpt>
      <trkpt lat="47.2094" lon="6.68212">
        <ele>780</ele>
        <time>2018-07-01T07:28:27.000Z</time>
      </trkpt>
      <trkpt lat="47.2094" lon="6.68216">
        <ele>780</ele>
        <time>2018-07-01T07:28:28.000Z</time>
      </trkpt>
      <trkpt lat="47.20941" lon="6.68219">
        <ele>781</ele>
        <time>2018-07-01T07:28:29.000Z</time>
      </trkpt>
      <trkpt lat="47.20941" lon="6.68223">
        <ele>781</ele>
        <time>2018-07-01T07:28:30.000Z</time>
      </trkpt>
      <trkpt lat="47.20942" lon="6.68226">
        <ele>781</ele>
        <time>2018-07-01T07:28:31.000Z</time>
      </trkpt>
      <trkpt lat="47.20942" lon="6.68229">
        <ele>781</ele>
        <time>2018-07-01T07:28:32.000Z</time>
      </trkpt>
      <trkpt lat="47.20943" lon="6.68233">
        <ele>782</ele>
        <time>2018-07-01T07:28:33.000Z</time>
      </trkpt>
      <trkpt lat="47.20943" lon="6.68237">
        <ele>782</ele>
        <time>2018-07-01T07:28:34.000Z</time>
      </trkpt>
      <trkpt lat="47.20944" lon="6.68241">
        <ele>782</ele>
        <time>2018-07-01T07:28:35.000Z</time>
      </trkpt>
      <trkpt lat="47.20945" lon="6.68244">
        <ele>782</ele>
        <time>2018-07-01T07:28:36.000Z</time>
      </trkpt>
      <trkpt lat="47.20945" lon="6.68248">
        <ele>782</ele>
        <time>2018-07-01T07:28:37.000Z</time>
      </trkpt>
      <trkpt lat="47.20946" lon="6.68252">
        <ele>787</ele>
        <time>2018-07-01T07:28:38.000Z</time>
      </trkpt>
      <trkpt lat="47.20946" lon="6.68255">
        <ele>787</ele>
        <time>2018-07-01T07:28:39.000Z</time>
      </trkpt>
      <trkpt lat="47.20946" lon="6.68258">
        <ele>787</ele>
        <time>2018-07-01T07:28:40.000Z</time>
      </trkpt>
      <trkpt lat="47.20947" lon="6.68262">
        <ele>787</ele>
        <time>2018-07-01T07:28:41.000Z</time>
      </trkpt>
      <trkpt lat="47.20947" lon="6.68265">
        <ele>787</ele>
        <time>2018-07-01T07:28:42.000Z</time>
      </trkpt>
      <trkpt lat="47.20947" lon="6.68268">
        <ele>787</ele>
        <time>2018-07-01T07:28:43.000Z</time>
      </trkpt>
      <trkpt lat="47.20947" lon="6.68271">
        <ele>787</ele>
        <time>2018-07-01T07:28:44.000Z</time>
      </trkpt>
      <trkpt lat="47.20947" lon="6.68274">
        <ele>787</ele>
        <time>2018-07-01T07:28:45.000Z</time>
      </trkpt>
      <trkpt lat="47.20947" lon="6.68277">
        <ele>787</ele>
        <time>2018-07-01T07:28:46.000Z</time>
      </trkpt>
      <trkpt lat="47.20948" lon="6.6828">
        <ele>787</ele>
        <time>2018-07-01T07:28:47.000Z</time>
      </trkpt>
      <trkpt lat="47.20948" lon="6.68283">
        <ele>787</ele>
        <time>2018-07-01T07:28:48.000Z</time>
      </trkpt>
      <trkpt lat="47.20948" lon="6.68285">
        <ele>787</ele>
        <time>2018-07-01T07:28:49.000Z</time>
      </trkpt>
      <trkpt lat="47.20948" lon="6.68288">
        <ele>787</ele>
        <time>2018-07-01T07:28:50.000Z</time>
      </trkpt>
      <trkpt lat="47.20948" lon="6.6829">
        <ele>787</ele>
        <time>2018-07-01T07:28:51.000Z</time>
      </trkpt>
      <trkpt lat="47.20948" lon="6.68293">
        <ele>787</ele>
        <time>2018-07-01T07:28:52.000Z</time>
      </trkpt>
      <trkpt lat="47.20948" lon="6.68295">
        <ele>787</ele>
        <time>2018-07-01T07:28:53.000Z</time>
      </trkpt>
      <trkpt lat="47.20948" lon="6.68298">
        <ele>788</ele>
        <time>2018-07-01T07:28:54.000Z</time>
      </trkpt>
      <trkpt lat="47.20948" lon="6.683">
        <ele>788</ele>
        <time>2018-07-01T07:28:55.000Z</time>
      </trkpt>
      <trkpt lat="47.20947" lon="6.68302">
        <ele>788</ele>
        <time>2018-07-01T07:28:56.000Z</time>
      </trkpt>
      <trkpt lat="47.20947" lon="6.68304">
        <ele>788</ele>
        <time>2018-07-01T07:28:57.000Z</time>
      </trkpt>
      <trkpt lat="47.20946" lon="6.68307">
        <ele>789</ele>
        <time>2018-07-01T07:28:58.000Z</time>
      </trkpt>
      <trkpt lat="47.20946" lon="6.68309">
        <ele>789</ele>
        <time>2018-07-01T07:28:59.000Z</time>
      </trkpt>
      <trkpt lat="47.20946" lon="6.68311">
        <ele>789</ele>
        <time>2018-07-01T07:29:00.000Z</time>
      </trkpt>
      <trkpt lat="47.20946" lon="6.68313">
        <ele>789</ele>
        <time>2018-07-01T07:29:01.000Z</time>
      </trkpt>
      <trkpt lat="47.20946" lon="6.68315">
        <ele>790</ele>
        <time>2018-07-01T07:29:02.000Z</time>
      </trkpt>
      <trkpt lat="47.20946" lon="6.68318">
        <ele>790</ele>
        <time>2018-07-01T07:29:03.000Z</time>
      </trkpt>
      <trkpt lat="47.20946" lon="6.68321">
        <ele>790</ele>
        <time>2018-07-01T07:29:04.000Z</time>
      </trkpt>
      <trkpt lat="47.20946" lon="6.68324">
        <ele>790</ele>
        <time>2018-07-01T07:29:05.000Z</time>
      </trkpt>
      <trkpt lat="47.20947" lon="6.68327">
        <ele>790</ele>
        <time>2018-07-01T07:29:06.000Z</time>
      </trkpt>
      <trkpt lat="47.20947" lon="6.6833">
        <ele>790</ele>
        <time>2018-07-01T07:29:07.000Z</time>
      </trkpt>
      <trkpt lat="47.20947" lon="6.68334">
        <ele>794</ele>
        <time>2018-07-01T07:29:08.000Z</time>
      </trkpt>
      <trkpt lat="47.20948" lon="6.68337">
        <ele>794</ele>
        <time>2018-07-01T07:29:09.000Z</time>
      </trkpt>
      <trkpt lat="47.20948" lon="6.6834">
        <ele>794</ele>
        <time>2018-07-01T07:29:10.000Z</time>
      </trkpt>
      <trkpt lat="47.20949" lon="6.68343">
        <ele>794</ele>
        <time>2018-07-01T07:29:11.000Z</time>
      </trkpt>
      <trkpt lat="47.20949" lon="6.68346">
        <ele>794</ele>
        <time>2018-07-01T07:29:12.000Z</time>
      </trkpt>
      <trkpt lat="47.2095" lon="6.68349">
        <ele>794</ele>
        <time>2018-07-01T07:29:13.000Z</time>
      </trkpt>
      <trkpt lat="47.20951" lon="6.68351">
        <ele>794</ele>
        <time>2018-07-01T07:29:14.000Z</time>
      </trkpt>
      <trkpt lat="47.20951" lon="6.68353">
        <ele>793</ele>
        <time>2018-07-01T07:29:15.000Z</time>
      </trkpt>
      <trkpt lat="47.20952" lon="6.68356">
        <ele>793</ele>
        <time>2018-07-01T07:29:16.000Z</time>
      </trkpt>
      <trkpt lat="47.20953" lon="6.68358">
        <ele>793</ele>
        <time>2018-07-01T07:29:17.000Z</time>
      </trkpt>
      <trkpt lat="47.20953" lon="6.68361">
        <ele>793</ele>
        <time>2018-07-01T07:29:18.000Z</time>
      </trkpt>
      <trkpt lat="47.20954" lon="6.68363">
        <ele>793</ele>
        <time>2018-07-01T07:29:19.000Z</time>
      </trkpt>
      <trkpt lat="47.20954" lon="6.68365">
        <ele>793</ele>
        <time>2018-07-01T07:29:20.000Z</time>
      </trkpt>
      <trkpt lat="47.20954" lon="6.68369">
        <ele>793</ele>
        <time>2018-07-01T07:29:21.000Z</time>
      </trkpt>
      <trkpt lat="47.20955" lon="6.68372">
        <ele>793</ele>
        <time>2018-07-01T07:29:22.000Z</time>
      </trkpt>
      <trkpt lat="47.20955" lon="6.68376">
        <ele>793</ele>
        <time>2018-07-01T07:29:23.000Z</time>
      </trkpt>
      <trkpt lat="47.20955" lon="6.6838">
        <ele>793</ele>
        <time>2018-07-01T07:29:24.000Z</time>
      </trkpt>
      <trkpt lat="47.20956" lon="6.68384">
        <ele>793</ele>
        <time>2018-07-01T07:29:25.000Z</time>
      </trkpt>
      <trkpt lat="47.20956" lon="6.68388">
        <ele>794</ele>
        <time>2018-07-01T07:29:26.000Z</time>
      </trkpt>
      <trkpt lat="47.20956" lon="6.68392">
        <ele>794</ele>
        <time>2018-07-01T07:29:27.000Z</time>
      </trkpt>
      <trkpt lat="47.20957" lon="6.68396">
        <ele>794</ele>
        <time>2018-07-01T07:29:28.000Z</time>
      </trkpt>
      <trkpt lat="47.20958" lon="6.684">
        <ele>794</ele>
        <time>2018-07-01T07:29:29.000Z</time>
      </trkpt>
      <trkpt lat="47.20959" lon="6.68404">
        <ele>793</ele>
        <time>2018-07-01T07:29:30.000Z</time>
      </trkpt>
      <trkpt lat="47.2096" lon="6.68408">
        <ele>793</ele>
        <time>2018-07-01T07:29:31.000Z</time>
      </trkpt>
      <trkpt lat="47.2096" lon="6.68412">
        <ele>793</ele>
        <time>2018-07-01T07:29:32.000Z</time>
      </trkpt>
      <trkpt lat="47.20961" lon="6.68415">
        <ele>793</ele>
        <time>2018-07-01T07:29:33.000Z</time>
      </trkpt>
      <trkpt lat="47.20962" lon="6.68419">
        <ele>797</ele>
        <time>2018-07-01T07:29:34.000Z</time>
      </trkpt>
      <trkpt lat="47.20963" lon="6.68423">
        <ele>797</ele>
        <time>2018-07-01T07:29:35.000Z</time>
      </trkpt>
      <trkpt lat="47.20964" lon="6.68428">
        <ele>796</ele>
        <time>2018-07-01T07:29:36.000Z</time>
      </trkpt>
      <trkpt lat="47.20965" lon="6.68432">
        <ele>796</ele>
        <time>2018-07-01T07:29:37.000Z</time>
      </trkpt>
      <trkpt lat="47.20966" lon="6.68437">
        <ele>796</ele>
        <time>2018-07-01T07:29:38.000Z</time>
      </trkpt>
      <trkpt lat="47.20967" lon="6.68441">
        <ele>796</ele>
        <time>2018-07-01T07:29:39.000Z</time>
      </trkpt>
      <trkpt lat="47.20969" lon="6.68446">
        <ele>796</ele>
        <time>2018-07-01T07:29:40.000Z</time>
      </trkpt>
      <trkpt lat="47.2097" lon="6.6845">
        <ele>796</ele>
        <time>2018-07-01T07:29:41.000Z</time>
      </trkpt>
      <trkpt lat="47.20971" lon="6.68454">
        <ele>796</ele>
        <time>2018-07-01T07:29:42.000Z</time>
      </trkpt>
      <trkpt lat="47.20972" lon="6.68458">
        <ele>796</ele>
        <time>2018-07-01T07:29:43.000Z</time>
      </trkpt>
      <trkpt lat="47.20973" lon="6.68461">
        <ele>796</ele>
        <time>2018-07-01T07:29:44.000Z</time>
      </trkpt>
      <trkpt lat="47.20974" lon="6.68465">
        <ele>797</ele>
        <time>2018-07-01T07:29:45.000Z</time>
      </trkpt>
      <trkpt lat="47.20974" lon="6.68468">
        <ele>797</ele>
        <time>2018-07-01T07:29:46.000Z</time>
      </trkpt>
      <trkpt lat="47.20975" lon="6.68472">
        <ele>796</ele>
        <time>2018-07-01T07:29:47.000Z</time>
      </trkpt>
      <trkpt lat="47.20975" lon="6.68476">
        <ele>796</ele>
        <time>2018-07-01T07:29:48.000Z</time>
      </trkpt>
      <trkpt lat="47.20976" lon="6.6848">
        <ele>796</ele>
        <time>2018-07-01T07:29:49.000Z</time>
      </trkpt>
      <trkpt lat="47.20976" lon="6.68483">
        <ele>796</ele>
        <time>2018-07-01T07:29:50.000Z</time>
      </trkpt>
      <trkpt lat="47.20977" lon="6.68487">
        <ele>796</ele>
        <time>2018-07-01T07:29:51.000Z</time>
      </trkpt>
      <trkpt lat="47.20977" lon="6.68491">
        <ele>795</ele>
        <time>2018-07-01T07:29:52.000Z</time>
      </trkpt>
      <trkpt lat="47.20978" lon="6.68494">
        <ele>795</ele>
        <time>2018-07-01T07:29:53.000Z</time>
      </trkpt>
      <trkpt lat="47.20979" lon="6.68498">
        <ele>795</ele>
        <time>2018-07-01T07:29:54.000Z</time>
      </trkpt>
      <trkpt lat="47.20979" lon="6.68501">
        <ele>799</ele>
        <time>2018-07-01T07:29:55.000Z</time>
      </trkpt>
      <trkpt lat="47.2098" lon="6.68504">
        <ele>799</ele>
        <time>2018-07-01T07:29:56.000Z</time>
      </trkpt>
      <trkpt lat="47.20981" lon="6.68508">
        <ele>799</ele>
        <time>2018-07-01T07:29:57.000Z</time>
      </trkpt>
      <trkpt lat="47.20982" lon="6.68511">
        <ele>799</ele>
        <time>2018-07-01T07:29:58.000Z</time>
      </trkpt>
      <trkpt lat="47.20983" lon="6.68514">
        <ele>800</ele>
        <time>2018-07-01T07:29:59.000Z</time>
      </trkpt>
      <trkpt lat="47.20983" lon="6.68517">
        <ele>800</ele>
        <time>2018-07-01T07:30:00.000Z</time>
      </trkpt>
      <trkpt lat="47.20984" lon="6.6852">
        <ele>801</ele>
        <time>2018-07-01T07:30:01.000Z</time>
      </trkpt>
      <trkpt lat="47.20984" lon="6.68524">
        <ele>801</ele>
        <time>2018-07-01T07:30:02.000Z</time>
      </trkpt>
      <trkpt lat="47.20985" lon="6.68527">
        <ele>802</ele>
        <time>2018-07-01T07:30:03.000Z</time>
      </trkpt>
      <trkpt lat="47.20985" lon="6.6853">
        <ele>802</ele>
        <time>2018-07-01T07:30:04.000Z</time>
      </trkpt>
      <trkpt lat="47.20986" lon="6.68534">
        <ele>803</ele>
        <time>2018-07-01T07:30:05.000Z</time>
      </trkpt>
      <trkpt lat="47.20987" lon="6.68537">
        <ele>803</ele>
        <time>2018-07-01T07:30:06.000Z</time>
      </trkpt>
      <trkpt lat="47.20987" lon="6.68541">
        <ele>804</ele>
        <time>2018-07-01T07:30:07.000Z</time>
      </trkpt>
      <trkpt lat="47.20988" lon="6.68544">
        <ele>804</ele>
        <time>2018-07-01T07:30:08.000Z</time>
      </trkpt>
      <trkpt lat="47.20989" lon="6.68548">
        <ele>804</ele>
        <time>2018-07-01T07:30:09.000Z</time>
      </trkpt>
      <trkpt lat="47.2099" lon="6.68552">
        <ele>804</ele>
        <time>2018-07-01T07:30:10.000Z</time>
      </trkpt>
      <trkpt lat="47.20991" lon="6.68556">
        <ele>804</ele>
        <time>2018-07-01T07:30:11.000Z</time>
      </trkpt>
      <trkpt lat="47.20992" lon="6.68559">
        <ele>804</ele>
        <time>2018-07-01T07:30:12.000Z</time>
      </trkpt>
      <trkpt lat="47.20993" lon="6.68563">
        <ele>804</ele>
        <time>2018-07-01T07:30:13.000Z</time>
      </trkpt>
      <trkpt lat="47.20993" lon="6.68568">
        <ele>804</ele>
        <time>2018-07-01T07:30:14.000Z</time>
      </trkpt>
      <trkpt lat="47.20994" lon="6.68572">
        <ele>804</ele>
        <time>2018-07-01T07:30:15.000Z</time>
      </trkpt>
      <trkpt lat="47.20995" lon="6.68576">
        <ele>803</ele>
        <time>2018-07-01T07:30:16.000Z</time>
      </trkpt>
      <trkpt lat="47.20995" lon="6.68581">
        <ele>802</ele>
        <time>2018-07-01T07:30:17.000Z</time>
      </trkpt>
      <trkpt lat="47.20996" lon="6.68585">
        <ele>803</ele>
        <time>2018-07-01T07:30:18.000Z</time>
      </trkpt>
      <trkpt lat="47.20996" lon="6.6859">
        <ele>805</ele>
        <time>2018-07-01T07:30:19.000Z</time>
      </trkpt>
      <trkpt lat="47.20997" lon="6.68594">
        <ele>806</ele>
        <time>2018-07-01T07:30:20.000Z</time>
      </trkpt>
      <trkpt lat="47.20997" lon="6.68597">
        <ele>807</ele>
        <time>2018-07-01T07:30:21.000Z</time>
      </trkpt>
      <trkpt lat="47.20997" lon="6.68601">
        <ele>808</ele>
        <time>2018-07-01T07:30:22.000Z</time>
      </trkpt>
      <trkpt lat="47.20998" lon="6.68604">
        <ele>809</ele>
        <time>2018-07-01T07:30:23.000Z</time>
      </trkpt>
      <trkpt lat="47.20998" lon="6.68607">
        <ele>809</ele>
        <time>2018-07-01T07:30:24.000Z</time>
      </trkpt>
      <trkpt lat="47.20997" lon="6.68611">
        <ele>810</ele>
        <time>2018-07-01T07:30:25.000Z</time>
      </trkpt>
      <trkpt lat="47.20997" lon="6.68615">
        <ele>810</ele>
        <time>2018-07-01T07:30:26.000Z</time>
      </trkpt>
      <trkpt lat="47.20997" lon="6.68618">
        <ele>811</ele>
        <time>2018-07-01T07:30:27.000Z</time>
      </trkpt>
      <trkpt lat="47.20997" lon="6.68622">
        <ele>811</ele>
        <time>2018-07-01T07:30:28.000Z</time>
      </trkpt>
      <trkpt lat="47.20997" lon="6.68625">
        <ele>811</ele>
        <time>2018-07-01T07:30:29.000Z</time>
      </trkpt>
      <trkpt lat="47.20996" lon="6.68628">
        <ele>811</ele>
        <time>2018-07-01T07:30:30.000Z</time>
      </trkpt>
      <trkpt lat="47.20996" lon="6.68631">
        <ele>812</ele>
        <time>2018-07-01T07:30:31.000Z</time>
      </trkpt>
      <trkpt lat="47.20996" lon="6.68635">
        <ele>812</ele>
        <time>2018-07-01T07:30:32.000Z</time>
      </trkpt>
      <trkpt lat="47.20996" lon="6.68638">
        <ele>812</ele>
        <time>2018-07-01T07:30:33.000Z</time>
      </trkpt>
      <trkpt lat="47.20996" lon="6.68641">
        <ele>812</ele>
        <time>2018-07-01T07:30:34.000Z</time>
      </trkpt>
      <trkpt lat="47.20996" lon="6.68644">
        <ele>812</ele>
        <time>2018-07-01T07:30:35.000Z</time>
      </trkpt>
      <trkpt lat="47.20996" lon="6.68646">
        <ele>811</ele>
        <time>2018-07-01T07:30:36.000Z</time>
      </trkpt>
      <trkpt lat="47.20996" lon="6.68649">
        <ele>811</ele>
        <time>2018-07-01T07:30:37.000Z</time>
      </trkpt>
      <trkpt lat="47.20996" lon="6.68651">
        <ele>811</ele>
        <time>2018-07-01T07:30:38.000Z</time>
      </trkpt>
      <trkpt lat="47.20996" lon="6.68654">
        <ele>811</ele>
        <time>2018-07-01T07:30:39.000Z</time>
      </trkpt>
      <trkpt lat="47.20995" lon="6.68657">
        <ele>810</ele>
        <time>2018-07-01T07:30:40.000Z</time>
      </trkpt>
      <trkpt lat="47.20995" lon="6.6866">
        <ele>810</ele>
        <time>2018-07-01T07:30:41.000Z</time>
      </trkpt>
      <trkpt lat="47.20995" lon="6.68664">
        <ele>810</ele>
        <time>2018-07-01T07:30:42.000Z</time>
      </trkpt>
      <trkpt lat="47.20995" lon="6.68667">
        <ele>810</ele>
        <time>2018-07-01T07:30:43.000Z</time>
      </trkpt>
      <trkpt lat="47.20995" lon="6.6867">
        <ele>810</ele>
        <time>2018-07-01T07:30:44.000Z</time>
      </trkpt>
      <trkpt lat="47.20994" lon="6.68673">
        <ele>811</ele>
        <time>2018-07-01T07:30:45.000Z</time>
      </trkpt>
      <trkpt lat="47.20994" lon="6.68676">
        <ele>811</ele>
        <time>2018-07-01T07:30:46.000Z</time>
      </trkpt>
      <trkpt lat="47.20994" lon="6.68679">
        <ele>812</ele>
        <time>2018-07-01T07:30:47.000Z</time>
      </trkpt>
      <trkpt lat="47.20993" lon="6.68682">
        <ele>813</ele>
        <time>2018-07-01T07:30:48.000Z</time>
      </trkpt>
      <trkpt lat="47.20993" lon="6.68685">
        <ele>813</ele>
        <time>2018-07-01T07:30:49.000Z</time>
      </trkpt>
      <trkpt lat="47.20992" lon="6.68687">
        <ele>813</ele>
        <time>2018-07-01T07:30:50.000Z</time>
      </trkpt>
      <trkpt lat="47.20992" lon="6.6869">
        <ele>814</ele>
        <time>2018-07-01T07:30:51.000Z</time>
      </trkpt>
      <trkpt lat="47.20992" lon="6.68692">
        <ele>814</ele>
        <time>2018-07-01T07:30:52.000Z</time>
      </trkpt>
      <trkpt lat="47.20991" lon="6.68694">
        <ele>814</ele>
        <time>2018-07-01T07:30:53.000Z</time>
      </trkpt>
      <trkpt lat="47.2099" lon="6.68696">
        <ele>814</ele>
        <time>2018-07-01T07:30:54.000Z</time>
      </trkpt>
      <trkpt lat="47.20989" lon="6.68698">
        <ele>814</ele>
        <time>2018-07-01T07:30:55.000Z</time>
      </trkpt>
      <trkpt lat="47.20988" lon="6.687">
        <ele>814</ele>
        <time>2018-07-01T07:30:56.000Z</time>
      </trkpt>
      <trkpt lat="47.20987" lon="6.68702">
        <ele>815</ele>
        <time>2018-07-01T07:30:57.000Z</time>
      </trkpt>
      <trkpt lat="47.20986" lon="6.68704">
        <ele>815</ele>
        <time>2018-07-01T07:30:58.000Z</time>
      </trkpt>
      <trkpt lat="47.20985" lon="6.68706">
        <ele>815</ele>
        <time>2018-07-01T07:30:59.000Z</time>
      </trkpt>
      <trkpt lat="47.20984" lon="6.68708">
        <ele>815</ele>
        <time>2018-07-01T07:31:00.000Z</time>
      </trkpt>
      <trkpt lat="47.20984" lon="6.68709">
        <ele>815</ele>
        <time>2018-07-01T07:31:01.000Z</time>
      </trkpt>
      <trkpt lat="47.20983" lon="6.68711">
        <ele>815</ele>
        <time>2018-07-01T07:31:02.000Z</time>
      </trkpt>
      <trkpt lat="47.20983" lon="6.68713">
        <ele>815</ele>
        <time>2018-07-01T07:31:03.000Z</time>
      </trkpt>
      <trkpt lat="47.20983" lon="6.68714">
        <ele>815</ele>
        <time>2018-07-01T07:31:04.000Z</time>
      </trkpt>
      <trkpt lat="47.20982" lon="6.68716">
        <ele>815</ele>
        <time>2018-07-01T07:31:05.000Z</time>
      </trkpt>
      <trkpt lat="47.20981" lon="6.68717">
        <ele>815</ele>
        <time>2018-07-01T07:31:06.000Z</time>
      </trkpt>
      <trkpt lat="47.20981" lon="6.68719">
        <ele>815</ele>
        <time>2018-07-01T07:31:07.000Z</time>
      </trkpt>
      <trkpt lat="47.2098" lon="6.68721">
        <ele>815</ele>
        <time>2018-07-01T07:31:08.000Z</time>
      </trkpt>
      <trkpt lat="47.2098" lon="6.68722">
        <ele>815</ele>
        <time>2018-07-01T07:31:09.000Z</time>
      </trkpt>
      <trkpt lat="47.20979" lon="6.68724">
        <ele>815</ele>
        <time>2018-07-01T07:31:10.000Z</time>
      </trkpt>
      <trkpt lat="47.20978" lon="6.68725">
        <ele>815</ele>
        <time>2018-07-01T07:31:11.000Z</time>
      </trkpt>
      <trkpt lat="47.20977" lon="6.68727">
        <ele>815</ele>
        <time>2018-07-01T07:31:12.000Z</time>
      </trkpt>
      <trkpt lat="47.20976" lon="6.68728">
        <ele>815</ele>
        <time>2018-07-01T07:31:13.000Z</time>
      </trkpt>
      <trkpt lat="47.20976" lon="6.68729">
        <ele>815</ele>
        <time>2018-07-01T07:31:14.000Z</time>
      </trkpt>
      <trkpt lat="47.20975" lon="6.6873">
        <ele>815</ele>
        <time>2018-07-01T07:31:15.000Z</time>
      </trkpt>
      <trkpt lat="47.20974" lon="6.68732">
        <ele>815</ele>
        <time>2018-07-01T07:31:16.000Z</time>
      </trkpt>
      <trkpt lat="47.20973" lon="6.68733">
        <ele>815</ele>
        <time>2018-07-01T07:31:17.000Z</time>
      </trkpt>
      <trkpt lat="47.20972" lon="6.68735">
        <ele>815</ele>
        <time>2018-07-01T07:31:18.000Z</time>
      </trkpt>
      <trkpt lat="47.20972" lon="6.68737">
        <ele>815</ele>
        <time>2018-07-01T07:31:19.000Z</time>
      </trkpt>
      <trkpt lat="47.20972" lon="6.68739">
        <ele>815</ele>
        <time>2018-07-01T07:31:20.000Z</time>
      </trkpt>
      <trkpt lat="47.20972" lon="6.6874">
        <ele>815</ele>
        <time>2018-07-01T07:31:21.000Z</time>
      </trkpt>
      <trkpt lat="47.20972" lon="6.68742">
        <ele>815</ele>
        <time>2018-07-01T07:31:22.000Z</time>
      </trkpt>
      <trkpt lat="47.20972" lon="6.68743">
        <ele>815</ele>
        <time>2018-07-01T07:31:23.000Z</time>
      </trkpt>
      <trkpt lat="47.20972" lon="6.68745">
        <ele>815</ele>
        <time>2018-07-01T07:31:24.000Z</time>
      </trkpt>
      <trkpt lat="47.20971" lon="6.68746">
        <ele>815</ele>
        <time>2018-07-01T07:31:25.000Z</time>
      </trkpt>
      <trkpt lat="47.20971" lon="6.68747">
        <ele>815</ele>
        <time>2018-07-01T07:31:26.000Z</time>
      </trkpt>
      <trkpt lat="47.20971" lon="6.68749">
        <ele>815</ele>
        <time>2018-07-01T07:31:27.000Z</time>
      </trkpt>
      <trkpt lat="47.20971" lon="6.6875">
        <ele>815</ele>
        <time>2018-07-01T07:31:28.000Z</time>
      </trkpt>
      <trkpt lat="47.2097" lon="6.68751">
        <ele>817</ele>
        <time>2018-07-01T07:31:29.000Z</time>
      </trkpt>
      <trkpt lat="47.2097" lon="6.68752">
        <ele>817</ele>
        <time>2018-07-01T07:31:30.000Z</time>
      </trkpt>
      <trkpt lat="47.2097" lon="6.68754">
        <ele>817</ele>
        <time>2018-07-01T07:31:31.000Z</time>
      </trkpt>
      <trkpt lat="47.20969" lon="6.68755">
        <ele>818</ele>
        <time>2018-07-01T07:31:32.000Z</time>
      </trkpt>
      <trkpt lat="47.20969" lon="6.68757">
        <ele>818</ele>
        <time>2018-07-01T07:31:33.000Z</time>
      </trkpt>
      <trkpt lat="47.20968" lon="6.68758">
        <ele>818</ele>
        <time>2018-07-01T07:31:34.000Z</time>
      </trkpt>
      <trkpt lat="47.20968" lon="6.68759">
        <ele>818</ele>
        <time>2018-07-01T07:31:35.000Z</time>
      </trkpt>
      <trkpt lat="47.20967" lon="6.68761">
        <ele>818</ele>
        <time>2018-07-01T07:31:36.000Z</time>
      </trkpt>
      <trkpt lat="47.20967" lon="6.68762">
        <ele>819</ele>
        <time>2018-07-01T07:31:37.000Z</time>
      </trkpt>
      <trkpt lat="47.20967" lon="6.68764">
        <ele>819</ele>
        <time>2018-07-01T07:31:38.000Z</time>
      </trkpt>
      <trkpt lat="47.20966" lon="6.68765">
        <ele>819</ele>
        <time>2018-07-01T07:31:39.000Z</time>
      </trkpt>
      <trkpt lat="47.20966" lon="6.68767">
        <ele>819</ele>
        <time>2018-07-01T07:31:40.000Z</time>
      </trkpt>
      <trkpt lat="47.20965" lon="6.68769">
        <ele>819</ele>
        <time>2018-07-01T07:31:41.000Z</time>
      </trkpt>
      <trkpt lat="47.20964" lon="6.6877">
        <ele>820</ele>
        <time>2018-07-01T07:31:42.000Z</time>
      </trkpt>
      <trkpt lat="47.20964" lon="6.68772">
        <ele>820</ele>
        <time>2018-07-01T07:31:43.000Z</time>
      </trkpt>
      <trkpt lat="47.20963" lon="6.68773">
        <ele>820</ele>
        <time>2018-07-01T07:31:44.000Z</time>
      </trkpt>
      <trkpt lat="47.20963" lon="6.68775">
        <ele>820</ele>
        <time>2018-07-01T07:31:45.000Z</time>
      </trkpt>
      <trkpt lat="47.20962" lon="6.68777">
        <ele>820</ele>
        <time>2018-07-01T07:31:46.000Z</time>
      </trkpt>
      <trkpt lat="47.20962" lon="6.68779">
        <ele>820</ele>
        <time>2018-07-01T07:31:47.000Z</time>
      </trkpt>
      <trkpt lat="47.20962" lon="6.6878">
        <ele>820</ele>
        <time>2018-07-01T07:31:48.000Z</time>
      </trkpt>
      <trkpt lat="47.20962" lon="6.68782">
        <ele>821</ele>
        <time>2018-07-01T07:31:49.000Z</time>
      </trkpt>
      <trkpt lat="47.20962" lon="6.68784">
        <ele>821</ele>
        <time>2018-07-01T07:31:50.000Z</time>
      </trkpt>
      <trkpt lat="47.20961" lon="6.68786">
        <ele>821</ele>
        <time>2018-07-01T07:31:51.000Z</time>
      </trkpt>
      <trkpt lat="47.20962" lon="6.68788">
        <ele>821</ele>
        <time>2018-07-01T07:31:52.000Z</time>
      </trkpt>
      <trkpt lat="47.20962" lon="6.68789">
        <ele>821</ele>
        <time>2018-07-01T07:31:53.000Z</time>
      </trkpt>
      <trkpt lat="47.20962" lon="6.6879">
        <ele>821</ele>
        <time>2018-07-01T07:31:54.000Z</time>
      </trkpt>
      <trkpt lat="47.20962" lon="6.68792">
        <ele>821</ele>
        <time>2018-07-01T07:31:55.000Z</time>
      </trkpt>
      <trkpt lat="47.20961" lon="6.68793">
        <ele>821</ele>
        <time>2018-07-01T07:31:56.000Z</time>
      </trkpt>
      <trkpt lat="47.20961" lon="6.68794">
        <ele>821</ele>
        <time>2018-07-01T07:31:57.000Z</time>
      </trkpt>
      <trkpt lat="47.20961" lon="6.68795">
        <ele>821</ele>
        <time>2018-07-01T07:31:58.000Z</time>
      </trkpt>
      <trkpt lat="47.20961" lon="6.68797">
        <ele>821</ele>
        <time>2018-07-01T07:31:59.000Z</time>
      </trkpt>
      <trkpt lat="47.20962" lon="6.68798">
        <ele>821</ele>
        <time>2018-07-01T07:32:00.000Z</time>
      </trkpt>
      <trkpt lat="47.20962" lon="6.688">
        <ele>821</ele>
        <time>2018-07-01T07:32:01.000Z</time>
      </trkpt>
      <trkpt lat="47.20962" lon="6.68801">
        <ele>821</ele>
        <time>2018-07-01T07:32:02.000Z</time>
      </trkpt>
      <trkpt lat="47.20961" lon="6.68803">
        <ele>821</ele>
        <time>2018-07-01T07:32:03.000Z</time>
      </trkpt>
      <trkpt lat="47.20961" lon="6.68805">
        <ele>821</ele>
        <time>2018-07-01T07:32:04.000Z</time>
      </trkpt>
      <trkpt lat="47.2096" lon="6.68806">
        <ele>822</ele>
        <time>2018-07-01T07:32:05.000Z</time>
      </trkpt>
      <trkpt lat="47.20959" lon="6.68808">
        <ele>822</ele>
        <time>2018-07-01T07:32:06.000Z</time>
      </trkpt>
      <trkpt lat="47.20958" lon="6.68809">
        <ele>822</ele>
        <time>2018-07-01T07:32:07.000Z</time>
      </trkpt>
      <trkpt lat="47.20958" lon="6.68812">
        <ele>822</ele>
        <time>2018-07-01T07:32:08.000Z</time>
      </trkpt>
      <trkpt lat="47.20957" lon="6.68814">
        <ele>823</ele>
        <time>2018-07-01T07:32:09.000Z</time>
      </trkpt>
      <trkpt lat="47.20956" lon="6.68816">
        <ele>823</ele>
        <time>2018-07-01T07:32:10.000Z</time>
      </trkpt>
      <trkpt lat="47.20955" lon="6.68819">
        <ele>823</ele>
        <time>2018-07-01T07:32:11.000Z</time>
      </trkpt>
      <trkpt lat="47.20954" lon="6.68821">
        <ele>824</ele>
        <time>2018-07-01T07:32:12.000Z</time>
      </trkpt>
      <trkpt lat="47.20953" lon="6.68824">
        <ele>824</ele>
        <time>2018-07-01T07:32:13.000Z</time>
      </trkpt>
      <trkpt lat="47.20952" lon="6.68826">
        <ele>825</ele>
        <time>2018-07-01T07:32:14.000Z</time>
      </trkpt>
      <trkpt lat="47.20951" lon="6.68828">
        <ele>825</ele>
        <time>2018-07-01T07:32:15.000Z</time>
      </trkpt>
      <trkpt lat="47.20949" lon="6.6883">
        <ele>825</ele>
        <time>2018-07-01T07:32:16.000Z</time>
      </trkpt>
      <trkpt lat="47.20948" lon="6.68832">
        <ele>826</ele>
        <time>2018-07-01T07:32:17.000Z</time>
      </trkpt>
      <trkpt lat="47.20947" lon="6.68834">
        <ele>828</ele>
        <time>2018-07-01T07:32:18.000Z</time>
      </trkpt>
      <trkpt lat="47.20946" lon="6.68835">
        <ele>829</ele>
        <time>2018-07-01T07:32:19.000Z</time>
      </trkpt>
      <trkpt lat="47.20945" lon="6.68836">
        <ele>829</ele>
        <time>2018-07-01T07:32:20.000Z</time>
      </trkpt>
      <trkpt lat="47.20944" lon="6.68837">
        <ele>829</ele>
        <time>2018-07-01T07:32:21.000Z</time>
      </trkpt>
      <trkpt lat="47.20943" lon="6.68839">
        <ele>830</ele>
        <time>2018-07-01T07:32:22.000Z</time>
      </trkpt>
      <trkpt lat="47.20943" lon="6.6884">
        <ele>830</ele>
        <time>2018-07-01T07:32:23.000Z</time>
      </trkpt>
      <trkpt lat="47.20942" lon="6.68841">
        <ele>830</ele>
        <time>2018-07-01T07:32:24.000Z</time>
      </trkpt>
      <trkpt lat="47.20941" lon="6.68843">
        <ele>830</ele>
        <time>2018-07-01T07:32:25.000Z</time>
      </trkpt>
      <trkpt lat="47.20941" lon="6.68844">
        <ele>830</ele>
        <time>2018-07-01T07:32:26.000Z</time>
      </trkpt>
      <trkpt lat="47.2094" lon="6.68847">
        <ele>830</ele>
        <time>2018-07-01T07:32:27.000Z</time>
      </trkpt>
      <trkpt lat="47.2094" lon="6.68849">
        <ele>830</ele>
        <time>2018-07-01T07:32:28.000Z</time>
      </trkpt>
      <trkpt lat="47.2094" lon="6.68851">
        <ele>830</ele>
        <time>2018-07-01T07:32:29.000Z</time>
      </trkpt>
      <trkpt lat="47.2094" lon="6.68854">
        <ele>830</ele>
        <time>2018-07-01T07:32:30.000Z</time>
      </trkpt>
      <trkpt lat="47.20939" lon="6.68857">
        <ele>830</ele>
        <time>2018-07-01T07:32:31.000Z</time>
      </trkpt>
      <trkpt lat="47.20939" lon="6.68859">
        <ele>830</ele>
        <time>2018-07-01T07:32:32.000Z</time>
      </trkpt>
      <trkpt lat="47.20939" lon="6.68862">
        <ele>829</ele>
        <time>2018-07-01T07:32:33.000Z</time>
      </trkpt>
      <trkpt lat="47.20939" lon="6.68865">
        <ele>829</ele>
        <time>2018-07-01T07:32:34.000Z</time>
      </trkpt>
      <trkpt lat="47.20938" lon="6.68868">
        <ele>830</ele>
        <time>2018-07-01T07:32:35.000Z</time>
      </trkpt>
      <trkpt lat="47.20937" lon="6.68871">
        <ele>830</ele>
        <time>2018-07-01T07:32:36.000Z</time>
      </trkpt>
      <trkpt lat="47.20937" lon="6.68874">
        <ele>830</ele>
        <time>2018-07-01T07:32:37.000Z</time>
      </trkpt>
      <trkpt lat="47.20936" lon="6.68878">
        <ele>830</ele>
        <time>2018-07-01T07:32:38.000Z</time>
      </trkpt>
      <trkpt lat="47.20935" lon="6.68881">
        <ele>831</ele>
        <time>2018-07-01T07:32:39.000Z</time>
      </trkpt>
      <trkpt lat="47.20934" lon="6.68883">
        <ele>831</ele>
        <time>2018-07-01T07:32:40.000Z</time>
      </trkpt>
      <trkpt lat="47.20933" lon="6.68886">
        <ele>831</ele>
        <time>2018-07-01T07:32:41.000Z</time>
      </trkpt>
      <trkpt lat="47.20933" lon="6.68889">
        <ele>832</ele>
        <time>2018-07-01T07:32:42.000Z</time>
      </trkpt>
      <trkpt lat="47.20932" lon="6.68893">
        <ele>833</ele>
        <time>2018-07-01T07:32:43.000Z</time>
      </trkpt>
      <trkpt lat="47.20932" lon="6.68896">
        <ele>833</ele>
        <time>2018-07-01T07:32:44.000Z</time>
      </trkpt>
      <trkpt lat="47.20932" lon="6.68899">
        <ele>834</ele>
        <time>2018-07-01T07:32:45.000Z</time>
      </trkpt>
      <trkpt lat="47.20932" lon="6.68903">
        <ele>835</ele>
        <time>2018-07-01T07:32:46.000Z</time>
      </trkpt>
      <trkpt lat="47.20932" lon="6.68906">
        <ele>836</ele>
        <time>2018-07-01T07:32:47.000Z</time>
      </trkpt>
      <trkpt lat="47.20932" lon="6.6891">
        <ele>836</ele>
        <time>2018-07-01T07:32:48.000Z</time>
      </trkpt>
      <trkpt lat="47.20931" lon="6.68913">
        <ele>837</ele>
        <time>2018-07-01T07:32:49.000Z</time>
      </trkpt>
      <trkpt lat="47.20931" lon="6.68917">
        <ele>837</ele>
        <time>2018-07-01T07:32:50.000Z</time>
      </trkpt>
      <trkpt lat="47.2093" lon="6.6892">
        <ele>838</ele>
        <time>2018-07-01T07:32:51.000Z</time>
      </trkpt>
      <trkpt lat="47.20929" lon="6.68922">
        <ele>838</ele>
        <time>2018-07-01T07:32:52.000Z</time>
      </trkpt>
      <trkpt lat="47.20929" lon="6.68924">
        <ele>838</ele>
        <time>2018-07-01T07:32:53.000Z</time>
      </trkpt>
      <trkpt lat="47.20928" lon="6.68926">
        <ele>837</ele>
        <time>2018-07-01T07:32:54.000Z</time>
      </trkpt>
      <trkpt lat="47.20928" lon="6.68928">
        <ele>837</ele>
        <time>2018-07-01T07:32:55.000Z</time>
      </trkpt>
      <trkpt lat="47.20927" lon="6.68931">
        <ele>836</ele>
        <time>2018-07-01T07:32:56.000Z</time>
      </trkpt>
      <trkpt lat="47.20927" lon="6.68933">
        <ele>835</ele>
        <time>2018-07-01T07:32:57.000Z</time>
      </trkpt>
      <trkpt lat="47.20927" lon="6.68936">
        <ele>835</ele>
        <time>2018-07-01T07:32:58.000Z</time>
      </trkpt>
      <trkpt lat="47.20926" lon="6.68938">
        <ele>834</ele>
        <time>2018-07-01T07:32:59.000Z</time>
      </trkpt>
      <trkpt lat="47.20926" lon="6.68941">
        <ele>834</ele>
        <time>2018-07-01T07:33:00.000Z</time>
      </trkpt>
      <trkpt lat="47.20926" lon="6.68943">
        <ele>833</ele>
        <time>2018-07-01T07:33:01.000Z</time>
      </trkpt>
      <trkpt lat="47.20925" lon="6.68947">
        <ele>833</ele>
        <time>2018-07-01T07:33:02.000Z</time>
      </trkpt>
      <trkpt lat="47.20925" lon="6.6895">
        <ele>832</ele>
        <time>2018-07-01T07:33:03.000Z</time>
      </trkpt>
      <trkpt lat="47.20925" lon="6.68953">
        <ele>832</ele>
        <time>2018-07-01T07:33:04.000Z</time>
      </trkpt>
      <trkpt lat="47.20924" lon="6.68955">
        <ele>832</ele>
        <time>2018-07-01T07:33:05.000Z</time>
      </trkpt>
      <trkpt lat="47.20923" lon="6.68958">
        <ele>832</ele>
        <time>2018-07-01T07:33:06.000Z</time>
      </trkpt>
      <trkpt lat="47.20922" lon="6.6896">
        <ele>833</ele>
        <time>2018-07-01T07:33:07.000Z</time>
      </trkpt>
      <trkpt lat="47.20922" lon="6.68962">
        <ele>833</ele>
        <time>2018-07-01T07:33:08.000Z</time>
      </trkpt>
      <trkpt lat="47.20921" lon="6.68964">
        <ele>833</ele>
        <time>2018-07-01T07:33:09.000Z</time>
      </trkpt>
      <trkpt lat="47.2092" lon="6.68965">
        <ele>833</ele>
        <time>2018-07-01T07:33:10.000Z</time>
      </trkpt>
      <trkpt lat="47.20919" lon="6.68967">
        <ele>834</ele>
        <time>2018-07-01T07:33:11.000Z</time>
      </trkpt>
      <trkpt lat="47.20918" lon="6.68968">
        <ele>834</ele>
        <time>2018-07-01T07:33:12.000Z</time>
      </trkpt>
      <trkpt lat="47.20917" lon="6.6897">
        <ele>834</ele>
        <time>2018-07-01T07:33:13.000Z</time>
      </trkpt>
      <trkpt lat="47.20917" lon="6.68971">
        <ele>858</ele>
        <time>2018-07-01T07:33:14.000Z</time>
      </trkpt>
      <trkpt lat="47.20916" lon="6.68973">
        <ele>858</ele>
        <time>2018-07-01T07:33:15.000Z</time>
      </trkpt>
      <trkpt lat="47.20915" lon="6.68974">
        <ele>858</ele>
        <time>2018-07-01T07:33:16.000Z</time>
      </trkpt>
      <trkpt lat="47.20914" lon="6.68975">
        <ele>858</ele>
        <time>2018-07-01T07:33:17.000Z</time>
      </trkpt>
      <trkpt lat="47.20913" lon="6.68976">
        <ele>858</ele>
        <time>2018-07-01T07:33:18.000Z</time>
      </trkpt>
      <trkpt lat="47.20912" lon="6.68978">
        <ele>858</ele>
        <time>2018-07-01T07:33:19.000Z</time>
      </trkpt>
      <trkpt lat="47.2091" lon="6.68978">
        <ele>858</ele>
        <time>2018-07-01T07:33:20.000Z</time>
      </trkpt>
      <trkpt lat="47.20909" lon="6.68979">
        <ele>858</ele>
        <time>2018-07-01T07:33:21.000Z</time>
      </trkpt>
      <trkpt lat="47.20907" lon="6.68979">
        <ele>858</ele>
        <time>2018-07-01T07:33:22.000Z</time>
      </trkpt>
      <trkpt lat="47.20906" lon="6.6898">
        <ele>858</ele>
        <time>2018-07-01T07:33:23.000Z</time>
      </trkpt>
      <trkpt lat="47.20905" lon="6.6898">
        <ele>858</ele>
        <time>2018-07-01T07:33:24.000Z</time>
      </trkpt>
      <trkpt lat="47.20903" lon="6.68981">
        <ele>858</ele>
        <time>2018-07-01T07:33:25.000Z</time>
      </trkpt>
      <trkpt lat="47.20902" lon="6.68981">
        <ele>858</ele>
        <time>2018-07-01T07:33:26.000Z</time>
      </trkpt>
      <trkpt lat="47.20902" lon="6.68982">
        <ele>858</ele>
        <time>2018-07-01T07:33:27.000Z</time>
      </trkpt>
      <trkpt lat="47.20901" lon="6.68982">
        <ele>858</ele>
        <time>2018-07-01T07:33:28.000Z</time>
      </trkpt>
      <trkpt lat="47.209" lon="6.68983">
        <ele>859</ele>
        <time>2018-07-01T07:33:29.000Z</time>
      </trkpt>
      <trkpt lat="47.20899" lon="6.68983">
        <ele>859</ele>
        <time>2018-07-01T07:33:30.000Z</time>
      </trkpt>
      <trkpt lat="47.20898" lon="6.68982">
        <ele>859</ele>
        <time>2018-07-01T07:33:31.000Z</time>
      </trkpt>
      <trkpt lat="47.20897" lon="6.68982">
        <ele>859</ele>
        <time>2018-07-01T07:33:32.000Z</time>
      </trkpt>
      <trkpt lat="47.20896" lon="6.68981">
        <ele>859</ele>
        <time>2018-07-01T07:33:33.000Z</time>
      </trkpt>
      <trkpt lat="47.20895" lon="6.6898">
        <ele>860</ele>
        <time>2018-07-01T07:33:34.000Z</time>
      </trkpt>
      <trkpt lat="47.20895" lon="6.68977">
        <ele>860</ele>
        <time>2018-07-01T07:33:35.000Z</time>
      </trkpt>
      <trkpt lat="47.20893" lon="6.68975">
        <ele>860</ele>
        <time>2018-07-01T07:33:36.000Z</time>
      </trkpt>
      <trkpt lat="47.20893" lon="6.68971">
        <ele>860</ele>
        <time>2018-07-01T07:33:37.000Z</time>
      </trkpt>
      <trkpt lat="47.20891" lon="6.68967">
        <ele>860</ele>
        <time>2018-07-01T07:33:38.000Z</time>
      </trkpt>
      <trkpt lat="47.2089" lon="6.68963">
        <ele>860</ele>
        <time>2018-07-01T07:33:39.000Z</time>
      </trkpt>
      <trkpt lat="47.20889" lon="6.68959">
        <ele>860</ele>
        <time>2018-07-01T07:33:40.000Z</time>
      </trkpt>
      <trkpt lat="47.20888" lon="6.68955">
        <ele>860</ele>
        <time>2018-07-01T07:33:41.000Z</time>
      </trkpt>
      <trkpt lat="47.20886" lon="6.6895">
        <ele>860</ele>
        <time>2018-07-01T07:33:42.000Z</time>
      </trkpt>
      <trkpt lat="47.20885" lon="6.68946">
        <ele>860</ele>
        <time>2018-07-01T07:33:43.000Z</time>
      </trkpt>
      <trkpt lat="47.20884" lon="6.68942">
        <ele>860</ele>
        <time>2018-07-01T07:33:44.000Z</time>
      </trkpt>
      <trkpt lat="47.20883" lon="6.68937">
        <ele>860</ele>
        <time>2018-07-01T07:33:45.000Z</time>
      </trkpt>
      <trkpt lat="47.20883" lon="6.68933">
        <ele>860</ele>
        <time>2018-07-01T07:33:46.000Z</time>
      </trkpt>
      <trkpt lat="47.20882" lon="6.68928">
        <ele>860</ele>
        <time>2018-07-01T07:33:47.000Z</time>
      </trkpt>
      <trkpt lat="47.20881" lon="6.68925">
        <ele>860</ele>
        <time>2018-07-01T07:33:48.000Z</time>
      </trkpt>
      <trkpt lat="47.20879" lon="6.68921">
        <ele>860</ele>
        <time>2018-07-01T07:33:49.000Z</time>
      </trkpt>
      <trkpt lat="47.20878" lon="6.68917">
        <ele>861</ele>
        <time>2018-07-01T07:33:50.000Z</time>
      </trkpt>
      <trkpt lat="47.20878" lon="6.68914">
        <ele>857</ele>
        <time>2018-07-01T07:33:51.000Z</time>
      </trkpt>
      <trkpt lat="47.20877" lon="6.68911">
        <ele>857</ele>
        <time>2018-07-01T07:33:52.000Z</time>
      </trkpt>
      <trkpt lat="47.20876" lon="6.68907">
        <ele>857</ele>
        <time>2018-07-01T07:33:53.000Z</time>
      </trkpt>
      <trkpt lat="47.20875" lon="6.68904">
        <ele>857</ele>
        <time>2018-07-01T07:33:54.000Z</time>
      </trkpt>
      <trkpt lat="47.20874" lon="6.689">
        <ele>858</ele>
        <time>2018-07-01T07:33:55.000Z</time>
      </trkpt>
      <trkpt lat="47.20873" lon="6.68897">
        <ele>858</ele>
        <time>2018-07-01T07:33:56.000Z</time>
      </trkpt>
      <trkpt lat="47.20872" lon="6.68894">
        <ele>858</ele>
        <time>2018-07-01T07:33:57.000Z</time>
      </trkpt>
      <trkpt lat="47.20871" lon="6.68891">
        <ele>858</ele>
        <time>2018-07-01T07:33:58.000Z</time>
      </trkpt>
      <trkpt lat="47.2087" lon="6.68888">
        <ele>858</ele>
        <time>2018-07-01T07:33:59.000Z</time>
      </trkpt>
      <trkpt lat="47.20869" lon="6.68885">
        <ele>858</ele>
        <time>2018-07-01T07:34:00.000Z</time>
      </trkpt>
      <trkpt lat="47.20867" lon="6.68881">
        <ele>858</ele>
        <time>2018-07-01T07:34:01.000Z</time>
      </trkpt>
      <trkpt lat="47.20866" lon="6.68877">
        <ele>858</ele>
        <time>2018-07-01T07:34:02.000Z</time>
      </trkpt>
      <trkpt lat="47.20865" lon="6.68874">
        <ele>858</ele>
        <time>2018-07-01T07:34:03.000Z</time>
      </trkpt>
      <trkpt lat="47.20864" lon="6.68871">
        <ele>858</ele>
        <time>2018-07-01T07:34:04.000Z</time>
      </trkpt>
      <trkpt lat="47.20863" lon="6.68867">
        <ele>858</ele>
        <time>2018-07-01T07:34:05.000Z</time>
      </trkpt>
      <trkpt lat="47.20862" lon="6.68864">
        <ele>858</ele>
        <time>2018-07-01T07:34:06.000Z</time>
      </trkpt>
      <trkpt lat="47.2086" lon="6.68861">
        <ele>858</ele>
        <time>2018-07-01T07:34:07.000Z</time>
      </trkpt>
      <trkpt lat="47.20859" lon="6.68858">
        <ele>858</ele>
        <time>2018-07-01T07:34:08.000Z</time>
      </trkpt>
      <trkpt lat="47.20857" lon="6.68855">
        <ele>859</ele>
        <time>2018-07-01T07:34:09.000Z</time>
      </trkpt>
      <trkpt lat="47.20856" lon="6.68852">
        <ele>859</ele>
        <time>2018-07-01T07:34:10.000Z</time>
      </trkpt>
      <trkpt lat="47.20854" lon="6.68848">
        <ele>859</ele>
        <time>2018-07-01T07:34:11.000Z</time>
      </trkpt>
      <trkpt lat="47.20853" lon="6.68844">
        <ele>860</ele>
        <time>2018-07-01T07:34:12.000Z</time>
      </trkpt>
      <trkpt lat="47.20852" lon="6.68841">
        <ele>860</ele>
        <time>2018-07-01T07:34:13.000Z</time>
      </trkpt>
      <trkpt lat="47.20851" lon="6.68838">
        <ele>860</ele>
        <time>2018-07-01T07:34:14.000Z</time>
      </trkpt>
      <trkpt lat="47.2085" lon="6.68834">
        <ele>861</ele>
        <time>2018-07-01T07:34:15.000Z</time>
      </trkpt>
      <trkpt lat="47.20849" lon="6.68831">
        <ele>858</ele>
        <time>2018-07-01T07:34:16.000Z</time>
      </trkpt>
      <trkpt lat="47.20847" lon="6.68828">
        <ele>858</ele>
        <time>2018-07-01T07:34:17.000Z</time>
      </trkpt>
      <trkpt lat="47.20846" lon="6.68825">
        <ele>858</ele>
        <time>2018-07-01T07:34:18.000Z</time>
      </trkpt>
      <trkpt lat="47.20845" lon="6.68822">
        <ele>858</ele>
        <time>2018-07-01T07:34:19.000Z</time>
      </trkpt>
      <trkpt lat="47.20844" lon="6.6882">
        <ele>858</ele>
        <time>2018-07-01T07:34:20.000Z</time>
      </trkpt>
      <trkpt lat="47.20843" lon="6.68817">
        <ele>857</ele>
        <time>2018-07-01T07:34:21.000Z</time>
      </trkpt>
      <trkpt lat="47.20841" lon="6.68814">
        <ele>857</ele>
        <time>2018-07-01T07:34:22.000Z</time>
      </trkpt>
      <trkpt lat="47.2084" lon="6.68811">
        <ele>857</ele>
        <time>2018-07-01T07:34:23.000Z</time>
      </trkpt>
      <trkpt lat="47.20839" lon="6.68808">
        <ele>856</ele>
        <time>2018-07-01T07:34:24.000Z</time>
      </trkpt>
      <trkpt lat="47.20837" lon="6.68805">
        <ele>856</ele>
        <time>2018-07-01T07:34:25.000Z</time>
      </trkpt>
      <trkpt lat="47.20836" lon="6.68802">
        <ele>856</ele>
        <time>2018-07-01T07:34:26.000Z</time>
      </trkpt>
      <trkpt lat="47.20834" lon="6.68799">
        <ele>855</ele>
        <time>2018-07-01T07:34:27.000Z</time>
      </trkpt>
      <trkpt lat="47.20833" lon="6.68796">
        <ele>870</ele>
        <time>2018-07-01T07:34:28.000Z</time>
      </trkpt>
      <trkpt lat="47.20832" lon="6.68794">
        <ele>870</ele>
        <time>2018-07-01T07:34:29.000Z</time>
      </trkpt>
      <trkpt lat="47.2083" lon="6.68791">
        <ele>870</ele>
        <time>2018-07-01T07:34:30.000Z</time>
      </trkpt>
      <trkpt lat="47.20829" lon="6.68788">
        <ele>870</ele>
        <time>2018-07-01T07:34:31.000Z</time>
      </trkpt>
      <trkpt lat="47.20827" lon="6.68786">
        <ele>869</ele>
        <time>2018-07-01T07:34:32.000Z</time>
      </trkpt>
      <trkpt lat="47.20826" lon="6.68783">
        <ele>869</ele>
        <time>2018-07-01T07:34:33.000Z</time>
      </trkpt>
      <trkpt lat="47.20825" lon="6.68781">
        <ele>869</ele>
        <time>2018-07-01T07:34:34.000Z</time>
      </trkpt>
      <trkpt lat="47.20823" lon="6.68779">
        <ele>869</ele>
        <time>2018-07-01T07:34:35.000Z</time>
      </trkpt>
      <trkpt lat="47.20821" lon="6.68778">
        <ele>869</ele>
        <time>2018-07-01T07:34:36.000Z</time>
      </trkpt>
      <trkpt lat="47.20819" lon="6.68777">
        <ele>869</ele>
        <time>2018-07-01T07:34:37.000Z</time>
      </trkpt>
      <trkpt lat="47.20817" lon="6.68776">
        <ele>869</ele>
        <time>2018-07-01T07:34:38.000Z</time>
      </trkpt>
      <trkpt lat="47.20816" lon="6.68777">
        <ele>870</ele>
        <time>2018-07-01T07:34:39.000Z</time>
      </trkpt>
      <trkpt lat="47.20815" lon="6.6878">
        <ele>870</ele>
        <time>2018-07-01T07:34:40.000Z</time>
      </trkpt>
      <trkpt lat="47.20814" lon="6.68783">
        <ele>870</ele>
        <time>2018-07-01T07:34:41.000Z</time>
      </trkpt>
      <trkpt lat="47.20815" lon="6.68787">
        <ele>871</ele>
        <time>2018-07-01T07:34:42.000Z</time>
      </trkpt>
      <trkpt lat="47.20815" lon="6.68792">
        <ele>871</ele>
        <time>2018-07-01T07:34:43.000Z</time>
      </trkpt>
      <trkpt lat="47.20816" lon="6.68796">
        <ele>871</ele>
        <time>2018-07-01T07:34:44.000Z</time>
      </trkpt>
      <trkpt lat="47.20816" lon="6.688">
        <ele>871</ele>
        <time>2018-07-01T07:34:45.000Z</time>
      </trkpt>
      <trkpt lat="47.20816" lon="6.68804">
        <ele>871</ele>
        <time>2018-07-01T07:34:46.000Z</time>
      </trkpt>
      <trkpt lat="47.20816" lon="6.68809">
        <ele>871</ele>
        <time>2018-07-01T07:34:47.000Z</time>
      </trkpt>
      <trkpt lat="47.20817" lon="6.68812">
        <ele>871</ele>
        <time>2018-07-01T07:34:48.000Z</time>
      </trkpt>
      <trkpt lat="47.20817" lon="6.68816">
        <ele>870</ele>
        <time>2018-07-01T07:34:49.000Z</time>
      </trkpt>
      <trkpt lat="47.20816" lon="6.68818">
        <ele>870</ele>
        <time>2018-07-01T07:34:50.000Z</time>
      </trkpt>
      <trkpt lat="47.20816" lon="6.68818">
        <ele>870</ele>
        <time>2018-07-01T07:34:51.000Z</time>
      </trkpt>
      <trkpt lat="47.20815" lon="6.68819">
        <ele>871</ele>
        <time>2018-07-01T07:34:52.000Z</time>
      </trkpt>
      <trkpt lat="47.20814" lon="6.68819">
        <ele>871</ele>
        <time>2018-07-01T07:34:53.000Z</time>
      </trkpt>
      <trkpt lat="47.20813" lon="6.68819">
        <ele>871</ele>
        <time>2018-07-01T07:34:54.000Z</time>
      </trkpt>
      <trkpt lat="47.20812" lon="6.68819">
        <ele>871</ele>
        <time>2018-07-01T07:34:55.000Z</time>
      </trkpt>
      <trkpt lat="47.20811" lon="6.68819">
        <ele>871</ele>
        <time>2018-07-01T07:34:56.000Z</time>
      </trkpt>
      <trkpt lat="47.2081" lon="6.68819">
        <ele>871</ele>
        <time>2018-07-01T07:34:57.000Z</time>
      </trkpt>
      <trkpt lat="47.20809" lon="6.68819">
        <ele>872</ele>
        <time>2018-07-01T07:34:58.000Z</time>
      </trkpt>
      <trkpt lat="47.20809" lon="6.68819">
        <ele>872</ele>
        <time>2018-07-01T07:34:59.000Z</time>
      </trkpt>
      <trkpt lat="47.20808" lon="6.68819">
        <ele>872</ele>
        <time>2018-07-01T07:35:00.000Z</time>
      </trkpt>
      <trkpt lat="47.20807" lon="6.68819">
        <ele>872</ele>
        <time>2018-07-01T07:35:01.000Z</time>
      </trkpt>
      <trkpt lat="47.20805" lon="6.68819">
        <ele>872</ele>
        <time>2018-07-01T07:35:02.000Z</time>
      </trkpt>
      <trkpt lat="47.20804" lon="6.68819">
        <ele>872</ele>
        <time>2018-07-01T07:35:03.000Z</time>
      </trkpt>
      <trkpt lat="47.20803" lon="6.68819">
        <ele>873</ele>
        <time>2018-07-01T07:35:04.000Z</time>
      </trkpt>
      <trkpt lat="47.20802" lon="6.68819">
        <ele>873</ele>
        <time>2018-07-01T07:35:05.000Z</time>
      </trkpt>
      <trkpt lat="47.20801" lon="6.68819">
        <ele>873</ele>
        <time>2018-07-01T07:35:06.000Z</time>
      </trkpt>
      <trkpt lat="47.208" lon="6.68819">
        <ele>873</ele>
        <time>2018-07-01T07:35:07.000Z</time>
      </trkpt>
      <trkpt lat="47.20799" lon="6.68819">
        <ele>873</ele>
        <time>2018-07-01T07:35:08.000Z</time>
      </trkpt>
      <trkpt lat="47.20798" lon="6.68819">
        <ele>874</ele>
        <time>2018-07-01T07:35:09.000Z</time>
      </trkpt>
      <trkpt lat="47.20797" lon="6.68819">
        <ele>874</ele>
        <time>2018-07-01T07:35:10.000Z</time>
      </trkpt>
      <trkpt lat="47.20796" lon="6.68818">
        <ele>874</ele>
        <time>2018-07-01T07:35:11.000Z</time>
      </trkpt>
      <trkpt lat="47.20795" lon="6.68818">
        <ele>874</ele>
        <time>2018-07-01T07:35:12.000Z</time>
      </trkpt>
      <trkpt lat="47.20794" lon="6.68818">
        <ele>874</ele>
        <time>2018-07-01T07:35:13.000Z</time>
      </trkpt>
      <trkpt lat="47.20794" lon="6.68819">
        <ele>874</ele>
        <time>2018-07-01T07:35:14.000Z</time>
      </trkpt>
      <trkpt lat="47.20793" lon="6.68818">
        <ele>874</ele>
        <time>2018-07-01T07:35:15.000Z</time>
      </trkpt>
      <trkpt lat="47.20793" lon="6.68818">
        <ele>874</ele>
        <time>2018-07-01T07:35:16.000Z</time>
      </trkpt>
      <trkpt lat="47.20792" lon="6.68819">
        <ele>875</ele>
        <time>2018-07-01T07:35:17.000Z</time>
      </trkpt>
      <trkpt lat="47.20792" lon="6.68819">
        <ele>875</ele>
        <time>2018-07-01T07:35:18.000Z</time>
      </trkpt>
      <trkpt lat="47.20791" lon="6.68818">
        <ele>875</ele>
        <time>2018-07-01T07:35:19.000Z</time>
      </trkpt>
      <trkpt lat="47.2079" lon="6.68819">
        <ele>875</ele>
        <time>2018-07-01T07:35:20.000Z</time>
      </trkpt>
      <trkpt lat="47.20789" lon="6.6882">
        <ele>875</ele>
        <time>2018-07-01T07:35:21.000Z</time>
      </trkpt>
      <trkpt lat="47.20788" lon="6.6882">
        <ele>875</ele>
        <time>2018-07-01T07:35:22.000Z</time>
      </trkpt>
      <trkpt lat="47.20787" lon="6.68821">
        <ele>876</ele>
        <time>2018-07-01T07:35:23.000Z</time>
      </trkpt>
      <trkpt lat="47.20786" lon="6.68821">
        <ele>876</ele>
        <time>2018-07-01T07:35:24.000Z</time>
      </trkpt>
      <trkpt lat="47.20785" lon="6.68821">
        <ele>876</ele>
        <time>2018-07-01T07:35:25.000Z</time>
      </trkpt>
      <trkpt lat="47.20784" lon="6.68821">
        <ele>876</ele>
        <time>2018-07-01T07:35:26.000Z</time>
      </trkpt>
      <trkpt lat="47.20783" lon="6.68821">
        <ele>876</ele>
        <time>2018-07-01T07:35:27.000Z</time>
      </trkpt>
      <trkpt lat="47.20783" lon="6.68822">
        <ele>877</ele>
        <time>2018-07-01T07:35:28.000Z</time>
      </trkpt>
      <trkpt lat="47.20782" lon="6.68822">
        <ele>877</ele>
        <time>2018-07-01T07:35:29.000Z</time>
      </trkpt>
      <trkpt lat="47.20781" lon="6.68822">
        <ele>877</ele>
        <time>2018-07-01T07:35:30.000Z</time>
      </trkpt>
      <trkpt lat="47.2078" lon="6.68822">
        <ele>877</ele>
        <time>2018-07-01T07:35:31.000Z</time>
      </trkpt>
      <trkpt lat="47.20778" lon="6.68823">
        <ele>878</ele>
        <time>2018-07-01T07:35:32.000Z</time>
      </trkpt>
      <trkpt lat="47.20778" lon="6.68823">
        <ele>878</ele>
        <time>2018-07-01T07:35:33.000Z</time>
      </trkpt>
      <trkpt lat="47.20777" lon="6.68823">
        <ele>878</ele>
        <time>2018-07-01T07:35:34.000Z</time>
      </trkpt>
      <trkpt lat="47.20776" lon="6.68824">
        <ele>878</ele>
        <time>2018-07-01T07:35:35.000Z</time>
      </trkpt>
      <trkpt lat="47.20775" lon="6.68824">
        <ele>879</ele>
        <time>2018-07-01T07:35:36.000Z</time>
      </trkpt>
      <trkpt lat="47.20774" lon="6.68825">
        <ele>879</ele>
        <time>2018-07-01T07:35:37.000Z</time>
      </trkpt>
      <trkpt lat="47.20773" lon="6.68825">
        <ele>879</ele>
        <time>2018-07-01T07:35:38.000Z</time>
      </trkpt>
      <trkpt lat="47.20772" lon="6.68825">
        <ele>879</ele>
        <time>2018-07-01T07:35:39.000Z</time>
      </trkpt>
      <trkpt lat="47.20771" lon="6.68825">
        <ele>880</ele>
        <time>2018-07-01T07:35:40.000Z</time>
      </trkpt>
      <trkpt lat="47.2077" lon="6.68825">
        <ele>880</ele>
        <time>2018-07-01T07:35:41.000Z</time>
      </trkpt>
      <trkpt lat="47.20769" lon="6.68826">
        <ele>880</ele>
        <time>2018-07-01T07:35:42.000Z</time>
      </trkpt>
      <trkpt lat="47.20768" lon="6.68826">
        <ele>880</ele>
        <time>2018-07-01T07:35:43.000Z</time>
      </trkpt>
      <trkpt lat="47.20767" lon="6.68826">
        <ele>881</ele>
        <time>2018-07-01T07:35:44.000Z</time>
      </trkpt>
      <trkpt lat="47.20766" lon="6.68826">
        <ele>881</ele>
        <time>2018-07-01T07:35:45.000Z</time>
      </trkpt>
      <trkpt lat="47.20765" lon="6.68827">
        <ele>881</ele>
        <time>2018-07-01T07:35:46.000Z</time>
      </trkpt>
      <trkpt lat="47.20765" lon="6.68827">
        <ele>882</ele>
        <time>2018-07-01T07:35:47.000Z</time>
      </trkpt>
      <trkpt lat="47.20764" lon="6.68827">
        <ele>882</ele>
        <time>2018-07-01T07:35:48.000Z</time>
      </trkpt>
      <trkpt lat="47.20763" lon="6.68828">
        <ele>882</ele>
        <time>2018-07-01T07:35:49.000Z</time>
      </trkpt>
      <trkpt lat="47.20762" lon="6.68828">
        <ele>883</ele>
        <time>2018-07-01T07:35:50.000Z</time>
      </trkpt>
      <trkpt lat="47.20761" lon="6.68828">
        <ele>883</ele>
        <time>2018-07-01T07:35:51.000Z</time>
      </trkpt>
      <trkpt lat="47.20759" lon="6.68829">
        <ele>884</ele>
        <time>2018-07-01T07:35:52.000Z</time>
      </trkpt>
      <trkpt lat="47.20758" lon="6.6883">
        <ele>885</ele>
        <time>2018-07-01T07:35:53.000Z</time>
      </trkpt>
      <trkpt lat="47.20756" lon="6.6883">
        <ele>885</ele>
        <time>2018-07-01T07:35:54.000Z</time>
      </trkpt>
      <trkpt lat="47.20754" lon="6.68831">
        <ele>886</ele>
        <time>2018-07-01T07:35:55.000Z</time>
      </trkpt>
      <trkpt lat="47.20752" lon="6.68831">
        <ele>887</ele>
        <time>2018-07-01T07:35:56.000Z</time>
      </trkpt>
      <trkpt lat="47.20751" lon="6.68831">
        <ele>887</ele>
        <time>2018-07-01T07:35:57.000Z</time>
      </trkpt>
      <trkpt lat="47.20749" lon="6.68831">
        <ele>890</ele>
        <time>2018-07-01T07:35:58.000Z</time>
      </trkpt>
      <trkpt lat="47.20747" lon="6.68831">
        <ele>890</ele>
        <time>2018-07-01T07:35:59.000Z</time>
      </trkpt>
      <trkpt lat="47.20746" lon="6.6883">
        <ele>891</ele>
        <time>2018-07-01T07:36:00.000Z</time>
      </trkpt>
      <trkpt lat="47.20744" lon="6.6883">
        <ele>891</ele>
        <time>2018-07-01T07:36:01.000Z</time>
      </trkpt>
      <trkpt lat="47.20742" lon="6.68829">
        <ele>892</ele>
        <time>2018-07-01T07:36:02.000Z</time>
      </trkpt>
      <trkpt lat="47.20741" lon="6.68829">
        <ele>892</ele>
        <time>2018-07-01T07:36:03.000Z</time>
      </trkpt>
      <trkpt lat="47.2074" lon="6.6883">
        <ele>892</ele>
        <time>2018-07-01T07:36:04.000Z</time>
      </trkpt>
      <trkpt lat="47.20738" lon="6.6883">
        <ele>892</ele>
        <time>2018-07-01T07:36:05.000Z</time>
      </trkpt>
      <trkpt lat="47.20737" lon="6.6883">
        <ele>893</ele>
        <time>2018-07-01T07:36:06.000Z</time>
      </trkpt>
      <trkpt lat="47.20735" lon="6.6883">
        <ele>893</ele>
        <time>2018-07-01T07:36:07.000Z</time>
      </trkpt>
      <trkpt lat="47.20734" lon="6.6883">
        <ele>893</ele>
        <time>2018-07-01T07:36:08.000Z</time>
      </trkpt>
      <trkpt lat="47.20732" lon="6.6883">
        <ele>894</ele>
        <time>2018-07-01T07:36:09.000Z</time>
      </trkpt>
      <trkpt lat="47.20731" lon="6.68831">
        <ele>894</ele>
        <time>2018-07-01T07:36:10.000Z</time>
      </trkpt>
      <trkpt lat="47.2073" lon="6.68831">
        <ele>894</ele>
        <time>2018-07-01T07:36:11.000Z</time>
      </trkpt>
      <trkpt lat="47.20729" lon="6.68832">
        <ele>895</ele>
        <time>2018-07-01T07:36:12.000Z</time>
      </trkpt>
      <trkpt lat="47.20727" lon="6.68832">
        <ele>895</ele>
        <time>2018-07-01T07:36:13.000Z</time>
      </trkpt>
      <trkpt lat="47.20726" lon="6.68832">
        <ele>895</ele>
        <time>2018-07-01T07:36:14.000Z</time>
      </trkpt>
      <trkpt lat="47.20725" lon="6.68833">
        <ele>895</ele>
        <time>2018-07-01T07:36:15.000Z</time>
      </trkpt>
      <trkpt lat="47.20723" lon="6.68833">
        <ele>896</ele>
        <time>2018-07-01T07:36:16.000Z</time>
      </trkpt>
      <trkpt lat="47.20722" lon="6.68834">
        <ele>900</ele>
        <time>2018-07-01T07:36:17.000Z</time>
      </trkpt>
      <trkpt lat="47.20721" lon="6.68834">
        <ele>901</ele>
        <time>2018-07-01T07:36:18.000Z</time>
      </trkpt>
      <trkpt lat="47.2072" lon="6.68835">
        <ele>901</ele>
        <time>2018-07-01T07:36:19.000Z</time>
      </trkpt>
      <trkpt lat="47.20718" lon="6.68836">
        <ele>901</ele>
        <time>2018-07-01T07:36:20.000Z</time>
      </trkpt>
      <trkpt lat="47.20717" lon="6.68836">
        <ele>902</ele>
        <time>2018-07-01T07:36:21.000Z</time>
      </trkpt>
      <trkpt lat="47.20716" lon="6.68837">
        <ele>902</ele>
        <time>2018-07-01T07:36:22.000Z</time>
      </trkpt>
      <trkpt lat="47.20714" lon="6.68837">
        <ele>902</ele>
        <time>2018-07-01T07:36:23.000Z</time>
      </trkpt>
      <trkpt lat="47.20713" lon="6.68838">
        <ele>902</ele>
        <time>2018-07-01T07:36:24.000Z</time>
      </trkpt>
      <trkpt lat="47.20712" lon="6.68838">
        <ele>903</ele>
        <time>2018-07-01T07:36:25.000Z</time>
      </trkpt>
      <trkpt lat="47.20711" lon="6.68838">
        <ele>903</ele>
        <time>2018-07-01T07:36:26.000Z</time>
      </trkpt>
      <trkpt lat="47.2071" lon="6.68838">
        <ele>903</ele>
        <time>2018-07-01T07:36:27.000Z</time>
      </trkpt>
      <trkpt lat="47.20709" lon="6.68838">
        <ele>903</ele>
        <time>2018-07-01T07:36:28.000Z</time>
      </trkpt>
      <trkpt lat="47.20708" lon="6.68839">
        <ele>904</ele>
        <time>2018-07-01T07:36:29.000Z</time>
      </trkpt>
      <trkpt lat="47.20707" lon="6.68839">
        <ele>904</ele>
        <time>2018-07-01T07:36:30.000Z</time>
      </trkpt>
      <trkpt lat="47.20706" lon="6.6884">
        <ele>904</ele>
        <time>2018-07-01T07:36:31.000Z</time>
      </trkpt>
      <trkpt lat="47.20705" lon="6.6884">
        <ele>904</ele>
        <time>2018-07-01T07:36:32.000Z</time>
      </trkpt>
      <trkpt lat="47.20704" lon="6.68841">
        <ele>905</ele>
        <time>2018-07-01T07:36:33.000Z</time>
      </trkpt>
      <trkpt lat="47.20703" lon="6.68841">
        <ele>905</ele>
        <time>2018-07-01T07:36:34.000Z</time>
      </trkpt>
      <trkpt lat="47.20702" lon="6.68842">
        <ele>905</ele>
        <time>2018-07-01T07:36:35.000Z</time>
      </trkpt>
      <trkpt lat="47.207" lon="6.68842">
        <ele>905</ele>
        <time>2018-07-01T07:36:36.000Z</time>
      </trkpt>
      <trkpt lat="47.20699" lon="6.68842">
        <ele>906</ele>
        <time>2018-07-01T07:36:37.000Z</time>
      </trkpt>
      <trkpt lat="47.20698" lon="6.68843">
        <ele>906</ele>
        <time>2018-07-01T07:36:38.000Z</time>
      </trkpt>
      <trkpt lat="47.20697" lon="6.68843">
        <ele>906</ele>
        <time>2018-07-01T07:36:39.000Z</time>
      </trkpt>
      <trkpt lat="47.20696" lon="6.68843">
        <ele>906</ele>
        <time>2018-07-01T07:36:40.000Z</time>
      </trkpt>
      <trkpt lat="47.20695" lon="6.68844">
        <ele>906</ele>
        <time>2018-07-01T07:36:41.000Z</time>
      </trkpt>
      <trkpt lat="47.20694" lon="6.68844">
        <ele>907</ele>
        <time>2018-07-01T07:36:42.000Z</time>
      </trkpt>
      <trkpt lat="47.20693" lon="6.68844">
        <ele>907</ele>
        <time>2018-07-01T07:36:43.000Z</time>
      </trkpt>
      <trkpt lat="47.20692" lon="6.68845">
        <ele>907</ele>
        <time>2018-07-01T07:36:44.000Z</time>
      </trkpt>
      <trkpt lat="47.20692" lon="6.68845">
        <ele>907</ele>
        <time>2018-07-01T07:36:45.000Z</time>
      </trkpt>
      <trkpt lat="47.20691" lon="6.68846">
        <ele>907</ele>
        <time>2018-07-01T07:36:46.000Z</time>
      </trkpt>
      <trkpt lat="47.2069" lon="6.68846">
        <ele>907</ele>
        <time>2018-07-01T07:36:47.000Z</time>
      </trkpt>
      <trkpt lat="47.20689" lon="6.68847">
        <ele>908</ele>
        <time>2018-07-01T07:36:48.000Z</time>
      </trkpt>
      <trkpt lat="47.20687" lon="6.68847">
        <ele>908</ele>
        <time>2018-07-01T07:36:49.000Z</time>
      </trkpt>
      <trkpt lat="47.20686" lon="6.68848">
        <ele>908</ele>
        <time>2018-07-01T07:36:50.000Z</time>
      </trkpt>
      <trkpt lat="47.20685" lon="6.68848">
        <ele>908</ele>
        <time>2018-07-01T07:36:51.000Z</time>
      </trkpt>
      <trkpt lat="47.20684" lon="6.68849">
        <ele>908</ele>
        <time>2018-07-01T07:36:52.000Z</time>
      </trkpt>
      <trkpt lat="47.20683" lon="6.6885">
        <ele>908</ele>
        <time>2018-07-01T07:36:53.000Z</time>
      </trkpt>
      <trkpt lat="47.20682" lon="6.6885">
        <ele>909</ele>
        <time>2018-07-01T07:36:54.000Z</time>
      </trkpt>
      <trkpt lat="47.20681" lon="6.6885">
        <ele>909</ele>
        <time>2018-07-01T07:36:55.000Z</time>
      </trkpt>
      <trkpt lat="47.2068" lon="6.68851">
        <ele>909</ele>
        <time>2018-07-01T07:36:56.000Z</time>
      </trkpt>
      <trkpt lat="47.20679" lon="6.68851">
        <ele>909</ele>
        <time>2018-07-01T07:36:57.000Z</time>
      </trkpt>
      <trkpt lat="47.20677" lon="6.68852">
        <ele>909</ele>
        <time>2018-07-01T07:36:58.000Z</time>
      </trkpt>
      <trkpt lat="47.20676" lon="6.68852">
        <ele>909</ele>
        <time>2018-07-01T07:36:59.000Z</time>
      </trkpt>
      <trkpt lat="47.20675" lon="6.68853">
        <ele>909</ele>
        <time>2018-07-01T07:37:00.000Z</time>
      </trkpt>
      <trkpt lat="47.20674" lon="6.68853">
        <ele>909</ele>
        <time>2018-07-01T07:37:01.000Z</time>
      </trkpt>
      <trkpt lat="47.20673" lon="6.68854">
        <ele>909</ele>
        <time>2018-07-01T07:37:02.000Z</time>
      </trkpt>
      <trkpt lat="47.20672" lon="6.68854">
        <ele>909</ele>
        <time>2018-07-01T07:37:03.000Z</time>
      </trkpt>
      <trkpt lat="47.20671" lon="6.68854">
        <ele>909</ele>
        <time>2018-07-01T07:37:04.000Z</time>
      </trkpt>
      <trkpt lat="47.2067" lon="6.68855">
        <ele>909</ele>
        <time>2018-07-01T07:37:05.000Z</time>
      </trkpt>
      <trkpt lat="47.20669" lon="6.68855">
        <ele>909</ele>
        <time>2018-07-01T07:37:06.000Z</time>
      </trkpt>
      <trkpt lat="47.20668" lon="6.68856">
        <ele>910</ele>
        <time>2018-07-01T07:37:07.000Z</time>
      </trkpt>
      <trkpt lat="47.20667" lon="6.68856">
        <ele>910</ele>
        <time>2018-07-01T07:37:08.000Z</time>
      </trkpt>
      <trkpt lat="47.20666" lon="6.68857">
        <ele>922</ele>
        <time>2018-07-01T07:37:09.000Z</time>
      </trkpt>
      <trkpt lat="47.20664" lon="6.68857">
        <ele>922</ele>
        <time>2018-07-01T07:37:10.000Z</time>
      </trkpt>
      <trkpt lat="47.20663" lon="6.68858">
        <ele>922</ele>
        <time>2018-07-01T07:37:11.000Z</time>
      </trkpt>
      <trkpt lat="47.20661" lon="6.68858">
        <ele>922</ele>
        <time>2018-07-01T07:37:12.000Z</time>
      </trkpt>
      <trkpt lat="47.2066" lon="6.68859">
        <ele>923</ele>
        <time>2018-07-01T07:37:13.000Z</time>
      </trkpt>
      <trkpt lat="47.20658" lon="6.68859">
        <ele>923</ele>
        <time>2018-07-01T07:37:14.000Z</time>
      </trkpt>
      <trkpt lat="47.20657" lon="6.6886">
        <ele>923</ele>
        <time>2018-07-01T07:37:15.000Z</time>
      </trkpt>
      <trkpt lat="47.20655" lon="6.68861">
        <ele>923</ele>
        <time>2018-07-01T07:37:16.000Z</time>
      </trkpt>
      <trkpt lat="47.20654" lon="6.68862">
        <ele>924</ele>
        <time>2018-07-01T07:37:17.000Z</time>
      </trkpt>
      <trkpt lat="47.20653" lon="6.68863">
        <ele>924</ele>
        <time>2018-07-01T07:37:18.000Z</time>
      </trkpt>
      <trkpt lat="47.20652" lon="6.68864">
        <ele>924</ele>
        <time>2018-07-01T07:37:19.000Z</time>
      </trkpt>
      <trkpt lat="47.20651" lon="6.68864">
        <ele>924</ele>
        <time>2018-07-01T07:37:20.000Z</time>
      </trkpt>
      <trkpt lat="47.20649" lon="6.68865">
        <ele>924</ele>
        <time>2018-07-01T07:37:21.000Z</time>
      </trkpt>
      <trkpt lat="47.20648" lon="6.68865">
        <ele>925</ele>
        <time>2018-07-01T07:37:22.000Z</time>
      </trkpt>
      <trkpt lat="47.20647" lon="6.68866">
        <ele>925</ele>
        <time>2018-07-01T07:37:23.000Z</time>
      </trkpt>
      <trkpt lat="47.20646" lon="6.68867">
        <ele>925</ele>
        <time>2018-07-01T07:37:24.000Z</time>
      </trkpt>
      <trkpt lat="47.20645" lon="6.68868">
        <ele>925</ele>
        <time>2018-07-01T07:37:25.000Z</time>
      </trkpt>
      <trkpt lat="47.20644" lon="6.68868">
        <ele>925</ele>
        <time>2018-07-01T07:37:26.000Z</time>
      </trkpt>
      <trkpt lat="47.20642" lon="6.68869">
        <ele>926</ele>
        <time>2018-07-01T07:37:27.000Z</time>
      </trkpt>
      <trkpt lat="47.20641" lon="6.6887">
        <ele>926</ele>
        <time>2018-07-01T07:37:28.000Z</time>
      </trkpt>
      <trkpt lat="47.2064" lon="6.68871">
        <ele>926</ele>
        <time>2018-07-01T07:37:29.000Z</time>
      </trkpt>
      <trkpt lat="47.20639" lon="6.68872">
        <ele>926</ele>
        <time>2018-07-01T07:37:30.000Z</time>
      </trkpt>
      <trkpt lat="47.20638" lon="6.68873">
        <ele>926</ele>
        <time>2018-07-01T07:37:31.000Z</time>
      </trkpt>
      <trkpt lat="47.20637" lon="6.68874">
        <ele>926</ele>
        <time>2018-07-01T07:37:32.000Z</time>
      </trkpt>
      <trkpt lat="47.20636" lon="6.68874">
        <ele>927</ele>
        <time>2018-07-01T07:37:33.000Z</time>
      </trkpt>
      <trkpt lat="47.20635" lon="6.68875">
        <ele>927</ele>
        <time>2018-07-01T07:37:34.000Z</time>
      </trkpt>
      <trkpt lat="47.20633" lon="6.68876">
        <ele>927</ele>
        <time>2018-07-01T07:37:35.000Z</time>
      </trkpt>
      <trkpt lat="47.20632" lon="6.68877">
        <ele>927</ele>
        <time>2018-07-01T07:37:36.000Z</time>
      </trkpt>
      <trkpt lat="47.20631" lon="6.68877">
        <ele>927</ele>
        <time>2018-07-01T07:37:37.000Z</time>
      </trkpt>
      <trkpt lat="47.2063" lon="6.68878">
        <ele>927</ele>
        <time>2018-07-01T07:37:38.000Z</time>
      </trkpt>
      <trkpt lat="47.20629" lon="6.68879">
        <ele>928</ele>
        <time>2018-07-01T07:37:39.000Z</time>
      </trkpt>
      <trkpt lat="47.20628" lon="6.68879">
        <ele>928</ele>
        <time>2018-07-01T07:37:40.000Z</time>
      </trkpt>
      <trkpt lat="47.20627" lon="6.6888">
        <ele>928</ele>
        <time>2018-07-01T07:37:41.000Z</time>
      </trkpt>
      <trkpt lat="47.20626" lon="6.6888">
        <ele>928</ele>
        <time>2018-07-01T07:37:42.000Z</time>
      </trkpt>
      <trkpt lat="47.20625" lon="6.68881">
        <ele>928</ele>
        <time>2018-07-01T07:37:43.000Z</time>
      </trkpt>
      <trkpt lat="47.20623" lon="6.68881">
        <ele>928</ele>
        <time>2018-07-01T07:37:44.000Z</time>
      </trkpt>
      <trkpt lat="47.20622" lon="6.68882">
        <ele>929</ele>
        <time>2018-07-01T07:37:45.000Z</time>
      </trkpt>
      <trkpt lat="47.20621" lon="6.68882">
        <ele>929</ele>
        <time>2018-07-01T07:37:46.000Z</time>
      </trkpt>
      <trkpt lat="47.2062" lon="6.68883">
        <ele>929</ele>
        <time>2018-07-01T07:37:47.000Z</time>
      </trkpt>
      <trkpt lat="47.20619" lon="6.68884">
        <ele>929</ele>
        <time>2018-07-01T07:37:48.000Z</time>
      </trkpt>
      <trkpt lat="47.20618" lon="6.68884">
        <ele>929</ele>
        <time>2018-07-01T07:37:49.000Z</time>
      </trkpt>
      <trkpt lat="47.20616" lon="6.68885">
        <ele>929</ele>
        <time>2018-07-01T07:37:50.000Z</time>
      </trkpt>
      <trkpt lat="47.20615" lon="6.68886">
        <ele>930</ele>
        <time>2018-07-01T07:37:51.000Z</time>
      </trkpt>
      <trkpt lat="47.20614" lon="6.68886">
        <ele>930</ele>
        <time>2018-07-01T07:37:52.000Z</time>
      </trkpt>
      <trkpt lat="47.20613" lon="6.68887">
        <ele>930</ele>
        <time>2018-07-01T07:37:53.000Z</time>
      </trkpt>
      <trkpt lat="47.20612" lon="6.68887">
        <ele>930</ele>
        <time>2018-07-01T07:37:54.000Z</time>
      </trkpt>
      <trkpt lat="47.20611" lon="6.68888">
        <ele>930</ele>
        <time>2018-07-01T07:37:55.000Z</time>
      </trkpt>
      <trkpt lat="47.20609" lon="6.68889">
        <ele>931</ele>
        <time>2018-07-01T07:37:56.000Z</time>
      </trkpt>
      <trkpt lat="47.20608" lon="6.68889">
        <ele>931</ele>
        <time>2018-07-01T07:37:57.000Z</time>
      </trkpt>
      <trkpt lat="47.20607" lon="6.6889">
        <ele>931</ele>
        <time>2018-07-01T07:37:58.000Z</time>
      </trkpt>
      <trkpt lat="47.20606" lon="6.68891">
        <ele>931</ele>
        <time>2018-07-01T07:37:59.000Z</time>
      </trkpt>
      <trkpt lat="47.20605" lon="6.68892">
        <ele>931</ele>
        <time>2018-07-01T07:38:00.000Z</time>
      </trkpt>
      <trkpt lat="47.20604" lon="6.68892">
        <ele>932</ele>
        <time>2018-07-01T07:38:01.000Z</time>
      </trkpt>
      <trkpt lat="47.20603" lon="6.68893">
        <ele>932</ele>
        <time>2018-07-01T07:38:02.000Z</time>
      </trkpt>
      <trkpt lat="47.20602" lon="6.68894">
        <ele>932</ele>
        <time>2018-07-01T07:38:03.000Z</time>
      </trkpt>
      <trkpt lat="47.20601" lon="6.68895">
        <ele>932</ele>
        <time>2018-07-01T07:38:04.000Z</time>
      </trkpt>
      <trkpt lat="47.206" lon="6.68895">
        <ele>933</ele>
        <time>2018-07-01T07:38:05.000Z</time>
      </trkpt>
      <trkpt lat="47.20599" lon="6.68896">
        <ele>933</ele>
        <time>2018-07-01T07:38:06.000Z</time>
      </trkpt>
      <trkpt lat="47.20597" lon="6.68897">
        <ele>933</ele>
        <time>2018-07-01T07:38:07.000Z</time>
      </trkpt>
      <trkpt lat="47.20596" lon="6.68897">
        <ele>933</ele>
        <time>2018-07-01T07:38:08.000Z</time>
      </trkpt>
      <trkpt lat="47.20595" lon="6.68898">
        <ele>934</ele>
        <time>2018-07-01T07:38:09.000Z</time>
      </trkpt>
      <trkpt lat="47.20594" lon="6.68899">
        <ele>934</ele>
        <time>2018-07-01T07:38:10.000Z</time>
      </trkpt>
      <trkpt lat="47.20593" lon="6.68899">
        <ele>934</ele>
        <time>2018-07-01T07:38:11.000Z</time>
      </trkpt>
      <trkpt lat="47.20592" lon="6.689">
        <ele>934</ele>
        <time>2018-07-01T07:38:12.000Z</time>
      </trkpt>
      <trkpt lat="47.20591" lon="6.689">
        <ele>935</ele>
        <time>2018-07-01T07:38:13.000Z</time>
      </trkpt>
      <trkpt lat="47.2059" lon="6.68901">
        <ele>935</ele>
        <time>2018-07-01T07:38:14.000Z</time>
      </trkpt>
      <trkpt lat="47.20589" lon="6.68901">
        <ele>935</ele>
        <time>2018-07-01T07:38:15.000Z</time>
      </trkpt>
      <trkpt lat="47.20588" lon="6.68901">
        <ele>935</ele>
        <time>2018-07-01T07:38:16.000Z</time>
      </trkpt>
      <trkpt lat="47.20587" lon="6.68902">
        <ele>935</ele>
        <time>2018-07-01T07:38:17.000Z</time>
      </trkpt>
      <trkpt lat="47.20586" lon="6.68902">
        <ele>936</ele>
        <time>2018-07-01T07:38:18.000Z</time>
      </trkpt>
      <trkpt lat="47.20585" lon="6.68903">
        <ele>936</ele>
        <time>2018-07-01T07:38:19.000Z</time>
      </trkpt>
      <trkpt lat="47.20585" lon="6.68903">
        <ele>936</ele>
        <time>2018-07-01T07:38:20.000Z</time>
      </trkpt>
      <trkpt lat="47.20584" lon="6.68904">
        <ele>936</ele>
        <time>2018-07-01T07:38:21.000Z</time>
      </trkpt>
      <trkpt lat="47.20583" lon="6.68904">
        <ele>943</ele>
        <time>2018-07-01T07:38:22.000Z</time>
      </trkpt>
      <trkpt lat="47.20582" lon="6.68904">
        <ele>943</ele>
        <time>2018-07-01T07:38:23.000Z</time>
      </trkpt>
      <trkpt lat="47.20581" lon="6.68905">
        <ele>943</ele>
        <time>2018-07-01T07:38:24.000Z</time>
      </trkpt>
      <trkpt lat="47.2058" lon="6.68905">
        <ele>943</ele>
        <time>2018-07-01T07:38:25.000Z</time>
      </trkpt>
      <trkpt lat="47.20579" lon="6.68905">
        <ele>943</ele>
        <time>2018-07-01T07:38:26.000Z</time>
      </trkpt>
      <trkpt lat="47.20578" lon="6.68905">
        <ele>943</ele>
        <time>2018-07-01T07:38:27.000Z</time>
      </trkpt>
      <trkpt lat="47.20577" lon="6.68906">
        <ele>943</ele>
        <time>2018-07-01T07:38:28.000Z</time>
      </trkpt>
      <trkpt lat="47.20576" lon="6.68906">
        <ele>943</ele>
        <time>2018-07-01T07:38:29.000Z</time>
      </trkpt>
      <trkpt lat="47.20576" lon="6.68906">
        <ele>943</ele>
        <time>2018-07-01T07:38:30.000Z</time>
      </trkpt>
      <trkpt lat="47.20575" lon="6.68907">
        <ele>943</ele>
        <time>2018-07-01T07:38:31.000Z</time>
      </trkpt>
      <trkpt lat="47.20574" lon="6.68907">
        <ele>943</ele>
        <time>2018-07-01T07:38:32.000Z</time>
      </trkpt>
      <trkpt lat="47.20573" lon="6.68908">
        <ele>943</ele>
        <time>2018-07-01T07:38:33.000Z</time>
      </trkpt>
      <trkpt lat="47.20572" lon="6.68908">
        <ele>943</ele>
        <time>2018-07-01T07:38:34.000Z</time>
      </trkpt>
      <trkpt lat="47.20571" lon="6.68908">
        <ele>944</ele>
        <time>2018-07-01T07:38:35.000Z</time>
      </trkpt>
      <trkpt lat="47.2057" lon="6.68908">
        <ele>944</ele>
        <time>2018-07-01T07:38:36.000Z</time>
      </trkpt>
      <trkpt lat="47.20569" lon="6.68908">
        <ele>944</ele>
        <time>2018-07-01T07:38:37.000Z</time>
      </trkpt>
      <trkpt lat="47.20569" lon="6.68909">
        <ele>944</ele>
        <time>2018-07-01T07:38:38.000Z</time>
      </trkpt>
      <trkpt lat="47.20568" lon="6.68909">
        <ele>944</ele>
        <time>2018-07-01T07:38:39.000Z</time>
      </trkpt>
      <trkpt lat="47.20567" lon="6.68909">
        <ele>944</ele>
        <time>2018-07-01T07:38:40.000Z</time>
      </trkpt>
      <trkpt lat="47.20566" lon="6.68909">
        <ele>944</ele>
        <time>2018-07-01T07:38:41.000Z</time>
      </trkpt>
      <trkpt lat="47.20565" lon="6.6891">
        <ele>944</ele>
        <time>2018-07-01T07:38:42.000Z</time>
      </trkpt>
      <trkpt lat="47.20565" lon="6.6891">
        <ele>944</ele>
        <time>2018-07-01T07:38:43.000Z</time>
      </trkpt>
      <trkpt lat="47.20564" lon="6.6891">
        <ele>944</ele>
        <time>2018-07-01T07:38:44.000Z</time>
      </trkpt>
      <trkpt lat="47.20563" lon="6.6891">
        <ele>945</ele>
        <time>2018-07-01T07:38:45.000Z</time>
      </trkpt>
      <trkpt lat="47.20562" lon="6.6891">
        <ele>945</ele>
        <time>2018-07-01T07:38:46.000Z</time>
      </trkpt>
      <trkpt lat="47.20561" lon="6.6891">
        <ele>945</ele>
        <time>2018-07-01T07:38:47.000Z</time>
      </trkpt>
      <trkpt lat="47.20559" lon="6.6891">
        <ele>945</ele>
        <time>2018-07-01T07:38:48.000Z</time>
      </trkpt>
      <trkpt lat="47.20558" lon="6.68908">
        <ele>945</ele>
        <time>2018-07-01T07:38:49.000Z</time>
      </trkpt>
      <trkpt lat="47.20557" lon="6.68906">
        <ele>945</ele>
        <time>2018-07-01T07:38:50.000Z</time>
      </trkpt>
      <trkpt lat="47.20556" lon="6.68904">
        <ele>945</ele>
        <time>2018-07-01T07:38:51.000Z</time>
      </trkpt>
      <trkpt lat="47.20555" lon="6.68901">
        <ele>946</ele>
        <time>2018-07-01T07:38:52.000Z</time>
      </trkpt>
      <trkpt lat="47.20553" lon="6.68898">
        <ele>946</ele>
        <time>2018-07-01T07:38:53.000Z</time>
      </trkpt>
      <trkpt lat="47.20552" lon="6.68895">
        <ele>946</ele>
        <time>2018-07-01T07:38:54.000Z</time>
      </trkpt>
      <trkpt lat="47.20551" lon="6.68891">
        <ele>946</ele>
        <time>2018-07-01T07:38:55.000Z</time>
      </trkpt>
      <trkpt lat="47.2055" lon="6.68887">
        <ele>946</ele>
        <time>2018-07-01T07:38:56.000Z</time>
      </trkpt>
      <trkpt lat="47.20548" lon="6.68884">
        <ele>946</ele>
        <time>2018-07-01T07:38:57.000Z</time>
      </trkpt>
      <trkpt lat="47.20547" lon="6.6888">
        <ele>946</ele>
        <time>2018-07-01T07:38:58.000Z</time>
      </trkpt>
      <trkpt lat="47.20546" lon="6.68876">
        <ele>946</ele>
        <time>2018-07-01T07:38:59.000Z</time>
      </trkpt>
      <trkpt lat="47.20545" lon="6.68872">
        <ele>946</ele>
        <time>2018-07-01T07:39:00.000Z</time>
      </trkpt>
      <trkpt lat="47.20544" lon="6.68868">
        <ele>946</ele>
        <time>2018-07-01T07:39:01.000Z</time>
      </trkpt>
      <trkpt lat="47.20543" lon="6.68864">
        <ele>946</ele>
        <time>2018-07-01T07:39:02.000Z</time>
      </trkpt>
      <trkpt lat="47.20542" lon="6.68859">
        <ele>946</ele>
        <time>2018-07-01T07:39:03.000Z</time>
      </trkpt>
      <trkpt lat="47.20541" lon="6.68855">
        <ele>946</ele>
        <time>2018-07-01T07:39:04.000Z</time>
      </trkpt>
      <trkpt lat="47.2054" lon="6.6885">
        <ele>946</ele>
        <time>2018-07-01T07:39:05.000Z</time>
      </trkpt>
      <trkpt lat="47.20539" lon="6.68846">
        <ele>946</ele>
        <time>2018-07-01T07:39:06.000Z</time>
      </trkpt>
      <trkpt lat="47.20538" lon="6.68842">
        <ele>946</ele>
        <time>2018-07-01T07:39:07.000Z</time>
      </trkpt>
      <trkpt lat="47.20537" lon="6.68837">
        <ele>946</ele>
        <time>2018-07-01T07:39:08.000Z</time>
      </trkpt>
      <trkpt lat="47.20536" lon="6.68833">
        <ele>944</ele>
        <time>2018-07-01T07:39:09.000Z</time>
      </trkpt>
      <trkpt lat="47.20535" lon="6.68829">
        <ele>944</ele>
        <time>2018-07-01T07:39:10.000Z</time>
      </trkpt>
      <trkpt lat="47.20534" lon="6.68824">
        <ele>944</ele>
        <time>2018-07-01T07:39:11.000Z</time>
      </trkpt>
      <trkpt lat="47.20532" lon="6.6882">
        <ele>944</ele>
        <time>2018-07-01T07:39:12.000Z</time>
      </trkpt>
      <trkpt lat="47.20531" lon="6.68816">
        <ele>944</ele>
        <time>2018-07-01T07:39:13.000Z</time>
      </trkpt>
      <trkpt lat="47.20529" lon="6.68812">
        <ele>944</ele>
        <time>2018-07-01T07:39:14.000Z</time>
      </trkpt>
      <trkpt lat="47.20528" lon="6.68809">
        <ele>944</ele>
        <time>2018-07-01T07:39:15.000Z</time>
      </trkpt>
      <trkpt lat="47.20526" lon="6.68806">
        <ele>944</ele>
        <time>2018-07-01T07:39:16.000Z</time>
      </trkpt>
      <trkpt lat="47.20525" lon="6.68803">
        <ele>944</ele>
        <time>2018-07-01T07:39:17.000Z</time>
      </trkpt>
      <trkpt lat="47.20523" lon="6.68801">
        <ele>944</ele>
        <time>2018-07-01T07:39:18.000Z</time>
      </trkpt>
      <trkpt lat="47.20522" lon="6.68799">
        <ele>944</ele>
        <time>2018-07-01T07:39:19.000Z</time>
      </trkpt>
      <trkpt lat="47.2052" lon="6.68797">
        <ele>944</ele>
        <time>2018-07-01T07:39:20.000Z</time>
      </trkpt>
      <trkpt lat="47.20518" lon="6.68795">
        <ele>944</ele>
        <time>2018-07-01T07:39:21.000Z</time>
      </trkpt>
      <trkpt lat="47.20516" lon="6.68792">
        <ele>944</ele>
        <time>2018-07-01T07:39:22.000Z</time>
      </trkpt>
      <trkpt lat="47.20515" lon="6.6879">
        <ele>944</ele>
        <time>2018-07-01T07:39:23.000Z</time>
      </trkpt>
      <trkpt lat="47.20513" lon="6.68787">
        <ele>944</ele>
        <time>2018-07-01T07:39:24.000Z</time>
      </trkpt>
      <trkpt lat="47.20511" lon="6.68785">
        <ele>944</ele>
        <time>2018-07-01T07:39:25.000Z</time>
      </trkpt>
      <trkpt lat="47.2051" lon="6.68783">
        <ele>944</ele>
        <time>2018-07-01T07:39:26.000Z</time>
      </trkpt>
      <trkpt lat="47.20508" lon="6.6878">
        <ele>944</ele>
        <time>2018-07-01T07:39:27.000Z</time>
      </trkpt>
      <trkpt lat="47.20506" lon="6.68778">
        <ele>944</ele>
        <time>2018-07-01T07:39:28.000Z</time>
      </trkpt>
      <trkpt lat="47.20505" lon="6.68775">
        <ele>944</ele>
        <time>2018-07-01T07:39:29.000Z</time>
      </trkpt>
      <trkpt lat="47.20503" lon="6.68773">
        <ele>945</ele>
        <time>2018-07-01T07:39:30.000Z</time>
      </trkpt>
      <trkpt lat="47.20502" lon="6.6877">
        <ele>945</ele>
        <time>2018-07-01T07:39:31.000Z</time>
      </trkpt>
      <trkpt lat="47.205" lon="6.68768">
        <ele>949</ele>
        <time>2018-07-01T07:39:32.000Z</time>
      </trkpt>
      <trkpt lat="47.20498" lon="6.68765">
        <ele>949</ele>
        <time>2018-07-01T07:39:33.000Z</time>
      </trkpt>
      <trkpt lat="47.20496" lon="6.68763">
        <ele>949</ele>
        <time>2018-07-01T07:39:34.000Z</time>
      </trkpt>
      <trkpt lat="47.20494" lon="6.68761">
        <ele>948</ele>
        <time>2018-07-01T07:39:35.000Z</time>
      </trkpt>
      <trkpt lat="47.20492" lon="6.6876">
        <ele>948</ele>
        <time>2018-07-01T07:39:36.000Z</time>
      </trkpt>
      <trkpt lat="47.2049" lon="6.68758">
        <ele>949</ele>
        <time>2018-07-01T07:39:37.000Z</time>
      </trkpt>
      <trkpt lat="47.20488" lon="6.68757">
        <ele>949</ele>
        <time>2018-07-01T07:39:38.000Z</time>
      </trkpt>
      <trkpt lat="47.20486" lon="6.68755">
        <ele>949</ele>
        <time>2018-07-01T07:39:39.000Z</time>
      </trkpt>
      <trkpt lat="47.20484" lon="6.68753">
        <ele>949</ele>
        <time>2018-07-01T07:39:40.000Z</time>
      </trkpt>
      <trkpt lat="47.20483" lon="6.68752">
        <ele>949</ele>
        <time>2018-07-01T07:39:41.000Z</time>
      </trkpt>
      <trkpt lat="47.20481" lon="6.6875">
        <ele>948</ele>
        <time>2018-07-01T07:39:42.000Z</time>
      </trkpt>
      <trkpt lat="47.20479" lon="6.68748">
        <ele>948</ele>
        <time>2018-07-01T07:39:43.000Z</time>
      </trkpt>
      <trkpt lat="47.20478" lon="6.68746">
        <ele>948</ele>
        <time>2018-07-01T07:39:44.000Z</time>
      </trkpt>
      <trkpt lat="47.20476" lon="6.68744">
        <ele>948</ele>
        <time>2018-07-01T07:39:45.000Z</time>
      </trkpt>
      <trkpt lat="47.20474" lon="6.68742">
        <ele>948</ele>
        <time>2018-07-01T07:39:46.000Z</time>
      </trkpt>
      <trkpt lat="47.20473" lon="6.68739">
        <ele>949</ele>
        <time>2018-07-01T07:39:47.000Z</time>
      </trkpt>
      <trkpt lat="47.20471" lon="6.68737">
        <ele>949</ele>
        <time>2018-07-01T07:39:48.000Z</time>
      </trkpt>
      <trkpt lat="47.20469" lon="6.68735">
        <ele>949</ele>
        <time>2018-07-01T07:39:49.000Z</time>
      </trkpt>
      <trkpt lat="47.20467" lon="6.68733">
        <ele>949</ele>
        <time>2018-07-01T07:39:50.000Z</time>
      </trkpt>
      <trkpt lat="47.20465" lon="6.68732">
        <ele>949</ele>
        <time>2018-07-01T07:39:51.000Z</time>
      </trkpt>
      <trkpt lat="47.20463" lon="6.6873">
        <ele>949</ele>
        <time>2018-07-01T07:39:52.000Z</time>
      </trkpt>
      <trkpt lat="47.20461" lon="6.68729">
        <ele>949</ele>
        <time>2018-07-01T07:39:53.000Z</time>
      </trkpt>
      <trkpt lat="47.20459" lon="6.68728">
        <ele>949</ele>
        <time>2018-07-01T07:39:54.000Z</time>
      </trkpt>
      <trkpt lat="47.20457" lon="6.68727">
        <ele>949</ele>
        <time>2018-07-01T07:39:55.000Z</time>
      </trkpt>
      <trkpt lat="47.20455" lon="6.68726">
        <ele>949</ele>
        <time>2018-07-01T07:39:56.000Z</time>
      </trkpt>
      <trkpt lat="47.20453" lon="6.68725">
        <ele>949</ele>
        <time>2018-07-01T07:39:57.000Z</time>
      </trkpt>
      <trkpt lat="47.20452" lon="6.68723">
        <ele>949</ele>
        <time>2018-07-01T07:39:58.000Z</time>
      </trkpt>
      <trkpt lat="47.2045" lon="6.68723">
        <ele>949</ele>
        <time>2018-07-01T07:39:59.000Z</time>
      </trkpt>
      <trkpt lat="47.20448" lon="6.68722">
        <ele>950</ele>
        <time>2018-07-01T07:40:00.000Z</time>
      </trkpt>
      <trkpt lat="47.20446" lon="6.68721">
        <ele>950</ele>
        <time>2018-07-01T07:40:01.000Z</time>
      </trkpt>
      <trkpt lat="47.20444" lon="6.6872">
        <ele>950</ele>
        <time>2018-07-01T07:40:02.000Z</time>
      </trkpt>
      <trkpt lat="47.20442" lon="6.68719">
        <ele>950</ele>
        <time>2018-07-01T07:40:03.000Z</time>
      </trkpt>
      <trkpt lat="47.2044" lon="6.68719">
        <ele>950</ele>
        <time>2018-07-01T07:40:04.000Z</time>
      </trkpt>
      <trkpt lat="47.20438" lon="6.68718">
        <ele>950</ele>
        <time>2018-07-01T07:40:05.000Z</time>
      </trkpt>
      <trkpt lat="47.20436" lon="6.68717">
        <ele>950</ele>
        <time>2018-07-01T07:40:06.000Z</time>
      </trkpt>
      <trkpt lat="47.20434" lon="6.68716">
        <ele>950</ele>
        <time>2018-07-01T07:40:07.000Z</time>
      </trkpt>
      <trkpt lat="47.20432" lon="6.68716">
        <ele>950</ele>
        <time>2018-07-01T07:40:08.000Z</time>
      </trkpt>
      <trkpt lat="47.2043" lon="6.68715">
        <ele>950</ele>
        <time>2018-07-01T07:40:09.000Z</time>
      </trkpt>
      <trkpt lat="47.20428" lon="6.68714">
        <ele>950</ele>
        <time>2018-07-01T07:40:10.000Z</time>
      </trkpt>
      <trkpt lat="47.20426" lon="6.68713">
        <ele>950</ele>
        <time>2018-07-01T07:40:11.000Z</time>
      </trkpt>
      <trkpt lat="47.20424" lon="6.68712">
        <ele>950</ele>
        <time>2018-07-01T07:40:12.000Z</time>
      </trkpt>
      <trkpt lat="47.20422" lon="6.68711">
        <ele>950</ele>
        <time>2018-07-01T07:40:13.000Z</time>
      </trkpt>
      <trkpt lat="47.20421" lon="6.68709">
        <ele>950</ele>
        <time>2018-07-01T07:40:14.000Z</time>
      </trkpt>
      <trkpt lat="47.20419" lon="6.68709">
        <ele>950</ele>
        <time>2018-07-01T07:40:15.000Z</time>
      </trkpt>
      <trkpt lat="47.20417" lon="6.68708">
        <ele>950</ele>
        <time>2018-07-01T07:40:16.000Z</time>
      </trkpt>
      <trkpt lat="47.20416" lon="6.68708">
        <ele>948</ele>
        <time>2018-07-01T07:40:17.000Z</time>
      </trkpt>
      <trkpt lat="47.20415" lon="6.68707">
        <ele>948</ele>
        <time>2018-07-01T07:40:18.000Z</time>
      </trkpt>
      <trkpt lat="47.20414" lon="6.68708">
        <ele>948</ele>
        <time>2018-07-01T07:40:19.000Z</time>
      </trkpt>
      <trkpt lat="47.20414" lon="6.68708">
        <ele>948</ele>
        <time>2018-07-01T07:40:20.000Z</time>
      </trkpt>
      <trkpt lat="47.20414" lon="6.68708">
        <ele>948</ele>
        <time>2018-07-01T07:40:21.000Z</time>
      </trkpt>
      <trkpt lat="47.20414" lon="6.68708">
        <ele>948</ele>
        <time>2018-07-01T07:40:22.000Z</time>
      </trkpt>
      <trkpt lat="47.20414" lon="6.68708">
        <ele>948</ele>
        <time>2018-07-01T07:40:23.000Z</time>
      </trkpt>
      <trkpt lat="47.20414" lon="6.68708">
        <ele>948</ele>
        <time>2018-07-01T07:40:24.000Z</time>
      </trkpt>
      <trkpt lat="47.20414" lon="6.68708">
        <ele>948</ele>
        <time>2018-07-01T07:40:25.000Z</time>
      </trkpt>
      <trkpt lat="47.20414" lon="6.68708">
        <ele>948</ele>
        <time>2018-07-01T07:40:26.000Z</time>
      </trkpt>
      <trkpt lat="47.20414" lon="6.68708">
        <ele>948</ele>
        <time>2018-07-01T07:40:27.000Z</time>
      </trkpt>
      <trkpt lat="47.20414" lon="6.68708">
        <ele>948</ele>
        <time>2018-07-01T07:40:28.000Z</time>
      </trkpt>
      <trkpt lat="47.20414" lon="6.68708">
        <ele>948</ele>
        <time>2018-07-01T07:40:29.000Z</time>
      </trkpt>
      <trkpt lat="47.20414" lon="6.68708">
        <ele>948</ele>
        <time>2018-07-01T07:40:30.000Z</time>
      </trkpt>
      <trkpt lat="47.20414" lon="6.68708">
        <ele>948</ele>
        <time>2018-07-01T07:40:31.000Z</time>
      </trkpt>
      <trkpt lat="47.20414" lon="6.68708">
        <ele>948</ele>
        <time>2018-07-01T07:40:32.000Z</time>
      </trkpt>
      <trkpt lat="47.20413" lon="6.68708">
        <ele>948</ele>
        <time>2018-07-01T07:40:33.000Z</time>
      </trkpt>
      <trkpt lat="47.20413" lon="6.68708">
        <ele>948</ele>
        <time>2018-07-01T07:40:34.000Z</time>
      </trkpt>
      <trkpt lat="47.20414" lon="6.68707">
        <ele>948</ele>
        <time>2018-07-01T07:40:35.000Z</time>
      </trkpt>
      <trkpt lat="47.20414" lon="6.68706">
        <ele>948</ele>
        <time>2018-07-01T07:40:36.000Z</time>
      </trkpt>
      <trkpt lat="47.20414" lon="6.68705">
        <ele>948</ele>
        <time>2018-07-01T07:40:37.000Z</time>
      </trkpt>
      <trkpt lat="47.20414" lon="6.68704">
        <ele>948</ele>
        <time>2018-07-01T07:40:38.000Z</time>
      </trkpt>
      <trkpt lat="47.20413" lon="6.68704">
        <ele>948</ele>
        <time>2018-07-01T07:40:39.000Z</time>
      </trkpt>
      <trkpt lat="47.20412" lon="6.68704">
        <ele>948</ele>
        <time>2018-07-01T07:40:40.000Z</time>
      </trkpt>
      <trkpt lat="47.2041" lon="6.68705">
        <ele>948</ele>
        <time>2018-07-01T07:40:41.000Z</time>
      </trkpt>
      <trkpt lat="47.20409" lon="6.68706">
        <ele>948</ele>
        <time>2018-07-01T07:40:42.000Z</time>
      </trkpt>
      <trkpt lat="47.20408" lon="6.68708">
        <ele>947</ele>
        <time>2018-07-01T07:40:43.000Z</time>
      </trkpt>
      <trkpt lat="47.20407" lon="6.6871">
        <ele>947</ele>
        <time>2018-07-01T07:40:44.000Z</time>
      </trkpt>
      <trkpt lat="47.20406" lon="6.68713">
        <ele>947</ele>
        <time>2018-07-01T07:40:45.000Z</time>
      </trkpt>
      <trkpt lat="47.20406" lon="6.68716">
        <ele>947</ele>
        <time>2018-07-01T07:40:46.000Z</time>
      </trkpt>
      <trkpt lat="47.20406" lon="6.68718">
        <ele>947</ele>
        <time>2018-07-01T07:40:47.000Z</time>
      </trkpt>
      <trkpt lat="47.20407" lon="6.6872">
        <ele>948</ele>
        <time>2018-07-01T07:40:48.000Z</time>
      </trkpt>
      <trkpt lat="47.20408" lon="6.68723">
        <ele>948</ele>
        <time>2018-07-01T07:40:49.000Z</time>
      </trkpt>
      <trkpt lat="47.20409" lon="6.68725">
        <ele>948</ele>
        <time>2018-07-01T07:40:50.000Z</time>
      </trkpt>
      <trkpt lat="47.20411" lon="6.68728">
        <ele>948</ele>
        <time>2018-07-01T07:40:51.000Z</time>
      </trkpt>
      <trkpt lat="47.20412" lon="6.68732">
        <ele>948</ele>
        <time>2018-07-01T07:40:52.000Z</time>
      </trkpt>
      <trkpt lat="47.20414" lon="6.68735">
        <ele>949</ele>
        <time>2018-07-01T07:40:53.000Z</time>
      </trkpt>
      <trkpt lat="47.20415" lon="6.68738">
        <ele>949</ele>
        <time>2018-07-01T07:40:54.000Z</time>
      </trkpt>
      <trkpt lat="47.20416" lon="6.68741">
        <ele>950</ele>
        <time>2018-07-01T07:40:55.000Z</time>
      </trkpt>
      <trkpt lat="47.20418" lon="6.68743">
        <ele>951</ele>
        <time>2018-07-01T07:40:56.000Z</time>
      </trkpt>
      <trkpt lat="47.20419" lon="6.68747">
        <ele>952</ele>
        <time>2018-07-01T07:40:57.000Z</time>
      </trkpt>
      <trkpt lat="47.20421" lon="6.6875">
        <ele>952</ele>
        <time>2018-07-01T07:40:58.000Z</time>
      </trkpt>
      <trkpt lat="47.20422" lon="6.68753">
        <ele>952</ele>
        <time>2018-07-01T07:40:59.000Z</time>
      </trkpt>
      <trkpt lat="47.20424" lon="6.68756">
        <ele>951</ele>
        <time>2018-07-01T07:41:00.000Z</time>
      </trkpt>
      <trkpt lat="47.20426" lon="6.68759">
        <ele>951</ele>
        <time>2018-07-01T07:41:01.000Z</time>
      </trkpt>
      <trkpt lat="47.20428" lon="6.68761">
        <ele>951</ele>
        <time>2018-07-01T07:41:02.000Z</time>
      </trkpt>
      <trkpt lat="47.20429" lon="6.68765">
        <ele>951</ele>
        <time>2018-07-01T07:41:03.000Z</time>
      </trkpt>
      <trkpt lat="47.2043" lon="6.68768">
        <ele>951</ele>
        <time>2018-07-01T07:41:04.000Z</time>
      </trkpt>
      <trkpt lat="47.20432" lon="6.68772">
        <ele>951</ele>
        <time>2018-07-01T07:41:05.000Z</time>
      </trkpt>
      <trkpt lat="47.20433" lon="6.68775">
        <ele>951</ele>
        <time>2018-07-01T07:41:06.000Z</time>
      </trkpt>
      <trkpt lat="47.20435" lon="6.68779">
        <ele>951</ele>
        <time>2018-07-01T07:41:07.000Z</time>
      </trkpt>
      <trkpt lat="47.20437" lon="6.68782">
        <ele>951</ele>
        <time>2018-07-01T07:41:08.000Z</time>
      </trkpt>
      <trkpt lat="47.20439" lon="6.68784">
        <ele>951</ele>
        <time>2018-07-01T07:41:09.000Z</time>
      </trkpt>
      <trkpt lat="47.2044" lon="6.68788">
        <ele>951</ele>
        <time>2018-07-01T07:41:10.000Z</time>
      </trkpt>
      <trkpt lat="47.20442" lon="6.68791">
        <ele>951</ele>
        <time>2018-07-01T07:41:11.000Z</time>
      </trkpt>
      <trkpt lat="47.20444" lon="6.68794">
        <ele>951</ele>
        <time>2018-07-01T07:41:12.000Z</time>
      </trkpt>
      <trkpt lat="47.20445" lon="6.68798">
        <ele>951</ele>
        <time>2018-07-01T07:41:13.000Z</time>
      </trkpt>
      <trkpt lat="47.20446" lon="6.68802">
        <ele>951</ele>
        <time>2018-07-01T07:41:14.000Z</time>
      </trkpt>
      <trkpt lat="47.20447" lon="6.68805">
        <ele>951</ele>
        <time>2018-07-01T07:41:15.000Z</time>
      </trkpt>
      <trkpt lat="47.20448" lon="6.68809">
        <ele>951</ele>
        <time>2018-07-01T07:41:16.000Z</time>
      </trkpt>
      <trkpt lat="47.20448" lon="6.68812">
        <ele>951</ele>
        <time>2018-07-01T07:41:17.000Z</time>
      </trkpt>
      <trkpt lat="47.2045" lon="6.68816">
        <ele>951</ele>
        <time>2018-07-01T07:41:18.000Z</time>
      </trkpt>
      <trkpt lat="47.20451" lon="6.68819">
        <ele>951</ele>
        <time>2018-07-01T07:41:19.000Z</time>
      </trkpt>
      <trkpt lat="47.20452" lon="6.68823">
        <ele>951</ele>
        <time>2018-07-01T07:41:20.000Z</time>
      </trkpt>
      <trkpt lat="47.20453" lon="6.68827">
        <ele>951</ele>
        <time>2018-07-01T07:41:21.000Z</time>
      </trkpt>
      <trkpt lat="47.20454" lon="6.6883">
        <ele>951</ele>
        <time>2018-07-01T07:41:22.000Z</time>
      </trkpt>
      <trkpt lat="47.20455" lon="6.68833">
        <ele>951</ele>
        <time>2018-07-01T07:41:23.000Z</time>
      </trkpt>
      <trkpt lat="47.20457" lon="6.68837">
        <ele>951</ele>
        <time>2018-07-01T07:41:24.000Z</time>
      </trkpt>
      <trkpt lat="47.20458" lon="6.6884">
        <ele>951</ele>
        <time>2018-07-01T07:41:25.000Z</time>
      </trkpt>
      <trkpt lat="47.2046" lon="6.68844">
        <ele>951</ele>
        <time>2018-07-01T07:41:26.000Z</time>
      </trkpt>
      <trkpt lat="47.20461" lon="6.68848">
        <ele>951</ele>
        <time>2018-07-01T07:41:27.000Z</time>
      </trkpt>
      <trkpt lat="47.20463" lon="6.68852">
        <ele>951</ele>
        <time>2018-07-01T07:41:28.000Z</time>
      </trkpt>
      <trkpt lat="47.20464" lon="6.68856">
        <ele>951</ele>
        <time>2018-07-01T07:41:29.000Z</time>
      </trkpt>
      <trkpt lat="47.20465" lon="6.68859">
        <ele>951</ele>
        <time>2018-07-01T07:41:30.000Z</time>
      </trkpt>
      <trkpt lat="47.20466" lon="6.68863">
        <ele>951</ele>
        <time>2018-07-01T07:41:31.000Z</time>
      </trkpt>
      <trkpt lat="47.20467" lon="6.68866">
        <ele>951</ele>
        <time>2018-07-01T07:41:32.000Z</time>
      </trkpt>
      <trkpt lat="47.20468" lon="6.6887">
        <ele>951</ele>
        <time>2018-07-01T07:41:33.000Z</time>
      </trkpt>
      <trkpt lat="47.20469" lon="6.68874">
        <ele>951</ele>
        <time>2018-07-01T07:41:34.000Z</time>
      </trkpt>
      <trkpt lat="47.2047" lon="6.68877">
        <ele>951</ele>
        <time>2018-07-01T07:41:35.000Z</time>
      </trkpt>
      <trkpt lat="47.20472" lon="6.6888">
        <ele>951</ele>
        <time>2018-07-01T07:41:36.000Z</time>
      </trkpt>
      <trkpt lat="47.20473" lon="6.68883">
        <ele>951</ele>
        <time>2018-07-01T07:41:37.000Z</time>
      </trkpt>
      <trkpt lat="47.20474" lon="6.68886">
        <ele>951</ele>
        <time>2018-07-01T07:41:38.000Z</time>
      </trkpt>
      <trkpt lat="47.20475" lon="6.68889">
        <ele>952</ele>
        <time>2018-07-01T07:41:39.000Z</time>
      </trkpt>
      <trkpt lat="47.20476" lon="6.68892">
        <ele>952</ele>
        <time>2018-07-01T07:41:40.000Z</time>
      </trkpt>
      <trkpt lat="47.20478" lon="6.68895">
        <ele>952</ele>
        <time>2018-07-01T07:41:41.000Z</time>
      </trkpt>
      <trkpt lat="47.20479" lon="6.68897">
        <ele>952</ele>
        <time>2018-07-01T07:41:42.000Z</time>
      </trkpt>
      <trkpt lat="47.20481" lon="6.689">
        <ele>952</ele>
        <time>2018-07-01T07:41:43.000Z</time>
      </trkpt>
      <trkpt lat="47.20482" lon="6.68903">
        <ele>953</ele>
        <time>2018-07-01T07:41:44.000Z</time>
      </trkpt>
      <trkpt lat="47.20483" lon="6.68907">
        <ele>953</ele>
        <time>2018-07-01T07:41:45.000Z</time>
      </trkpt>
      <trkpt lat="47.20484" lon="6.6891">
        <ele>953</ele>
        <time>2018-07-01T07:41:46.000Z</time>
      </trkpt>
      <trkpt lat="47.20485" lon="6.68913">
        <ele>953</ele>
        <time>2018-07-01T07:41:47.000Z</time>
      </trkpt>
      <trkpt lat="47.20487" lon="6.68916">
        <ele>954</ele>
        <time>2018-07-01T07:41:48.000Z</time>
      </trkpt>
      <trkpt lat="47.20488" lon="6.6892">
        <ele>953</ele>
        <time>2018-07-01T07:41:49.000Z</time>
      </trkpt>
      <trkpt lat="47.2049" lon="6.68923">
        <ele>953</ele>
        <time>2018-07-01T07:41:50.000Z</time>
      </trkpt>
      <trkpt lat="47.20492" lon="6.68926">
        <ele>953</ele>
        <time>2018-07-01T07:41:51.000Z</time>
      </trkpt>
      <trkpt lat="47.20493" lon="6.6893">
        <ele>953</ele>
        <time>2018-07-01T07:41:52.000Z</time>
      </trkpt>
      <trkpt lat="47.20494" lon="6.68933">
        <ele>952</ele>
        <time>2018-07-01T07:41:53.000Z</time>
      </trkpt>
      <trkpt lat="47.20495" lon="6.68937">
        <ele>952</ele>
        <time>2018-07-01T07:41:54.000Z</time>
      </trkpt>
      <trkpt lat="47.20496" lon="6.6894">
        <ele>952</ele>
        <time>2018-07-01T07:41:55.000Z</time>
      </trkpt>
      <trkpt lat="47.20497" lon="6.68943">
        <ele>951</ele>
        <time>2018-07-01T07:41:56.000Z</time>
      </trkpt>
      <trkpt lat="47.20498" lon="6.68947">
        <ele>951</ele>
        <time>2018-07-01T07:41:57.000Z</time>
      </trkpt>
      <trkpt lat="47.20499" lon="6.68951">
        <ele>951</ele>
        <time>2018-07-01T07:41:58.000Z</time>
      </trkpt>
      <trkpt lat="47.205" lon="6.68954">
        <ele>951</ele>
        <time>2018-07-01T07:41:59.000Z</time>
      </trkpt>
      <trkpt lat="47.20501" lon="6.68958">
        <ele>952</ele>
        <time>2018-07-01T07:42:00.000Z</time>
      </trkpt>
      <trkpt lat="47.20502" lon="6.68961">
        <ele>952</ele>
        <time>2018-07-01T07:42:01.000Z</time>
      </trkpt>
      <trkpt lat="47.20504" lon="6.68965">
        <ele>952</ele>
        <time>2018-07-01T07:42:02.000Z</time>
      </trkpt>
      <trkpt lat="47.20505" lon="6.68968">
        <ele>952</ele>
        <time>2018-07-01T07:42:03.000Z</time>
      </trkpt>
      <trkpt lat="47.20506" lon="6.68971">
        <ele>952</ele>
        <time>2018-07-01T07:42:04.000Z</time>
      </trkpt>
      <trkpt lat="47.20507" lon="6.68974">
        <ele>952</ele>
        <time>2018-07-01T07:42:05.000Z</time>
      </trkpt>
      <trkpt lat="47.20508" lon="6.68976">
        <ele>952</ele>
        <time>2018-07-01T07:42:06.000Z</time>
      </trkpt>
      <trkpt lat="47.20509" lon="6.68979">
        <ele>952</ele>
        <time>2018-07-01T07:42:07.000Z</time>
      </trkpt>
      <trkpt lat="47.20511" lon="6.68982">
        <ele>952</ele>
        <time>2018-07-01T07:42:08.000Z</time>
      </trkpt>
      <trkpt lat="47.20511" lon="6.68986">
        <ele>952</ele>
        <time>2018-07-01T07:42:09.000Z</time>
      </trkpt>
      <trkpt lat="47.20512" lon="6.68989">
        <ele>952</ele>
        <time>2018-07-01T07:42:10.000Z</time>
      </trkpt>
      <trkpt lat="47.20513" lon="6.68992">
        <ele>952</ele>
        <time>2018-07-01T07:42:11.000Z</time>
      </trkpt>
      <trkpt lat="47.20515" lon="6.68995">
        <ele>952</ele>
        <time>2018-07-01T07:42:12.000Z</time>
      </trkpt>
      <trkpt lat="47.20516" lon="6.68998">
        <ele>952</ele>
        <time>2018-07-01T07:42:13.000Z</time>
      </trkpt>
      <trkpt lat="47.20517" lon="6.69002">
        <ele>952</ele>
        <time>2018-07-01T07:42:14.000Z</time>
      </trkpt>
      <trkpt lat="47.20518" lon="6.69006">
        <ele>952</ele>
        <time>2018-07-01T07:42:15.000Z</time>
      </trkpt>
      <trkpt lat="47.20519" lon="6.6901">
        <ele>951</ele>
        <time>2018-07-01T07:42:16.000Z</time>
      </trkpt>
      <trkpt lat="47.2052" lon="6.69013">
        <ele>951</ele>
        <time>2018-07-01T07:42:17.000Z</time>
      </trkpt>
      <trkpt lat="47.20521" lon="6.69017">
        <ele>951</ele>
        <time>2018-07-01T07:42:18.000Z</time>
      </trkpt>
      <trkpt lat="47.20522" lon="6.69021">
        <ele>950</ele>
        <time>2018-07-01T07:42:19.000Z</time>
      </trkpt>
      <trkpt lat="47.20523" lon="6.69024">
        <ele>950</ele>
        <time>2018-07-01T07:42:20.000Z</time>
      </trkpt>
      <trkpt lat="47.20524" lon="6.69028">
        <ele>950</ele>
        <time>2018-07-01T07:42:21.000Z</time>
      </trkpt>
      <trkpt lat="47.20525" lon="6.69031">
        <ele>950</ele>
        <time>2018-07-01T07:42:22.000Z</time>
      </trkpt>
      <trkpt lat="47.20526" lon="6.69034">
        <ele>950</ele>
        <time>2018-07-01T07:42:23.000Z</time>
      </trkpt>
      <trkpt lat="47.20527" lon="6.69038">
        <ele>949</ele>
        <time>2018-07-01T07:42:24.000Z</time>
      </trkpt>
      <trkpt lat="47.20528" lon="6.69041">
        <ele>949</ele>
        <time>2018-07-01T07:42:25.000Z</time>
      </trkpt>
      <trkpt lat="47.2053" lon="6.69045">
        <ele>949</ele>
        <time>2018-07-01T07:42:26.000Z</time>
      </trkpt>
      <trkpt lat="47.20531" lon="6.69048">
        <ele>949</ele>
        <time>2018-07-01T07:42:27.000Z</time>
      </trkpt>
      <trkpt lat="47.20532" lon="6.69051">
        <ele>949</ele>
        <time>2018-07-01T07:42:28.000Z</time>
      </trkpt>
      <trkpt lat="47.20533" lon="6.69054">
        <ele>949</ele>
        <time>2018-07-01T07:42:29.000Z</time>
      </trkpt>
      <trkpt lat="47.20534" lon="6.69058">
        <ele>949</ele>
        <time>2018-07-01T07:42:30.000Z</time>
      </trkpt>
      <trkpt lat="47.20536" lon="6.69061">
        <ele>949</ele>
        <time>2018-07-01T07:42:31.000Z</time>
      </trkpt>
      <trkpt lat="47.20537" lon="6.69065">
        <ele>949</ele>
        <time>2018-07-01T07:42:32.000Z</time>
      </trkpt>
      <trkpt lat="47.20538" lon="6.69069">
        <ele>949</ele>
        <time>2018-07-01T07:42:33.000Z</time>
      </trkpt>
      <trkpt lat="47.2054" lon="6.69073">
        <ele>949</ele>
        <time>2018-07-01T07:42:34.000Z</time>
      </trkpt>
      <trkpt lat="47.20541" lon="6.69077">
        <ele>949</ele>
        <time>2018-07-01T07:42:35.000Z</time>
      </trkpt>
      <trkpt lat="47.20542" lon="6.69081">
        <ele>949</ele>
        <time>2018-07-01T07:42:36.000Z</time>
      </trkpt>
      <trkpt lat="47.20543" lon="6.69085">
        <ele>948</ele>
        <time>2018-07-01T07:42:37.000Z</time>
      </trkpt>
      <trkpt lat="47.20545" lon="6.69088">
        <ele>948</ele>
        <time>2018-07-01T07:42:38.000Z</time>
      </trkpt>
      <trkpt lat="47.20546" lon="6.69091">
        <ele>948</ele>
        <time>2018-07-01T07:42:39.000Z</time>
      </trkpt>
      <trkpt lat="47.20548" lon="6.69095">
        <ele>948</ele>
        <time>2018-07-01T07:42:40.000Z</time>
      </trkpt>
      <trkpt lat="47.20549" lon="6.69099">
        <ele>948</ele>
        <time>2018-07-01T07:42:41.000Z</time>
      </trkpt>
      <trkpt lat="47.20551" lon="6.69103">
        <ele>948</ele>
        <time>2018-07-01T07:42:42.000Z</time>
      </trkpt>
      <trkpt lat="47.20552" lon="6.69106">
        <ele>948</ele>
        <time>2018-07-01T07:42:43.000Z</time>
      </trkpt>
      <trkpt lat="47.20553" lon="6.6911">
        <ele>948</ele>
        <time>2018-07-01T07:42:44.000Z</time>
      </trkpt>
      <trkpt lat="47.20554" lon="6.69114">
        <ele>948</ele>
        <time>2018-07-01T07:42:45.000Z</time>
      </trkpt>
      <trkpt lat="47.20555" lon="6.69118">
        <ele>948</ele>
        <time>2018-07-01T07:42:46.000Z</time>
      </trkpt>
      <trkpt lat="47.20556" lon="6.69122">
        <ele>948</ele>
        <time>2018-07-01T07:42:47.000Z</time>
      </trkpt>
      <trkpt lat="47.20557" lon="6.69125">
        <ele>948</ele>
        <time>2018-07-01T07:42:48.000Z</time>
      </trkpt>
      <trkpt lat="47.20559" lon="6.69129">
        <ele>948</ele>
        <time>2018-07-01T07:42:49.000Z</time>
      </trkpt>
      <trkpt lat="47.2056" lon="6.69132">
        <ele>948</ele>
        <time>2018-07-01T07:42:50.000Z</time>
      </trkpt>
      <trkpt lat="47.20561" lon="6.69136">
        <ele>948</ele>
        <time>2018-07-01T07:42:51.000Z</time>
      </trkpt>
      <trkpt lat="47.20563" lon="6.69139">
        <ele>948</ele>
        <time>2018-07-01T07:42:52.000Z</time>
      </trkpt>
      <trkpt lat="47.20564" lon="6.69143">
        <ele>948</ele>
        <time>2018-07-01T07:42:53.000Z</time>
      </trkpt>
      <trkpt lat="47.20565" lon="6.69147">
        <ele>948</ele>
        <time>2018-07-01T07:42:54.000Z</time>
      </trkpt>
      <trkpt lat="47.20566" lon="6.69151">
        <ele>949</ele>
        <time>2018-07-01T07:42:55.000Z</time>
      </trkpt>
      <trkpt lat="47.20567" lon="6.69154">
        <ele>949</ele>
        <time>2018-07-01T07:42:56.000Z</time>
      </trkpt>
      <trkpt lat="47.20569" lon="6.69158">
        <ele>949</ele>
        <time>2018-07-01T07:42:57.000Z</time>
      </trkpt>
      <trkpt lat="47.20571" lon="6.69162">
        <ele>949</ele>
        <time>2018-07-01T07:42:58.000Z</time>
      </trkpt>
      <trkpt lat="47.20572" lon="6.69166">
        <ele>949</ele>
        <time>2018-07-01T07:42:59.000Z</time>
      </trkpt>
      <trkpt lat="47.20573" lon="6.6917">
        <ele>949</ele>
        <time>2018-07-01T07:43:00.000Z</time>
      </trkpt>
      <trkpt lat="47.20575" lon="6.69174">
        <ele>949</ele>
        <time>2018-07-01T07:43:01.000Z</time>
      </trkpt>
      <trkpt lat="47.20577" lon="6.69177">
        <ele>948</ele>
        <time>2018-07-01T07:43:02.000Z</time>
      </trkpt>
      <trkpt lat="47.20578" lon="6.69181">
        <ele>948</ele>
        <time>2018-07-01T07:43:03.000Z</time>
      </trkpt>
      <trkpt lat="47.2058" lon="6.69184">
        <ele>948</ele>
        <time>2018-07-01T07:43:04.000Z</time>
      </trkpt>
      <trkpt lat="47.20581" lon="6.69187">
        <ele>947</ele>
        <time>2018-07-01T07:43:05.000Z</time>
      </trkpt>
      <trkpt lat="47.20583" lon="6.69191">
        <ele>947</ele>
        <time>2018-07-01T07:43:06.000Z</time>
      </trkpt>
      <trkpt lat="47.20584" lon="6.69194">
        <ele>947</ele>
        <time>2018-07-01T07:43:07.000Z</time>
      </trkpt>
      <trkpt lat="47.20586" lon="6.69198">
        <ele>947</ele>
        <time>2018-07-01T07:43:08.000Z</time>
      </trkpt>
      <trkpt lat="47.20587" lon="6.69202">
        <ele>946</ele>
        <time>2018-07-01T07:43:09.000Z</time>
      </trkpt>
      <trkpt lat="47.20589" lon="6.69206">
        <ele>946</ele>
        <time>2018-07-01T07:43:10.000Z</time>
      </trkpt>
      <trkpt lat="47.2059" lon="6.6921">
        <ele>946</ele>
        <time>2018-07-01T07:43:11.000Z</time>
      </trkpt>
      <trkpt lat="47.20591" lon="6.69214">
        <ele>946</ele>
        <time>2018-07-01T07:43:12.000Z</time>
      </trkpt>
      <trkpt lat="47.20592" lon="6.69218">
        <ele>946</ele>
        <time>2018-07-01T07:43:13.000Z</time>
      </trkpt>
      <trkpt lat="47.20593" lon="6.69222">
        <ele>946</ele>
        <time>2018-07-01T07:43:14.000Z</time>
      </trkpt>
      <trkpt lat="47.20594" lon="6.69226">
        <ele>946</ele>
        <time>2018-07-01T07:43:15.000Z</time>
      </trkpt>
      <trkpt lat="47.20595" lon="6.69229">
        <ele>946</ele>
        <time>2018-07-01T07:43:16.000Z</time>
      </trkpt>
      <trkpt lat="47.20597" lon="6.69233">
        <ele>946</ele>
        <time>2018-07-01T07:43:17.000Z</time>
      </trkpt>
      <trkpt lat="47.20598" lon="6.69236">
        <ele>946</ele>
        <time>2018-07-01T07:43:18.000Z</time>
      </trkpt>
      <trkpt lat="47.206" lon="6.6924">
        <ele>946</ele>
        <time>2018-07-01T07:43:19.000Z</time>
      </trkpt>
      <trkpt lat="47.20602" lon="6.69243">
        <ele>946</ele>
        <time>2018-07-01T07:43:20.000Z</time>
      </trkpt>
      <trkpt lat="47.20603" lon="6.69247">
        <ele>946</ele>
        <time>2018-07-01T07:43:21.000Z</time>
      </trkpt>
      <trkpt lat="47.20605" lon="6.69251">
        <ele>946</ele>
        <time>2018-07-01T07:43:22.000Z</time>
      </trkpt>
      <trkpt lat="47.20606" lon="6.69255">
        <ele>946</ele>
        <time>2018-07-01T07:43:23.000Z</time>
      </trkpt>
      <trkpt lat="47.20608" lon="6.69259">
        <ele>946</ele>
        <time>2018-07-01T07:43:24.000Z</time>
      </trkpt>
      <trkpt lat="47.2061" lon="6.69263">
        <ele>946</ele>
        <time>2018-07-01T07:43:25.000Z</time>
      </trkpt>
      <trkpt lat="47.20612" lon="6.69266">
        <ele>946</ele>
        <time>2018-07-01T07:43:26.000Z</time>
      </trkpt>
      <trkpt lat="47.20614" lon="6.6927">
        <ele>946</ele>
        <time>2018-07-01T07:43:27.000Z</time>
      </trkpt>
      <trkpt lat="47.20615" lon="6.69274">
        <ele>946</ele>
        <time>2018-07-01T07:43:28.000Z</time>
      </trkpt>
      <trkpt lat="47.20617" lon="6.69278">
        <ele>945</ele>
        <time>2018-07-01T07:43:29.000Z</time>
      </trkpt>
      <trkpt lat="47.20618" lon="6.69282">
        <ele>945</ele>
        <time>2018-07-01T07:43:30.000Z</time>
      </trkpt>
      <trkpt lat="47.2062" lon="6.69286">
        <ele>945</ele>
        <time>2018-07-01T07:43:31.000Z</time>
      </trkpt>
      <trkpt lat="47.20621" lon="6.6929">
        <ele>945</ele>
        <time>2018-07-01T07:43:32.000Z</time>
      </trkpt>
      <trkpt lat="47.20623" lon="6.69294">
        <ele>945</ele>
        <time>2018-07-01T07:43:33.000Z</time>
      </trkpt>
      <trkpt lat="47.20624" lon="6.69297">
        <ele>945</ele>
        <time>2018-07-01T07:43:34.000Z</time>
      </trkpt>
      <trkpt lat="47.20625" lon="6.69301">
        <ele>945</ele>
        <time>2018-07-01T07:43:35.000Z</time>
      </trkpt>
      <trkpt lat="47.20625" lon="6.69304">
        <ele>945</ele>
        <time>2018-07-01T07:43:36.000Z</time>
      </trkpt>
      <trkpt lat="47.20626" lon="6.69307">
        <ele>945</ele>
        <time>2018-07-01T07:43:37.000Z</time>
      </trkpt>
      <trkpt lat="47.20626" lon="6.69309">
        <ele>945</ele>
        <time>2018-07-01T07:43:38.000Z</time>
      </trkpt>
      <trkpt lat="47.20626" lon="6.69311">
        <ele>945</ele>
        <time>2018-07-01T07:43:39.000Z</time>
      </trkpt>
      <trkpt lat="47.20626" lon="6.69313">
        <ele>945</ele>
        <time>2018-07-01T07:43:40.000Z</time>
      </trkpt>
      <trkpt lat="47.20625" lon="6.69314">
        <ele>945</ele>
        <time>2018-07-01T07:43:41.000Z</time>
      </trkpt>
      <trkpt lat="47.20625" lon="6.69314">
        <ele>945</ele>
        <time>2018-07-01T07:43:42.000Z</time>
      </trkpt>
      <trkpt lat="47.20623" lon="6.69314">
        <ele>945</ele>
        <time>2018-07-01T07:43:43.000Z</time>
      </trkpt>
      <trkpt lat="47.20622" lon="6.69315">
        <ele>945</ele>
        <time>2018-07-01T07:43:44.000Z</time>
      </trkpt>
      <trkpt lat="47.2062" lon="6.69315">
        <ele>945</ele>
        <time>2018-07-01T07:43:45.000Z</time>
      </trkpt>
      <trkpt lat="47.20618" lon="6.69315">
        <ele>945</ele>
        <time>2018-07-01T07:43:46.000Z</time>
      </trkpt>
      <trkpt lat="47.20615" lon="6.69316">
        <ele>945</ele>
        <time>2018-07-01T07:43:47.000Z</time>
      </trkpt>
      <trkpt lat="47.20613" lon="6.69317">
        <ele>945</ele>
        <time>2018-07-01T07:43:48.000Z</time>
      </trkpt>
      <trkpt lat="47.20612" lon="6.69318">
        <ele>945</ele>
        <time>2018-07-01T07:43:49.000Z</time>
      </trkpt>
      <trkpt lat="47.20612" lon="6.6932">
        <ele>945</ele>
        <time>2018-07-01T07:43:50.000Z</time>
      </trkpt>
      <trkpt lat="47.20613" lon="6.69323">
        <ele>945</ele>
        <time>2018-07-01T07:43:51.000Z</time>
      </trkpt>
      <trkpt lat="47.20613" lon="6.69326">
        <ele>945</ele>
        <time>2018-07-01T07:43:52.000Z</time>
      </trkpt>
      <trkpt lat="47.20613" lon="6.69329">
        <ele>945</ele>
        <time>2018-07-01T07:43:53.000Z</time>
      </trkpt>
      <trkpt lat="47.20614" lon="6.69333">
        <ele>944</ele>
        <time>2018-07-01T07:43:54.000Z</time>
      </trkpt>
      <trkpt lat="47.20615" lon="6.69337">
        <ele>942</ele>
        <time>2018-07-01T07:43:55.000Z</time>
      </trkpt>
      <trkpt lat="47.20616" lon="6.69341">
        <ele>942</ele>
        <time>2018-07-01T07:43:56.000Z</time>
      </trkpt>
      <trkpt lat="47.20617" lon="6.69345">
        <ele>942</ele>
        <time>2018-07-01T07:43:57.000Z</time>
      </trkpt>
      <trkpt lat="47.20618" lon="6.69349">
        <ele>942</ele>
        <time>2018-07-01T07:43:58.000Z</time>
      </trkpt>
      <trkpt lat="47.2062" lon="6.69352">
        <ele>942</ele>
        <time>2018-07-01T07:43:59.000Z</time>
      </trkpt>
      <trkpt lat="47.20622" lon="6.69356">
        <ele>942</ele>
        <time>2018-07-01T07:44:00.000Z</time>
      </trkpt>
      <trkpt lat="47.20625" lon="6.69359">
        <ele>942</ele>
        <time>2018-07-01T07:44:01.000Z</time>
      </trkpt>
      <trkpt lat="47.20627" lon="6.69363">
        <ele>942</ele>
        <time>2018-07-01T07:44:02.000Z</time>
      </trkpt>
      <trkpt lat="47.20629" lon="6.69366">
        <ele>942</ele>
        <time>2018-07-01T07:44:03.000Z</time>
      </trkpt>
      <trkpt lat="47.20631" lon="6.69369">
        <ele>942</ele>
        <time>2018-07-01T07:44:04.000Z</time>
      </trkpt>
      <trkpt lat="47.20634" lon="6.69371">
        <ele>942</ele>
        <time>2018-07-01T07:44:05.000Z</time>
      </trkpt>
      <trkpt lat="47.20636" lon="6.69374">
        <ele>942</ele>
        <time>2018-07-01T07:44:06.000Z</time>
      </trkpt>
      <trkpt lat="47.20638" lon="6.69377">
        <ele>942</ele>
        <time>2018-07-01T07:44:07.000Z</time>
      </trkpt>
      <trkpt lat="47.20641" lon="6.6938">
        <ele>942</ele>
        <time>2018-07-01T07:44:08.000Z</time>
      </trkpt>
      <trkpt lat="47.20643" lon="6.69383">
        <ele>942</ele>
        <time>2018-07-01T07:44:09.000Z</time>
      </trkpt>
      <trkpt lat="47.20645" lon="6.69386">
        <ele>942</ele>
        <time>2018-07-01T07:44:10.000Z</time>
      </trkpt>
      <trkpt lat="47.20647" lon="6.69389">
        <ele>942</ele>
        <time>2018-07-01T07:44:11.000Z</time>
      </trkpt>
      <trkpt lat="47.2065" lon="6.69392">
        <ele>942</ele>
        <time>2018-07-01T07:44:12.000Z</time>
      </trkpt>
      <trkpt lat="47.20652" lon="6.69395">
        <ele>942</ele>
        <time>2018-07-01T07:44:13.000Z</time>
      </trkpt>
      <trkpt lat="47.20655" lon="6.69399">
        <ele>942</ele>
        <time>2018-07-01T07:44:14.000Z</time>
      </trkpt>
      <trkpt lat="47.20657" lon="6.69402">
        <ele>942</ele>
        <time>2018-07-01T07:44:15.000Z</time>
      </trkpt>
      <trkpt lat="47.2066" lon="6.69405">
        <ele>942</ele>
        <time>2018-07-01T07:44:16.000Z</time>
      </trkpt>
      <trkpt lat="47.20663" lon="6.69409">
        <ele>943</ele>
        <time>2018-07-01T07:44:17.000Z</time>
      </trkpt>
      <trkpt lat="47.20665" lon="6.69413">
        <ele>943</ele>
        <time>2018-07-01T07:44:18.000Z</time>
      </trkpt>
      <trkpt lat="47.20668" lon="6.69416">
        <ele>943</ele>
        <time>2018-07-01T07:44:19.000Z</time>
      </trkpt>
      <trkpt lat="47.20671" lon="6.69419">
        <ele>942</ele>
        <time>2018-07-01T07:44:20.000Z</time>
      </trkpt>
      <trkpt lat="47.20673" lon="6.69422">
        <ele>942</ele>
        <time>2018-07-01T07:44:21.000Z</time>
      </trkpt>
      <trkpt lat="47.20676" lon="6.69425">
        <ele>942</ele>
        <time>2018-07-01T07:44:22.000Z</time>
      </trkpt>
      <trkpt lat="47.20678" lon="6.69427">
        <ele>941</ele>
        <time>2018-07-01T07:44:23.000Z</time>
      </trkpt>
      <trkpt lat="47.20681" lon="6.69429">
        <ele>941</ele>
        <time>2018-07-01T07:44:24.000Z</time>
      </trkpt>
      <trkpt lat="47.20684" lon="6.69432">
        <ele>941</ele>
        <time>2018-07-01T07:44:25.000Z</time>
      </trkpt>
      <trkpt lat="47.20686" lon="6.69435">
        <ele>941</ele>
        <time>2018-07-01T07:44:26.000Z</time>
      </trkpt>
      <trkpt lat="47.20688" lon="6.69438">
        <ele>940</ele>
        <time>2018-07-01T07:44:27.000Z</time>
      </trkpt>
      <trkpt lat="47.2069" lon="6.69441">
        <ele>940</ele>
        <time>2018-07-01T07:44:28.000Z</time>
      </trkpt>
      <trkpt lat="47.20691" lon="6.69444">
        <ele>940</ele>
        <time>2018-07-01T07:44:29.000Z</time>
      </trkpt>
      <trkpt lat="47.20694" lon="6.69448">
        <ele>940</ele>
        <time>2018-07-01T07:44:30.000Z</time>
      </trkpt>
      <trkpt lat="47.20696" lon="6.69451">
        <ele>940</ele>
        <time>2018-07-01T07:44:31.000Z</time>
      </trkpt>
      <trkpt lat="47.20698" lon="6.69454">
        <ele>940</ele>
        <time>2018-07-01T07:44:32.000Z</time>
      </trkpt>
      <trkpt lat="47.207" lon="6.69457">
        <ele>939</ele>
        <time>2018-07-01T07:44:33.000Z</time>
      </trkpt>
      <trkpt lat="47.20703" lon="6.6946">
        <ele>939</ele>
        <time>2018-07-01T07:44:34.000Z</time>
      </trkpt>
      <trkpt lat="47.20706" lon="6.69463">
        <ele>939</ele>
        <time>2018-07-01T07:44:35.000Z</time>
      </trkpt>
      <trkpt lat="47.20708" lon="6.69466">
        <ele>939</ele>
        <time>2018-07-01T07:44:36.000Z</time>
      </trkpt>
      <trkpt lat="47.20711" lon="6.69469">
        <ele>939</ele>
        <time>2018-07-01T07:44:37.000Z</time>
      </trkpt>
      <trkpt lat="47.20713" lon="6.69471">
        <ele>939</ele>
        <time>2018-07-01T07:44:38.000Z</time>
      </trkpt>
      <trkpt lat="47.20716" lon="6.69474">
        <ele>939</ele>
        <time>2018-07-01T07:44:39.000Z</time>
      </trkpt>
      <trkpt lat="47.20718" lon="6.69477">
        <ele>939</ele>
        <time>2018-07-01T07:44:40.000Z</time>
      </trkpt>
      <trkpt lat="47.20721" lon="6.69481">
        <ele>939</ele>
        <time>2018-07-01T07:44:41.000Z</time>
      </trkpt>
      <trkpt lat="47.20724" lon="6.69484">
        <ele>939</ele>
        <time>2018-07-01T07:44:42.000Z</time>
      </trkpt>
      <trkpt lat="47.20727" lon="6.69488">
        <ele>939</ele>
        <time>2018-07-01T07:44:43.000Z</time>
      </trkpt>
      <trkpt lat="47.2073" lon="6.69491">
        <ele>939</ele>
        <time>2018-07-01T07:44:44.000Z</time>
      </trkpt>
      <trkpt lat="47.20732" lon="6.69495">
        <ele>939</ele>
        <time>2018-07-01T07:44:45.000Z</time>
      </trkpt>
      <trkpt lat="47.20735" lon="6.69498">
        <ele>940</ele>
        <time>2018-07-01T07:44:46.000Z</time>
      </trkpt>
      <trkpt lat="47.20737" lon="6.69502">
        <ele>938</ele>
        <time>2018-07-01T07:44:47.000Z</time>
      </trkpt>
      <trkpt lat="47.2074" lon="6.69505">
        <ele>938</ele>
        <time>2018-07-01T07:44:48.000Z</time>
      </trkpt>
      <trkpt lat="47.20743" lon="6.69509">
        <ele>938</ele>
        <time>2018-07-01T07:44:49.000Z</time>
      </trkpt>
      <trkpt lat="47.20746" lon="6.69512">
        <ele>938</ele>
        <time>2018-07-01T07:44:50.000Z</time>
      </trkpt>
      <trkpt lat="47.20749" lon="6.69516">
        <ele>938</ele>
        <time>2018-07-01T07:44:51.000Z</time>
      </trkpt>
      <trkpt lat="47.20752" lon="6.69518">
        <ele>937</ele>
        <time>2018-07-01T07:44:52.000Z</time>
      </trkpt>
      <trkpt lat="47.20754" lon="6.6952">
        <ele>937</ele>
        <time>2018-07-01T07:44:53.000Z</time>
      </trkpt>
      <trkpt lat="47.20757" lon="6.69522">
        <ele>936</ele>
        <time>2018-07-01T07:44:54.000Z</time>
      </trkpt>
      <trkpt lat="47.2076" lon="6.69524">
        <ele>936</ele>
        <time>2018-07-01T07:44:55.000Z</time>
      </trkpt>
      <trkpt lat="47.20763" lon="6.69525">
        <ele>936</ele>
        <time>2018-07-01T07:44:56.000Z</time>
      </trkpt>
      <trkpt lat="47.20766" lon="6.69526">
        <ele>936</ele>
        <time>2018-07-01T07:44:57.000Z</time>
      </trkpt>
      <trkpt lat="47.20769" lon="6.69526">
        <ele>935</ele>
        <time>2018-07-01T07:44:58.000Z</time>
      </trkpt>
      <trkpt lat="47.20773" lon="6.69527">
        <ele>935</ele>
        <time>2018-07-01T07:44:59.000Z</time>
      </trkpt>
      <trkpt lat="47.20776" lon="6.69528">
        <ele>935</ele>
        <time>2018-07-01T07:45:00.000Z</time>
      </trkpt>
      <trkpt lat="47.20779" lon="6.6953">
        <ele>934</ele>
        <time>2018-07-01T07:45:01.000Z</time>
      </trkpt>
      <trkpt lat="47.20782" lon="6.69532">
        <ele>934</ele>
        <time>2018-07-01T07:45:02.000Z</time>
      </trkpt>
      <trkpt lat="47.20785" lon="6.69534">
        <ele>934</ele>
        <time>2018-07-01T07:45:03.000Z</time>
      </trkpt>
      <trkpt lat="47.20787" lon="6.69537">
        <ele>934</ele>
        <time>2018-07-01T07:45:04.000Z</time>
      </trkpt>
      <trkpt lat="47.2079" lon="6.6954">
        <ele>934</ele>
        <time>2018-07-01T07:45:05.000Z</time>
      </trkpt>
      <trkpt lat="47.20793" lon="6.69544">
        <ele>933</ele>
        <time>2018-07-01T07:45:06.000Z</time>
      </trkpt>
      <trkpt lat="47.20794" lon="6.69549">
        <ele>933</ele>
        <time>2018-07-01T07:45:07.000Z</time>
      </trkpt>
      <trkpt lat="47.20796" lon="6.69553">
        <ele>933</ele>
        <time>2018-07-01T07:45:08.000Z</time>
      </trkpt>
      <trkpt lat="47.20797" lon="6.69558">
        <ele>933</ele>
        <time>2018-07-01T07:45:09.000Z</time>
      </trkpt>
      <trkpt lat="47.20798" lon="6.69563">
        <ele>933</ele>
        <time>2018-07-01T07:45:10.000Z</time>
      </trkpt>
      <trkpt lat="47.208" lon="6.69568">
        <ele>933</ele>
        <time>2018-07-01T07:45:11.000Z</time>
      </trkpt>
      <trkpt lat="47.20801" lon="6.69574">
        <ele>933</ele>
        <time>2018-07-01T07:45:12.000Z</time>
      </trkpt>
      <trkpt lat="47.20802" lon="6.69579">
        <ele>933</ele>
        <time>2018-07-01T07:45:13.000Z</time>
      </trkpt>
      <trkpt lat="47.20803" lon="6.69584">
        <ele>933</ele>
        <time>2018-07-01T07:45:14.000Z</time>
      </trkpt>
      <trkpt lat="47.20804" lon="6.69589">
        <ele>933</ele>
        <time>2018-07-01T07:45:15.000Z</time>
      </trkpt>
      <trkpt lat="47.20805" lon="6.69595">
        <ele>932</ele>
        <time>2018-07-01T07:45:16.000Z</time>
      </trkpt>
      <trkpt lat="47.20807" lon="6.696">
        <ele>932</ele>
        <time>2018-07-01T07:45:17.000Z</time>
      </trkpt>
      <trkpt lat="47.20808" lon="6.69605">
        <ele>932</ele>
        <time>2018-07-01T07:45:18.000Z</time>
      </trkpt>
      <trkpt lat="47.20809" lon="6.69611">
        <ele>932</ele>
        <time>2018-07-01T07:45:19.000Z</time>
      </trkpt>
      <trkpt lat="47.20809" lon="6.69616">
        <ele>933</ele>
        <time>2018-07-01T07:45:20.000Z</time>
      </trkpt>
      <trkpt lat="47.2081" lon="6.69621">
        <ele>933</ele>
        <time>2018-07-01T07:45:21.000Z</time>
      </trkpt>
      <trkpt lat="47.2081" lon="6.69627">
        <ele>933</ele>
        <time>2018-07-01T07:45:22.000Z</time>
      </trkpt>
      <trkpt lat="47.2081" lon="6.69632">
        <ele>933</ele>
        <time>2018-07-01T07:45:23.000Z</time>
      </trkpt>
      <trkpt lat="47.2081" lon="6.69637">
        <ele>933</ele>
        <time>2018-07-01T07:45:24.000Z</time>
      </trkpt>
      <trkpt lat="47.2081" lon="6.69642">
        <ele>933</ele>
        <time>2018-07-01T07:45:25.000Z</time>
      </trkpt>
      <trkpt lat="47.2081" lon="6.69646">
        <ele>932</ele>
        <time>2018-07-01T07:45:26.000Z</time>
      </trkpt>
      <trkpt lat="47.20809" lon="6.69651">
        <ele>932</ele>
        <time>2018-07-01T07:45:27.000Z</time>
      </trkpt>
      <trkpt lat="47.20809" lon="6.69655">
        <ele>932</ele>
        <time>2018-07-01T07:45:28.000Z</time>
      </trkpt>
      <trkpt lat="47.20808" lon="6.69659">
        <ele>932</ele>
        <time>2018-07-01T07:45:29.000Z</time>
      </trkpt>
      <trkpt lat="47.20807" lon="6.69662">
        <ele>932</ele>
        <time>2018-07-01T07:45:30.000Z</time>
      </trkpt>
      <trkpt lat="47.20806" lon="6.69664">
        <ele>932</ele>
        <time>2018-07-01T07:45:31.000Z</time>
      </trkpt>
      <trkpt lat="47.20806" lon="6.69666">
        <ele>932</ele>
        <time>2018-07-01T07:45:32.000Z</time>
      </trkpt>
      <trkpt lat="47.20805" lon="6.69668">
        <ele>932</ele>
        <time>2018-07-01T07:45:33.000Z</time>
      </trkpt>
      <trkpt lat="47.20804" lon="6.6967">
        <ele>932</ele>
        <time>2018-07-01T07:45:34.000Z</time>
      </trkpt>
      <trkpt lat="47.20804" lon="6.69672">
        <ele>932</ele>
        <time>2018-07-01T07:45:35.000Z</time>
      </trkpt>
      <trkpt lat="47.20803" lon="6.69674">
        <ele>932</ele>
        <time>2018-07-01T07:45:36.000Z</time>
      </trkpt>
      <trkpt lat="47.20803" lon="6.69676">
        <ele>932</ele>
        <time>2018-07-01T07:45:37.000Z</time>
      </trkpt>
      <trkpt lat="47.20802" lon="6.69678">
        <ele>932</ele>
        <time>2018-07-01T07:45:38.000Z</time>
      </trkpt>
      <trkpt lat="47.20801" lon="6.6968">
        <ele>932</ele>
        <time>2018-07-01T07:45:39.000Z</time>
      </trkpt>
      <trkpt lat="47.20801" lon="6.69683">
        <ele>932</ele>
        <time>2018-07-01T07:45:40.000Z</time>
      </trkpt>
      <trkpt lat="47.20801" lon="6.69685">
        <ele>932</ele>
        <time>2018-07-01T07:45:41.000Z</time>
      </trkpt>
      <trkpt lat="47.208" lon="6.69688">
        <ele>932</ele>
        <time>2018-07-01T07:45:42.000Z</time>
      </trkpt>
      <trkpt lat="47.208" lon="6.69691">
        <ele>932</ele>
        <time>2018-07-01T07:45:43.000Z</time>
      </trkpt>
      <trkpt lat="47.20799" lon="6.69694">
        <ele>932</ele>
        <time>2018-07-01T07:45:44.000Z</time>
      </trkpt>
      <trkpt lat="47.20799" lon="6.69697">
        <ele>932</ele>
        <time>2018-07-01T07:45:45.000Z</time>
      </trkpt>
      <trkpt lat="47.20798" lon="6.69699">
        <ele>932</ele>
        <time>2018-07-01T07:45:46.000Z</time>
      </trkpt>
      <trkpt lat="47.20798" lon="6.69701">
        <ele>932</ele>
        <time>2018-07-01T07:45:47.000Z</time>
      </trkpt>
      <trkpt lat="47.20797" lon="6.69704">
        <ele>932</ele>
        <time>2018-07-01T07:45:48.000Z</time>
      </trkpt>
      <trkpt lat="47.20797" lon="6.69706">
        <ele>932</ele>
        <time>2018-07-01T07:45:49.000Z</time>
      </trkpt>
      <trkpt lat="47.20796" lon="6.69708">
        <ele>932</ele>
        <time>2018-07-01T07:45:50.000Z</time>
      </trkpt>
      <trkpt lat="47.20795" lon="6.6971">
        <ele>932</ele>
        <time>2018-07-01T07:45:51.000Z</time>
      </trkpt>
      <trkpt lat="47.20795" lon="6.69713">
        <ele>932</ele>
        <time>2018-07-01T07:45:52.000Z</time>
      </trkpt>
      <trkpt lat="47.20794" lon="6.69715">
        <ele>932</ele>
        <time>2018-07-01T07:45:53.000Z</time>
      </trkpt>
      <trkpt lat="47.20794" lon="6.69718">
        <ele>932</ele>
        <time>2018-07-01T07:45:54.000Z</time>
      </trkpt>
      <trkpt lat="47.20793" lon="6.6972">
        <ele>932</ele>
        <time>2018-07-01T07:45:55.000Z</time>
      </trkpt>
      <trkpt lat="47.20792" lon="6.69723">
        <ele>932</ele>
        <time>2018-07-01T07:45:56.000Z</time>
      </trkpt>
      <trkpt lat="47.20792" lon="6.69725">
        <ele>932</ele>
        <time>2018-07-01T07:45:57.000Z</time>
      </trkpt>
      <trkpt lat="47.20792" lon="6.69727">
        <ele>932</ele>
        <time>2018-07-01T07:45:58.000Z</time>
      </trkpt>
      <trkpt lat="47.20792" lon="6.69729">
        <ele>932</ele>
        <time>2018-07-01T07:45:59.000Z</time>
      </trkpt>
      <trkpt lat="47.20792" lon="6.69732">
        <ele>932</ele>
        <time>2018-07-01T07:46:00.000Z</time>
      </trkpt>
      <trkpt lat="47.20792" lon="6.69734">
        <ele>932</ele>
        <time>2018-07-01T07:46:01.000Z</time>
      </trkpt>
      <trkpt lat="47.20793" lon="6.69736">
        <ele>932</ele>
        <time>2018-07-01T07:46:02.000Z</time>
      </trkpt>
      <trkpt lat="47.20793" lon="6.69738">
        <ele>932</ele>
        <time>2018-07-01T07:46:03.000Z</time>
      </trkpt>
      <trkpt lat="47.20793" lon="6.6974">
        <ele>932</ele>
        <time>2018-07-01T07:46:04.000Z</time>
      </trkpt>
      <trkpt lat="47.20793" lon="6.69742">
        <ele>932</ele>
        <time>2018-07-01T07:46:05.000Z</time>
      </trkpt>
      <trkpt lat="47.20793" lon="6.69745">
        <ele>932</ele>
        <time>2018-07-01T07:46:06.000Z</time>
      </trkpt>
      <trkpt lat="47.20793" lon="6.69748">
        <ele>932</ele>
        <time>2018-07-01T07:46:07.000Z</time>
      </trkpt>
      <trkpt lat="47.20794" lon="6.69751">
        <ele>932</ele>
        <time>2018-07-01T07:46:08.000Z</time>
      </trkpt>
      <trkpt lat="47.20794" lon="6.69754">
        <ele>932</ele>
        <time>2018-07-01T07:46:09.000Z</time>
      </trkpt>
      <trkpt lat="47.20795" lon="6.69757">
        <ele>932</ele>
        <time>2018-07-01T07:46:10.000Z</time>
      </trkpt>
      <trkpt lat="47.20797" lon="6.6976">
        <ele>932</ele>
        <time>2018-07-01T07:46:11.000Z</time>
      </trkpt>
      <trkpt lat="47.20798" lon="6.69764">
        <ele>932</ele>
        <time>2018-07-01T07:46:12.000Z</time>
      </trkpt>
      <trkpt lat="47.20799" lon="6.69768">
        <ele>932</ele>
        <time>2018-07-01T07:46:13.000Z</time>
      </trkpt>
      <trkpt lat="47.208" lon="6.69771">
        <ele>932</ele>
        <time>2018-07-01T07:46:14.000Z</time>
      </trkpt>
      <trkpt lat="47.20801" lon="6.69775">
        <ele>932</ele>
        <time>2018-07-01T07:46:15.000Z</time>
      </trkpt>
      <trkpt lat="47.20802" lon="6.69779">
        <ele>932</ele>
        <time>2018-07-01T07:46:16.000Z</time>
      </trkpt>
      <trkpt lat="47.20803" lon="6.69783">
        <ele>933</ele>
        <time>2018-07-01T07:46:17.000Z</time>
      </trkpt>
      <trkpt lat="47.20803" lon="6.69788">
        <ele>933</ele>
        <time>2018-07-01T07:46:18.000Z</time>
      </trkpt>
      <trkpt lat="47.20804" lon="6.69791">
        <ele>933</ele>
        <time>2018-07-01T07:46:19.000Z</time>
      </trkpt>
      <trkpt lat="47.20805" lon="6.69795">
        <ele>933</ele>
        <time>2018-07-01T07:46:20.000Z</time>
      </trkpt>
      <trkpt lat="47.20806" lon="6.69798">
        <ele>933</ele>
        <time>2018-07-01T07:46:21.000Z</time>
      </trkpt>
      <trkpt lat="47.20807" lon="6.69801">
        <ele>933</ele>
        <time>2018-07-01T07:46:22.000Z</time>
      </trkpt>
      <trkpt lat="47.20807" lon="6.69805">
        <ele>933</ele>
        <time>2018-07-01T07:46:23.000Z</time>
      </trkpt>
      <trkpt lat="47.20809" lon="6.69808">
        <ele>934</ele>
        <time>2018-07-01T07:46:24.000Z</time>
      </trkpt>
      <trkpt lat="47.2081" lon="6.69812">
        <ele>934</ele>
        <time>2018-07-01T07:46:25.000Z</time>
      </trkpt>
      <trkpt lat="47.20811" lon="6.69815">
        <ele>934</ele>
        <time>2018-07-01T07:46:26.000Z</time>
      </trkpt>
      <trkpt lat="47.20812" lon="6.69818">
        <ele>935</ele>
        <time>2018-07-01T07:46:27.000Z</time>
      </trkpt>
      <trkpt lat="47.20813" lon="6.69822">
        <ele>935</ele>
        <time>2018-07-01T07:46:28.000Z</time>
      </trkpt>
      <trkpt lat="47.20815" lon="6.69826">
        <ele>936</ele>
        <time>2018-07-01T07:46:29.000Z</time>
      </trkpt>
      <trkpt lat="47.20816" lon="6.69829">
        <ele>936</ele>
        <time>2018-07-01T07:46:30.000Z</time>
      </trkpt>
      <trkpt lat="47.20818" lon="6.69833">
        <ele>936</ele>
        <time>2018-07-01T07:46:31.000Z</time>
      </trkpt>
      <trkpt lat="47.20818" lon="6.69836">
        <ele>936</ele>
        <time>2018-07-01T07:46:32.000Z</time>
      </trkpt>
      <trkpt lat="47.20819" lon="6.6984">
        <ele>936</ele>
        <time>2018-07-01T07:46:33.000Z</time>
      </trkpt>
      <trkpt lat="47.2082" lon="6.69843">
        <ele>936</ele>
        <time>2018-07-01T07:46:34.000Z</time>
      </trkpt>
      <trkpt lat="47.20821" lon="6.69847">
        <ele>936</ele>
        <time>2018-07-01T07:46:35.000Z</time>
      </trkpt>
      <trkpt lat="47.20821" lon="6.6985">
        <ele>935</ele>
        <time>2018-07-01T07:46:36.000Z</time>
      </trkpt>
      <trkpt lat="47.20822" lon="6.69854">
        <ele>935</ele>
        <time>2018-07-01T07:46:37.000Z</time>
      </trkpt>
      <trkpt lat="47.20822" lon="6.69859">
        <ele>935</ele>
        <time>2018-07-01T07:46:38.000Z</time>
      </trkpt>
      <trkpt lat="47.20823" lon="6.69863">
        <ele>934</ele>
        <time>2018-07-01T07:46:39.000Z</time>
      </trkpt>
      <trkpt lat="47.20823" lon="6.69866">
        <ele>934</ele>
        <time>2018-07-01T07:46:40.000Z</time>
      </trkpt>
      <trkpt lat="47.20824" lon="6.6987">
        <ele>934</ele>
        <time>2018-07-01T07:46:41.000Z</time>
      </trkpt>
      <trkpt lat="47.20824" lon="6.69873">
        <ele>934</ele>
        <time>2018-07-01T07:46:42.000Z</time>
      </trkpt>
      <trkpt lat="47.20824" lon="6.69876">
        <ele>934</ele>
        <time>2018-07-01T07:46:43.000Z</time>
      </trkpt>
      <trkpt lat="47.20824" lon="6.69879">
        <ele>934</ele>
        <time>2018-07-01T07:46:44.000Z</time>
      </trkpt>
      <trkpt lat="47.20825" lon="6.69882">
        <ele>934</ele>
        <time>2018-07-01T07:46:45.000Z</time>
      </trkpt>
      <trkpt lat="47.20826" lon="6.69886">
        <ele>934</ele>
        <time>2018-07-01T07:46:46.000Z</time>
      </trkpt>
      <trkpt lat="47.20827" lon="6.69889">
        <ele>934</ele>
        <time>2018-07-01T07:46:47.000Z</time>
      </trkpt>
      <trkpt lat="47.20827" lon="6.69893">
        <ele>935</ele>
        <time>2018-07-01T07:46:48.000Z</time>
      </trkpt>
      <trkpt lat="47.20829" lon="6.69897">
        <ele>935</ele>
        <time>2018-07-01T07:46:49.000Z</time>
      </trkpt>
      <trkpt lat="47.2083" lon="6.69901">
        <ele>936</ele>
        <time>2018-07-01T07:46:50.000Z</time>
      </trkpt>
      <trkpt lat="47.20831" lon="6.69905">
        <ele>936</ele>
        <time>2018-07-01T07:46:51.000Z</time>
      </trkpt>
      <trkpt lat="47.20833" lon="6.69909">
        <ele>937</ele>
        <time>2018-07-01T07:46:52.000Z</time>
      </trkpt>
      <trkpt lat="47.20834" lon="6.69912">
        <ele>938</ele>
        <time>2018-07-01T07:46:53.000Z</time>
      </trkpt>
      <trkpt lat="47.20836" lon="6.69915">
        <ele>938</ele>
        <time>2018-07-01T07:46:54.000Z</time>
      </trkpt>
      <trkpt lat="47.20837" lon="6.69918">
        <ele>938</ele>
        <time>2018-07-01T07:46:55.000Z</time>
      </trkpt>
      <trkpt lat="47.20839" lon="6.69922">
        <ele>938</ele>
        <time>2018-07-01T07:46:56.000Z</time>
      </trkpt>
      <trkpt lat="47.2084" lon="6.69926">
        <ele>937</ele>
        <time>2018-07-01T07:46:57.000Z</time>
      </trkpt>
      <trkpt lat="47.20842" lon="6.69929">
        <ele>937</ele>
        <time>2018-07-01T07:46:58.000Z</time>
      </trkpt>
      <trkpt lat="47.20844" lon="6.69933">
        <ele>936</ele>
        <time>2018-07-01T07:46:59.000Z</time>
      </trkpt>
      <trkpt lat="47.20846" lon="6.69936">
        <ele>936</ele>
        <time>2018-07-01T07:47:00.000Z</time>
      </trkpt>
      <trkpt lat="47.20847" lon="6.6994">
        <ele>935</ele>
        <time>2018-07-01T07:47:01.000Z</time>
      </trkpt>
      <trkpt lat="47.20849" lon="6.69945">
        <ele>935</ele>
        <time>2018-07-01T07:47:02.000Z</time>
      </trkpt>
      <trkpt lat="47.2085" lon="6.69948">
        <ele>935</ele>
        <time>2018-07-01T07:47:03.000Z</time>
      </trkpt>
      <trkpt lat="47.20852" lon="6.69952">
        <ele>935</ele>
        <time>2018-07-01T07:47:04.000Z</time>
      </trkpt>
      <trkpt lat="47.20853" lon="6.69956">
        <ele>934</ele>
        <time>2018-07-01T07:47:05.000Z</time>
      </trkpt>
      <trkpt lat="47.20854" lon="6.69961">
        <ele>934</ele>
        <time>2018-07-01T07:47:06.000Z</time>
      </trkpt>
      <trkpt lat="47.20855" lon="6.69965">
        <ele>934</ele>
        <time>2018-07-01T07:47:07.000Z</time>
      </trkpt>
      <trkpt lat="47.20856" lon="6.69969">
        <ele>934</ele>
        <time>2018-07-01T07:47:08.000Z</time>
      </trkpt>
      <trkpt lat="47.20856" lon="6.69973">
        <ele>934</ele>
        <time>2018-07-01T07:47:09.000Z</time>
      </trkpt>
      <trkpt lat="47.20857" lon="6.69978">
        <ele>934</ele>
        <time>2018-07-01T07:47:10.000Z</time>
      </trkpt>
      <trkpt lat="47.20858" lon="6.69982">
        <ele>933</ele>
        <time>2018-07-01T07:47:11.000Z</time>
      </trkpt>
      <trkpt lat="47.20859" lon="6.69986">
        <ele>933</ele>
        <time>2018-07-01T07:47:12.000Z</time>
      </trkpt>
      <trkpt lat="47.2086" lon="6.69991">
        <ele>933</ele>
        <time>2018-07-01T07:47:13.000Z</time>
      </trkpt>
      <trkpt lat="47.20861" lon="6.69995">
        <ele>933</ele>
        <time>2018-07-01T07:47:14.000Z</time>
      </trkpt>
      <trkpt lat="47.20862" lon="6.69999">
        <ele>933</ele>
        <time>2018-07-01T07:47:15.000Z</time>
      </trkpt>
      <trkpt lat="47.20863" lon="6.70003">
        <ele>930</ele>
        <time>2018-07-01T07:47:16.000Z</time>
      </trkpt>
      <trkpt lat="47.20864" lon="6.70007">
        <ele>930</ele>
        <time>2018-07-01T07:47:17.000Z</time>
      </trkpt>
      <trkpt lat="47.20865" lon="6.70011">
        <ele>930</ele>
        <time>2018-07-01T07:47:18.000Z</time>
      </trkpt>
      <trkpt lat="47.20866" lon="6.70015">
        <ele>930</ele>
        <time>2018-07-01T07:47:19.000Z</time>
      </trkpt>
      <trkpt lat="47.20867" lon="6.70019">
        <ele>930</ele>
        <time>2018-07-01T07:47:20.000Z</time>
      </trkpt>
      <trkpt lat="47.20869" lon="6.70023">
        <ele>930</ele>
        <time>2018-07-01T07:47:21.000Z</time>
      </trkpt>
      <trkpt lat="47.2087" lon="6.70026">
        <ele>930</ele>
        <time>2018-07-01T07:47:22.000Z</time>
      </trkpt>
      <trkpt lat="47.20872" lon="6.7003">
        <ele>930</ele>
        <time>2018-07-01T07:47:23.000Z</time>
      </trkpt>
      <trkpt lat="47.20874" lon="6.70034">
        <ele>930</ele>
        <time>2018-07-01T07:47:24.000Z</time>
      </trkpt>
      <trkpt lat="47.20875" lon="6.70038">
        <ele>930</ele>
        <time>2018-07-01T07:47:25.000Z</time>
      </trkpt>
      <trkpt lat="47.20877" lon="6.70042">
        <ele>930</ele>
        <time>2018-07-01T07:47:26.000Z</time>
      </trkpt>
      <trkpt lat="47.20878" lon="6.70046">
        <ele>929</ele>
        <time>2018-07-01T07:47:27.000Z</time>
      </trkpt>
      <trkpt lat="47.2088" lon="6.7005">
        <ele>929</ele>
        <time>2018-07-01T07:47:28.000Z</time>
      </trkpt>
      <trkpt lat="47.20882" lon="6.70054">
        <ele>929</ele>
        <time>2018-07-01T07:47:29.000Z</time>
      </trkpt>
      <trkpt lat="47.20884" lon="6.70059">
        <ele>929</ele>
        <time>2018-07-01T07:47:30.000Z</time>
      </trkpt>
      <trkpt lat="47.20886" lon="6.70063">
        <ele>929</ele>
        <time>2018-07-01T07:47:31.000Z</time>
      </trkpt>
      <trkpt lat="47.20888" lon="6.70067">
        <ele>929</ele>
        <time>2018-07-01T07:47:32.000Z</time>
      </trkpt>
      <trkpt lat="47.2089" lon="6.7007">
        <ele>930</ele>
        <time>2018-07-01T07:47:33.000Z</time>
      </trkpt>
      <trkpt lat="47.20893" lon="6.70074">
        <ele>930</ele>
        <time>2018-07-01T07:47:34.000Z</time>
      </trkpt>
      <trkpt lat="47.20896" lon="6.70078">
        <ele>930</ele>
        <time>2018-07-01T07:47:35.000Z</time>
      </trkpt>
      <trkpt lat="47.20898" lon="6.70081">
        <ele>930</ele>
        <time>2018-07-01T07:47:36.000Z</time>
      </trkpt>
      <trkpt lat="47.20901" lon="6.70085">
        <ele>926</ele>
        <time>2018-07-01T07:47:37.000Z</time>
      </trkpt>
      <trkpt lat="47.20904" lon="6.70089">
        <ele>927</ele>
        <time>2018-07-01T07:47:38.000Z</time>
      </trkpt>
      <trkpt lat="47.20907" lon="6.70092">
        <ele>927</ele>
        <time>2018-07-01T07:47:39.000Z</time>
      </trkpt>
      <trkpt lat="47.2091" lon="6.70096">
        <ele>927</ele>
        <time>2018-07-01T07:47:40.000Z</time>
      </trkpt>
      <trkpt lat="47.20913" lon="6.70099">
        <ele>926</ele>
        <time>2018-07-01T07:47:41.000Z</time>
      </trkpt>
      <trkpt lat="47.20916" lon="6.70103">
        <ele>926</ele>
        <time>2018-07-01T07:47:42.000Z</time>
      </trkpt>
      <trkpt lat="47.20918" lon="6.70107">
        <ele>927</ele>
        <time>2018-07-01T07:47:43.000Z</time>
      </trkpt>
      <trkpt lat="47.20921" lon="6.7011">
        <ele>927</ele>
        <time>2018-07-01T07:47:44.000Z</time>
      </trkpt>
      <trkpt lat="47.20924" lon="6.70114">
        <ele>926</ele>
        <time>2018-07-01T07:47:45.000Z</time>
      </trkpt>
      <trkpt lat="47.20926" lon="6.70118">
        <ele>926</ele>
        <time>2018-07-01T07:47:46.000Z</time>
      </trkpt>
      <trkpt lat="47.20928" lon="6.70121">
        <ele>926</ele>
        <time>2018-07-01T07:47:47.000Z</time>
      </trkpt>
      <trkpt lat="47.20931" lon="6.70124">
        <ele>925</ele>
        <time>2018-07-01T07:47:48.000Z</time>
      </trkpt>
      <trkpt lat="47.20933" lon="6.70128">
        <ele>925</ele>
        <time>2018-07-01T07:47:49.000Z</time>
      </trkpt>
      <trkpt lat="47.20936" lon="6.70131">
        <ele>925</ele>
        <time>2018-07-01T07:47:50.000Z</time>
      </trkpt>
      <trkpt lat="47.20938" lon="6.70134">
        <ele>925</ele>
        <time>2018-07-01T07:47:51.000Z</time>
      </trkpt>
      <trkpt lat="47.20941" lon="6.70138">
        <ele>925</ele>
        <time>2018-07-01T07:47:52.000Z</time>
      </trkpt>
      <trkpt lat="47.20943" lon="6.70141">
        <ele>925</ele>
        <time>2018-07-01T07:47:53.000Z</time>
      </trkpt>
      <trkpt lat="47.20946" lon="6.70145">
        <ele>924</ele>
        <time>2018-07-01T07:47:54.000Z</time>
      </trkpt>
      <trkpt lat="47.20949" lon="6.70149">
        <ele>924</ele>
        <time>2018-07-01T07:47:55.000Z</time>
      </trkpt>
      <trkpt lat="47.20951" lon="6.70152">
        <ele>924</ele>
        <time>2018-07-01T07:47:56.000Z</time>
      </trkpt>
      <trkpt lat="47.20954" lon="6.70155">
        <ele>924</ele>
        <time>2018-07-01T07:47:57.000Z</time>
      </trkpt>
      <trkpt lat="47.20956" lon="6.70159">
        <ele>924</ele>
        <time>2018-07-01T07:47:58.000Z</time>
      </trkpt>
      <trkpt lat="47.20959" lon="6.70162">
        <ele>924</ele>
        <time>2018-07-01T07:47:59.000Z</time>
      </trkpt>
      <trkpt lat="47.20961" lon="6.70165">
        <ele>924</ele>
        <time>2018-07-01T07:48:00.000Z</time>
      </trkpt>
      <trkpt lat="47.20963" lon="6.70168">
        <ele>920</ele>
        <time>2018-07-01T07:48:01.000Z</time>
      </trkpt>
      <trkpt lat="47.20965" lon="6.70171">
        <ele>920</ele>
        <time>2018-07-01T07:48:02.000Z</time>
      </trkpt>
      <trkpt lat="47.20968" lon="6.70174">
        <ele>920</ele>
        <time>2018-07-01T07:48:03.000Z</time>
      </trkpt>
      <trkpt lat="47.2097" lon="6.70177">
        <ele>921</ele>
        <time>2018-07-01T07:48:04.000Z</time>
      </trkpt>
      <trkpt lat="47.20972" lon="6.7018">
        <ele>921</ele>
        <time>2018-07-01T07:48:05.000Z</time>
      </trkpt>
      <trkpt lat="47.20975" lon="6.70183">
        <ele>921</ele>
        <time>2018-07-01T07:48:06.000Z</time>
      </trkpt>
      <trkpt lat="47.20977" lon="6.70186">
        <ele>921</ele>
        <time>2018-07-01T07:48:07.000Z</time>
      </trkpt>
      <trkpt lat="47.2098" lon="6.70189">
        <ele>920</ele>
        <time>2018-07-01T07:48:08.000Z</time>
      </trkpt>
      <trkpt lat="47.20982" lon="6.70192">
        <ele>920</ele>
        <time>2018-07-01T07:48:09.000Z</time>
      </trkpt>
      <trkpt lat="47.20985" lon="6.70196">
        <ele>920</ele>
        <time>2018-07-01T07:48:10.000Z</time>
      </trkpt>
      <trkpt lat="47.20987" lon="6.70199">
        <ele>920</ele>
        <time>2018-07-01T07:48:11.000Z</time>
      </trkpt>
      <trkpt lat="47.2099" lon="6.70203">
        <ele>920</ele>
        <time>2018-07-01T07:48:12.000Z</time>
      </trkpt>
      <trkpt lat="47.20993" lon="6.70206">
        <ele>920</ele>
        <time>2018-07-01T07:48:13.000Z</time>
      </trkpt>
      <trkpt lat="47.20995" lon="6.70209">
        <ele>920</ele>
        <time>2018-07-01T07:48:14.000Z</time>
      </trkpt>
      <trkpt lat="47.20998" lon="6.70212">
        <ele>920</ele>
        <time>2018-07-01T07:48:15.000Z</time>
      </trkpt>
      <trkpt lat="47.21001" lon="6.70215">
        <ele>921</ele>
        <time>2018-07-01T07:48:16.000Z</time>
      </trkpt>
      <trkpt lat="47.21004" lon="6.70218">
        <ele>921</ele>
        <time>2018-07-01T07:48:17.000Z</time>
      </trkpt>
      <trkpt lat="47.21007" lon="6.70222">
        <ele>921</ele>
        <time>2018-07-01T07:48:18.000Z</time>
      </trkpt>
      <trkpt lat="47.2101" lon="6.70225">
        <ele>921</ele>
        <time>2018-07-01T07:48:19.000Z</time>
      </trkpt>
      <trkpt lat="47.21013" lon="6.70228">
        <ele>921</ele>
        <time>2018-07-01T07:48:20.000Z</time>
      </trkpt>
      <trkpt lat="47.21016" lon="6.70231">
        <ele>921</ele>
        <time>2018-07-01T07:48:21.000Z</time>
      </trkpt>
      <trkpt lat="47.21019" lon="6.70234">
        <ele>921</ele>
        <time>2018-07-01T07:48:22.000Z</time>
      </trkpt>
      <trkpt lat="47.21022" lon="6.70236">
        <ele>920</ele>
        <time>2018-07-01T07:48:23.000Z</time>
      </trkpt>
      <trkpt lat="47.21025" lon="6.70239">
        <ele>920</ele>
        <time>2018-07-01T07:48:24.000Z</time>
      </trkpt>
      <trkpt lat="47.21028" lon="6.70243">
        <ele>920</ele>
        <time>2018-07-01T07:48:25.000Z</time>
      </trkpt>
      <trkpt lat="47.21031" lon="6.70246">
        <ele>920</ele>
        <time>2018-07-01T07:48:26.000Z</time>
      </trkpt>
      <trkpt lat="47.21033" lon="6.7025">
        <ele>920</ele>
        <time>2018-07-01T07:48:27.000Z</time>
      </trkpt>
      <trkpt lat="47.21036" lon="6.70253">
        <ele>916</ele>
        <time>2018-07-01T07:48:28.000Z</time>
      </trkpt>
      <trkpt lat="47.21039" lon="6.70256">
        <ele>916</ele>
        <time>2018-07-01T07:48:29.000Z</time>
      </trkpt>
      <trkpt lat="47.21041" lon="6.70259">
        <ele>916</ele>
        <time>2018-07-01T07:48:30.000Z</time>
      </trkpt>
      <trkpt lat="47.21044" lon="6.70262">
        <ele>916</ele>
        <time>2018-07-01T07:48:31.000Z</time>
      </trkpt>
      <trkpt lat="47.21047" lon="6.70265">
        <ele>916</ele>
        <time>2018-07-01T07:48:32.000Z</time>
      </trkpt>
      <trkpt lat="47.2105" lon="6.70269">
        <ele>915</ele>
        <time>2018-07-01T07:48:33.000Z</time>
      </trkpt>
      <trkpt lat="47.21053" lon="6.70273">
        <ele>915</ele>
        <time>2018-07-01T07:48:34.000Z</time>
      </trkpt>
      <trkpt lat="47.21056" lon="6.70277">
        <ele>915</ele>
        <time>2018-07-01T07:48:35.000Z</time>
      </trkpt>
      <trkpt lat="47.21059" lon="6.70281">
        <ele>915</ele>
        <time>2018-07-01T07:48:36.000Z</time>
      </trkpt>
      <trkpt lat="47.21062" lon="6.70285">
        <ele>915</ele>
        <time>2018-07-01T07:48:37.000Z</time>
      </trkpt>
      <trkpt lat="47.21064" lon="6.7029">
        <ele>914</ele>
        <time>2018-07-01T07:48:38.000Z</time>
      </trkpt>
      <trkpt lat="47.21067" lon="6.70294">
        <ele>914</ele>
        <time>2018-07-01T07:48:39.000Z</time>
      </trkpt>
      <trkpt lat="47.2107" lon="6.70299">
        <ele>914</ele>
        <time>2018-07-01T07:48:40.000Z</time>
      </trkpt>
      <trkpt lat="47.21073" lon="6.70303">
        <ele>913</ele>
        <time>2018-07-01T07:48:41.000Z</time>
      </trkpt>
      <trkpt lat="47.21075" lon="6.70307">
        <ele>913</ele>
        <time>2018-07-01T07:48:42.000Z</time>
      </trkpt>
      <trkpt lat="47.21078" lon="6.7031">
        <ele>913</ele>
        <time>2018-07-01T07:48:43.000Z</time>
      </trkpt>
      <trkpt lat="47.21081" lon="6.70313">
        <ele>913</ele>
        <time>2018-07-01T07:48:44.000Z</time>
      </trkpt>
      <trkpt lat="47.21084" lon="6.70317">
        <ele>911</ele>
        <time>2018-07-01T07:48:45.000Z</time>
      </trkpt>
      <trkpt lat="47.21086" lon="6.70321">
        <ele>911</ele>
        <time>2018-07-01T07:48:46.000Z</time>
      </trkpt>
      <trkpt lat="47.21089" lon="6.70326">
        <ele>911</ele>
        <time>2018-07-01T07:48:47.000Z</time>
      </trkpt>
      <trkpt lat="47.21092" lon="6.7033">
        <ele>911</ele>
        <time>2018-07-01T07:48:48.000Z</time>
      </trkpt>
      <trkpt lat="47.21095" lon="6.70335">
        <ele>910</ele>
        <time>2018-07-01T07:48:49.000Z</time>
      </trkpt>
      <trkpt lat="47.21099" lon="6.70339">
        <ele>909</ele>
        <time>2018-07-01T07:48:50.000Z</time>
      </trkpt>
      <trkpt lat="47.21102" lon="6.70343">
        <ele>909</ele>
        <time>2018-07-01T07:48:51.000Z</time>
      </trkpt>
      <trkpt lat="47.21104" lon="6.70347">
        <ele>908</ele>
        <time>2018-07-01T07:48:52.000Z</time>
      </trkpt>
      <trkpt lat="47.21107" lon="6.70351">
        <ele>908</ele>
        <time>2018-07-01T07:48:53.000Z</time>
      </trkpt>
      <trkpt lat="47.21109" lon="6.70354">
        <ele>908</ele>
        <time>2018-07-01T07:48:54.000Z</time>
      </trkpt>
      <trkpt lat="47.21112" lon="6.70357">
        <ele>907</ele>
        <time>2018-07-01T07:48:55.000Z</time>
      </trkpt>
      <trkpt lat="47.21114" lon="6.70359">
        <ele>907</ele>
        <time>2018-07-01T07:48:56.000Z</time>
      </trkpt>
      <trkpt lat="47.21116" lon="6.70362">
        <ele>907</ele>
        <time>2018-07-01T07:48:57.000Z</time>
      </trkpt>
      <trkpt lat="47.21119" lon="6.70366">
        <ele>907</ele>
        <time>2018-07-01T07:48:58.000Z</time>
      </trkpt>
      <trkpt lat="47.21121" lon="6.70369">
        <ele>907</ele>
        <time>2018-07-01T07:48:59.000Z</time>
      </trkpt>
      <trkpt lat="47.21124" lon="6.70373">
        <ele>907</ele>
        <time>2018-07-01T07:49:00.000Z</time>
      </trkpt>
      <trkpt lat="47.21126" lon="6.70376">
        <ele>907</ele>
        <time>2018-07-01T07:49:01.000Z</time>
      </trkpt>
      <trkpt lat="47.21129" lon="6.7038">
        <ele>907</ele>
        <time>2018-07-01T07:49:02.000Z</time>
      </trkpt>
      <trkpt lat="47.21131" lon="6.70383">
        <ele>907</ele>
        <time>2018-07-01T07:49:03.000Z</time>
      </trkpt>
      <trkpt lat="47.21134" lon="6.70386">
        <ele>907</ele>
        <time>2018-07-01T07:49:04.000Z</time>
      </trkpt>
      <trkpt lat="47.21136" lon="6.7039">
        <ele>907</ele>
        <time>2018-07-01T07:49:05.000Z</time>
      </trkpt>
      <trkpt lat="47.21139" lon="6.70394">
        <ele>907</ele>
        <time>2018-07-01T07:49:06.000Z</time>
      </trkpt>
      <trkpt lat="47.21142" lon="6.70397">
        <ele>907</ele>
        <time>2018-07-01T07:49:07.000Z</time>
      </trkpt>
      <trkpt lat="47.21145" lon="6.70401">
        <ele>908</ele>
        <time>2018-07-01T07:49:08.000Z</time>
      </trkpt>
      <trkpt lat="47.21148" lon="6.70405">
        <ele>908</ele>
        <time>2018-07-01T07:49:09.000Z</time>
      </trkpt>
      <trkpt lat="47.21151" lon="6.70408">
        <ele>909</ele>
        <time>2018-07-01T07:49:10.000Z</time>
      </trkpt>
      <trkpt lat="47.21154" lon="6.70412">
        <ele>909</ele>
        <time>2018-07-01T07:49:11.000Z</time>
      </trkpt>
      <trkpt lat="47.21157" lon="6.70415">
        <ele>910</ele>
        <time>2018-07-01T07:49:12.000Z</time>
      </trkpt>
      <trkpt lat="47.2116" lon="6.70419">
        <ele>907</ele>
        <time>2018-07-01T07:49:13.000Z</time>
      </trkpt>
      <trkpt lat="47.21164" lon="6.70422">
        <ele>908</ele>
        <time>2018-07-01T07:49:14.000Z</time>
      </trkpt>
      <trkpt lat="47.21167" lon="6.70426">
        <ele>906</ele>
        <time>2018-07-01T07:49:15.000Z</time>
      </trkpt>
      <trkpt lat="47.21169" lon="6.7043">
        <ele>907</ele>
        <time>2018-07-01T07:49:16.000Z</time>
      </trkpt>
      <trkpt lat="47.21172" lon="6.70435">
        <ele>906</ele>
        <time>2018-07-01T07:49:17.000Z</time>
      </trkpt>
      <trkpt lat="47.21175" lon="6.70439">
        <ele>905</ele>
        <time>2018-07-01T07:49:18.000Z</time>
      </trkpt>
      <trkpt lat="47.21178" lon="6.70442">
        <ele>904</ele>
        <time>2018-07-01T07:49:19.000Z</time>
      </trkpt>
      <trkpt lat="47.2118" lon="6.70446">
        <ele>903</ele>
        <time>2018-07-01T07:49:20.000Z</time>
      </trkpt>
      <trkpt lat="47.21183" lon="6.7045">
        <ele>903</ele>
        <time>2018-07-01T07:49:21.000Z</time>
      </trkpt>
      <trkpt lat="47.21186" lon="6.70453">
        <ele>902</ele>
        <time>2018-07-01T07:49:22.000Z</time>
      </trkpt>
      <trkpt lat="47.21188" lon="6.70457">
        <ele>902</ele>
        <time>2018-07-01T07:49:23.000Z</time>
      </trkpt>
      <trkpt lat="47.21191" lon="6.7046">
        <ele>902</ele>
        <time>2018-07-01T07:49:24.000Z</time>
      </trkpt>
      <trkpt lat="47.21194" lon="6.70464">
        <ele>901</ele>
        <time>2018-07-01T07:49:25.000Z</time>
      </trkpt>
      <trkpt lat="47.21197" lon="6.70467">
        <ele>901</ele>
        <time>2018-07-01T07:49:26.000Z</time>
      </trkpt>
      <trkpt lat="47.212" lon="6.70471">
        <ele>901</ele>
        <time>2018-07-01T07:49:27.000Z</time>
      </trkpt>
      <trkpt lat="47.21203" lon="6.70474">
        <ele>901</ele>
        <time>2018-07-01T07:49:28.000Z</time>
      </trkpt>
      <trkpt lat="47.21205" lon="6.70477">
        <ele>901</ele>
        <time>2018-07-01T07:49:29.000Z</time>
      </trkpt>
      <trkpt lat="47.21207" lon="6.70481">
        <ele>901</ele>
        <time>2018-07-01T07:49:30.000Z</time>
      </trkpt>
      <trkpt lat="47.21209" lon="6.70484">
        <ele>901</ele>
        <time>2018-07-01T07:49:31.000Z</time>
      </trkpt>
      <trkpt lat="47.21211" lon="6.70487">
        <ele>901</ele>
        <time>2018-07-01T07:49:32.000Z</time>
      </trkpt>
      <trkpt lat="47.21213" lon="6.7049">
        <ele>901</ele>
        <time>2018-07-01T07:49:33.000Z</time>
      </trkpt>
      <trkpt lat="47.21215" lon="6.70493">
        <ele>901</ele>
        <time>2018-07-01T07:49:34.000Z</time>
      </trkpt>
      <trkpt lat="47.21217" lon="6.70497">
        <ele>901</ele>
        <time>2018-07-01T07:49:35.000Z</time>
      </trkpt>
      <trkpt lat="47.2122" lon="6.705">
        <ele>901</ele>
        <time>2018-07-01T07:49:36.000Z</time>
      </trkpt>
      <trkpt lat="47.21223" lon="6.70503">
        <ele>893</ele>
        <time>2018-07-01T07:49:37.000Z</time>
      </trkpt>
      <trkpt lat="47.21225" lon="6.70506">
        <ele>894</ele>
        <time>2018-07-01T07:49:38.000Z</time>
      </trkpt>
      <trkpt lat="47.21228" lon="6.70509">
        <ele>894</ele>
        <time>2018-07-01T07:49:39.000Z</time>
      </trkpt>
      <trkpt lat="47.21231" lon="6.70512">
        <ele>894</ele>
        <time>2018-07-01T07:49:40.000Z</time>
      </trkpt>
      <trkpt lat="47.21234" lon="6.70515">
        <ele>894</ele>
        <time>2018-07-01T07:49:41.000Z</time>
      </trkpt>
      <trkpt lat="47.21237" lon="6.70517">
        <ele>894</ele>
        <time>2018-07-01T07:49:42.000Z</time>
      </trkpt>
      <trkpt lat="47.2124" lon="6.7052">
        <ele>894</ele>
        <time>2018-07-01T07:49:43.000Z</time>
      </trkpt>
      <trkpt lat="47.21243" lon="6.70524">
        <ele>893</ele>
        <time>2018-07-01T07:49:44.000Z</time>
      </trkpt>
      <trkpt lat="47.21245" lon="6.70527">
        <ele>893</ele>
        <time>2018-07-01T07:49:45.000Z</time>
      </trkpt>
      <trkpt lat="47.21248" lon="6.7053">
        <ele>892</ele>
        <time>2018-07-01T07:49:46.000Z</time>
      </trkpt>
      <trkpt lat="47.2125" lon="6.70532">
        <ele>893</ele>
        <time>2018-07-01T07:49:47.000Z</time>
      </trkpt>
      <trkpt lat="47.21253" lon="6.70535">
        <ele>892</ele>
        <time>2018-07-01T07:49:48.000Z</time>
      </trkpt>
      <trkpt lat="47.21256" lon="6.70537">
        <ele>892</ele>
        <time>2018-07-01T07:49:49.000Z</time>
      </trkpt>
      <trkpt lat="47.21258" lon="6.7054">
        <ele>892</ele>
        <time>2018-07-01T07:49:50.000Z</time>
      </trkpt>
      <trkpt lat="47.21261" lon="6.70542">
        <ele>891</ele>
        <time>2018-07-01T07:49:51.000Z</time>
      </trkpt>
      <trkpt lat="47.21264" lon="6.70545">
        <ele>891</ele>
        <time>2018-07-01T07:49:52.000Z</time>
      </trkpt>
      <trkpt lat="47.21266" lon="6.70547">
        <ele>891</ele>
        <time>2018-07-01T07:49:53.000Z</time>
      </trkpt>
      <trkpt lat="47.21269" lon="6.70549">
        <ele>891</ele>
        <time>2018-07-01T07:49:54.000Z</time>
      </trkpt>
      <trkpt lat="47.21272" lon="6.70552">
        <ele>890</ele>
        <time>2018-07-01T07:49:55.000Z</time>
      </trkpt>
      <trkpt lat="47.21275" lon="6.70554">
        <ele>890</ele>
        <time>2018-07-01T07:49:56.000Z</time>
      </trkpt>
      <trkpt lat="47.21278" lon="6.70556">
        <ele>890</ele>
        <time>2018-07-01T07:49:57.000Z</time>
      </trkpt>
      <trkpt lat="47.2128" lon="6.70559">
        <ele>890</ele>
        <time>2018-07-01T07:49:58.000Z</time>
      </trkpt>
      <trkpt lat="47.21283" lon="6.70562">
        <ele>890</ele>
        <time>2018-07-01T07:49:59.000Z</time>
      </trkpt>
      <trkpt lat="47.21286" lon="6.70564">
        <ele>889</ele>
        <time>2018-07-01T07:50:00.000Z</time>
      </trkpt>
      <trkpt lat="47.21289" lon="6.70567">
        <ele>889</ele>
        <time>2018-07-01T07:50:01.000Z</time>
      </trkpt>
      <trkpt lat="47.21292" lon="6.7057">
        <ele>889</ele>
        <time>2018-07-01T07:50:02.000Z</time>
      </trkpt>
      <trkpt lat="47.21295" lon="6.70572">
        <ele>889</ele>
        <time>2018-07-01T07:50:03.000Z</time>
      </trkpt>
      <trkpt lat="47.21298" lon="6.70574">
        <ele>889</ele>
        <time>2018-07-01T07:50:04.000Z</time>
      </trkpt>
      <trkpt lat="47.213" lon="6.70577">
        <ele>889</ele>
        <time>2018-07-01T07:50:05.000Z</time>
      </trkpt>
      <trkpt lat="47.21303" lon="6.70579">
        <ele>889</ele>
        <time>2018-07-01T07:50:06.000Z</time>
      </trkpt>
      <trkpt lat="47.21305" lon="6.70582">
        <ele>889</ele>
        <time>2018-07-01T07:50:07.000Z</time>
      </trkpt>
      <trkpt lat="47.21307" lon="6.70585">
        <ele>884</ele>
        <time>2018-07-01T07:50:08.000Z</time>
      </trkpt>
      <trkpt lat="47.2131" lon="6.70587">
        <ele>884</ele>
        <time>2018-07-01T07:50:09.000Z</time>
      </trkpt>
      <trkpt lat="47.21312" lon="6.7059">
        <ele>884</ele>
        <time>2018-07-01T07:50:10.000Z</time>
      </trkpt>
      <trkpt lat="47.21314" lon="6.70593">
        <ele>884</ele>
        <time>2018-07-01T07:50:11.000Z</time>
      </trkpt>
      <trkpt lat="47.21316" lon="6.70596">
        <ele>884</ele>
        <time>2018-07-01T07:50:12.000Z</time>
      </trkpt>
      <trkpt lat="47.21319" lon="6.70599">
        <ele>884</ele>
        <time>2018-07-01T07:50:13.000Z</time>
      </trkpt>
      <trkpt lat="47.21321" lon="6.70603">
        <ele>884</ele>
        <time>2018-07-01T07:50:14.000Z</time>
      </trkpt>
      <trkpt lat="47.21324" lon="6.70606">
        <ele>884</ele>
        <time>2018-07-01T07:50:15.000Z</time>
      </trkpt>
      <trkpt lat="47.21327" lon="6.7061">
        <ele>883</ele>
        <time>2018-07-01T07:50:16.000Z</time>
      </trkpt>
      <trkpt lat="47.21329" lon="6.70613">
        <ele>883</ele>
        <time>2018-07-01T07:50:17.000Z</time>
      </trkpt>
      <trkpt lat="47.21332" lon="6.70616">
        <ele>883</ele>
        <time>2018-07-01T07:50:18.000Z</time>
      </trkpt>
      <trkpt lat="47.21334" lon="6.70618">
        <ele>881</ele>
        <time>2018-07-01T07:50:19.000Z</time>
      </trkpt>
      <trkpt lat="47.21337" lon="6.70621">
        <ele>881</ele>
        <time>2018-07-01T07:50:20.000Z</time>
      </trkpt>
      <trkpt lat="47.21339" lon="6.70624">
        <ele>881</ele>
        <time>2018-07-01T07:50:21.000Z</time>
      </trkpt>
      <trkpt lat="47.21342" lon="6.70627">
        <ele>880</ele>
        <time>2018-07-01T07:50:22.000Z</time>
      </trkpt>
      <trkpt lat="47.21344" lon="6.7063">
        <ele>880</ele>
        <time>2018-07-01T07:50:23.000Z</time>
      </trkpt>
      <trkpt lat="47.21346" lon="6.70633">
        <ele>880</ele>
        <time>2018-07-01T07:50:24.000Z</time>
      </trkpt>
      <trkpt lat="47.21348" lon="6.70636">
        <ele>880</ele>
        <time>2018-07-01T07:50:25.000Z</time>
      </trkpt>
      <trkpt lat="47.21349" lon="6.7064">
        <ele>880</ele>
        <time>2018-07-01T07:50:26.000Z</time>
      </trkpt>
      <trkpt lat="47.21351" lon="6.70643">
        <ele>880</ele>
        <time>2018-07-01T07:50:27.000Z</time>
      </trkpt>
      <trkpt lat="47.21353" lon="6.70646">
        <ele>880</ele>
        <time>2018-07-01T07:50:28.000Z</time>
      </trkpt>
      <trkpt lat="47.21355" lon="6.7065">
        <ele>880</ele>
        <time>2018-07-01T07:50:29.000Z</time>
      </trkpt>
      <trkpt lat="47.21357" lon="6.70653">
        <ele>880</ele>
        <time>2018-07-01T07:50:30.000Z</time>
      </trkpt>
      <trkpt lat="47.21358" lon="6.70656">
        <ele>880</ele>
        <time>2018-07-01T07:50:31.000Z</time>
      </trkpt>
      <trkpt lat="47.2136" lon="6.70659">
        <ele>879</ele>
        <time>2018-07-01T07:50:32.000Z</time>
      </trkpt>
      <trkpt lat="47.21362" lon="6.70661">
        <ele>879</ele>
        <time>2018-07-01T07:50:33.000Z</time>
      </trkpt>
      <trkpt lat="47.21363" lon="6.70663">
        <ele>879</ele>
        <time>2018-07-01T07:50:34.000Z</time>
      </trkpt>
      <trkpt lat="47.21365" lon="6.70665">
        <ele>879</ele>
        <time>2018-07-01T07:50:35.000Z</time>
      </trkpt>
      <trkpt lat="47.21366" lon="6.70667">
        <ele>877</ele>
        <time>2018-07-01T07:50:36.000Z</time>
      </trkpt>
      <trkpt lat="47.21368" lon="6.70669">
        <ele>876</ele>
        <time>2018-07-01T07:50:37.000Z</time>
      </trkpt>
      <trkpt lat="47.21369" lon="6.70672">
        <ele>876</ele>
        <time>2018-07-01T07:50:38.000Z</time>
      </trkpt>
      <trkpt lat="47.2137" lon="6.70674">
        <ele>876</ele>
        <time>2018-07-01T07:50:39.000Z</time>
      </trkpt>
      <trkpt lat="47.21371" lon="6.70675">
        <ele>876</ele>
        <time>2018-07-01T07:50:40.000Z</time>
      </trkpt>
      <trkpt lat="47.21372" lon="6.70677">
        <ele>876</ele>
        <time>2018-07-01T07:50:41.000Z</time>
      </trkpt>
      <trkpt lat="47.21373" lon="6.70678">
        <ele>876</ele>
        <time>2018-07-01T07:50:42.000Z</time>
      </trkpt>
      <trkpt lat="47.21374" lon="6.70679">
        <ele>876</ele>
        <time>2018-07-01T07:50:43.000Z</time>
      </trkpt>
      <trkpt lat="47.21375" lon="6.70681">
        <ele>876</ele>
        <time>2018-07-01T07:50:44.000Z</time>
      </trkpt>
      <trkpt lat="47.21376" lon="6.70682">
        <ele>875</ele>
        <time>2018-07-01T07:50:45.000Z</time>
      </trkpt>
      <trkpt lat="47.21377" lon="6.70684">
        <ele>875</ele>
        <time>2018-07-01T07:50:46.000Z</time>
      </trkpt>
      <trkpt lat="47.21378" lon="6.70686">
        <ele>875</ele>
        <time>2018-07-01T07:50:47.000Z</time>
      </trkpt>
      <trkpt lat="47.21379" lon="6.70688">
        <ele>875</ele>
        <time>2018-07-01T07:50:48.000Z</time>
      </trkpt>
      <trkpt lat="47.2138" lon="6.7069">
        <ele>875</ele>
        <time>2018-07-01T07:50:49.000Z</time>
      </trkpt>
      <trkpt lat="47.21382" lon="6.70692">
        <ele>875</ele>
        <time>2018-07-01T07:50:50.000Z</time>
      </trkpt>
      <trkpt lat="47.21383" lon="6.70693">
        <ele>875</ele>
        <time>2018-07-01T07:50:51.000Z</time>
      </trkpt>
      <trkpt lat="47.21385" lon="6.70695">
        <ele>875</ele>
        <time>2018-07-01T07:50:52.000Z</time>
      </trkpt>
      <trkpt lat="47.21386" lon="6.70696">
        <ele>875</ele>
        <time>2018-07-01T07:50:53.000Z</time>
      </trkpt>
      <trkpt lat="47.21388" lon="6.70698">
        <ele>875</ele>
        <time>2018-07-01T07:50:54.000Z</time>
      </trkpt>
      <trkpt lat="47.2139" lon="6.70701">
        <ele>875</ele>
        <time>2018-07-01T07:50:55.000Z</time>
      </trkpt>
      <trkpt lat="47.21391" lon="6.70704">
        <ele>875</ele>
        <time>2018-07-01T07:50:56.000Z</time>
      </trkpt>
      <trkpt lat="47.21393" lon="6.70706">
        <ele>875</ele>
        <time>2018-07-01T07:50:57.000Z</time>
      </trkpt>
      <trkpt lat="47.21395" lon="6.70708">
        <ele>875</ele>
        <time>2018-07-01T07:50:58.000Z</time>
      </trkpt>
      <trkpt lat="47.21396" lon="6.7071">
        <ele>875</ele>
        <time>2018-07-01T07:50:59.000Z</time>
      </trkpt>
      <trkpt lat="47.21397" lon="6.70711">
        <ele>875</ele>
        <time>2018-07-01T07:51:00.000Z</time>
      </trkpt>
      <trkpt lat="47.21398" lon="6.70712">
        <ele>875</ele>
        <time>2018-07-01T07:51:01.000Z</time>
      </trkpt>
      <trkpt lat="47.21399" lon="6.70714">
        <ele>875</ele>
        <time>2018-07-01T07:51:02.000Z</time>
      </trkpt>
      <trkpt lat="47.214" lon="6.70716">
        <ele>875</ele>
        <time>2018-07-01T07:51:03.000Z</time>
      </trkpt>
      <trkpt lat="47.21402" lon="6.70718">
        <ele>875</ele>
        <time>2018-07-01T07:51:04.000Z</time>
      </trkpt>
      <trkpt lat="47.21403" lon="6.70721">
        <ele>875</ele>
        <time>2018-07-01T07:51:05.000Z</time>
      </trkpt>
      <trkpt lat="47.21405" lon="6.70724">
        <ele>875</ele>
        <time>2018-07-01T07:51:06.000Z</time>
      </trkpt>
      <trkpt lat="47.21407" lon="6.70727">
        <ele>875</ele>
        <time>2018-07-01T07:51:07.000Z</time>
      </trkpt>
      <trkpt lat="47.21408" lon="6.7073">
        <ele>876</ele>
        <time>2018-07-01T07:51:08.000Z</time>
      </trkpt>
      <trkpt lat="47.2141" lon="6.70732">
        <ele>876</ele>
        <time>2018-07-01T07:51:09.000Z</time>
      </trkpt>
      <trkpt lat="47.21411" lon="6.70734">
        <ele>876</ele>
        <time>2018-07-01T07:51:10.000Z</time>
      </trkpt>
      <trkpt lat="47.21413" lon="6.70737">
        <ele>876</ele>
        <time>2018-07-01T07:51:11.000Z</time>
      </trkpt>
      <trkpt lat="47.21415" lon="6.70739">
        <ele>876</ele>
        <time>2018-07-01T07:51:12.000Z</time>
      </trkpt>
      <trkpt lat="47.21417" lon="6.70742">
        <ele>875</ele>
        <time>2018-07-01T07:51:13.000Z</time>
      </trkpt>
      <trkpt lat="47.21419" lon="6.70745">
        <ele>876</ele>
        <time>2018-07-01T07:51:14.000Z</time>
      </trkpt>
      <trkpt lat="47.2142" lon="6.70748">
        <ele>876</ele>
        <time>2018-07-01T07:51:15.000Z</time>
      </trkpt>
      <trkpt lat="47.21422" lon="6.7075">
        <ele>876</ele>
        <time>2018-07-01T07:51:16.000Z</time>
      </trkpt>
      <trkpt lat="47.21423" lon="6.70752">
        <ele>875</ele>
        <time>2018-07-01T07:51:17.000Z</time>
      </trkpt>
      <trkpt lat="47.21424" lon="6.70754">
        <ele>875</ele>
        <time>2018-07-01T07:51:18.000Z</time>
      </trkpt>
      <trkpt lat="47.21424" lon="6.70756">
        <ele>874</ele>
        <time>2018-07-01T07:51:19.000Z</time>
      </trkpt>
      <trkpt lat="47.21425" lon="6.70757">
        <ele>874</ele>
        <time>2018-07-01T07:51:20.000Z</time>
      </trkpt>
      <trkpt lat="47.21426" lon="6.70758">
        <ele>873</ele>
        <time>2018-07-01T07:51:21.000Z</time>
      </trkpt>
      <trkpt lat="47.21427" lon="6.70758">
        <ele>873</ele>
        <time>2018-07-01T07:51:22.000Z</time>
      </trkpt>
      <trkpt lat="47.21429" lon="6.70757">
        <ele>873</ele>
        <time>2018-07-01T07:51:23.000Z</time>
      </trkpt>
      <trkpt lat="47.2143" lon="6.70756">
        <ele>873</ele>
        <time>2018-07-01T07:51:24.000Z</time>
      </trkpt>
      <trkpt lat="47.21431" lon="6.70755">
        <ele>873</ele>
        <time>2018-07-01T07:51:25.000Z</time>
      </trkpt>
      <trkpt lat="47.21431" lon="6.70753">
        <ele>873</ele>
        <time>2018-07-01T07:51:26.000Z</time>
      </trkpt>
      <trkpt lat="47.21432" lon="6.70751">
        <ele>873</ele>
        <time>2018-07-01T07:51:27.000Z</time>
      </trkpt>
      <trkpt lat="47.21432" lon="6.70748">
        <ele>873</ele>
        <time>2018-07-01T07:51:28.000Z</time>
      </trkpt>
      <trkpt lat="47.21432" lon="6.70745">
        <ele>873</ele>
        <time>2018-07-01T07:51:29.000Z</time>
      </trkpt>
      <trkpt lat="47.21432" lon="6.70741">
        <ele>872</ele>
        <time>2018-07-01T07:51:30.000Z</time>
      </trkpt>
      <trkpt lat="47.21431" lon="6.70737">
        <ele>872</ele>
        <time>2018-07-01T07:51:31.000Z</time>
      </trkpt>
      <trkpt lat="47.2143" lon="6.70733">
        <ele>871</ele>
        <time>2018-07-01T07:51:32.000Z</time>
      </trkpt>
      <trkpt lat="47.21429" lon="6.70729">
        <ele>871</ele>
        <time>2018-07-01T07:51:33.000Z</time>
      </trkpt>
      <trkpt lat="47.21428" lon="6.70724">
        <ele>871</ele>
        <time>2018-07-01T07:51:34.000Z</time>
      </trkpt>
      <trkpt lat="47.21426" lon="6.70719">
        <ele>870</ele>
        <time>2018-07-01T07:51:35.000Z</time>
      </trkpt>
      <trkpt lat="47.21425" lon="6.70714">
        <ele>870</ele>
        <time>2018-07-01T07:51:36.000Z</time>
      </trkpt>
      <trkpt lat="47.21424" lon="6.70708">
        <ele>870</ele>
        <time>2018-07-01T07:51:37.000Z</time>
      </trkpt>
      <trkpt lat="47.21423" lon="6.70702">
        <ele>869</ele>
        <time>2018-07-01T07:51:38.000Z</time>
      </trkpt>
      <trkpt lat="47.21421" lon="6.70697">
        <ele>870</ele>
        <time>2018-07-01T07:51:39.000Z</time>
      </trkpt>
      <trkpt lat="47.2142" lon="6.70691">
        <ele>870</ele>
        <time>2018-07-01T07:51:40.000Z</time>
      </trkpt>
      <trkpt lat="47.21418" lon="6.70685">
        <ele>870</ele>
        <time>2018-07-01T07:51:41.000Z</time>
      </trkpt>
      <trkpt lat="47.21417" lon="6.7068">
        <ele>871</ele>
        <time>2018-07-01T07:51:42.000Z</time>
      </trkpt>
      <trkpt lat="47.21416" lon="6.70674">
        <ele>874</ele>
        <time>2018-07-01T07:51:43.000Z</time>
      </trkpt>
      <trkpt lat="47.21415" lon="6.70669">
        <ele>873</ele>
        <time>2018-07-01T07:51:44.000Z</time>
      </trkpt>
      <trkpt lat="47.21415" lon="6.70665">
        <ele>873</ele>
        <time>2018-07-01T07:51:45.000Z</time>
      </trkpt>
      <trkpt lat="47.21415" lon="6.70662">
        <ele>874</ele>
        <time>2018-07-01T07:51:46.000Z</time>
      </trkpt>
      <trkpt lat="47.21417" lon="6.7066">
        <ele>871</ele>
        <time>2018-07-01T07:51:47.000Z</time>
      </trkpt>
      <trkpt lat="47.21421" lon="6.70662">
        <ele>871</ele>
        <time>2018-07-01T07:51:48.000Z</time>
      </trkpt>
      <trkpt lat="47.21424" lon="6.70665">
        <ele>870</ele>
        <time>2018-07-01T07:51:49.000Z</time>
      </trkpt>
      <trkpt lat="47.21428" lon="6.70668">
        <ele>871</ele>
        <time>2018-07-01T07:51:50.000Z</time>
      </trkpt>
      <trkpt lat="47.21431" lon="6.70672">
        <ele>870</ele>
        <time>2018-07-01T07:51:51.000Z</time>
      </trkpt>
      <trkpt lat="47.21433" lon="6.70675">
        <ele>869</ele>
        <time>2018-07-01T07:51:52.000Z</time>
      </trkpt>
      <trkpt lat="47.21436" lon="6.70679">
        <ele>869</ele>
        <time>2018-07-01T07:51:53.000Z</time>
      </trkpt>
      <trkpt lat="47.21439" lon="6.70682">
        <ele>868</ele>
        <time>2018-07-01T07:51:54.000Z</time>
      </trkpt>
      <trkpt lat="47.21442" lon="6.70685">
        <ele>868</ele>
        <time>2018-07-01T07:51:55.000Z</time>
      </trkpt>
      <trkpt lat="47.21444" lon="6.70689">
        <ele>868</ele>
        <time>2018-07-01T07:51:56.000Z</time>
      </trkpt>
      <trkpt lat="47.21447" lon="6.70692">
        <ele>867</ele>
        <time>2018-07-01T07:51:57.000Z</time>
      </trkpt>
      <trkpt lat="47.2145" lon="6.70695">
        <ele>867</ele>
        <time>2018-07-01T07:51:58.000Z</time>
      </trkpt>
      <trkpt lat="47.21453" lon="6.70698">
        <ele>867</ele>
        <time>2018-07-01T07:51:59.000Z</time>
      </trkpt>
      <trkpt lat="47.21455" lon="6.70701">
        <ele>867</ele>
        <time>2018-07-01T07:52:00.000Z</time>
      </trkpt>
      <trkpt lat="47.21458" lon="6.70704">
        <ele>866</ele>
        <time>2018-07-01T07:52:01.000Z</time>
      </trkpt>
      <trkpt lat="47.21461" lon="6.70707">
        <ele>866</ele>
        <time>2018-07-01T07:52:02.000Z</time>
      </trkpt>
      <trkpt lat="47.21464" lon="6.7071">
        <ele>866</ele>
        <time>2018-07-01T07:52:03.000Z</time>
      </trkpt>
      <trkpt lat="47.21466" lon="6.70714">
        <ele>866</ele>
        <time>2018-07-01T07:52:04.000Z</time>
      </trkpt>
      <trkpt lat="47.21469" lon="6.70717">
        <ele>866</ele>
        <time>2018-07-01T07:52:05.000Z</time>
      </trkpt>
      <trkpt lat="47.21472" lon="6.70721">
        <ele>865</ele>
        <time>2018-07-01T07:52:06.000Z</time>
      </trkpt>
      <trkpt lat="47.21474" lon="6.70724">
        <ele>865</ele>
        <time>2018-07-01T07:52:07.000Z</time>
      </trkpt>
      <trkpt lat="47.21477" lon="6.70727">
        <ele>865</ele>
        <time>2018-07-01T07:52:08.000Z</time>
      </trkpt>
      <trkpt lat="47.2148" lon="6.7073">
        <ele>864</ele>
        <time>2018-07-01T07:52:09.000Z</time>
      </trkpt>
      <trkpt lat="47.21482" lon="6.70733">
        <ele>864</ele>
        <time>2018-07-01T07:52:10.000Z</time>
      </trkpt>
      <trkpt lat="47.21485" lon="6.70736">
        <ele>864</ele>
        <time>2018-07-01T07:52:11.000Z</time>
      </trkpt>
      <trkpt lat="47.21488" lon="6.7074">
        <ele>863</ele>
        <time>2018-07-01T07:52:12.000Z</time>
      </trkpt>
      <trkpt lat="47.21491" lon="6.70743">
        <ele>862</ele>
        <time>2018-07-01T07:52:13.000Z</time>
      </trkpt>
      <trkpt lat="47.21493" lon="6.70747">
        <ele>862</ele>
        <time>2018-07-01T07:52:14.000Z</time>
      </trkpt>
      <trkpt lat="47.21496" lon="6.70751">
        <ele>861</ele>
        <time>2018-07-01T07:52:15.000Z</time>
      </trkpt>
      <trkpt lat="47.21499" lon="6.70754">
        <ele>861</ele>
        <time>2018-07-01T07:52:16.000Z</time>
      </trkpt>
      <trkpt lat="47.21501" lon="6.70757">
        <ele>859</ele>
        <time>2018-07-01T07:52:17.000Z</time>
      </trkpt>
      <trkpt lat="47.21504" lon="6.70761">
        <ele>858</ele>
        <time>2018-07-01T07:52:18.000Z</time>
      </trkpt>
      <trkpt lat="47.21506" lon="6.70764">
        <ele>857</ele>
        <time>2018-07-01T07:52:19.000Z</time>
      </trkpt>
      <trkpt lat="47.21508" lon="6.70768">
        <ele>857</ele>
        <time>2018-07-01T07:52:20.000Z</time>
      </trkpt>
      <trkpt lat="47.21511" lon="6.70771">
        <ele>857</ele>
        <time>2018-07-01T07:52:21.000Z</time>
      </trkpt>
      <trkpt lat="47.21513" lon="6.70775">
        <ele>856</ele>
        <time>2018-07-01T07:52:22.000Z</time>
      </trkpt>
      <trkpt lat="47.21515" lon="6.70778">
        <ele>856</ele>
        <time>2018-07-01T07:52:23.000Z</time>
      </trkpt>
      <trkpt lat="47.21518" lon="6.70782">
        <ele>856</ele>
        <time>2018-07-01T07:52:24.000Z</time>
      </trkpt>
      <trkpt lat="47.2152" lon="6.70785">
        <ele>856</ele>
        <time>2018-07-01T07:52:25.000Z</time>
      </trkpt>
      <trkpt lat="47.21523" lon="6.70789">
        <ele>856</ele>
        <time>2018-07-01T07:52:26.000Z</time>
      </trkpt>
      <trkpt lat="47.21525" lon="6.70793">
        <ele>856</ele>
        <time>2018-07-01T07:52:27.000Z</time>
      </trkpt>
      <trkpt lat="47.21528" lon="6.70797">
        <ele>856</ele>
        <time>2018-07-01T07:52:28.000Z</time>
      </trkpt>
      <trkpt lat="47.2153" lon="6.708">
        <ele>856</ele>
        <time>2018-07-01T07:52:29.000Z</time>
      </trkpt>
      <trkpt lat="47.21532" lon="6.70804">
        <ele>855</ele>
        <time>2018-07-01T07:52:30.000Z</time>
      </trkpt>
      <trkpt lat="47.21535" lon="6.70807">
        <ele>855</ele>
        <time>2018-07-01T07:52:31.000Z</time>
      </trkpt>
      <trkpt lat="47.21537" lon="6.7081">
        <ele>855</ele>
        <time>2018-07-01T07:52:32.000Z</time>
      </trkpt>
      <trkpt lat="47.21539" lon="6.70814">
        <ele>855</ele>
        <time>2018-07-01T07:52:33.000Z</time>
      </trkpt>
      <trkpt lat="47.21541" lon="6.70818">
        <ele>855</ele>
        <time>2018-07-01T07:52:34.000Z</time>
      </trkpt>
      <trkpt lat="47.21544" lon="6.70821">
        <ele>854</ele>
        <time>2018-07-01T07:52:35.000Z</time>
      </trkpt>
      <trkpt lat="47.21546" lon="6.70824">
        <ele>854</ele>
        <time>2018-07-01T07:52:36.000Z</time>
      </trkpt>
      <trkpt lat="47.21548" lon="6.70828">
        <ele>854</ele>
        <time>2018-07-01T07:52:37.000Z</time>
      </trkpt>
      <trkpt lat="47.2155" lon="6.70831">
        <ele>853</ele>
        <time>2018-07-01T07:52:38.000Z</time>
      </trkpt>
      <trkpt lat="47.21553" lon="6.70835">
        <ele>856</ele>
        <time>2018-07-01T07:52:39.000Z</time>
      </trkpt>
      <trkpt lat="47.21555" lon="6.70838">
        <ele>855</ele>
        <time>2018-07-01T07:52:40.000Z</time>
      </trkpt>
      <trkpt lat="47.21557" lon="6.70842">
        <ele>855</ele>
        <time>2018-07-01T07:52:41.000Z</time>
      </trkpt>
      <trkpt lat="47.2156" lon="6.70845">
        <ele>855</ele>
        <time>2018-07-01T07:52:42.000Z</time>
      </trkpt>
      <trkpt lat="47.21562" lon="6.70849">
        <ele>855</ele>
        <time>2018-07-01T07:52:43.000Z</time>
      </trkpt>
      <trkpt lat="47.21564" lon="6.70853">
        <ele>855</ele>
        <time>2018-07-01T07:52:44.000Z</time>
      </trkpt>
      <trkpt lat="47.21567" lon="6.70857">
        <ele>855</ele>
        <time>2018-07-01T07:52:45.000Z</time>
      </trkpt>
      <trkpt lat="47.21569" lon="6.70861">
        <ele>855</ele>
        <time>2018-07-01T07:52:46.000Z</time>
      </trkpt>
      <trkpt lat="47.21572" lon="6.70865">
        <ele>855</ele>
        <time>2018-07-01T07:52:47.000Z</time>
      </trkpt>
      <trkpt lat="47.21574" lon="6.70869">
        <ele>855</ele>
        <time>2018-07-01T07:52:48.000Z</time>
      </trkpt>
      <trkpt lat="47.21577" lon="6.70873">
        <ele>856</ele>
        <time>2018-07-01T07:52:49.000Z</time>
      </trkpt>
      <trkpt lat="47.21579" lon="6.70876">
        <ele>856</ele>
        <time>2018-07-01T07:52:50.000Z</time>
      </trkpt>
      <trkpt lat="47.21582" lon="6.7088">
        <ele>856</ele>
        <time>2018-07-01T07:52:51.000Z</time>
      </trkpt>
      <trkpt lat="47.21584" lon="6.70884">
        <ele>845</ele>
        <time>2018-07-01T07:52:52.000Z</time>
      </trkpt>
      <trkpt lat="47.21586" lon="6.70888">
        <ele>846</ele>
        <time>2018-07-01T07:52:53.000Z</time>
      </trkpt>
      <trkpt lat="47.21588" lon="6.70892">
        <ele>846</ele>
        <time>2018-07-01T07:52:54.000Z</time>
      </trkpt>
      <trkpt lat="47.2159" lon="6.70896">
        <ele>847</ele>
        <time>2018-07-01T07:52:55.000Z</time>
      </trkpt>
      <trkpt lat="47.21592" lon="6.70899">
        <ele>847</ele>
        <time>2018-07-01T07:52:56.000Z</time>
      </trkpt>
      <trkpt lat="47.21594" lon="6.70903">
        <ele>848</ele>
        <time>2018-07-01T07:52:57.000Z</time>
      </trkpt>
      <trkpt lat="47.21596" lon="6.70907">
        <ele>848</ele>
        <time>2018-07-01T07:52:58.000Z</time>
      </trkpt>
      <trkpt lat="47.21598" lon="6.70911">
        <ele>848</ele>
        <time>2018-07-01T07:52:59.000Z</time>
      </trkpt>
      <trkpt lat="47.216" lon="6.70915">
        <ele>848</ele>
        <time>2018-07-01T07:53:00.000Z</time>
      </trkpt>
      <trkpt lat="47.21602" lon="6.70919">
        <ele>851</ele>
        <time>2018-07-01T07:53:01.000Z</time>
      </trkpt>
      <trkpt lat="47.21605" lon="6.70923">
        <ele>850</ele>
        <time>2018-07-01T07:53:02.000Z</time>
      </trkpt>
      <trkpt lat="47.21607" lon="6.70927">
        <ele>850</ele>
        <time>2018-07-01T07:53:03.000Z</time>
      </trkpt>
      <trkpt lat="47.21609" lon="6.70931">
        <ele>850</ele>
        <time>2018-07-01T07:53:04.000Z</time>
      </trkpt>
      <trkpt lat="47.21611" lon="6.70935">
        <ele>849</ele>
        <time>2018-07-01T07:53:05.000Z</time>
      </trkpt>
      <trkpt lat="47.21613" lon="6.70939">
        <ele>849</ele>
        <time>2018-07-01T07:53:06.000Z</time>
      </trkpt>
      <trkpt lat="47.21615" lon="6.70943">
        <ele>849</ele>
        <time>2018-07-01T07:53:07.000Z</time>
      </trkpt>
      <trkpt lat="47.21617" lon="6.70947">
        <ele>849</ele>
        <time>2018-07-01T07:53:08.000Z</time>
      </trkpt>
      <trkpt lat="47.2162" lon="6.70951">
        <ele>848</ele>
        <time>2018-07-01T07:53:09.000Z</time>
      </trkpt>
      <trkpt lat="47.21622" lon="6.70954">
        <ele>848</ele>
        <time>2018-07-01T07:53:10.000Z</time>
      </trkpt>
      <trkpt lat="47.21624" lon="6.70958">
        <ele>848</ele>
        <time>2018-07-01T07:53:11.000Z</time>
      </trkpt>
      <trkpt lat="47.21626" lon="6.70962">
        <ele>848</ele>
        <time>2018-07-01T07:53:12.000Z</time>
      </trkpt>
      <trkpt lat="47.21628" lon="6.70966">
        <ele>848</ele>
        <time>2018-07-01T07:53:13.000Z</time>
      </trkpt>
      <trkpt lat="47.2163" lon="6.7097">
        <ele>848</ele>
        <time>2018-07-01T07:53:14.000Z</time>
      </trkpt>
      <trkpt lat="47.21632" lon="6.70973">
        <ele>848</ele>
        <time>2018-07-01T07:53:15.000Z</time>
      </trkpt>
      <trkpt lat="47.21634" lon="6.70977">
        <ele>847</ele>
        <time>2018-07-01T07:53:16.000Z</time>
      </trkpt>
      <trkpt lat="47.21636" lon="6.7098">
        <ele>847</ele>
        <time>2018-07-01T07:53:17.000Z</time>
      </trkpt>
      <trkpt lat="47.21638" lon="6.70984">
        <ele>847</ele>
        <time>2018-07-01T07:53:18.000Z</time>
      </trkpt>
      <trkpt lat="47.21641" lon="6.70987">
        <ele>847</ele>
        <time>2018-07-01T07:53:19.000Z</time>
      </trkpt>
      <trkpt lat="47.21643" lon="6.70991">
        <ele>846</ele>
        <time>2018-07-01T07:53:20.000Z</time>
      </trkpt>
      <trkpt lat="47.21646" lon="6.70995">
        <ele>846</ele>
        <time>2018-07-01T07:53:21.000Z</time>
      </trkpt>
      <trkpt lat="47.21648" lon="6.70999">
        <ele>846</ele>
        <time>2018-07-01T07:53:22.000Z</time>
      </trkpt>
      <trkpt lat="47.2165" lon="6.71003">
        <ele>846</ele>
        <time>2018-07-01T07:53:23.000Z</time>
      </trkpt>
      <trkpt lat="47.21652" lon="6.71006">
        <ele>845</ele>
        <time>2018-07-01T07:53:24.000Z</time>
      </trkpt>
      <trkpt lat="47.21655" lon="6.7101">
        <ele>845</ele>
        <time>2018-07-01T07:53:25.000Z</time>
      </trkpt>
      <trkpt lat="47.21657" lon="6.71014">
        <ele>845</ele>
        <time>2018-07-01T07:53:26.000Z</time>
      </trkpt>
      <trkpt lat="47.21659" lon="6.71018">
        <ele>846</ele>
        <time>2018-07-01T07:53:27.000Z</time>
      </trkpt>
      <trkpt lat="47.21662" lon="6.71021">
        <ele>846</ele>
        <time>2018-07-01T07:53:28.000Z</time>
      </trkpt>
      <trkpt lat="47.21664" lon="6.71025">
        <ele>846</ele>
        <time>2018-07-01T07:53:29.000Z</time>
      </trkpt>
      <trkpt lat="47.21666" lon="6.71029">
        <ele>846</ele>
        <time>2018-07-01T07:53:30.000Z</time>
      </trkpt>
      <trkpt lat="47.21668" lon="6.71033">
        <ele>839</ele>
        <time>2018-07-01T07:53:31.000Z</time>
      </trkpt>
      <trkpt lat="47.2167" lon="6.71037">
        <ele>839</ele>
        <time>2018-07-01T07:53:32.000Z</time>
      </trkpt>
      <trkpt lat="47.21673" lon="6.7104">
        <ele>839</ele>
        <time>2018-07-01T07:53:33.000Z</time>
      </trkpt>
      <trkpt lat="47.21675" lon="6.71044">
        <ele>839</ele>
        <time>2018-07-01T07:53:34.000Z</time>
      </trkpt>
      <trkpt lat="47.21677" lon="6.71048">
        <ele>839</ele>
        <time>2018-07-01T07:53:35.000Z</time>
      </trkpt>
      <trkpt lat="47.21679" lon="6.71052">
        <ele>840</ele>
        <time>2018-07-01T07:53:36.000Z</time>
      </trkpt>
      <trkpt lat="47.21681" lon="6.71056">
        <ele>840</ele>
        <time>2018-07-01T07:53:37.000Z</time>
      </trkpt>
      <trkpt lat="47.21683" lon="6.7106">
        <ele>840</ele>
        <time>2018-07-01T07:53:38.000Z</time>
      </trkpt>
      <trkpt lat="47.21685" lon="6.71064">
        <ele>840</ele>
        <time>2018-07-01T07:53:39.000Z</time>
      </trkpt>
      <trkpt lat="47.21687" lon="6.71068">
        <ele>840</ele>
        <time>2018-07-01T07:53:40.000Z</time>
      </trkpt>
      <trkpt lat="47.21689" lon="6.71073">
        <ele>840</ele>
        <time>2018-07-01T07:53:41.000Z</time>
      </trkpt>
      <trkpt lat="47.21691" lon="6.71077">
        <ele>840</ele>
        <time>2018-07-01T07:53:42.000Z</time>
      </trkpt>
      <trkpt lat="47.21693" lon="6.71081">
        <ele>840</ele>
        <time>2018-07-01T07:53:43.000Z</time>
      </trkpt>
      <trkpt lat="47.21695" lon="6.71085">
        <ele>841</ele>
        <time>2018-07-01T07:53:44.000Z</time>
      </trkpt>
      <trkpt lat="47.21697" lon="6.71089">
        <ele>841</ele>
        <time>2018-07-01T07:53:45.000Z</time>
      </trkpt>
      <trkpt lat="47.21699" lon="6.71093">
        <ele>840</ele>
        <time>2018-07-01T07:53:46.000Z</time>
      </trkpt>
      <trkpt lat="47.21701" lon="6.71097">
        <ele>840</ele>
        <time>2018-07-01T07:53:47.000Z</time>
      </trkpt>
      <trkpt lat="47.21703" lon="6.711">
        <ele>839</ele>
        <time>2018-07-01T07:53:48.000Z</time>
      </trkpt>
      <trkpt lat="47.21706" lon="6.71104">
        <ele>839</ele>
        <time>2018-07-01T07:53:49.000Z</time>
      </trkpt>
      <trkpt lat="47.21708" lon="6.71108">
        <ele>839</ele>
        <time>2018-07-01T07:53:50.000Z</time>
      </trkpt>
      <trkpt lat="47.2171" lon="6.71111">
        <ele>839</ele>
        <time>2018-07-01T07:53:51.000Z</time>
      </trkpt>
      <trkpt lat="47.21713" lon="6.71115">
        <ele>838</ele>
        <time>2018-07-01T07:53:52.000Z</time>
      </trkpt>
      <trkpt lat="47.21715" lon="6.71118">
        <ele>838</ele>
        <time>2018-07-01T07:53:53.000Z</time>
      </trkpt>
      <trkpt lat="47.21718" lon="6.71122">
        <ele>838</ele>
        <time>2018-07-01T07:53:54.000Z</time>
      </trkpt>
      <trkpt lat="47.2172" lon="6.71125">
        <ele>838</ele>
        <time>2018-07-01T07:53:55.000Z</time>
      </trkpt>
      <trkpt lat="47.21723" lon="6.71129">
        <ele>838</ele>
        <time>2018-07-01T07:53:56.000Z</time>
      </trkpt>
      <trkpt lat="47.21726" lon="6.71132">
        <ele>838</ele>
        <time>2018-07-01T07:53:57.000Z</time>
      </trkpt>
      <trkpt lat="47.21728" lon="6.71136">
        <ele>838</ele>
        <time>2018-07-01T07:53:58.000Z</time>
      </trkpt>
      <trkpt lat="47.21731" lon="6.71139">
        <ele>837</ele>
        <time>2018-07-01T07:53:59.000Z</time>
      </trkpt>
      <trkpt lat="47.21733" lon="6.71143">
        <ele>837</ele>
        <time>2018-07-01T07:54:00.000Z</time>
      </trkpt>
      <trkpt lat="47.21736" lon="6.71146">
        <ele>837</ele>
        <time>2018-07-01T07:54:01.000Z</time>
      </trkpt>
      <trkpt lat="47.21739" lon="6.7115">
        <ele>837</ele>
        <time>2018-07-01T07:54:02.000Z</time>
      </trkpt>
      <trkpt lat="47.21741" lon="6.71153">
        <ele>837</ele>
        <time>2018-07-01T07:54:03.000Z</time>
      </trkpt>
      <trkpt lat="47.21744" lon="6.71156">
        <ele>836</ele>
        <time>2018-07-01T07:54:04.000Z</time>
      </trkpt>
      <trkpt lat="47.21747" lon="6.71159">
        <ele>836</ele>
        <time>2018-07-01T07:54:05.000Z</time>
      </trkpt>
      <trkpt lat="47.21749" lon="6.71163">
        <ele>836</ele>
        <time>2018-07-01T07:54:06.000Z</time>
      </trkpt>
      <trkpt lat="47.21752" lon="6.71166">
        <ele>834</ele>
        <time>2018-07-01T07:54:07.000Z</time>
      </trkpt>
      <trkpt lat="47.21755" lon="6.71169">
        <ele>835</ele>
        <time>2018-07-01T07:54:08.000Z</time>
      </trkpt>
      <trkpt lat="47.21758" lon="6.71173">
        <ele>834</ele>
        <time>2018-07-01T07:54:09.000Z</time>
      </trkpt>
      <trkpt lat="47.21761" lon="6.71176">
        <ele>834</ele>
        <time>2018-07-01T07:54:10.000Z</time>
      </trkpt>
      <trkpt lat="47.21764" lon="6.71179">
        <ele>834</ele>
        <time>2018-07-01T07:54:11.000Z</time>
      </trkpt>
      <trkpt lat="47.21767" lon="6.71181">
        <ele>834</ele>
        <time>2018-07-01T07:54:12.000Z</time>
      </trkpt>
      <trkpt lat="47.2177" lon="6.71185">
        <ele>834</ele>
        <time>2018-07-01T07:54:13.000Z</time>
      </trkpt>
      <trkpt lat="47.21773" lon="6.71187">
        <ele>834</ele>
        <time>2018-07-01T07:54:14.000Z</time>
      </trkpt>
      <trkpt lat="47.21776" lon="6.7119">
        <ele>834</ele>
        <time>2018-07-01T07:54:15.000Z</time>
      </trkpt>
      <trkpt lat="47.21779" lon="6.71193">
        <ele>833</ele>
        <time>2018-07-01T07:54:16.000Z</time>
      </trkpt>
      <trkpt lat="47.21783" lon="6.71195">
        <ele>833</ele>
        <time>2018-07-01T07:54:17.000Z</time>
      </trkpt>
      <trkpt lat="47.21787" lon="6.71198">
        <ele>833</ele>
        <time>2018-07-01T07:54:18.000Z</time>
      </trkpt>
      <trkpt lat="47.2179" lon="6.71201">
        <ele>833</ele>
        <time>2018-07-01T07:54:19.000Z</time>
      </trkpt>
      <trkpt lat="47.21793" lon="6.71204">
        <ele>833</ele>
        <time>2018-07-01T07:54:20.000Z</time>
      </trkpt>
      <trkpt lat="47.21797" lon="6.71207">
        <ele>833</ele>
        <time>2018-07-01T07:54:21.000Z</time>
      </trkpt>
      <trkpt lat="47.218" lon="6.71209">
        <ele>833</ele>
        <time>2018-07-01T07:54:22.000Z</time>
      </trkpt>
      <trkpt lat="47.21803" lon="6.71212">
        <ele>833</ele>
        <time>2018-07-01T07:54:23.000Z</time>
      </trkpt>
      <trkpt lat="47.21806" lon="6.71215">
        <ele>833</ele>
        <time>2018-07-01T07:54:24.000Z</time>
      </trkpt>
      <trkpt lat="47.21809" lon="6.71218">
        <ele>833</ele>
        <time>2018-07-01T07:54:25.000Z</time>
      </trkpt>
      <trkpt lat="47.21812" lon="6.71222">
        <ele>833</ele>
        <time>2018-07-01T07:54:26.000Z</time>
      </trkpt>
      <trkpt lat="47.21814" lon="6.71225">
        <ele>833</ele>
        <time>2018-07-01T07:54:27.000Z</time>
      </trkpt>
      <trkpt lat="47.21817" lon="6.71229">
        <ele>833</ele>
        <time>2018-07-01T07:54:28.000Z</time>
      </trkpt>
      <trkpt lat="47.21819" lon="6.71232">
        <ele>833</ele>
        <time>2018-07-01T07:54:29.000Z</time>
      </trkpt>
      <trkpt lat="47.21821" lon="6.71236">
        <ele>833</ele>
        <time>2018-07-01T07:54:30.000Z</time>
      </trkpt>
      <trkpt lat="47.21824" lon="6.7124">
        <ele>833</ele>
        <time>2018-07-01T07:54:31.000Z</time>
      </trkpt>
      <trkpt lat="47.21827" lon="6.71243">
        <ele>832</ele>
        <time>2018-07-01T07:54:32.000Z</time>
      </trkpt>
      <trkpt lat="47.21829" lon="6.71247">
        <ele>832</ele>
        <time>2018-07-01T07:54:33.000Z</time>
      </trkpt>
      <trkpt lat="47.21832" lon="6.7125">
        <ele>832</ele>
        <time>2018-07-01T07:54:34.000Z</time>
      </trkpt>
      <trkpt lat="47.21835" lon="6.71254">
        <ele>831</ele>
        <time>2018-07-01T07:54:35.000Z</time>
      </trkpt>
      <trkpt lat="47.21838" lon="6.71257">
        <ele>831</ele>
        <time>2018-07-01T07:54:36.000Z</time>
      </trkpt>
      <trkpt lat="47.21841" lon="6.71261">
        <ele>830</ele>
        <time>2018-07-01T07:54:37.000Z</time>
      </trkpt>
      <trkpt lat="47.21843" lon="6.71264">
        <ele>830</ele>
        <time>2018-07-01T07:54:38.000Z</time>
      </trkpt>
      <trkpt lat="47.21845" lon="6.71267">
        <ele>829</ele>
        <time>2018-07-01T07:54:39.000Z</time>
      </trkpt>
      <trkpt lat="47.21848" lon="6.71271">
        <ele>829</ele>
        <time>2018-07-01T07:54:40.000Z</time>
      </trkpt>
      <trkpt lat="47.2185" lon="6.71274">
        <ele>829</ele>
        <time>2018-07-01T07:54:41.000Z</time>
      </trkpt>
      <trkpt lat="47.21852" lon="6.71277">
        <ele>828</ele>
        <time>2018-07-01T07:54:42.000Z</time>
      </trkpt>
      <trkpt lat="47.21855" lon="6.7128">
        <ele>828</ele>
        <time>2018-07-01T07:54:43.000Z</time>
      </trkpt>
      <trkpt lat="47.21857" lon="6.71283">
        <ele>828</ele>
        <time>2018-07-01T07:54:44.000Z</time>
      </trkpt>
      <trkpt lat="47.21859" lon="6.71286">
        <ele>828</ele>
        <time>2018-07-01T07:54:45.000Z</time>
      </trkpt>
      <trkpt lat="47.21862" lon="6.71289">
        <ele>828</ele>
        <time>2018-07-01T07:54:46.000Z</time>
      </trkpt>
      <trkpt lat="47.21864" lon="6.71292">
        <ele>828</ele>
        <time>2018-07-01T07:54:47.000Z</time>
      </trkpt>
      <trkpt lat="47.21866" lon="6.71295">
        <ele>828</ele>
        <time>2018-07-01T07:54:48.000Z</time>
      </trkpt>
      <trkpt lat="47.21868" lon="6.71297">
        <ele>828</ele>
        <time>2018-07-01T07:54:49.000Z</time>
      </trkpt>
      <trkpt lat="47.2187" lon="6.71298">
        <ele>827</ele>
        <time>2018-07-01T07:54:50.000Z</time>
      </trkpt>
      <trkpt lat="47.21872" lon="6.71299">
        <ele>827</ele>
        <time>2018-07-01T07:54:51.000Z</time>
      </trkpt>
      <trkpt lat="47.21875" lon="6.71299">
        <ele>827</ele>
        <time>2018-07-01T07:54:52.000Z</time>
      </trkpt>
      <trkpt lat="47.21877" lon="6.71299">
        <ele>827</ele>
        <time>2018-07-01T07:54:53.000Z</time>
      </trkpt>
      <trkpt lat="47.21878" lon="6.713">
        <ele>827</ele>
        <time>2018-07-01T07:54:54.000Z</time>
      </trkpt>
      <trkpt lat="47.2188" lon="6.71301">
        <ele>826</ele>
        <time>2018-07-01T07:54:55.000Z</time>
      </trkpt>
      <trkpt lat="47.21882" lon="6.71302">
        <ele>826</ele>
        <time>2018-07-01T07:54:56.000Z</time>
      </trkpt>
      <trkpt lat="47.21884" lon="6.71304">
        <ele>826</ele>
        <time>2018-07-01T07:54:57.000Z</time>
      </trkpt>
      <trkpt lat="47.21886" lon="6.71306">
        <ele>826</ele>
        <time>2018-07-01T07:54:58.000Z</time>
      </trkpt>
      <trkpt lat="47.21888" lon="6.71308">
        <ele>826</ele>
        <time>2018-07-01T07:54:59.000Z</time>
      </trkpt>
      <trkpt lat="47.2189" lon="6.7131">
        <ele>825</ele>
        <time>2018-07-01T07:55:00.000Z</time>
      </trkpt>
      <trkpt lat="47.21892" lon="6.71313">
        <ele>825</ele>
        <time>2018-07-01T07:55:01.000Z</time>
      </trkpt>
      <trkpt lat="47.21893" lon="6.71316">
        <ele>825</ele>
        <time>2018-07-01T07:55:02.000Z</time>
      </trkpt>
      <trkpt lat="47.21894" lon="6.71319">
        <ele>825</ele>
        <time>2018-07-01T07:55:03.000Z</time>
      </trkpt>
      <trkpt lat="47.21895" lon="6.71322">
        <ele>825</ele>
        <time>2018-07-01T07:55:04.000Z</time>
      </trkpt>
      <trkpt lat="47.21895" lon="6.71325">
        <ele>824</ele>
        <time>2018-07-01T07:55:05.000Z</time>
      </trkpt>
      <trkpt lat="47.21896" lon="6.71328">
        <ele>824</ele>
        <time>2018-07-01T07:55:06.000Z</time>
      </trkpt>
      <trkpt lat="47.21897" lon="6.7133">
        <ele>824</ele>
        <time>2018-07-01T07:55:07.000Z</time>
      </trkpt>
      <trkpt lat="47.21897" lon="6.71333">
        <ele>824</ele>
        <time>2018-07-01T07:55:08.000Z</time>
      </trkpt>
      <trkpt lat="47.21897" lon="6.71335">
        <ele>821</ele>
        <time>2018-07-01T07:55:09.000Z</time>
      </trkpt>
      <trkpt lat="47.21896" lon="6.71337">
        <ele>821</ele>
        <time>2018-07-01T07:55:10.000Z</time>
      </trkpt>
      <trkpt lat="47.21896" lon="6.71339">
        <ele>821</ele>
        <time>2018-07-01T07:55:11.000Z</time>
      </trkpt>
      <trkpt lat="47.21895" lon="6.71341">
        <ele>821</ele>
        <time>2018-07-01T07:55:12.000Z</time>
      </trkpt>
      <trkpt lat="47.21894" lon="6.71342">
        <ele>821</ele>
        <time>2018-07-01T07:55:13.000Z</time>
      </trkpt>
      <trkpt lat="47.21894" lon="6.71344">
        <ele>821</ele>
        <time>2018-07-01T07:55:14.000Z</time>
      </trkpt>
      <trkpt lat="47.21894" lon="6.71345">
        <ele>821</ele>
        <time>2018-07-01T07:55:15.000Z</time>
      </trkpt>
      <trkpt lat="47.21894" lon="6.71347">
        <ele>821</ele>
        <time>2018-07-01T07:55:16.000Z</time>
      </trkpt>
      <trkpt lat="47.21893" lon="6.71349">
        <ele>821</ele>
        <time>2018-07-01T07:55:17.000Z</time>
      </trkpt>
      <trkpt lat="47.21893" lon="6.71351">
        <ele>821</ele>
        <time>2018-07-01T07:55:18.000Z</time>
      </trkpt>
      <trkpt lat="47.21893" lon="6.71352">
        <ele>821</ele>
        <time>2018-07-01T07:55:19.000Z</time>
      </trkpt>
      <trkpt lat="47.21892" lon="6.71353">
        <ele>821</ele>
        <time>2018-07-01T07:55:20.000Z</time>
      </trkpt>
      <trkpt lat="47.21892" lon="6.71354">
        <ele>820</ele>
        <time>2018-07-01T07:55:21.000Z</time>
      </trkpt>
      <trkpt lat="47.21892" lon="6.71355">
        <ele>820</ele>
        <time>2018-07-01T07:55:22.000Z</time>
      </trkpt>
      <trkpt lat="47.21891" lon="6.71357">
        <ele>820</ele>
        <time>2018-07-01T07:55:23.000Z</time>
      </trkpt>
      <trkpt lat="47.2189" lon="6.71358">
        <ele>820</ele>
        <time>2018-07-01T07:55:24.000Z</time>
      </trkpt>
      <trkpt lat="47.2189" lon="6.71359">
        <ele>820</ele>
        <time>2018-07-01T07:55:25.000Z</time>
      </trkpt>
      <trkpt lat="47.21889" lon="6.71361">
        <ele>820</ele>
        <time>2018-07-01T07:55:26.000Z</time>
      </trkpt>
      <trkpt lat="47.21888" lon="6.71363">
        <ele>820</ele>
        <time>2018-07-01T07:55:27.000Z</time>
      </trkpt>
      <trkpt lat="47.21888" lon="6.71366">
        <ele>820</ele>
        <time>2018-07-01T07:55:28.000Z</time>
      </trkpt>
      <trkpt lat="47.21887" lon="6.71368">
        <ele>820</ele>
        <time>2018-07-01T07:55:29.000Z</time>
      </trkpt>
      <trkpt lat="47.21887" lon="6.71371">
        <ele>820</ele>
        <time>2018-07-01T07:55:30.000Z</time>
      </trkpt>
      <trkpt lat="47.21886" lon="6.71373">
        <ele>819</ele>
        <time>2018-07-01T07:55:31.000Z</time>
      </trkpt>
      <trkpt lat="47.21885" lon="6.71375">
        <ele>819</ele>
        <time>2018-07-01T07:55:32.000Z</time>
      </trkpt>
      <trkpt lat="47.21884" lon="6.71376">
        <ele>819</ele>
        <time>2018-07-01T07:55:33.000Z</time>
      </trkpt>
      <trkpt lat="47.21883" lon="6.71378">
        <ele>819</ele>
        <time>2018-07-01T07:55:34.000Z</time>
      </trkpt>
      <trkpt lat="47.21882" lon="6.71379">
        <ele>819</ele>
        <time>2018-07-01T07:55:35.000Z</time>
      </trkpt>
      <trkpt lat="47.21881" lon="6.71381">
        <ele>819</ele>
        <time>2018-07-01T07:55:36.000Z</time>
      </trkpt>
      <trkpt lat="47.2188" lon="6.71384">
        <ele>819</ele>
        <time>2018-07-01T07:55:37.000Z</time>
      </trkpt>
      <trkpt lat="47.21879" lon="6.71387">
        <ele>819</ele>
        <time>2018-07-01T07:55:38.000Z</time>
      </trkpt>
      <trkpt lat="47.21879" lon="6.7139">
        <ele>819</ele>
        <time>2018-07-01T07:55:39.000Z</time>
      </trkpt>
      <trkpt lat="47.21878" lon="6.71394">
        <ele>818</ele>
        <time>2018-07-01T07:55:40.000Z</time>
      </trkpt>
      <trkpt lat="47.21878" lon="6.71399">
        <ele>818</ele>
        <time>2018-07-01T07:55:41.000Z</time>
      </trkpt>
      <trkpt lat="47.21878" lon="6.71403">
        <ele>818</ele>
        <time>2018-07-01T07:55:42.000Z</time>
      </trkpt>
      <trkpt lat="47.21877" lon="6.71407">
        <ele>817</ele>
        <time>2018-07-01T07:55:43.000Z</time>
      </trkpt>
      <trkpt lat="47.21877" lon="6.7141">
        <ele>817</ele>
        <time>2018-07-01T07:55:44.000Z</time>
      </trkpt>
      <trkpt lat="47.21877" lon="6.71414">
        <ele>817</ele>
        <time>2018-07-01T07:55:45.000Z</time>
      </trkpt>
      <trkpt lat="47.21877" lon="6.71417">
        <ele>804</ele>
        <time>2018-07-01T07:55:46.000Z</time>
      </trkpt>
      <trkpt lat="47.21877" lon="6.71421">
        <ele>804</ele>
        <time>2018-07-01T07:55:47.000Z</time>
      </trkpt>
      <trkpt lat="47.21877" lon="6.71424">
        <ele>804</ele>
        <time>2018-07-01T07:55:48.000Z</time>
      </trkpt>
      <trkpt lat="47.21877" lon="6.71427">
        <ele>803</ele>
        <time>2018-07-01T07:55:49.000Z</time>
      </trkpt>
      <trkpt lat="47.21878" lon="6.71431">
        <ele>803</ele>
        <time>2018-07-01T07:55:50.000Z</time>
      </trkpt>
      <trkpt lat="47.21878" lon="6.71435">
        <ele>802</ele>
        <time>2018-07-01T07:55:51.000Z</time>
      </trkpt>
      <trkpt lat="47.21879" lon="6.71439">
        <ele>802</ele>
        <time>2018-07-01T07:55:52.000Z</time>
      </trkpt>
      <trkpt lat="47.2188" lon="6.71442">
        <ele>801</ele>
        <time>2018-07-01T07:55:53.000Z</time>
      </trkpt>
      <trkpt lat="47.21881" lon="6.71444">
        <ele>801</ele>
        <time>2018-07-01T07:55:54.000Z</time>
      </trkpt>
      <trkpt lat="47.21882" lon="6.71446">
        <ele>800</ele>
        <time>2018-07-01T07:55:55.000Z</time>
      </trkpt>
      <trkpt lat="47.21882" lon="6.71447">
        <ele>800</ele>
        <time>2018-07-01T07:55:56.000Z</time>
      </trkpt>
      <trkpt lat="47.21882" lon="6.71447">
        <ele>800</ele>
        <time>2018-07-01T07:55:57.000Z</time>
      </trkpt>
      <trkpt lat="47.21882" lon="6.71447">
        <ele>800</ele>
        <time>2018-07-01T07:55:58.000Z</time>
      </trkpt>
      <trkpt lat="47.21883" lon="6.71446">
        <ele>800</ele>
        <time>2018-07-01T07:55:59.000Z</time>
      </trkpt>
      <trkpt lat="47.21883" lon="6.71445">
        <ele>800</ele>
        <time>2018-07-01T07:56:00.000Z</time>
      </trkpt>
      <trkpt lat="47.21883" lon="6.71445">
        <ele>800</ele>
        <time>2018-07-01T07:56:01.000Z</time>
      </trkpt>
      <trkpt lat="47.21884" lon="6.71446">
        <ele>800</ele>
        <time>2018-07-01T07:56:02.000Z</time>
      </trkpt>
      <trkpt lat="47.21886" lon="6.71447">
        <ele>800</ele>
        <time>2018-07-01T07:56:03.000Z</time>
      </trkpt>
      <trkpt lat="47.21887" lon="6.7145">
        <ele>799</ele>
        <time>2018-07-01T07:56:04.000Z</time>
      </trkpt>
      <trkpt lat="47.21889" lon="6.71452">
        <ele>799</ele>
        <time>2018-07-01T07:56:05.000Z</time>
      </trkpt>
      <trkpt lat="47.21891" lon="6.71455">
        <ele>798</ele>
        <time>2018-07-01T07:56:06.000Z</time>
      </trkpt>
      <trkpt lat="47.21893" lon="6.71457">
        <ele>797</ele>
        <time>2018-07-01T07:56:07.000Z</time>
      </trkpt>
      <trkpt lat="47.21895" lon="6.71459">
        <ele>797</ele>
        <time>2018-07-01T07:56:08.000Z</time>
      </trkpt>
      <trkpt lat="47.21897" lon="6.71461">
        <ele>796</ele>
        <time>2018-07-01T07:56:09.000Z</time>
      </trkpt>
      <trkpt lat="47.21899" lon="6.71463">
        <ele>796</ele>
        <time>2018-07-01T07:56:10.000Z</time>
      </trkpt>
      <trkpt lat="47.21901" lon="6.71464">
        <ele>795</ele>
        <time>2018-07-01T07:56:11.000Z</time>
      </trkpt>
      <trkpt lat="47.21903" lon="6.71465">
        <ele>795</ele>
        <time>2018-07-01T07:56:12.000Z</time>
      </trkpt>
      <trkpt lat="47.21904" lon="6.71465">
        <ele>795</ele>
        <time>2018-07-01T07:56:13.000Z</time>
      </trkpt>
      <trkpt lat="47.21906" lon="6.71465">
        <ele>794</ele>
        <time>2018-07-01T07:56:14.000Z</time>
      </trkpt>
      <trkpt lat="47.21907" lon="6.71464">
        <ele>795</ele>
        <time>2018-07-01T07:56:15.000Z</time>
      </trkpt>
      <trkpt lat="47.21909" lon="6.71463">
        <ele>795</ele>
        <time>2018-07-01T07:56:16.000Z</time>
      </trkpt>
      <trkpt lat="47.2191" lon="6.71461">
        <ele>795</ele>
        <time>2018-07-01T07:56:17.000Z</time>
      </trkpt>
      <trkpt lat="47.21911" lon="6.71459">
        <ele>795</ele>
        <time>2018-07-01T07:56:18.000Z</time>
      </trkpt>
      <trkpt lat="47.21913" lon="6.71457">
        <ele>796</ele>
        <time>2018-07-01T07:56:19.000Z</time>
      </trkpt>
      <trkpt lat="47.21914" lon="6.71455">
        <ele>796</ele>
        <time>2018-07-01T07:56:20.000Z</time>
      </trkpt>
      <trkpt lat="47.21915" lon="6.71455">
        <ele>796</ele>
        <time>2018-07-01T07:56:21.000Z</time>
      </trkpt>
      <trkpt lat="47.21917" lon="6.71455">
        <ele>772</ele>
        <time>2018-07-01T07:56:22.000Z</time>
      </trkpt>
      <trkpt lat="47.21918" lon="6.71455">
        <ele>772</ele>
        <time>2018-07-01T07:56:23.000Z</time>
      </trkpt>
      <trkpt lat="47.2192" lon="6.71456">
        <ele>771</ele>
        <time>2018-07-01T07:56:24.000Z</time>
      </trkpt>
      <trkpt lat="47.21922" lon="6.71456">
        <ele>771</ele>
        <time>2018-07-01T07:56:25.000Z</time>
      </trkpt>
      <trkpt lat="47.21924" lon="6.71457">
        <ele>770</ele>
        <time>2018-07-01T07:56:26.000Z</time>
      </trkpt>
      <trkpt lat="47.21926" lon="6.71459">
        <ele>769</ele>
        <time>2018-07-01T07:56:27.000Z</time>
      </trkpt>
      <trkpt lat="47.21928" lon="6.71461">
        <ele>769</ele>
        <time>2018-07-01T07:56:28.000Z</time>
      </trkpt>
      <trkpt lat="47.2193" lon="6.71464">
        <ele>768</ele>
        <time>2018-07-01T07:56:29.000Z</time>
      </trkpt>
      <trkpt lat="47.21931" lon="6.71466">
        <ele>767</ele>
        <time>2018-07-01T07:56:30.000Z</time>
      </trkpt>
      <trkpt lat="47.21933" lon="6.71469">
        <ele>766</ele>
        <time>2018-07-01T07:56:31.000Z</time>
      </trkpt>
      <trkpt lat="47.21934" lon="6.71471">
        <ele>766</ele>
        <time>2018-07-01T07:56:32.000Z</time>
      </trkpt>
      <trkpt lat="47.21935" lon="6.71473">
        <ele>765</ele>
        <time>2018-07-01T07:56:33.000Z</time>
      </trkpt>
      <trkpt lat="47.21936" lon="6.71476">
        <ele>765</ele>
        <time>2018-07-01T07:56:34.000Z</time>
      </trkpt>
      <trkpt lat="47.21938" lon="6.71479">
        <ele>765</ele>
        <time>2018-07-01T07:56:35.000Z</time>
      </trkpt>
      <trkpt lat="47.21939" lon="6.71482">
        <ele>764</ele>
        <time>2018-07-01T07:56:36.000Z</time>
      </trkpt>
      <trkpt lat="47.2194" lon="6.71485">
        <ele>764</ele>
        <time>2018-07-01T07:56:37.000Z</time>
      </trkpt>
      <trkpt lat="47.21941" lon="6.71488">
        <ele>763</ele>
        <time>2018-07-01T07:56:38.000Z</time>
      </trkpt>
      <trkpt lat="47.21942" lon="6.71491">
        <ele>763</ele>
        <time>2018-07-01T07:56:39.000Z</time>
      </trkpt>
      <trkpt lat="47.21943" lon="6.71493">
        <ele>763</ele>
        <time>2018-07-01T07:56:40.000Z</time>
      </trkpt>
      <trkpt lat="47.21944" lon="6.71496">
        <ele>762</ele>
        <time>2018-07-01T07:56:41.000Z</time>
      </trkpt>
      <trkpt lat="47.21945" lon="6.71497">
        <ele>762</ele>
        <time>2018-07-01T07:56:42.000Z</time>
      </trkpt>
      <trkpt lat="47.21945" lon="6.71497">
        <ele>762</ele>
        <time>2018-07-01T07:56:43.000Z</time>
      </trkpt>
      <trkpt lat="47.21945" lon="6.71497">
        <ele>761</ele>
        <time>2018-07-01T07:56:44.000Z</time>
      </trkpt>
      <trkpt lat="47.21946" lon="6.71497">
        <ele>761</ele>
        <time>2018-07-01T07:56:45.000Z</time>
      </trkpt>
      <trkpt lat="47.21946" lon="6.71497">
        <ele>761</ele>
        <time>2018-07-01T07:56:46.000Z</time>
      </trkpt>
      <trkpt lat="47.21946" lon="6.71496">
        <ele>761</ele>
        <time>2018-07-01T07:56:47.000Z</time>
      </trkpt>
      <trkpt lat="47.21947" lon="6.71496">
        <ele>761</ele>
        <time>2018-07-01T07:56:48.000Z</time>
      </trkpt>
      <trkpt lat="47.21948" lon="6.71495">
        <ele>760</ele>
        <time>2018-07-01T07:56:49.000Z</time>
      </trkpt>
      <trkpt lat="47.21949" lon="6.71495">
        <ele>760</ele>
        <time>2018-07-01T07:56:50.000Z</time>
      </trkpt>
      <trkpt lat="47.2195" lon="6.71494">
        <ele>759</ele>
        <time>2018-07-01T07:56:51.000Z</time>
      </trkpt>
      <trkpt lat="47.21952" lon="6.71495">
        <ele>759</ele>
        <time>2018-07-01T07:56:52.000Z</time>
      </trkpt>
      <trkpt lat="47.21953" lon="6.71495">
        <ele>758</ele>
        <time>2018-07-01T07:56:53.000Z</time>
      </trkpt>
      <trkpt lat="47.21955" lon="6.71495">
        <ele>757</ele>
        <time>2018-07-01T07:56:54.000Z</time>
      </trkpt>
      <trkpt lat="47.21958" lon="6.71495">
        <ele>755</ele>
        <time>2018-07-01T07:56:55.000Z</time>
      </trkpt>
      <trkpt lat="47.21961" lon="6.71495">
        <ele>754</ele>
        <time>2018-07-01T07:56:56.000Z</time>
      </trkpt>
      <trkpt lat="47.21963" lon="6.71495">
        <ele>753</ele>
        <time>2018-07-01T07:56:57.000Z</time>
      </trkpt>
      <trkpt lat="47.21966" lon="6.71495">
        <ele>751</ele>
        <time>2018-07-01T07:56:58.000Z</time>
      </trkpt>
      <trkpt lat="47.21968" lon="6.71496">
        <ele>750</ele>
        <time>2018-07-01T07:56:59.000Z</time>
      </trkpt>
      <trkpt lat="47.21969" lon="6.71497">
        <ele>749</ele>
        <time>2018-07-01T07:57:00.000Z</time>
      </trkpt>
      <trkpt lat="47.21971" lon="6.71498">
        <ele>748</ele>
        <time>2018-07-01T07:57:01.000Z</time>
      </trkpt>
      <trkpt lat="47.21972" lon="6.71499">
        <ele>747</ele>
        <time>2018-07-01T07:57:02.000Z</time>
      </trkpt>
      <trkpt lat="47.21972" lon="6.715">
        <ele>747</ele>
        <time>2018-07-01T07:57:03.000Z</time>
      </trkpt>
      <trkpt lat="47.21972" lon="6.71501">
        <ele>733</ele>
        <time>2018-07-01T07:57:04.000Z</time>
      </trkpt>
      <trkpt lat="47.21971" lon="6.71503">
        <ele>733</ele>
        <time>2018-07-01T07:57:05.000Z</time>
      </trkpt>
      <trkpt lat="47.2197" lon="6.71506">
        <ele>734</ele>
        <time>2018-07-01T07:57:06.000Z</time>
      </trkpt>
      <trkpt lat="47.21969" lon="6.71509">
        <ele>734</ele>
        <time>2018-07-01T07:57:07.000Z</time>
      </trkpt>
      <trkpt lat="47.21968" lon="6.71513">
        <ele>734</ele>
        <time>2018-07-01T07:57:08.000Z</time>
      </trkpt>
      <trkpt lat="47.21967" lon="6.71517">
        <ele>735</ele>
        <time>2018-07-01T07:57:09.000Z</time>
      </trkpt>
      <trkpt lat="47.21967" lon="6.71521">
        <ele>734</ele>
        <time>2018-07-01T07:57:10.000Z</time>
      </trkpt>
      <trkpt lat="47.21966" lon="6.71526">
        <ele>734</ele>
        <time>2018-07-01T07:57:11.000Z</time>
      </trkpt>
      <trkpt lat="47.21966" lon="6.71531">
        <ele>734</ele>
        <time>2018-07-01T07:57:12.000Z</time>
      </trkpt>
      <trkpt lat="47.21965" lon="6.71536">
        <ele>734</ele>
        <time>2018-07-01T07:57:13.000Z</time>
      </trkpt>
      <trkpt lat="47.21965" lon="6.71541">
        <ele>733</ele>
        <time>2018-07-01T07:57:14.000Z</time>
      </trkpt>
      <trkpt lat="47.21964" lon="6.71544">
        <ele>733</ele>
        <time>2018-07-01T07:57:15.000Z</time>
      </trkpt>
      <trkpt lat="47.21964" lon="6.71548">
        <ele>733</ele>
        <time>2018-07-01T07:57:16.000Z</time>
      </trkpt>
      <trkpt lat="47.21964" lon="6.71552">
        <ele>732</ele>
        <time>2018-07-01T07:57:17.000Z</time>
      </trkpt>
      <trkpt lat="47.21964" lon="6.71555">
        <ele>732</ele>
        <time>2018-07-01T07:57:18.000Z</time>
      </trkpt>
      <trkpt lat="47.21964" lon="6.71559">
        <ele>731</ele>
        <time>2018-07-01T07:57:19.000Z</time>
      </trkpt>
      <trkpt lat="47.21964" lon="6.71563">
        <ele>730</ele>
        <time>2018-07-01T07:57:20.000Z</time>
      </trkpt>
      <trkpt lat="47.21964" lon="6.71566">
        <ele>730</ele>
        <time>2018-07-01T07:57:21.000Z</time>
      </trkpt>
      <trkpt lat="47.21964" lon="6.7157">
        <ele>729</ele>
        <time>2018-07-01T07:57:22.000Z</time>
      </trkpt>
      <trkpt lat="47.21964" lon="6.71573">
        <ele>729</ele>
        <time>2018-07-01T07:57:23.000Z</time>
      </trkpt>
      <trkpt lat="47.21964" lon="6.71577">
        <ele>729</ele>
        <time>2018-07-01T07:57:24.000Z</time>
      </trkpt>
      <trkpt lat="47.21963" lon="6.71581">
        <ele>729</ele>
        <time>2018-07-01T07:57:25.000Z</time>
      </trkpt>
      <trkpt lat="47.21963" lon="6.71585">
        <ele>715</ele>
        <time>2018-07-01T07:57:26.000Z</time>
      </trkpt>
      <trkpt lat="47.21962" lon="6.71589">
        <ele>715</ele>
        <time>2018-07-01T07:57:27.000Z</time>
      </trkpt>
      <trkpt lat="47.21962" lon="6.71591">
        <ele>715</ele>
        <time>2018-07-01T07:57:28.000Z</time>
      </trkpt>
      <trkpt lat="47.21961" lon="6.71594">
        <ele>715</ele>
        <time>2018-07-01T07:57:29.000Z</time>
      </trkpt>
      <trkpt lat="47.21961" lon="6.71596">
        <ele>715</ele>
        <time>2018-07-01T07:57:30.000Z</time>
      </trkpt>
      <trkpt lat="47.21962" lon="6.71599">
        <ele>715</ele>
        <time>2018-07-01T07:57:31.000Z</time>
      </trkpt>
      <trkpt lat="47.21962" lon="6.71601">
        <ele>714</ele>
        <time>2018-07-01T07:57:32.000Z</time>
      </trkpt>
      <trkpt lat="47.21963" lon="6.71603">
        <ele>714</ele>
        <time>2018-07-01T07:57:33.000Z</time>
      </trkpt>
      <trkpt lat="47.21964" lon="6.71604">
        <ele>714</ele>
        <time>2018-07-01T07:57:34.000Z</time>
      </trkpt>
      <trkpt lat="47.21964" lon="6.71603">
        <ele>713</ele>
        <time>2018-07-01T07:57:35.000Z</time>
      </trkpt>
      <trkpt lat="47.21965" lon="6.71602">
        <ele>713</ele>
        <time>2018-07-01T07:57:36.000Z</time>
      </trkpt>
      <trkpt lat="47.21965" lon="6.71601">
        <ele>713</ele>
        <time>2018-07-01T07:57:37.000Z</time>
      </trkpt>
      <trkpt lat="47.21966" lon="6.716">
        <ele>713</ele>
        <time>2018-07-01T07:57:38.000Z</time>
      </trkpt>
      <trkpt lat="47.21967" lon="6.71599">
        <ele>712</ele>
        <time>2018-07-01T07:57:39.000Z</time>
      </trkpt>
      <trkpt lat="47.21968" lon="6.71597">
        <ele>712</ele>
        <time>2018-07-01T07:57:40.000Z</time>
      </trkpt>
      <trkpt lat="47.2197" lon="6.71596">
        <ele>711</ele>
        <time>2018-07-01T07:57:41.000Z</time>
      </trkpt>
      <trkpt lat="47.21972" lon="6.71595">
        <ele>710</ele>
        <time>2018-07-01T07:57:42.000Z</time>
      </trkpt>
      <trkpt lat="47.21974" lon="6.71595">
        <ele>709</ele>
        <time>2018-07-01T07:57:43.000Z</time>
      </trkpt>
      <trkpt lat="47.21974" lon="6.71596">
        <ele>709</ele>
        <time>2018-07-01T07:57:44.000Z</time>
      </trkpt>
      <trkpt lat="47.21975" lon="6.71598">
        <ele>709</ele>
        <time>2018-07-01T07:57:45.000Z</time>
      </trkpt>
      <trkpt lat="47.21974" lon="6.71601">
        <ele>709</ele>
        <time>2018-07-01T07:57:46.000Z</time>
      </trkpt>
      <trkpt lat="47.21974" lon="6.71604">
        <ele>709</ele>
        <time>2018-07-01T07:57:47.000Z</time>
      </trkpt>
      <trkpt lat="47.21974" lon="6.71607">
        <ele>709</ele>
        <time>2018-07-01T07:57:48.000Z</time>
      </trkpt>
      <trkpt lat="47.21975" lon="6.7161">
        <ele>709</ele>
        <time>2018-07-01T07:57:49.000Z</time>
      </trkpt>
      <trkpt lat="47.21976" lon="6.71613">
        <ele>709</ele>
        <time>2018-07-01T07:57:50.000Z</time>
      </trkpt>
      <trkpt lat="47.21976" lon="6.71616">
        <ele>708</ele>
        <time>2018-07-01T07:57:51.000Z</time>
      </trkpt>
      <trkpt lat="47.21977" lon="6.71619">
        <ele>708</ele>
        <time>2018-07-01T07:57:52.000Z</time>
      </trkpt>
      <trkpt lat="47.21977" lon="6.71621">
        <ele>708</ele>
        <time>2018-07-01T07:57:53.000Z</time>
      </trkpt>
      <trkpt lat="47.21978" lon="6.71624">
        <ele>707</ele>
        <time>2018-07-01T07:57:54.000Z</time>
      </trkpt>
      <trkpt lat="47.2198" lon="6.71626">
        <ele>706</ele>
        <time>2018-07-01T07:57:55.000Z</time>
      </trkpt>
      <trkpt lat="47.21981" lon="6.71629">
        <ele>706</ele>
        <time>2018-07-01T07:57:56.000Z</time>
      </trkpt>
      <trkpt lat="47.21983" lon="6.71632">
        <ele>705</ele>
        <time>2018-07-01T07:57:57.000Z</time>
      </trkpt>
      <trkpt lat="47.21985" lon="6.71635">
        <ele>704</ele>
        <time>2018-07-01T07:57:58.000Z</time>
      </trkpt>
      <trkpt lat="47.21986" lon="6.71638">
        <ele>702</ele>
        <time>2018-07-01T07:57:59.000Z</time>
      </trkpt>
      <trkpt lat="47.21988" lon="6.71641">
        <ele>701</ele>
        <time>2018-07-01T07:58:00.000Z</time>
      </trkpt>
      <trkpt lat="47.21989" lon="6.71644">
        <ele>699</ele>
        <time>2018-07-01T07:58:01.000Z</time>
      </trkpt>
      <trkpt lat="47.2199" lon="6.71648">
        <ele>697</ele>
        <time>2018-07-01T07:58:02.000Z</time>
      </trkpt>
      <trkpt lat="47.21991" lon="6.71651">
        <ele>695</ele>
        <time>2018-07-01T07:58:03.000Z</time>
      </trkpt>
      <trkpt lat="47.21992" lon="6.71654">
        <ele>693</ele>
        <time>2018-07-01T07:58:04.000Z</time>
      </trkpt>
      <trkpt lat="47.21993" lon="6.71656">
        <ele>691</ele>
        <time>2018-07-01T07:58:05.000Z</time>
      </trkpt>
      <trkpt lat="47.21994" lon="6.71658">
        <ele>690</ele>
        <time>2018-07-01T07:58:06.000Z</time>
      </trkpt>
      <trkpt lat="47.21994" lon="6.7166">
        <ele>688</ele>
        <time>2018-07-01T07:58:07.000Z</time>
      </trkpt>
      <trkpt lat="47.21995" lon="6.71661">
        <ele>688</ele>
        <time>2018-07-01T07:58:08.000Z</time>
      </trkpt>
      <trkpt lat="47.21994" lon="6.7166">
        <ele>688</ele>
        <time>2018-07-01T07:58:09.000Z</time>
      </trkpt>
      <trkpt lat="47.21994" lon="6.7166">
        <ele>688</ele>
        <time>2018-07-01T07:58:10.000Z</time>
      </trkpt>
      <trkpt lat="47.21994" lon="6.7166">
        <ele>688</ele>
        <time>2018-07-01T07:58:11.000Z</time>
      </trkpt>
      <trkpt lat="47.21995" lon="6.71661">
        <ele>687</ele>
        <time>2018-07-01T07:58:12.000Z</time>
      </trkpt>
      <trkpt lat="47.21996" lon="6.71662">
        <ele>686</ele>
        <time>2018-07-01T07:58:13.000Z</time>
      </trkpt>
      <trkpt lat="47.21997" lon="6.71664">
        <ele>683</ele>
        <time>2018-07-01T07:58:14.000Z</time>
      </trkpt>
      <trkpt lat="47.21998" lon="6.71666">
        <ele>681</ele>
        <time>2018-07-01T07:58:15.000Z</time>
      </trkpt>
      <trkpt lat="47.22" lon="6.71669">
        <ele>679</ele>
        <time>2018-07-01T07:58:16.000Z</time>
      </trkpt>
      <trkpt lat="47.22002" lon="6.71672">
        <ele>671</ele>
        <time>2018-07-01T07:58:17.000Z</time>
      </trkpt>
      <trkpt lat="47.22004" lon="6.71676">
        <ele>667</ele>
        <time>2018-07-01T07:58:18.000Z</time>
      </trkpt>
      <trkpt lat="47.22005" lon="6.7168">
        <ele>663</ele>
        <time>2018-07-01T07:58:19.000Z</time>
      </trkpt>
      <trkpt lat="47.22007" lon="6.71683">
        <ele>661</ele>
        <time>2018-07-01T07:58:20.000Z</time>
      </trkpt>
      <trkpt lat="47.22009" lon="6.71686">
        <ele>658</ele>
        <time>2018-07-01T07:58:21.000Z</time>
      </trkpt>
      <trkpt lat="47.22011" lon="6.71689">
        <ele>657</ele>
        <time>2018-07-01T07:58:22.000Z</time>
      </trkpt>
      <trkpt lat="47.22013" lon="6.71691">
        <ele>655</ele>
        <time>2018-07-01T07:58:23.000Z</time>
      </trkpt>
      <trkpt lat="47.22014" lon="6.71693">
        <ele>654</ele>
        <time>2018-07-01T07:58:24.000Z</time>
      </trkpt>
      <trkpt lat="47.22015" lon="6.71694">
        <ele>654</ele>
        <time>2018-07-01T07:58:25.000Z</time>
      </trkpt>
      <trkpt lat="47.22016" lon="6.71695">
        <ele>653</ele>
        <time>2018-07-01T07:58:26.000Z</time>
      </trkpt>
      <trkpt lat="47.22018" lon="6.71696">
        <ele>652</ele>
        <time>2018-07-01T07:58:27.000Z</time>
      </trkpt>
      <trkpt lat="47.22018" lon="6.71698">
        <ele>652</ele>
        <time>2018-07-01T07:58:28.000Z</time>
      </trkpt>
      <trkpt lat="47.22019" lon="6.717">
        <ele>651</ele>
        <time>2018-07-01T07:58:29.000Z</time>
      </trkpt>
      <trkpt lat="47.22019" lon="6.71701">
        <ele>651</ele>
        <time>2018-07-01T07:58:30.000Z</time>
      </trkpt>
      <trkpt lat="47.2202" lon="6.71703">
        <ele>651</ele>
        <time>2018-07-01T07:58:31.000Z</time>
      </trkpt>
      <trkpt lat="47.2202" lon="6.71705">
        <ele>650</ele>
        <time>2018-07-01T07:58:32.000Z</time>
      </trkpt>
      <trkpt lat="47.22022" lon="6.71708">
        <ele>650</ele>
        <time>2018-07-01T07:58:33.000Z</time>
      </trkpt>
      <trkpt lat="47.22022" lon="6.7171">
        <ele>649</ele>
        <time>2018-07-01T07:58:34.000Z</time>
      </trkpt>
      <trkpt lat="47.22023" lon="6.71713">
        <ele>649</ele>
        <time>2018-07-01T07:58:35.000Z</time>
      </trkpt>
      <trkpt lat="47.22024" lon="6.71716">
        <ele>648</ele>
        <time>2018-07-01T07:58:36.000Z</time>
      </trkpt>
      <trkpt lat="47.22025" lon="6.71721">
        <ele>648</ele>
        <time>2018-07-01T07:58:37.000Z</time>
      </trkpt>
      <trkpt lat="47.22026" lon="6.71726">
        <ele>648</ele>
        <time>2018-07-01T07:58:38.000Z</time>
      </trkpt>
      <trkpt lat="47.22027" lon="6.71731">
        <ele>648</ele>
        <time>2018-07-01T07:58:39.000Z</time>
      </trkpt>
      <trkpt lat="47.22027" lon="6.71736">
        <ele>648</ele>
        <time>2018-07-01T07:58:40.000Z</time>
      </trkpt>
      <trkpt lat="47.22026" lon="6.71743">
        <ele>649</ele>
        <time>2018-07-01T07:58:41.000Z</time>
      </trkpt>
      <trkpt lat="47.22025" lon="6.71749">
        <ele>650</ele>
        <time>2018-07-01T07:58:42.000Z</time>
      </trkpt>
      <trkpt lat="47.22024" lon="6.71754">
        <ele>650</ele>
        <time>2018-07-01T07:58:43.000Z</time>
      </trkpt>
      <trkpt lat="47.22023" lon="6.71759">
        <ele>650</ele>
        <time>2018-07-01T07:58:44.000Z</time>
      </trkpt>
      <trkpt lat="47.22022" lon="6.71764">
        <ele>650</ele>
        <time>2018-07-01T07:58:45.000Z</time>
      </trkpt>
      <trkpt lat="47.22021" lon="6.71768">
        <ele>649</ele>
        <time>2018-07-01T07:58:46.000Z</time>
      </trkpt>
      <trkpt lat="47.2202" lon="6.71773">
        <ele>649</ele>
        <time>2018-07-01T07:58:47.000Z</time>
      </trkpt>
      <trkpt lat="47.2202" lon="6.71777">
        <ele>649</ele>
        <time>2018-07-01T07:58:48.000Z</time>
      </trkpt>
      <trkpt lat="47.22019" lon="6.71781">
        <ele>649</ele>
        <time>2018-07-01T07:58:49.000Z</time>
      </trkpt>
      <trkpt lat="47.22018" lon="6.71786">
        <ele>648</ele>
        <time>2018-07-01T07:58:50.000Z</time>
      </trkpt>
      <trkpt lat="47.22018" lon="6.7179">
        <ele>649</ele>
        <time>2018-07-01T07:58:51.000Z</time>
      </trkpt>
      <trkpt lat="47.22017" lon="6.71795">
        <ele>649</ele>
        <time>2018-07-01T07:58:52.000Z</time>
      </trkpt>
      <trkpt lat="47.22015" lon="6.718">
        <ele>649</ele>
        <time>2018-07-01T07:58:53.000Z</time>
      </trkpt>
      <trkpt lat="47.22015" lon="6.71805">
        <ele>650</ele>
        <time>2018-07-01T07:58:54.000Z</time>
      </trkpt>
      <trkpt lat="47.22013" lon="6.7181">
        <ele>651</ele>
        <time>2018-07-01T07:58:55.000Z</time>
      </trkpt>
      <trkpt lat="47.22012" lon="6.71816">
        <ele>652</ele>
        <time>2018-07-01T07:58:56.000Z</time>
      </trkpt>
      <trkpt lat="47.22011" lon="6.71822">
        <ele>653</ele>
        <time>2018-07-01T07:58:57.000Z</time>
      </trkpt>
      <trkpt lat="47.22011" lon="6.71829">
        <ele>655</ele>
        <time>2018-07-01T07:58:58.000Z</time>
      </trkpt>
      <trkpt lat="47.22009" lon="6.71834">
        <ele>661</ele>
        <time>2018-07-01T07:58:59.000Z</time>
      </trkpt>
      <trkpt lat="47.22008" lon="6.71839">
        <ele>661</ele>
        <time>2018-07-01T07:59:00.000Z</time>
      </trkpt>
      <trkpt lat="47.22007" lon="6.71843">
        <ele>661</ele>
        <time>2018-07-01T07:59:01.000Z</time>
      </trkpt>
      <trkpt lat="47.22006" lon="6.71845">
        <ele>662</ele>
        <time>2018-07-01T07:59:02.000Z</time>
      </trkpt>
      <trkpt lat="47.22005" lon="6.71847">
        <ele>662</ele>
        <time>2018-07-01T07:59:03.000Z</time>
      </trkpt>
      <trkpt lat="47.22004" lon="6.71849">
        <ele>662</ele>
        <time>2018-07-01T07:59:04.000Z</time>
      </trkpt>
      <trkpt lat="47.22004" lon="6.71851">
        <ele>662</ele>
        <time>2018-07-01T07:59:05.000Z</time>
      </trkpt>
      <trkpt lat="47.22004" lon="6.71852">
        <ele>662</ele>
        <time>2018-07-01T07:59:06.000Z</time>
      </trkpt>
      <trkpt lat="47.22004" lon="6.71854">
        <ele>662</ele>
        <time>2018-07-01T07:59:07.000Z</time>
      </trkpt>
      <trkpt lat="47.22005" lon="6.71856">
        <ele>663</ele>
        <time>2018-07-01T07:59:08.000Z</time>
      </trkpt>
      <trkpt lat="47.22005" lon="6.71858">
        <ele>663</ele>
        <time>2018-07-01T07:59:09.000Z</time>
      </trkpt>
      <trkpt lat="47.22005" lon="6.71861">
        <ele>663</ele>
        <time>2018-07-01T07:59:10.000Z</time>
      </trkpt>
      <trkpt lat="47.22006" lon="6.71864">
        <ele>664</ele>
        <time>2018-07-01T07:59:11.000Z</time>
      </trkpt>
      <trkpt lat="47.22006" lon="6.71867">
        <ele>664</ele>
        <time>2018-07-01T07:59:12.000Z</time>
      </trkpt>
      <trkpt lat="47.22006" lon="6.7187">
        <ele>665</ele>
        <time>2018-07-01T07:59:13.000Z</time>
      </trkpt>
      <trkpt lat="47.22006" lon="6.71873">
        <ele>665</ele>
        <time>2018-07-01T07:59:14.000Z</time>
      </trkpt>
      <trkpt lat="47.22007" lon="6.71875">
        <ele>665</ele>
        <time>2018-07-01T07:59:15.000Z</time>
      </trkpt>
      <trkpt lat="47.22008" lon="6.71877">
        <ele>666</ele>
        <time>2018-07-01T07:59:16.000Z</time>
      </trkpt>
      <trkpt lat="47.22009" lon="6.71878">
        <ele>666</ele>
        <time>2018-07-01T07:59:17.000Z</time>
      </trkpt>
      <trkpt lat="47.2201" lon="6.71879">
        <ele>666</ele>
        <time>2018-07-01T07:59:18.000Z</time>
      </trkpt>
      <trkpt lat="47.22011" lon="6.71879">
        <ele>666</ele>
        <time>2018-07-01T07:59:19.000Z</time>
      </trkpt>
      <trkpt lat="47.22012" lon="6.71878">
        <ele>666</ele>
        <time>2018-07-01T07:59:20.000Z</time>
      </trkpt>
      <trkpt lat="47.22013" lon="6.71877">
        <ele>665</ele>
        <time>2018-07-01T07:59:21.000Z</time>
      </trkpt>
      <trkpt lat="47.22015" lon="6.71876">
        <ele>665</ele>
        <time>2018-07-01T07:59:22.000Z</time>
      </trkpt>
      <trkpt lat="47.22016" lon="6.71875">
        <ele>665</ele>
        <time>2018-07-01T07:59:23.000Z</time>
      </trkpt>
      <trkpt lat="47.22018" lon="6.71873">
        <ele>664</ele>
        <time>2018-07-01T07:59:24.000Z</time>
      </trkpt>
      <trkpt lat="47.22019" lon="6.71871">
        <ele>664</ele>
        <time>2018-07-01T07:59:25.000Z</time>
      </trkpt>
      <trkpt lat="47.2202" lon="6.71869">
        <ele>664</ele>
        <time>2018-07-01T07:59:26.000Z</time>
      </trkpt>
      <trkpt lat="47.22022" lon="6.71867">
        <ele>663</ele>
        <time>2018-07-01T07:59:27.000Z</time>
      </trkpt>
      <trkpt lat="47.22023" lon="6.71865">
        <ele>663</ele>
        <time>2018-07-01T07:59:28.000Z</time>
      </trkpt>
      <trkpt lat="47.22023" lon="6.71862">
        <ele>662</ele>
        <time>2018-07-01T07:59:29.000Z</time>
      </trkpt>
      <trkpt lat="47.22023" lon="6.71859">
        <ele>662</ele>
        <time>2018-07-01T07:59:30.000Z</time>
      </trkpt>
      <trkpt lat="47.22023" lon="6.71856">
        <ele>662</ele>
        <time>2018-07-01T07:59:31.000Z</time>
      </trkpt>
      <trkpt lat="47.22023" lon="6.71852">
        <ele>661</ele>
        <time>2018-07-01T07:59:32.000Z</time>
      </trkpt>
      <trkpt lat="47.22022" lon="6.71849">
        <ele>661</ele>
        <time>2018-07-01T07:59:33.000Z</time>
      </trkpt>
      <trkpt lat="47.22022" lon="6.71846">
        <ele>661</ele>
        <time>2018-07-01T07:59:34.000Z</time>
      </trkpt>
      <trkpt lat="47.22022" lon="6.71844">
        <ele>661</ele>
        <time>2018-07-01T07:59:35.000Z</time>
      </trkpt>
      <trkpt lat="47.22023" lon="6.71843">
        <ele>660</ele>
        <time>2018-07-01T07:59:36.000Z</time>
      </trkpt>
      <trkpt lat="47.22024" lon="6.71843">
        <ele>660</ele>
        <time>2018-07-01T07:59:37.000Z</time>
      </trkpt>
      <trkpt lat="47.22025" lon="6.71842">
        <ele>660</ele>
        <time>2018-07-01T07:59:38.000Z</time>
      </trkpt>
      <trkpt lat="47.22026" lon="6.71841">
        <ele>660</ele>
        <time>2018-07-01T07:59:39.000Z</time>
      </trkpt>
      <trkpt lat="47.22027" lon="6.7184">
        <ele>660</ele>
        <time>2018-07-01T07:59:40.000Z</time>
      </trkpt>
      <trkpt lat="47.22028" lon="6.71839">
        <ele>660</ele>
        <time>2018-07-01T07:59:41.000Z</time>
      </trkpt>
      <trkpt lat="47.22028" lon="6.71837">
        <ele>660</ele>
        <time>2018-07-01T07:59:42.000Z</time>
      </trkpt>
      <trkpt lat="47.22028" lon="6.71835">
        <ele>659</ele>
        <time>2018-07-01T07:59:43.000Z</time>
      </trkpt>
      <trkpt lat="47.22028" lon="6.71833">
        <ele>649</ele>
        <time>2018-07-01T07:59:44.000Z</time>
      </trkpt>
      <trkpt lat="47.22029" lon="6.71831">
        <ele>648</ele>
        <time>2018-07-01T07:59:45.000Z</time>
      </trkpt>
      <trkpt lat="47.2203" lon="6.7183">
        <ele>648</ele>
        <time>2018-07-01T07:59:46.000Z</time>
      </trkpt>
      <trkpt lat="47.22032" lon="6.71829">
        <ele>648</ele>
        <time>2018-07-01T07:59:47.000Z</time>
      </trkpt>
      <trkpt lat="47.22033" lon="6.71828">
        <ele>647</ele>
        <time>2018-07-01T07:59:48.000Z</time>
      </trkpt>
      <trkpt lat="47.22034" lon="6.71827">
        <ele>647</ele>
        <time>2018-07-01T07:59:49.000Z</time>
      </trkpt>
      <trkpt lat="47.22035" lon="6.71825">
        <ele>647</ele>
        <time>2018-07-01T07:59:50.000Z</time>
      </trkpt>
      <trkpt lat="47.22035" lon="6.71824">
        <ele>646</ele>
        <time>2018-07-01T07:59:51.000Z</time>
      </trkpt>
      <trkpt lat="47.22037" lon="6.71823">
        <ele>646</ele>
        <time>2018-07-01T07:59:52.000Z</time>
      </trkpt>
      <trkpt lat="47.22038" lon="6.71822">
        <ele>645</ele>
        <time>2018-07-01T07:59:53.000Z</time>
      </trkpt>
      <trkpt lat="47.2204" lon="6.71822">
        <ele>645</ele>
        <time>2018-07-01T07:59:54.000Z</time>
      </trkpt>
      <trkpt lat="47.22041" lon="6.71821">
        <ele>645</ele>
        <time>2018-07-01T07:59:55.000Z</time>
      </trkpt>
      <trkpt lat="47.22042" lon="6.7182">
        <ele>644</ele>
        <time>2018-07-01T07:59:56.000Z</time>
      </trkpt>
      <trkpt lat="47.22043" lon="6.71818">
        <ele>644</ele>
        <time>2018-07-01T07:59:57.000Z</time>
      </trkpt>
      <trkpt lat="47.22043" lon="6.71815">
        <ele>644</ele>
        <time>2018-07-01T07:59:58.000Z</time>
      </trkpt>
      <trkpt lat="47.22043" lon="6.71812">
        <ele>644</ele>
        <time>2018-07-01T07:59:59.000Z</time>
      </trkpt>
      <trkpt lat="47.22043" lon="6.71808">
        <ele>644</ele>
        <time>2018-07-01T08:00:00.000Z</time>
      </trkpt>
      <trkpt lat="47.22043" lon="6.71804">
        <ele>643</ele>
        <time>2018-07-01T08:00:01.000Z</time>
      </trkpt>
      <trkpt lat="47.22044" lon="6.718">
        <ele>643</ele>
        <time>2018-07-01T08:00:02.000Z</time>
      </trkpt>
      <trkpt lat="47.22045" lon="6.71796">
        <ele>643</ele>
        <time>2018-07-01T08:00:03.000Z</time>
      </trkpt>
      <trkpt lat="47.22046" lon="6.71793">
        <ele>642</ele>
        <time>2018-07-01T08:00:04.000Z</time>
      </trkpt>
      <trkpt lat="47.22047" lon="6.71789">
        <ele>642</ele>
        <time>2018-07-01T08:00:05.000Z</time>
      </trkpt>
      <trkpt lat="47.22048" lon="6.71786">
        <ele>641</ele>
        <time>2018-07-01T08:00:06.000Z</time>
      </trkpt>
      <trkpt lat="47.22049" lon="6.71782">
        <ele>641</ele>
        <time>2018-07-01T08:00:07.000Z</time>
      </trkpt>
      <trkpt lat="47.22051" lon="6.71778">
        <ele>640</ele>
        <time>2018-07-01T08:00:08.000Z</time>
      </trkpt>
      <trkpt lat="47.22052" lon="6.71774">
        <ele>639</ele>
        <time>2018-07-01T08:00:09.000Z</time>
      </trkpt>
      <trkpt lat="47.22054" lon="6.7177">
        <ele>638</ele>
        <time>2018-07-01T08:00:10.000Z</time>
      </trkpt>
      <trkpt lat="47.22055" lon="6.71766">
        <ele>637</ele>
        <time>2018-07-01T08:00:11.000Z</time>
      </trkpt>
      <trkpt lat="47.22055" lon="6.71763">
        <ele>636</ele>
        <time>2018-07-01T08:00:12.000Z</time>
      </trkpt>
      <trkpt lat="47.22056" lon="6.7176">
        <ele>635</ele>
        <time>2018-07-01T08:00:13.000Z</time>
      </trkpt>
      <trkpt lat="47.22057" lon="6.71756">
        <ele>635</ele>
        <time>2018-07-01T08:00:14.000Z</time>
      </trkpt>
      <trkpt lat="47.22058" lon="6.71753">
        <ele>634</ele>
        <time>2018-07-01T08:00:15.000Z</time>
      </trkpt>
      <trkpt lat="47.22058" lon="6.71749">
        <ele>633</ele>
        <time>2018-07-01T08:00:16.000Z</time>
      </trkpt>
      <trkpt lat="47.22059" lon="6.71745">
        <ele>633</ele>
        <time>2018-07-01T08:00:17.000Z</time>
      </trkpt>
      <trkpt lat="47.2206" lon="6.71742">
        <ele>633</ele>
        <time>2018-07-01T08:00:18.000Z</time>
      </trkpt>
      <trkpt lat="47.22062" lon="6.71738">
        <ele>632</ele>
        <time>2018-07-01T08:00:19.000Z</time>
      </trkpt>
      <trkpt lat="47.22063" lon="6.71735">
        <ele>632</ele>
        <time>2018-07-01T08:00:20.000Z</time>
      </trkpt>
      <trkpt lat="47.22064" lon="6.71732">
        <ele>632</ele>
        <time>2018-07-01T08:00:21.000Z</time>
      </trkpt>
      <trkpt lat="47.22066" lon="6.7173">
        <ele>632</ele>
        <time>2018-07-01T08:00:22.000Z</time>
      </trkpt>
      <trkpt lat="47.22067" lon="6.71728">
        <ele>632</ele>
        <time>2018-07-01T08:00:23.000Z</time>
      </trkpt>
      <trkpt lat="47.22069" lon="6.71725">
        <ele>633</ele>
        <time>2018-07-01T08:00:24.000Z</time>
      </trkpt>
      <trkpt lat="47.2207" lon="6.71723">
        <ele>633</ele>
        <time>2018-07-01T08:00:25.000Z</time>
      </trkpt>
      <trkpt lat="47.2207" lon="6.71721">
        <ele>633</ele>
        <time>2018-07-01T08:00:26.000Z</time>
      </trkpt>
      <trkpt lat="47.22071" lon="6.71719">
        <ele>633</ele>
        <time>2018-07-01T08:00:27.000Z</time>
      </trkpt>
      <trkpt lat="47.22071" lon="6.71717">
        <ele>633</ele>
        <time>2018-07-01T08:00:28.000Z</time>
      </trkpt>
      <trkpt lat="47.22072" lon="6.71714">
        <ele>634</ele>
        <time>2018-07-01T08:00:29.000Z</time>
      </trkpt>
      <trkpt lat="47.22072" lon="6.71712">
        <ele>634</ele>
        <time>2018-07-01T08:00:30.000Z</time>
      </trkpt>
      <trkpt lat="47.22071" lon="6.71709">
        <ele>634</ele>
        <time>2018-07-01T08:00:31.000Z</time>
      </trkpt>
      <trkpt lat="47.22071" lon="6.71707">
        <ele>634</ele>
        <time>2018-07-01T08:00:32.000Z</time>
      </trkpt>
      <trkpt lat="47.22071" lon="6.71704">
        <ele>634</ele>
        <time>2018-07-01T08:00:33.000Z</time>
      </trkpt>
      <trkpt lat="47.22071" lon="6.71702">
        <ele>634</ele>
        <time>2018-07-01T08:00:34.000Z</time>
      </trkpt>
      <trkpt lat="47.22071" lon="6.717">
        <ele>634</ele>
        <time>2018-07-01T08:00:35.000Z</time>
      </trkpt>
      <trkpt lat="47.22072" lon="6.71699">
        <ele>634</ele>
        <time>2018-07-01T08:00:36.000Z</time>
      </trkpt>
      <trkpt lat="47.22071" lon="6.71699">
        <ele>634</ele>
        <time>2018-07-01T08:00:37.000Z</time>
      </trkpt>
      <trkpt lat="47.22071" lon="6.71699">
        <ele>634</ele>
        <time>2018-07-01T08:00:38.000Z</time>
      </trkpt>
      <trkpt lat="47.2207" lon="6.717">
        <ele>634</ele>
        <time>2018-07-01T08:00:39.000Z</time>
      </trkpt>
      <trkpt lat="47.2207" lon="6.717">
        <ele>634</ele>
        <time>2018-07-01T08:00:40.000Z</time>
      </trkpt>
      <trkpt lat="47.2207" lon="6.717">
        <ele>634</ele>
        <time>2018-07-01T08:00:41.000Z</time>
      </trkpt>
      <trkpt lat="47.22071" lon="6.71699">
        <ele>634</ele>
        <time>2018-07-01T08:00:42.000Z</time>
      </trkpt>
      <trkpt lat="47.22073" lon="6.71698">
        <ele>634</ele>
        <time>2018-07-01T08:00:43.000Z</time>
      </trkpt>
      <trkpt lat="47.22075" lon="6.71698">
        <ele>633</ele>
        <time>2018-07-01T08:00:44.000Z</time>
      </trkpt>
      <trkpt lat="47.22077" lon="6.71699">
        <ele>633</ele>
        <time>2018-07-01T08:00:45.000Z</time>
      </trkpt>
      <trkpt lat="47.22079" lon="6.71701">
        <ele>633</ele>
        <time>2018-07-01T08:00:46.000Z</time>
      </trkpt>
      <trkpt lat="47.2208" lon="6.71705">
        <ele>633</ele>
        <time>2018-07-01T08:00:47.000Z</time>
      </trkpt>
      <trkpt lat="47.22081" lon="6.71708">
        <ele>632</ele>
        <time>2018-07-01T08:00:48.000Z</time>
      </trkpt>
      <trkpt lat="47.2208" lon="6.71711">
        <ele>632</ele>
        <time>2018-07-01T08:00:49.000Z</time>
      </trkpt>
      <trkpt lat="47.2208" lon="6.71714">
        <ele>632</ele>
        <time>2018-07-01T08:00:50.000Z</time>
      </trkpt>
      <trkpt lat="47.2208" lon="6.71718">
        <ele>632</ele>
        <time>2018-07-01T08:00:51.000Z</time>
      </trkpt>
      <trkpt lat="47.2208" lon="6.71722">
        <ele>631</ele>
        <time>2018-07-01T08:00:52.000Z</time>
      </trkpt>
      <trkpt lat="47.22079" lon="6.71725">
        <ele>630</ele>
        <time>2018-07-01T08:00:53.000Z</time>
      </trkpt>
      <trkpt lat="47.22079" lon="6.71728">
        <ele>629</ele>
        <time>2018-07-01T08:00:54.000Z</time>
      </trkpt>
      <trkpt lat="47.22078" lon="6.7173">
        <ele>628</ele>
        <time>2018-07-01T08:00:55.000Z</time>
      </trkpt>
      <trkpt lat="47.22078" lon="6.71731">
        <ele>628</ele>
        <time>2018-07-01T08:00:56.000Z</time>
      </trkpt>
      <trkpt lat="47.22079" lon="6.71731">
        <ele>628</ele>
        <time>2018-07-01T08:00:57.000Z</time>
      </trkpt>
      <trkpt lat="47.22079" lon="6.71731">
        <ele>628</ele>
        <time>2018-07-01T08:00:58.000Z</time>
      </trkpt>
      <trkpt lat="47.22081" lon="6.7173">
        <ele>628</ele>
        <time>2018-07-01T08:00:59.000Z</time>
      </trkpt>
      <trkpt lat="47.22082" lon="6.71729">
        <ele>628</ele>
        <time>2018-07-01T08:01:00.000Z</time>
      </trkpt>
      <trkpt lat="47.22084" lon="6.71729">
        <ele>608</ele>
        <time>2018-07-01T08:01:01.000Z</time>
      </trkpt>
      <trkpt lat="47.22085" lon="6.71729">
        <ele>608</ele>
        <time>2018-07-01T08:01:02.000Z</time>
      </trkpt>
      <trkpt lat="47.22086" lon="6.71731">
        <ele>608</ele>
        <time>2018-07-01T08:01:03.000Z</time>
      </trkpt>
      <trkpt lat="47.22087" lon="6.71731">
        <ele>608</ele>
        <time>2018-07-01T08:01:04.000Z</time>
      </trkpt>
      <trkpt lat="47.22088" lon="6.71731">
        <ele>608</ele>
        <time>2018-07-01T08:01:05.000Z</time>
      </trkpt>
      <trkpt lat="47.2209" lon="6.71731">
        <ele>608</ele>
        <time>2018-07-01T08:01:06.000Z</time>
      </trkpt>
      <trkpt lat="47.22092" lon="6.71731">
        <ele>607</ele>
        <time>2018-07-01T08:01:07.000Z</time>
      </trkpt>
      <trkpt lat="47.22094" lon="6.7173">
        <ele>607</ele>
        <time>2018-07-01T08:01:08.000Z</time>
      </trkpt>
      <trkpt lat="47.22097" lon="6.71729">
        <ele>607</ele>
        <time>2018-07-01T08:01:09.000Z</time>
      </trkpt>
      <trkpt lat="47.22099" lon="6.71728">
        <ele>606</ele>
        <time>2018-07-01T08:01:10.000Z</time>
      </trkpt>
      <trkpt lat="47.22102" lon="6.71726">
        <ele>606</ele>
        <time>2018-07-01T08:01:11.000Z</time>
      </trkpt>
      <trkpt lat="47.22105" lon="6.71725">
        <ele>605</ele>
        <time>2018-07-01T08:01:12.000Z</time>
      </trkpt>
      <trkpt lat="47.22107" lon="6.71722">
        <ele>605</ele>
        <time>2018-07-01T08:01:13.000Z</time>
      </trkpt>
      <trkpt lat="47.22108" lon="6.7172">
        <ele>604</ele>
        <time>2018-07-01T08:01:14.000Z</time>
      </trkpt>
      <trkpt lat="47.2211" lon="6.71717">
        <ele>604</ele>
        <time>2018-07-01T08:01:15.000Z</time>
      </trkpt>
      <trkpt lat="47.22112" lon="6.71713">
        <ele>604</ele>
        <time>2018-07-01T08:01:16.000Z</time>
      </trkpt>
      <trkpt lat="47.22113" lon="6.7171">
        <ele>603</ele>
        <time>2018-07-01T08:01:17.000Z</time>
      </trkpt>
      <trkpt lat="47.22114" lon="6.71707">
        <ele>603</ele>
        <time>2018-07-01T08:01:18.000Z</time>
      </trkpt>
      <trkpt lat="47.22116" lon="6.71704">
        <ele>602</ele>
        <time>2018-07-01T08:01:19.000Z</time>
      </trkpt>
      <trkpt lat="47.22117" lon="6.717">
        <ele>602</ele>
        <time>2018-07-01T08:01:20.000Z</time>
      </trkpt>
      <trkpt lat="47.22119" lon="6.71696">
        <ele>601</ele>
        <time>2018-07-01T08:01:21.000Z</time>
      </trkpt>
      <trkpt lat="47.2212" lon="6.71692">
        <ele>601</ele>
        <time>2018-07-01T08:01:22.000Z</time>
      </trkpt>
      <trkpt lat="47.22122" lon="6.71689">
        <ele>600</ele>
        <time>2018-07-01T08:01:23.000Z</time>
      </trkpt>
      <trkpt lat="47.22123" lon="6.71685">
        <ele>600</ele>
        <time>2018-07-01T08:01:24.000Z</time>
      </trkpt>
      <trkpt lat="47.22124" lon="6.71681">
        <ele>600</ele>
        <time>2018-07-01T08:01:25.000Z</time>
      </trkpt>
      <trkpt lat="47.22125" lon="6.71678">
        <ele>599</ele>
        <time>2018-07-01T08:01:26.000Z</time>
      </trkpt>
      <trkpt lat="47.22127" lon="6.71674">
        <ele>598</ele>
        <time>2018-07-01T08:01:27.000Z</time>
      </trkpt>
      <trkpt lat="47.2213" lon="6.7167">
        <ele>597</ele>
        <time>2018-07-01T08:01:28.000Z</time>
      </trkpt>
      <trkpt lat="47.22132" lon="6.71667">
        <ele>596</ele>
        <time>2018-07-01T08:01:29.000Z</time>
      </trkpt>
      <trkpt lat="47.22135" lon="6.71663">
        <ele>592</ele>
        <time>2018-07-01T08:01:30.000Z</time>
      </trkpt>
      <trkpt lat="47.22138" lon="6.71659">
        <ele>591</ele>
        <time>2018-07-01T08:01:31.000Z</time>
      </trkpt>
      <trkpt lat="47.22141" lon="6.71656">
        <ele>590</ele>
        <time>2018-07-01T08:01:32.000Z</time>
      </trkpt>
      <trkpt lat="47.22143" lon="6.71652">
        <ele>589</ele>
        <time>2018-07-01T08:01:33.000Z</time>
      </trkpt>
      <trkpt lat="47.22147" lon="6.71648">
        <ele>588</ele>
        <time>2018-07-01T08:01:34.000Z</time>
      </trkpt>
      <trkpt lat="47.2215" lon="6.71644">
        <ele>588</ele>
        <time>2018-07-01T08:01:35.000Z</time>
      </trkpt>
      <trkpt lat="47.22153" lon="6.7164">
        <ele>588</ele>
        <time>2018-07-01T08:01:36.000Z</time>
      </trkpt>
      <trkpt lat="47.22156" lon="6.71636">
        <ele>588</ele>
        <time>2018-07-01T08:01:37.000Z</time>
      </trkpt>
      <trkpt lat="47.22159" lon="6.71631">
        <ele>588</ele>
        <time>2018-07-01T08:01:38.000Z</time>
      </trkpt>
      <trkpt lat="47.22162" lon="6.71627">
        <ele>587</ele>
        <time>2018-07-01T08:01:39.000Z</time>
      </trkpt>
      <trkpt lat="47.22164" lon="6.71623">
        <ele>587</ele>
        <time>2018-07-01T08:01:40.000Z</time>
      </trkpt>
      <trkpt lat="47.22166" lon="6.7162">
        <ele>586</ele>
        <time>2018-07-01T08:01:41.000Z</time>
      </trkpt>
      <trkpt lat="47.22168" lon="6.71616">
        <ele>569</ele>
        <time>2018-07-01T08:01:42.000Z</time>
      </trkpt>
      <trkpt lat="47.2217" lon="6.71612">
        <ele>569</ele>
        <time>2018-07-01T08:01:43.000Z</time>
      </trkpt>
      <trkpt lat="47.22172" lon="6.71608">
        <ele>569</ele>
        <time>2018-07-01T08:01:44.000Z</time>
      </trkpt>
      <trkpt lat="47.22174" lon="6.71605">
        <ele>569</ele>
        <time>2018-07-01T08:01:45.000Z</time>
      </trkpt>
      <trkpt lat="47.22177" lon="6.71601">
        <ele>568</ele>
        <time>2018-07-01T08:01:46.000Z</time>
      </trkpt>
      <trkpt lat="47.22179" lon="6.71597">
        <ele>568</ele>
        <time>2018-07-01T08:01:47.000Z</time>
      </trkpt>
      <trkpt lat="47.22181" lon="6.71593">
        <ele>568</ele>
        <time>2018-07-01T08:01:48.000Z</time>
      </trkpt>
      <trkpt lat="47.22184" lon="6.7159">
        <ele>568</ele>
        <time>2018-07-01T08:01:49.000Z</time>
      </trkpt>
      <trkpt lat="47.22186" lon="6.71586">
        <ele>568</ele>
        <time>2018-07-01T08:01:50.000Z</time>
      </trkpt>
      <trkpt lat="47.22188" lon="6.71583">
        <ele>564</ele>
        <time>2018-07-01T08:01:51.000Z</time>
      </trkpt>
      <trkpt lat="47.2219" lon="6.71579">
        <ele>564</ele>
        <time>2018-07-01T08:01:52.000Z</time>
      </trkpt>
      <trkpt lat="47.22192" lon="6.71575">
        <ele>563</ele>
        <time>2018-07-01T08:01:53.000Z</time>
      </trkpt>
      <trkpt lat="47.22193" lon="6.7157">
        <ele>563</ele>
        <time>2018-07-01T08:01:54.000Z</time>
      </trkpt>
      <trkpt lat="47.22195" lon="6.71566">
        <ele>563</ele>
        <time>2018-07-01T08:01:55.000Z</time>
      </trkpt>
      <trkpt lat="47.22197" lon="6.71561">
        <ele>563</ele>
        <time>2018-07-01T08:01:56.000Z</time>
      </trkpt>
      <trkpt lat="47.22198" lon="6.71557">
        <ele>562</ele>
        <time>2018-07-01T08:01:57.000Z</time>
      </trkpt>
      <trkpt lat="47.222" lon="6.71553">
        <ele>562</ele>
        <time>2018-07-01T08:01:58.000Z</time>
      </trkpt>
      <trkpt lat="47.22203" lon="6.7155">
        <ele>562</ele>
        <time>2018-07-01T08:01:59.000Z</time>
      </trkpt>
      <trkpt lat="47.22205" lon="6.71548">
        <ele>562</ele>
        <time>2018-07-01T08:02:00.000Z</time>
      </trkpt>
      <trkpt lat="47.22207" lon="6.71548">
        <ele>561</ele>
        <time>2018-07-01T08:02:01.000Z</time>
      </trkpt>
      <trkpt lat="47.22209" lon="6.71548">
        <ele>561</ele>
        <time>2018-07-01T08:02:02.000Z</time>
      </trkpt>
      <trkpt lat="47.22211" lon="6.71547">
        <ele>561</ele>
        <time>2018-07-01T08:02:03.000Z</time>
      </trkpt>
      <trkpt lat="47.22213" lon="6.71547">
        <ele>560</ele>
        <time>2018-07-01T08:02:04.000Z</time>
      </trkpt>
      <trkpt lat="47.22216" lon="6.71547">
        <ele>560</ele>
        <time>2018-07-01T08:02:05.000Z</time>
      </trkpt>
      <trkpt lat="47.22219" lon="6.71547">
        <ele>560</ele>
        <time>2018-07-01T08:02:06.000Z</time>
      </trkpt>
      <trkpt lat="47.22222" lon="6.71547">
        <ele>559</ele>
        <time>2018-07-01T08:02:07.000Z</time>
      </trkpt>
      <trkpt lat="47.22224" lon="6.71546">
        <ele>559</ele>
        <time>2018-07-01T08:02:08.000Z</time>
      </trkpt>
      <trkpt lat="47.22227" lon="6.71545">
        <ele>559</ele>
        <time>2018-07-01T08:02:09.000Z</time>
      </trkpt>
      <trkpt lat="47.22229" lon="6.71544">
        <ele>558</ele>
        <time>2018-07-01T08:02:10.000Z</time>
      </trkpt>
      <trkpt lat="47.22232" lon="6.71543">
        <ele>558</ele>
        <time>2018-07-01T08:02:11.000Z</time>
      </trkpt>
      <trkpt lat="47.22234" lon="6.71541">
        <ele>557</ele>
        <time>2018-07-01T08:02:12.000Z</time>
      </trkpt>
      <trkpt lat="47.22236" lon="6.71539">
        <ele>557</ele>
        <time>2018-07-01T08:02:13.000Z</time>
      </trkpt>
      <trkpt lat="47.22239" lon="6.71536">
        <ele>556</ele>
        <time>2018-07-01T08:02:14.000Z</time>
      </trkpt>
      <trkpt lat="47.22242" lon="6.71533">
        <ele>555</ele>
        <time>2018-07-01T08:02:15.000Z</time>
      </trkpt>
      <trkpt lat="47.22244" lon="6.7153">
        <ele>554</ele>
        <time>2018-07-01T08:02:16.000Z</time>
      </trkpt>
      <trkpt lat="47.22247" lon="6.71527">
        <ele>553</ele>
        <time>2018-07-01T08:02:17.000Z</time>
      </trkpt>
      <trkpt lat="47.22249" lon="6.71524">
        <ele>552</ele>
        <time>2018-07-01T08:02:18.000Z</time>
      </trkpt>
      <trkpt lat="47.22252" lon="6.71521">
        <ele>548</ele>
        <time>2018-07-01T08:02:19.000Z</time>
      </trkpt>
      <trkpt lat="47.22254" lon="6.71517">
        <ele>547</ele>
        <time>2018-07-01T08:02:20.000Z</time>
      </trkpt>
      <trkpt lat="47.22256" lon="6.71513">
        <ele>546</ele>
        <time>2018-07-01T08:02:21.000Z</time>
      </trkpt>
      <trkpt lat="47.22258" lon="6.71508">
        <ele>545</ele>
        <time>2018-07-01T08:02:22.000Z</time>
      </trkpt>
      <trkpt lat="47.2226" lon="6.71505">
        <ele>544</ele>
        <time>2018-07-01T08:02:23.000Z</time>
      </trkpt>
      <trkpt lat="47.22262" lon="6.71501">
        <ele>545</ele>
        <time>2018-07-01T08:02:24.000Z</time>
      </trkpt>
      <trkpt lat="47.22265" lon="6.71497">
        <ele>539</ele>
        <time>2018-07-01T08:02:25.000Z</time>
      </trkpt>
      <trkpt lat="47.22267" lon="6.71493">
        <ele>539</ele>
        <time>2018-07-01T08:02:26.000Z</time>
      </trkpt>
      <trkpt lat="47.22269" lon="6.71489">
        <ele>539</ele>
        <time>2018-07-01T08:02:27.000Z</time>
      </trkpt>
      <trkpt lat="47.22271" lon="6.71484">
        <ele>539</ele>
        <time>2018-07-01T08:02:28.000Z</time>
      </trkpt>
      <trkpt lat="47.22274" lon="6.7148">
        <ele>539</ele>
        <time>2018-07-01T08:02:29.000Z</time>
      </trkpt>
      <trkpt lat="47.22276" lon="6.71476">
        <ele>539</ele>
        <time>2018-07-01T08:02:30.000Z</time>
      </trkpt>
      <trkpt lat="47.22279" lon="6.71472">
        <ele>538</ele>
        <time>2018-07-01T08:02:31.000Z</time>
      </trkpt>
      <trkpt lat="47.22281" lon="6.71468">
        <ele>538</ele>
        <time>2018-07-01T08:02:32.000Z</time>
      </trkpt>
      <trkpt lat="47.22283" lon="6.71464">
        <ele>538</ele>
        <time>2018-07-01T08:02:33.000Z</time>
      </trkpt>
      <trkpt lat="47.22286" lon="6.7146">
        <ele>538</ele>
        <time>2018-07-01T08:02:34.000Z</time>
      </trkpt>
      <trkpt lat="47.22289" lon="6.71456">
        <ele>538</ele>
        <time>2018-07-01T08:02:35.000Z</time>
      </trkpt>
      <trkpt lat="47.22293" lon="6.71453">
        <ele>537</ele>
        <time>2018-07-01T08:02:36.000Z</time>
      </trkpt>
      <trkpt lat="47.22296" lon="6.71449">
        <ele>537</ele>
        <time>2018-07-01T08:02:37.000Z</time>
      </trkpt>
      <trkpt lat="47.22299" lon="6.71445">
        <ele>537</ele>
        <time>2018-07-01T08:02:38.000Z</time>
      </trkpt>
      <trkpt lat="47.22301" lon="6.71441">
        <ele>536</ele>
        <time>2018-07-01T08:02:39.000Z</time>
      </trkpt>
      <trkpt lat="47.22304" lon="6.71437">
        <ele>536</ele>
        <time>2018-07-01T08:02:40.000Z</time>
      </trkpt>
      <trkpt lat="47.22307" lon="6.71433">
        <ele>535</ele>
        <time>2018-07-01T08:02:41.000Z</time>
      </trkpt>
      <trkpt lat="47.22309" lon="6.71429">
        <ele>534</ele>
        <time>2018-07-01T08:02:42.000Z</time>
      </trkpt>
      <trkpt lat="47.22312" lon="6.71425">
        <ele>534</ele>
        <time>2018-07-01T08:02:43.000Z</time>
      </trkpt>
      <trkpt lat="47.22314" lon="6.71422">
        <ele>533</ele>
        <time>2018-07-01T08:02:44.000Z</time>
      </trkpt>
      <trkpt lat="47.22316" lon="6.71418">
        <ele>532</ele>
        <time>2018-07-01T08:02:45.000Z</time>
      </trkpt>
      <trkpt lat="47.22319" lon="6.71415">
        <ele>529</ele>
        <time>2018-07-01T08:02:46.000Z</time>
      </trkpt>
      <trkpt lat="47.22322" lon="6.71411">
        <ele>529</ele>
        <time>2018-07-01T08:02:47.000Z</time>
      </trkpt>
      <trkpt lat="47.22324" lon="6.71408">
        <ele>528</ele>
        <time>2018-07-01T08:02:48.000Z</time>
      </trkpt>
      <trkpt lat="47.22327" lon="6.71404">
        <ele>528</ele>
        <time>2018-07-01T08:02:49.000Z</time>
      </trkpt>
      <trkpt lat="47.22331" lon="6.714">
        <ele>528</ele>
        <time>2018-07-01T08:02:50.000Z</time>
      </trkpt>
      <trkpt lat="47.22334" lon="6.71396">
        <ele>527</ele>
        <time>2018-07-01T08:02:51.000Z</time>
      </trkpt>
      <trkpt lat="47.22338" lon="6.71392">
        <ele>526</ele>
        <time>2018-07-01T08:02:52.000Z</time>
      </trkpt>
      <trkpt lat="47.22341" lon="6.71388">
        <ele>526</ele>
        <time>2018-07-01T08:02:53.000Z</time>
      </trkpt>
      <trkpt lat="47.22344" lon="6.71383">
        <ele>526</ele>
        <time>2018-07-01T08:02:54.000Z</time>
      </trkpt>
      <trkpt lat="47.22347" lon="6.71379">
        <ele>525</ele>
        <time>2018-07-01T08:02:55.000Z</time>
      </trkpt>
      <trkpt lat="47.2235" lon="6.71374">
        <ele>525</ele>
        <time>2018-07-01T08:02:56.000Z</time>
      </trkpt>
      <trkpt lat="47.22353" lon="6.7137">
        <ele>525</ele>
        <time>2018-07-01T08:02:57.000Z</time>
      </trkpt>
      <trkpt lat="47.22356" lon="6.71365">
        <ele>524</ele>
        <time>2018-07-01T08:02:58.000Z</time>
      </trkpt>
      <trkpt lat="47.2236" lon="6.7136">
        <ele>524</ele>
        <time>2018-07-01T08:02:59.000Z</time>
      </trkpt>
      <trkpt lat="47.22363" lon="6.71355">
        <ele>524</ele>
        <time>2018-07-01T08:03:00.000Z</time>
      </trkpt>
      <trkpt lat="47.22366" lon="6.7135">
        <ele>524</ele>
        <time>2018-07-01T08:03:01.000Z</time>
      </trkpt>
      <trkpt lat="47.22369" lon="6.71345">
        <ele>523</ele>
        <time>2018-07-01T08:03:02.000Z</time>
      </trkpt>
      <trkpt lat="47.22372" lon="6.7134">
        <ele>523</ele>
        <time>2018-07-01T08:03:03.000Z</time>
      </trkpt>
      <trkpt lat="47.22375" lon="6.71335">
        <ele>523</ele>
        <time>2018-07-01T08:03:04.000Z</time>
      </trkpt>
      <trkpt lat="47.22377" lon="6.7133">
        <ele>514</ele>
        <time>2018-07-01T08:03:05.000Z</time>
      </trkpt>
      <trkpt lat="47.22378" lon="6.71325">
        <ele>514</ele>
        <time>2018-07-01T08:03:06.000Z</time>
      </trkpt>
      <trkpt lat="47.2238" lon="6.7132">
        <ele>514</ele>
        <time>2018-07-01T08:03:07.000Z</time>
      </trkpt>
      <trkpt lat="47.22382" lon="6.71316">
        <ele>514</ele>
        <time>2018-07-01T08:03:08.000Z</time>
      </trkpt>
      <trkpt lat="47.22384" lon="6.71311">
        <ele>513</ele>
        <time>2018-07-01T08:03:09.000Z</time>
      </trkpt>
      <trkpt lat="47.22385" lon="6.71306">
        <ele>513</ele>
        <time>2018-07-01T08:03:10.000Z</time>
      </trkpt>
      <trkpt lat="47.22387" lon="6.71302">
        <ele>513</ele>
        <time>2018-07-01T08:03:11.000Z</time>
      </trkpt>
      <trkpt lat="47.22388" lon="6.71297">
        <ele>512</ele>
        <time>2018-07-01T08:03:12.000Z</time>
      </trkpt>
      <trkpt lat="47.2239" lon="6.71292">
        <ele>512</ele>
        <time>2018-07-01T08:03:13.000Z</time>
      </trkpt>
      <trkpt lat="47.22391" lon="6.71288">
        <ele>511</ele>
        <time>2018-07-01T08:03:14.000Z</time>
      </trkpt>
      <trkpt lat="47.22393" lon="6.71283">
        <ele>510</ele>
        <time>2018-07-01T08:03:15.000Z</time>
      </trkpt>
      <trkpt lat="47.22395" lon="6.71279">
        <ele>510</ele>
        <time>2018-07-01T08:03:16.000Z</time>
      </trkpt>
      <trkpt lat="47.22397" lon="6.71275">
        <ele>509</ele>
        <time>2018-07-01T08:03:17.000Z</time>
      </trkpt>
      <trkpt lat="47.22399" lon="6.7127">
        <ele>508</ele>
        <time>2018-07-01T08:03:18.000Z</time>
      </trkpt>
      <trkpt lat="47.224" lon="6.71266">
        <ele>507</ele>
        <time>2018-07-01T08:03:19.000Z</time>
      </trkpt>
      <trkpt lat="47.22402" lon="6.71261">
        <ele>506</ele>
        <time>2018-07-01T08:03:20.000Z</time>
      </trkpt>
      <trkpt lat="47.22404" lon="6.71256">
        <ele>505</ele>
        <time>2018-07-01T08:03:21.000Z</time>
      </trkpt>
      <trkpt lat="47.22406" lon="6.71251">
        <ele>504</ele>
        <time>2018-07-01T08:03:22.000Z</time>
      </trkpt>
      <trkpt lat="47.22408" lon="6.71247">
        <ele>501</ele>
        <time>2018-07-01T08:03:23.000Z</time>
      </trkpt>
      <trkpt lat="47.2241" lon="6.71242">
        <ele>501</ele>
        <time>2018-07-01T08:03:24.000Z</time>
      </trkpt>
      <trkpt lat="47.22412" lon="6.71238">
        <ele>501</ele>
        <time>2018-07-01T08:03:25.000Z</time>
      </trkpt>
      <trkpt lat="47.22414" lon="6.71234">
        <ele>501</ele>
        <time>2018-07-01T08:03:26.000Z</time>
      </trkpt>
      <trkpt lat="47.22416" lon="6.71231">
        <ele>501</ele>
        <time>2018-07-01T08:03:27.000Z</time>
      </trkpt>
      <trkpt lat="47.22418" lon="6.71228">
        <ele>498</ele>
        <time>2018-07-01T08:03:28.000Z</time>
      </trkpt>
      <trkpt lat="47.2242" lon="6.71225">
        <ele>498</ele>
        <time>2018-07-01T08:03:29.000Z</time>
      </trkpt>
      <trkpt lat="47.22422" lon="6.71223">
        <ele>498</ele>
        <time>2018-07-01T08:03:30.000Z</time>
      </trkpt>
      <trkpt lat="47.22424" lon="6.71221">
        <ele>498</ele>
        <time>2018-07-01T08:03:31.000Z</time>
      </trkpt>
      <trkpt lat="47.22426" lon="6.71218">
        <ele>498</ele>
        <time>2018-07-01T08:03:32.000Z</time>
      </trkpt>
      <trkpt lat="47.22428" lon="6.71216">
        <ele>497</ele>
        <time>2018-07-01T08:03:33.000Z</time>
      </trkpt>
      <trkpt lat="47.22431" lon="6.71214">
        <ele>497</ele>
        <time>2018-07-01T08:03:34.000Z</time>
      </trkpt>
      <trkpt lat="47.22434" lon="6.71212">
        <ele>497</ele>
        <time>2018-07-01T08:03:35.000Z</time>
      </trkpt>
      <trkpt lat="47.22438" lon="6.71209">
        <ele>497</ele>
        <time>2018-07-01T08:03:36.000Z</time>
      </trkpt>
      <trkpt lat="47.22441" lon="6.71206">
        <ele>497</ele>
        <time>2018-07-01T08:03:37.000Z</time>
      </trkpt>
      <trkpt lat="47.22444" lon="6.71203">
        <ele>497</ele>
        <time>2018-07-01T08:03:38.000Z</time>
      </trkpt>
      <trkpt lat="47.22447" lon="6.71199">
        <ele>496</ele>
        <time>2018-07-01T08:03:39.000Z</time>
      </trkpt>
      <trkpt lat="47.2245" lon="6.71195">
        <ele>496</ele>
        <time>2018-07-01T08:03:40.000Z</time>
      </trkpt>
      <trkpt lat="47.22452" lon="6.71192">
        <ele>496</ele>
        <time>2018-07-01T08:03:41.000Z</time>
      </trkpt>
      <trkpt lat="47.22455" lon="6.71188">
        <ele>495</ele>
        <time>2018-07-01T08:03:42.000Z</time>
      </trkpt>
      <trkpt lat="47.22457" lon="6.71184">
        <ele>495</ele>
        <time>2018-07-01T08:03:43.000Z</time>
      </trkpt>
      <trkpt lat="47.2246" lon="6.7118">
        <ele>495</ele>
        <time>2018-07-01T08:03:44.000Z</time>
      </trkpt>
      <trkpt lat="47.22462" lon="6.71176">
        <ele>494</ele>
        <time>2018-07-01T08:03:45.000Z</time>
      </trkpt>
      <trkpt lat="47.22464" lon="6.71172">
        <ele>494</ele>
        <time>2018-07-01T08:03:46.000Z</time>
      </trkpt>
      <trkpt lat="47.22466" lon="6.71169">
        <ele>494</ele>
        <time>2018-07-01T08:03:47.000Z</time>
      </trkpt>
      <trkpt lat="47.22468" lon="6.71166">
        <ele>484</ele>
        <time>2018-07-01T08:03:48.000Z</time>
      </trkpt>
      <trkpt lat="47.2247" lon="6.71163">
        <ele>484</ele>
        <time>2018-07-01T08:03:49.000Z</time>
      </trkpt>
      <trkpt lat="47.22473" lon="6.7116">
        <ele>484</ele>
        <time>2018-07-01T08:03:50.000Z</time>
      </trkpt>
      <trkpt lat="47.22475" lon="6.71157">
        <ele>484</ele>
        <time>2018-07-01T08:03:51.000Z</time>
      </trkpt>
      <trkpt lat="47.22478" lon="6.71155">
        <ele>484</ele>
        <time>2018-07-01T08:03:52.000Z</time>
      </trkpt>
      <trkpt lat="47.2248" lon="6.71152">
        <ele>484</ele>
        <time>2018-07-01T08:03:53.000Z</time>
      </trkpt>
      <trkpt lat="47.22483" lon="6.71149">
        <ele>484</ele>
        <time>2018-07-01T08:03:54.000Z</time>
      </trkpt>
      <trkpt lat="47.22486" lon="6.71146">
        <ele>483</ele>
        <time>2018-07-01T08:03:55.000Z</time>
      </trkpt>
      <trkpt lat="47.22489" lon="6.71143">
        <ele>483</ele>
        <time>2018-07-01T08:03:56.000Z</time>
      </trkpt>
      <trkpt lat="47.22492" lon="6.71139">
        <ele>483</ele>
        <time>2018-07-01T08:03:57.000Z</time>
      </trkpt>
      <trkpt lat="47.22494" lon="6.71136">
        <ele>482</ele>
        <time>2018-07-01T08:03:58.000Z</time>
      </trkpt>
      <trkpt lat="47.22497" lon="6.71133">
        <ele>482</ele>
        <time>2018-07-01T08:03:59.000Z</time>
      </trkpt>
      <trkpt lat="47.22499" lon="6.7113">
        <ele>481</ele>
        <time>2018-07-01T08:04:00.000Z</time>
      </trkpt>
      <trkpt lat="47.22501" lon="6.71127">
        <ele>482</ele>
        <time>2018-07-01T08:04:01.000Z</time>
      </trkpt>
      <trkpt lat="47.22504" lon="6.71123">
        <ele>481</ele>
        <time>2018-07-01T08:04:02.000Z</time>
      </trkpt>
      <trkpt lat="47.22506" lon="6.7112">
        <ele>481</ele>
        <time>2018-07-01T08:04:03.000Z</time>
      </trkpt>
      <trkpt lat="47.22508" lon="6.71117">
        <ele>480</ele>
        <time>2018-07-01T08:04:04.000Z</time>
      </trkpt>
      <trkpt lat="47.2251" lon="6.71114">
        <ele>480</ele>
        <time>2018-07-01T08:04:05.000Z</time>
      </trkpt>
      <trkpt lat="47.22512" lon="6.71112">
        <ele>479</ele>
        <time>2018-07-01T08:04:06.000Z</time>
      </trkpt>
      <trkpt lat="47.22514" lon="6.71109">
        <ele>479</ele>
        <time>2018-07-01T08:04:07.000Z</time>
      </trkpt>
      <trkpt lat="47.22517" lon="6.71106">
        <ele>479</ele>
        <time>2018-07-01T08:04:08.000Z</time>
      </trkpt>
      <trkpt lat="47.2252" lon="6.71103">
        <ele>478</ele>
        <time>2018-07-01T08:04:09.000Z</time>
      </trkpt>
      <trkpt lat="47.22522" lon="6.711">
        <ele>478</ele>
        <time>2018-07-01T08:04:10.000Z</time>
      </trkpt>
      <trkpt lat="47.22525" lon="6.71097">
        <ele>478</ele>
        <time>2018-07-01T08:04:11.000Z</time>
      </trkpt>
      <trkpt lat="47.22527" lon="6.71094">
        <ele>478</ele>
        <time>2018-07-01T08:04:12.000Z</time>
      </trkpt>
      <trkpt lat="47.22529" lon="6.7109">
        <ele>478</ele>
        <time>2018-07-01T08:04:13.000Z</time>
      </trkpt>
      <trkpt lat="47.22531" lon="6.71086">
        <ele>478</ele>
        <time>2018-07-01T08:04:14.000Z</time>
      </trkpt>
      <trkpt lat="47.22533" lon="6.71081">
        <ele>470</ele>
        <time>2018-07-01T08:04:15.000Z</time>
      </trkpt>
      <trkpt lat="47.22534" lon="6.71077">
        <ele>470</ele>
        <time>2018-07-01T08:04:16.000Z</time>
      </trkpt>
      <trkpt lat="47.22534" lon="6.71073">
        <ele>470</ele>
        <time>2018-07-01T08:04:17.000Z</time>
      </trkpt>
      <trkpt lat="47.22534" lon="6.71069">
        <ele>470</ele>
        <time>2018-07-01T08:04:18.000Z</time>
      </trkpt>
      <trkpt lat="47.22533" lon="6.71066">
        <ele>470</ele>
        <time>2018-07-01T08:04:19.000Z</time>
      </trkpt>
      <trkpt lat="47.22533" lon="6.71063">
        <ele>470</ele>
        <time>2018-07-01T08:04:20.000Z</time>
      </trkpt>
      <trkpt lat="47.22534" lon="6.71061">
        <ele>470</ele>
        <time>2018-07-01T08:04:21.000Z</time>
      </trkpt>
      <trkpt lat="47.22534" lon="6.71057">
        <ele>470</ele>
        <time>2018-07-01T08:04:22.000Z</time>
      </trkpt>
      <trkpt lat="47.22536" lon="6.71053">
        <ele>470</ele>
        <time>2018-07-01T08:04:23.000Z</time>
      </trkpt>
      <trkpt lat="47.22538" lon="6.71049">
        <ele>469</ele>
        <time>2018-07-01T08:04:24.000Z</time>
      </trkpt>
      <trkpt lat="47.2254" lon="6.71045">
        <ele>469</ele>
        <time>2018-07-01T08:04:25.000Z</time>
      </trkpt>
      <trkpt lat="47.22542" lon="6.7104">
        <ele>469</ele>
        <time>2018-07-01T08:04:26.000Z</time>
      </trkpt>
      <trkpt lat="47.22545" lon="6.71036">
        <ele>469</ele>
        <time>2018-07-01T08:04:27.000Z</time>
      </trkpt>
      <trkpt lat="47.22547" lon="6.71032">
        <ele>469</ele>
        <time>2018-07-01T08:04:28.000Z</time>
      </trkpt>
      <trkpt lat="47.22549" lon="6.71028">
        <ele>469</ele>
        <time>2018-07-01T08:04:29.000Z</time>
      </trkpt>
      <trkpt lat="47.22551" lon="6.71024">
        <ele>469</ele>
        <time>2018-07-01T08:04:30.000Z</time>
      </trkpt>
      <trkpt lat="47.22554" lon="6.7102">
        <ele>469</ele>
        <time>2018-07-01T08:04:31.000Z</time>
      </trkpt>
      <trkpt lat="47.22556" lon="6.71016">
        <ele>468</ele>
        <time>2018-07-01T08:04:32.000Z</time>
      </trkpt>
      <trkpt lat="47.22558" lon="6.71012">
        <ele>468</ele>
        <time>2018-07-01T08:04:33.000Z</time>
      </trkpt>
      <trkpt lat="47.22561" lon="6.71008">
        <ele>468</ele>
        <time>2018-07-01T08:04:34.000Z</time>
      </trkpt>
      <trkpt lat="47.22563" lon="6.71005">
        <ele>468</ele>
        <time>2018-07-01T08:04:35.000Z</time>
      </trkpt>
      <trkpt lat="47.22566" lon="6.71002">
        <ele>468</ele>
        <time>2018-07-01T08:04:36.000Z</time>
      </trkpt>
      <trkpt lat="47.22568" lon="6.70999">
        <ele>467</ele>
        <time>2018-07-01T08:04:37.000Z</time>
      </trkpt>
      <trkpt lat="47.22571" lon="6.70996">
        <ele>467</ele>
        <time>2018-07-01T08:04:38.000Z</time>
      </trkpt>
      <trkpt lat="47.22574" lon="6.70994">
        <ele>467</ele>
        <time>2018-07-01T08:04:39.000Z</time>
      </trkpt>
      <trkpt lat="47.22576" lon="6.70991">
        <ele>467</ele>
        <time>2018-07-01T08:04:40.000Z</time>
      </trkpt>
      <trkpt lat="47.22579" lon="6.70988">
        <ele>467</ele>
        <time>2018-07-01T08:04:41.000Z</time>
      </trkpt>
      <trkpt lat="47.22582" lon="6.70985">
        <ele>467</ele>
        <time>2018-07-01T08:04:42.000Z</time>
      </trkpt>
      <trkpt lat="47.22585" lon="6.70982">
        <ele>466</ele>
        <time>2018-07-01T08:04:43.000Z</time>
      </trkpt>
      <trkpt lat="47.22587" lon="6.70979">
        <ele>466</ele>
        <time>2018-07-01T08:04:44.000Z</time>
      </trkpt>
      <trkpt lat="47.2259" lon="6.70976">
        <ele>466</ele>
        <time>2018-07-01T08:04:45.000Z</time>
      </trkpt>
      <trkpt lat="47.22593" lon="6.70973">
        <ele>466</ele>
        <time>2018-07-01T08:04:46.000Z</time>
      </trkpt>
      <trkpt lat="47.22595" lon="6.70971">
        <ele>466</ele>
        <time>2018-07-01T08:04:47.000Z</time>
      </trkpt>
      <trkpt lat="47.22598" lon="6.70969">
        <ele>466</ele>
        <time>2018-07-01T08:04:48.000Z</time>
      </trkpt>
      <trkpt lat="47.226" lon="6.70967">
        <ele>466</ele>
        <time>2018-07-01T08:04:49.000Z</time>
      </trkpt>
      <trkpt lat="47.22603" lon="6.70964">
        <ele>466</ele>
        <time>2018-07-01T08:04:50.000Z</time>
      </trkpt>
      <trkpt lat="47.22606" lon="6.70962">
        <ele>466</ele>
        <time>2018-07-01T08:04:51.000Z</time>
      </trkpt>
      <trkpt lat="47.22608" lon="6.70959">
        <ele>466</ele>
        <time>2018-07-01T08:04:52.000Z</time>
      </trkpt>
      <trkpt lat="47.22611" lon="6.70956">
        <ele>466</ele>
        <time>2018-07-01T08:04:53.000Z</time>
      </trkpt>
      <trkpt lat="47.22613" lon="6.70952">
        <ele>466</ele>
        <time>2018-07-01T08:04:54.000Z</time>
      </trkpt>
      <trkpt lat="47.22616" lon="6.70949">
        <ele>466</ele>
        <time>2018-07-01T08:04:55.000Z</time>
      </trkpt>
      <trkpt lat="47.22619" lon="6.70946">
        <ele>466</ele>
        <time>2018-07-01T08:04:56.000Z</time>
      </trkpt>
      <trkpt lat="47.22621" lon="6.70943">
        <ele>466</ele>
        <time>2018-07-01T08:04:57.000Z</time>
      </trkpt>
      <trkpt lat="47.22625" lon="6.70939">
        <ele>465</ele>
        <time>2018-07-01T08:04:58.000Z</time>
      </trkpt>
      <trkpt lat="47.22628" lon="6.70936">
        <ele>465</ele>
        <time>2018-07-01T08:04:59.000Z</time>
      </trkpt>
      <trkpt lat="47.22631" lon="6.70933">
        <ele>465</ele>
        <time>2018-07-01T08:05:00.000Z</time>
      </trkpt>
      <trkpt lat="47.22634" lon="6.70929">
        <ele>465</ele>
        <time>2018-07-01T08:05:01.000Z</time>
      </trkpt>
      <trkpt lat="47.22638" lon="6.70925">
        <ele>465</ele>
        <time>2018-07-01T08:05:02.000Z</time>
      </trkpt>
      <trkpt lat="47.22641" lon="6.70922">
        <ele>464</ele>
        <time>2018-07-01T08:05:03.000Z</time>
      </trkpt>
      <trkpt lat="47.22644" lon="6.70918">
        <ele>464</ele>
        <time>2018-07-01T08:05:04.000Z</time>
      </trkpt>
      <trkpt lat="47.22647" lon="6.70914">
        <ele>463</ele>
        <time>2018-07-01T08:05:05.000Z</time>
      </trkpt>
      <trkpt lat="47.22649" lon="6.7091">
        <ele>463</ele>
        <time>2018-07-01T08:05:06.000Z</time>
      </trkpt>
      <trkpt lat="47.22651" lon="6.70906">
        <ele>463</ele>
        <time>2018-07-01T08:05:07.000Z</time>
      </trkpt>
      <trkpt lat="47.22653" lon="6.70901">
        <ele>463</ele>
        <time>2018-07-01T08:05:08.000Z</time>
      </trkpt>
      <trkpt lat="47.22656" lon="6.70897">
        <ele>463</ele>
        <time>2018-07-01T08:05:09.000Z</time>
      </trkpt>
      <trkpt lat="47.22658" lon="6.70892">
        <ele>463</ele>
        <time>2018-07-01T08:05:10.000Z</time>
      </trkpt>
      <trkpt lat="47.22659" lon="6.70887">
        <ele>463</ele>
        <time>2018-07-01T08:05:11.000Z</time>
      </trkpt>
      <trkpt lat="47.22661" lon="6.70883">
        <ele>463</ele>
        <time>2018-07-01T08:05:12.000Z</time>
      </trkpt>
      <trkpt lat="47.22663" lon="6.70879">
        <ele>463</ele>
        <time>2018-07-01T08:05:13.000Z</time>
      </trkpt>
      <trkpt lat="47.22665" lon="6.70875">
        <ele>463</ele>
        <time>2018-07-01T08:05:14.000Z</time>
      </trkpt>
      <trkpt lat="47.22667" lon="6.70872">
        <ele>460</ele>
        <time>2018-07-01T08:05:15.000Z</time>
      </trkpt>
      <trkpt lat="47.22669" lon="6.70868">
        <ele>460</ele>
        <time>2018-07-01T08:05:16.000Z</time>
      </trkpt>
      <trkpt lat="47.22671" lon="6.70865">
        <ele>460</ele>
        <time>2018-07-01T08:05:17.000Z</time>
      </trkpt>
      <trkpt lat="47.22673" lon="6.70861">
        <ele>460</ele>
        <time>2018-07-01T08:05:18.000Z</time>
      </trkpt>
      <trkpt lat="47.22675" lon="6.70858">
        <ele>460</ele>
        <time>2018-07-01T08:05:19.000Z</time>
      </trkpt>
      <trkpt lat="47.22678" lon="6.70854">
        <ele>460</ele>
        <time>2018-07-01T08:05:20.000Z</time>
      </trkpt>
      <trkpt lat="47.2268" lon="6.70851">
        <ele>460</ele>
        <time>2018-07-01T08:05:21.000Z</time>
      </trkpt>
      <trkpt lat="47.22682" lon="6.70847">
        <ele>460</ele>
        <time>2018-07-01T08:05:22.000Z</time>
      </trkpt>
      <trkpt lat="47.22685" lon="6.70844">
        <ele>460</ele>
        <time>2018-07-01T08:05:23.000Z</time>
      </trkpt>
      <trkpt lat="47.22688" lon="6.7084">
        <ele>460</ele>
        <time>2018-07-01T08:05:24.000Z</time>
      </trkpt>
      <trkpt lat="47.2269" lon="6.70837">
        <ele>460</ele>
        <time>2018-07-01T08:05:25.000Z</time>
      </trkpt>
      <trkpt lat="47.22693" lon="6.70833">
        <ele>458</ele>
        <time>2018-07-01T08:05:26.000Z</time>
      </trkpt>
      <trkpt lat="47.22695" lon="6.70829">
        <ele>458</ele>
        <time>2018-07-01T08:05:27.000Z</time>
      </trkpt>
      <trkpt lat="47.22697" lon="6.70826">
        <ele>458</ele>
        <time>2018-07-01T08:05:28.000Z</time>
      </trkpt>
      <trkpt lat="47.227" lon="6.70822">
        <ele>458</ele>
        <time>2018-07-01T08:05:29.000Z</time>
      </trkpt>
      <trkpt lat="47.22702" lon="6.70818">
        <ele>458</ele>
        <time>2018-07-01T08:05:30.000Z</time>
      </trkpt>
      <trkpt lat="47.22705" lon="6.70814">
        <ele>458</ele>
        <time>2018-07-01T08:05:31.000Z</time>
      </trkpt>
      <trkpt lat="47.22707" lon="6.70811">
        <ele>458</ele>
        <time>2018-07-01T08:05:32.000Z</time>
      </trkpt>
      <trkpt lat="47.2271" lon="6.70807">
        <ele>458</ele>
        <time>2018-07-01T08:05:33.000Z</time>
      </trkpt>
      <trkpt lat="47.22713" lon="6.70803">
        <ele>457</ele>
        <time>2018-07-01T08:05:34.000Z</time>
      </trkpt>
      <trkpt lat="47.22715" lon="6.70799">
        <ele>457</ele>
        <time>2018-07-01T08:05:35.000Z</time>
      </trkpt>
      <trkpt lat="47.22717" lon="6.70795">
        <ele>457</ele>
        <time>2018-07-01T08:05:36.000Z</time>
      </trkpt>
      <trkpt lat="47.22719" lon="6.70792">
        <ele>457</ele>
        <time>2018-07-01T08:05:37.000Z</time>
      </trkpt>
      <trkpt lat="47.22722" lon="6.70788">
        <ele>457</ele>
        <time>2018-07-01T08:05:38.000Z</time>
      </trkpt>
      <trkpt lat="47.22724" lon="6.70785">
        <ele>457</ele>
        <time>2018-07-01T08:05:39.000Z</time>
      </trkpt>
      <trkpt lat="47.22727" lon="6.70782">
        <ele>457</ele>
        <time>2018-07-01T08:05:40.000Z</time>
      </trkpt>
      <trkpt lat="47.2273" lon="6.70779">
        <ele>457</ele>
        <time>2018-07-01T08:05:41.000Z</time>
      </trkpt>
      <trkpt lat="47.22732" lon="6.70777">
        <ele>457</ele>
        <time>2018-07-01T08:05:42.000Z</time>
      </trkpt>
      <trkpt lat="47.22735" lon="6.70774">
        <ele>456</ele>
        <time>2018-07-01T08:05:43.000Z</time>
      </trkpt>
      <trkpt lat="47.22737" lon="6.70772">
        <ele>456</ele>
        <time>2018-07-01T08:05:44.000Z</time>
      </trkpt>
      <trkpt lat="47.2274" lon="6.7077">
        <ele>456</ele>
        <time>2018-07-01T08:05:45.000Z</time>
      </trkpt>
      <trkpt lat="47.22743" lon="6.70767">
        <ele>456</ele>
        <time>2018-07-01T08:05:46.000Z</time>
      </trkpt>
      <trkpt lat="47.22745" lon="6.70765">
        <ele>456</ele>
        <time>2018-07-01T08:05:47.000Z</time>
      </trkpt>
      <trkpt lat="47.22748" lon="6.70763">
        <ele>455</ele>
        <time>2018-07-01T08:05:48.000Z</time>
      </trkpt>
      <trkpt lat="47.22752" lon="6.70762">
        <ele>454</ele>
        <time>2018-07-01T08:05:49.000Z</time>
      </trkpt>
      <trkpt lat="47.22755" lon="6.7076">
        <ele>454</ele>
        <time>2018-07-01T08:05:50.000Z</time>
      </trkpt>
      <trkpt lat="47.22758" lon="6.7076">
        <ele>454</ele>
        <time>2018-07-01T08:05:51.000Z</time>
      </trkpt>
      <trkpt lat="47.22761" lon="6.70759">
        <ele>454</ele>
        <time>2018-07-01T08:05:52.000Z</time>
      </trkpt>
      <trkpt lat="47.22764" lon="6.70758">
        <ele>454</ele>
        <time>2018-07-01T08:05:53.000Z</time>
      </trkpt>
      <trkpt lat="47.22767" lon="6.70758">
        <ele>454</ele>
        <time>2018-07-01T08:05:54.000Z</time>
      </trkpt>
      <trkpt lat="47.2277" lon="6.70757">
        <ele>454</ele>
        <time>2018-07-01T08:05:55.000Z</time>
      </trkpt>
      <trkpt lat="47.22774" lon="6.70757">
        <ele>454</ele>
        <time>2018-07-01T08:05:56.000Z</time>
      </trkpt>
      <trkpt lat="47.22777" lon="6.70757">
        <ele>454</ele>
        <time>2018-07-01T08:05:57.000Z</time>
      </trkpt>
      <trkpt lat="47.2278" lon="6.70757">
        <ele>454</ele>
        <time>2018-07-01T08:05:58.000Z</time>
      </trkpt>
      <trkpt lat="47.22784" lon="6.70757">
        <ele>454</ele>
        <time>2018-07-01T08:05:59.000Z</time>
      </trkpt>
      <trkpt lat="47.22787" lon="6.70757">
        <ele>454</ele>
        <time>2018-07-01T08:06:00.000Z</time>
      </trkpt>
      <trkpt lat="47.2279" lon="6.70757">
        <ele>454</ele>
        <time>2018-07-01T08:06:01.000Z</time>
      </trkpt>
      <trkpt lat="47.22793" lon="6.70757">
        <ele>453</ele>
        <time>2018-07-01T08:06:02.000Z</time>
      </trkpt>
      <trkpt lat="47.22796" lon="6.70757">
        <ele>453</ele>
        <time>2018-07-01T08:06:03.000Z</time>
      </trkpt>
      <trkpt lat="47.22799" lon="6.70757">
        <ele>453</ele>
        <time>2018-07-01T08:06:04.000Z</time>
      </trkpt>
      <trkpt lat="47.22802" lon="6.70757">
        <ele>453</ele>
        <time>2018-07-01T08:06:05.000Z</time>
      </trkpt>
      <trkpt lat="47.22804" lon="6.70758">
        <ele>453</ele>
        <time>2018-07-01T08:06:06.000Z</time>
      </trkpt>
      <trkpt lat="47.22807" lon="6.70759">
        <ele>453</ele>
        <time>2018-07-01T08:06:07.000Z</time>
      </trkpt>
      <trkpt lat="47.22809" lon="6.7076">
        <ele>453</ele>
        <time>2018-07-01T08:06:08.000Z</time>
      </trkpt>
      <trkpt lat="47.22811" lon="6.70762">
        <ele>453</ele>
        <time>2018-07-01T08:06:09.000Z</time>
      </trkpt>
      <trkpt lat="47.22814" lon="6.70764">
        <ele>453</ele>
        <time>2018-07-01T08:06:10.000Z</time>
      </trkpt>
      <trkpt lat="47.22816" lon="6.70766">
        <ele>453</ele>
        <time>2018-07-01T08:06:11.000Z</time>
      </trkpt>
      <trkpt lat="47.22819" lon="6.70767">
        <ele>453</ele>
        <time>2018-07-01T08:06:12.000Z</time>
      </trkpt>
      <trkpt lat="47.22821" lon="6.70769">
        <ele>453</ele>
        <time>2018-07-01T08:06:13.000Z</time>
      </trkpt>
      <trkpt lat="47.22823" lon="6.70771">
        <ele>453</ele>
        <time>2018-07-01T08:06:14.000Z</time>
      </trkpt>
      <trkpt lat="47.22826" lon="6.70772">
        <ele>453</ele>
        <time>2018-07-01T08:06:15.000Z</time>
      </trkpt>
      <trkpt lat="47.22828" lon="6.70773">
        <ele>453</ele>
        <time>2018-07-01T08:06:16.000Z</time>
      </trkpt>
      <trkpt lat="47.22831" lon="6.70775">
        <ele>453</ele>
        <time>2018-07-01T08:06:17.000Z</time>
      </trkpt>
      <trkpt lat="47.22834" lon="6.70776">
        <ele>453</ele>
        <time>2018-07-01T08:06:18.000Z</time>
      </trkpt>
      <trkpt lat="47.22836" lon="6.70778">
        <ele>453</ele>
        <time>2018-07-01T08:06:19.000Z</time>
      </trkpt>
      <trkpt lat="47.22839" lon="6.70779">
        <ele>453</ele>
        <time>2018-07-01T08:06:20.000Z</time>
      </trkpt>
      <trkpt lat="47.22841" lon="6.70782">
        <ele>453</ele>
        <time>2018-07-01T08:06:21.000Z</time>
      </trkpt>
      <trkpt lat="47.22844" lon="6.70784">
        <ele>453</ele>
        <time>2018-07-01T08:06:22.000Z</time>
      </trkpt>
      <trkpt lat="47.22847" lon="6.70786">
        <ele>453</ele>
        <time>2018-07-01T08:06:23.000Z</time>
      </trkpt>
      <trkpt lat="47.22849" lon="6.70788">
        <ele>454</ele>
        <time>2018-07-01T08:06:24.000Z</time>
      </trkpt>
      <trkpt lat="47.22852" lon="6.70791">
        <ele>454</ele>
        <time>2018-07-01T08:06:25.000Z</time>
      </trkpt>
      <trkpt lat="47.22854" lon="6.70794">
        <ele>454</ele>
        <time>2018-07-01T08:06:26.000Z</time>
      </trkpt>
      <trkpt lat="47.22857" lon="6.70796">
        <ele>454</ele>
        <time>2018-07-01T08:06:27.000Z</time>
      </trkpt>
      <trkpt lat="47.22859" lon="6.70799">
        <ele>454</ele>
        <time>2018-07-01T08:06:28.000Z</time>
      </trkpt>
      <trkpt lat="47.22861" lon="6.70802">
        <ele>454</ele>
        <time>2018-07-01T08:06:29.000Z</time>
      </trkpt>
      <trkpt lat="47.22864" lon="6.70805">
        <ele>454</ele>
        <time>2018-07-01T08:06:30.000Z</time>
      </trkpt>
      <trkpt lat="47.22865" lon="6.70809">
        <ele>454</ele>
        <time>2018-07-01T08:06:31.000Z</time>
      </trkpt>
      <trkpt lat="47.22867" lon="6.70812">
        <ele>454</ele>
        <time>2018-07-01T08:06:32.000Z</time>
      </trkpt>
      <trkpt lat="47.22869" lon="6.70816">
        <ele>454</ele>
        <time>2018-07-01T08:06:33.000Z</time>
      </trkpt>
      <trkpt lat="47.22871" lon="6.7082">
        <ele>454</ele>
        <time>2018-07-01T08:06:34.000Z</time>
      </trkpt>
      <trkpt lat="47.22872" lon="6.70823">
        <ele>454</ele>
        <time>2018-07-01T08:06:35.000Z</time>
      </trkpt>
      <trkpt lat="47.22874" lon="6.70827">
        <ele>454</ele>
        <time>2018-07-01T08:06:36.000Z</time>
      </trkpt>
      <trkpt lat="47.22875" lon="6.70832">
        <ele>454</ele>
        <time>2018-07-01T08:06:37.000Z</time>
      </trkpt>
      <trkpt lat="47.22877" lon="6.70836">
        <ele>455</ele>
        <time>2018-07-01T08:06:38.000Z</time>
      </trkpt>
      <trkpt lat="47.22878" lon="6.7084">
        <ele>455</ele>
        <time>2018-07-01T08:06:39.000Z</time>
      </trkpt>
      <trkpt lat="47.22879" lon="6.70844">
        <ele>455</ele>
        <time>2018-07-01T08:06:40.000Z</time>
      </trkpt>
      <trkpt lat="47.22881" lon="6.70848">
        <ele>455</ele>
        <time>2018-07-01T08:06:41.000Z</time>
      </trkpt>
      <trkpt lat="47.22882" lon="6.70852">
        <ele>455</ele>
        <time>2018-07-01T08:06:42.000Z</time>
      </trkpt>
      <trkpt lat="47.22883" lon="6.70857">
        <ele>455</ele>
        <time>2018-07-01T08:06:43.000Z</time>
      </trkpt>
      <trkpt lat="47.22884" lon="6.70861">
        <ele>455</ele>
        <time>2018-07-01T08:06:44.000Z</time>
      </trkpt>
      <trkpt lat="47.22886" lon="6.70865">
        <ele>455</ele>
        <time>2018-07-01T08:06:45.000Z</time>
      </trkpt>
      <trkpt lat="47.22887" lon="6.70869">
        <ele>455</ele>
        <time>2018-07-01T08:06:46.000Z</time>
      </trkpt>
      <trkpt lat="47.22889" lon="6.70872">
        <ele>455</ele>
        <time>2018-07-01T08:06:47.000Z</time>
      </trkpt>
      <trkpt lat="47.2289" lon="6.70876">
        <ele>455</ele>
        <time>2018-07-01T08:06:48.000Z</time>
      </trkpt>
      <trkpt lat="47.22892" lon="6.70879">
        <ele>455</ele>
        <time>2018-07-01T08:06:49.000Z</time>
      </trkpt>
      <trkpt lat="47.22894" lon="6.70883">
        <ele>455</ele>
        <time>2018-07-01T08:06:50.000Z</time>
      </trkpt>
      <trkpt lat="47.22896" lon="6.70886">
        <ele>454</ele>
        <time>2018-07-01T08:06:51.000Z</time>
      </trkpt>
      <trkpt lat="47.22898" lon="6.70889">
        <ele>454</ele>
        <time>2018-07-01T08:06:52.000Z</time>
      </trkpt>
      <trkpt lat="47.229" lon="6.70892">
        <ele>454</ele>
        <time>2018-07-01T08:06:53.000Z</time>
      </trkpt>
      <trkpt lat="47.22902" lon="6.70895">
        <ele>454</ele>
        <time>2018-07-01T08:06:54.000Z</time>
      </trkpt>
      <trkpt lat="47.22904" lon="6.70898">
        <ele>454</ele>
        <time>2018-07-01T08:06:55.000Z</time>
      </trkpt>
      <trkpt lat="47.22906" lon="6.70901">
        <ele>453</ele>
        <time>2018-07-01T08:06:56.000Z</time>
      </trkpt>
      <trkpt lat="47.22908" lon="6.70904">
        <ele>453</ele>
        <time>2018-07-01T08:06:57.000Z</time>
      </trkpt>
      <trkpt lat="47.22911" lon="6.70907">
        <ele>453</ele>
        <time>2018-07-01T08:06:58.000Z</time>
      </trkpt>
      <trkpt lat="47.22913" lon="6.7091">
        <ele>452</ele>
        <time>2018-07-01T08:06:59.000Z</time>
      </trkpt>
      <trkpt lat="47.22915" lon="6.70913">
        <ele>452</ele>
        <time>2018-07-01T08:07:00.000Z</time>
      </trkpt>
      <trkpt lat="47.22917" lon="6.70916">
        <ele>451</ele>
        <time>2018-07-01T08:07:01.000Z</time>
      </trkpt>
      <trkpt lat="47.2292" lon="6.70919">
        <ele>452</ele>
        <time>2018-07-01T08:07:02.000Z</time>
      </trkpt>
      <trkpt lat="47.22922" lon="6.70923">
        <ele>453</ele>
        <time>2018-07-01T08:07:03.000Z</time>
      </trkpt>
      <trkpt lat="47.22924" lon="6.70926">
        <ele>454</ele>
        <time>2018-07-01T08:07:04.000Z</time>
      </trkpt>
      <trkpt lat="47.22926" lon="6.70929">
        <ele>455</ele>
        <time>2018-07-01T08:07:05.000Z</time>
      </trkpt>
      <trkpt lat="47.22928" lon="6.70933">
        <ele>456</ele>
        <time>2018-07-01T08:07:06.000Z</time>
      </trkpt>
      <trkpt lat="47.22929" lon="6.70937">
        <ele>456</ele>
        <time>2018-07-01T08:07:07.000Z</time>
      </trkpt>
      <trkpt lat="47.22931" lon="6.70941">
        <ele>457</ele>
        <time>2018-07-01T08:07:08.000Z</time>
      </trkpt>
      <trkpt lat="47.22932" lon="6.70945">
        <ele>457</ele>
        <time>2018-07-01T08:07:09.000Z</time>
      </trkpt>
      <trkpt lat="47.22933" lon="6.70949">
        <ele>457</ele>
        <time>2018-07-01T08:07:10.000Z</time>
      </trkpt>
      <trkpt lat="47.22934" lon="6.70954">
        <ele>457</ele>
        <time>2018-07-01T08:07:11.000Z</time>
      </trkpt>
      <trkpt lat="47.22934" lon="6.70959">
        <ele>457</ele>
        <time>2018-07-01T08:07:12.000Z</time>
      </trkpt>
      <trkpt lat="47.22934" lon="6.70963">
        <ele>457</ele>
        <time>2018-07-01T08:07:13.000Z</time>
      </trkpt>
      <trkpt lat="47.22935" lon="6.70967">
        <ele>457</ele>
        <time>2018-07-01T08:07:14.000Z</time>
      </trkpt>
      <trkpt lat="47.22934" lon="6.70972">
        <ele>457</ele>
        <time>2018-07-01T08:07:15.000Z</time>
      </trkpt>
      <trkpt lat="47.22934" lon="6.70976">
        <ele>457</ele>
        <time>2018-07-01T08:07:16.000Z</time>
      </trkpt>
      <trkpt lat="47.22935" lon="6.70981">
        <ele>457</ele>
        <time>2018-07-01T08:07:17.000Z</time>
      </trkpt>
      <trkpt lat="47.22935" lon="6.70985">
        <ele>457</ele>
        <time>2018-07-01T08:07:18.000Z</time>
      </trkpt>
      <trkpt lat="47.22935" lon="6.70989">
        <ele>457</ele>
        <time>2018-07-01T08:07:19.000Z</time>
      </trkpt>
      <trkpt lat="47.22935" lon="6.70993">
        <ele>457</ele>
        <time>2018-07-01T08:07:20.000Z</time>
      </trkpt>
      <trkpt lat="47.22936" lon="6.70997">
        <ele>457</ele>
        <time>2018-07-01T08:07:21.000Z</time>
      </trkpt>
      <trkpt lat="47.22937" lon="6.71001">
        <ele>456</ele>
        <time>2018-07-01T08:07:22.000Z</time>
      </trkpt>
      <trkpt lat="47.22937" lon="6.71006">
        <ele>457</ele>
        <time>2018-07-01T08:07:23.000Z</time>
      </trkpt>
      <trkpt lat="47.22938" lon="6.7101">
        <ele>457</ele>
        <time>2018-07-01T08:07:24.000Z</time>
      </trkpt>
      <trkpt lat="47.22939" lon="6.71013">
        <ele>457</ele>
        <time>2018-07-01T08:07:25.000Z</time>
      </trkpt>
      <trkpt lat="47.2294" lon="6.71017">
        <ele>457</ele>
        <time>2018-07-01T08:07:26.000Z</time>
      </trkpt>
      <trkpt lat="47.2294" lon="6.71021">
        <ele>457</ele>
        <time>2018-07-01T08:07:27.000Z</time>
      </trkpt>
      <trkpt lat="47.22941" lon="6.71025">
        <ele>457</ele>
        <time>2018-07-01T08:07:28.000Z</time>
      </trkpt>
      <trkpt lat="47.22942" lon="6.71029">
        <ele>458</ele>
        <time>2018-07-01T08:07:29.000Z</time>
      </trkpt>
      <trkpt lat="47.22943" lon="6.71032">
        <ele>458</ele>
        <time>2018-07-01T08:07:30.000Z</time>
      </trkpt>
      <trkpt lat="47.22945" lon="6.71036">
        <ele>458</ele>
        <time>2018-07-01T08:07:31.000Z</time>
      </trkpt>
      <trkpt lat="47.22947" lon="6.7104">
        <ele>458</ele>
        <time>2018-07-01T08:07:32.000Z</time>
      </trkpt>
      <trkpt lat="47.22948" lon="6.71044">
        <ele>458</ele>
        <time>2018-07-01T08:07:33.000Z</time>
      </trkpt>
      <trkpt lat="47.2295" lon="6.71047">
        <ele>458</ele>
        <time>2018-07-01T08:07:34.000Z</time>
      </trkpt>
      <trkpt lat="47.22952" lon="6.71051">
        <ele>458</ele>
        <time>2018-07-01T08:07:35.000Z</time>
      </trkpt>
      <trkpt lat="47.22953" lon="6.71054">
        <ele>458</ele>
        <time>2018-07-01T08:07:36.000Z</time>
      </trkpt>
      <trkpt lat="47.22955" lon="6.71057">
        <ele>458</ele>
        <time>2018-07-01T08:07:37.000Z</time>
      </trkpt>
      <trkpt lat="47.22957" lon="6.7106">
        <ele>458</ele>
        <time>2018-07-01T08:07:38.000Z</time>
      </trkpt>
      <trkpt lat="47.22959" lon="6.71063">
        <ele>458</ele>
        <time>2018-07-01T08:07:39.000Z</time>
      </trkpt>
      <trkpt lat="47.22961" lon="6.71066">
        <ele>458</ele>
        <time>2018-07-01T08:07:40.000Z</time>
      </trkpt>
      <trkpt lat="47.22963" lon="6.7107">
        <ele>458</ele>
        <time>2018-07-01T08:07:41.000Z</time>
      </trkpt>
      <trkpt lat="47.22965" lon="6.71073">
        <ele>458</ele>
        <time>2018-07-01T08:07:42.000Z</time>
      </trkpt>
      <trkpt lat="47.22966" lon="6.71076">
        <ele>458</ele>
        <time>2018-07-01T08:07:43.000Z</time>
      </trkpt>
      <trkpt lat="47.22968" lon="6.71079">
        <ele>458</ele>
        <time>2018-07-01T08:07:44.000Z</time>
      </trkpt>
      <trkpt lat="47.2297" lon="6.71082">
        <ele>458</ele>
        <time>2018-07-01T08:07:45.000Z</time>
      </trkpt>
      <trkpt lat="47.22971" lon="6.71085">
        <ele>461</ele>
        <time>2018-07-01T08:07:46.000Z</time>
      </trkpt>
      <trkpt lat="47.22973" lon="6.71088">
        <ele>460</ele>
        <time>2018-07-01T08:07:47.000Z</time>
      </trkpt>
      <trkpt lat="47.22975" lon="6.71091">
        <ele>460</ele>
        <time>2018-07-01T08:07:48.000Z</time>
      </trkpt>
      <trkpt lat="47.22977" lon="6.71094">
        <ele>460</ele>
        <time>2018-07-01T08:07:49.000Z</time>
      </trkpt>
      <trkpt lat="47.22978" lon="6.71097">
        <ele>460</ele>
        <time>2018-07-01T08:07:50.000Z</time>
      </trkpt>
      <trkpt lat="47.2298" lon="6.711">
        <ele>460</ele>
        <time>2018-07-01T08:07:51.000Z</time>
      </trkpt>
      <trkpt lat="47.22982" lon="6.71102">
        <ele>460</ele>
        <time>2018-07-01T08:07:52.000Z</time>
      </trkpt>
      <trkpt lat="47.22984" lon="6.71105">
        <ele>460</ele>
        <time>2018-07-01T08:07:53.000Z</time>
      </trkpt>
      <trkpt lat="47.22986" lon="6.71108">
        <ele>461</ele>
        <time>2018-07-01T08:07:54.000Z</time>
      </trkpt>
      <trkpt lat="47.22988" lon="6.71111">
        <ele>461</ele>
        <time>2018-07-01T08:07:55.000Z</time>
      </trkpt>
      <trkpt lat="47.2299" lon="6.71115">
        <ele>461</ele>
        <time>2018-07-01T08:07:56.000Z</time>
      </trkpt>
      <trkpt lat="47.22992" lon="6.71117">
        <ele>461</ele>
        <time>2018-07-01T08:07:57.000Z</time>
      </trkpt>
      <trkpt lat="47.22994" lon="6.71121">
        <ele>461</ele>
        <time>2018-07-01T08:07:58.000Z</time>
      </trkpt>
      <trkpt lat="47.22995" lon="6.71124">
        <ele>461</ele>
        <time>2018-07-01T08:07:59.000Z</time>
      </trkpt>
      <trkpt lat="47.22997" lon="6.71127">
        <ele>461</ele>
        <time>2018-07-01T08:08:00.000Z</time>
      </trkpt>
      <trkpt lat="47.22999" lon="6.7113">
        <ele>461</ele>
        <time>2018-07-01T08:08:01.000Z</time>
      </trkpt>
      <trkpt lat="47.23" lon="6.71133">
        <ele>461</ele>
        <time>2018-07-01T08:08:02.000Z</time>
      </trkpt>
      <trkpt lat="47.23002" lon="6.71136">
        <ele>461</ele>
        <time>2018-07-01T08:08:03.000Z</time>
      </trkpt>
      <trkpt lat="47.23004" lon="6.7114">
        <ele>461</ele>
        <time>2018-07-01T08:08:04.000Z</time>
      </trkpt>
      <trkpt lat="47.23006" lon="6.71143">
        <ele>461</ele>
        <time>2018-07-01T08:08:05.000Z</time>
      </trkpt>
      <trkpt lat="47.23008" lon="6.71146">
        <ele>461</ele>
        <time>2018-07-01T08:08:06.000Z</time>
      </trkpt>
      <trkpt lat="47.23009" lon="6.71149">
        <ele>461</ele>
        <time>2018-07-01T08:08:07.000Z</time>
      </trkpt>
      <trkpt lat="47.23011" lon="6.71153">
        <ele>461</ele>
        <time>2018-07-01T08:08:08.000Z</time>
      </trkpt>
      <trkpt lat="47.23013" lon="6.71156">
        <ele>461</ele>
        <time>2018-07-01T08:08:09.000Z</time>
      </trkpt>
      <trkpt lat="47.23014" lon="6.71159">
        <ele>461</ele>
        <time>2018-07-01T08:08:10.000Z</time>
      </trkpt>
      <trkpt lat="47.23016" lon="6.71162">
        <ele>461</ele>
        <time>2018-07-01T08:08:11.000Z</time>
      </trkpt>
      <trkpt lat="47.23017" lon="6.71166">
        <ele>461</ele>
        <time>2018-07-01T08:08:12.000Z</time>
      </trkpt>
      <trkpt lat="47.23018" lon="6.71169">
        <ele>462</ele>
        <time>2018-07-01T08:08:13.000Z</time>
      </trkpt>
      <trkpt lat="47.2302" lon="6.71172">
        <ele>463</ele>
        <time>2018-07-01T08:08:14.000Z</time>
      </trkpt>
      <trkpt lat="47.23021" lon="6.71176">
        <ele>463</ele>
        <time>2018-07-01T08:08:15.000Z</time>
      </trkpt>
      <trkpt lat="47.23023" lon="6.71179">
        <ele>464</ele>
        <time>2018-07-01T08:08:16.000Z</time>
      </trkpt>
      <trkpt lat="47.23025" lon="6.71183">
        <ele>464</ele>
        <time>2018-07-01T08:08:17.000Z</time>
      </trkpt>
      <trkpt lat="47.23026" lon="6.71186">
        <ele>464</ele>
        <time>2018-07-01T08:08:18.000Z</time>
      </trkpt>
      <trkpt lat="47.23028" lon="6.7119">
        <ele>465</ele>
        <time>2018-07-01T08:08:19.000Z</time>
      </trkpt>
      <trkpt lat="47.23029" lon="6.71194">
        <ele>465</ele>
        <time>2018-07-01T08:08:20.000Z</time>
      </trkpt>
      <trkpt lat="47.23031" lon="6.71198">
        <ele>465</ele>
        <time>2018-07-01T08:08:21.000Z</time>
      </trkpt>
      <trkpt lat="47.23032" lon="6.71201">
        <ele>466</ele>
        <time>2018-07-01T08:08:22.000Z</time>
      </trkpt>
      <trkpt lat="47.23033" lon="6.71205">
        <ele>466</ele>
        <time>2018-07-01T08:08:23.000Z</time>
      </trkpt>
      <trkpt lat="47.23034" lon="6.71209">
        <ele>466</ele>
        <time>2018-07-01T08:08:24.000Z</time>
      </trkpt>
      <trkpt lat="47.23035" lon="6.71213">
        <ele>466</ele>
        <time>2018-07-01T08:08:25.000Z</time>
      </trkpt>
      <trkpt lat="47.23036" lon="6.71217">
        <ele>466</ele>
        <time>2018-07-01T08:08:26.000Z</time>
      </trkpt>
      <trkpt lat="47.23037" lon="6.71221">
        <ele>467</ele>
        <time>2018-07-01T08:08:27.000Z</time>
      </trkpt>
      <trkpt lat="47.23038" lon="6.71225">
        <ele>467</ele>
        <time>2018-07-01T08:08:28.000Z</time>
      </trkpt>
      <trkpt lat="47.23039" lon="6.71229">
        <ele>467</ele>
        <time>2018-07-01T08:08:29.000Z</time>
      </trkpt>
      <trkpt lat="47.2304" lon="6.71232">
        <ele>467</ele>
        <time>2018-07-01T08:08:30.000Z</time>
      </trkpt>
      <trkpt lat="47.23041" lon="6.71236">
        <ele>467</ele>
        <time>2018-07-01T08:08:31.000Z</time>
      </trkpt>
      <trkpt lat="47.23042" lon="6.7124">
        <ele>467</ele>
        <time>2018-07-01T08:08:32.000Z</time>
      </trkpt>
      <trkpt lat="47.23043" lon="6.71243">
        <ele>467</ele>
        <time>2018-07-01T08:08:33.000Z</time>
      </trkpt>
      <trkpt lat="47.23044" lon="6.71247">
        <ele>467</ele>
        <time>2018-07-01T08:08:34.000Z</time>
      </trkpt>
      <trkpt lat="47.23045" lon="6.71251">
        <ele>473</ele>
        <time>2018-07-01T08:08:35.000Z</time>
      </trkpt>
      <trkpt lat="47.23046" lon="6.71254">
        <ele>473</ele>
        <time>2018-07-01T08:08:36.000Z</time>
      </trkpt>
      <trkpt lat="47.23047" lon="6.71258">
        <ele>473</ele>
        <time>2018-07-01T08:08:37.000Z</time>
      </trkpt>
      <trkpt lat="47.23049" lon="6.71261">
        <ele>473</ele>
        <time>2018-07-01T08:08:38.000Z</time>
      </trkpt>
      <trkpt lat="47.2305" lon="6.71265">
        <ele>473</ele>
        <time>2018-07-01T08:08:39.000Z</time>
      </trkpt>
      <trkpt lat="47.23052" lon="6.71269">
        <ele>473</ele>
        <time>2018-07-01T08:08:40.000Z</time>
      </trkpt>
      <trkpt lat="47.23054" lon="6.71272">
        <ele>473</ele>
        <time>2018-07-01T08:08:41.000Z</time>
      </trkpt>
      <trkpt lat="47.23055" lon="6.71275">
        <ele>474</ele>
        <time>2018-07-01T08:08:42.000Z</time>
      </trkpt>
      <trkpt lat="47.23057" lon="6.71279">
        <ele>474</ele>
        <time>2018-07-01T08:08:43.000Z</time>
      </trkpt>
      <trkpt lat="47.23058" lon="6.71282">
        <ele>474</ele>
        <time>2018-07-01T08:08:44.000Z</time>
      </trkpt>
      <trkpt lat="47.23059" lon="6.71285">
        <ele>474</ele>
        <time>2018-07-01T08:08:45.000Z</time>
      </trkpt>
      <trkpt lat="47.23061" lon="6.71289">
        <ele>474</ele>
        <time>2018-07-01T08:08:46.000Z</time>
      </trkpt>
      <trkpt lat="47.23063" lon="6.71292">
        <ele>474</ele>
        <time>2018-07-01T08:08:47.000Z</time>
      </trkpt>
      <trkpt lat="47.23064" lon="6.71295">
        <ele>474</ele>
        <time>2018-07-01T08:08:48.000Z</time>
      </trkpt>
      <trkpt lat="47.23066" lon="6.71298">
        <ele>474</ele>
        <time>2018-07-01T08:08:49.000Z</time>
      </trkpt>
      <trkpt lat="47.23067" lon="6.71301">
        <ele>474</ele>
        <time>2018-07-01T08:08:50.000Z</time>
      </trkpt>
      <trkpt lat="47.23068" lon="6.71305">
        <ele>474</ele>
        <time>2018-07-01T08:08:51.000Z</time>
      </trkpt>
      <trkpt lat="47.2307" lon="6.71308">
        <ele>474</ele>
        <time>2018-07-01T08:08:52.000Z</time>
      </trkpt>
      <trkpt lat="47.23072" lon="6.7131">
        <ele>474</ele>
        <time>2018-07-01T08:08:53.000Z</time>
      </trkpt>
      <trkpt lat="47.23073" lon="6.71313">
        <ele>474</ele>
        <time>2018-07-01T08:08:54.000Z</time>
      </trkpt>
      <trkpt lat="47.23075" lon="6.71316">
        <ele>473</ele>
        <time>2018-07-01T08:08:55.000Z</time>
      </trkpt>
      <trkpt lat="47.23077" lon="6.71319">
        <ele>473</ele>
        <time>2018-07-01T08:08:56.000Z</time>
      </trkpt>
      <trkpt lat="47.23079" lon="6.71322">
        <ele>473</ele>
        <time>2018-07-01T08:08:57.000Z</time>
      </trkpt>
      <trkpt lat="47.2308" lon="6.71325">
        <ele>472</ele>
        <time>2018-07-01T08:08:58.000Z</time>
      </trkpt>
      <trkpt lat="47.23082" lon="6.71328">
        <ele>471</ele>
        <time>2018-07-01T08:08:59.000Z</time>
      </trkpt>
      <trkpt lat="47.23084" lon="6.71331">
        <ele>471</ele>
        <time>2018-07-01T08:09:00.000Z</time>
      </trkpt>
      <trkpt lat="47.23085" lon="6.71335">
        <ele>471</ele>
        <time>2018-07-01T08:09:01.000Z</time>
      </trkpt>
      <trkpt lat="47.23087" lon="6.71338">
        <ele>472</ele>
        <time>2018-07-01T08:09:02.000Z</time>
      </trkpt>
      <trkpt lat="47.23088" lon="6.71341">
        <ele>473</ele>
        <time>2018-07-01T08:09:03.000Z</time>
      </trkpt>
      <trkpt lat="47.2309" lon="6.71345">
        <ele>474</ele>
        <time>2018-07-01T08:09:04.000Z</time>
      </trkpt>
      <trkpt lat="47.23092" lon="6.71348">
        <ele>475</ele>
        <time>2018-07-01T08:09:05.000Z</time>
      </trkpt>
      <trkpt lat="47.23094" lon="6.71352">
        <ele>475</ele>
        <time>2018-07-01T08:09:06.000Z</time>
      </trkpt>
      <trkpt lat="47.23096" lon="6.71355">
        <ele>476</ele>
        <time>2018-07-01T08:09:07.000Z</time>
      </trkpt>
      <trkpt lat="47.23098" lon="6.71359">
        <ele>477</ele>
        <time>2018-07-01T08:09:08.000Z</time>
      </trkpt>
      <trkpt lat="47.23099" lon="6.71362">
        <ele>477</ele>
        <time>2018-07-01T08:09:09.000Z</time>
      </trkpt>
      <trkpt lat="47.23101" lon="6.71365">
        <ele>477</ele>
        <time>2018-07-01T08:09:10.000Z</time>
      </trkpt>
      <trkpt lat="47.23103" lon="6.71369">
        <ele>478</ele>
        <time>2018-07-01T08:09:11.000Z</time>
      </trkpt>
      <trkpt lat="47.23104" lon="6.71372">
        <ele>478</ele>
        <time>2018-07-01T08:09:12.000Z</time>
      </trkpt>
      <trkpt lat="47.23106" lon="6.71376">
        <ele>478</ele>
        <time>2018-07-01T08:09:13.000Z</time>
      </trkpt>
      <trkpt lat="47.23108" lon="6.71379">
        <ele>478</ele>
        <time>2018-07-01T08:09:14.000Z</time>
      </trkpt>
      <trkpt lat="47.23109" lon="6.71383">
        <ele>479</ele>
        <time>2018-07-01T08:09:15.000Z</time>
      </trkpt>
      <trkpt lat="47.23111" lon="6.71386">
        <ele>479</ele>
        <time>2018-07-01T08:09:16.000Z</time>
      </trkpt>
      <trkpt lat="47.23112" lon="6.7139">
        <ele>479</ele>
        <time>2018-07-01T08:09:17.000Z</time>
      </trkpt>
      <trkpt lat="47.23114" lon="6.71393">
        <ele>479</ele>
        <time>2018-07-01T08:09:18.000Z</time>
      </trkpt>
      <trkpt lat="47.23115" lon="6.71397">
        <ele>479</ele>
        <time>2018-07-01T08:09:19.000Z</time>
      </trkpt>
      <trkpt lat="47.23116" lon="6.714">
        <ele>479</ele>
        <time>2018-07-01T08:09:20.000Z</time>
      </trkpt>
      <trkpt lat="47.23117" lon="6.71404">
        <ele>479</ele>
        <time>2018-07-01T08:09:21.000Z</time>
      </trkpt>
      <trkpt lat="47.23118" lon="6.71408">
        <ele>480</ele>
        <time>2018-07-01T08:09:22.000Z</time>
      </trkpt>
      <trkpt lat="47.23119" lon="6.71411">
        <ele>480</ele>
        <time>2018-07-01T08:09:23.000Z</time>
      </trkpt>
      <trkpt lat="47.2312" lon="6.71415">
        <ele>480</ele>
        <time>2018-07-01T08:09:24.000Z</time>
      </trkpt>
      <trkpt lat="47.23121" lon="6.71419">
        <ele>482</ele>
        <time>2018-07-01T08:09:25.000Z</time>
      </trkpt>
      <trkpt lat="47.23123" lon="6.71422">
        <ele>482</ele>
        <time>2018-07-01T08:09:26.000Z</time>
      </trkpt>
      <trkpt lat="47.23124" lon="6.71425">
        <ele>482</ele>
        <time>2018-07-01T08:09:27.000Z</time>
      </trkpt>
      <trkpt lat="47.23126" lon="6.71429">
        <ele>482</ele>
        <time>2018-07-01T08:09:28.000Z</time>
      </trkpt>
      <trkpt lat="47.23127" lon="6.71432">
        <ele>482</ele>
        <time>2018-07-01T08:09:29.000Z</time>
      </trkpt>
      <trkpt lat="47.23129" lon="6.71435">
        <ele>482</ele>
        <time>2018-07-01T08:09:30.000Z</time>
      </trkpt>
      <trkpt lat="47.2313" lon="6.71438">
        <ele>482</ele>
        <time>2018-07-01T08:09:31.000Z</time>
      </trkpt>
      <trkpt lat="47.23132" lon="6.71441">
        <ele>482</ele>
        <time>2018-07-01T08:09:32.000Z</time>
      </trkpt>
      <trkpt lat="47.23133" lon="6.71445">
        <ele>482</ele>
        <time>2018-07-01T08:09:33.000Z</time>
      </trkpt>
      <trkpt lat="47.23135" lon="6.71448">
        <ele>482</ele>
        <time>2018-07-01T08:09:34.000Z</time>
      </trkpt>
      <trkpt lat="47.23136" lon="6.71452">
        <ele>482</ele>
        <time>2018-07-01T08:09:35.000Z</time>
      </trkpt>
      <trkpt lat="47.23137" lon="6.71455">
        <ele>482</ele>
        <time>2018-07-01T08:09:36.000Z</time>
      </trkpt>
      <trkpt lat="47.23138" lon="6.71458">
        <ele>482</ele>
        <time>2018-07-01T08:09:37.000Z</time>
      </trkpt>
      <trkpt lat="47.23139" lon="6.71461">
        <ele>482</ele>
        <time>2018-07-01T08:09:38.000Z</time>
      </trkpt>
      <trkpt lat="47.23141" lon="6.71464">
        <ele>482</ele>
        <time>2018-07-01T08:09:39.000Z</time>
      </trkpt>
      <trkpt lat="47.23141" lon="6.71467">
        <ele>482</ele>
        <time>2018-07-01T08:09:40.000Z</time>
      </trkpt>
      <trkpt lat="47.23142" lon="6.71471">
        <ele>482</ele>
        <time>2018-07-01T08:09:41.000Z</time>
      </trkpt>
      <trkpt lat="47.23143" lon="6.71474">
        <ele>482</ele>
        <time>2018-07-01T08:09:42.000Z</time>
      </trkpt>
      <trkpt lat="47.23145" lon="6.71477">
        <ele>482</ele>
        <time>2018-07-01T08:09:43.000Z</time>
      </trkpt>
      <trkpt lat="47.23146" lon="6.7148">
        <ele>482</ele>
        <time>2018-07-01T08:09:44.000Z</time>
      </trkpt>
      <trkpt lat="47.23147" lon="6.71483">
        <ele>482</ele>
        <time>2018-07-01T08:09:45.000Z</time>
      </trkpt>
      <trkpt lat="47.23148" lon="6.71486">
        <ele>482</ele>
        <time>2018-07-01T08:09:46.000Z</time>
      </trkpt>
      <trkpt lat="47.23149" lon="6.71489">
        <ele>482</ele>
        <time>2018-07-01T08:09:47.000Z</time>
      </trkpt>
      <trkpt lat="47.23149" lon="6.71492">
        <ele>482</ele>
        <time>2018-07-01T08:09:48.000Z</time>
      </trkpt>
      <trkpt lat="47.2315" lon="6.71495">
        <ele>482</ele>
        <time>2018-07-01T08:09:49.000Z</time>
      </trkpt>
      <trkpt lat="47.23151" lon="6.71499">
        <ele>482</ele>
        <time>2018-07-01T08:09:50.000Z</time>
      </trkpt>
      <trkpt lat="47.23152" lon="6.71503">
        <ele>483</ele>
        <time>2018-07-01T08:09:51.000Z</time>
      </trkpt>
      <trkpt lat="47.23152" lon="6.71506">
        <ele>483</ele>
        <time>2018-07-01T08:09:52.000Z</time>
      </trkpt>
      <trkpt lat="47.23153" lon="6.7151">
        <ele>483</ele>
        <time>2018-07-01T08:09:53.000Z</time>
      </trkpt>
      <trkpt lat="47.23154" lon="6.71513">
        <ele>483</ele>
        <time>2018-07-01T08:09:54.000Z</time>
      </trkpt>
      <trkpt lat="47.23155" lon="6.71517">
        <ele>484</ele>
        <time>2018-07-01T08:09:55.000Z</time>
      </trkpt>
      <trkpt lat="47.23155" lon="6.7152">
        <ele>484</ele>
        <time>2018-07-01T08:09:56.000Z</time>
      </trkpt>
      <trkpt lat="47.23156" lon="6.71524">
        <ele>484</ele>
        <time>2018-07-01T08:09:57.000Z</time>
      </trkpt>
      <trkpt lat="47.23156" lon="6.71527">
        <ele>484</ele>
        <time>2018-07-01T08:09:58.000Z</time>
      </trkpt>
      <trkpt lat="47.23157" lon="6.71531">
        <ele>484</ele>
        <time>2018-07-01T08:09:59.000Z</time>
      </trkpt>
      <trkpt lat="47.23157" lon="6.71535">
        <ele>484</ele>
        <time>2018-07-01T08:10:00.000Z</time>
      </trkpt>
      <trkpt lat="47.23157" lon="6.71539">
        <ele>484</ele>
        <time>2018-07-01T08:10:01.000Z</time>
      </trkpt>
      <trkpt lat="47.23157" lon="6.71544">
        <ele>484</ele>
        <time>2018-07-01T08:10:02.000Z</time>
      </trkpt>
      <trkpt lat="47.23158" lon="6.71549">
        <ele>484</ele>
        <time>2018-07-01T08:10:03.000Z</time>
      </trkpt>
      <trkpt lat="47.23159" lon="6.71553">
        <ele>484</ele>
        <time>2018-07-01T08:10:04.000Z</time>
      </trkpt>
      <trkpt lat="47.23159" lon="6.71558">
        <ele>484</ele>
        <time>2018-07-01T08:10:05.000Z</time>
      </trkpt>
      <trkpt lat="47.2316" lon="6.71563">
        <ele>484</ele>
        <time>2018-07-01T08:10:06.000Z</time>
      </trkpt>
      <trkpt lat="47.2316" lon="6.71568">
        <ele>484</ele>
        <time>2018-07-01T08:10:07.000Z</time>
      </trkpt>
      <trkpt lat="47.23161" lon="6.71572">
        <ele>483</ele>
        <time>2018-07-01T08:10:08.000Z</time>
      </trkpt>
      <trkpt lat="47.23161" lon="6.71577">
        <ele>483</ele>
        <time>2018-07-01T08:10:09.000Z</time>
      </trkpt>
      <trkpt lat="47.23161" lon="6.71582">
        <ele>482</ele>
        <time>2018-07-01T08:10:10.000Z</time>
      </trkpt>
      <trkpt lat="47.23162" lon="6.71586">
        <ele>483</ele>
        <time>2018-07-01T08:10:11.000Z</time>
      </trkpt>
      <trkpt lat="47.23162" lon="6.71591">
        <ele>484</ele>
        <time>2018-07-01T08:10:12.000Z</time>
      </trkpt>
      <trkpt lat="47.23163" lon="6.71596">
        <ele>484</ele>
        <time>2018-07-01T08:10:13.000Z</time>
      </trkpt>
      <trkpt lat="47.23163" lon="6.716">
        <ele>485</ele>
        <time>2018-07-01T08:10:14.000Z</time>
      </trkpt>
      <trkpt lat="47.23163" lon="6.71604">
        <ele>486</ele>
        <time>2018-07-01T08:10:15.000Z</time>
      </trkpt>
      <trkpt lat="47.23164" lon="6.71609">
        <ele>486</ele>
        <time>2018-07-01T08:10:16.000Z</time>
      </trkpt>
      <trkpt lat="47.23164" lon="6.71613">
        <ele>486</ele>
        <time>2018-07-01T08:10:17.000Z</time>
      </trkpt>
      <trkpt lat="47.23164" lon="6.71617">
        <ele>486</ele>
        <time>2018-07-01T08:10:18.000Z</time>
      </trkpt>
      <trkpt lat="47.23164" lon="6.71621">
        <ele>487</ele>
        <time>2018-07-01T08:10:19.000Z</time>
      </trkpt>
      <trkpt lat="47.23164" lon="6.71624">
        <ele>487</ele>
        <time>2018-07-01T08:10:20.000Z</time>
      </trkpt>
      <trkpt lat="47.23165" lon="6.71628">
        <ele>487</ele>
        <time>2018-07-01T08:10:21.000Z</time>
      </trkpt>
      <trkpt lat="47.23165" lon="6.71632">
        <ele>487</ele>
        <time>2018-07-01T08:10:22.000Z</time>
      </trkpt>
      <trkpt lat="47.23166" lon="6.71636">
        <ele>486</ele>
        <time>2018-07-01T08:10:23.000Z</time>
      </trkpt>
      <trkpt lat="47.23167" lon="6.7164">
        <ele>487</ele>
        <time>2018-07-01T08:10:24.000Z</time>
      </trkpt>
      <trkpt lat="47.23168" lon="6.71644">
        <ele>487</ele>
        <time>2018-07-01T08:10:25.000Z</time>
      </trkpt>
      <trkpt lat="47.2317" lon="6.71648">
        <ele>486</ele>
        <time>2018-07-01T08:10:26.000Z</time>
      </trkpt>
      <trkpt lat="47.23171" lon="6.71652">
        <ele>486</ele>
        <time>2018-07-01T08:10:27.000Z</time>
      </trkpt>
      <trkpt lat="47.23172" lon="6.71656">
        <ele>485</ele>
        <time>2018-07-01T08:10:28.000Z</time>
      </trkpt>
      <trkpt lat="47.23173" lon="6.7166">
        <ele>484</ele>
        <time>2018-07-01T08:10:29.000Z</time>
      </trkpt>
      <trkpt lat="47.23174" lon="6.71664">
        <ele>484</ele>
        <time>2018-07-01T08:10:30.000Z</time>
      </trkpt>
      <trkpt lat="47.23175" lon="6.71668">
        <ele>482</ele>
        <time>2018-07-01T08:10:31.000Z</time>
      </trkpt>
      <trkpt lat="47.23177" lon="6.71672">
        <ele>483</ele>
        <time>2018-07-01T08:10:32.000Z</time>
      </trkpt>
      <trkpt lat="47.23178" lon="6.71676">
        <ele>483</ele>
        <time>2018-07-01T08:10:33.000Z</time>
      </trkpt>
      <trkpt lat="47.23179" lon="6.7168">
        <ele>483</ele>
        <time>2018-07-01T08:10:34.000Z</time>
      </trkpt>
      <trkpt lat="47.2318" lon="6.71685">
        <ele>484</ele>
        <time>2018-07-01T08:10:35.000Z</time>
      </trkpt>
      <trkpt lat="47.23181" lon="6.71689">
        <ele>484</ele>
        <time>2018-07-01T08:10:36.000Z</time>
      </trkpt>
      <trkpt lat="47.23182" lon="6.71693">
        <ele>484</ele>
        <time>2018-07-01T08:10:37.000Z</time>
      </trkpt>
      <trkpt lat="47.23183" lon="6.71698">
        <ele>484</ele>
        <time>2018-07-01T08:10:38.000Z</time>
      </trkpt>
      <trkpt lat="47.23185" lon="6.71702">
        <ele>484</ele>
        <time>2018-07-01T08:10:39.000Z</time>
      </trkpt>
      <trkpt lat="47.23186" lon="6.71705">
        <ele>484</ele>
        <time>2018-07-01T08:10:40.000Z</time>
      </trkpt>
      <trkpt lat="47.23186" lon="6.71709">
        <ele>484</ele>
        <time>2018-07-01T08:10:41.000Z</time>
      </trkpt>
      <trkpt lat="47.23188" lon="6.71713">
        <ele>484</ele>
        <time>2018-07-01T08:10:42.000Z</time>
      </trkpt>
      <trkpt lat="47.23189" lon="6.71717">
        <ele>484</ele>
        <time>2018-07-01T08:10:43.000Z</time>
      </trkpt>
      <trkpt lat="47.2319" lon="6.71721">
        <ele>484</ele>
        <time>2018-07-01T08:10:44.000Z</time>
      </trkpt>
      <trkpt lat="47.23191" lon="6.71725">
        <ele>484</ele>
        <time>2018-07-01T08:10:45.000Z</time>
      </trkpt>
      <trkpt lat="47.23192" lon="6.71729">
        <ele>483</ele>
        <time>2018-07-01T08:10:46.000Z</time>
      </trkpt>
      <trkpt lat="47.23193" lon="6.71733">
        <ele>483</ele>
        <time>2018-07-01T08:10:47.000Z</time>
      </trkpt>
      <trkpt lat="47.23194" lon="6.71736">
        <ele>483</ele>
        <time>2018-07-01T08:10:48.000Z</time>
      </trkpt>
      <trkpt lat="47.23195" lon="6.7174">
        <ele>483</ele>
        <time>2018-07-01T08:10:49.000Z</time>
      </trkpt>
      <trkpt lat="47.23195" lon="6.71744">
        <ele>483</ele>
        <time>2018-07-01T08:10:50.000Z</time>
      </trkpt>
      <trkpt lat="47.23196" lon="6.71748">
        <ele>483</ele>
        <time>2018-07-01T08:10:51.000Z</time>
      </trkpt>
      <trkpt lat="47.23196" lon="6.71752">
        <ele>481</ele>
        <time>2018-07-01T08:10:52.000Z</time>
      </trkpt>
      <trkpt lat="47.23196" lon="6.71757">
        <ele>481</ele>
        <time>2018-07-01T08:10:53.000Z</time>
      </trkpt>
      <trkpt lat="47.23197" lon="6.71761">
        <ele>481</ele>
        <time>2018-07-01T08:10:54.000Z</time>
      </trkpt>
      <trkpt lat="47.23197" lon="6.71766">
        <ele>481</ele>
        <time>2018-07-01T08:10:55.000Z</time>
      </trkpt>
      <trkpt lat="47.23196" lon="6.71771">
        <ele>481</ele>
        <time>2018-07-01T08:10:56.000Z</time>
      </trkpt>
      <trkpt lat="47.23196" lon="6.71775">
        <ele>481</ele>
        <time>2018-07-01T08:10:57.000Z</time>
      </trkpt>
      <trkpt lat="47.23196" lon="6.7178">
        <ele>481</ele>
        <time>2018-07-01T08:10:58.000Z</time>
      </trkpt>
      <trkpt lat="47.23195" lon="6.71784">
        <ele>481</ele>
        <time>2018-07-01T08:10:59.000Z</time>
      </trkpt>
      <trkpt lat="47.23195" lon="6.71788">
        <ele>481</ele>
        <time>2018-07-01T08:11:00.000Z</time>
      </trkpt>
      <trkpt lat="47.23194" lon="6.71793">
        <ele>481</ele>
        <time>2018-07-01T08:11:01.000Z</time>
      </trkpt>
      <trkpt lat="47.23194" lon="6.71797">
        <ele>481</ele>
        <time>2018-07-01T08:11:02.000Z</time>
      </trkpt>
      <trkpt lat="47.23194" lon="6.71801">
        <ele>481</ele>
        <time>2018-07-01T08:11:03.000Z</time>
      </trkpt>
      <trkpt lat="47.23193" lon="6.71805">
        <ele>481</ele>
        <time>2018-07-01T08:11:04.000Z</time>
      </trkpt>
      <trkpt lat="47.23192" lon="6.71809">
        <ele>481</ele>
        <time>2018-07-01T08:11:05.000Z</time>
      </trkpt>
      <trkpt lat="47.23191" lon="6.71813">
        <ele>481</ele>
        <time>2018-07-01T08:11:06.000Z</time>
      </trkpt>
      <trkpt lat="47.2319" lon="6.71816">
        <ele>481</ele>
        <time>2018-07-01T08:11:07.000Z</time>
      </trkpt>
      <trkpt lat="47.23189" lon="6.7182">
        <ele>481</ele>
        <time>2018-07-01T08:11:08.000Z</time>
      </trkpt>
      <trkpt lat="47.23188" lon="6.71823">
        <ele>481</ele>
        <time>2018-07-01T08:11:09.000Z</time>
      </trkpt>
      <trkpt lat="47.23186" lon="6.71827">
        <ele>481</ele>
        <time>2018-07-01T08:11:10.000Z</time>
      </trkpt>
      <trkpt lat="47.23185" lon="6.7183">
        <ele>481</ele>
        <time>2018-07-01T08:11:11.000Z</time>
      </trkpt>
      <trkpt lat="47.23183" lon="6.71834">
        <ele>482</ele>
        <time>2018-07-01T08:11:12.000Z</time>
      </trkpt>
      <trkpt lat="47.23181" lon="6.71838">
        <ele>482</ele>
        <time>2018-07-01T08:11:13.000Z</time>
      </trkpt>
      <trkpt lat="47.2318" lon="6.71842">
        <ele>482</ele>
        <time>2018-07-01T08:11:14.000Z</time>
      </trkpt>
      <trkpt lat="47.23178" lon="6.71846">
        <ele>482</ele>
        <time>2018-07-01T08:11:15.000Z</time>
      </trkpt>
      <trkpt lat="47.23176" lon="6.71849">
        <ele>482</ele>
        <time>2018-07-01T08:11:16.000Z</time>
      </trkpt>
      <trkpt lat="47.23175" lon="6.71853">
        <ele>482</ele>
        <time>2018-07-01T08:11:17.000Z</time>
      </trkpt>
      <trkpt lat="47.23173" lon="6.71856">
        <ele>482</ele>
        <time>2018-07-01T08:11:18.000Z</time>
      </trkpt>
      <trkpt lat="47.23172" lon="6.7186">
        <ele>482</ele>
        <time>2018-07-01T08:11:19.000Z</time>
      </trkpt>
      <trkpt lat="47.2317" lon="6.71863">
        <ele>483</ele>
        <time>2018-07-01T08:11:20.000Z</time>
      </trkpt>
      <trkpt lat="47.23169" lon="6.71867">
        <ele>483</ele>
        <time>2018-07-01T08:11:21.000Z</time>
      </trkpt>
      <trkpt lat="47.23167" lon="6.71871">
        <ele>483</ele>
        <time>2018-07-01T08:11:22.000Z</time>
      </trkpt>
      <trkpt lat="47.23166" lon="6.71874">
        <ele>485</ele>
        <time>2018-07-01T08:11:23.000Z</time>
      </trkpt>
      <trkpt lat="47.23165" lon="6.71878">
        <ele>485</ele>
        <time>2018-07-01T08:11:24.000Z</time>
      </trkpt>
      <trkpt lat="47.23164" lon="6.71882">
        <ele>485</ele>
        <time>2018-07-01T08:11:25.000Z</time>
      </trkpt>
      <trkpt lat="47.23163" lon="6.71885">
        <ele>485</ele>
        <time>2018-07-01T08:11:26.000Z</time>
      </trkpt>
      <trkpt lat="47.23161" lon="6.71888">
        <ele>485</ele>
        <time>2018-07-01T08:11:27.000Z</time>
      </trkpt>
      <trkpt lat="47.2316" lon="6.71892">
        <ele>485</ele>
        <time>2018-07-01T08:11:28.000Z</time>
      </trkpt>
      <trkpt lat="47.23158" lon="6.71895">
        <ele>485</ele>
        <time>2018-07-01T08:11:29.000Z</time>
      </trkpt>
      <trkpt lat="47.23156" lon="6.71898">
        <ele>485</ele>
        <time>2018-07-01T08:11:30.000Z</time>
      </trkpt>
      <trkpt lat="47.23155" lon="6.71902">
        <ele>485</ele>
        <time>2018-07-01T08:11:31.000Z</time>
      </trkpt>
      <trkpt lat="47.23153" lon="6.71905">
        <ele>485</ele>
        <time>2018-07-01T08:11:32.000Z</time>
      </trkpt>
      <trkpt lat="47.2315" lon="6.71908">
        <ele>485</ele>
        <time>2018-07-01T08:11:33.000Z</time>
      </trkpt>
      <trkpt lat="47.23148" lon="6.7191">
        <ele>485</ele>
        <time>2018-07-01T08:11:34.000Z</time>
      </trkpt>
      <trkpt lat="47.23146" lon="6.71912">
        <ele>485</ele>
        <time>2018-07-01T08:11:35.000Z</time>
      </trkpt>
      <trkpt lat="47.23143" lon="6.71914">
        <ele>486</ele>
        <time>2018-07-01T08:11:36.000Z</time>
      </trkpt>
      <trkpt lat="47.23141" lon="6.71916">
        <ele>486</ele>
        <time>2018-07-01T08:11:37.000Z</time>
      </trkpt>
      <trkpt lat="47.23138" lon="6.71918">
        <ele>485</ele>
        <time>2018-07-01T08:11:38.000Z</time>
      </trkpt>
      <trkpt lat="47.23135" lon="6.7192">
        <ele>485</ele>
        <time>2018-07-01T08:11:39.000Z</time>
      </trkpt>
      <trkpt lat="47.23133" lon="6.71922">
        <ele>486</ele>
        <time>2018-07-01T08:11:40.000Z</time>
      </trkpt>
      <trkpt lat="47.2313" lon="6.71924">
        <ele>486</ele>
        <time>2018-07-01T08:11:41.000Z</time>
      </trkpt>
      <trkpt lat="47.23128" lon="6.71926">
        <ele>486</ele>
        <time>2018-07-01T08:11:42.000Z</time>
      </trkpt>
      <trkpt lat="47.23125" lon="6.71929">
        <ele>486</ele>
        <time>2018-07-01T08:11:43.000Z</time>
      </trkpt>
      <trkpt lat="47.23123" lon="6.71931">
        <ele>486</ele>
        <time>2018-07-01T08:11:44.000Z</time>
      </trkpt>
      <trkpt lat="47.23121" lon="6.71934">
        <ele>487</ele>
        <time>2018-07-01T08:11:45.000Z</time>
      </trkpt>
      <trkpt lat="47.23119" lon="6.71937">
        <ele>487</ele>
        <time>2018-07-01T08:11:46.000Z</time>
      </trkpt>
      <trkpt lat="47.23117" lon="6.7194">
        <ele>487</ele>
        <time>2018-07-01T08:11:47.000Z</time>
      </trkpt>
      <trkpt lat="47.23116" lon="6.71944">
        <ele>487</ele>
        <time>2018-07-01T08:11:48.000Z</time>
      </trkpt>
      <trkpt lat="47.23114" lon="6.71947">
        <ele>487</ele>
        <time>2018-07-01T08:11:49.000Z</time>
      </trkpt>
      <trkpt lat="47.23113" lon="6.71951">
        <ele>487</ele>
        <time>2018-07-01T08:11:50.000Z</time>
      </trkpt>
      <trkpt lat="47.23111" lon="6.71954">
        <ele>487</ele>
        <time>2018-07-01T08:11:51.000Z</time>
      </trkpt>
      <trkpt lat="47.2311" lon="6.71958">
        <ele>486</ele>
        <time>2018-07-01T08:11:52.000Z</time>
      </trkpt>
      <trkpt lat="47.23108" lon="6.71961">
        <ele>486</ele>
        <time>2018-07-01T08:11:53.000Z</time>
      </trkpt>
      <trkpt lat="47.23107" lon="6.71965">
        <ele>486</ele>
        <time>2018-07-01T08:11:54.000Z</time>
      </trkpt>
      <trkpt lat="47.23106" lon="6.71969">
        <ele>486</ele>
        <time>2018-07-01T08:11:55.000Z</time>
      </trkpt>
      <trkpt lat="47.23105" lon="6.71972">
        <ele>486</ele>
        <time>2018-07-01T08:11:56.000Z</time>
      </trkpt>
      <trkpt lat="47.23104" lon="6.71976">
        <ele>486</ele>
        <time>2018-07-01T08:11:57.000Z</time>
      </trkpt>
      <trkpt lat="47.23103" lon="6.7198">
        <ele>486</ele>
        <time>2018-07-01T08:11:58.000Z</time>
      </trkpt>
      <trkpt lat="47.23102" lon="6.71984">
        <ele>486</ele>
        <time>2018-07-01T08:11:59.000Z</time>
      </trkpt>
      <trkpt lat="47.23101" lon="6.71988">
        <ele>485</ele>
        <time>2018-07-01T08:12:00.000Z</time>
      </trkpt>
      <trkpt lat="47.231" lon="6.71991">
        <ele>485</ele>
        <time>2018-07-01T08:12:01.000Z</time>
      </trkpt>
      <trkpt lat="47.23099" lon="6.71995">
        <ele>485</ele>
        <time>2018-07-01T08:12:02.000Z</time>
      </trkpt>
      <trkpt lat="47.23098" lon="6.71999">
        <ele>485</ele>
        <time>2018-07-01T08:12:03.000Z</time>
      </trkpt>
      <trkpt lat="47.23098" lon="6.72002">
        <ele>486</ele>
        <time>2018-07-01T08:12:04.000Z</time>
      </trkpt>
      <trkpt lat="47.23097" lon="6.72006">
        <ele>486</ele>
        <time>2018-07-01T08:12:05.000Z</time>
      </trkpt>
      <trkpt lat="47.23096" lon="6.7201">
        <ele>486</ele>
        <time>2018-07-01T08:12:06.000Z</time>
      </trkpt>
      <trkpt lat="47.23095" lon="6.72013">
        <ele>486</ele>
        <time>2018-07-01T08:12:07.000Z</time>
      </trkpt>
      <trkpt lat="47.23094" lon="6.72017">
        <ele>486</ele>
        <time>2018-07-01T08:12:08.000Z</time>
      </trkpt>
      <trkpt lat="47.23094" lon="6.7202">
        <ele>486</ele>
        <time>2018-07-01T08:12:09.000Z</time>
      </trkpt>
      <trkpt lat="47.23093" lon="6.72024">
        <ele>487</ele>
        <time>2018-07-01T08:12:10.000Z</time>
      </trkpt>
      <trkpt lat="47.23092" lon="6.72027">
        <ele>487</ele>
        <time>2018-07-01T08:12:11.000Z</time>
      </trkpt>
      <trkpt lat="47.23091" lon="6.7203">
        <ele>487</ele>
        <time>2018-07-01T08:12:12.000Z</time>
      </trkpt>
      <trkpt lat="47.2309" lon="6.72033">
        <ele>487</ele>
        <time>2018-07-01T08:12:13.000Z</time>
      </trkpt>
      <trkpt lat="47.23089" lon="6.72036">
        <ele>487</ele>
        <time>2018-07-01T08:12:14.000Z</time>
      </trkpt>
      <trkpt lat="47.23088" lon="6.7204">
        <ele>487</ele>
        <time>2018-07-01T08:12:15.000Z</time>
      </trkpt>
      <trkpt lat="47.23086" lon="6.72043">
        <ele>487</ele>
        <time>2018-07-01T08:12:16.000Z</time>
      </trkpt>
      <trkpt lat="47.23086" lon="6.72047">
        <ele>488</ele>
        <time>2018-07-01T08:12:17.000Z</time>
      </trkpt>
      <trkpt lat="47.23085" lon="6.7205">
        <ele>488</ele>
        <time>2018-07-01T08:12:18.000Z</time>
      </trkpt>
      <trkpt lat="47.23084" lon="6.72054">
        <ele>488</ele>
        <time>2018-07-01T08:12:19.000Z</time>
      </trkpt>
      <trkpt lat="47.23082" lon="6.72057">
        <ele>497</ele>
        <time>2018-07-01T08:12:20.000Z</time>
      </trkpt>
      <trkpt lat="47.23081" lon="6.72061">
        <ele>497</ele>
        <time>2018-07-01T08:12:21.000Z</time>
      </trkpt>
      <trkpt lat="47.2308" lon="6.72064">
        <ele>496</ele>
        <time>2018-07-01T08:12:22.000Z</time>
      </trkpt>
      <trkpt lat="47.23078" lon="6.72067">
        <ele>495</ele>
        <time>2018-07-01T08:12:23.000Z</time>
      </trkpt>
      <trkpt lat="47.23077" lon="6.72071">
        <ele>494</ele>
        <time>2018-07-01T08:12:24.000Z</time>
      </trkpt>
      <trkpt lat="47.23077" lon="6.72074">
        <ele>494</ele>
        <time>2018-07-01T08:12:25.000Z</time>
      </trkpt>
      <trkpt lat="47.23076" lon="6.72078">
        <ele>493</ele>
        <time>2018-07-01T08:12:26.000Z</time>
      </trkpt>
      <trkpt lat="47.23075" lon="6.72081">
        <ele>492</ele>
        <time>2018-07-01T08:12:27.000Z</time>
      </trkpt>
      <trkpt lat="47.23075" lon="6.72084">
        <ele>493</ele>
        <time>2018-07-01T08:12:28.000Z</time>
      </trkpt>
      <trkpt lat="47.23075" lon="6.72088">
        <ele>494</ele>
        <time>2018-07-01T08:12:29.000Z</time>
      </trkpt>
      <trkpt lat="47.23074" lon="6.72092">
        <ele>495</ele>
        <time>2018-07-01T08:12:30.000Z</time>
      </trkpt>
      <trkpt lat="47.23074" lon="6.72095">
        <ele>496</ele>
        <time>2018-07-01T08:12:31.000Z</time>
      </trkpt>
      <trkpt lat="47.23073" lon="6.72099">
        <ele>497</ele>
        <time>2018-07-01T08:12:32.000Z</time>
      </trkpt>
      <trkpt lat="47.23073" lon="6.72103">
        <ele>498</ele>
        <time>2018-07-01T08:12:33.000Z</time>
      </trkpt>
      <trkpt lat="47.23074" lon="6.72106">
        <ele>499</ele>
        <time>2018-07-01T08:12:34.000Z</time>
      </trkpt>
      <trkpt lat="47.23074" lon="6.7211">
        <ele>500</ele>
        <time>2018-07-01T08:12:35.000Z</time>
      </trkpt>
      <trkpt lat="47.23074" lon="6.72114">
        <ele>500</ele>
        <time>2018-07-01T08:12:36.000Z</time>
      </trkpt>
      <trkpt lat="47.23074" lon="6.72118">
        <ele>501</ele>
        <time>2018-07-01T08:12:37.000Z</time>
      </trkpt>
      <trkpt lat="47.23074" lon="6.72121">
        <ele>501</ele>
        <time>2018-07-01T08:12:38.000Z</time>
      </trkpt>
      <trkpt lat="47.23074" lon="6.72125">
        <ele>501</ele>
        <time>2018-07-01T08:12:39.000Z</time>
      </trkpt>
      <trkpt lat="47.23074" lon="6.72128">
        <ele>502</ele>
        <time>2018-07-01T08:12:40.000Z</time>
      </trkpt>
      <trkpt lat="47.23073" lon="6.72132">
        <ele>502</ele>
        <time>2018-07-01T08:12:41.000Z</time>
      </trkpt>
      <trkpt lat="47.23073" lon="6.72135">
        <ele>502</ele>
        <time>2018-07-01T08:12:42.000Z</time>
      </trkpt>
      <trkpt lat="47.23073" lon="6.72139">
        <ele>502</ele>
        <time>2018-07-01T08:12:43.000Z</time>
      </trkpt>
      <trkpt lat="47.23072" lon="6.72142">
        <ele>501</ele>
        <time>2018-07-01T08:12:44.000Z</time>
      </trkpt>
      <trkpt lat="47.23072" lon="6.72146">
        <ele>501</ele>
        <time>2018-07-01T08:12:45.000Z</time>
      </trkpt>
      <trkpt lat="47.23072" lon="6.72149">
        <ele>501</ele>
        <time>2018-07-01T08:12:46.000Z</time>
      </trkpt>
      <trkpt lat="47.23071" lon="6.72153">
        <ele>500</ele>
        <time>2018-07-01T08:12:47.000Z</time>
      </trkpt>
      <trkpt lat="47.23071" lon="6.72157">
        <ele>500</ele>
        <time>2018-07-01T08:12:48.000Z</time>
      </trkpt>
      <trkpt lat="47.23071" lon="6.7216">
        <ele>500</ele>
        <time>2018-07-01T08:12:49.000Z</time>
      </trkpt>
      <trkpt lat="47.2307" lon="6.72164">
        <ele>500</ele>
        <time>2018-07-01T08:12:50.000Z</time>
      </trkpt>
      <trkpt lat="47.23069" lon="6.72167">
        <ele>501</ele>
        <time>2018-07-01T08:12:51.000Z</time>
      </trkpt>
      <trkpt lat="47.23069" lon="6.72171">
        <ele>501</ele>
        <time>2018-07-01T08:12:52.000Z</time>
      </trkpt>
      <trkpt lat="47.23068" lon="6.72174">
        <ele>502</ele>
        <time>2018-07-01T08:12:53.000Z</time>
      </trkpt>
      <trkpt lat="47.23068" lon="6.72178">
        <ele>502</ele>
        <time>2018-07-01T08:12:54.000Z</time>
      </trkpt>
      <trkpt lat="47.23068" lon="6.72181">
        <ele>503</ele>
        <time>2018-07-01T08:12:55.000Z</time>
      </trkpt>
      <trkpt lat="47.23068" lon="6.72184">
        <ele>504</ele>
        <time>2018-07-01T08:12:56.000Z</time>
      </trkpt>
      <trkpt lat="47.23068" lon="6.72187">
        <ele>504</ele>
        <time>2018-07-01T08:12:57.000Z</time>
      </trkpt>
      <trkpt lat="47.23068" lon="6.72191">
        <ele>504</ele>
        <time>2018-07-01T08:12:58.000Z</time>
      </trkpt>
      <trkpt lat="47.23069" lon="6.72194">
        <ele>505</ele>
        <time>2018-07-01T08:12:59.000Z</time>
      </trkpt>
      <trkpt lat="47.2307" lon="6.72197">
        <ele>505</ele>
        <time>2018-07-01T08:13:00.000Z</time>
      </trkpt>
      <trkpt lat="47.2307" lon="6.722">
        <ele>505</ele>
        <time>2018-07-01T08:13:01.000Z</time>
      </trkpt>
      <trkpt lat="47.23071" lon="6.72203">
        <ele>505</ele>
        <time>2018-07-01T08:13:02.000Z</time>
      </trkpt>
      <trkpt lat="47.23071" lon="6.72206">
        <ele>505</ele>
        <time>2018-07-01T08:13:03.000Z</time>
      </trkpt>
      <trkpt lat="47.23071" lon="6.72209">
        <ele>505</ele>
        <time>2018-07-01T08:13:04.000Z</time>
      </trkpt>
      <trkpt lat="47.23072" lon="6.72212">
        <ele>505</ele>
        <time>2018-07-01T08:13:05.000Z</time>
      </trkpt>
      <trkpt lat="47.23072" lon="6.72215">
        <ele>505</ele>
        <time>2018-07-01T08:13:06.000Z</time>
      </trkpt>
      <trkpt lat="47.23072" lon="6.72218">
        <ele>505</ele>
        <time>2018-07-01T08:13:07.000Z</time>
      </trkpt>
      <trkpt lat="47.23072" lon="6.72221">
        <ele>505</ele>
        <time>2018-07-01T08:13:08.000Z</time>
      </trkpt>
      <trkpt lat="47.23073" lon="6.72224">
        <ele>505</ele>
        <time>2018-07-01T08:13:09.000Z</time>
      </trkpt>
      <trkpt lat="47.23073" lon="6.72227">
        <ele>505</ele>
        <time>2018-07-01T08:13:10.000Z</time>
      </trkpt>
      <trkpt lat="47.23072" lon="6.7223">
        <ele>504</ele>
        <time>2018-07-01T08:13:11.000Z</time>
      </trkpt>
      <trkpt lat="47.23072" lon="6.72233">
        <ele>504</ele>
        <time>2018-07-01T08:13:12.000Z</time>
      </trkpt>
      <trkpt lat="47.23072" lon="6.72237">
        <ele>504</ele>
        <time>2018-07-01T08:13:13.000Z</time>
      </trkpt>
      <trkpt lat="47.23071" lon="6.7224">
        <ele>503</ele>
        <time>2018-07-01T08:13:14.000Z</time>
      </trkpt>
      <trkpt lat="47.23071" lon="6.72244">
        <ele>503</ele>
        <time>2018-07-01T08:13:15.000Z</time>
      </trkpt>
      <trkpt lat="47.2307" lon="6.72247">
        <ele>503</ele>
        <time>2018-07-01T08:13:16.000Z</time>
      </trkpt>
      <trkpt lat="47.2307" lon="6.72251">
        <ele>505</ele>
        <time>2018-07-01T08:13:17.000Z</time>
      </trkpt>
      <trkpt lat="47.23069" lon="6.72254">
        <ele>505</ele>
        <time>2018-07-01T08:13:18.000Z</time>
      </trkpt>
      <trkpt lat="47.23068" lon="6.72258">
        <ele>506</ele>
        <time>2018-07-01T08:13:19.000Z</time>
      </trkpt>
      <trkpt lat="47.23068" lon="6.72262">
        <ele>507</ele>
        <time>2018-07-01T08:13:20.000Z</time>
      </trkpt>
      <trkpt lat="47.23067" lon="6.72266">
        <ele>508</ele>
        <time>2018-07-01T08:13:21.000Z</time>
      </trkpt>
      <trkpt lat="47.23067" lon="6.7227">
        <ele>508</ele>
        <time>2018-07-01T08:13:22.000Z</time>
      </trkpt>
      <trkpt lat="47.23066" lon="6.72273">
        <ele>509</ele>
        <time>2018-07-01T08:13:23.000Z</time>
      </trkpt>
      <trkpt lat="47.23066" lon="6.72276">
        <ele>510</ele>
        <time>2018-07-01T08:13:24.000Z</time>
      </trkpt>
      <trkpt lat="47.23066" lon="6.7228">
        <ele>510</ele>
        <time>2018-07-01T08:13:25.000Z</time>
      </trkpt>
      <trkpt lat="47.23065" lon="6.72283">
        <ele>511</ele>
        <time>2018-07-01T08:13:26.000Z</time>
      </trkpt>
      <trkpt lat="47.23065" lon="6.72287">
        <ele>511</ele>
        <time>2018-07-01T08:13:27.000Z</time>
      </trkpt>
      <trkpt lat="47.23065" lon="6.7229">
        <ele>511</ele>
        <time>2018-07-01T08:13:28.000Z</time>
      </trkpt>
      <trkpt lat="47.23065" lon="6.72293">
        <ele>511</ele>
        <time>2018-07-01T08:13:29.000Z</time>
      </trkpt>
      <trkpt lat="47.23066" lon="6.72297">
        <ele>512</ele>
        <time>2018-07-01T08:13:30.000Z</time>
      </trkpt>
      <trkpt lat="47.23066" lon="6.723">
        <ele>512</ele>
        <time>2018-07-01T08:13:31.000Z</time>
      </trkpt>
      <trkpt lat="47.23066" lon="6.72303">
        <ele>512</ele>
        <time>2018-07-01T08:13:32.000Z</time>
      </trkpt>
      <trkpt lat="47.23067" lon="6.72306">
        <ele>512</ele>
        <time>2018-07-01T08:13:33.000Z</time>
      </trkpt>
      <trkpt lat="47.23067" lon="6.72309">
        <ele>512</ele>
        <time>2018-07-01T08:13:34.000Z</time>
      </trkpt>
      <trkpt lat="47.23068" lon="6.72312">
        <ele>512</ele>
        <time>2018-07-01T08:13:35.000Z</time>
      </trkpt>
      <trkpt lat="47.23068" lon="6.72316">
        <ele>512</ele>
        <time>2018-07-01T08:13:36.000Z</time>
      </trkpt>
      <trkpt lat="47.23068" lon="6.72319">
        <ele>512</ele>
        <time>2018-07-01T08:13:37.000Z</time>
      </trkpt>
      <trkpt lat="47.23068" lon="6.72322">
        <ele>512</ele>
        <time>2018-07-01T08:13:38.000Z</time>
      </trkpt>
      <trkpt lat="47.23067" lon="6.72325">
        <ele>512</ele>
        <time>2018-07-01T08:13:39.000Z</time>
      </trkpt>
      <trkpt lat="47.23067" lon="6.72328">
        <ele>512</ele>
        <time>2018-07-01T08:13:40.000Z</time>
      </trkpt>
      <trkpt lat="47.23067" lon="6.72332">
        <ele>512</ele>
        <time>2018-07-01T08:13:41.000Z</time>
      </trkpt>
      <trkpt lat="47.23066" lon="6.72336">
        <ele>516</ele>
        <time>2018-07-01T08:13:42.000Z</time>
      </trkpt>
      <trkpt lat="47.23066" lon="6.7234">
        <ele>516</ele>
        <time>2018-07-01T08:13:43.000Z</time>
      </trkpt>
      <trkpt lat="47.23066" lon="6.72344">
        <ele>517</ele>
        <time>2018-07-01T08:13:44.000Z</time>
      </trkpt>
      <trkpt lat="47.23066" lon="6.72347">
        <ele>518</ele>
        <time>2018-07-01T08:13:45.000Z</time>
      </trkpt>
      <trkpt lat="47.23065" lon="6.72351">
        <ele>518</ele>
        <time>2018-07-01T08:13:46.000Z</time>
      </trkpt>
      <trkpt lat="47.23065" lon="6.72354">
        <ele>519</ele>
        <time>2018-07-01T08:13:47.000Z</time>
      </trkpt>
      <trkpt lat="47.23064" lon="6.72358">
        <ele>519</ele>
        <time>2018-07-01T08:13:48.000Z</time>
      </trkpt>
      <trkpt lat="47.23063" lon="6.72362">
        <ele>520</ele>
        <time>2018-07-01T08:13:49.000Z</time>
      </trkpt>
      <trkpt lat="47.23062" lon="6.72365">
        <ele>520</ele>
        <time>2018-07-01T08:13:50.000Z</time>
      </trkpt>
      <trkpt lat="47.23061" lon="6.72368">
        <ele>521</ele>
        <time>2018-07-01T08:13:51.000Z</time>
      </trkpt>
      <trkpt lat="47.23061" lon="6.72372">
        <ele>521</ele>
        <time>2018-07-01T08:13:52.000Z</time>
      </trkpt>
      <trkpt lat="47.2306" lon="6.72375">
        <ele>522</ele>
        <time>2018-07-01T08:13:53.000Z</time>
      </trkpt>
      <trkpt lat="47.23059" lon="6.72378">
        <ele>522</ele>
        <time>2018-07-01T08:13:54.000Z</time>
      </trkpt>
      <trkpt lat="47.23058" lon="6.72381">
        <ele>522</ele>
        <time>2018-07-01T08:13:55.000Z</time>
      </trkpt>
      <trkpt lat="47.23057" lon="6.72384">
        <ele>523</ele>
        <time>2018-07-01T08:13:56.000Z</time>
      </trkpt>
      <trkpt lat="47.23057" lon="6.72387">
        <ele>523</ele>
        <time>2018-07-01T08:13:57.000Z</time>
      </trkpt>
      <trkpt lat="47.23056" lon="6.7239">
        <ele>523</ele>
        <time>2018-07-01T08:13:58.000Z</time>
      </trkpt>
      <trkpt lat="47.23055" lon="6.72392">
        <ele>523</ele>
        <time>2018-07-01T08:13:59.000Z</time>
      </trkpt>
      <trkpt lat="47.23053" lon="6.72395">
        <ele>524</ele>
        <time>2018-07-01T08:14:00.000Z</time>
      </trkpt>
      <trkpt lat="47.23052" lon="6.72397">
        <ele>524</ele>
        <time>2018-07-01T08:14:01.000Z</time>
      </trkpt>
      <trkpt lat="47.23051" lon="6.724">
        <ele>524</ele>
        <time>2018-07-01T08:14:02.000Z</time>
      </trkpt>
      <trkpt lat="47.23049" lon="6.72404">
        <ele>524</ele>
        <time>2018-07-01T08:14:03.000Z</time>
      </trkpt>
      <trkpt lat="47.23048" lon="6.72407">
        <ele>524</ele>
        <time>2018-07-01T08:14:04.000Z</time>
      </trkpt>
      <trkpt lat="47.23047" lon="6.7241">
        <ele>524</ele>
        <time>2018-07-01T08:14:05.000Z</time>
      </trkpt>
      <trkpt lat="47.23046" lon="6.72412">
        <ele>524</ele>
        <time>2018-07-01T08:14:06.000Z</time>
      </trkpt>
      <trkpt lat="47.23044" lon="6.72415">
        <ele>524</ele>
        <time>2018-07-01T08:14:07.000Z</time>
      </trkpt>
      <trkpt lat="47.23043" lon="6.72418">
        <ele>530</ele>
        <time>2018-07-01T08:14:08.000Z</time>
      </trkpt>
      <trkpt lat="47.23042" lon="6.7242">
        <ele>530</ele>
        <time>2018-07-01T08:14:09.000Z</time>
      </trkpt>
      <trkpt lat="47.23041" lon="6.72423">
        <ele>530</ele>
        <time>2018-07-01T08:14:10.000Z</time>
      </trkpt>
      <trkpt lat="47.2304" lon="6.72425">
        <ele>530</ele>
        <time>2018-07-01T08:14:11.000Z</time>
      </trkpt>
      <trkpt lat="47.23039" lon="6.72428">
        <ele>530</ele>
        <time>2018-07-01T08:14:12.000Z</time>
      </trkpt>
      <trkpt lat="47.23039" lon="6.72431">
        <ele>530</ele>
        <time>2018-07-01T08:14:13.000Z</time>
      </trkpt>
      <trkpt lat="47.23038" lon="6.72434">
        <ele>530</ele>
        <time>2018-07-01T08:14:14.000Z</time>
      </trkpt>
      <trkpt lat="47.23038" lon="6.72437">
        <ele>530</ele>
        <time>2018-07-01T08:14:15.000Z</time>
      </trkpt>
      <trkpt lat="47.23037" lon="6.72439">
        <ele>530</ele>
        <time>2018-07-01T08:14:16.000Z</time>
      </trkpt>
      <trkpt lat="47.23037" lon="6.72442">
        <ele>530</ele>
        <time>2018-07-01T08:14:17.000Z</time>
      </trkpt>
      <trkpt lat="47.23036" lon="6.72445">
        <ele>530</ele>
        <time>2018-07-01T08:14:18.000Z</time>
      </trkpt>
      <trkpt lat="47.23036" lon="6.72448">
        <ele>530</ele>
        <time>2018-07-01T08:14:19.000Z</time>
      </trkpt>
      <trkpt lat="47.23036" lon="6.72451">
        <ele>531</ele>
        <time>2018-07-01T08:14:20.000Z</time>
      </trkpt>
      <trkpt lat="47.23035" lon="6.72454">
        <ele>531</ele>
        <time>2018-07-01T08:14:21.000Z</time>
      </trkpt>
      <trkpt lat="47.23033" lon="6.72458">
        <ele>531</ele>
        <time>2018-07-01T08:14:22.000Z</time>
      </trkpt>
      <trkpt lat="47.23032" lon="6.72461">
        <ele>531</ele>
        <time>2018-07-01T08:14:23.000Z</time>
      </trkpt>
      <trkpt lat="47.23031" lon="6.72465">
        <ele>531</ele>
        <time>2018-07-01T08:14:24.000Z</time>
      </trkpt>
      <trkpt lat="47.23029" lon="6.72469">
        <ele>531</ele>
        <time>2018-07-01T08:14:25.000Z</time>
      </trkpt>
      <trkpt lat="47.23027" lon="6.72472">
        <ele>530</ele>
        <time>2018-07-01T08:14:26.000Z</time>
      </trkpt>
      <trkpt lat="47.23025" lon="6.72475">
        <ele>530</ele>
        <time>2018-07-01T08:14:27.000Z</time>
      </trkpt>
      <trkpt lat="47.23023" lon="6.72479">
        <ele>530</ele>
        <time>2018-07-01T08:14:28.000Z</time>
      </trkpt>
      <trkpt lat="47.23021" lon="6.72482">
        <ele>530</ele>
        <time>2018-07-01T08:14:29.000Z</time>
      </trkpt>
      <trkpt lat="47.23019" lon="6.72485">
        <ele>529</ele>
        <time>2018-07-01T08:14:30.000Z</time>
      </trkpt>
      <trkpt lat="47.23017" lon="6.72488">
        <ele>529</ele>
        <time>2018-07-01T08:14:31.000Z</time>
      </trkpt>
      <trkpt lat="47.23015" lon="6.72491">
        <ele>529</ele>
        <time>2018-07-01T08:14:32.000Z</time>
      </trkpt>
      <trkpt lat="47.23013" lon="6.72494">
        <ele>528</ele>
        <time>2018-07-01T08:14:33.000Z</time>
      </trkpt>
      <trkpt lat="47.23011" lon="6.72497">
        <ele>528</ele>
        <time>2018-07-01T08:14:34.000Z</time>
      </trkpt>
      <trkpt lat="47.2301" lon="6.725">
        <ele>527</ele>
        <time>2018-07-01T08:14:35.000Z</time>
      </trkpt>
      <trkpt lat="47.23008" lon="6.72503">
        <ele>530</ele>
        <time>2018-07-01T08:14:36.000Z</time>
      </trkpt>
      <trkpt lat="47.23007" lon="6.72506">
        <ele>531</ele>
        <time>2018-07-01T08:14:37.000Z</time>
      </trkpt>
      <trkpt lat="47.23005" lon="6.72509">
        <ele>531</ele>
        <time>2018-07-01T08:14:38.000Z</time>
      </trkpt>
      <trkpt lat="47.23003" lon="6.72512">
        <ele>532</ele>
        <time>2018-07-01T08:14:39.000Z</time>
      </trkpt>
      <trkpt lat="47.23001" lon="6.72515">
        <ele>533</ele>
        <time>2018-07-01T08:14:40.000Z</time>
      </trkpt>
      <trkpt lat="47.23" lon="6.72518">
        <ele>532</ele>
        <time>2018-07-01T08:14:41.000Z</time>
      </trkpt>
      <trkpt lat="47.22998" lon="6.72521">
        <ele>533</ele>
        <time>2018-07-01T08:14:42.000Z</time>
      </trkpt>
      <trkpt lat="47.22996" lon="6.72524">
        <ele>534</ele>
        <time>2018-07-01T08:14:43.000Z</time>
      </trkpt>
      <trkpt lat="47.22995" lon="6.72526">
        <ele>534</ele>
        <time>2018-07-01T08:14:44.000Z</time>
      </trkpt>
      <trkpt lat="47.22993" lon="6.72529">
        <ele>535</ele>
        <time>2018-07-01T08:14:45.000Z</time>
      </trkpt>
      <trkpt lat="47.22991" lon="6.72532">
        <ele>536</ele>
        <time>2018-07-01T08:14:46.000Z</time>
      </trkpt>
      <trkpt lat="47.22989" lon="6.72535">
        <ele>536</ele>
        <time>2018-07-01T08:14:47.000Z</time>
      </trkpt>
      <trkpt lat="47.22988" lon="6.72537">
        <ele>536</ele>
        <time>2018-07-01T08:14:48.000Z</time>
      </trkpt>
      <trkpt lat="47.22986" lon="6.72539">
        <ele>537</ele>
        <time>2018-07-01T08:14:49.000Z</time>
      </trkpt>
      <trkpt lat="47.22984" lon="6.72542">
        <ele>537</ele>
        <time>2018-07-01T08:14:50.000Z</time>
      </trkpt>
      <trkpt lat="47.22983" lon="6.72544">
        <ele>537</ele>
        <time>2018-07-01T08:14:51.000Z</time>
      </trkpt>
      <trkpt lat="47.22981" lon="6.72547">
        <ele>538</ele>
        <time>2018-07-01T08:14:52.000Z</time>
      </trkpt>
      <trkpt lat="47.2298" lon="6.72549">
        <ele>538</ele>
        <time>2018-07-01T08:14:53.000Z</time>
      </trkpt>
      <trkpt lat="47.22979" lon="6.72552">
        <ele>538</ele>
        <time>2018-07-01T08:14:54.000Z</time>
      </trkpt>
      <trkpt lat="47.22978" lon="6.72554">
        <ele>538</ele>
        <time>2018-07-01T08:14:55.000Z</time>
      </trkpt>
      <trkpt lat="47.22976" lon="6.72557">
        <ele>538</ele>
        <time>2018-07-01T08:14:56.000Z</time>
      </trkpt>
      <trkpt lat="47.22975" lon="6.72559">
        <ele>538</ele>
        <time>2018-07-01T08:14:57.000Z</time>
      </trkpt>
      <trkpt lat="47.22973" lon="6.72562">
        <ele>539</ele>
        <time>2018-07-01T08:14:58.000Z</time>
      </trkpt>
      <trkpt lat="47.22972" lon="6.72565">
        <ele>539</ele>
        <time>2018-07-01T08:14:59.000Z</time>
      </trkpt>
      <trkpt lat="47.22971" lon="6.72567">
        <ele>539</ele>
        <time>2018-07-01T08:15:00.000Z</time>
      </trkpt>
      <trkpt lat="47.22969" lon="6.7257">
        <ele>539</ele>
        <time>2018-07-01T08:15:01.000Z</time>
      </trkpt>
      <trkpt lat="47.22968" lon="6.72573">
        <ele>539</ele>
        <time>2018-07-01T08:15:02.000Z</time>
      </trkpt>
      <trkpt lat="47.22967" lon="6.72575">
        <ele>539</ele>
        <time>2018-07-01T08:15:03.000Z</time>
      </trkpt>
      <trkpt lat="47.22966" lon="6.72577">
        <ele>539</ele>
        <time>2018-07-01T08:15:04.000Z</time>
      </trkpt>
      <trkpt lat="47.22964" lon="6.7258">
        <ele>539</ele>
        <time>2018-07-01T08:15:05.000Z</time>
      </trkpt>
      <trkpt lat="47.22963" lon="6.72582">
        <ele>539</ele>
        <time>2018-07-01T08:15:06.000Z</time>
      </trkpt>
      <trkpt lat="47.22962" lon="6.72585">
        <ele>545</ele>
        <time>2018-07-01T08:15:07.000Z</time>
      </trkpt>
      <trkpt lat="47.22961" lon="6.72588">
        <ele>545</ele>
        <time>2018-07-01T08:15:08.000Z</time>
      </trkpt>
      <trkpt lat="47.2296" lon="6.7259">
        <ele>545</ele>
        <time>2018-07-01T08:15:09.000Z</time>
      </trkpt>
      <trkpt lat="47.22959" lon="6.72593">
        <ele>546</ele>
        <time>2018-07-01T08:15:10.000Z</time>
      </trkpt>
      <trkpt lat="47.22958" lon="6.72595">
        <ele>546</ele>
        <time>2018-07-01T08:15:11.000Z</time>
      </trkpt>
      <trkpt lat="47.22957" lon="6.72598">
        <ele>546</ele>
        <time>2018-07-01T08:15:12.000Z</time>
      </trkpt>
      <trkpt lat="47.22956" lon="6.726">
        <ele>546</ele>
        <time>2018-07-01T08:15:13.000Z</time>
      </trkpt>
      <trkpt lat="47.22955" lon="6.72603">
        <ele>546</ele>
        <time>2018-07-01T08:15:14.000Z</time>
      </trkpt>
      <trkpt lat="47.22954" lon="6.72605">
        <ele>546</ele>
        <time>2018-07-01T08:15:15.000Z</time>
      </trkpt>
      <trkpt lat="47.22953" lon="6.72608">
        <ele>546</ele>
        <time>2018-07-01T08:15:16.000Z</time>
      </trkpt>
      <trkpt lat="47.22952" lon="6.72611">
        <ele>547</ele>
        <time>2018-07-01T08:15:17.000Z</time>
      </trkpt>
      <trkpt lat="47.22951" lon="6.72613">
        <ele>547</ele>
        <time>2018-07-01T08:15:18.000Z</time>
      </trkpt>
      <trkpt lat="47.2295" lon="6.72616">
        <ele>547</ele>
        <time>2018-07-01T08:15:19.000Z</time>
      </trkpt>
      <trkpt lat="47.22949" lon="6.72618">
        <ele>547</ele>
        <time>2018-07-01T08:15:20.000Z</time>
      </trkpt>
      <trkpt lat="47.22948" lon="6.72621">
        <ele>547</ele>
        <time>2018-07-01T08:15:21.000Z</time>
      </trkpt>
      <trkpt lat="47.22947" lon="6.72623">
        <ele>547</ele>
        <time>2018-07-01T08:15:22.000Z</time>
      </trkpt>
      <trkpt lat="47.22946" lon="6.72624">
        <ele>548</ele>
        <time>2018-07-01T08:15:23.000Z</time>
      </trkpt>
      <trkpt lat="47.22944" lon="6.72626">
        <ele>548</ele>
        <time>2018-07-01T08:15:24.000Z</time>
      </trkpt>
      <trkpt lat="47.22943" lon="6.72628">
        <ele>548</ele>
        <time>2018-07-01T08:15:25.000Z</time>
      </trkpt>
      <trkpt lat="47.22942" lon="6.7263">
        <ele>548</ele>
        <time>2018-07-01T08:15:26.000Z</time>
      </trkpt>
      <trkpt lat="47.2294" lon="6.72631">
        <ele>548</ele>
        <time>2018-07-01T08:15:27.000Z</time>
      </trkpt>
      <trkpt lat="47.22939" lon="6.72633">
        <ele>548</ele>
        <time>2018-07-01T08:15:28.000Z</time>
      </trkpt>
      <trkpt lat="47.22937" lon="6.72634">
        <ele>548</ele>
        <time>2018-07-01T08:15:29.000Z</time>
      </trkpt>
      <trkpt lat="47.22935" lon="6.72636">
        <ele>548</ele>
        <time>2018-07-01T08:15:30.000Z</time>
      </trkpt>
      <trkpt lat="47.22934" lon="6.72637">
        <ele>548</ele>
        <time>2018-07-01T08:15:31.000Z</time>
      </trkpt>
      <trkpt lat="47.22932" lon="6.72639">
        <ele>548</ele>
        <time>2018-07-01T08:15:32.000Z</time>
      </trkpt>
      <trkpt lat="47.2293" lon="6.7264">
        <ele>548</ele>
        <time>2018-07-01T08:15:33.000Z</time>
      </trkpt>
      <trkpt lat="47.22928" lon="6.72642">
        <ele>548</ele>
        <time>2018-07-01T08:15:34.000Z</time>
      </trkpt>
      <trkpt lat="47.22927" lon="6.72643">
        <ele>548</ele>
        <time>2018-07-01T08:15:35.000Z</time>
      </trkpt>
      <trkpt lat="47.22925" lon="6.72644">
        <ele>548</ele>
        <time>2018-07-01T08:15:36.000Z</time>
      </trkpt>
      <trkpt lat="47.22923" lon="6.72645">
        <ele>548</ele>
        <time>2018-07-01T08:15:37.000Z</time>
      </trkpt>
      <trkpt lat="47.22922" lon="6.72646">
        <ele>548</ele>
        <time>2018-07-01T08:15:38.000Z</time>
      </trkpt>
      <trkpt lat="47.2292" lon="6.72648">
        <ele>548</ele>
        <time>2018-07-01T08:15:39.000Z</time>
      </trkpt>
      <trkpt lat="47.22918" lon="6.72649">
        <ele>548</ele>
        <time>2018-07-01T08:15:40.000Z</time>
      </trkpt>
      <trkpt lat="47.22916" lon="6.7265">
        <ele>551</ele>
        <time>2018-07-01T08:15:41.000Z</time>
      </trkpt>
      <trkpt lat="47.22914" lon="6.72651">
        <ele>551</ele>
        <time>2018-07-01T08:15:42.000Z</time>
      </trkpt>
      <trkpt lat="47.22912" lon="6.72652">
        <ele>551</ele>
        <time>2018-07-01T08:15:43.000Z</time>
      </trkpt>
      <trkpt lat="47.2291" lon="6.72652">
        <ele>551</ele>
        <time>2018-07-01T08:15:44.000Z</time>
      </trkpt>
      <trkpt lat="47.22907" lon="6.72653">
        <ele>552</ele>
        <time>2018-07-01T08:15:45.000Z</time>
      </trkpt>
      <trkpt lat="47.22905" lon="6.72654">
        <ele>552</ele>
        <time>2018-07-01T08:15:46.000Z</time>
      </trkpt>
      <trkpt lat="47.22902" lon="6.72655">
        <ele>552</ele>
        <time>2018-07-01T08:15:47.000Z</time>
      </trkpt>
      <trkpt lat="47.229" lon="6.72656">
        <ele>553</ele>
        <time>2018-07-01T08:15:48.000Z</time>
      </trkpt>
      <trkpt lat="47.22898" lon="6.72657">
        <ele>553</ele>
        <time>2018-07-01T08:15:49.000Z</time>
      </trkpt>
      <trkpt lat="47.22895" lon="6.72658">
        <ele>553</ele>
        <time>2018-07-01T08:15:50.000Z</time>
      </trkpt>
      <trkpt lat="47.22893" lon="6.7266">
        <ele>554</ele>
        <time>2018-07-01T08:15:51.000Z</time>
      </trkpt>
      <trkpt lat="47.22891" lon="6.72661">
        <ele>554</ele>
        <time>2018-07-01T08:15:52.000Z</time>
      </trkpt>
      <trkpt lat="47.22889" lon="6.72663">
        <ele>554</ele>
        <time>2018-07-01T08:15:53.000Z</time>
      </trkpt>
      <trkpt lat="47.22887" lon="6.72665">
        <ele>555</ele>
        <time>2018-07-01T08:15:54.000Z</time>
      </trkpt>
      <trkpt lat="47.22886" lon="6.72667">
        <ele>557</ele>
        <time>2018-07-01T08:15:55.000Z</time>
      </trkpt>
      <trkpt lat="47.22884" lon="6.72668">
        <ele>557</ele>
        <time>2018-07-01T08:15:56.000Z</time>
      </trkpt>
      <trkpt lat="47.22883" lon="6.72669">
        <ele>558</ele>
        <time>2018-07-01T08:15:57.000Z</time>
      </trkpt>
      <trkpt lat="47.22882" lon="6.72671">
        <ele>558</ele>
        <time>2018-07-01T08:15:58.000Z</time>
      </trkpt>
      <trkpt lat="47.22881" lon="6.72672">
        <ele>558</ele>
        <time>2018-07-01T08:15:59.000Z</time>
      </trkpt>
      <trkpt lat="47.2288" lon="6.72673">
        <ele>558</ele>
        <time>2018-07-01T08:16:00.000Z</time>
      </trkpt>
      <trkpt lat="47.22879" lon="6.72675">
        <ele>558</ele>
        <time>2018-07-01T08:16:01.000Z</time>
      </trkpt>
      <trkpt lat="47.22878" lon="6.72676">
        <ele>559</ele>
        <time>2018-07-01T08:16:02.000Z</time>
      </trkpt>
      <trkpt lat="47.22877" lon="6.72678">
        <ele>559</ele>
        <time>2018-07-01T08:16:03.000Z</time>
      </trkpt>
      <trkpt lat="47.22876" lon="6.7268">
        <ele>559</ele>
        <time>2018-07-01T08:16:04.000Z</time>
      </trkpt>
      <trkpt lat="47.22875" lon="6.72682">
        <ele>559</ele>
        <time>2018-07-01T08:16:05.000Z</time>
      </trkpt>
      <trkpt lat="47.22874" lon="6.72684">
        <ele>559</ele>
        <time>2018-07-01T08:16:06.000Z</time>
      </trkpt>
      <trkpt lat="47.22873" lon="6.72685">
        <ele>560</ele>
        <time>2018-07-01T08:16:07.000Z</time>
      </trkpt>
      <trkpt lat="47.22871" lon="6.72687">
        <ele>560</ele>
        <time>2018-07-01T08:16:08.000Z</time>
      </trkpt>
      <trkpt lat="47.2287" lon="6.72689">
        <ele>560</ele>
        <time>2018-07-01T08:16:09.000Z</time>
      </trkpt>
      <trkpt lat="47.22869" lon="6.72691">
        <ele>560</ele>
        <time>2018-07-01T08:16:10.000Z</time>
      </trkpt>
      <trkpt lat="47.22868" lon="6.72693">
        <ele>560</ele>
        <time>2018-07-01T08:16:11.000Z</time>
      </trkpt>
      <trkpt lat="47.22866" lon="6.72696">
        <ele>561</ele>
        <time>2018-07-01T08:16:12.000Z</time>
      </trkpt>
      <trkpt lat="47.22865" lon="6.72699">
        <ele>561</ele>
        <time>2018-07-01T08:16:13.000Z</time>
      </trkpt>
      <trkpt lat="47.22864" lon="6.72702">
        <ele>561</ele>
        <time>2018-07-01T08:16:14.000Z</time>
      </trkpt>
      <trkpt lat="47.22863" lon="6.72705">
        <ele>561</ele>
        <time>2018-07-01T08:16:15.000Z</time>
      </trkpt>
      <trkpt lat="47.22862" lon="6.72707">
        <ele>561</ele>
        <time>2018-07-01T08:16:16.000Z</time>
      </trkpt>
      <trkpt lat="47.22862" lon="6.72709">
        <ele>561</ele>
        <time>2018-07-01T08:16:17.000Z</time>
      </trkpt>
      <trkpt lat="47.22861" lon="6.72711">
        <ele>561</ele>
        <time>2018-07-01T08:16:18.000Z</time>
      </trkpt>
      <trkpt lat="47.2286" lon="6.72713">
        <ele>561</ele>
        <time>2018-07-01T08:16:19.000Z</time>
      </trkpt>
      <trkpt lat="47.2286" lon="6.72715">
        <ele>561</ele>
        <time>2018-07-01T08:16:20.000Z</time>
      </trkpt>
      <trkpt lat="47.22859" lon="6.72716">
        <ele>562</ele>
        <time>2018-07-01T08:16:21.000Z</time>
      </trkpt>
      <trkpt lat="47.22858" lon="6.72718">
        <ele>562</ele>
        <time>2018-07-01T08:16:22.000Z</time>
      </trkpt>
      <trkpt lat="47.22858" lon="6.7272">
        <ele>562</ele>
        <time>2018-07-01T08:16:23.000Z</time>
      </trkpt>
      <trkpt lat="47.22857" lon="6.72722">
        <ele>562</ele>
        <time>2018-07-01T08:16:24.000Z</time>
      </trkpt>
      <trkpt lat="47.22856" lon="6.72725">
        <ele>562</ele>
        <time>2018-07-01T08:16:25.000Z</time>
      </trkpt>
      <trkpt lat="47.22855" lon="6.72727">
        <ele>562</ele>
        <time>2018-07-01T08:16:26.000Z</time>
      </trkpt>
      <trkpt lat="47.22855" lon="6.72729">
        <ele>562</ele>
        <time>2018-07-01T08:16:27.000Z</time>
      </trkpt>
      <trkpt lat="47.22854" lon="6.72731">
        <ele>562</ele>
        <time>2018-07-01T08:16:28.000Z</time>
      </trkpt>
      <trkpt lat="47.22853" lon="6.72733">
        <ele>562</ele>
        <time>2018-07-01T08:16:29.000Z</time>
      </trkpt>
      <trkpt lat="47.22852" lon="6.72735">
        <ele>562</ele>
        <time>2018-07-01T08:16:30.000Z</time>
      </trkpt>
      <trkpt lat="47.22851" lon="6.72736">
        <ele>562</ele>
        <time>2018-07-01T08:16:31.000Z</time>
      </trkpt>
      <trkpt lat="47.2285" lon="6.72738">
        <ele>562</ele>
        <time>2018-07-01T08:16:32.000Z</time>
      </trkpt>
      <trkpt lat="47.22849" lon="6.7274">
        <ele>562</ele>
        <time>2018-07-01T08:16:33.000Z</time>
      </trkpt>
      <trkpt lat="47.22848" lon="6.72742">
        <ele>562</ele>
        <time>2018-07-01T08:16:34.000Z</time>
      </trkpt>
      <trkpt lat="47.22846" lon="6.72744">
        <ele>562</ele>
        <time>2018-07-01T08:16:35.000Z</time>
      </trkpt>
      <trkpt lat="47.22844" lon="6.72745">
        <ele>563</ele>
        <time>2018-07-01T08:16:36.000Z</time>
      </trkpt>
      <trkpt lat="47.22843" lon="6.72748">
        <ele>563</ele>
        <time>2018-07-01T08:16:37.000Z</time>
      </trkpt>
      <trkpt lat="47.22841" lon="6.72749">
        <ele>563</ele>
        <time>2018-07-01T08:16:38.000Z</time>
      </trkpt>
      <trkpt lat="47.2284" lon="6.72751">
        <ele>566</ele>
        <time>2018-07-01T08:16:39.000Z</time>
      </trkpt>
      <trkpt lat="47.22838" lon="6.72753">
        <ele>565</ele>
        <time>2018-07-01T08:16:40.000Z</time>
      </trkpt>
      <trkpt lat="47.22836" lon="6.72755">
        <ele>565</ele>
        <time>2018-07-01T08:16:41.000Z</time>
      </trkpt>
      <trkpt lat="47.22835" lon="6.72756">
        <ele>566</ele>
        <time>2018-07-01T08:16:42.000Z</time>
      </trkpt>
      <trkpt lat="47.22833" lon="6.72758">
        <ele>569</ele>
        <time>2018-07-01T08:16:43.000Z</time>
      </trkpt>
      <trkpt lat="47.22832" lon="6.72761">
        <ele>571</ele>
        <time>2018-07-01T08:16:44.000Z</time>
      </trkpt>
      <trkpt lat="47.22831" lon="6.72763">
        <ele>572</ele>
        <time>2018-07-01T08:16:45.000Z</time>
      </trkpt>
      <trkpt lat="47.2283" lon="6.72766">
        <ele>573</ele>
        <time>2018-07-01T08:16:46.000Z</time>
      </trkpt>
      <trkpt lat="47.22829" lon="6.72769">
        <ele>574</ele>
        <time>2018-07-01T08:16:47.000Z</time>
      </trkpt>
      <trkpt lat="47.22829" lon="6.72771">
        <ele>575</ele>
        <time>2018-07-01T08:16:48.000Z</time>
      </trkpt>
      <trkpt lat="47.22829" lon="6.72774">
        <ele>576</ele>
        <time>2018-07-01T08:16:49.000Z</time>
      </trkpt>
      <trkpt lat="47.22828" lon="6.72777">
        <ele>577</ele>
        <time>2018-07-01T08:16:50.000Z</time>
      </trkpt>
      <trkpt lat="47.22828" lon="6.7278">
        <ele>577</ele>
        <time>2018-07-01T08:16:51.000Z</time>
      </trkpt>
      <trkpt lat="47.22828" lon="6.72782">
        <ele>578</ele>
        <time>2018-07-01T08:16:52.000Z</time>
      </trkpt>
      <trkpt lat="47.22828" lon="6.72785">
        <ele>578</ele>
        <time>2018-07-01T08:16:53.000Z</time>
      </trkpt>
      <trkpt lat="47.22827" lon="6.72787">
        <ele>578</ele>
        <time>2018-07-01T08:16:54.000Z</time>
      </trkpt>
      <trkpt lat="47.22826" lon="6.7279">
        <ele>579</ele>
        <time>2018-07-01T08:16:55.000Z</time>
      </trkpt>
      <trkpt lat="47.22825" lon="6.72793">
        <ele>579</ele>
        <time>2018-07-01T08:16:56.000Z</time>
      </trkpt>
      <trkpt lat="47.22824" lon="6.72795">
        <ele>579</ele>
        <time>2018-07-01T08:16:57.000Z</time>
      </trkpt>
      <trkpt lat="47.22823" lon="6.72798">
        <ele>580</ele>
        <time>2018-07-01T08:16:58.000Z</time>
      </trkpt>
      <trkpt lat="47.22822" lon="6.728">
        <ele>580</ele>
        <time>2018-07-01T08:16:59.000Z</time>
      </trkpt>
      <trkpt lat="47.22821" lon="6.72802">
        <ele>580</ele>
        <time>2018-07-01T08:17:00.000Z</time>
      </trkpt>
      <trkpt lat="47.22821" lon="6.72804">
        <ele>580</ele>
        <time>2018-07-01T08:17:01.000Z</time>
      </trkpt>
      <trkpt lat="47.2282" lon="6.72806">
        <ele>580</ele>
        <time>2018-07-01T08:17:02.000Z</time>
      </trkpt>
      <trkpt lat="47.22819" lon="6.72807">
        <ele>580</ele>
        <time>2018-07-01T08:17:03.000Z</time>
      </trkpt>
      <trkpt lat="47.22818" lon="6.72809">
        <ele>580</ele>
        <time>2018-07-01T08:17:04.000Z</time>
      </trkpt>
      <trkpt lat="47.22817" lon="6.72811">
        <ele>580</ele>
        <time>2018-07-01T08:17:05.000Z</time>
      </trkpt>
      <trkpt lat="47.22816" lon="6.72814">
        <ele>580</ele>
        <time>2018-07-01T08:17:06.000Z</time>
      </trkpt>
      <trkpt lat="47.22816" lon="6.72816">
        <ele>580</ele>
        <time>2018-07-01T08:17:07.000Z</time>
      </trkpt>
      <trkpt lat="47.22817" lon="6.72818">
        <ele>580</ele>
        <time>2018-07-01T08:17:08.000Z</time>
      </trkpt>
      <trkpt lat="47.22817" lon="6.72821">
        <ele>579</ele>
        <time>2018-07-01T08:17:09.000Z</time>
      </trkpt>
      <trkpt lat="47.22817" lon="6.72824">
        <ele>579</ele>
        <time>2018-07-01T08:17:10.000Z</time>
      </trkpt>
      <trkpt lat="47.22817" lon="6.72826">
        <ele>579</ele>
        <time>2018-07-01T08:17:11.000Z</time>
      </trkpt>
      <trkpt lat="47.22817" lon="6.7283">
        <ele>579</ele>
        <time>2018-07-01T08:17:12.000Z</time>
      </trkpt>
      <trkpt lat="47.22816" lon="6.72833">
        <ele>579</ele>
        <time>2018-07-01T08:17:13.000Z</time>
      </trkpt>
      <trkpt lat="47.22817" lon="6.72836">
        <ele>580</ele>
        <time>2018-07-01T08:17:14.000Z</time>
      </trkpt>
      <trkpt lat="47.22817" lon="6.72838">
        <ele>581</ele>
        <time>2018-07-01T08:17:15.000Z</time>
      </trkpt>
      <trkpt lat="47.22817" lon="6.72841">
        <ele>581</ele>
        <time>2018-07-01T08:17:16.000Z</time>
      </trkpt>
      <trkpt lat="47.22816" lon="6.72843">
        <ele>581</ele>
        <time>2018-07-01T08:17:17.000Z</time>
      </trkpt>
      <trkpt lat="47.22816" lon="6.72846">
        <ele>582</ele>
        <time>2018-07-01T08:17:18.000Z</time>
      </trkpt>
      <trkpt lat="47.22816" lon="6.72848">
        <ele>582</ele>
        <time>2018-07-01T08:17:19.000Z</time>
      </trkpt>
      <trkpt lat="47.22816" lon="6.72851">
        <ele>583</ele>
        <time>2018-07-01T08:17:20.000Z</time>
      </trkpt>
      <trkpt lat="47.22816" lon="6.72853">
        <ele>583</ele>
        <time>2018-07-01T08:17:21.000Z</time>
      </trkpt>
      <trkpt lat="47.22816" lon="6.72856">
        <ele>583</ele>
        <time>2018-07-01T08:17:22.000Z</time>
      </trkpt>
      <trkpt lat="47.22816" lon="6.72858">
        <ele>584</ele>
        <time>2018-07-01T08:17:23.000Z</time>
      </trkpt>
      <trkpt lat="47.22816" lon="6.7286">
        <ele>584</ele>
        <time>2018-07-01T08:17:24.000Z</time>
      </trkpt>
      <trkpt lat="47.22815" lon="6.72863">
        <ele>584</ele>
        <time>2018-07-01T08:17:25.000Z</time>
      </trkpt>
      <trkpt lat="47.22815" lon="6.72866">
        <ele>585</ele>
        <time>2018-07-01T08:17:26.000Z</time>
      </trkpt>
      <trkpt lat="47.22815" lon="6.72869">
        <ele>585</ele>
        <time>2018-07-01T08:17:27.000Z</time>
      </trkpt>
      <trkpt lat="47.22814" lon="6.72871">
        <ele>585</ele>
        <time>2018-07-01T08:17:28.000Z</time>
      </trkpt>
      <trkpt lat="47.22814" lon="6.72874">
        <ele>585</ele>
        <time>2018-07-01T08:17:29.000Z</time>
      </trkpt>
      <trkpt lat="47.22813" lon="6.72877">
        <ele>586</ele>
        <time>2018-07-01T08:17:30.000Z</time>
      </trkpt>
      <trkpt lat="47.22813" lon="6.72879">
        <ele>586</ele>
        <time>2018-07-01T08:17:31.000Z</time>
      </trkpt>
      <trkpt lat="47.22812" lon="6.72882">
        <ele>586</ele>
        <time>2018-07-01T08:17:32.000Z</time>
      </trkpt>
      <trkpt lat="47.22812" lon="6.72885">
        <ele>586</ele>
        <time>2018-07-01T08:17:33.000Z</time>
      </trkpt>
      <trkpt lat="47.22811" lon="6.72887">
        <ele>586</ele>
        <time>2018-07-01T08:17:34.000Z</time>
      </trkpt>
      <trkpt lat="47.2281" lon="6.7289">
        <ele>586</ele>
        <time>2018-07-01T08:17:35.000Z</time>
      </trkpt>
      <trkpt lat="47.2281" lon="6.72892">
        <ele>586</ele>
        <time>2018-07-01T08:17:36.000Z</time>
      </trkpt>
      <trkpt lat="47.22809" lon="6.72895">
        <ele>586</ele>
        <time>2018-07-01T08:17:37.000Z</time>
      </trkpt>
      <trkpt lat="47.22809" lon="6.72897">
        <ele>586</ele>
        <time>2018-07-01T08:17:38.000Z</time>
      </trkpt>
      <trkpt lat="47.2281" lon="6.729">
        <ele>586</ele>
        <time>2018-07-01T08:17:39.000Z</time>
      </trkpt>
      <trkpt lat="47.2281" lon="6.72903">
        <ele>586</ele>
        <time>2018-07-01T08:17:40.000Z</time>
      </trkpt>
      <trkpt lat="47.2281" lon="6.72905">
        <ele>586</ele>
        <time>2018-07-01T08:17:41.000Z</time>
      </trkpt>
      <trkpt lat="47.22811" lon="6.72907">
        <ele>586</ele>
        <time>2018-07-01T08:17:42.000Z</time>
      </trkpt>
      <trkpt lat="47.22811" lon="6.7291">
        <ele>586</ele>
        <time>2018-07-01T08:17:43.000Z</time>
      </trkpt>
      <trkpt lat="47.22812" lon="6.72913">
        <ele>586</ele>
        <time>2018-07-01T08:17:44.000Z</time>
      </trkpt>
      <trkpt lat="47.22812" lon="6.72916">
        <ele>586</ele>
        <time>2018-07-01T08:17:45.000Z</time>
      </trkpt>
      <trkpt lat="47.22813" lon="6.72918">
        <ele>589</ele>
        <time>2018-07-01T08:17:46.000Z</time>
      </trkpt>
      <trkpt lat="47.22813" lon="6.72921">
        <ele>589</ele>
        <time>2018-07-01T08:17:47.000Z</time>
      </trkpt>
      <trkpt lat="47.22814" lon="6.72924">
        <ele>590</ele>
        <time>2018-07-01T08:17:48.000Z</time>
      </trkpt>
      <trkpt lat="47.22814" lon="6.72927">
        <ele>590</ele>
        <time>2018-07-01T08:17:49.000Z</time>
      </trkpt>
      <trkpt lat="47.22814" lon="6.7293">
        <ele>590</ele>
        <time>2018-07-01T08:17:50.000Z</time>
      </trkpt>
      <trkpt lat="47.22815" lon="6.72933">
        <ele>590</ele>
        <time>2018-07-01T08:17:51.000Z</time>
      </trkpt>
      <trkpt lat="47.22815" lon="6.72935">
        <ele>591</ele>
        <time>2018-07-01T08:17:52.000Z</time>
      </trkpt>
      <trkpt lat="47.22814" lon="6.72938">
        <ele>591</ele>
        <time>2018-07-01T08:17:53.000Z</time>
      </trkpt>
      <trkpt lat="47.22814" lon="6.72941">
        <ele>591</ele>
        <time>2018-07-01T08:17:54.000Z</time>
      </trkpt>
      <trkpt lat="47.22814" lon="6.72944">
        <ele>592</ele>
        <time>2018-07-01T08:17:55.000Z</time>
      </trkpt>
      <trkpt lat="47.22813" lon="6.72946">
        <ele>592</ele>
        <time>2018-07-01T08:17:56.000Z</time>
      </trkpt>
      <trkpt lat="47.22813" lon="6.72947">
        <ele>592</ele>
        <time>2018-07-01T08:17:57.000Z</time>
      </trkpt>
      <trkpt lat="47.22812" lon="6.72949">
        <ele>592</ele>
        <time>2018-07-01T08:17:58.000Z</time>
      </trkpt>
      <trkpt lat="47.22812" lon="6.72952">
        <ele>593</ele>
        <time>2018-07-01T08:17:59.000Z</time>
      </trkpt>
      <trkpt lat="47.22811" lon="6.72954">
        <ele>593</ele>
        <time>2018-07-01T08:18:00.000Z</time>
      </trkpt>
      <trkpt lat="47.22811" lon="6.72957">
        <ele>593</ele>
        <time>2018-07-01T08:18:01.000Z</time>
      </trkpt>
      <trkpt lat="47.22811" lon="6.72959">
        <ele>593</ele>
        <time>2018-07-01T08:18:02.000Z</time>
      </trkpt>
      <trkpt lat="47.2281" lon="6.72962">
        <ele>594</ele>
        <time>2018-07-01T08:18:03.000Z</time>
      </trkpt>
      <trkpt lat="47.22809" lon="6.72964">
        <ele>594</ele>
        <time>2018-07-01T08:18:04.000Z</time>
      </trkpt>
      <trkpt lat="47.22809" lon="6.72966">
        <ele>594</ele>
        <time>2018-07-01T08:18:05.000Z</time>
      </trkpt>
      <trkpt lat="47.22808" lon="6.72968">
        <ele>594</ele>
        <time>2018-07-01T08:18:06.000Z</time>
      </trkpt>
      <trkpt lat="47.22808" lon="6.72971">
        <ele>594</ele>
        <time>2018-07-01T08:18:07.000Z</time>
      </trkpt>
      <trkpt lat="47.22807" lon="6.72973">
        <ele>595</ele>
        <time>2018-07-01T08:18:08.000Z</time>
      </trkpt>
      <trkpt lat="47.22806" lon="6.72976">
        <ele>595</ele>
        <time>2018-07-01T08:18:09.000Z</time>
      </trkpt>
      <trkpt lat="47.22805" lon="6.72979">
        <ele>595</ele>
        <time>2018-07-01T08:18:10.000Z</time>
      </trkpt>
      <trkpt lat="47.22805" lon="6.72981">
        <ele>595</ele>
        <time>2018-07-01T08:18:11.000Z</time>
      </trkpt>
      <trkpt lat="47.22804" lon="6.72984">
        <ele>595</ele>
        <time>2018-07-01T08:18:12.000Z</time>
      </trkpt>
      <trkpt lat="47.22804" lon="6.72986">
        <ele>595</ele>
        <time>2018-07-01T08:18:13.000Z</time>
      </trkpt>
      <trkpt lat="47.22804" lon="6.72988">
        <ele>595</ele>
        <time>2018-07-01T08:18:14.000Z</time>
      </trkpt>
      <trkpt lat="47.22804" lon="6.72991">
        <ele>595</ele>
        <time>2018-07-01T08:18:15.000Z</time>
      </trkpt>
      <trkpt lat="47.22804" lon="6.72993">
        <ele>596</ele>
        <time>2018-07-01T08:18:16.000Z</time>
      </trkpt>
      <trkpt lat="47.22804" lon="6.72995">
        <ele>596</ele>
        <time>2018-07-01T08:18:17.000Z</time>
      </trkpt>
      <trkpt lat="47.22804" lon="6.72998">
        <ele>596</ele>
        <time>2018-07-01T08:18:18.000Z</time>
      </trkpt>
      <trkpt lat="47.22804" lon="6.73">
        <ele>601</ele>
        <time>2018-07-01T08:18:19.000Z</time>
      </trkpt>
      <trkpt lat="47.22804" lon="6.73003">
        <ele>601</ele>
        <time>2018-07-01T08:18:20.000Z</time>
      </trkpt>
      <trkpt lat="47.22805" lon="6.73005">
        <ele>602</ele>
        <time>2018-07-01T08:18:21.000Z</time>
      </trkpt>
      <trkpt lat="47.22805" lon="6.73008">
        <ele>602</ele>
        <time>2018-07-01T08:18:22.000Z</time>
      </trkpt>
      <trkpt lat="47.22806" lon="6.7301">
        <ele>602</ele>
        <time>2018-07-01T08:18:23.000Z</time>
      </trkpt>
      <trkpt lat="47.22807" lon="6.73012">
        <ele>602</ele>
        <time>2018-07-01T08:18:24.000Z</time>
      </trkpt>
      <trkpt lat="47.22808" lon="6.73014">
        <ele>602</ele>
        <time>2018-07-01T08:18:25.000Z</time>
      </trkpt>
      <trkpt lat="47.22808" lon="6.73016">
        <ele>602</ele>
        <time>2018-07-01T08:18:26.000Z</time>
      </trkpt>
      <trkpt lat="47.22809" lon="6.73019">
        <ele>602</ele>
        <time>2018-07-01T08:18:27.000Z</time>
      </trkpt>
      <trkpt lat="47.22811" lon="6.73021">
        <ele>602</ele>
        <time>2018-07-01T08:18:28.000Z</time>
      </trkpt>
      <trkpt lat="47.22812" lon="6.73024">
        <ele>602</ele>
        <time>2018-07-01T08:18:29.000Z</time>
      </trkpt>
      <trkpt lat="47.22813" lon="6.73027">
        <ele>602</ele>
        <time>2018-07-01T08:18:30.000Z</time>
      </trkpt>
      <trkpt lat="47.22813" lon="6.73029">
        <ele>603</ele>
        <time>2018-07-01T08:18:31.000Z</time>
      </trkpt>
      <trkpt lat="47.22814" lon="6.73032">
        <ele>603</ele>
        <time>2018-07-01T08:18:32.000Z</time>
      </trkpt>
      <trkpt lat="47.22814" lon="6.73035">
        <ele>603</ele>
        <time>2018-07-01T08:18:33.000Z</time>
      </trkpt>
      <trkpt lat="47.22814" lon="6.73038">
        <ele>603</ele>
        <time>2018-07-01T08:18:34.000Z</time>
      </trkpt>
      <trkpt lat="47.22814" lon="6.73041">
        <ele>604</ele>
        <time>2018-07-01T08:18:35.000Z</time>
      </trkpt>
      <trkpt lat="47.22814" lon="6.73044">
        <ele>604</ele>
        <time>2018-07-01T08:18:36.000Z</time>
      </trkpt>
      <trkpt lat="47.22814" lon="6.73047">
        <ele>604</ele>
        <time>2018-07-01T08:18:37.000Z</time>
      </trkpt>
      <trkpt lat="47.22814" lon="6.73049">
        <ele>604</ele>
        <time>2018-07-01T08:18:38.000Z</time>
      </trkpt>
      <trkpt lat="47.22815" lon="6.73052">
        <ele>604</ele>
        <time>2018-07-01T08:18:39.000Z</time>
      </trkpt>
      <trkpt lat="47.22815" lon="6.73055">
        <ele>605</ele>
        <time>2018-07-01T08:18:40.000Z</time>
      </trkpt>
      <trkpt lat="47.22815" lon="6.73057">
        <ele>605</ele>
        <time>2018-07-01T08:18:41.000Z</time>
      </trkpt>
      <trkpt lat="47.22815" lon="6.73059">
        <ele>605</ele>
        <time>2018-07-01T08:18:42.000Z</time>
      </trkpt>
      <trkpt lat="47.22815" lon="6.73061">
        <ele>605</ele>
        <time>2018-07-01T08:18:43.000Z</time>
      </trkpt>
      <trkpt lat="47.22815" lon="6.73064">
        <ele>605</ele>
        <time>2018-07-01T08:18:44.000Z</time>
      </trkpt>
      <trkpt lat="47.22815" lon="6.73066">
        <ele>605</ele>
        <time>2018-07-01T08:18:45.000Z</time>
      </trkpt>
      <trkpt lat="47.22815" lon="6.73069">
        <ele>606</ele>
        <time>2018-07-01T08:18:46.000Z</time>
      </trkpt>
      <trkpt lat="47.22815" lon="6.73071">
        <ele>606</ele>
        <time>2018-07-01T08:18:47.000Z</time>
      </trkpt>
      <trkpt lat="47.22814" lon="6.73074">
        <ele>606</ele>
        <time>2018-07-01T08:18:48.000Z</time>
      </trkpt>
      <trkpt lat="47.22814" lon="6.73077">
        <ele>606</ele>
        <time>2018-07-01T08:18:49.000Z</time>
      </trkpt>
      <trkpt lat="47.22814" lon="6.73079">
        <ele>606</ele>
        <time>2018-07-01T08:18:50.000Z</time>
      </trkpt>
      <trkpt lat="47.22814" lon="6.73082">
        <ele>606</ele>
        <time>2018-07-01T08:18:51.000Z</time>
      </trkpt>
      <trkpt lat="47.22813" lon="6.73084">
        <ele>611</ele>
        <time>2018-07-01T08:18:52.000Z</time>
      </trkpt>
      <trkpt lat="47.22813" lon="6.73087">
        <ele>611</ele>
        <time>2018-07-01T08:18:53.000Z</time>
      </trkpt>
      <trkpt lat="47.22812" lon="6.73089">
        <ele>612</ele>
        <time>2018-07-01T08:18:54.000Z</time>
      </trkpt>
      <trkpt lat="47.22811" lon="6.73092">
        <ele>612</ele>
        <time>2018-07-01T08:18:55.000Z</time>
      </trkpt>
      <trkpt lat="47.22811" lon="6.73094">
        <ele>612</ele>
        <time>2018-07-01T08:18:56.000Z</time>
      </trkpt>
      <trkpt lat="47.2281" lon="6.73097">
        <ele>612</ele>
        <time>2018-07-01T08:18:57.000Z</time>
      </trkpt>
      <trkpt lat="47.2281" lon="6.73099">
        <ele>612</ele>
        <time>2018-07-01T08:18:58.000Z</time>
      </trkpt>
      <trkpt lat="47.2281" lon="6.73101">
        <ele>612</ele>
        <time>2018-07-01T08:18:59.000Z</time>
      </trkpt>
      <trkpt lat="47.2281" lon="6.73103">
        <ele>613</ele>
        <time>2018-07-01T08:19:00.000Z</time>
      </trkpt>
      <trkpt lat="47.2281" lon="6.73105">
        <ele>613</ele>
        <time>2018-07-01T08:19:01.000Z</time>
      </trkpt>
      <trkpt lat="47.22809" lon="6.73107">
        <ele>613</ele>
        <time>2018-07-01T08:19:02.000Z</time>
      </trkpt>
      <trkpt lat="47.22809" lon="6.7311">
        <ele>613</ele>
        <time>2018-07-01T08:19:03.000Z</time>
      </trkpt>
      <trkpt lat="47.22808" lon="6.73112">
        <ele>613</ele>
        <time>2018-07-01T08:19:04.000Z</time>
      </trkpt>
      <trkpt lat="47.22808" lon="6.73114">
        <ele>613</ele>
        <time>2018-07-01T08:19:05.000Z</time>
      </trkpt>
      <trkpt lat="47.22808" lon="6.73116">
        <ele>614</ele>
        <time>2018-07-01T08:19:06.000Z</time>
      </trkpt>
      <trkpt lat="47.22807" lon="6.73119">
        <ele>614</ele>
        <time>2018-07-01T08:19:07.000Z</time>
      </trkpt>
      <trkpt lat="47.22808" lon="6.73121">
        <ele>614</ele>
        <time>2018-07-01T08:19:08.000Z</time>
      </trkpt>
      <trkpt lat="47.22808" lon="6.73123">
        <ele>614</ele>
        <time>2018-07-01T08:19:09.000Z</time>
      </trkpt>
      <trkpt lat="47.22808" lon="6.73126">
        <ele>614</ele>
        <time>2018-07-01T08:19:10.000Z</time>
      </trkpt>
      <trkpt lat="47.22808" lon="6.73128">
        <ele>615</ele>
        <time>2018-07-01T08:19:11.000Z</time>
      </trkpt>
      <trkpt lat="47.22808" lon="6.7313">
        <ele>615</ele>
        <time>2018-07-01T08:19:12.000Z</time>
      </trkpt>
      <trkpt lat="47.22808" lon="6.73132">
        <ele>615</ele>
        <time>2018-07-01T08:19:13.000Z</time>
      </trkpt>
      <trkpt lat="47.22808" lon="6.73134">
        <ele>615</ele>
        <time>2018-07-01T08:19:14.000Z</time>
      </trkpt>
      <trkpt lat="47.22808" lon="6.73136">
        <ele>615</ele>
        <time>2018-07-01T08:19:15.000Z</time>
      </trkpt>
      <trkpt lat="47.22807" lon="6.73138">
        <ele>615</ele>
        <time>2018-07-01T08:19:16.000Z</time>
      </trkpt>
      <trkpt lat="47.22807" lon="6.7314">
        <ele>616</ele>
        <time>2018-07-01T08:19:17.000Z</time>
      </trkpt>
      <trkpt lat="47.22807" lon="6.73143">
        <ele>616</ele>
        <time>2018-07-01T08:19:18.000Z</time>
      </trkpt>
      <trkpt lat="47.22806" lon="6.73145">
        <ele>616</ele>
        <time>2018-07-01T08:19:19.000Z</time>
      </trkpt>
      <trkpt lat="47.22806" lon="6.73147">
        <ele>616</ele>
        <time>2018-07-01T08:19:20.000Z</time>
      </trkpt>
      <trkpt lat="47.22805" lon="6.7315">
        <ele>616</ele>
        <time>2018-07-01T08:19:21.000Z</time>
      </trkpt>
      <trkpt lat="47.22805" lon="6.73152">
        <ele>616</ele>
        <time>2018-07-01T08:19:22.000Z</time>
      </trkpt>
      <trkpt lat="47.22804" lon="6.73155">
        <ele>617</ele>
        <time>2018-07-01T08:19:23.000Z</time>
      </trkpt>
      <trkpt lat="47.22804" lon="6.73157">
        <ele>617</ele>
        <time>2018-07-01T08:19:24.000Z</time>
      </trkpt>
      <trkpt lat="47.22803" lon="6.7316">
        <ele>617</ele>
        <time>2018-07-01T08:19:25.000Z</time>
      </trkpt>
      <trkpt lat="47.22803" lon="6.73163">
        <ele>617</ele>
        <time>2018-07-01T08:19:26.000Z</time>
      </trkpt>
      <trkpt lat="47.22802" lon="6.73165">
        <ele>617</ele>
        <time>2018-07-01T08:19:27.000Z</time>
      </trkpt>
      <trkpt lat="47.22801" lon="6.73168">
        <ele>624</ele>
        <time>2018-07-01T08:19:28.000Z</time>
      </trkpt>
      <trkpt lat="47.22801" lon="6.7317">
        <ele>624</ele>
        <time>2018-07-01T08:19:29.000Z</time>
      </trkpt>
      <trkpt lat="47.228" lon="6.73172">
        <ele>624</ele>
        <time>2018-07-01T08:19:30.000Z</time>
      </trkpt>
      <trkpt lat="47.228" lon="6.73175">
        <ele>624</ele>
        <time>2018-07-01T08:19:31.000Z</time>
      </trkpt>
      <trkpt lat="47.22799" lon="6.73177">
        <ele>624</ele>
        <time>2018-07-01T08:19:32.000Z</time>
      </trkpt>
      <trkpt lat="47.22798" lon="6.73179">
        <ele>624</ele>
        <time>2018-07-01T08:19:33.000Z</time>
      </trkpt>
      <trkpt lat="47.22797" lon="6.73181">
        <ele>624</ele>
        <time>2018-07-01T08:19:34.000Z</time>
      </trkpt>
      <trkpt lat="47.22796" lon="6.73184">
        <ele>624</ele>
        <time>2018-07-01T08:19:35.000Z</time>
      </trkpt>
      <trkpt lat="47.22795" lon="6.73186">
        <ele>625</ele>
        <time>2018-07-01T08:19:36.000Z</time>
      </trkpt>
      <trkpt lat="47.22794" lon="6.73188">
        <ele>625</ele>
        <time>2018-07-01T08:19:37.000Z</time>
      </trkpt>
      <trkpt lat="47.22793" lon="6.7319">
        <ele>625</ele>
        <time>2018-07-01T08:19:38.000Z</time>
      </trkpt>
      <trkpt lat="47.22792" lon="6.73191">
        <ele>625</ele>
        <time>2018-07-01T08:19:39.000Z</time>
      </trkpt>
      <trkpt lat="47.22789" lon="6.73193">
        <ele>625</ele>
        <time>2018-07-01T08:19:40.000Z</time>
      </trkpt>
      <trkpt lat="47.22786" lon="6.73194">
        <ele>625</ele>
        <time>2018-07-01T08:19:41.000Z</time>
      </trkpt>
      <trkpt lat="47.22783" lon="6.73195">
        <ele>625</ele>
        <time>2018-07-01T08:19:42.000Z</time>
      </trkpt>
      <trkpt lat="47.22781" lon="6.73196">
        <ele>625</ele>
        <time>2018-07-01T08:19:43.000Z</time>
      </trkpt>
      <trkpt lat="47.22778" lon="6.73197">
        <ele>625</ele>
        <time>2018-07-01T08:19:44.000Z</time>
      </trkpt>
      <trkpt lat="47.22776" lon="6.73198">
        <ele>625</ele>
        <time>2018-07-01T08:19:45.000Z</time>
      </trkpt>
      <trkpt lat="47.22774" lon="6.732">
        <ele>625</ele>
        <time>2018-07-01T08:19:46.000Z</time>
      </trkpt>
      <trkpt lat="47.22773" lon="6.73202">
        <ele>625</ele>
        <time>2018-07-01T08:19:47.000Z</time>
      </trkpt>
      <trkpt lat="47.22771" lon="6.73204">
        <ele>625</ele>
        <time>2018-07-01T08:19:48.000Z</time>
      </trkpt>
      <trkpt lat="47.2277" lon="6.73206">
        <ele>625</ele>
        <time>2018-07-01T08:19:49.000Z</time>
      </trkpt>
      <trkpt lat="47.2277" lon="6.73208">
        <ele>625</ele>
        <time>2018-07-01T08:19:50.000Z</time>
      </trkpt>
      <trkpt lat="47.22769" lon="6.7321">
        <ele>625</ele>
        <time>2018-07-01T08:19:51.000Z</time>
      </trkpt>
      <trkpt lat="47.22769" lon="6.73212">
        <ele>625</ele>
        <time>2018-07-01T08:19:52.000Z</time>
      </trkpt>
      <trkpt lat="47.22768" lon="6.73214">
        <ele>626</ele>
        <time>2018-07-01T08:19:53.000Z</time>
      </trkpt>
      <trkpt lat="47.22768" lon="6.73216">
        <ele>626</ele>
        <time>2018-07-01T08:19:54.000Z</time>
      </trkpt>
      <trkpt lat="47.22767" lon="6.73218">
        <ele>626</ele>
        <time>2018-07-01T08:19:55.000Z</time>
      </trkpt>
      <trkpt lat="47.22767" lon="6.7322">
        <ele>626</ele>
        <time>2018-07-01T08:19:56.000Z</time>
      </trkpt>
      <trkpt lat="47.22766" lon="6.73222">
        <ele>626</ele>
        <time>2018-07-01T08:19:57.000Z</time>
      </trkpt>
      <trkpt lat="47.22766" lon="6.73224">
        <ele>626</ele>
        <time>2018-07-01T08:19:58.000Z</time>
      </trkpt>
      <trkpt lat="47.22766" lon="6.73226">
        <ele>626</ele>
        <time>2018-07-01T08:19:59.000Z</time>
      </trkpt>
      <trkpt lat="47.22766" lon="6.73227">
        <ele>627</ele>
        <time>2018-07-01T08:20:00.000Z</time>
      </trkpt>
      <trkpt lat="47.22766" lon="6.73229">
        <ele>627</ele>
        <time>2018-07-01T08:20:01.000Z</time>
      </trkpt>
      <trkpt lat="47.22766" lon="6.7323">
        <ele>627</ele>
        <time>2018-07-01T08:20:02.000Z</time>
      </trkpt>
      <trkpt lat="47.22767" lon="6.73232">
        <ele>627</ele>
        <time>2018-07-01T08:20:03.000Z</time>
      </trkpt>
      <trkpt lat="47.22767" lon="6.73233">
        <ele>627</ele>
        <time>2018-07-01T08:20:04.000Z</time>
      </trkpt>
      <trkpt lat="47.22767" lon="6.73235">
        <ele>627</ele>
        <time>2018-07-01T08:20:05.000Z</time>
      </trkpt>
      <trkpt lat="47.22768" lon="6.73238">
        <ele>627</ele>
        <time>2018-07-01T08:20:06.000Z</time>
      </trkpt>
      <trkpt lat="47.22768" lon="6.7324">
        <ele>627</ele>
        <time>2018-07-01T08:20:07.000Z</time>
      </trkpt>
      <trkpt lat="47.22768" lon="6.73241">
        <ele>627</ele>
        <time>2018-07-01T08:20:08.000Z</time>
      </trkpt>
      <trkpt lat="47.22768" lon="6.73243">
        <ele>627</ele>
        <time>2018-07-01T08:20:09.000Z</time>
      </trkpt>
      <trkpt lat="47.22769" lon="6.73244">
        <ele>627</ele>
        <time>2018-07-01T08:20:10.000Z</time>
      </trkpt>
      <trkpt lat="47.22769" lon="6.73246">
        <ele>627</ele>
        <time>2018-07-01T08:20:11.000Z</time>
      </trkpt>
      <trkpt lat="47.22769" lon="6.73248">
        <ele>627</ele>
        <time>2018-07-01T08:20:12.000Z</time>
      </trkpt>
      <trkpt lat="47.2277" lon="6.73249">
        <ele>627</ele>
        <time>2018-07-01T08:20:13.000Z</time>
      </trkpt>
      <trkpt lat="47.2277" lon="6.73251">
        <ele>635</ele>
        <time>2018-07-01T08:20:14.000Z</time>
      </trkpt>
      <trkpt lat="47.22771" lon="6.73253">
        <ele>635</ele>
        <time>2018-07-01T08:20:15.000Z</time>
      </trkpt>
      <trkpt lat="47.22771" lon="6.73255">
        <ele>635</ele>
        <time>2018-07-01T08:20:16.000Z</time>
      </trkpt>
      <trkpt lat="47.22771" lon="6.73256">
        <ele>635</ele>
        <time>2018-07-01T08:20:17.000Z</time>
      </trkpt>
      <trkpt lat="47.22772" lon="6.73258">
        <ele>635</ele>
        <time>2018-07-01T08:20:18.000Z</time>
      </trkpt>
      <trkpt lat="47.22772" lon="6.73259">
        <ele>636</ele>
        <time>2018-07-01T08:20:19.000Z</time>
      </trkpt>
      <trkpt lat="47.22773" lon="6.7326">
        <ele>636</ele>
        <time>2018-07-01T08:20:20.000Z</time>
      </trkpt>
      <trkpt lat="47.22773" lon="6.73261">
        <ele>636</ele>
        <time>2018-07-01T08:20:21.000Z</time>
      </trkpt>
      <trkpt lat="47.22774" lon="6.73263">
        <ele>636</ele>
        <time>2018-07-01T08:20:22.000Z</time>
      </trkpt>
      <trkpt lat="47.22774" lon="6.73264">
        <ele>636</ele>
        <time>2018-07-01T08:20:23.000Z</time>
      </trkpt>
      <trkpt lat="47.22775" lon="6.73265">
        <ele>637</ele>
        <time>2018-07-01T08:20:24.000Z</time>
      </trkpt>
      <trkpt lat="47.22775" lon="6.73267">
        <ele>637</ele>
        <time>2018-07-01T08:20:25.000Z</time>
      </trkpt>
      <trkpt lat="47.22776" lon="6.73268">
        <ele>637</ele>
        <time>2018-07-01T08:20:26.000Z</time>
      </trkpt>
      <trkpt lat="47.22776" lon="6.7327">
        <ele>637</ele>
        <time>2018-07-01T08:20:27.000Z</time>
      </trkpt>
      <trkpt lat="47.22776" lon="6.73271">
        <ele>637</ele>
        <time>2018-07-01T08:20:28.000Z</time>
      </trkpt>
      <trkpt lat="47.22777" lon="6.73272">
        <ele>638</ele>
        <time>2018-07-01T08:20:29.000Z</time>
      </trkpt>
      <trkpt lat="47.22777" lon="6.73273">
        <ele>638</ele>
        <time>2018-07-01T08:20:30.000Z</time>
      </trkpt>
      <trkpt lat="47.22777" lon="6.73274">
        <ele>638</ele>
        <time>2018-07-01T08:20:31.000Z</time>
      </trkpt>
      <trkpt lat="47.22778" lon="6.73276">
        <ele>638</ele>
        <time>2018-07-01T08:20:32.000Z</time>
      </trkpt>
      <trkpt lat="47.22778" lon="6.73277">
        <ele>638</ele>
        <time>2018-07-01T08:20:33.000Z</time>
      </trkpt>
      <trkpt lat="47.22778" lon="6.73278">
        <ele>638</ele>
        <time>2018-07-01T08:20:34.000Z</time>
      </trkpt>
      <trkpt lat="47.22778" lon="6.73279">
        <ele>638</ele>
        <time>2018-07-01T08:20:35.000Z</time>
      </trkpt>
      <trkpt lat="47.22778" lon="6.73281">
        <ele>639</ele>
        <time>2018-07-01T08:20:36.000Z</time>
      </trkpt>
      <trkpt lat="47.22778" lon="6.73283">
        <ele>639</ele>
        <time>2018-07-01T08:20:37.000Z</time>
      </trkpt>
      <trkpt lat="47.22778" lon="6.73284">
        <ele>639</ele>
        <time>2018-07-01T08:20:38.000Z</time>
      </trkpt>
      <trkpt lat="47.22778" lon="6.73286">
        <ele>639</ele>
        <time>2018-07-01T08:20:39.000Z</time>
      </trkpt>
      <trkpt lat="47.22778" lon="6.73287">
        <ele>639</ele>
        <time>2018-07-01T08:20:40.000Z</time>
      </trkpt>
      <trkpt lat="47.22779" lon="6.73288">
        <ele>639</ele>
        <time>2018-07-01T08:20:41.000Z</time>
      </trkpt>
      <trkpt lat="47.22779" lon="6.7329">
        <ele>640</ele>
        <time>2018-07-01T08:20:42.000Z</time>
      </trkpt>
      <trkpt lat="47.2278" lon="6.73292">
        <ele>640</ele>
        <time>2018-07-01T08:20:43.000Z</time>
      </trkpt>
      <trkpt lat="47.2278" lon="6.73293">
        <ele>640</ele>
        <time>2018-07-01T08:20:44.000Z</time>
      </trkpt>
      <trkpt lat="47.2278" lon="6.73294">
        <ele>640</ele>
        <time>2018-07-01T08:20:45.000Z</time>
      </trkpt>
      <trkpt lat="47.2278" lon="6.73295">
        <ele>640</ele>
        <time>2018-07-01T08:20:46.000Z</time>
      </trkpt>
      <trkpt lat="47.2278" lon="6.73296">
        <ele>640</ele>
        <time>2018-07-01T08:20:47.000Z</time>
      </trkpt>
      <trkpt lat="47.2278" lon="6.73297">
        <ele>640</ele>
        <time>2018-07-01T08:20:48.000Z</time>
      </trkpt>
      <trkpt lat="47.22781" lon="6.73298">
        <ele>641</ele>
        <time>2018-07-01T08:20:49.000Z</time>
      </trkpt>
      <trkpt lat="47.22781" lon="6.73299">
        <ele>641</ele>
        <time>2018-07-01T08:20:50.000Z</time>
      </trkpt>
      <trkpt lat="47.22781" lon="6.73301">
        <ele>641</ele>
        <time>2018-07-01T08:20:51.000Z</time>
      </trkpt>
      <trkpt lat="47.22781" lon="6.73302">
        <ele>641</ele>
        <time>2018-07-01T08:20:52.000Z</time>
      </trkpt>
      <trkpt lat="47.22782" lon="6.73302">
        <ele>641</ele>
        <time>2018-07-01T08:20:53.000Z</time>
      </trkpt>
      <trkpt lat="47.22782" lon="6.73304">
        <ele>641</ele>
        <time>2018-07-01T08:20:54.000Z</time>
      </trkpt>
      <trkpt lat="47.22782" lon="6.73305">
        <ele>641</ele>
        <time>2018-07-01T08:20:55.000Z</time>
      </trkpt>
      <trkpt lat="47.22783" lon="6.73306">
        <ele>641</ele>
        <time>2018-07-01T08:20:56.000Z</time>
      </trkpt>
      <trkpt lat="47.22783" lon="6.73306">
        <ele>641</ele>
        <time>2018-07-01T08:20:57.000Z</time>
      </trkpt>
      <trkpt lat="47.22784" lon="6.73307">
        <ele>642</ele>
        <time>2018-07-01T08:20:58.000Z</time>
      </trkpt>
      <trkpt lat="47.22784" lon="6.73308">
        <ele>642</ele>
        <time>2018-07-01T08:20:59.000Z</time>
      </trkpt>
      <trkpt lat="47.22784" lon="6.73308">
        <ele>642</ele>
        <time>2018-07-01T08:21:00.000Z</time>
      </trkpt>
      <trkpt lat="47.22785" lon="6.73309">
        <ele>642</ele>
        <time>2018-07-01T08:21:01.000Z</time>
      </trkpt>
      <trkpt lat="47.22785" lon="6.73308">
        <ele>642</ele>
        <time>2018-07-01T08:21:02.000Z</time>
      </trkpt>
      <trkpt lat="47.22786" lon="6.73308">
        <ele>642</ele>
        <time>2018-07-01T08:21:03.000Z</time>
      </trkpt>
      <trkpt lat="47.22786" lon="6.73307">
        <ele>642</ele>
        <time>2018-07-01T08:21:04.000Z</time>
      </trkpt>
      <trkpt lat="47.22786" lon="6.73306">
        <ele>642</ele>
        <time>2018-07-01T08:21:05.000Z</time>
      </trkpt>
      <trkpt lat="47.22786" lon="6.73304">
        <ele>641</ele>
        <time>2018-07-01T08:21:06.000Z</time>
      </trkpt>
      <trkpt lat="47.22787" lon="6.73302">
        <ele>641</ele>
        <time>2018-07-01T08:21:07.000Z</time>
      </trkpt>
      <trkpt lat="47.22787" lon="6.73301">
        <ele>641</ele>
        <time>2018-07-01T08:21:08.000Z</time>
      </trkpt>
      <trkpt lat="47.22788" lon="6.73299">
        <ele>641</ele>
        <time>2018-07-01T08:21:09.000Z</time>
      </trkpt>
      <trkpt lat="47.22789" lon="6.73298">
        <ele>641</ele>
        <time>2018-07-01T08:21:10.000Z</time>
      </trkpt>
      <trkpt lat="47.22789" lon="6.73297">
        <ele>641</ele>
        <time>2018-07-01T08:21:11.000Z</time>
      </trkpt>
      <trkpt lat="47.2279" lon="6.73295">
        <ele>641</ele>
        <time>2018-07-01T08:21:12.000Z</time>
      </trkpt>
      <trkpt lat="47.22791" lon="6.73294">
        <ele>641</ele>
        <time>2018-07-01T08:21:13.000Z</time>
      </trkpt>
      <trkpt lat="47.22792" lon="6.73292">
        <ele>641</ele>
        <time>2018-07-01T08:21:14.000Z</time>
      </trkpt>
      <trkpt lat="47.22793" lon="6.73291">
        <ele>641</ele>
        <time>2018-07-01T08:21:15.000Z</time>
      </trkpt>
      <trkpt lat="47.22794" lon="6.73289">
        <ele>641</ele>
        <time>2018-07-01T08:21:16.000Z</time>
      </trkpt>
      <trkpt lat="47.22794" lon="6.73288">
        <ele>641</ele>
        <time>2018-07-01T08:21:17.000Z</time>
      </trkpt>
      <trkpt lat="47.22795" lon="6.73287">
        <ele>641</ele>
        <time>2018-07-01T08:21:18.000Z</time>
      </trkpt>
      <trkpt lat="47.22796" lon="6.73285">
        <ele>640</ele>
        <time>2018-07-01T08:21:19.000Z</time>
      </trkpt>
      <trkpt lat="47.22797" lon="6.73284">
        <ele>640</ele>
        <time>2018-07-01T08:21:20.000Z</time>
      </trkpt>
      <trkpt lat="47.22798" lon="6.73283">
        <ele>640</ele>
        <time>2018-07-01T08:21:21.000Z</time>
      </trkpt>
      <trkpt lat="47.22799" lon="6.73282">
        <ele>640</ele>
        <time>2018-07-01T08:21:22.000Z</time>
      </trkpt>
      <trkpt lat="47.228" lon="6.7328">
        <ele>640</ele>
        <time>2018-07-01T08:21:23.000Z</time>
      </trkpt>
      <trkpt lat="47.22801" lon="6.73279">
        <ele>640</ele>
        <time>2018-07-01T08:21:24.000Z</time>
      </trkpt>
      <trkpt lat="47.22801" lon="6.73277">
        <ele>640</ele>
        <time>2018-07-01T08:21:25.000Z</time>
      </trkpt>
      <trkpt lat="47.22802" lon="6.73276">
        <ele>640</ele>
        <time>2018-07-01T08:21:26.000Z</time>
      </trkpt>
      <trkpt lat="47.22803" lon="6.73275">
        <ele>640</ele>
        <time>2018-07-01T08:21:27.000Z</time>
      </trkpt>
      <trkpt lat="47.22804" lon="6.73273">
        <ele>640</ele>
        <time>2018-07-01T08:21:28.000Z</time>
      </trkpt>
      <trkpt lat="47.22805" lon="6.73272">
        <ele>640</ele>
        <time>2018-07-01T08:21:29.000Z</time>
      </trkpt>
      <trkpt lat="47.22806" lon="6.73272">
        <ele>640</ele>
        <time>2018-07-01T08:21:30.000Z</time>
      </trkpt>
      <trkpt lat="47.22807" lon="6.73271">
        <ele>640</ele>
        <time>2018-07-01T08:21:31.000Z</time>
      </trkpt>
      <trkpt lat="47.22807" lon="6.7327">
        <ele>640</ele>
        <time>2018-07-01T08:21:32.000Z</time>
      </trkpt>
      <trkpt lat="47.22808" lon="6.73269">
        <ele>640</ele>
        <time>2018-07-01T08:21:33.000Z</time>
      </trkpt>
      <trkpt lat="47.2281" lon="6.73268">
        <ele>639</ele>
        <time>2018-07-01T08:21:34.000Z</time>
      </trkpt>
      <trkpt lat="47.22811" lon="6.73266">
        <ele>639</ele>
        <time>2018-07-01T08:21:35.000Z</time>
      </trkpt>
      <trkpt lat="47.22812" lon="6.73265">
        <ele>639</ele>
        <time>2018-07-01T08:21:36.000Z</time>
      </trkpt>
      <trkpt lat="47.22813" lon="6.73263">
        <ele>639</ele>
        <time>2018-07-01T08:21:37.000Z</time>
      </trkpt>
      <trkpt lat="47.22814" lon="6.73261">
        <ele>639</ele>
        <time>2018-07-01T08:21:38.000Z</time>
      </trkpt>
      <trkpt lat="47.22815" lon="6.73259">
        <ele>639</ele>
        <time>2018-07-01T08:21:39.000Z</time>
      </trkpt>
      <trkpt lat="47.22816" lon="6.73257">
        <ele>639</ele>
        <time>2018-07-01T08:21:40.000Z</time>
      </trkpt>
      <trkpt lat="47.22817" lon="6.73255">
        <ele>639</ele>
        <time>2018-07-01T08:21:41.000Z</time>
      </trkpt>
      <trkpt lat="47.22818" lon="6.73253">
        <ele>638</ele>
        <time>2018-07-01T08:21:42.000Z</time>
      </trkpt>
      <trkpt lat="47.22819" lon="6.73251">
        <ele>638</ele>
        <time>2018-07-01T08:21:43.000Z</time>
      </trkpt>
      <trkpt lat="47.2282" lon="6.73249">
        <ele>633</ele>
        <time>2018-07-01T08:21:44.000Z</time>
      </trkpt>
      <trkpt lat="47.22821" lon="6.73248">
        <ele>633</ele>
        <time>2018-07-01T08:21:45.000Z</time>
      </trkpt>
      <trkpt lat="47.22822" lon="6.73246">
        <ele>633</ele>
        <time>2018-07-01T08:21:46.000Z</time>
      </trkpt>
      <trkpt lat="47.22822" lon="6.73245">
        <ele>633</ele>
        <time>2018-07-01T08:21:47.000Z</time>
      </trkpt>
      <trkpt lat="47.22823" lon="6.73243">
        <ele>633</ele>
        <time>2018-07-01T08:21:48.000Z</time>
      </trkpt>
      <trkpt lat="47.22824" lon="6.73242">
        <ele>633</ele>
        <time>2018-07-01T08:21:49.000Z</time>
      </trkpt>
      <trkpt lat="47.22825" lon="6.7324">
        <ele>632</ele>
        <time>2018-07-01T08:21:50.000Z</time>
      </trkpt>
      <trkpt lat="47.22826" lon="6.73238">
        <ele>632</ele>
        <time>2018-07-01T08:21:51.000Z</time>
      </trkpt>
      <trkpt lat="47.22826" lon="6.73237">
        <ele>632</ele>
        <time>2018-07-01T08:21:52.000Z</time>
      </trkpt>
      <trkpt lat="47.22827" lon="6.73236">
        <ele>632</ele>
        <time>2018-07-01T08:21:53.000Z</time>
      </trkpt>
      <trkpt lat="47.22828" lon="6.73235">
        <ele>632</ele>
        <time>2018-07-01T08:21:54.000Z</time>
      </trkpt>
      <trkpt lat="47.22829" lon="6.73234">
        <ele>632</ele>
        <time>2018-07-01T08:21:55.000Z</time>
      </trkpt>
      <trkpt lat="47.2283" lon="6.73233">
        <ele>631</ele>
        <time>2018-07-01T08:21:56.000Z</time>
      </trkpt>
      <trkpt lat="47.22831" lon="6.73231">
        <ele>631</ele>
        <time>2018-07-01T08:21:57.000Z</time>
      </trkpt>
      <trkpt lat="47.22832" lon="6.73228">
        <ele>630</ele>
        <time>2018-07-01T08:21:58.000Z</time>
      </trkpt>
      <trkpt lat="47.22832" lon="6.73226">
        <ele>630</ele>
        <time>2018-07-01T08:21:59.000Z</time>
      </trkpt>
      <trkpt lat="47.22833" lon="6.73224">
        <ele>630</ele>
        <time>2018-07-01T08:22:00.000Z</time>
      </trkpt>
      <trkpt lat="47.22834" lon="6.73223">
        <ele>647</ele>
        <time>2018-07-01T08:22:01.000Z</time>
      </trkpt>
      <trkpt lat="47.22835" lon="6.73221">
        <ele>647</ele>
        <time>2018-07-01T08:22:02.000Z</time>
      </trkpt>
      <trkpt lat="47.22835" lon="6.7322">
        <ele>647</ele>
        <time>2018-07-01T08:22:03.000Z</time>
      </trkpt>
      <trkpt lat="47.22836" lon="6.73219">
        <ele>648</ele>
        <time>2018-07-01T08:22:04.000Z</time>
      </trkpt>
      <trkpt lat="47.22837" lon="6.73218">
        <ele>648</ele>
        <time>2018-07-01T08:22:05.000Z</time>
      </trkpt>
      <trkpt lat="47.22837" lon="6.73217">
        <ele>648</ele>
        <time>2018-07-01T08:22:06.000Z</time>
      </trkpt>
      <trkpt lat="47.22838" lon="6.73216">
        <ele>648</ele>
        <time>2018-07-01T08:22:07.000Z</time>
      </trkpt>
      <trkpt lat="47.22838" lon="6.73215">
        <ele>648</ele>
        <time>2018-07-01T08:22:08.000Z</time>
      </trkpt>
      <trkpt lat="47.22839" lon="6.73214">
        <ele>648</ele>
        <time>2018-07-01T08:22:09.000Z</time>
      </trkpt>
      <trkpt lat="47.22839" lon="6.73212">
        <ele>648</ele>
        <time>2018-07-01T08:22:10.000Z</time>
      </trkpt>
      <trkpt lat="47.2284" lon="6.73211">
        <ele>648</ele>
        <time>2018-07-01T08:22:11.000Z</time>
      </trkpt>
      <trkpt lat="47.2284" lon="6.73211">
        <ele>648</ele>
        <time>2018-07-01T08:22:12.000Z</time>
      </trkpt>
      <trkpt lat="47.2284" lon="6.73211">
        <ele>648</ele>
        <time>2018-07-01T08:22:13.000Z</time>
      </trkpt>
      <trkpt lat="47.22841" lon="6.73211">
        <ele>648</ele>
        <time>2018-07-01T08:22:14.000Z</time>
      </trkpt>
      <trkpt lat="47.22841" lon="6.73212">
        <ele>648</ele>
        <time>2018-07-01T08:22:15.000Z</time>
      </trkpt>
      <trkpt lat="47.22841" lon="6.73213">
        <ele>648</ele>
        <time>2018-07-01T08:22:16.000Z</time>
      </trkpt>
      <trkpt lat="47.22841" lon="6.73214">
        <ele>648</ele>
        <time>2018-07-01T08:22:17.000Z</time>
      </trkpt>
      <trkpt lat="47.22841" lon="6.73215">
        <ele>648</ele>
        <time>2018-07-01T08:22:18.000Z</time>
      </trkpt>
      <trkpt lat="47.22841" lon="6.73216">
        <ele>648</ele>
        <time>2018-07-01T08:22:19.000Z</time>
      </trkpt>
      <trkpt lat="47.22841" lon="6.73218">
        <ele>648</ele>
        <time>2018-07-01T08:22:20.000Z</time>
      </trkpt>
      <trkpt lat="47.22841" lon="6.7322">
        <ele>648</ele>
        <time>2018-07-01T08:22:21.000Z</time>
      </trkpt>
      <trkpt lat="47.22841" lon="6.73221">
        <ele>648</ele>
        <time>2018-07-01T08:22:22.000Z</time>
      </trkpt>
      <trkpt lat="47.22842" lon="6.73223">
        <ele>648</ele>
        <time>2018-07-01T08:22:23.000Z</time>
      </trkpt>
      <trkpt lat="47.22842" lon="6.73224">
        <ele>648</ele>
        <time>2018-07-01T08:22:24.000Z</time>
      </trkpt>
      <trkpt lat="47.22842" lon="6.73226">
        <ele>648</ele>
        <time>2018-07-01T08:22:25.000Z</time>
      </trkpt>
      <trkpt lat="47.22842" lon="6.73227">
        <ele>648</ele>
        <time>2018-07-01T08:22:26.000Z</time>
      </trkpt>
      <trkpt lat="47.22842" lon="6.73228">
        <ele>648</ele>
        <time>2018-07-01T08:22:27.000Z</time>
      </trkpt>
      <trkpt lat="47.22842" lon="6.7323">
        <ele>647</ele>
        <time>2018-07-01T08:22:28.000Z</time>
      </trkpt>
      <trkpt lat="47.22842" lon="6.73231">
        <ele>647</ele>
        <time>2018-07-01T08:22:29.000Z</time>
      </trkpt>
      <trkpt lat="47.22842" lon="6.73233">
        <ele>647</ele>
        <time>2018-07-01T08:22:30.000Z</time>
      </trkpt>
      <trkpt lat="47.22842" lon="6.73234">
        <ele>647</ele>
        <time>2018-07-01T08:22:31.000Z</time>
      </trkpt>
      <trkpt lat="47.22843" lon="6.73235">
        <ele>647</ele>
        <time>2018-07-01T08:22:32.000Z</time>
      </trkpt>
      <trkpt lat="47.22843" lon="6.73236">
        <ele>646</ele>
        <time>2018-07-01T08:22:33.000Z</time>
      </trkpt>
      <trkpt lat="47.22843" lon="6.73238">
        <ele>646</ele>
        <time>2018-07-01T08:22:34.000Z</time>
      </trkpt>
      <trkpt lat="47.22844" lon="6.73239">
        <ele>646</ele>
        <time>2018-07-01T08:22:35.000Z</time>
      </trkpt>
      <trkpt lat="47.22844" lon="6.7324">
        <ele>646</ele>
        <time>2018-07-01T08:22:36.000Z</time>
      </trkpt>
      <trkpt lat="47.22844" lon="6.73241">
        <ele>646</ele>
        <time>2018-07-01T08:22:37.000Z</time>
      </trkpt>
      <trkpt lat="47.22844" lon="6.73243">
        <ele>645</ele>
        <time>2018-07-01T08:22:38.000Z</time>
      </trkpt>
      <trkpt lat="47.22844" lon="6.73244">
        <ele>645</ele>
        <time>2018-07-01T08:22:39.000Z</time>
      </trkpt>
      <trkpt lat="47.22845" lon="6.73245">
        <ele>645</ele>
        <time>2018-07-01T08:22:40.000Z</time>
      </trkpt>
      <trkpt lat="47.22845" lon="6.73246">
        <ele>645</ele>
        <time>2018-07-01T08:22:41.000Z</time>
      </trkpt>
      <trkpt lat="47.22845" lon="6.73248">
        <ele>645</ele>
        <time>2018-07-01T08:22:42.000Z</time>
      </trkpt>
      <trkpt lat="47.22846" lon="6.73249">
        <ele>645</ele>
        <time>2018-07-01T08:22:43.000Z</time>
      </trkpt>
      <trkpt lat="47.22846" lon="6.73251">
        <ele>651</ele>
        <time>2018-07-01T08:22:44.000Z</time>
      </trkpt>
      <trkpt lat="47.22847" lon="6.73252">
        <ele>652</ele>
        <time>2018-07-01T08:22:45.000Z</time>
      </trkpt>
      <trkpt lat="47.22847" lon="6.73254">
        <ele>652</ele>
        <time>2018-07-01T08:22:46.000Z</time>
      </trkpt>
      <trkpt lat="47.22848" lon="6.73255">
        <ele>653</ele>
        <time>2018-07-01T08:22:47.000Z</time>
      </trkpt>
      <trkpt lat="47.22848" lon="6.73256">
        <ele>653</ele>
        <time>2018-07-01T08:22:48.000Z</time>
      </trkpt>
      <trkpt lat="47.22848" lon="6.73258">
        <ele>654</ele>
        <time>2018-07-01T08:22:49.000Z</time>
      </trkpt>
      <trkpt lat="47.22848" lon="6.73259">
        <ele>655</ele>
        <time>2018-07-01T08:22:50.000Z</time>
      </trkpt>
      <trkpt lat="47.22849" lon="6.73261">
        <ele>655</ele>
        <time>2018-07-01T08:22:51.000Z</time>
      </trkpt>
      <trkpt lat="47.22849" lon="6.73263">
        <ele>656</ele>
        <time>2018-07-01T08:22:52.000Z</time>
      </trkpt>
      <trkpt lat="47.22849" lon="6.73264">
        <ele>657</ele>
        <time>2018-07-01T08:22:53.000Z</time>
      </trkpt>
      <trkpt lat="47.22849" lon="6.73266">
        <ele>658</ele>
        <time>2018-07-01T08:22:54.000Z</time>
      </trkpt>
      <trkpt lat="47.2285" lon="6.73267">
        <ele>658</ele>
        <time>2018-07-01T08:22:55.000Z</time>
      </trkpt>
      <trkpt lat="47.2285" lon="6.73268">
        <ele>659</ele>
        <time>2018-07-01T08:22:56.000Z</time>
      </trkpt>
      <trkpt lat="47.2285" lon="6.7327">
        <ele>659</ele>
        <time>2018-07-01T08:22:57.000Z</time>
      </trkpt>
      <trkpt lat="47.2285" lon="6.73272">
        <ele>660</ele>
        <time>2018-07-01T08:22:58.000Z</time>
      </trkpt>
      <trkpt lat="47.2285" lon="6.73273">
        <ele>661</ele>
        <time>2018-07-01T08:22:59.000Z</time>
      </trkpt>
      <trkpt lat="47.2285" lon="6.73275">
        <ele>661</ele>
        <time>2018-07-01T08:23:00.000Z</time>
      </trkpt>
      <trkpt lat="47.2285" lon="6.73277">
        <ele>661</ele>
        <time>2018-07-01T08:23:01.000Z</time>
      </trkpt>
      <trkpt lat="47.2285" lon="6.73278">
        <ele>662</ele>
        <time>2018-07-01T08:23:02.000Z</time>
      </trkpt>
      <trkpt lat="47.2285" lon="6.7328">
        <ele>662</ele>
        <time>2018-07-01T08:23:03.000Z</time>
      </trkpt>
      <trkpt lat="47.22849" lon="6.73281">
        <ele>662</ele>
        <time>2018-07-01T08:23:04.000Z</time>
      </trkpt>
      <trkpt lat="47.22849" lon="6.73282">
        <ele>663</ele>
        <time>2018-07-01T08:23:05.000Z</time>
      </trkpt>
      <trkpt lat="47.22849" lon="6.73283">
        <ele>663</ele>
        <time>2018-07-01T08:23:06.000Z</time>
      </trkpt>
      <trkpt lat="47.22849" lon="6.73284">
        <ele>663</ele>
        <time>2018-07-01T08:23:07.000Z</time>
      </trkpt>
      <trkpt lat="47.22849" lon="6.73285">
        <ele>663</ele>
        <time>2018-07-01T08:23:08.000Z</time>
      </trkpt>
      <trkpt lat="47.22849" lon="6.73286">
        <ele>664</ele>
        <time>2018-07-01T08:23:09.000Z</time>
      </trkpt>
      <trkpt lat="47.22849" lon="6.73288">
        <ele>664</ele>
        <time>2018-07-01T08:23:10.000Z</time>
      </trkpt>
      <trkpt lat="47.22849" lon="6.7329">
        <ele>664</ele>
        <time>2018-07-01T08:23:11.000Z</time>
      </trkpt>
      <trkpt lat="47.22849" lon="6.73291">
        <ele>664</ele>
        <time>2018-07-01T08:23:12.000Z</time>
      </trkpt>
      <trkpt lat="47.22848" lon="6.73293">
        <ele>664</ele>
        <time>2018-07-01T08:23:13.000Z</time>
      </trkpt>
      <trkpt lat="47.22847" lon="6.73295">
        <ele>664</ele>
        <time>2018-07-01T08:23:14.000Z</time>
      </trkpt>
      <trkpt lat="47.22846" lon="6.73297">
        <ele>665</ele>
        <time>2018-07-01T08:23:15.000Z</time>
      </trkpt>
      <trkpt lat="47.22845" lon="6.73299">
        <ele>665</ele>
        <time>2018-07-01T08:23:16.000Z</time>
      </trkpt>
      <trkpt lat="47.22845" lon="6.73301">
        <ele>665</ele>
        <time>2018-07-01T08:23:17.000Z</time>
      </trkpt>
      <trkpt lat="47.22844" lon="6.73303">
        <ele>665</ele>
        <time>2018-07-01T08:23:18.000Z</time>
      </trkpt>
      <trkpt lat="47.22843" lon="6.73305">
        <ele>664</ele>
        <time>2018-07-01T08:23:19.000Z</time>
      </trkpt>
      <trkpt lat="47.22843" lon="6.73307">
        <ele>664</ele>
        <time>2018-07-01T08:23:20.000Z</time>
      </trkpt>
      <trkpt lat="47.22842" lon="6.73309">
        <ele>664</ele>
        <time>2018-07-01T08:23:21.000Z</time>
      </trkpt>
      <trkpt lat="47.22841" lon="6.7331">
        <ele>664</ele>
        <time>2018-07-01T08:23:22.000Z</time>
      </trkpt>
      <trkpt lat="47.22841" lon="6.73312">
        <ele>664</ele>
        <time>2018-07-01T08:23:23.000Z</time>
      </trkpt>
      <trkpt lat="47.22841" lon="6.73313">
        <ele>664</ele>
        <time>2018-07-01T08:23:24.000Z</time>
      </trkpt>
      <trkpt lat="47.2284" lon="6.73314">
        <ele>664</ele>
        <time>2018-07-01T08:23:25.000Z</time>
      </trkpt>
      <trkpt lat="47.2284" lon="6.73314">
        <ele>664</ele>
        <time>2018-07-01T08:23:26.000Z</time>
      </trkpt>
      <trkpt lat="47.2284" lon="6.73315">
        <ele>663</ele>
        <time>2018-07-01T08:23:27.000Z</time>
      </trkpt>
      <trkpt lat="47.2284" lon="6.73315">
        <ele>663</ele>
        <time>2018-07-01T08:23:28.000Z</time>
      </trkpt>
      <trkpt lat="47.2284" lon="6.73315">
        <ele>663</ele>
        <time>2018-07-01T08:23:29.000Z</time>
      </trkpt>
      <trkpt lat="47.22841" lon="6.73315">
        <ele>664</ele>
        <time>2018-07-01T08:23:30.000Z</time>
      </trkpt>
      <trkpt lat="47.22841" lon="6.73315">
        <ele>664</ele>
        <time>2018-07-01T08:23:31.000Z</time>
      </trkpt>
      <trkpt lat="47.22842" lon="6.73315">
        <ele>664</ele>
        <time>2018-07-01T08:23:32.000Z</time>
      </trkpt>
      <trkpt lat="47.22842" lon="6.73315">
        <ele>664</ele>
        <time>2018-07-01T08:23:33.000Z</time>
      </trkpt>
      <trkpt lat="47.22842" lon="6.73315">
        <ele>664</ele>
        <time>2018-07-01T08:23:34.000Z</time>
      </trkpt>
      <trkpt lat="47.22841" lon="6.73316">
        <ele>664</ele>
        <time>2018-07-01T08:23:35.000Z</time>
      </trkpt>
      <trkpt lat="47.22841" lon="6.73316">
        <ele>664</ele>
        <time>2018-07-01T08:23:36.000Z</time>
      </trkpt>
      <trkpt lat="47.22841" lon="6.73316">
        <ele>664</ele>
        <time>2018-07-01T08:23:37.000Z</time>
      </trkpt>
      <trkpt lat="47.22841" lon="6.73317">
        <ele>663</ele>
        <time>2018-07-01T08:23:38.000Z</time>
      </trkpt>
      <trkpt lat="47.22841" lon="6.73317">
        <ele>663</ele>
        <time>2018-07-01T08:23:39.000Z</time>
      </trkpt>
      <trkpt lat="47.22841" lon="6.73318">
        <ele>663</ele>
        <time>2018-07-01T08:23:40.000Z</time>
      </trkpt>
      <trkpt lat="47.22841" lon="6.73319">
        <ele>663</ele>
        <time>2018-07-01T08:23:41.000Z</time>
      </trkpt>
      <trkpt lat="47.22841" lon="6.7332">
        <ele>663</ele>
        <time>2018-07-01T08:23:42.000Z</time>
      </trkpt>
      <trkpt lat="47.2284" lon="6.73321">
        <ele>663</ele>
        <time>2018-07-01T08:23:43.000Z</time>
      </trkpt>
      <trkpt lat="47.2284" lon="6.73321">
        <ele>663</ele>
        <time>2018-07-01T08:23:44.000Z</time>
      </trkpt>
      <trkpt lat="47.2284" lon="6.73322">
        <ele>662</ele>
        <time>2018-07-01T08:23:45.000Z</time>
      </trkpt>
      <trkpt lat="47.2284" lon="6.73324">
        <ele>662</ele>
        <time>2018-07-01T08:23:46.000Z</time>
      </trkpt>
      <trkpt lat="47.2284" lon="6.73324">
        <ele>662</ele>
        <time>2018-07-01T08:23:47.000Z</time>
      </trkpt>
      <trkpt lat="47.2284" lon="6.73325">
        <ele>662</ele>
        <time>2018-07-01T08:23:48.000Z</time>
      </trkpt>
      <trkpt lat="47.22839" lon="6.73327">
        <ele>661</ele>
        <time>2018-07-01T08:23:49.000Z</time>
      </trkpt>
      <trkpt lat="47.22839" lon="6.73328">
        <ele>661</ele>
        <time>2018-07-01T08:23:50.000Z</time>
      </trkpt>
      <trkpt lat="47.22839" lon="6.73329">
        <ele>660</ele>
        <time>2018-07-01T08:23:51.000Z</time>
      </trkpt>
      <trkpt lat="47.22839" lon="6.7333">
        <ele>660</ele>
        <time>2018-07-01T08:23:52.000Z</time>
      </trkpt>
      <trkpt lat="47.22839" lon="6.73332">
        <ele>660</ele>
        <time>2018-07-01T08:23:53.000Z</time>
      </trkpt>
      <trkpt lat="47.22839" lon="6.73333">
        <ele>660</ele>
        <time>2018-07-01T08:23:54.000Z</time>
      </trkpt>
      <trkpt lat="47.22839" lon="6.73334">
        <ele>662</ele>
        <time>2018-07-01T08:23:55.000Z</time>
      </trkpt>
      <trkpt lat="47.22838" lon="6.73335">
        <ele>662</ele>
        <time>2018-07-01T08:23:56.000Z</time>
      </trkpt>
      <trkpt lat="47.22838" lon="6.73336">
        <ele>662</ele>
        <time>2018-07-01T08:23:57.000Z</time>
      </trkpt>
      <trkpt lat="47.22837" lon="6.73338">
        <ele>662</ele>
        <time>2018-07-01T08:23:58.000Z</time>
      </trkpt>
      <trkpt lat="47.22837" lon="6.73339">
        <ele>663</ele>
        <time>2018-07-01T08:23:59.000Z</time>
      </trkpt>
      <trkpt lat="47.22836" lon="6.7334">
        <ele>664</ele>
        <time>2018-07-01T08:24:00.000Z</time>
      </trkpt>
      <trkpt lat="47.22835" lon="6.73342">
        <ele>664</ele>
        <time>2018-07-01T08:24:01.000Z</time>
      </trkpt>
      <trkpt lat="47.22835" lon="6.73343">
        <ele>665</ele>
        <time>2018-07-01T08:24:02.000Z</time>
      </trkpt>
      <trkpt lat="47.22834" lon="6.73344">
        <ele>666</ele>
        <time>2018-07-01T08:24:03.000Z</time>
      </trkpt>
      <trkpt lat="47.22833" lon="6.73345">
        <ele>657</ele>
        <time>2018-07-01T08:24:04.000Z</time>
      </trkpt>
      <trkpt lat="47.22832" lon="6.73346">
        <ele>657</ele>
        <time>2018-07-01T08:24:05.000Z</time>
      </trkpt>
      <trkpt lat="47.22831" lon="6.73347">
        <ele>657</ele>
        <time>2018-07-01T08:24:06.000Z</time>
      </trkpt>
      <trkpt lat="47.22829" lon="6.73348">
        <ele>657</ele>
        <time>2018-07-01T08:24:07.000Z</time>
      </trkpt>
      <trkpt lat="47.22828" lon="6.73349">
        <ele>657</ele>
        <time>2018-07-01T08:24:08.000Z</time>
      </trkpt>
      <trkpt lat="47.22827" lon="6.73351">
        <ele>657</ele>
        <time>2018-07-01T08:24:09.000Z</time>
      </trkpt>
      <trkpt lat="47.22826" lon="6.73353">
        <ele>657</ele>
        <time>2018-07-01T08:24:10.000Z</time>
      </trkpt>
      <trkpt lat="47.22825" lon="6.73355">
        <ele>657</ele>
        <time>2018-07-01T08:24:11.000Z</time>
      </trkpt>
      <trkpt lat="47.22825" lon="6.73358">
        <ele>657</ele>
        <time>2018-07-01T08:24:12.000Z</time>
      </trkpt>
      <trkpt lat="47.22825" lon="6.73362">
        <ele>657</ele>
        <time>2018-07-01T08:24:13.000Z</time>
      </trkpt>
      <trkpt lat="47.22825" lon="6.73365">
        <ele>657</ele>
        <time>2018-07-01T08:24:14.000Z</time>
      </trkpt>
      <trkpt lat="47.22826" lon="6.73369">
        <ele>658</ele>
        <time>2018-07-01T08:24:15.000Z</time>
      </trkpt>
      <trkpt lat="47.22827" lon="6.73373">
        <ele>658</ele>
        <time>2018-07-01T08:24:16.000Z</time>
      </trkpt>
      <trkpt lat="47.22828" lon="6.73376">
        <ele>659</ele>
        <time>2018-07-01T08:24:17.000Z</time>
      </trkpt>
      <trkpt lat="47.22829" lon="6.73379">
        <ele>659</ele>
        <time>2018-07-01T08:24:18.000Z</time>
      </trkpt>
      <trkpt lat="47.2283" lon="6.73383">
        <ele>660</ele>
        <time>2018-07-01T08:24:19.000Z</time>
      </trkpt>
      <trkpt lat="47.2283" lon="6.73386">
        <ele>660</ele>
        <time>2018-07-01T08:24:20.000Z</time>
      </trkpt>
      <trkpt lat="47.22831" lon="6.73389">
        <ele>661</ele>
        <time>2018-07-01T08:24:21.000Z</time>
      </trkpt>
      <trkpt lat="47.22832" lon="6.73391">
        <ele>661</ele>
        <time>2018-07-01T08:24:22.000Z</time>
      </trkpt>
      <trkpt lat="47.22833" lon="6.73393">
        <ele>661</ele>
        <time>2018-07-01T08:24:23.000Z</time>
      </trkpt>
      <trkpt lat="47.22835" lon="6.73395">
        <ele>675</ele>
        <time>2018-07-01T08:24:24.000Z</time>
      </trkpt>
      <trkpt lat="47.22836" lon="6.73397">
        <ele>675</ele>
        <time>2018-07-01T08:24:25.000Z</time>
      </trkpt>
      <trkpt lat="47.22837" lon="6.73399">
        <ele>675</ele>
        <time>2018-07-01T08:24:26.000Z</time>
      </trkpt>
      <trkpt lat="47.22837" lon="6.73402">
        <ele>674</ele>
        <time>2018-07-01T08:24:27.000Z</time>
      </trkpt>
      <trkpt lat="47.22838" lon="6.73403">
        <ele>674</ele>
        <time>2018-07-01T08:24:28.000Z</time>
      </trkpt>
      <trkpt lat="47.22839" lon="6.73405">
        <ele>674</ele>
        <time>2018-07-01T08:24:29.000Z</time>
      </trkpt>
      <trkpt lat="47.2284" lon="6.73407">
        <ele>674</ele>
        <time>2018-07-01T08:24:30.000Z</time>
      </trkpt>
      <trkpt lat="47.2284" lon="6.73409">
        <ele>673</ele>
        <time>2018-07-01T08:24:31.000Z</time>
      </trkpt>
      <trkpt lat="47.22841" lon="6.73411">
        <ele>673</ele>
        <time>2018-07-01T08:24:32.000Z</time>
      </trkpt>
      <trkpt lat="47.22841" lon="6.73412">
        <ele>673</ele>
        <time>2018-07-01T08:24:33.000Z</time>
      </trkpt>
      <trkpt lat="47.22842" lon="6.73414">
        <ele>673</ele>
        <time>2018-07-01T08:24:34.000Z</time>
      </trkpt>
      <trkpt lat="47.22842" lon="6.73416">
        <ele>673</ele>
        <time>2018-07-01T08:24:35.000Z</time>
      </trkpt>
      <trkpt lat="47.22842" lon="6.73419">
        <ele>677</ele>
        <time>2018-07-01T08:24:36.000Z</time>
      </trkpt>
      <trkpt lat="47.22843" lon="6.7342">
        <ele>678</ele>
        <time>2018-07-01T08:24:37.000Z</time>
      </trkpt>
      <trkpt lat="47.22843" lon="6.73422">
        <ele>678</ele>
        <time>2018-07-01T08:24:38.000Z</time>
      </trkpt>
      <trkpt lat="47.22843" lon="6.73423">
        <ele>679</ele>
        <time>2018-07-01T08:24:39.000Z</time>
      </trkpt>
      <trkpt lat="47.22844" lon="6.73425">
        <ele>680</ele>
        <time>2018-07-01T08:24:40.000Z</time>
      </trkpt>
      <trkpt lat="47.22844" lon="6.73426">
        <ele>680</ele>
        <time>2018-07-01T08:24:41.000Z</time>
      </trkpt>
      <trkpt lat="47.22845" lon="6.73427">
        <ele>681</ele>
        <time>2018-07-01T08:24:42.000Z</time>
      </trkpt>
      <trkpt lat="47.22845" lon="6.73428">
        <ele>681</ele>
        <time>2018-07-01T08:24:43.000Z</time>
      </trkpt>
      <trkpt lat="47.22846" lon="6.73429">
        <ele>682</ele>
        <time>2018-07-01T08:24:44.000Z</time>
      </trkpt>
      <trkpt lat="47.22847" lon="6.7343">
        <ele>683</ele>
        <time>2018-07-01T08:24:45.000Z</time>
      </trkpt>
      <trkpt lat="47.22847" lon="6.73432">
        <ele>684</ele>
        <time>2018-07-01T08:24:46.000Z</time>
      </trkpt>
      <trkpt lat="47.22848" lon="6.73433">
        <ele>684</ele>
        <time>2018-07-01T08:24:47.000Z</time>
      </trkpt>
      <trkpt lat="47.22848" lon="6.73433">
        <ele>684</ele>
        <time>2018-07-01T08:24:48.000Z</time>
      </trkpt>
      <trkpt lat="47.22848" lon="6.73434">
        <ele>685</ele>
        <time>2018-07-01T08:24:49.000Z</time>
      </trkpt>
      <trkpt lat="47.22849" lon="6.73435">
        <ele>685</ele>
        <time>2018-07-01T08:24:50.000Z</time>
      </trkpt>
      <trkpt lat="47.22849" lon="6.73436">
        <ele>685</ele>
        <time>2018-07-01T08:24:51.000Z</time>
      </trkpt>
      <trkpt lat="47.2285" lon="6.73437">
        <ele>686</ele>
        <time>2018-07-01T08:24:52.000Z</time>
      </trkpt>
      <trkpt lat="47.22851" lon="6.73437">
        <ele>686</ele>
        <time>2018-07-01T08:24:53.000Z</time>
      </trkpt>
      <trkpt lat="47.22851" lon="6.73438">
        <ele>687</ele>
        <time>2018-07-01T08:24:54.000Z</time>
      </trkpt>
      <trkpt lat="47.22853" lon="6.73439">
        <ele>687</ele>
        <time>2018-07-01T08:24:55.000Z</time>
      </trkpt>
      <trkpt lat="47.22854" lon="6.7344">
        <ele>688</ele>
        <time>2018-07-01T08:24:56.000Z</time>
      </trkpt>
      <trkpt lat="47.22855" lon="6.73441">
        <ele>688</ele>
        <time>2018-07-01T08:24:57.000Z</time>
      </trkpt>
      <trkpt lat="47.22856" lon="6.73442">
        <ele>689</ele>
        <time>2018-07-01T08:24:58.000Z</time>
      </trkpt>
      <trkpt lat="47.22858" lon="6.73443">
        <ele>689</ele>
        <time>2018-07-01T08:24:59.000Z</time>
      </trkpt>
      <trkpt lat="47.22859" lon="6.73444">
        <ele>690</ele>
        <time>2018-07-01T08:25:00.000Z</time>
      </trkpt>
      <trkpt lat="47.2286" lon="6.73445">
        <ele>690</ele>
        <time>2018-07-01T08:25:01.000Z</time>
      </trkpt>
      <trkpt lat="47.2286" lon="6.73446">
        <ele>690</ele>
        <time>2018-07-01T08:25:02.000Z</time>
      </trkpt>
      <trkpt lat="47.22861" lon="6.73447">
        <ele>690</ele>
        <time>2018-07-01T08:25:03.000Z</time>
      </trkpt>
      <trkpt lat="47.22861" lon="6.73448">
        <ele>691</ele>
        <time>2018-07-01T08:25:04.000Z</time>
      </trkpt>
      <trkpt lat="47.22862" lon="6.73448">
        <ele>691</ele>
        <time>2018-07-01T08:25:05.000Z</time>
      </trkpt>
      <trkpt lat="47.22863" lon="6.73449">
        <ele>691</ele>
        <time>2018-07-01T08:25:06.000Z</time>
      </trkpt>
      <trkpt lat="47.22864" lon="6.7345">
        <ele>691</ele>
        <time>2018-07-01T08:25:07.000Z</time>
      </trkpt>
      <trkpt lat="47.22864" lon="6.7345">
        <ele>692</ele>
        <time>2018-07-01T08:25:08.000Z</time>
      </trkpt>
      <trkpt lat="47.22865" lon="6.73451">
        <ele>692</ele>
        <time>2018-07-01T08:25:09.000Z</time>
      </trkpt>
      <trkpt lat="47.22866" lon="6.73452">
        <ele>692</ele>
        <time>2018-07-01T08:25:10.000Z</time>
      </trkpt>
      <trkpt lat="47.22867" lon="6.73453">
        <ele>692</ele>
        <time>2018-07-01T08:25:11.000Z</time>
      </trkpt>
      <trkpt lat="47.22867" lon="6.73454">
        <ele>692</ele>
        <time>2018-07-01T08:25:12.000Z</time>
      </trkpt>
      <trkpt lat="47.22868" lon="6.73455">
        <ele>693</ele>
        <time>2018-07-01T08:25:13.000Z</time>
      </trkpt>
      <trkpt lat="47.22869" lon="6.73455">
        <ele>693</ele>
        <time>2018-07-01T08:25:14.000Z</time>
      </trkpt>
      <trkpt lat="47.2287" lon="6.73456">
        <ele>693</ele>
        <time>2018-07-01T08:25:15.000Z</time>
      </trkpt>
      <trkpt lat="47.2287" lon="6.73456">
        <ele>693</ele>
        <time>2018-07-01T08:25:16.000Z</time>
      </trkpt>
      <trkpt lat="47.22871" lon="6.73456">
        <ele>693</ele>
        <time>2018-07-01T08:25:17.000Z</time>
      </trkpt>
      <trkpt lat="47.22872" lon="6.73457">
        <ele>693</ele>
        <time>2018-07-01T08:25:18.000Z</time>
      </trkpt>
      <trkpt lat="47.22873" lon="6.73457">
        <ele>694</ele>
        <time>2018-07-01T08:25:19.000Z</time>
      </trkpt>
      <trkpt lat="47.22873" lon="6.73458">
        <ele>694</ele>
        <time>2018-07-01T08:25:20.000Z</time>
      </trkpt>
      <trkpt lat="47.22874" lon="6.73458">
        <ele>694</ele>
        <time>2018-07-01T08:25:21.000Z</time>
      </trkpt>
      <trkpt lat="47.22875" lon="6.73459">
        <ele>694</ele>
        <time>2018-07-01T08:25:22.000Z</time>
      </trkpt>
      <trkpt lat="47.22876" lon="6.7346">
        <ele>694</ele>
        <time>2018-07-01T08:25:23.000Z</time>
      </trkpt>
      <trkpt lat="47.22877" lon="6.7346">
        <ele>694</ele>
        <time>2018-07-01T08:25:24.000Z</time>
      </trkpt>
      <trkpt lat="47.22878" lon="6.73461">
        <ele>695</ele>
        <time>2018-07-01T08:25:25.000Z</time>
      </trkpt>
      <trkpt lat="47.22879" lon="6.73462">
        <ele>695</ele>
        <time>2018-07-01T08:25:26.000Z</time>
      </trkpt>
      <trkpt lat="47.22879" lon="6.73462">
        <ele>695</ele>
        <time>2018-07-01T08:25:27.000Z</time>
      </trkpt>
      <trkpt lat="47.2288" lon="6.73462">
        <ele>695</ele>
        <time>2018-07-01T08:25:28.000Z</time>
      </trkpt>
      <trkpt lat="47.22881" lon="6.73462">
        <ele>695</ele>
        <time>2018-07-01T08:25:29.000Z</time>
      </trkpt>
      <trkpt lat="47.22882" lon="6.73463">
        <ele>695</ele>
        <time>2018-07-01T08:25:30.000Z</time>
      </trkpt>
      <trkpt lat="47.22883" lon="6.73464">
        <ele>695</ele>
        <time>2018-07-01T08:25:31.000Z</time>
      </trkpt>
      <trkpt lat="47.22884" lon="6.73464">
        <ele>696</ele>
        <time>2018-07-01T08:25:32.000Z</time>
      </trkpt>
      <trkpt lat="47.22885" lon="6.73465">
        <ele>696</ele>
        <time>2018-07-01T08:25:33.000Z</time>
      </trkpt>
      <trkpt lat="47.22886" lon="6.73465">
        <ele>696</ele>
        <time>2018-07-01T08:25:34.000Z</time>
      </trkpt>
      <trkpt lat="47.22886" lon="6.73466">
        <ele>696</ele>
        <time>2018-07-01T08:25:35.000Z</time>
      </trkpt>
      <trkpt lat="47.22887" lon="6.73466">
        <ele>696</ele>
        <time>2018-07-01T08:25:36.000Z</time>
      </trkpt>
      <trkpt lat="47.22888" lon="6.73467">
        <ele>696</ele>
        <time>2018-07-01T08:25:37.000Z</time>
      </trkpt>
      <trkpt lat="47.22888" lon="6.73468">
        <ele>696</ele>
        <time>2018-07-01T08:25:38.000Z</time>
      </trkpt>
      <trkpt lat="47.22889" lon="6.73469">
        <ele>697</ele>
        <time>2018-07-01T08:25:39.000Z</time>
      </trkpt>
      <trkpt lat="47.22889" lon="6.7347">
        <ele>697</ele>
        <time>2018-07-01T08:25:40.000Z</time>
      </trkpt>
      <trkpt lat="47.2289" lon="6.73471">
        <ele>697</ele>
        <time>2018-07-01T08:25:41.000Z</time>
      </trkpt>
      <trkpt lat="47.22891" lon="6.73471">
        <ele>697</ele>
        <time>2018-07-01T08:25:42.000Z</time>
      </trkpt>
      <trkpt lat="47.22891" lon="6.73472">
        <ele>697</ele>
        <time>2018-07-01T08:25:43.000Z</time>
      </trkpt>
      <trkpt lat="47.22892" lon="6.73472">
        <ele>697</ele>
        <time>2018-07-01T08:25:44.000Z</time>
      </trkpt>
      <trkpt lat="47.22893" lon="6.73473">
        <ele>697</ele>
        <time>2018-07-01T08:25:45.000Z</time>
      </trkpt>
      <trkpt lat="47.22894" lon="6.73473">
        <ele>697</ele>
        <time>2018-07-01T08:25:46.000Z</time>
      </trkpt>
      <trkpt lat="47.22895" lon="6.73474">
        <ele>698</ele>
        <time>2018-07-01T08:25:47.000Z</time>
      </trkpt>
      <trkpt lat="47.22896" lon="6.73474">
        <ele>698</ele>
        <time>2018-07-01T08:25:48.000Z</time>
      </trkpt>
      <trkpt lat="47.22897" lon="6.73476">
        <ele>698</ele>
        <time>2018-07-01T08:25:49.000Z</time>
      </trkpt>
      <trkpt lat="47.22897" lon="6.73477">
        <ele>698</ele>
        <time>2018-07-01T08:25:50.000Z</time>
      </trkpt>
      <trkpt lat="47.22898" lon="6.73478">
        <ele>698</ele>
        <time>2018-07-01T08:25:51.000Z</time>
      </trkpt>
      <trkpt lat="47.22898" lon="6.73479">
        <ele>698</ele>
        <time>2018-07-01T08:25:52.000Z</time>
      </trkpt>
      <trkpt lat="47.22899" lon="6.73479">
        <ele>699</ele>
        <time>2018-07-01T08:25:53.000Z</time>
      </trkpt>
      <trkpt lat="47.22899" lon="6.7348">
        <ele>699</ele>
        <time>2018-07-01T08:25:54.000Z</time>
      </trkpt>
      <trkpt lat="47.229" lon="6.73481">
        <ele>699</ele>
        <time>2018-07-01T08:25:55.000Z</time>
      </trkpt>
      <trkpt lat="47.229" lon="6.73482">
        <ele>699</ele>
        <time>2018-07-01T08:25:56.000Z</time>
      </trkpt>
      <trkpt lat="47.22901" lon="6.73483">
        <ele>699</ele>
        <time>2018-07-01T08:25:57.000Z</time>
      </trkpt>
      <trkpt lat="47.22902" lon="6.73484">
        <ele>700</ele>
        <time>2018-07-01T08:25:58.000Z</time>
      </trkpt>
      <trkpt lat="47.22903" lon="6.73485">
        <ele>700</ele>
        <time>2018-07-01T08:25:59.000Z</time>
      </trkpt>
      <trkpt lat="47.22904" lon="6.73486">
        <ele>700</ele>
        <time>2018-07-01T08:26:00.000Z</time>
      </trkpt>
      <trkpt lat="47.22905" lon="6.73487">
        <ele>700</ele>
        <time>2018-07-01T08:26:01.000Z</time>
      </trkpt>
      <trkpt lat="47.22906" lon="6.73488">
        <ele>701</ele>
        <time>2018-07-01T08:26:02.000Z</time>
      </trkpt>
      <trkpt lat="47.22907" lon="6.73489">
        <ele>701</ele>
        <time>2018-07-01T08:26:03.000Z</time>
      </trkpt>
      <trkpt lat="47.22907" lon="6.7349">
        <ele>701</ele>
        <time>2018-07-01T08:26:04.000Z</time>
      </trkpt>
      <trkpt lat="47.22908" lon="6.73491">
        <ele>702</ele>
        <time>2018-07-01T08:26:05.000Z</time>
      </trkpt>
      <trkpt lat="47.2291" lon="6.73491">
        <ele>702</ele>
        <time>2018-07-01T08:26:06.000Z</time>
      </trkpt>
      <trkpt lat="47.2291" lon="6.73492">
        <ele>702</ele>
        <time>2018-07-01T08:26:07.000Z</time>
      </trkpt>
      <trkpt lat="47.22911" lon="6.73492">
        <ele>702</ele>
        <time>2018-07-01T08:26:08.000Z</time>
      </trkpt>
      <trkpt lat="47.22912" lon="6.73493">
        <ele>703</ele>
        <time>2018-07-01T08:26:09.000Z</time>
      </trkpt>
      <trkpt lat="47.22913" lon="6.73493">
        <ele>703</ele>
        <time>2018-07-01T08:26:10.000Z</time>
      </trkpt>
      <trkpt lat="47.22914" lon="6.73494">
        <ele>703</ele>
        <time>2018-07-01T08:26:11.000Z</time>
      </trkpt>
      <trkpt lat="47.22914" lon="6.73495">
        <ele>704</ele>
        <time>2018-07-01T08:26:12.000Z</time>
      </trkpt>
      <trkpt lat="47.22915" lon="6.73496">
        <ele>704</ele>
        <time>2018-07-01T08:26:13.000Z</time>
      </trkpt>
      <trkpt lat="47.22916" lon="6.73496">
        <ele>704</ele>
        <time>2018-07-01T08:26:14.000Z</time>
      </trkpt>
      <trkpt lat="47.22916" lon="6.73497">
        <ele>705</ele>
        <time>2018-07-01T08:26:15.000Z</time>
      </trkpt>
      <trkpt lat="47.22917" lon="6.73498">
        <ele>705</ele>
        <time>2018-07-01T08:26:16.000Z</time>
      </trkpt>
      <trkpt lat="47.22917" lon="6.73499">
        <ele>707</ele>
        <time>2018-07-01T08:26:17.000Z</time>
      </trkpt>
      <trkpt lat="47.22918" lon="6.735">
        <ele>707</ele>
        <time>2018-07-01T08:26:18.000Z</time>
      </trkpt>
      <trkpt lat="47.22918" lon="6.735">
        <ele>707</ele>
        <time>2018-07-01T08:26:19.000Z</time>
      </trkpt>
      <trkpt lat="47.22919" lon="6.735">
        <ele>708</ele>
        <time>2018-07-01T08:26:20.000Z</time>
      </trkpt>
      <trkpt lat="47.2292" lon="6.73501">
        <ele>708</ele>
        <time>2018-07-01T08:26:21.000Z</time>
      </trkpt>
      <trkpt lat="47.22921" lon="6.735">
        <ele>709</ele>
        <time>2018-07-01T08:26:22.000Z</time>
      </trkpt>
      <trkpt lat="47.22922" lon="6.735">
        <ele>709</ele>
        <time>2018-07-01T08:26:23.000Z</time>
      </trkpt>
      <trkpt lat="47.22922" lon="6.735">
        <ele>710</ele>
        <time>2018-07-01T08:26:24.000Z</time>
      </trkpt>
      <trkpt lat="47.22923" lon="6.735">
        <ele>710</ele>
        <time>2018-07-01T08:26:25.000Z</time>
      </trkpt>
      <trkpt lat="47.22924" lon="6.735">
        <ele>711</ele>
        <time>2018-07-01T08:26:26.000Z</time>
      </trkpt>
      <trkpt lat="47.22924" lon="6.735">
        <ele>711</ele>
        <time>2018-07-01T08:26:27.000Z</time>
      </trkpt>
      <trkpt lat="47.22925" lon="6.735">
        <ele>711</ele>
        <time>2018-07-01T08:26:28.000Z</time>
      </trkpt>
      <trkpt lat="47.22926" lon="6.735">
        <ele>711</ele>
        <time>2018-07-01T08:26:29.000Z</time>
      </trkpt>
      <trkpt lat="47.22926" lon="6.73499">
        <ele>712</ele>
        <time>2018-07-01T08:26:30.000Z</time>
      </trkpt>
      <trkpt lat="47.22927" lon="6.73499">
        <ele>712</ele>
        <time>2018-07-01T08:26:31.000Z</time>
      </trkpt>
      <trkpt lat="47.22928" lon="6.73499">
        <ele>712</ele>
        <time>2018-07-01T08:26:32.000Z</time>
      </trkpt>
      <trkpt lat="47.22929" lon="6.73498">
        <ele>713</ele>
        <time>2018-07-01T08:26:33.000Z</time>
      </trkpt>
      <trkpt lat="47.22929" lon="6.73498">
        <ele>713</ele>
        <time>2018-07-01T08:26:34.000Z</time>
      </trkpt>
      <trkpt lat="47.2293" lon="6.73497">
        <ele>713</ele>
        <time>2018-07-01T08:26:35.000Z</time>
      </trkpt>
      <trkpt lat="47.22931" lon="6.73497">
        <ele>714</ele>
        <time>2018-07-01T08:26:36.000Z</time>
      </trkpt>
      <trkpt lat="47.22932" lon="6.73496">
        <ele>714</ele>
        <time>2018-07-01T08:26:37.000Z</time>
      </trkpt>
      <trkpt lat="47.22933" lon="6.73495">
        <ele>715</ele>
        <time>2018-07-01T08:26:38.000Z</time>
      </trkpt>
      <trkpt lat="47.22934" lon="6.73495">
        <ele>715</ele>
        <time>2018-07-01T08:26:39.000Z</time>
      </trkpt>
      <trkpt lat="47.22936" lon="6.73495">
        <ele>716</ele>
        <time>2018-07-01T08:26:40.000Z</time>
      </trkpt>
      <trkpt lat="47.22937" lon="6.73495">
        <ele>716</ele>
        <time>2018-07-01T08:26:41.000Z</time>
      </trkpt>
      <trkpt lat="47.22938" lon="6.73495">
        <ele>717</ele>
        <time>2018-07-01T08:26:42.000Z</time>
      </trkpt>
      <trkpt lat="47.22939" lon="6.73495">
        <ele>717</ele>
        <time>2018-07-01T08:26:43.000Z</time>
      </trkpt>
      <trkpt lat="47.2294" lon="6.73495">
        <ele>717</ele>
        <time>2018-07-01T08:26:44.000Z</time>
      </trkpt>
      <trkpt lat="47.22941" lon="6.73495">
        <ele>718</ele>
        <time>2018-07-01T08:26:45.000Z</time>
      </trkpt>
      <trkpt lat="47.22942" lon="6.73496">
        <ele>718</ele>
        <time>2018-07-01T08:26:46.000Z</time>
      </trkpt>
      <trkpt lat="47.22943" lon="6.73496">
        <ele>718</ele>
        <time>2018-07-01T08:26:47.000Z</time>
      </trkpt>
      <trkpt lat="47.22943" lon="6.73496">
        <ele>718</ele>
        <time>2018-07-01T08:26:48.000Z</time>
      </trkpt>
      <trkpt lat="47.22944" lon="6.73497">
        <ele>719</ele>
        <time>2018-07-01T08:26:49.000Z</time>
      </trkpt>
      <trkpt lat="47.22945" lon="6.73497">
        <ele>719</ele>
        <time>2018-07-01T08:26:50.000Z</time>
      </trkpt>
      <trkpt lat="47.22946" lon="6.73498">
        <ele>719</ele>
        <time>2018-07-01T08:26:51.000Z</time>
      </trkpt>
      <trkpt lat="47.22946" lon="6.73499">
        <ele>719</ele>
        <time>2018-07-01T08:26:52.000Z</time>
      </trkpt>
      <trkpt lat="47.22946" lon="6.735">
        <ele>719</ele>
        <time>2018-07-01T08:26:53.000Z</time>
      </trkpt>
      <trkpt lat="47.22946" lon="6.73501">
        <ele>719</ele>
        <time>2018-07-01T08:26:54.000Z</time>
      </trkpt>
      <trkpt lat="47.22946" lon="6.73503">
        <ele>719</ele>
        <time>2018-07-01T08:26:55.000Z</time>
      </trkpt>
      <trkpt lat="47.22946" lon="6.73504">
        <ele>719</ele>
        <time>2018-07-01T08:26:56.000Z</time>
      </trkpt>
      <trkpt lat="47.22946" lon="6.73506">
        <ele>719</ele>
        <time>2018-07-01T08:26:57.000Z</time>
      </trkpt>
      <trkpt lat="47.22946" lon="6.73507">
        <ele>720</ele>
        <time>2018-07-01T08:26:58.000Z</time>
      </trkpt>
      <trkpt lat="47.22946" lon="6.73508">
        <ele>720</ele>
        <time>2018-07-01T08:26:59.000Z</time>
      </trkpt>
      <trkpt lat="47.22947" lon="6.7351">
        <ele>720</ele>
        <time>2018-07-01T08:27:00.000Z</time>
      </trkpt>
      <trkpt lat="47.22947" lon="6.73511">
        <ele>720</ele>
        <time>2018-07-01T08:27:01.000Z</time>
      </trkpt>
      <trkpt lat="47.22948" lon="6.73511">
        <ele>720</ele>
        <time>2018-07-01T08:27:02.000Z</time>
      </trkpt>
      <trkpt lat="47.22949" lon="6.73512">
        <ele>721</ele>
        <time>2018-07-01T08:27:03.000Z</time>
      </trkpt>
      <trkpt lat="47.2295" lon="6.73512">
        <ele>721</ele>
        <time>2018-07-01T08:27:04.000Z</time>
      </trkpt>
      <trkpt lat="47.22951" lon="6.73513">
        <ele>721</ele>
        <time>2018-07-01T08:27:05.000Z</time>
      </trkpt>
      <trkpt lat="47.22951" lon="6.73513">
        <ele>721</ele>
        <time>2018-07-01T08:27:06.000Z</time>
      </trkpt>
      <trkpt lat="47.22952" lon="6.73513">
        <ele>721</ele>
        <time>2018-07-01T08:27:07.000Z</time>
      </trkpt>
      <trkpt lat="47.22953" lon="6.73513">
        <ele>722</ele>
        <time>2018-07-01T08:27:08.000Z</time>
      </trkpt>
      <trkpt lat="47.22953" lon="6.73512">
        <ele>722</ele>
        <time>2018-07-01T08:27:09.000Z</time>
      </trkpt>
      <trkpt lat="47.22954" lon="6.73512">
        <ele>722</ele>
        <time>2018-07-01T08:27:10.000Z</time>
      </trkpt>
      <trkpt lat="47.22955" lon="6.73512">
        <ele>722</ele>
        <time>2018-07-01T08:27:11.000Z</time>
      </trkpt>
      <trkpt lat="47.22955" lon="6.73512">
        <ele>722</ele>
        <time>2018-07-01T08:27:12.000Z</time>
      </trkpt>
      <trkpt lat="47.22956" lon="6.73512">
        <ele>723</ele>
        <time>2018-07-01T08:27:13.000Z</time>
      </trkpt>
      <trkpt lat="47.22957" lon="6.73512">
        <ele>723</ele>
        <time>2018-07-01T08:27:14.000Z</time>
      </trkpt>
      <trkpt lat="47.22958" lon="6.73511">
        <ele>723</ele>
        <time>2018-07-01T08:27:15.000Z</time>
      </trkpt>
      <trkpt lat="47.22959" lon="6.73511">
        <ele>723</ele>
        <time>2018-07-01T08:27:16.000Z</time>
      </trkpt>
      <trkpt lat="47.22959" lon="6.73511">
        <ele>723</ele>
        <time>2018-07-01T08:27:17.000Z</time>
      </trkpt>
      <trkpt lat="47.2296" lon="6.7351">
        <ele>724</ele>
        <time>2018-07-01T08:27:18.000Z</time>
      </trkpt>
      <trkpt lat="47.22961" lon="6.7351">
        <ele>724</ele>
        <time>2018-07-01T08:27:19.000Z</time>
      </trkpt>
      <trkpt lat="47.22962" lon="6.7351">
        <ele>724</ele>
        <time>2018-07-01T08:27:20.000Z</time>
      </trkpt>
      <trkpt lat="47.22963" lon="6.73509">
        <ele>724</ele>
        <time>2018-07-01T08:27:21.000Z</time>
      </trkpt>
      <trkpt lat="47.22964" lon="6.73508">
        <ele>724</ele>
        <time>2018-07-01T08:27:22.000Z</time>
      </trkpt>
      <trkpt lat="47.22965" lon="6.73509">
        <ele>725</ele>
        <time>2018-07-01T08:27:23.000Z</time>
      </trkpt>
      <trkpt lat="47.22966" lon="6.73509">
        <ele>725</ele>
        <time>2018-07-01T08:27:24.000Z</time>
      </trkpt>
      <trkpt lat="47.22967" lon="6.7351">
        <ele>725</ele>
        <time>2018-07-01T08:27:25.000Z</time>
      </trkpt>
      <trkpt lat="47.22967" lon="6.7351">
        <ele>725</ele>
        <time>2018-07-01T08:27:26.000Z</time>
      </trkpt>
      <trkpt lat="47.22967" lon="6.73511">
        <ele>725</ele>
        <time>2018-07-01T08:27:27.000Z</time>
      </trkpt>
      <trkpt lat="47.22968" lon="6.73512">
        <ele>725</ele>
        <time>2018-07-01T08:27:28.000Z</time>
      </trkpt>
      <trkpt lat="47.22969" lon="6.73512">
        <ele>726</ele>
        <time>2018-07-01T08:27:29.000Z</time>
      </trkpt>
      <trkpt lat="47.22969" lon="6.73513">
        <ele>726</ele>
        <time>2018-07-01T08:27:30.000Z</time>
      </trkpt>
      <trkpt lat="47.2297" lon="6.73514">
        <ele>726</ele>
        <time>2018-07-01T08:27:31.000Z</time>
      </trkpt>
      <trkpt lat="47.2297" lon="6.73514">
        <ele>726</ele>
        <time>2018-07-01T08:27:32.000Z</time>
      </trkpt>
      <trkpt lat="47.22971" lon="6.73514">
        <ele>726</ele>
        <time>2018-07-01T08:27:33.000Z</time>
      </trkpt>
      <trkpt lat="47.22972" lon="6.73515">
        <ele>726</ele>
        <time>2018-07-01T08:27:34.000Z</time>
      </trkpt>
      <trkpt lat="47.22972" lon="6.73515">
        <ele>726</ele>
        <time>2018-07-01T08:27:35.000Z</time>
      </trkpt>
      <trkpt lat="47.22973" lon="6.73516">
        <ele>726</ele>
        <time>2018-07-01T08:27:36.000Z</time>
      </trkpt>
      <trkpt lat="47.22974" lon="6.73517">
        <ele>726</ele>
        <time>2018-07-01T08:27:37.000Z</time>
      </trkpt>
      <trkpt lat="47.22974" lon="6.73518">
        <ele>727</ele>
        <time>2018-07-01T08:27:38.000Z</time>
      </trkpt>
      <trkpt lat="47.22975" lon="6.73518">
        <ele>727</ele>
        <time>2018-07-01T08:27:39.000Z</time>
      </trkpt>
      <trkpt lat="47.22976" lon="6.73519">
        <ele>727</ele>
        <time>2018-07-01T08:27:40.000Z</time>
      </trkpt>
      <trkpt lat="47.22976" lon="6.73519">
        <ele>727</ele>
        <time>2018-07-01T08:27:41.000Z</time>
      </trkpt>
      <trkpt lat="47.22977" lon="6.7352">
        <ele>727</ele>
        <time>2018-07-01T08:27:42.000Z</time>
      </trkpt>
      <trkpt lat="47.22978" lon="6.73521">
        <ele>727</ele>
        <time>2018-07-01T08:27:43.000Z</time>
      </trkpt>
      <trkpt lat="47.22979" lon="6.73522">
        <ele>727</ele>
        <time>2018-07-01T08:27:44.000Z</time>
      </trkpt>
      <trkpt lat="47.22979" lon="6.73523">
        <ele>727</ele>
        <time>2018-07-01T08:27:45.000Z</time>
      </trkpt>
      <trkpt lat="47.2298" lon="6.73523">
        <ele>727</ele>
        <time>2018-07-01T08:27:46.000Z</time>
      </trkpt>
      <trkpt lat="47.22981" lon="6.73525">
        <ele>727</ele>
        <time>2018-07-01T08:27:47.000Z</time>
      </trkpt>
      <trkpt lat="47.22982" lon="6.73525">
        <ele>727</ele>
        <time>2018-07-01T08:27:48.000Z</time>
      </trkpt>
      <trkpt lat="47.22982" lon="6.73526">
        <ele>727</ele>
        <time>2018-07-01T08:27:49.000Z</time>
      </trkpt>
      <trkpt lat="47.22983" lon="6.73528">
        <ele>727</ele>
        <time>2018-07-01T08:27:50.000Z</time>
      </trkpt>
      <trkpt lat="47.22984" lon="6.73529">
        <ele>727</ele>
        <time>2018-07-01T08:27:51.000Z</time>
      </trkpt>
      <trkpt lat="47.22985" lon="6.7353">
        <ele>727</ele>
        <time>2018-07-01T08:27:52.000Z</time>
      </trkpt>
      <trkpt lat="47.22985" lon="6.73531">
        <ele>727</ele>
        <time>2018-07-01T08:27:53.000Z</time>
      </trkpt>
      <trkpt lat="47.22986" lon="6.73531">
        <ele>728</ele>
        <time>2018-07-01T08:27:54.000Z</time>
      </trkpt>
      <trkpt lat="47.22987" lon="6.73532">
        <ele>728</ele>
        <time>2018-07-01T08:27:55.000Z</time>
      </trkpt>
      <trkpt lat="47.22987" lon="6.73533">
        <ele>728</ele>
        <time>2018-07-01T08:27:56.000Z</time>
      </trkpt>
      <trkpt lat="47.22988" lon="6.73534">
        <ele>728</ele>
        <time>2018-07-01T08:27:57.000Z</time>
      </trkpt>
      <trkpt lat="47.22989" lon="6.73534">
        <ele>728</ele>
        <time>2018-07-01T08:27:58.000Z</time>
      </trkpt>
      <trkpt lat="47.2299" lon="6.73535">
        <ele>728</ele>
        <time>2018-07-01T08:27:59.000Z</time>
      </trkpt>
      <trkpt lat="47.22991" lon="6.73535">
        <ele>728</ele>
        <time>2018-07-01T08:28:00.000Z</time>
      </trkpt>
      <trkpt lat="47.22992" lon="6.73536">
        <ele>728</ele>
        <time>2018-07-01T08:28:01.000Z</time>
      </trkpt>
      <trkpt lat="47.22993" lon="6.73538">
        <ele>728</ele>
        <time>2018-07-01T08:28:02.000Z</time>
      </trkpt>
      <trkpt lat="47.22994" lon="6.73539">
        <ele>728</ele>
        <time>2018-07-01T08:28:03.000Z</time>
      </trkpt>
      <trkpt lat="47.22994" lon="6.7354">
        <ele>728</ele>
        <time>2018-07-01T08:28:04.000Z</time>
      </trkpt>
      <trkpt lat="47.22995" lon="6.73541">
        <ele>728</ele>
        <time>2018-07-01T08:28:05.000Z</time>
      </trkpt>
      <trkpt lat="47.22996" lon="6.73542">
        <ele>728</ele>
        <time>2018-07-01T08:28:06.000Z</time>
      </trkpt>
      <trkpt lat="47.22997" lon="6.73543">
        <ele>728</ele>
        <time>2018-07-01T08:28:07.000Z</time>
      </trkpt>
      <trkpt lat="47.22998" lon="6.73544">
        <ele>728</ele>
        <time>2018-07-01T08:28:08.000Z</time>
      </trkpt>
      <trkpt lat="47.23" lon="6.73546">
        <ele>728</ele>
        <time>2018-07-01T08:28:09.000Z</time>
      </trkpt>
      <trkpt lat="47.23001" lon="6.73546">
        <ele>749</ele>
        <time>2018-07-01T08:28:10.000Z</time>
      </trkpt>
      <trkpt lat="47.23001" lon="6.73546">
        <ele>749</ele>
        <time>2018-07-01T08:28:11.000Z</time>
      </trkpt>
      <trkpt lat="47.23002" lon="6.73546">
        <ele>749</ele>
        <time>2018-07-01T08:28:12.000Z</time>
      </trkpt>
      <trkpt lat="47.23003" lon="6.73546">
        <ele>749</ele>
        <time>2018-07-01T08:28:13.000Z</time>
      </trkpt>
      <trkpt lat="47.23003" lon="6.73546">
        <ele>749</ele>
        <time>2018-07-01T08:28:14.000Z</time>
      </trkpt>
      <trkpt lat="47.23004" lon="6.73547">
        <ele>749</ele>
        <time>2018-07-01T08:28:15.000Z</time>
      </trkpt>
      <trkpt lat="47.23004" lon="6.73547">
        <ele>749</ele>
        <time>2018-07-01T08:28:16.000Z</time>
      </trkpt>
      <trkpt lat="47.23005" lon="6.73548">
        <ele>749</ele>
        <time>2018-07-01T08:28:17.000Z</time>
      </trkpt>
      <trkpt lat="47.23005" lon="6.73548">
        <ele>749</ele>
        <time>2018-07-01T08:28:18.000Z</time>
      </trkpt>
      <trkpt lat="47.23006" lon="6.73549">
        <ele>749</ele>
        <time>2018-07-01T08:28:19.000Z</time>
      </trkpt>
      <trkpt lat="47.23007" lon="6.7355">
        <ele>749</ele>
        <time>2018-07-01T08:28:20.000Z</time>
      </trkpt>
      <trkpt lat="47.23007" lon="6.7355">
        <ele>749</ele>
        <time>2018-07-01T08:28:21.000Z</time>
      </trkpt>
      <trkpt lat="47.23008" lon="6.7355">
        <ele>749</ele>
        <time>2018-07-01T08:28:22.000Z</time>
      </trkpt>
      <trkpt lat="47.23009" lon="6.73551">
        <ele>749</ele>
        <time>2018-07-01T08:28:23.000Z</time>
      </trkpt>
      <trkpt lat="47.2301" lon="6.73552">
        <ele>749</ele>
        <time>2018-07-01T08:28:24.000Z</time>
      </trkpt>
      <trkpt lat="47.23011" lon="6.73554">
        <ele>749</ele>
        <time>2018-07-01T08:28:25.000Z</time>
      </trkpt>
      <trkpt lat="47.23012" lon="6.73555">
        <ele>749</ele>
        <time>2018-07-01T08:28:26.000Z</time>
      </trkpt>
      <trkpt lat="47.23013" lon="6.73556">
        <ele>749</ele>
        <time>2018-07-01T08:28:27.000Z</time>
      </trkpt>
      <trkpt lat="47.23014" lon="6.73557">
        <ele>749</ele>
        <time>2018-07-01T08:28:28.000Z</time>
      </trkpt>
      <trkpt lat="47.23015" lon="6.73559">
        <ele>749</ele>
        <time>2018-07-01T08:28:29.000Z</time>
      </trkpt>
      <trkpt lat="47.23016" lon="6.7356">
        <ele>749</ele>
        <time>2018-07-01T08:28:30.000Z</time>
      </trkpt>
      <trkpt lat="47.23017" lon="6.73561">
        <ele>749</ele>
        <time>2018-07-01T08:28:31.000Z</time>
      </trkpt>
      <trkpt lat="47.23018" lon="6.73563">
        <ele>749</ele>
        <time>2018-07-01T08:28:32.000Z</time>
      </trkpt>
      <trkpt lat="47.23019" lon="6.73564">
        <ele>749</ele>
        <time>2018-07-01T08:28:33.000Z</time>
      </trkpt>
      <trkpt lat="47.23019" lon="6.73565">
        <ele>749</ele>
        <time>2018-07-01T08:28:34.000Z</time>
      </trkpt>
      <trkpt lat="47.2302" lon="6.73565">
        <ele>749</ele>
        <time>2018-07-01T08:28:35.000Z</time>
      </trkpt>
      <trkpt lat="47.2302" lon="6.73567">
        <ele>749</ele>
        <time>2018-07-01T08:28:36.000Z</time>
      </trkpt>
      <trkpt lat="47.23021" lon="6.73568">
        <ele>749</ele>
        <time>2018-07-01T08:28:37.000Z</time>
      </trkpt>
      <trkpt lat="47.23022" lon="6.73569">
        <ele>749</ele>
        <time>2018-07-01T08:28:38.000Z</time>
      </trkpt>
      <trkpt lat="47.23023" lon="6.73571">
        <ele>749</ele>
        <time>2018-07-01T08:28:39.000Z</time>
      </trkpt>
      <trkpt lat="47.23024" lon="6.73572">
        <ele>749</ele>
        <time>2018-07-01T08:28:40.000Z</time>
      </trkpt>
      <trkpt lat="47.23025" lon="6.73573">
        <ele>750</ele>
        <time>2018-07-01T08:28:41.000Z</time>
      </trkpt>
      <trkpt lat="47.23026" lon="6.73574">
        <ele>750</ele>
        <time>2018-07-01T08:28:42.000Z</time>
      </trkpt>
      <trkpt lat="47.23027" lon="6.73575">
        <ele>750</ele>
        <time>2018-07-01T08:28:43.000Z</time>
      </trkpt>
      <trkpt lat="47.23028" lon="6.73576">
        <ele>750</ele>
        <time>2018-07-01T08:28:44.000Z</time>
      </trkpt>
      <trkpt lat="47.23029" lon="6.73577">
        <ele>751</ele>
        <time>2018-07-01T08:28:45.000Z</time>
      </trkpt>
      <trkpt lat="47.2303" lon="6.73578">
        <ele>751</ele>
        <time>2018-07-01T08:28:46.000Z</time>
      </trkpt>
      <trkpt lat="47.23031" lon="6.73579">
        <ele>751</ele>
        <time>2018-07-01T08:28:47.000Z</time>
      </trkpt>
      <trkpt lat="47.23031" lon="6.73581">
        <ele>752</ele>
        <time>2018-07-01T08:28:48.000Z</time>
      </trkpt>
      <trkpt lat="47.23032" lon="6.73582">
        <ele>752</ele>
        <time>2018-07-01T08:28:49.000Z</time>
      </trkpt>
      <trkpt lat="47.23033" lon="6.73583">
        <ele>752</ele>
        <time>2018-07-01T08:28:50.000Z</time>
      </trkpt>
      <trkpt lat="47.23033" lon="6.73584">
        <ele>748</ele>
        <time>2018-07-01T08:28:51.000Z</time>
      </trkpt>
      <trkpt lat="47.23034" lon="6.73585">
        <ele>749</ele>
        <time>2018-07-01T08:28:52.000Z</time>
      </trkpt>
      <trkpt lat="47.23034" lon="6.73587">
        <ele>749</ele>
        <time>2018-07-01T08:28:53.000Z</time>
      </trkpt>
      <trkpt lat="47.23035" lon="6.73588">
        <ele>749</ele>
        <time>2018-07-01T08:28:54.000Z</time>
      </trkpt>
      <trkpt lat="47.23035" lon="6.73589">
        <ele>749</ele>
        <time>2018-07-01T08:28:55.000Z</time>
      </trkpt>
      <trkpt lat="47.23036" lon="6.73591">
        <ele>749</ele>
        <time>2018-07-01T08:28:56.000Z</time>
      </trkpt>
      <trkpt lat="47.23036" lon="6.73592">
        <ele>749</ele>
        <time>2018-07-01T08:28:57.000Z</time>
      </trkpt>
      <trkpt lat="47.23036" lon="6.73594">
        <ele>749</ele>
        <time>2018-07-01T08:28:58.000Z</time>
      </trkpt>
      <trkpt lat="47.23036" lon="6.73595">
        <ele>750</ele>
        <time>2018-07-01T08:28:59.000Z</time>
      </trkpt>
      <trkpt lat="47.23036" lon="6.73596">
        <ele>750</ele>
        <time>2018-07-01T08:29:00.000Z</time>
      </trkpt>
      <trkpt lat="47.23036" lon="6.73597">
        <ele>750</ele>
        <time>2018-07-01T08:29:01.000Z</time>
      </trkpt>
      <trkpt lat="47.23036" lon="6.73598">
        <ele>750</ele>
        <time>2018-07-01T08:29:02.000Z</time>
      </trkpt>
      <trkpt lat="47.23036" lon="6.73599">
        <ele>750</ele>
        <time>2018-07-01T08:29:03.000Z</time>
      </trkpt>
      <trkpt lat="47.23036" lon="6.73601">
        <ele>750</ele>
        <time>2018-07-01T08:29:04.000Z</time>
      </trkpt>
      <trkpt lat="47.23036" lon="6.73602">
        <ele>750</ele>
        <time>2018-07-01T08:29:05.000Z</time>
      </trkpt>
      <trkpt lat="47.23036" lon="6.73603">
        <ele>750</ele>
        <time>2018-07-01T08:29:06.000Z</time>
      </trkpt>
      <trkpt lat="47.23036" lon="6.73604">
        <ele>750</ele>
        <time>2018-07-01T08:29:07.000Z</time>
      </trkpt>
      <trkpt lat="47.23036" lon="6.73606">
        <ele>750</ele>
        <time>2018-07-01T08:29:08.000Z</time>
      </trkpt>
      <trkpt lat="47.23036" lon="6.73607">
        <ele>750</ele>
        <time>2018-07-01T08:29:09.000Z</time>
      </trkpt>
      <trkpt lat="47.23036" lon="6.73608">
        <ele>750</ele>
        <time>2018-07-01T08:29:10.000Z</time>
      </trkpt>
      <trkpt lat="47.23036" lon="6.7361">
        <ele>750</ele>
        <time>2018-07-01T08:29:11.000Z</time>
      </trkpt>
      <trkpt lat="47.23036" lon="6.73611">
        <ele>750</ele>
        <time>2018-07-01T08:29:12.000Z</time>
      </trkpt>
      <trkpt lat="47.23037" lon="6.73612">
        <ele>750</ele>
        <time>2018-07-01T08:29:13.000Z</time>
      </trkpt>
      <trkpt lat="47.23037" lon="6.73613">
        <ele>750</ele>
        <time>2018-07-01T08:29:14.000Z</time>
      </trkpt>
      <trkpt lat="47.23038" lon="6.73613">
        <ele>751</ele>
        <time>2018-07-01T08:29:15.000Z</time>
      </trkpt>
      <trkpt lat="47.23039" lon="6.73614">
        <ele>751</ele>
        <time>2018-07-01T08:29:16.000Z</time>
      </trkpt>
      <trkpt lat="47.2304" lon="6.73615">
        <ele>751</ele>
        <time>2018-07-01T08:29:17.000Z</time>
      </trkpt>
      <trkpt lat="47.23041" lon="6.73616">
        <ele>751</ele>
        <time>2018-07-01T08:29:18.000Z</time>
      </trkpt>
      <trkpt lat="47.23041" lon="6.73617">
        <ele>751</ele>
        <time>2018-07-01T08:29:19.000Z</time>
      </trkpt>
      <trkpt lat="47.23042" lon="6.73618">
        <ele>752</ele>
        <time>2018-07-01T08:29:20.000Z</time>
      </trkpt>
      <trkpt lat="47.23043" lon="6.73619">
        <ele>752</ele>
        <time>2018-07-01T08:29:21.000Z</time>
      </trkpt>
      <trkpt lat="47.23044" lon="6.73621">
        <ele>752</ele>
        <time>2018-07-01T08:29:22.000Z</time>
      </trkpt>
      <trkpt lat="47.23045" lon="6.73622">
        <ele>752</ele>
        <time>2018-07-01T08:29:23.000Z</time>
      </trkpt>
      <trkpt lat="47.23046" lon="6.73622">
        <ele>752</ele>
        <time>2018-07-01T08:29:24.000Z</time>
      </trkpt>
      <trkpt lat="47.23047" lon="6.73623">
        <ele>752</ele>
        <time>2018-07-01T08:29:25.000Z</time>
      </trkpt>
      <trkpt lat="47.23048" lon="6.73624">
        <ele>753</ele>
        <time>2018-07-01T08:29:26.000Z</time>
      </trkpt>
      <trkpt lat="47.2305" lon="6.73625">
        <ele>753</ele>
        <time>2018-07-01T08:29:27.000Z</time>
      </trkpt>
      <trkpt lat="47.23051" lon="6.73626">
        <ele>753</ele>
        <time>2018-07-01T08:29:28.000Z</time>
      </trkpt>
      <trkpt lat="47.23052" lon="6.73626">
        <ele>754</ele>
        <time>2018-07-01T08:29:29.000Z</time>
      </trkpt>
      <trkpt lat="47.23054" lon="6.73627">
        <ele>754</ele>
        <time>2018-07-01T08:29:30.000Z</time>
      </trkpt>
      <trkpt lat="47.23055" lon="6.73627">
        <ele>754</ele>
        <time>2018-07-01T08:29:31.000Z</time>
      </trkpt>
      <trkpt lat="47.23057" lon="6.73627">
        <ele>754</ele>
        <time>2018-07-01T08:29:32.000Z</time>
      </trkpt>
      <trkpt lat="47.23058" lon="6.73626">
        <ele>755</ele>
        <time>2018-07-01T08:29:33.000Z</time>
      </trkpt>
      <trkpt lat="47.2306" lon="6.73625">
        <ele>755</ele>
        <time>2018-07-01T08:29:34.000Z</time>
      </trkpt>
      <trkpt lat="47.23061" lon="6.73624">
        <ele>755</ele>
        <time>2018-07-01T08:29:35.000Z</time>
      </trkpt>
      <trkpt lat="47.23062" lon="6.73623">
        <ele>755</ele>
        <time>2018-07-01T08:29:36.000Z</time>
      </trkpt>
      <trkpt lat="47.23063" lon="6.73622">
        <ele>755</ele>
        <time>2018-07-01T08:29:37.000Z</time>
      </trkpt>
      <trkpt lat="47.23064" lon="6.7362">
        <ele>756</ele>
        <time>2018-07-01T08:29:38.000Z</time>
      </trkpt>
      <trkpt lat="47.23065" lon="6.73619">
        <ele>756</ele>
        <time>2018-07-01T08:29:39.000Z</time>
      </trkpt>
      <trkpt lat="47.23066" lon="6.73617">
        <ele>756</ele>
        <time>2018-07-01T08:29:40.000Z</time>
      </trkpt>
      <trkpt lat="47.23067" lon="6.73615">
        <ele>756</ele>
        <time>2018-07-01T08:29:41.000Z</time>
      </trkpt>
      <trkpt lat="47.23067" lon="6.73612">
        <ele>757</ele>
        <time>2018-07-01T08:29:42.000Z</time>
      </trkpt>
      <trkpt lat="47.23067" lon="6.7361">
        <ele>757</ele>
        <time>2018-07-01T08:29:43.000Z</time>
      </trkpt>
      <trkpt lat="47.23067" lon="6.73608">
        <ele>757</ele>
        <time>2018-07-01T08:29:44.000Z</time>
      </trkpt>
      <trkpt lat="47.23067" lon="6.73606">
        <ele>758</ele>
        <time>2018-07-01T08:29:45.000Z</time>
      </trkpt>
      <trkpt lat="47.23067" lon="6.73604">
        <ele>758</ele>
        <time>2018-07-01T08:29:46.000Z</time>
      </trkpt>
      <trkpt lat="47.23067" lon="6.73603">
        <ele>758</ele>
        <time>2018-07-01T08:29:47.000Z</time>
      </trkpt>
      <trkpt lat="47.23067" lon="6.73603">
        <ele>758</ele>
        <time>2018-07-01T08:29:48.000Z</time>
      </trkpt>
      <trkpt lat="47.23067" lon="6.73603">
        <ele>758</ele>
        <time>2018-07-01T08:29:49.000Z</time>
      </trkpt>
      <trkpt lat="47.23067" lon="6.73602">
        <ele>758</ele>
        <time>2018-07-01T08:29:50.000Z</time>
      </trkpt>
      <trkpt lat="47.23067" lon="6.73602">
        <ele>758</ele>
        <time>2018-07-01T08:29:51.000Z</time>
      </trkpt>
      <trkpt lat="47.23067" lon="6.73602">
        <ele>758</ele>
        <time>2018-07-01T08:29:52.000Z</time>
      </trkpt>
      <trkpt lat="47.23067" lon="6.73601">
        <ele>758</ele>
        <time>2018-07-01T08:29:53.000Z</time>
      </trkpt>
      <trkpt lat="47.23067" lon="6.73601">
        <ele>758</ele>
        <time>2018-07-01T08:29:54.000Z</time>
      </trkpt>
      <trkpt lat="47.23067" lon="6.73601">
        <ele>758</ele>
        <time>2018-07-01T08:29:55.000Z</time>
      </trkpt>
      <trkpt lat="47.23067" lon="6.73601">
        <ele>758</ele>
        <time>2018-07-01T08:29:56.000Z</time>
      </trkpt>
      <trkpt lat="47.23067" lon="6.736">
        <ele>758</ele>
        <time>2018-07-01T08:29:57.000Z</time>
      </trkpt>
      <trkpt lat="47.23067" lon="6.736">
        <ele>758</ele>
        <time>2018-07-01T08:29:58.000Z</time>
      </trkpt>
      <trkpt lat="47.23067" lon="6.736">
        <ele>758</ele>
        <time>2018-07-01T08:29:59.000Z</time>
      </trkpt>
      <trkpt lat="47.23067" lon="6.736">
        <ele>758</ele>
        <time>2018-07-01T08:30:00.000Z</time>
      </trkpt>
      <trkpt lat="47.23067" lon="6.73599">
        <ele>759</ele>
        <time>2018-07-01T08:30:01.000Z</time>
      </trkpt>
      <trkpt lat="47.23067" lon="6.73599">
        <ele>759</ele>
        <time>2018-07-01T08:30:02.000Z</time>
      </trkpt>
      <trkpt lat="47.23067" lon="6.73599">
        <ele>759</ele>
        <time>2018-07-01T08:30:03.000Z</time>
      </trkpt>
      <trkpt lat="47.23067" lon="6.73599">
        <ele>759</ele>
        <time>2018-07-01T08:30:04.000Z</time>
      </trkpt>
      <trkpt lat="47.23067" lon="6.73599">
        <ele>759</ele>
        <time>2018-07-01T08:30:05.000Z</time>
      </trkpt>
      <trkpt lat="47.23067" lon="6.73599">
        <ele>759</ele>
        <time>2018-07-01T08:30:06.000Z</time>
      </trkpt>
      <trkpt lat="47.23067" lon="6.73599">
        <ele>759</ele>
        <time>2018-07-01T08:30:07.000Z</time>
      </trkpt>
      <trkpt lat="47.23067" lon="6.73599">
        <ele>759</ele>
        <time>2018-07-01T08:30:08.000Z</time>
      </trkpt>
      <trkpt lat="47.23066" lon="6.73599">
        <ele>758</ele>
        <time>2018-07-01T08:30:09.000Z</time>
      </trkpt>
      <trkpt lat="47.23067" lon="6.73599">
        <ele>759</ele>
        <time>2018-07-01T08:30:10.000Z</time>
      </trkpt>
      <trkpt lat="47.23067" lon="6.73599">
        <ele>759</ele>
        <time>2018-07-01T08:30:11.000Z</time>
      </trkpt>
      <trkpt lat="47.23067" lon="6.73599">
        <ele>759</ele>
        <time>2018-07-01T08:30:12.000Z</time>
      </trkpt>
      <trkpt lat="47.23068" lon="6.73599">
        <ele>759</ele>
        <time>2018-07-01T08:30:13.000Z</time>
      </trkpt>
      <trkpt lat="47.23069" lon="6.73599">
        <ele>759</ele>
        <time>2018-07-01T08:30:14.000Z</time>
      </trkpt>
      <trkpt lat="47.2307" lon="6.736">
        <ele>759</ele>
        <time>2018-07-01T08:30:15.000Z</time>
      </trkpt>
      <trkpt lat="47.23071" lon="6.73601">
        <ele>759</ele>
        <time>2018-07-01T08:30:16.000Z</time>
      </trkpt>
      <trkpt lat="47.23072" lon="6.73602">
        <ele>759</ele>
        <time>2018-07-01T08:30:17.000Z</time>
      </trkpt>
      <trkpt lat="47.23073" lon="6.73604">
        <ele>759</ele>
        <time>2018-07-01T08:30:18.000Z</time>
      </trkpt>
      <trkpt lat="47.23074" lon="6.73605">
        <ele>759</ele>
        <time>2018-07-01T08:30:19.000Z</time>
      </trkpt>
      <trkpt lat="47.23075" lon="6.73607">
        <ele>759</ele>
        <time>2018-07-01T08:30:20.000Z</time>
      </trkpt>
      <trkpt lat="47.23075" lon="6.73609">
        <ele>759</ele>
        <time>2018-07-01T08:30:21.000Z</time>
      </trkpt>
      <trkpt lat="47.23076" lon="6.7361">
        <ele>758</ele>
        <time>2018-07-01T08:30:22.000Z</time>
      </trkpt>
      <trkpt lat="47.23077" lon="6.73612">
        <ele>758</ele>
        <time>2018-07-01T08:30:23.000Z</time>
      </trkpt>
      <trkpt lat="47.23078" lon="6.73614">
        <ele>758</ele>
        <time>2018-07-01T08:30:24.000Z</time>
      </trkpt>
      <trkpt lat="47.23079" lon="6.73616">
        <ele>758</ele>
        <time>2018-07-01T08:30:25.000Z</time>
      </trkpt>
      <trkpt lat="47.23079" lon="6.73617">
        <ele>758</ele>
        <time>2018-07-01T08:30:26.000Z</time>
      </trkpt>
      <trkpt lat="47.2308" lon="6.73619">
        <ele>758</ele>
        <time>2018-07-01T08:30:27.000Z</time>
      </trkpt>
      <trkpt lat="47.23081" lon="6.7362">
        <ele>758</ele>
        <time>2018-07-01T08:30:28.000Z</time>
      </trkpt>
      <trkpt lat="47.23081" lon="6.73621">
        <ele>758</ele>
        <time>2018-07-01T08:30:29.000Z</time>
      </trkpt>
      <trkpt lat="47.23082" lon="6.73623">
        <ele>758</ele>
        <time>2018-07-01T08:30:30.000Z</time>
      </trkpt>
      <trkpt lat="47.23082" lon="6.73624">
        <ele>758</ele>
        <time>2018-07-01T08:30:31.000Z</time>
      </trkpt>
      <trkpt lat="47.23083" lon="6.73625">
        <ele>758</ele>
        <time>2018-07-01T08:30:32.000Z</time>
      </trkpt>
      <trkpt lat="47.23083" lon="6.73627">
        <ele>758</ele>
        <time>2018-07-01T08:30:33.000Z</time>
      </trkpt>
      <trkpt lat="47.23083" lon="6.73629">
        <ele>758</ele>
        <time>2018-07-01T08:30:34.000Z</time>
      </trkpt>
      <trkpt lat="47.23084" lon="6.73631">
        <ele>782</ele>
        <time>2018-07-01T08:30:35.000Z</time>
      </trkpt>
      <trkpt lat="47.23084" lon="6.73633">
        <ele>781</ele>
        <time>2018-07-01T08:30:36.000Z</time>
      </trkpt>
      <trkpt lat="47.23084" lon="6.73636">
        <ele>781</ele>
        <time>2018-07-01T08:30:37.000Z</time>
      </trkpt>
      <trkpt lat="47.23084" lon="6.73638">
        <ele>781</ele>
        <time>2018-07-01T08:30:38.000Z</time>
      </trkpt>
      <trkpt lat="47.23084" lon="6.7364">
        <ele>780</ele>
        <time>2018-07-01T08:30:39.000Z</time>
      </trkpt>
      <trkpt lat="47.23084" lon="6.73642">
        <ele>780</ele>
        <time>2018-07-01T08:30:40.000Z</time>
      </trkpt>
      <trkpt lat="47.23085" lon="6.73644">
        <ele>779</ele>
        <time>2018-07-01T08:30:41.000Z</time>
      </trkpt>
      <trkpt lat="47.23085" lon="6.73646">
        <ele>778</ele>
        <time>2018-07-01T08:30:42.000Z</time>
      </trkpt>
      <trkpt lat="47.23085" lon="6.73648">
        <ele>778</ele>
        <time>2018-07-01T08:30:43.000Z</time>
      </trkpt>
      <trkpt lat="47.23085" lon="6.73649">
        <ele>777</ele>
        <time>2018-07-01T08:30:44.000Z</time>
      </trkpt>
      <trkpt lat="47.23086" lon="6.73651">
        <ele>776</ele>
        <time>2018-07-01T08:30:45.000Z</time>
      </trkpt>
      <trkpt lat="47.23086" lon="6.73653">
        <ele>776</ele>
        <time>2018-07-01T08:30:46.000Z</time>
      </trkpt>
      <trkpt lat="47.23087" lon="6.73655">
        <ele>775</ele>
        <time>2018-07-01T08:30:47.000Z</time>
      </trkpt>
      <trkpt lat="47.23088" lon="6.73657">
        <ele>774</ele>
        <time>2018-07-01T08:30:48.000Z</time>
      </trkpt>
      <trkpt lat="47.23089" lon="6.73659">
        <ele>773</ele>
        <time>2018-07-01T08:30:49.000Z</time>
      </trkpt>
      <trkpt lat="47.2309" lon="6.7366">
        <ele>773</ele>
        <time>2018-07-01T08:30:50.000Z</time>
      </trkpt>
      <trkpt lat="47.23091" lon="6.73661">
        <ele>773</ele>
        <time>2018-07-01T08:30:51.000Z</time>
      </trkpt>
      <trkpt lat="47.23091" lon="6.73663">
        <ele>773</ele>
        <time>2018-07-01T08:30:52.000Z</time>
      </trkpt>
      <trkpt lat="47.23093" lon="6.73664">
        <ele>773</ele>
        <time>2018-07-01T08:30:53.000Z</time>
      </trkpt>
      <trkpt lat="47.23094" lon="6.73665">
        <ele>774</ele>
        <time>2018-07-01T08:30:54.000Z</time>
      </trkpt>
      <trkpt lat="47.23095" lon="6.73666">
        <ele>775</ele>
        <time>2018-07-01T08:30:55.000Z</time>
      </trkpt>
      <trkpt lat="47.23096" lon="6.73667">
        <ele>772</ele>
        <time>2018-07-01T08:30:56.000Z</time>
      </trkpt>
      <trkpt lat="47.23097" lon="6.73668">
        <ele>773</ele>
        <time>2018-07-01T08:30:57.000Z</time>
      </trkpt>
      <trkpt lat="47.23098" lon="6.73669">
        <ele>773</ele>
        <time>2018-07-01T08:30:58.000Z</time>
      </trkpt>
      <trkpt lat="47.231" lon="6.7367">
        <ele>774</ele>
        <time>2018-07-01T08:30:59.000Z</time>
      </trkpt>
      <trkpt lat="47.23101" lon="6.73672">
        <ele>775</ele>
        <time>2018-07-01T08:31:00.000Z</time>
      </trkpt>
      <trkpt lat="47.23102" lon="6.73673">
        <ele>775</ele>
        <time>2018-07-01T08:31:01.000Z</time>
      </trkpt>
      <trkpt lat="47.23104" lon="6.73674">
        <ele>776</ele>
        <time>2018-07-01T08:31:02.000Z</time>
      </trkpt>
      <trkpt lat="47.23105" lon="6.73675">
        <ele>776</ele>
        <time>2018-07-01T08:31:03.000Z</time>
      </trkpt>
      <trkpt lat="47.23105" lon="6.73677">
        <ele>776</ele>
        <time>2018-07-01T08:31:04.000Z</time>
      </trkpt>
      <trkpt lat="47.23106" lon="6.73678">
        <ele>777</ele>
        <time>2018-07-01T08:31:05.000Z</time>
      </trkpt>
      <trkpt lat="47.23107" lon="6.73678">
        <ele>777</ele>
        <time>2018-07-01T08:31:06.000Z</time>
      </trkpt>
      <trkpt lat="47.23107" lon="6.7368">
        <ele>777</ele>
        <time>2018-07-01T08:31:07.000Z</time>
      </trkpt>
      <trkpt lat="47.23108" lon="6.73681">
        <ele>778</ele>
        <time>2018-07-01T08:31:08.000Z</time>
      </trkpt>
      <trkpt lat="47.23108" lon="6.73682">
        <ele>778</ele>
        <time>2018-07-01T08:31:09.000Z</time>
      </trkpt>
      <trkpt lat="47.23109" lon="6.73683">
        <ele>778</ele>
        <time>2018-07-01T08:31:10.000Z</time>
      </trkpt>
      <trkpt lat="47.2311" lon="6.73684">
        <ele>778</ele>
        <time>2018-07-01T08:31:11.000Z</time>
      </trkpt>
      <trkpt lat="47.23111" lon="6.73686">
        <ele>779</ele>
        <time>2018-07-01T08:31:12.000Z</time>
      </trkpt>
      <trkpt lat="47.23111" lon="6.73687">
        <ele>779</ele>
        <time>2018-07-01T08:31:13.000Z</time>
      </trkpt>
      <trkpt lat="47.23112" lon="6.73688">
        <ele>779</ele>
        <time>2018-07-01T08:31:14.000Z</time>
      </trkpt>
      <trkpt lat="47.23113" lon="6.73689">
        <ele>779</ele>
        <time>2018-07-01T08:31:15.000Z</time>
      </trkpt>
      <trkpt lat="47.23113" lon="6.7369">
        <ele>779</ele>
        <time>2018-07-01T08:31:16.000Z</time>
      </trkpt>
      <trkpt lat="47.23114" lon="6.73692">
        <ele>780</ele>
        <time>2018-07-01T08:31:17.000Z</time>
      </trkpt>
      <trkpt lat="47.23115" lon="6.73693">
        <ele>780</ele>
        <time>2018-07-01T08:31:18.000Z</time>
      </trkpt>
      <trkpt lat="47.23116" lon="6.73694">
        <ele>780</ele>
        <time>2018-07-01T08:31:19.000Z</time>
      </trkpt>
      <trkpt lat="47.23117" lon="6.73696">
        <ele>780</ele>
        <time>2018-07-01T08:31:20.000Z</time>
      </trkpt>
      <trkpt lat="47.23118" lon="6.73697">
        <ele>781</ele>
        <time>2018-07-01T08:31:21.000Z</time>
      </trkpt>
      <trkpt lat="47.23119" lon="6.73698">
        <ele>781</ele>
        <time>2018-07-01T08:31:22.000Z</time>
      </trkpt>
      <trkpt lat="47.23119" lon="6.73699">
        <ele>781</ele>
        <time>2018-07-01T08:31:23.000Z</time>
      </trkpt>
      <trkpt lat="47.2312" lon="6.737">
        <ele>781</ele>
        <time>2018-07-01T08:31:24.000Z</time>
      </trkpt>
      <trkpt lat="47.23121" lon="6.73701">
        <ele>781</ele>
        <time>2018-07-01T08:31:25.000Z</time>
      </trkpt>
      <trkpt lat="47.23122" lon="6.73702">
        <ele>781</ele>
        <time>2018-07-01T08:31:26.000Z</time>
      </trkpt>
      <trkpt lat="47.23122" lon="6.73704">
        <ele>781</ele>
        <time>2018-07-01T08:31:27.000Z</time>
      </trkpt>
      <trkpt lat="47.23123" lon="6.73706">
        <ele>781</ele>
        <time>2018-07-01T08:31:28.000Z</time>
      </trkpt>
      <trkpt lat="47.23124" lon="6.73707">
        <ele>782</ele>
        <time>2018-07-01T08:31:29.000Z</time>
      </trkpt>
      <trkpt lat="47.23125" lon="6.73709">
        <ele>782</ele>
        <time>2018-07-01T08:31:30.000Z</time>
      </trkpt>
      <trkpt lat="47.23126" lon="6.7371">
        <ele>782</ele>
        <time>2018-07-01T08:31:31.000Z</time>
      </trkpt>
      <trkpt lat="47.23127" lon="6.73711">
        <ele>782</ele>
        <time>2018-07-01T08:31:32.000Z</time>
      </trkpt>
      <trkpt lat="47.23127" lon="6.73712">
        <ele>782</ele>
        <time>2018-07-01T08:31:33.000Z</time>
      </trkpt>
      <trkpt lat="47.23128" lon="6.73713">
        <ele>782</ele>
        <time>2018-07-01T08:31:34.000Z</time>
      </trkpt>
      <trkpt lat="47.2313" lon="6.73714">
        <ele>782</ele>
        <time>2018-07-01T08:31:35.000Z</time>
      </trkpt>
      <trkpt lat="47.23131" lon="6.73715">
        <ele>783</ele>
        <time>2018-07-01T08:31:36.000Z</time>
      </trkpt>
      <trkpt lat="47.23132" lon="6.73716">
        <ele>783</ele>
        <time>2018-07-01T08:31:37.000Z</time>
      </trkpt>
      <trkpt lat="47.23133" lon="6.73717">
        <ele>783</ele>
        <time>2018-07-01T08:31:38.000Z</time>
      </trkpt>
      <trkpt lat="47.23134" lon="6.73718">
        <ele>783</ele>
        <time>2018-07-01T08:31:39.000Z</time>
      </trkpt>
      <trkpt lat="47.23135" lon="6.73719">
        <ele>783</ele>
        <time>2018-07-01T08:31:40.000Z</time>
      </trkpt>
      <trkpt lat="47.23135" lon="6.73719">
        <ele>783</ele>
        <time>2018-07-01T08:31:41.000Z</time>
      </trkpt>
      <trkpt lat="47.23136" lon="6.7372">
        <ele>783</ele>
        <time>2018-07-01T08:31:42.000Z</time>
      </trkpt>
      <trkpt lat="47.23137" lon="6.7372">
        <ele>784</ele>
        <time>2018-07-01T08:31:43.000Z</time>
      </trkpt>
      <trkpt lat="47.23138" lon="6.73721">
        <ele>784</ele>
        <time>2018-07-01T08:31:44.000Z</time>
      </trkpt>
      <trkpt lat="47.23139" lon="6.73721">
        <ele>784</ele>
        <time>2018-07-01T08:31:45.000Z</time>
      </trkpt>
      <trkpt lat="47.2314" lon="6.73722">
        <ele>784</ele>
        <time>2018-07-01T08:31:46.000Z</time>
      </trkpt>
      <trkpt lat="47.23141" lon="6.73722">
        <ele>784</ele>
        <time>2018-07-01T08:31:47.000Z</time>
      </trkpt>
      <trkpt lat="47.23142" lon="6.73722">
        <ele>784</ele>
        <time>2018-07-01T08:31:48.000Z</time>
      </trkpt>
      <trkpt lat="47.23143" lon="6.73722">
        <ele>784</ele>
        <time>2018-07-01T08:31:49.000Z</time>
      </trkpt>
      <trkpt lat="47.23144" lon="6.73722">
        <ele>785</ele>
        <time>2018-07-01T08:31:50.000Z</time>
      </trkpt>
      <trkpt lat="47.23145" lon="6.73722">
        <ele>785</ele>
        <time>2018-07-01T08:31:51.000Z</time>
      </trkpt>
      <trkpt lat="47.23145" lon="6.73722">
        <ele>785</ele>
        <time>2018-07-01T08:31:52.000Z</time>
      </trkpt>
      <trkpt lat="47.23146" lon="6.73722">
        <ele>785</ele>
        <time>2018-07-01T08:31:53.000Z</time>
      </trkpt>
      <trkpt lat="47.23147" lon="6.73722">
        <ele>785</ele>
        <time>2018-07-01T08:31:54.000Z</time>
      </trkpt>
      <trkpt lat="47.23148" lon="6.73722">
        <ele>785</ele>
        <time>2018-07-01T08:31:55.000Z</time>
      </trkpt>
      <trkpt lat="47.23149" lon="6.73722">
        <ele>785</ele>
        <time>2018-07-01T08:31:56.000Z</time>
      </trkpt>
      <trkpt lat="47.23149" lon="6.73722">
        <ele>785</ele>
        <time>2018-07-01T08:31:57.000Z</time>
      </trkpt>
      <trkpt lat="47.2315" lon="6.73722">
        <ele>786</ele>
        <time>2018-07-01T08:31:58.000Z</time>
      </trkpt>
      <trkpt lat="47.23151" lon="6.73722">
        <ele>786</ele>
        <time>2018-07-01T08:31:59.000Z</time>
      </trkpt>
      <trkpt lat="47.23152" lon="6.73722">
        <ele>786</ele>
        <time>2018-07-01T08:32:00.000Z</time>
      </trkpt>
      <trkpt lat="47.23153" lon="6.73722">
        <ele>786</ele>
        <time>2018-07-01T08:32:01.000Z</time>
      </trkpt>
      <trkpt lat="47.23154" lon="6.73722">
        <ele>786</ele>
        <time>2018-07-01T08:32:02.000Z</time>
      </trkpt>
      <trkpt lat="47.23154" lon="6.73722">
        <ele>786</ele>
        <time>2018-07-01T08:32:03.000Z</time>
      </trkpt>
      <trkpt lat="47.23155" lon="6.73722">
        <ele>786</ele>
        <time>2018-07-01T08:32:04.000Z</time>
      </trkpt>
      <trkpt lat="47.23155" lon="6.73722">
        <ele>786</ele>
        <time>2018-07-01T08:32:05.000Z</time>
      </trkpt>
      <trkpt lat="47.23156" lon="6.73721">
        <ele>786</ele>
        <time>2018-07-01T08:32:06.000Z</time>
      </trkpt>
      <trkpt lat="47.23157" lon="6.73721">
        <ele>786</ele>
        <time>2018-07-01T08:32:07.000Z</time>
      </trkpt>
      <trkpt lat="47.23158" lon="6.73721">
        <ele>786</ele>
        <time>2018-07-01T08:32:08.000Z</time>
      </trkpt>
      <trkpt lat="47.23159" lon="6.7372">
        <ele>787</ele>
        <time>2018-07-01T08:32:09.000Z</time>
      </trkpt>
      <trkpt lat="47.23159" lon="6.7372">
        <ele>787</ele>
        <time>2018-07-01T08:32:10.000Z</time>
      </trkpt>
      <trkpt lat="47.2316" lon="6.73719">
        <ele>787</ele>
        <time>2018-07-01T08:32:11.000Z</time>
      </trkpt>
      <trkpt lat="47.23161" lon="6.73718">
        <ele>787</ele>
        <time>2018-07-01T08:32:12.000Z</time>
      </trkpt>
      <trkpt lat="47.23162" lon="6.73717">
        <ele>787</ele>
        <time>2018-07-01T08:32:13.000Z</time>
      </trkpt>
      <trkpt lat="47.23163" lon="6.73717">
        <ele>787</ele>
        <time>2018-07-01T08:32:14.000Z</time>
      </trkpt>
      <trkpt lat="47.23164" lon="6.73716">
        <ele>787</ele>
        <time>2018-07-01T08:32:15.000Z</time>
      </trkpt>
      <trkpt lat="47.23166" lon="6.73716">
        <ele>787</ele>
        <time>2018-07-01T08:32:16.000Z</time>
      </trkpt>
      <trkpt lat="47.23166" lon="6.73716">
        <ele>787</ele>
        <time>2018-07-01T08:32:17.000Z</time>
      </trkpt>
      <trkpt lat="47.23167" lon="6.73716">
        <ele>809</ele>
        <time>2018-07-01T08:32:18.000Z</time>
      </trkpt>
      <trkpt lat="47.23168" lon="6.73715">
        <ele>809</ele>
        <time>2018-07-01T08:32:19.000Z</time>
      </trkpt>
      <trkpt lat="47.23169" lon="6.73715">
        <ele>809</ele>
        <time>2018-07-01T08:32:20.000Z</time>
      </trkpt>
      <trkpt lat="47.2317" lon="6.73714">
        <ele>809</ele>
        <time>2018-07-01T08:32:21.000Z</time>
      </trkpt>
      <trkpt lat="47.23171" lon="6.73713">
        <ele>810</ele>
        <time>2018-07-01T08:32:22.000Z</time>
      </trkpt>
      <trkpt lat="47.23173" lon="6.73713">
        <ele>810</ele>
        <time>2018-07-01T08:32:23.000Z</time>
      </trkpt>
      <trkpt lat="47.23174" lon="6.73713">
        <ele>810</ele>
        <time>2018-07-01T08:32:24.000Z</time>
      </trkpt>
      <trkpt lat="47.23175" lon="6.73713">
        <ele>810</ele>
        <time>2018-07-01T08:32:25.000Z</time>
      </trkpt>
      <trkpt lat="47.23176" lon="6.73712">
        <ele>810</ele>
        <time>2018-07-01T08:32:26.000Z</time>
      </trkpt>
      <trkpt lat="47.23176" lon="6.73712">
        <ele>811</ele>
        <time>2018-07-01T08:32:27.000Z</time>
      </trkpt>
      <trkpt lat="47.23177" lon="6.73713">
        <ele>811</ele>
        <time>2018-07-01T08:32:28.000Z</time>
      </trkpt>
      <trkpt lat="47.23178" lon="6.73713">
        <ele>811</ele>
        <time>2018-07-01T08:32:29.000Z</time>
      </trkpt>
      <trkpt lat="47.23179" lon="6.73713">
        <ele>811</ele>
        <time>2018-07-01T08:32:30.000Z</time>
      </trkpt>
      <trkpt lat="47.23179" lon="6.73713">
        <ele>811</ele>
        <time>2018-07-01T08:32:31.000Z</time>
      </trkpt>
      <trkpt lat="47.2318" lon="6.73714">
        <ele>811</ele>
        <time>2018-07-01T08:32:32.000Z</time>
      </trkpt>
      <trkpt lat="47.23181" lon="6.73714">
        <ele>811</ele>
        <time>2018-07-01T08:32:33.000Z</time>
      </trkpt>
      <trkpt lat="47.23182" lon="6.73715">
        <ele>811</ele>
        <time>2018-07-01T08:32:34.000Z</time>
      </trkpt>
      <trkpt lat="47.23183" lon="6.73716">
        <ele>811</ele>
        <time>2018-07-01T08:32:35.000Z</time>
      </trkpt>
      <trkpt lat="47.23184" lon="6.73716">
        <ele>811</ele>
        <time>2018-07-01T08:32:36.000Z</time>
      </trkpt>
      <trkpt lat="47.23184" lon="6.73717">
        <ele>811</ele>
        <time>2018-07-01T08:32:37.000Z</time>
      </trkpt>
      <trkpt lat="47.23185" lon="6.73718">
        <ele>811</ele>
        <time>2018-07-01T08:32:38.000Z</time>
      </trkpt>
      <trkpt lat="47.23185" lon="6.73719">
        <ele>811</ele>
        <time>2018-07-01T08:32:39.000Z</time>
      </trkpt>
      <trkpt lat="47.23186" lon="6.73719">
        <ele>811</ele>
        <time>2018-07-01T08:32:40.000Z</time>
      </trkpt>
      <trkpt lat="47.23187" lon="6.7372">
        <ele>811</ele>
        <time>2018-07-01T08:32:41.000Z</time>
      </trkpt>
      <trkpt lat="47.23187" lon="6.73721">
        <ele>811</ele>
        <time>2018-07-01T08:32:42.000Z</time>
      </trkpt>
      <trkpt lat="47.23188" lon="6.73722">
        <ele>811</ele>
        <time>2018-07-01T08:32:43.000Z</time>
      </trkpt>
      <trkpt lat="47.23189" lon="6.73723">
        <ele>811</ele>
        <time>2018-07-01T08:32:44.000Z</time>
      </trkpt>
      <trkpt lat="47.2319" lon="6.73724">
        <ele>811</ele>
        <time>2018-07-01T08:32:45.000Z</time>
      </trkpt>
      <trkpt lat="47.23191" lon="6.73724">
        <ele>811</ele>
        <time>2018-07-01T08:32:46.000Z</time>
      </trkpt>
      <trkpt lat="47.23192" lon="6.73725">
        <ele>811</ele>
        <time>2018-07-01T08:32:47.000Z</time>
      </trkpt>
      <trkpt lat="47.23192" lon="6.73725">
        <ele>812</ele>
        <time>2018-07-01T08:32:48.000Z</time>
      </trkpt>
      <trkpt lat="47.23193" lon="6.73725">
        <ele>812</ele>
        <time>2018-07-01T08:32:49.000Z</time>
      </trkpt>
      <trkpt lat="47.23194" lon="6.73725">
        <ele>812</ele>
        <time>2018-07-01T08:32:50.000Z</time>
      </trkpt>
      <trkpt lat="47.23194" lon="6.73725">
        <ele>812</ele>
        <time>2018-07-01T08:32:51.000Z</time>
      </trkpt>
      <trkpt lat="47.23195" lon="6.73726">
        <ele>812</ele>
        <time>2018-07-01T08:32:52.000Z</time>
      </trkpt>
      <trkpt lat="47.23196" lon="6.73726">
        <ele>812</ele>
        <time>2018-07-01T08:32:53.000Z</time>
      </trkpt>
      <trkpt lat="47.23196" lon="6.73726">
        <ele>812</ele>
        <time>2018-07-01T08:32:54.000Z</time>
      </trkpt>
      <trkpt lat="47.23197" lon="6.73727">
        <ele>813</ele>
        <time>2018-07-01T08:32:55.000Z</time>
      </trkpt>
      <trkpt lat="47.23197" lon="6.73728">
        <ele>813</ele>
        <time>2018-07-01T08:32:56.000Z</time>
      </trkpt>
      <trkpt lat="47.23198" lon="6.73729">
        <ele>813</ele>
        <time>2018-07-01T08:32:57.000Z</time>
      </trkpt>
      <trkpt lat="47.23199" lon="6.7373">
        <ele>813</ele>
        <time>2018-07-01T08:32:58.000Z</time>
      </trkpt>
      <trkpt lat="47.23199" lon="6.73731">
        <ele>813</ele>
        <time>2018-07-01T08:32:59.000Z</time>
      </trkpt>
      <trkpt lat="47.232" lon="6.73731">
        <ele>813</ele>
        <time>2018-07-01T08:33:00.000Z</time>
      </trkpt>
      <trkpt lat="47.232" lon="6.73731">
        <ele>813</ele>
        <time>2018-07-01T08:33:01.000Z</time>
      </trkpt>
      <trkpt lat="47.23201" lon="6.73732">
        <ele>813</ele>
        <time>2018-07-01T08:33:02.000Z</time>
      </trkpt>
      <trkpt lat="47.23202" lon="6.73732">
        <ele>814</ele>
        <time>2018-07-01T08:33:03.000Z</time>
      </trkpt>
      <trkpt lat="47.23203" lon="6.73732">
        <ele>814</ele>
        <time>2018-07-01T08:33:04.000Z</time>
      </trkpt>
      <trkpt lat="47.23204" lon="6.73732">
        <ele>814</ele>
        <time>2018-07-01T08:33:05.000Z</time>
      </trkpt>
      <trkpt lat="47.23204" lon="6.73732">
        <ele>814</ele>
        <time>2018-07-01T08:33:06.000Z</time>
      </trkpt>
      <trkpt lat="47.23205" lon="6.73732">
        <ele>814</ele>
        <time>2018-07-01T08:33:07.000Z</time>
      </trkpt>
      <trkpt lat="47.23206" lon="6.73732">
        <ele>815</ele>
        <time>2018-07-01T08:33:08.000Z</time>
      </trkpt>
      <trkpt lat="47.23207" lon="6.73732">
        <ele>815</ele>
        <time>2018-07-01T08:33:09.000Z</time>
      </trkpt>
      <trkpt lat="47.23207" lon="6.73732">
        <ele>815</ele>
        <time>2018-07-01T08:33:10.000Z</time>
      </trkpt>
      <trkpt lat="47.23208" lon="6.73732">
        <ele>815</ele>
        <time>2018-07-01T08:33:11.000Z</time>
      </trkpt>
      <trkpt lat="47.23209" lon="6.73732">
        <ele>816</ele>
        <time>2018-07-01T08:33:12.000Z</time>
      </trkpt>
      <trkpt lat="47.2321" lon="6.73732">
        <ele>816</ele>
        <time>2018-07-01T08:33:13.000Z</time>
      </trkpt>
      <trkpt lat="47.2321" lon="6.73733">
        <ele>816</ele>
        <time>2018-07-01T08:33:14.000Z</time>
      </trkpt>
      <trkpt lat="47.23211" lon="6.73734">
        <ele>816</ele>
        <time>2018-07-01T08:33:15.000Z</time>
      </trkpt>
      <trkpt lat="47.23212" lon="6.73734">
        <ele>816</ele>
        <time>2018-07-01T08:33:16.000Z</time>
      </trkpt>
      <trkpt lat="47.23212" lon="6.73734">
        <ele>816</ele>
        <time>2018-07-01T08:33:17.000Z</time>
      </trkpt>
      <trkpt lat="47.23213" lon="6.73734">
        <ele>817</ele>
        <time>2018-07-01T08:33:18.000Z</time>
      </trkpt>
      <trkpt lat="47.23214" lon="6.73734">
        <ele>817</ele>
        <time>2018-07-01T08:33:19.000Z</time>
      </trkpt>
      <trkpt lat="47.23215" lon="6.73735">
        <ele>817</ele>
        <time>2018-07-01T08:33:20.000Z</time>
      </trkpt>
      <trkpt lat="47.23215" lon="6.73736">
        <ele>817</ele>
        <time>2018-07-01T08:33:21.000Z</time>
      </trkpt>
      <trkpt lat="47.23216" lon="6.73736">
        <ele>817</ele>
        <time>2018-07-01T08:33:22.000Z</time>
      </trkpt>
      <trkpt lat="47.23217" lon="6.73736">
        <ele>818</ele>
        <time>2018-07-01T08:33:23.000Z</time>
      </trkpt>
      <trkpt lat="47.23217" lon="6.73736">
        <ele>818</ele>
        <time>2018-07-01T08:33:24.000Z</time>
      </trkpt>
      <trkpt lat="47.23218" lon="6.73736">
        <ele>818</ele>
        <time>2018-07-01T08:33:25.000Z</time>
      </trkpt>
      <trkpt lat="47.23218" lon="6.73735">
        <ele>818</ele>
        <time>2018-07-01T08:33:26.000Z</time>
      </trkpt>
      <trkpt lat="47.23218" lon="6.73735">
        <ele>818</ele>
        <time>2018-07-01T08:33:27.000Z</time>
      </trkpt>
      <trkpt lat="47.23218" lon="6.73734">
        <ele>818</ele>
        <time>2018-07-01T08:33:28.000Z</time>
      </trkpt>
      <trkpt lat="47.23219" lon="6.73734">
        <ele>818</ele>
        <time>2018-07-01T08:33:29.000Z</time>
      </trkpt>
      <trkpt lat="47.23219" lon="6.73733">
        <ele>818</ele>
        <time>2018-07-01T08:33:30.000Z</time>
      </trkpt>
      <trkpt lat="47.23219" lon="6.73733">
        <ele>818</ele>
        <time>2018-07-01T08:33:31.000Z</time>
      </trkpt>
      <trkpt lat="47.23219" lon="6.73732">
        <ele>818</ele>
        <time>2018-07-01T08:33:32.000Z</time>
      </trkpt>
      <trkpt lat="47.23219" lon="6.73732">
        <ele>818</ele>
        <time>2018-07-01T08:33:33.000Z</time>
      </trkpt>
      <trkpt lat="47.23219" lon="6.73732">
        <ele>818</ele>
        <time>2018-07-01T08:33:34.000Z</time>
      </trkpt>
      <trkpt lat="47.23219" lon="6.73732">
        <ele>818</ele>
        <time>2018-07-01T08:33:35.000Z</time>
      </trkpt>
      <trkpt lat="47.23219" lon="6.73731">
        <ele>818</ele>
        <time>2018-07-01T08:33:36.000Z</time>
      </trkpt>
      <trkpt lat="47.23219" lon="6.73731">
        <ele>818</ele>
        <time>2018-07-01T08:33:37.000Z</time>
      </trkpt>
      <trkpt lat="47.2322" lon="6.7373">
        <ele>819</ele>
        <time>2018-07-01T08:33:38.000Z</time>
      </trkpt>
      <trkpt lat="47.2322" lon="6.7373">
        <ele>819</ele>
        <time>2018-07-01T08:33:39.000Z</time>
      </trkpt>
      <trkpt lat="47.2322" lon="6.73729">
        <ele>819</ele>
        <time>2018-07-01T08:33:40.000Z</time>
      </trkpt>
      <trkpt lat="47.2322" lon="6.73728">
        <ele>819</ele>
        <time>2018-07-01T08:33:41.000Z</time>
      </trkpt>
      <trkpt lat="47.2322" lon="6.73727">
        <ele>819</ele>
        <time>2018-07-01T08:33:42.000Z</time>
      </trkpt>
      <trkpt lat="47.2322" lon="6.73726">
        <ele>819</ele>
        <time>2018-07-01T08:33:43.000Z</time>
      </trkpt>
      <trkpt lat="47.2322" lon="6.73726">
        <ele>819</ele>
        <time>2018-07-01T08:33:44.000Z</time>
      </trkpt>
      <trkpt lat="47.2322" lon="6.73725">
        <ele>819</ele>
        <time>2018-07-01T08:33:45.000Z</time>
      </trkpt>
      <trkpt lat="47.23221" lon="6.73724">
        <ele>819</ele>
        <time>2018-07-01T08:33:46.000Z</time>
      </trkpt>
      <trkpt lat="47.23221" lon="6.73723">
        <ele>819</ele>
        <time>2018-07-01T08:33:47.000Z</time>
      </trkpt>
      <trkpt lat="47.2322" lon="6.73722">
        <ele>819</ele>
        <time>2018-07-01T08:33:48.000Z</time>
      </trkpt>
      <trkpt lat="47.2322" lon="6.73721">
        <ele>819</ele>
        <time>2018-07-01T08:33:49.000Z</time>
      </trkpt>
      <trkpt lat="47.2322" lon="6.7372">
        <ele>819</ele>
        <time>2018-07-01T08:33:50.000Z</time>
      </trkpt>
      <trkpt lat="47.23219" lon="6.73718">
        <ele>819</ele>
        <time>2018-07-01T08:33:51.000Z</time>
      </trkpt>
      <trkpt lat="47.23219" lon="6.73717">
        <ele>819</ele>
        <time>2018-07-01T08:33:52.000Z</time>
      </trkpt>
      <trkpt lat="47.23219" lon="6.73716">
        <ele>819</ele>
        <time>2018-07-01T08:33:53.000Z</time>
      </trkpt>
      <trkpt lat="47.23219" lon="6.73714">
        <ele>819</ele>
        <time>2018-07-01T08:33:54.000Z</time>
      </trkpt>
      <trkpt lat="47.23218" lon="6.73713">
        <ele>819</ele>
        <time>2018-07-01T08:33:55.000Z</time>
      </trkpt>
      <trkpt lat="47.23218" lon="6.73712">
        <ele>819</ele>
        <time>2018-07-01T08:33:56.000Z</time>
      </trkpt>
      <trkpt lat="47.23217" lon="6.7371">
        <ele>819</ele>
        <time>2018-07-01T08:33:57.000Z</time>
      </trkpt>
      <trkpt lat="47.23217" lon="6.73709">
        <ele>819</ele>
        <time>2018-07-01T08:33:58.000Z</time>
      </trkpt>
      <trkpt lat="47.23216" lon="6.73708">
        <ele>819</ele>
        <time>2018-07-01T08:33:59.000Z</time>
      </trkpt>
      <trkpt lat="47.23216" lon="6.73707">
        <ele>819</ele>
        <time>2018-07-01T08:34:00.000Z</time>
      </trkpt>
      <trkpt lat="47.23216" lon="6.73706">
        <ele>819</ele>
        <time>2018-07-01T08:34:01.000Z</time>
      </trkpt>
      <trkpt lat="47.23215" lon="6.73704">
        <ele>819</ele>
        <time>2018-07-01T08:34:02.000Z</time>
      </trkpt>
      <trkpt lat="47.23215" lon="6.73703">
        <ele>820</ele>
        <time>2018-07-01T08:34:03.000Z</time>
      </trkpt>
      <trkpt lat="47.23214" lon="6.73702">
        <ele>819</ele>
        <time>2018-07-01T08:34:04.000Z</time>
      </trkpt>
      <trkpt lat="47.23213" lon="6.737">
        <ele>819</ele>
        <time>2018-07-01T08:34:05.000Z</time>
      </trkpt>
      <trkpt lat="47.23213" lon="6.73699">
        <ele>819</ele>
        <time>2018-07-01T08:34:06.000Z</time>
      </trkpt>
      <trkpt lat="47.23212" lon="6.73697">
        <ele>819</ele>
        <time>2018-07-01T08:34:07.000Z</time>
      </trkpt>
      <trkpt lat="47.23211" lon="6.73696">
        <ele>819</ele>
        <time>2018-07-01T08:34:08.000Z</time>
      </trkpt>
      <trkpt lat="47.23211" lon="6.73694">
        <ele>819</ele>
        <time>2018-07-01T08:34:09.000Z</time>
      </trkpt>
      <trkpt lat="47.2321" lon="6.73692">
        <ele>819</ele>
        <time>2018-07-01T08:34:10.000Z</time>
      </trkpt>
      <trkpt lat="47.23209" lon="6.73691">
        <ele>819</ele>
        <time>2018-07-01T08:34:11.000Z</time>
      </trkpt>
      <trkpt lat="47.23209" lon="6.7369">
        <ele>819</ele>
        <time>2018-07-01T08:34:12.000Z</time>
      </trkpt>
      <trkpt lat="47.23208" lon="6.73689">
        <ele>819</ele>
        <time>2018-07-01T08:34:13.000Z</time>
      </trkpt>
      <trkpt lat="47.23208" lon="6.73687">
        <ele>819</ele>
        <time>2018-07-01T08:34:14.000Z</time>
      </trkpt>
      <trkpt lat="47.23207" lon="6.73686">
        <ele>819</ele>
        <time>2018-07-01T08:34:15.000Z</time>
      </trkpt>
      <trkpt lat="47.23207" lon="6.73685">
        <ele>819</ele>
        <time>2018-07-01T08:34:16.000Z</time>
      </trkpt>
      <trkpt lat="47.23207" lon="6.73684">
        <ele>819</ele>
        <time>2018-07-01T08:34:17.000Z</time>
      </trkpt>
      <trkpt lat="47.23207" lon="6.73682">
        <ele>819</ele>
        <time>2018-07-01T08:34:18.000Z</time>
      </trkpt>
      <trkpt lat="47.23207" lon="6.73681">
        <ele>819</ele>
        <time>2018-07-01T08:34:19.000Z</time>
      </trkpt>
      <trkpt lat="47.23207" lon="6.7368">
        <ele>819</ele>
        <time>2018-07-01T08:34:20.000Z</time>
      </trkpt>
      <trkpt lat="47.23206" lon="6.73679">
        <ele>819</ele>
        <time>2018-07-01T08:34:21.000Z</time>
      </trkpt>
      <trkpt lat="47.23206" lon="6.73678">
        <ele>819</ele>
        <time>2018-07-01T08:34:22.000Z</time>
      </trkpt>
      <trkpt lat="47.23205" lon="6.73676">
        <ele>819</ele>
        <time>2018-07-01T08:34:23.000Z</time>
      </trkpt>
      <trkpt lat="47.23204" lon="6.73675">
        <ele>819</ele>
        <time>2018-07-01T08:34:24.000Z</time>
      </trkpt>
      <trkpt lat="47.23204" lon="6.73674">
        <ele>819</ele>
        <time>2018-07-01T08:34:25.000Z</time>
      </trkpt>
      <trkpt lat="47.23204" lon="6.73673">
        <ele>819</ele>
        <time>2018-07-01T08:34:26.000Z</time>
      </trkpt>
      <trkpt lat="47.23203" lon="6.73672">
        <ele>819</ele>
        <time>2018-07-01T08:34:27.000Z</time>
      </trkpt>
      <trkpt lat="47.23203" lon="6.73671">
        <ele>819</ele>
        <time>2018-07-01T08:34:28.000Z</time>
      </trkpt>
      <trkpt lat="47.23203" lon="6.7367">
        <ele>819</ele>
        <time>2018-07-01T08:34:29.000Z</time>
      </trkpt>
      <trkpt lat="47.23203" lon="6.73669">
        <ele>819</ele>
        <time>2018-07-01T08:34:30.000Z</time>
      </trkpt>
      <trkpt lat="47.23203" lon="6.73668">
        <ele>819</ele>
        <time>2018-07-01T08:34:31.000Z</time>
      </trkpt>
      <trkpt lat="47.23203" lon="6.73667">
        <ele>819</ele>
        <time>2018-07-01T08:34:32.000Z</time>
      </trkpt>
      <trkpt lat="47.23203" lon="6.73666">
        <ele>828</ele>
        <time>2018-07-01T08:34:33.000Z</time>
      </trkpt>
      <trkpt lat="47.23203" lon="6.73665">
        <ele>828</ele>
        <time>2018-07-01T08:34:34.000Z</time>
      </trkpt>
      <trkpt lat="47.23203" lon="6.73664">
        <ele>828</ele>
        <time>2018-07-01T08:34:35.000Z</time>
      </trkpt>
      <trkpt lat="47.23202" lon="6.73663">
        <ele>827</ele>
        <time>2018-07-01T08:34:36.000Z</time>
      </trkpt>
      <trkpt lat="47.23202" lon="6.73662">
        <ele>827</ele>
        <time>2018-07-01T08:34:37.000Z</time>
      </trkpt>
      <trkpt lat="47.23201" lon="6.7366">
        <ele>827</ele>
        <time>2018-07-01T08:34:38.000Z</time>
      </trkpt>
      <trkpt lat="47.23201" lon="6.73659">
        <ele>827</ele>
        <time>2018-07-01T08:34:39.000Z</time>
      </trkpt>
      <trkpt lat="47.232" lon="6.73657">
        <ele>827</ele>
        <time>2018-07-01T08:34:40.000Z</time>
      </trkpt>
      <trkpt lat="47.232" lon="6.73656">
        <ele>827</ele>
        <time>2018-07-01T08:34:41.000Z</time>
      </trkpt>
      <trkpt lat="47.232" lon="6.73654">
        <ele>827</ele>
        <time>2018-07-01T08:34:42.000Z</time>
      </trkpt>
      <trkpt lat="47.232" lon="6.73653">
        <ele>827</ele>
        <time>2018-07-01T08:34:43.000Z</time>
      </trkpt>
      <trkpt lat="47.232" lon="6.73652">
        <ele>827</ele>
        <time>2018-07-01T08:34:44.000Z</time>
      </trkpt>
      <trkpt lat="47.232" lon="6.73651">
        <ele>828</ele>
        <time>2018-07-01T08:34:45.000Z</time>
      </trkpt>
      <trkpt lat="47.232" lon="6.7365">
        <ele>828</ele>
        <time>2018-07-01T08:34:46.000Z</time>
      </trkpt>
      <trkpt lat="47.23199" lon="6.73649">
        <ele>828</ele>
        <time>2018-07-01T08:34:47.000Z</time>
      </trkpt>
      <trkpt lat="47.23199" lon="6.73648">
        <ele>827</ele>
        <time>2018-07-01T08:34:48.000Z</time>
      </trkpt>
      <trkpt lat="47.23198" lon="6.73647">
        <ele>827</ele>
        <time>2018-07-01T08:34:49.000Z</time>
      </trkpt>
      <trkpt lat="47.23198" lon="6.73646">
        <ele>828</ele>
        <time>2018-07-01T08:34:50.000Z</time>
      </trkpt>
      <trkpt lat="47.23198" lon="6.73644">
        <ele>828</ele>
        <time>2018-07-01T08:34:51.000Z</time>
      </trkpt>
      <trkpt lat="47.23197" lon="6.73643">
        <ele>828</ele>
        <time>2018-07-01T08:34:52.000Z</time>
      </trkpt>
      <trkpt lat="47.23197" lon="6.73642">
        <ele>828</ele>
        <time>2018-07-01T08:34:53.000Z</time>
      </trkpt>
      <trkpt lat="47.23197" lon="6.73641">
        <ele>828</ele>
        <time>2018-07-01T08:34:54.000Z</time>
      </trkpt>
      <trkpt lat="47.23197" lon="6.7364">
        <ele>828</ele>
        <time>2018-07-01T08:34:55.000Z</time>
      </trkpt>
      <trkpt lat="47.23197" lon="6.73639">
        <ele>828</ele>
        <time>2018-07-01T08:34:56.000Z</time>
      </trkpt>
      <trkpt lat="47.23197" lon="6.73638">
        <ele>828</ele>
        <time>2018-07-01T08:34:57.000Z</time>
      </trkpt>
      <trkpt lat="47.23196" lon="6.73637">
        <ele>828</ele>
        <time>2018-07-01T08:34:58.000Z</time>
      </trkpt>
      <trkpt lat="47.23196" lon="6.73636">
        <ele>828</ele>
        <time>2018-07-01T08:34:59.000Z</time>
      </trkpt>
      <trkpt lat="47.23196" lon="6.73635">
        <ele>828</ele>
        <time>2018-07-01T08:35:00.000Z</time>
      </trkpt>
      <trkpt lat="47.23196" lon="6.73635">
        <ele>828</ele>
        <time>2018-07-01T08:35:01.000Z</time>
      </trkpt>
      <trkpt lat="47.23195" lon="6.73633">
        <ele>828</ele>
        <time>2018-07-01T08:35:02.000Z</time>
      </trkpt>
      <trkpt lat="47.23195" lon="6.73632">
        <ele>829</ele>
        <time>2018-07-01T08:35:03.000Z</time>
      </trkpt>
      <trkpt lat="47.23195" lon="6.73632">
        <ele>829</ele>
        <time>2018-07-01T08:35:04.000Z</time>
      </trkpt>
      <trkpt lat="47.23195" lon="6.73631">
        <ele>829</ele>
        <time>2018-07-01T08:35:05.000Z</time>
      </trkpt>
      <trkpt lat="47.23194" lon="6.73629">
        <ele>829</ele>
        <time>2018-07-01T08:35:06.000Z</time>
      </trkpt>
      <trkpt lat="47.23194" lon="6.73628">
        <ele>829</ele>
        <time>2018-07-01T08:35:07.000Z</time>
      </trkpt>
      <trkpt lat="47.23194" lon="6.73627">
        <ele>829</ele>
        <time>2018-07-01T08:35:08.000Z</time>
      </trkpt>
      <trkpt lat="47.23194" lon="6.73626">
        <ele>829</ele>
        <time>2018-07-01T08:35:09.000Z</time>
      </trkpt>
      <trkpt lat="47.23193" lon="6.73625">
        <ele>829</ele>
        <time>2018-07-01T08:35:10.000Z</time>
      </trkpt>
      <trkpt lat="47.23193" lon="6.73624">
        <ele>829</ele>
        <time>2018-07-01T08:35:11.000Z</time>
      </trkpt>
      <trkpt lat="47.23193" lon="6.73624">
        <ele>829</ele>
        <time>2018-07-01T08:35:12.000Z</time>
      </trkpt>
      <trkpt lat="47.23193" lon="6.73624">
        <ele>829</ele>
        <time>2018-07-01T08:35:13.000Z</time>
      </trkpt>
      <trkpt lat="47.23193" lon="6.73624">
        <ele>829</ele>
        <time>2018-07-01T08:35:14.000Z</time>
      </trkpt>
      <trkpt lat="47.23192" lon="6.73624">
        <ele>829</ele>
        <time>2018-07-01T08:35:15.000Z</time>
      </trkpt>
      <trkpt lat="47.23192" lon="6.73623">
        <ele>829</ele>
        <time>2018-07-01T08:35:16.000Z</time>
      </trkpt>
      <trkpt lat="47.23192" lon="6.73623">
        <ele>829</ele>
        <time>2018-07-01T08:35:17.000Z</time>
      </trkpt>
      <trkpt lat="47.23192" lon="6.73623">
        <ele>829</ele>
        <time>2018-07-01T08:35:18.000Z</time>
      </trkpt>
      <trkpt lat="47.23192" lon="6.73622">
        <ele>829</ele>
        <time>2018-07-01T08:35:19.000Z</time>
      </trkpt>
      <trkpt lat="47.23193" lon="6.73622">
        <ele>829</ele>
        <time>2018-07-01T08:35:20.000Z</time>
      </trkpt>
      <trkpt lat="47.23193" lon="6.73622">
        <ele>829</ele>
        <time>2018-07-01T08:35:21.000Z</time>
      </trkpt>
      <trkpt lat="47.23193" lon="6.73622">
        <ele>829</ele>
        <time>2018-07-01T08:35:22.000Z</time>
      </trkpt>
      <trkpt lat="47.23193" lon="6.73622">
        <ele>829</ele>
        <time>2018-07-01T08:35:23.000Z</time>
      </trkpt>
      <trkpt lat="47.23193" lon="6.73622">
        <ele>829</ele>
        <time>2018-07-01T08:35:24.000Z</time>
      </trkpt>
      <trkpt lat="47.23193" lon="6.73622">
        <ele>829</ele>
        <time>2018-07-01T08:35:25.000Z</time>
      </trkpt>
      <trkpt lat="47.23193" lon="6.73622">
        <ele>829</ele>
        <time>2018-07-01T08:35:26.000Z</time>
      </trkpt>
      <trkpt lat="47.23193" lon="6.73621">
        <ele>829</ele>
        <time>2018-07-01T08:35:27.000Z</time>
      </trkpt>
      <trkpt lat="47.23193" lon="6.73621">
        <ele>830</ele>
        <time>2018-07-01T08:35:28.000Z</time>
      </trkpt>
      <trkpt lat="47.23193" lon="6.7362">
        <ele>830</ele>
        <time>2018-07-01T08:35:29.000Z</time>
      </trkpt>
      <trkpt lat="47.23193" lon="6.7362">
        <ele>830</ele>
        <time>2018-07-01T08:35:30.000Z</time>
      </trkpt>
      <trkpt lat="47.23193" lon="6.7362">
        <ele>830</ele>
        <time>2018-07-01T08:35:31.000Z</time>
      </trkpt>
      <trkpt lat="47.23193" lon="6.7362">
        <ele>830</ele>
        <time>2018-07-01T08:35:32.000Z</time>
      </trkpt>
      <trkpt lat="47.23193" lon="6.73619">
        <ele>830</ele>
        <time>2018-07-01T08:35:33.000Z</time>
      </trkpt>
      <trkpt lat="47.23192" lon="6.73619">
        <ele>830</ele>
        <time>2018-07-01T08:35:34.000Z</time>
      </trkpt>
      <trkpt lat="47.23192" lon="6.73618">
        <ele>830</ele>
        <time>2018-07-01T08:35:35.000Z</time>
      </trkpt>
      <trkpt lat="47.23192" lon="6.73618">
        <ele>830</ele>
        <time>2018-07-01T08:35:36.000Z</time>
      </trkpt>
      <trkpt lat="47.23191" lon="6.73617">
        <ele>830</ele>
        <time>2018-07-01T08:35:37.000Z</time>
      </trkpt>
      <trkpt lat="47.2319" lon="6.73616">
        <ele>830</ele>
        <time>2018-07-01T08:35:38.000Z</time>
      </trkpt>
      <trkpt lat="47.2319" lon="6.73615">
        <ele>830</ele>
        <time>2018-07-01T08:35:39.000Z</time>
      </trkpt>
      <trkpt lat="47.2319" lon="6.73614">
        <ele>830</ele>
        <time>2018-07-01T08:35:40.000Z</time>
      </trkpt>
      <trkpt lat="47.2319" lon="6.73613">
        <ele>830</ele>
        <time>2018-07-01T08:35:41.000Z</time>
      </trkpt>
      <trkpt lat="47.2319" lon="6.73612">
        <ele>830</ele>
        <time>2018-07-01T08:35:42.000Z</time>
      </trkpt>
      <trkpt lat="47.23189" lon="6.7361">
        <ele>830</ele>
        <time>2018-07-01T08:35:43.000Z</time>
      </trkpt>
      <trkpt lat="47.2319" lon="6.7361">
        <ele>830</ele>
        <time>2018-07-01T08:35:44.000Z</time>
      </trkpt>
      <trkpt lat="47.2319" lon="6.73609">
        <ele>830</ele>
        <time>2018-07-01T08:35:45.000Z</time>
      </trkpt>
      <trkpt lat="47.2319" lon="6.73608">
        <ele>830</ele>
        <time>2018-07-01T08:35:46.000Z</time>
      </trkpt>
      <trkpt lat="47.2319" lon="6.73607">
        <ele>830</ele>
        <time>2018-07-01T08:35:47.000Z</time>
      </trkpt>
      <trkpt lat="47.23191" lon="6.73607">
        <ele>830</ele>
        <time>2018-07-01T08:35:48.000Z</time>
      </trkpt>
      <trkpt lat="47.23191" lon="6.73606">
        <ele>830</ele>
        <time>2018-07-01T08:35:49.000Z</time>
      </trkpt>
      <trkpt lat="47.2319" lon="6.73605">
        <ele>830</ele>
        <time>2018-07-01T08:35:50.000Z</time>
      </trkpt>
      <trkpt lat="47.2319" lon="6.73604">
        <ele>830</ele>
        <time>2018-07-01T08:35:51.000Z</time>
      </trkpt>
      <trkpt lat="47.2319" lon="6.73603">
        <ele>830</ele>
        <time>2018-07-01T08:35:52.000Z</time>
      </trkpt>
      <trkpt lat="47.2319" lon="6.73603">
        <ele>830</ele>
        <time>2018-07-01T08:35:53.000Z</time>
      </trkpt>
      <trkpt lat="47.23189" lon="6.73602">
        <ele>830</ele>
        <time>2018-07-01T08:35:54.000Z</time>
      </trkpt>
      <trkpt lat="47.23189" lon="6.73601">
        <ele>830</ele>
        <time>2018-07-01T08:35:55.000Z</time>
      </trkpt>
      <trkpt lat="47.23189" lon="6.736">
        <ele>830</ele>
        <time>2018-07-01T08:35:56.000Z</time>
      </trkpt>
      <trkpt lat="47.23189" lon="6.73599">
        <ele>830</ele>
        <time>2018-07-01T08:35:57.000Z</time>
      </trkpt>
      <trkpt lat="47.2319" lon="6.73598">
        <ele>830</ele>
        <time>2018-07-01T08:35:58.000Z</time>
      </trkpt>
      <trkpt lat="47.2319" lon="6.73597">
        <ele>830</ele>
        <time>2018-07-01T08:35:59.000Z</time>
      </trkpt>
      <trkpt lat="47.2319" lon="6.73597">
        <ele>830</ele>
        <time>2018-07-01T08:36:00.000Z</time>
      </trkpt>
      <trkpt lat="47.23191" lon="6.73596">
        <ele>830</ele>
        <time>2018-07-01T08:36:01.000Z</time>
      </trkpt>
      <trkpt lat="47.23191" lon="6.73596">
        <ele>831</ele>
        <time>2018-07-01T08:36:02.000Z</time>
      </trkpt>
      <trkpt lat="47.23191" lon="6.73595">
        <ele>831</ele>
        <time>2018-07-01T08:36:03.000Z</time>
      </trkpt>
      <trkpt lat="47.23192" lon="6.73595">
        <ele>831</ele>
        <time>2018-07-01T08:36:04.000Z</time>
      </trkpt>
      <trkpt lat="47.23192" lon="6.73594">
        <ele>831</ele>
        <time>2018-07-01T08:36:05.000Z</time>
      </trkpt>
      <trkpt lat="47.23192" lon="6.73593">
        <ele>831</ele>
        <time>2018-07-01T08:36:06.000Z</time>
      </trkpt>
      <trkpt lat="47.23193" lon="6.73592">
        <ele>831</ele>
        <time>2018-07-01T08:36:07.000Z</time>
      </trkpt>
      <trkpt lat="47.23193" lon="6.73591">
        <ele>831</ele>
        <time>2018-07-01T08:36:08.000Z</time>
      </trkpt>
      <trkpt lat="47.23193" lon="6.73591">
        <ele>831</ele>
        <time>2018-07-01T08:36:09.000Z</time>
      </trkpt>
      <trkpt lat="47.23194" lon="6.73591">
        <ele>831</ele>
        <time>2018-07-01T08:36:10.000Z</time>
      </trkpt>
      <trkpt lat="47.23194" lon="6.73591">
        <ele>831</ele>
        <time>2018-07-01T08:36:11.000Z</time>
      </trkpt>
      <trkpt lat="47.23195" lon="6.73591">
        <ele>831</ele>
        <time>2018-07-01T08:36:12.000Z</time>
      </trkpt>
      <trkpt lat="47.23195" lon="6.73592">
        <ele>831</ele>
        <time>2018-07-01T08:36:13.000Z</time>
      </trkpt>
      <trkpt lat="47.23196" lon="6.73594">
        <ele>831</ele>
        <time>2018-07-01T08:36:14.000Z</time>
      </trkpt>
      <trkpt lat="47.23196" lon="6.73595">
        <ele>831</ele>
        <time>2018-07-01T08:36:15.000Z</time>
      </trkpt>
      <trkpt lat="47.23197" lon="6.73596">
        <ele>832</ele>
        <time>2018-07-01T08:36:16.000Z</time>
      </trkpt>
      <trkpt lat="47.23197" lon="6.73597">
        <ele>832</ele>
        <time>2018-07-01T08:36:17.000Z</time>
      </trkpt>
      <trkpt lat="47.23198" lon="6.73598">
        <ele>832</ele>
        <time>2018-07-01T08:36:18.000Z</time>
      </trkpt>
      <trkpt lat="47.23198" lon="6.73598">
        <ele>832</ele>
        <time>2018-07-01T08:36:19.000Z</time>
      </trkpt>
      <trkpt lat="47.23198" lon="6.73599">
        <ele>832</ele>
        <time>2018-07-01T08:36:20.000Z</time>
      </trkpt>
      <trkpt lat="47.23199" lon="6.73599">
        <ele>832</ele>
        <time>2018-07-01T08:36:21.000Z</time>
      </trkpt>
      <trkpt lat="47.23199" lon="6.73599">
        <ele>832</ele>
        <time>2018-07-01T08:36:22.000Z</time>
      </trkpt>
      <trkpt lat="47.23199" lon="6.73599">
        <ele>832</ele>
        <time>2018-07-01T08:36:23.000Z</time>
      </trkpt>
      <trkpt lat="47.232" lon="6.73599">
        <ele>832</ele>
        <time>2018-07-01T08:36:24.000Z</time>
      </trkpt>
      <trkpt lat="47.232" lon="6.73599">
        <ele>832</ele>
        <time>2018-07-01T08:36:25.000Z</time>
      </trkpt>
      <trkpt lat="47.23201" lon="6.73599">
        <ele>832</ele>
        <time>2018-07-01T08:36:26.000Z</time>
      </trkpt>
      <trkpt lat="47.23201" lon="6.73599">
        <ele>832</ele>
        <time>2018-07-01T08:36:27.000Z</time>
      </trkpt>
      <trkpt lat="47.23202" lon="6.73599">
        <ele>832</ele>
        <time>2018-07-01T08:36:28.000Z</time>
      </trkpt>
      <trkpt lat="47.23202" lon="6.736">
        <ele>833</ele>
        <time>2018-07-01T08:36:29.000Z</time>
      </trkpt>
      <trkpt lat="47.23203" lon="6.73601">
        <ele>833</ele>
        <time>2018-07-01T08:36:30.000Z</time>
      </trkpt>
      <trkpt lat="47.23203" lon="6.73602">
        <ele>833</ele>
        <time>2018-07-01T08:36:31.000Z</time>
      </trkpt>
      <trkpt lat="47.23204" lon="6.73603">
        <ele>833</ele>
        <time>2018-07-01T08:36:32.000Z</time>
      </trkpt>
      <trkpt lat="47.23204" lon="6.73604">
        <ele>833</ele>
        <time>2018-07-01T08:36:33.000Z</time>
      </trkpt>
      <trkpt lat="47.23205" lon="6.73605">
        <ele>833</ele>
        <time>2018-07-01T08:36:34.000Z</time>
      </trkpt>
      <trkpt lat="47.23205" lon="6.73606">
        <ele>833</ele>
        <time>2018-07-01T08:36:35.000Z</time>
      </trkpt>
      <trkpt lat="47.23206" lon="6.73606">
        <ele>833</ele>
        <time>2018-07-01T08:36:36.000Z</time>
      </trkpt>
      <trkpt lat="47.23206" lon="6.73607">
        <ele>833</ele>
        <time>2018-07-01T08:36:37.000Z</time>
      </trkpt>
      <trkpt lat="47.23207" lon="6.73608">
        <ele>833</ele>
        <time>2018-07-01T08:36:38.000Z</time>
      </trkpt>
      <trkpt lat="47.23208" lon="6.73609">
        <ele>833</ele>
        <time>2018-07-01T08:36:39.000Z</time>
      </trkpt>
      <trkpt lat="47.23209" lon="6.73609">
        <ele>833</ele>
        <time>2018-07-01T08:36:40.000Z</time>
      </trkpt>
      <trkpt lat="47.23209" lon="6.7361">
        <ele>833</ele>
        <time>2018-07-01T08:36:41.000Z</time>
      </trkpt>
      <trkpt lat="47.2321" lon="6.7361">
        <ele>833</ele>
        <time>2018-07-01T08:36:42.000Z</time>
      </trkpt>
      <trkpt lat="47.2321" lon="6.73611">
        <ele>833</ele>
        <time>2018-07-01T08:36:43.000Z</time>
      </trkpt>
      <trkpt lat="47.23211" lon="6.73612">
        <ele>834</ele>
        <time>2018-07-01T08:36:44.000Z</time>
      </trkpt>
      <trkpt lat="47.23212" lon="6.73613">
        <ele>834</ele>
        <time>2018-07-01T08:36:45.000Z</time>
      </trkpt>
      <trkpt lat="47.23212" lon="6.73614">
        <ele>834</ele>
        <time>2018-07-01T08:36:46.000Z</time>
      </trkpt>
      <trkpt lat="47.23213" lon="6.73614">
        <ele>834</ele>
        <time>2018-07-01T08:36:47.000Z</time>
      </trkpt>
      <trkpt lat="47.23214" lon="6.73615">
        <ele>834</ele>
        <time>2018-07-01T08:36:48.000Z</time>
      </trkpt>
      <trkpt lat="47.23214" lon="6.73616">
        <ele>834</ele>
        <time>2018-07-01T08:36:49.000Z</time>
      </trkpt>
      <trkpt lat="47.23215" lon="6.73617">
        <ele>834</ele>
        <time>2018-07-01T08:36:50.000Z</time>
      </trkpt>
      <trkpt lat="47.23216" lon="6.73617">
        <ele>834</ele>
        <time>2018-07-01T08:36:51.000Z</time>
      </trkpt>
      <trkpt lat="47.23218" lon="6.73617">
        <ele>834</ele>
        <time>2018-07-01T08:36:52.000Z</time>
      </trkpt>
      <trkpt lat="47.23219" lon="6.73618">
        <ele>835</ele>
        <time>2018-07-01T08:36:53.000Z</time>
      </trkpt>
      <trkpt lat="47.2322" lon="6.73618">
        <ele>835</ele>
        <time>2018-07-01T08:36:54.000Z</time>
      </trkpt>
      <trkpt lat="47.23221" lon="6.73619">
        <ele>835</ele>
        <time>2018-07-01T08:36:55.000Z</time>
      </trkpt>
      <trkpt lat="47.23222" lon="6.73619">
        <ele>835</ele>
        <time>2018-07-01T08:36:56.000Z</time>
      </trkpt>
      <trkpt lat="47.23223" lon="6.73619">
        <ele>835</ele>
        <time>2018-07-01T08:36:57.000Z</time>
      </trkpt>
      <trkpt lat="47.23224" lon="6.73619">
        <ele>835</ele>
        <time>2018-07-01T08:36:58.000Z</time>
      </trkpt>
      <trkpt lat="47.23226" lon="6.7362">
        <ele>836</ele>
        <time>2018-07-01T08:36:59.000Z</time>
      </trkpt>
      <trkpt lat="47.23227" lon="6.73621">
        <ele>836</ele>
        <time>2018-07-01T08:37:00.000Z</time>
      </trkpt>
      <trkpt lat="47.23228" lon="6.73622">
        <ele>836</ele>
        <time>2018-07-01T08:37:01.000Z</time>
      </trkpt>
      <trkpt lat="47.23229" lon="6.73623">
        <ele>836</ele>
        <time>2018-07-01T08:37:02.000Z</time>
      </trkpt>
      <trkpt lat="47.23231" lon="6.73625">
        <ele>836</ele>
        <time>2018-07-01T08:37:03.000Z</time>
      </trkpt>
      <trkpt lat="47.23232" lon="6.73626">
        <ele>836</ele>
        <time>2018-07-01T08:37:04.000Z</time>
      </trkpt>
      <trkpt lat="47.23234" lon="6.73626">
        <ele>836</ele>
        <time>2018-07-01T08:37:05.000Z</time>
      </trkpt>
      <trkpt lat="47.23234" lon="6.73626">
        <ele>837</ele>
        <time>2018-07-01T08:37:06.000Z</time>
      </trkpt>
      <trkpt lat="47.23235" lon="6.73626">
        <ele>837</ele>
        <time>2018-07-01T08:37:07.000Z</time>
      </trkpt>
      <trkpt lat="47.23236" lon="6.73626">
        <ele>837</ele>
        <time>2018-07-01T08:37:08.000Z</time>
      </trkpt>
      <trkpt lat="47.23237" lon="6.73626">
        <ele>837</ele>
        <time>2018-07-01T08:37:09.000Z</time>
      </trkpt>
      <trkpt lat="47.23237" lon="6.73625">
        <ele>837</ele>
        <time>2018-07-01T08:37:10.000Z</time>
      </trkpt>
      <trkpt lat="47.23238" lon="6.73626">
        <ele>837</ele>
        <time>2018-07-01T08:37:11.000Z</time>
      </trkpt>
      <trkpt lat="47.23239" lon="6.73627">
        <ele>837</ele>
        <time>2018-07-01T08:37:12.000Z</time>
      </trkpt>
      <trkpt lat="47.2324" lon="6.73628">
        <ele>837</ele>
        <time>2018-07-01T08:37:13.000Z</time>
      </trkpt>
      <trkpt lat="47.23241" lon="6.73629">
        <ele>837</ele>
        <time>2018-07-01T08:37:14.000Z</time>
      </trkpt>
      <trkpt lat="47.23242" lon="6.73631">
        <ele>837</ele>
        <time>2018-07-01T08:37:15.000Z</time>
      </trkpt>
      <trkpt lat="47.23243" lon="6.73633">
        <ele>837</ele>
        <time>2018-07-01T08:37:16.000Z</time>
      </trkpt>
      <trkpt lat="47.23243" lon="6.73635">
        <ele>838</ele>
        <time>2018-07-01T08:37:17.000Z</time>
      </trkpt>
      <trkpt lat="47.23244" lon="6.73636">
        <ele>838</ele>
        <time>2018-07-01T08:37:18.000Z</time>
      </trkpt>
      <trkpt lat="47.23245" lon="6.73637">
        <ele>838</ele>
        <time>2018-07-01T08:37:19.000Z</time>
      </trkpt>
      <trkpt lat="47.23245" lon="6.73638">
        <ele>838</ele>
        <time>2018-07-01T08:37:20.000Z</time>
      </trkpt>
      <trkpt lat="47.23246" lon="6.73639">
        <ele>838</ele>
        <time>2018-07-01T08:37:21.000Z</time>
      </trkpt>
      <trkpt lat="47.23246" lon="6.73639">
        <ele>838</ele>
        <time>2018-07-01T08:37:22.000Z</time>
      </trkpt>
      <trkpt lat="47.23247" lon="6.7364">
        <ele>838</ele>
        <time>2018-07-01T08:37:23.000Z</time>
      </trkpt>
      <trkpt lat="47.23248" lon="6.73641">
        <ele>838</ele>
        <time>2018-07-01T08:37:24.000Z</time>
      </trkpt>
      <trkpt lat="47.23249" lon="6.73642">
        <ele>839</ele>
        <time>2018-07-01T08:37:25.000Z</time>
      </trkpt>
      <trkpt lat="47.2325" lon="6.73643">
        <ele>839</ele>
        <time>2018-07-01T08:37:26.000Z</time>
      </trkpt>
      <trkpt lat="47.2325" lon="6.73644">
        <ele>849</ele>
        <time>2018-07-01T08:37:27.000Z</time>
      </trkpt>
      <trkpt lat="47.23251" lon="6.73645">
        <ele>849</ele>
        <time>2018-07-01T08:37:28.000Z</time>
      </trkpt>
      <trkpt lat="47.23251" lon="6.73646">
        <ele>849</ele>
        <time>2018-07-01T08:37:29.000Z</time>
      </trkpt>
      <trkpt lat="47.23252" lon="6.73648">
        <ele>848</ele>
        <time>2018-07-01T08:37:30.000Z</time>
      </trkpt>
      <trkpt lat="47.23252" lon="6.73649">
        <ele>848</ele>
        <time>2018-07-01T08:37:31.000Z</time>
      </trkpt>
      <trkpt lat="47.23253" lon="6.7365">
        <ele>848</ele>
        <time>2018-07-01T08:37:32.000Z</time>
      </trkpt>
      <trkpt lat="47.23253" lon="6.73651">
        <ele>848</ele>
        <time>2018-07-01T08:37:33.000Z</time>
      </trkpt>
      <trkpt lat="47.23254" lon="6.73652">
        <ele>848</ele>
        <time>2018-07-01T08:37:34.000Z</time>
      </trkpt>
      <trkpt lat="47.23255" lon="6.73652">
        <ele>848</ele>
        <time>2018-07-01T08:37:35.000Z</time>
      </trkpt>
      <trkpt lat="47.23256" lon="6.73654">
        <ele>848</ele>
        <time>2018-07-01T08:37:36.000Z</time>
      </trkpt>
      <trkpt lat="47.23257" lon="6.73655">
        <ele>848</ele>
        <time>2018-07-01T08:37:37.000Z</time>
      </trkpt>
      <trkpt lat="47.23258" lon="6.73657">
        <ele>848</ele>
        <time>2018-07-01T08:37:38.000Z</time>
      </trkpt>
      <trkpt lat="47.23259" lon="6.73658">
        <ele>848</ele>
        <time>2018-07-01T08:37:39.000Z</time>
      </trkpt>
      <trkpt lat="47.23261" lon="6.73661">
        <ele>848</ele>
        <time>2018-07-01T08:37:40.000Z</time>
      </trkpt>
      <trkpt lat="47.23262" lon="6.73662">
        <ele>848</ele>
        <time>2018-07-01T08:37:41.000Z</time>
      </trkpt>
      <trkpt lat="47.23263" lon="6.73664">
        <ele>848</ele>
        <time>2018-07-01T08:37:42.000Z</time>
      </trkpt>
      <trkpt lat="47.23265" lon="6.73665">
        <ele>848</ele>
        <time>2018-07-01T08:37:43.000Z</time>
      </trkpt>
      <trkpt lat="47.23267" lon="6.73665">
        <ele>849</ele>
        <time>2018-07-01T08:37:44.000Z</time>
      </trkpt>
      <trkpt lat="47.23269" lon="6.73667">
        <ele>847</ele>
        <time>2018-07-01T08:37:45.000Z</time>
      </trkpt>
      <trkpt lat="47.23271" lon="6.73668">
        <ele>847</ele>
        <time>2018-07-01T08:37:46.000Z</time>
      </trkpt>
      <trkpt lat="47.23273" lon="6.7367">
        <ele>847</ele>
        <time>2018-07-01T08:37:47.000Z</time>
      </trkpt>
      <trkpt lat="47.23274" lon="6.73673">
        <ele>847</ele>
        <time>2018-07-01T08:37:48.000Z</time>
      </trkpt>
      <trkpt lat="47.23276" lon="6.73675">
        <ele>847</ele>
        <time>2018-07-01T08:37:49.000Z</time>
      </trkpt>
      <trkpt lat="47.23277" lon="6.73677">
        <ele>847</ele>
        <time>2018-07-01T08:37:50.000Z</time>
      </trkpt>
      <trkpt lat="47.23278" lon="6.73679">
        <ele>847</ele>
        <time>2018-07-01T08:37:51.000Z</time>
      </trkpt>
      <trkpt lat="47.23279" lon="6.73681">
        <ele>847</ele>
        <time>2018-07-01T08:37:52.000Z</time>
      </trkpt>
      <trkpt lat="47.23281" lon="6.73683">
        <ele>847</ele>
        <time>2018-07-01T08:37:53.000Z</time>
      </trkpt>
      <trkpt lat="47.23283" lon="6.73685">
        <ele>848</ele>
        <time>2018-07-01T08:37:54.000Z</time>
      </trkpt>
      <trkpt lat="47.23284" lon="6.73688">
        <ele>848</ele>
        <time>2018-07-01T08:37:55.000Z</time>
      </trkpt>
      <trkpt lat="47.23286" lon="6.7369">
        <ele>848</ele>
        <time>2018-07-01T08:37:56.000Z</time>
      </trkpt>
      <trkpt lat="47.23287" lon="6.73693">
        <ele>848</ele>
        <time>2018-07-01T08:37:57.000Z</time>
      </trkpt>
      <trkpt lat="47.23289" lon="6.73695">
        <ele>848</ele>
        <time>2018-07-01T08:37:58.000Z</time>
      </trkpt>
      <trkpt lat="47.23291" lon="6.73697">
        <ele>848</ele>
        <time>2018-07-01T08:37:59.000Z</time>
      </trkpt>
      <trkpt lat="47.23293" lon="6.73699">
        <ele>848</ele>
        <time>2018-07-01T08:38:00.000Z</time>
      </trkpt>
      <trkpt lat="47.23295" lon="6.73701">
        <ele>848</ele>
        <time>2018-07-01T08:38:01.000Z</time>
      </trkpt>
      <trkpt lat="47.23297" lon="6.73703">
        <ele>848</ele>
        <time>2018-07-01T08:38:02.000Z</time>
      </trkpt>
      <trkpt lat="47.23299" lon="6.73705">
        <ele>848</ele>
        <time>2018-07-01T08:38:03.000Z</time>
      </trkpt>
      <trkpt lat="47.23301" lon="6.73707">
        <ele>848</ele>
        <time>2018-07-01T08:38:04.000Z</time>
      </trkpt>
      <trkpt lat="47.23303" lon="6.7371">
        <ele>849</ele>
        <time>2018-07-01T08:38:05.000Z</time>
      </trkpt>
      <trkpt lat="47.23305" lon="6.73712">
        <ele>849</ele>
        <time>2018-07-01T08:38:06.000Z</time>
      </trkpt>
      <trkpt lat="47.23307" lon="6.73714">
        <ele>849</ele>
        <time>2018-07-01T08:38:07.000Z</time>
      </trkpt>
      <trkpt lat="47.23309" lon="6.73715">
        <ele>849</ele>
        <time>2018-07-01T08:38:08.000Z</time>
      </trkpt>
      <trkpt lat="47.23311" lon="6.73717">
        <ele>849</ele>
        <time>2018-07-01T08:38:09.000Z</time>
      </trkpt>
      <trkpt lat="47.23313" lon="6.73718">
        <ele>850</ele>
        <time>2018-07-01T08:38:10.000Z</time>
      </trkpt>
      <trkpt lat="47.23315" lon="6.7372">
        <ele>850</ele>
        <time>2018-07-01T08:38:11.000Z</time>
      </trkpt>
      <trkpt lat="47.23317" lon="6.73721">
        <ele>850</ele>
        <time>2018-07-01T08:38:12.000Z</time>
      </trkpt>
      <trkpt lat="47.2332" lon="6.73723">
        <ele>850</ele>
        <time>2018-07-01T08:38:13.000Z</time>
      </trkpt>
      <trkpt lat="47.23322" lon="6.73725">
        <ele>851</ele>
        <time>2018-07-01T08:38:14.000Z</time>
      </trkpt>
      <trkpt lat="47.23324" lon="6.73727">
        <ele>851</ele>
        <time>2018-07-01T08:38:15.000Z</time>
      </trkpt>
      <trkpt lat="47.23326" lon="6.73729">
        <ele>851</ele>
        <time>2018-07-01T08:38:16.000Z</time>
      </trkpt>
      <trkpt lat="47.23328" lon="6.73731">
        <ele>852</ele>
        <time>2018-07-01T08:38:17.000Z</time>
      </trkpt>
      <trkpt lat="47.23329" lon="6.73734">
        <ele>852</ele>
        <time>2018-07-01T08:38:18.000Z</time>
      </trkpt>
      <trkpt lat="47.23331" lon="6.73737">
        <ele>853</ele>
        <time>2018-07-01T08:38:19.000Z</time>
      </trkpt>
      <trkpt lat="47.23332" lon="6.73739">
        <ele>854</ele>
        <time>2018-07-01T08:38:20.000Z</time>
      </trkpt>
      <trkpt lat="47.23333" lon="6.73741">
        <ele>854</ele>
        <time>2018-07-01T08:38:21.000Z</time>
      </trkpt>
      <trkpt lat="47.23335" lon="6.73743">
        <ele>856</ele>
        <time>2018-07-01T08:38:22.000Z</time>
      </trkpt>
      <trkpt lat="47.23336" lon="6.73745">
        <ele>856</ele>
        <time>2018-07-01T08:38:23.000Z</time>
      </trkpt>
      <trkpt lat="47.23337" lon="6.73747">
        <ele>856</ele>
        <time>2018-07-01T08:38:24.000Z</time>
      </trkpt>
      <trkpt lat="47.23338" lon="6.73749">
        <ele>856</ele>
        <time>2018-07-01T08:38:25.000Z</time>
      </trkpt>
      <trkpt lat="47.2334" lon="6.73752">
        <ele>856</ele>
        <time>2018-07-01T08:38:26.000Z</time>
      </trkpt>
      <trkpt lat="47.23341" lon="6.73754">
        <ele>856</ele>
        <time>2018-07-01T08:38:27.000Z</time>
      </trkpt>
      <trkpt lat="47.23342" lon="6.73757">
        <ele>856</ele>
        <time>2018-07-01T08:38:28.000Z</time>
      </trkpt>
      <trkpt lat="47.23343" lon="6.73759">
        <ele>856</ele>
        <time>2018-07-01T08:38:29.000Z</time>
      </trkpt>
      <trkpt lat="47.23344" lon="6.73761">
        <ele>855</ele>
        <time>2018-07-01T08:38:30.000Z</time>
      </trkpt>
      <trkpt lat="47.23346" lon="6.73763">
        <ele>855</ele>
        <time>2018-07-01T08:38:31.000Z</time>
      </trkpt>
      <trkpt lat="47.23347" lon="6.73765">
        <ele>855</ele>
        <time>2018-07-01T08:38:32.000Z</time>
      </trkpt>
      <trkpt lat="47.23349" lon="6.73767">
        <ele>855</ele>
        <time>2018-07-01T08:38:33.000Z</time>
      </trkpt>
      <trkpt lat="47.2335" lon="6.73769">
        <ele>855</ele>
        <time>2018-07-01T08:38:34.000Z</time>
      </trkpt>
      <trkpt lat="47.23352" lon="6.73771">
        <ele>855</ele>
        <time>2018-07-01T08:38:35.000Z</time>
      </trkpt>
      <trkpt lat="47.23354" lon="6.73773">
        <ele>855</ele>
        <time>2018-07-01T08:38:36.000Z</time>
      </trkpt>
      <trkpt lat="47.23356" lon="6.73775">
        <ele>855</ele>
        <time>2018-07-01T08:38:37.000Z</time>
      </trkpt>
      <trkpt lat="47.23358" lon="6.73778">
        <ele>854</ele>
        <time>2018-07-01T08:38:38.000Z</time>
      </trkpt>
      <trkpt lat="47.2336" lon="6.7378">
        <ele>854</ele>
        <time>2018-07-01T08:38:39.000Z</time>
      </trkpt>
      <trkpt lat="47.23362" lon="6.73782">
        <ele>854</ele>
        <time>2018-07-01T08:38:40.000Z</time>
      </trkpt>
      <trkpt lat="47.23363" lon="6.73785">
        <ele>854</ele>
        <time>2018-07-01T08:38:41.000Z</time>
      </trkpt>
      <trkpt lat="47.23365" lon="6.73787">
        <ele>854</ele>
        <time>2018-07-01T08:38:42.000Z</time>
      </trkpt>
      <trkpt lat="47.23366" lon="6.73789">
        <ele>854</ele>
        <time>2018-07-01T08:38:43.000Z</time>
      </trkpt>
      <trkpt lat="47.23367" lon="6.73791">
        <ele>854</ele>
        <time>2018-07-01T08:38:44.000Z</time>
      </trkpt>
      <trkpt lat="47.23369" lon="6.73793">
        <ele>854</ele>
        <time>2018-07-01T08:38:45.000Z</time>
      </trkpt>
      <trkpt lat="47.23371" lon="6.73795">
        <ele>854</ele>
        <time>2018-07-01T08:38:46.000Z</time>
      </trkpt>
      <trkpt lat="47.23373" lon="6.73797">
        <ele>854</ele>
        <time>2018-07-01T08:38:47.000Z</time>
      </trkpt>
      <trkpt lat="47.23375" lon="6.73799">
        <ele>854</ele>
        <time>2018-07-01T08:38:48.000Z</time>
      </trkpt>
      <trkpt lat="47.23377" lon="6.73801">
        <ele>854</ele>
        <time>2018-07-01T08:38:49.000Z</time>
      </trkpt>
      <trkpt lat="47.23379" lon="6.73802">
        <ele>855</ele>
        <time>2018-07-01T08:38:50.000Z</time>
      </trkpt>
      <trkpt lat="47.23381" lon="6.73804">
        <ele>855</ele>
        <time>2018-07-01T08:38:51.000Z</time>
      </trkpt>
      <trkpt lat="47.23383" lon="6.73805">
        <ele>855</ele>
        <time>2018-07-01T08:38:52.000Z</time>
      </trkpt>
      <trkpt lat="47.23385" lon="6.73807">
        <ele>855</ele>
        <time>2018-07-01T08:38:53.000Z</time>
      </trkpt>
      <trkpt lat="47.23388" lon="6.73809">
        <ele>855</ele>
        <time>2018-07-01T08:38:54.000Z</time>
      </trkpt>
      <trkpt lat="47.23389" lon="6.7381">
        <ele>856</ele>
        <time>2018-07-01T08:38:55.000Z</time>
      </trkpt>
      <trkpt lat="47.23391" lon="6.73812">
        <ele>856</ele>
        <time>2018-07-01T08:38:56.000Z</time>
      </trkpt>
      <trkpt lat="47.23393" lon="6.73815">
        <ele>856</ele>
        <time>2018-07-01T08:38:57.000Z</time>
      </trkpt>
      <trkpt lat="47.23395" lon="6.73817">
        <ele>856</ele>
        <time>2018-07-01T08:38:58.000Z</time>
      </trkpt>
      <trkpt lat="47.23396" lon="6.73819">
        <ele>857</ele>
        <time>2018-07-01T08:38:59.000Z</time>
      </trkpt>
      <trkpt lat="47.23398" lon="6.73821">
        <ele>857</ele>
        <time>2018-07-01T08:39:00.000Z</time>
      </trkpt>
      <trkpt lat="47.234" lon="6.73823">
        <ele>857</ele>
        <time>2018-07-01T08:39:01.000Z</time>
      </trkpt>
      <trkpt lat="47.23402" lon="6.73824">
        <ele>858</ele>
        <time>2018-07-01T08:39:02.000Z</time>
      </trkpt>
      <trkpt lat="47.23404" lon="6.73826">
        <ele>858</ele>
        <time>2018-07-01T08:39:03.000Z</time>
      </trkpt>
      <trkpt lat="47.23406" lon="6.73829">
        <ele>859</ele>
        <time>2018-07-01T08:39:04.000Z</time>
      </trkpt>
      <trkpt lat="47.23407" lon="6.73831">
        <ele>859</ele>
        <time>2018-07-01T08:39:05.000Z</time>
      </trkpt>
      <trkpt lat="47.23409" lon="6.73834">
        <ele>858</ele>
        <time>2018-07-01T08:39:06.000Z</time>
      </trkpt>
      <trkpt lat="47.2341" lon="6.73836">
        <ele>859</ele>
        <time>2018-07-01T08:39:07.000Z</time>
      </trkpt>
      <trkpt lat="47.23412" lon="6.73838">
        <ele>859</ele>
        <time>2018-07-01T08:39:08.000Z</time>
      </trkpt>
      <trkpt lat="47.23413" lon="6.7384">
        <ele>858</ele>
        <time>2018-07-01T08:39:09.000Z</time>
      </trkpt>
      <trkpt lat="47.23414" lon="6.73843">
        <ele>857</ele>
        <time>2018-07-01T08:39:10.000Z</time>
      </trkpt>
      <trkpt lat="47.23416" lon="6.73845">
        <ele>857</ele>
        <time>2018-07-01T08:39:11.000Z</time>
      </trkpt>
      <trkpt lat="47.23416" lon="6.73847">
        <ele>856</ele>
        <time>2018-07-01T08:39:12.000Z</time>
      </trkpt>
      <trkpt lat="47.23418" lon="6.73849">
        <ele>859</ele>
        <time>2018-07-01T08:39:13.000Z</time>
      </trkpt>
      <trkpt lat="47.23419" lon="6.73852">
        <ele>858</ele>
        <time>2018-07-01T08:39:14.000Z</time>
      </trkpt>
      <trkpt lat="47.2342" lon="6.73855">
        <ele>858</ele>
        <time>2018-07-01T08:39:15.000Z</time>
      </trkpt>
      <trkpt lat="47.23422" lon="6.73858">
        <ele>858</ele>
        <time>2018-07-01T08:39:16.000Z</time>
      </trkpt>
      <trkpt lat="47.23424" lon="6.7386">
        <ele>857</ele>
        <time>2018-07-01T08:39:17.000Z</time>
      </trkpt>
      <trkpt lat="47.23425" lon="6.73862">
        <ele>857</ele>
        <time>2018-07-01T08:39:18.000Z</time>
      </trkpt>
      <trkpt lat="47.23427" lon="6.73864">
        <ele>857</ele>
        <time>2018-07-01T08:39:19.000Z</time>
      </trkpt>
      <trkpt lat="47.23429" lon="6.73867">
        <ele>857</ele>
        <time>2018-07-01T08:39:20.000Z</time>
      </trkpt>
      <trkpt lat="47.2343" lon="6.73869">
        <ele>856</ele>
        <time>2018-07-01T08:39:21.000Z</time>
      </trkpt>
      <trkpt lat="47.23431" lon="6.73872">
        <ele>856</ele>
        <time>2018-07-01T08:39:22.000Z</time>
      </trkpt>
      <trkpt lat="47.23432" lon="6.73874">
        <ele>856</ele>
        <time>2018-07-01T08:39:23.000Z</time>
      </trkpt>
      <trkpt lat="47.23433" lon="6.73877">
        <ele>856</ele>
        <time>2018-07-01T08:39:24.000Z</time>
      </trkpt>
      <trkpt lat="47.23433" lon="6.73879">
        <ele>856</ele>
        <time>2018-07-01T08:39:25.000Z</time>
      </trkpt>
      <trkpt lat="47.23434" lon="6.73881">
        <ele>856</ele>
        <time>2018-07-01T08:39:26.000Z</time>
      </trkpt>
      <trkpt lat="47.23434" lon="6.73883">
        <ele>856</ele>
        <time>2018-07-01T08:39:27.000Z</time>
      </trkpt>
      <trkpt lat="47.23435" lon="6.73885">
        <ele>856</ele>
        <time>2018-07-01T08:39:28.000Z</time>
      </trkpt>
      <trkpt lat="47.23436" lon="6.73888">
        <ele>856</ele>
        <time>2018-07-01T08:39:29.000Z</time>
      </trkpt>
      <trkpt lat="47.23437" lon="6.7389">
        <ele>856</ele>
        <time>2018-07-01T08:39:30.000Z</time>
      </trkpt>
      <trkpt lat="47.23438" lon="6.73892">
        <ele>856</ele>
        <time>2018-07-01T08:39:31.000Z</time>
      </trkpt>
      <trkpt lat="47.23439" lon="6.73894">
        <ele>856</ele>
        <time>2018-07-01T08:39:32.000Z</time>
      </trkpt>
      <trkpt lat="47.2344" lon="6.73897">
        <ele>856</ele>
        <time>2018-07-01T08:39:33.000Z</time>
      </trkpt>
      <trkpt lat="47.23441" lon="6.73899">
        <ele>855</ele>
        <time>2018-07-01T08:39:34.000Z</time>
      </trkpt>
      <trkpt lat="47.23442" lon="6.73902">
        <ele>855</ele>
        <time>2018-07-01T08:39:35.000Z</time>
      </trkpt>
      <trkpt lat="47.23443" lon="6.73904">
        <ele>855</ele>
        <time>2018-07-01T08:39:36.000Z</time>
      </trkpt>
      <trkpt lat="47.23444" lon="6.73907">
        <ele>855</ele>
        <time>2018-07-01T08:39:37.000Z</time>
      </trkpt>
      <trkpt lat="47.23446" lon="6.7391">
        <ele>855</ele>
        <time>2018-07-01T08:39:38.000Z</time>
      </trkpt>
      <trkpt lat="47.23447" lon="6.73912">
        <ele>855</ele>
        <time>2018-07-01T08:39:39.000Z</time>
      </trkpt>
      <trkpt lat="47.23448" lon="6.73915">
        <ele>855</ele>
        <time>2018-07-01T08:39:40.000Z</time>
      </trkpt>
      <trkpt lat="47.2345" lon="6.73917">
        <ele>854</ele>
        <time>2018-07-01T08:39:41.000Z</time>
      </trkpt>
      <trkpt lat="47.23451" lon="6.7392">
        <ele>854</ele>
        <time>2018-07-01T08:39:42.000Z</time>
      </trkpt>
      <trkpt lat="47.23453" lon="6.73923">
        <ele>854</ele>
        <time>2018-07-01T08:39:43.000Z</time>
      </trkpt>
      <trkpt lat="47.23454" lon="6.73926">
        <ele>854</ele>
        <time>2018-07-01T08:39:44.000Z</time>
      </trkpt>
      <trkpt lat="47.23456" lon="6.73929">
        <ele>854</ele>
        <time>2018-07-01T08:39:45.000Z</time>
      </trkpt>
      <trkpt lat="47.23457" lon="6.73933">
        <ele>854</ele>
        <time>2018-07-01T08:39:46.000Z</time>
      </trkpt>
      <trkpt lat="47.23458" lon="6.73936">
        <ele>854</ele>
        <time>2018-07-01T08:39:47.000Z</time>
      </trkpt>
      <trkpt lat="47.23459" lon="6.73939">
        <ele>854</ele>
        <time>2018-07-01T08:39:48.000Z</time>
      </trkpt>
      <trkpt lat="47.2346" lon="6.73942">
        <ele>854</ele>
        <time>2018-07-01T08:39:49.000Z</time>
      </trkpt>
      <trkpt lat="47.23461" lon="6.73944">
        <ele>854</ele>
        <time>2018-07-01T08:39:50.000Z</time>
      </trkpt>
      <trkpt lat="47.23463" lon="6.73947">
        <ele>854</ele>
        <time>2018-07-01T08:39:51.000Z</time>
      </trkpt>
      <trkpt lat="47.23465" lon="6.73949">
        <ele>854</ele>
        <time>2018-07-01T08:39:52.000Z</time>
      </trkpt>
      <trkpt lat="47.23467" lon="6.7395">
        <ele>854</ele>
        <time>2018-07-01T08:39:53.000Z</time>
      </trkpt>
      <trkpt lat="47.23469" lon="6.73952">
        <ele>854</ele>
        <time>2018-07-01T08:39:54.000Z</time>
      </trkpt>
      <trkpt lat="47.23471" lon="6.73954">
        <ele>854</ele>
        <time>2018-07-01T08:39:55.000Z</time>
      </trkpt>
      <trkpt lat="47.23474" lon="6.73956">
        <ele>855</ele>
        <time>2018-07-01T08:39:56.000Z</time>
      </trkpt>
      <trkpt lat="47.23476" lon="6.73958">
        <ele>855</ele>
        <time>2018-07-01T08:39:57.000Z</time>
      </trkpt>
      <trkpt lat="47.23479" lon="6.73961">
        <ele>855</ele>
        <time>2018-07-01T08:39:58.000Z</time>
      </trkpt>
      <trkpt lat="47.23482" lon="6.73963">
        <ele>855</ele>
        <time>2018-07-01T08:39:59.000Z</time>
      </trkpt>
      <trkpt lat="47.23485" lon="6.73966">
        <ele>855</ele>
        <time>2018-07-01T08:40:00.000Z</time>
      </trkpt>
      <trkpt lat="47.23487" lon="6.73968">
        <ele>856</ele>
        <time>2018-07-01T08:40:01.000Z</time>
      </trkpt>
      <trkpt lat="47.2349" lon="6.7397">
        <ele>856</ele>
        <time>2018-07-01T08:40:02.000Z</time>
      </trkpt>
      <trkpt lat="47.23493" lon="6.73972">
        <ele>856</ele>
        <time>2018-07-01T08:40:03.000Z</time>
      </trkpt>
      <trkpt lat="47.23496" lon="6.73974">
        <ele>856</ele>
        <time>2018-07-01T08:40:04.000Z</time>
      </trkpt>
      <trkpt lat="47.23499" lon="6.73976">
        <ele>857</ele>
        <time>2018-07-01T08:40:05.000Z</time>
      </trkpt>
      <trkpt lat="47.23501" lon="6.73977">
        <ele>856</ele>
        <time>2018-07-01T08:40:06.000Z</time>
      </trkpt>
      <trkpt lat="47.23504" lon="6.73979">
        <ele>856</ele>
        <time>2018-07-01T08:40:07.000Z</time>
      </trkpt>
      <trkpt lat="47.23507" lon="6.73981">
        <ele>857</ele>
        <time>2018-07-01T08:40:08.000Z</time>
      </trkpt>
      <trkpt lat="47.2351" lon="6.73984">
        <ele>857</ele>
        <time>2018-07-01T08:40:09.000Z</time>
      </trkpt>
      <trkpt lat="47.23513" lon="6.73986">
        <ele>857</ele>
        <time>2018-07-01T08:40:10.000Z</time>
      </trkpt>
      <trkpt lat="47.23516" lon="6.73988">
        <ele>856</ele>
        <time>2018-07-01T08:40:11.000Z</time>
      </trkpt>
      <trkpt lat="47.23519" lon="6.7399">
        <ele>856</ele>
        <time>2018-07-01T08:40:12.000Z</time>
      </trkpt>
      <trkpt lat="47.23523" lon="6.73992">
        <ele>856</ele>
        <time>2018-07-01T08:40:13.000Z</time>
      </trkpt>
      <trkpt lat="47.23526" lon="6.73994">
        <ele>855</ele>
        <time>2018-07-01T08:40:14.000Z</time>
      </trkpt>
      <trkpt lat="47.23529" lon="6.73997">
        <ele>855</ele>
        <time>2018-07-01T08:40:15.000Z</time>
      </trkpt>
      <trkpt lat="47.23533" lon="6.74">
        <ele>855</ele>
        <time>2018-07-01T08:40:16.000Z</time>
      </trkpt>
      <trkpt lat="47.23536" lon="6.74003">
        <ele>857</ele>
        <time>2018-07-01T08:40:17.000Z</time>
      </trkpt>
      <trkpt lat="47.2354" lon="6.74006">
        <ele>857</ele>
        <time>2018-07-01T08:40:18.000Z</time>
      </trkpt>
      <trkpt lat="47.23543" lon="6.74009">
        <ele>857</ele>
        <time>2018-07-01T08:40:19.000Z</time>
      </trkpt>
      <trkpt lat="47.23547" lon="6.74013">
        <ele>857</ele>
        <time>2018-07-01T08:40:20.000Z</time>
      </trkpt>
      <trkpt lat="47.2355" lon="6.74016">
        <ele>856</ele>
        <time>2018-07-01T08:40:21.000Z</time>
      </trkpt>
      <trkpt lat="47.23553" lon="6.74019">
        <ele>856</ele>
        <time>2018-07-01T08:40:22.000Z</time>
      </trkpt>
      <trkpt lat="47.23557" lon="6.74022">
        <ele>856</ele>
        <time>2018-07-01T08:40:23.000Z</time>
      </trkpt>
      <trkpt lat="47.2356" lon="6.74026">
        <ele>856</ele>
        <time>2018-07-01T08:40:24.000Z</time>
      </trkpt>
      <trkpt lat="47.23563" lon="6.74029">
        <ele>856</ele>
        <time>2018-07-01T08:40:25.000Z</time>
      </trkpt>
      <trkpt lat="47.23566" lon="6.74032">
        <ele>856</ele>
        <time>2018-07-01T08:40:26.000Z</time>
      </trkpt>
      <trkpt lat="47.23569" lon="6.74036">
        <ele>857</ele>
        <time>2018-07-01T08:40:27.000Z</time>
      </trkpt>
      <trkpt lat="47.23572" lon="6.74039">
        <ele>857</ele>
        <time>2018-07-01T08:40:28.000Z</time>
      </trkpt>
      <trkpt lat="47.23574" lon="6.74043">
        <ele>857</ele>
        <time>2018-07-01T08:40:29.000Z</time>
      </trkpt>
      <trkpt lat="47.23577" lon="6.74046">
        <ele>857</ele>
        <time>2018-07-01T08:40:30.000Z</time>
      </trkpt>
      <trkpt lat="47.23579" lon="6.74049">
        <ele>858</ele>
        <time>2018-07-01T08:40:31.000Z</time>
      </trkpt>
      <trkpt lat="47.23582" lon="6.74053">
        <ele>858</ele>
        <time>2018-07-01T08:40:32.000Z</time>
      </trkpt>
      <trkpt lat="47.23584" lon="6.74057">
        <ele>854</ele>
        <time>2018-07-01T08:40:33.000Z</time>
      </trkpt>
      <trkpt lat="47.23586" lon="6.7406">
        <ele>855</ele>
        <time>2018-07-01T08:40:34.000Z</time>
      </trkpt>
      <trkpt lat="47.23588" lon="6.74064">
        <ele>855</ele>
        <time>2018-07-01T08:40:35.000Z</time>
      </trkpt>
      <trkpt lat="47.2359" lon="6.74068">
        <ele>856</ele>
        <time>2018-07-01T08:40:36.000Z</time>
      </trkpt>
      <trkpt lat="47.23591" lon="6.74071">
        <ele>857</ele>
        <time>2018-07-01T08:40:37.000Z</time>
      </trkpt>
      <trkpt lat="47.23593" lon="6.74075">
        <ele>857</ele>
        <time>2018-07-01T08:40:38.000Z</time>
      </trkpt>
      <trkpt lat="47.23594" lon="6.74078">
        <ele>857</ele>
        <time>2018-07-01T08:40:39.000Z</time>
      </trkpt>
      <trkpt lat="47.23595" lon="6.74082">
        <ele>857</ele>
        <time>2018-07-01T08:40:40.000Z</time>
      </trkpt>
      <trkpt lat="47.23596" lon="6.74085">
        <ele>861</ele>
        <time>2018-07-01T08:40:41.000Z</time>
      </trkpt>
      <trkpt lat="47.23596" lon="6.74088">
        <ele>861</ele>
        <time>2018-07-01T08:40:42.000Z</time>
      </trkpt>
      <trkpt lat="47.23597" lon="6.74091">
        <ele>861</ele>
        <time>2018-07-01T08:40:43.000Z</time>
      </trkpt>
      <trkpt lat="47.23598" lon="6.74094">
        <ele>861</ele>
        <time>2018-07-01T08:40:44.000Z</time>
      </trkpt>
      <trkpt lat="47.23599" lon="6.74097">
        <ele>861</ele>
        <time>2018-07-01T08:40:45.000Z</time>
      </trkpt>
      <trkpt lat="47.23599" lon="6.741">
        <ele>861</ele>
        <time>2018-07-01T08:40:46.000Z</time>
      </trkpt>
      <trkpt lat="47.236" lon="6.74103">
        <ele>861</ele>
        <time>2018-07-01T08:40:47.000Z</time>
      </trkpt>
      <trkpt lat="47.23601" lon="6.74106">
        <ele>861</ele>
        <time>2018-07-01T08:40:48.000Z</time>
      </trkpt>
      <trkpt lat="47.23602" lon="6.74109">
        <ele>861</ele>
        <time>2018-07-01T08:40:49.000Z</time>
      </trkpt>
      <trkpt lat="47.23602" lon="6.74112">
        <ele>861</ele>
        <time>2018-07-01T08:40:50.000Z</time>
      </trkpt>
      <trkpt lat="47.23603" lon="6.74114">
        <ele>861</ele>
        <time>2018-07-01T08:40:51.000Z</time>
      </trkpt>
      <trkpt lat="47.23604" lon="6.74116">
        <ele>861</ele>
        <time>2018-07-01T08:40:52.000Z</time>
      </trkpt>
      <trkpt lat="47.23605" lon="6.74117">
        <ele>861</ele>
        <time>2018-07-01T08:40:53.000Z</time>
      </trkpt>
      <trkpt lat="47.23606" lon="6.74119">
        <ele>861</ele>
        <time>2018-07-01T08:40:54.000Z</time>
      </trkpt>
      <trkpt lat="47.23607" lon="6.74121">
        <ele>861</ele>
        <time>2018-07-01T08:40:55.000Z</time>
      </trkpt>
      <trkpt lat="47.23608" lon="6.74124">
        <ele>861</ele>
        <time>2018-07-01T08:40:56.000Z</time>
      </trkpt>
      <trkpt lat="47.23609" lon="6.74127">
        <ele>861</ele>
        <time>2018-07-01T08:40:57.000Z</time>
      </trkpt>
      <trkpt lat="47.2361" lon="6.7413">
        <ele>861</ele>
        <time>2018-07-01T08:40:58.000Z</time>
      </trkpt>
      <trkpt lat="47.23611" lon="6.74133">
        <ele>861</ele>
        <time>2018-07-01T08:40:59.000Z</time>
      </trkpt>
      <trkpt lat="47.23612" lon="6.74136">
        <ele>861</ele>
        <time>2018-07-01T08:41:00.000Z</time>
      </trkpt>
      <trkpt lat="47.23612" lon="6.7414">
        <ele>862</ele>
        <time>2018-07-01T08:41:01.000Z</time>
      </trkpt>
      <trkpt lat="47.23613" lon="6.74143">
        <ele>862</ele>
        <time>2018-07-01T08:41:02.000Z</time>
      </trkpt>
      <trkpt lat="47.23613" lon="6.74147">
        <ele>862</ele>
        <time>2018-07-01T08:41:03.000Z</time>
      </trkpt>
      <trkpt lat="47.23614" lon="6.7415">
        <ele>862</ele>
        <time>2018-07-01T08:41:04.000Z</time>
      </trkpt>
      <trkpt lat="47.23615" lon="6.74153">
        <ele>862</ele>
        <time>2018-07-01T08:41:05.000Z</time>
      </trkpt>
      <trkpt lat="47.23616" lon="6.74156">
        <ele>862</ele>
        <time>2018-07-01T08:41:06.000Z</time>
      </trkpt>
      <trkpt lat="47.23617" lon="6.74159">
        <ele>862</ele>
        <time>2018-07-01T08:41:07.000Z</time>
      </trkpt>
      <trkpt lat="47.23618" lon="6.74162">
        <ele>862</ele>
        <time>2018-07-01T08:41:08.000Z</time>
      </trkpt>
      <trkpt lat="47.23619" lon="6.74165">
        <ele>862</ele>
        <time>2018-07-01T08:41:09.000Z</time>
      </trkpt>
      <trkpt lat="47.2362" lon="6.74167">
        <ele>866</ele>
        <time>2018-07-01T08:41:10.000Z</time>
      </trkpt>
      <trkpt lat="47.23621" lon="6.7417">
        <ele>866</ele>
        <time>2018-07-01T08:41:11.000Z</time>
      </trkpt>
      <trkpt lat="47.23622" lon="6.74173">
        <ele>866</ele>
        <time>2018-07-01T08:41:12.000Z</time>
      </trkpt>
      <trkpt lat="47.23623" lon="6.74176">
        <ele>866</ele>
        <time>2018-07-01T08:41:13.000Z</time>
      </trkpt>
      <trkpt lat="47.23624" lon="6.74179">
        <ele>866</ele>
        <time>2018-07-01T08:41:14.000Z</time>
      </trkpt>
      <trkpt lat="47.23624" lon="6.74182">
        <ele>866</ele>
        <time>2018-07-01T08:41:15.000Z</time>
      </trkpt>
      <trkpt lat="47.23625" lon="6.74186">
        <ele>866</ele>
        <time>2018-07-01T08:41:16.000Z</time>
      </trkpt>
      <trkpt lat="47.23626" lon="6.74189">
        <ele>866</ele>
        <time>2018-07-01T08:41:17.000Z</time>
      </trkpt>
      <trkpt lat="47.23626" lon="6.74193">
        <ele>867</ele>
        <time>2018-07-01T08:41:18.000Z</time>
      </trkpt>
      <trkpt lat="47.23627" lon="6.74196">
        <ele>867</ele>
        <time>2018-07-01T08:41:19.000Z</time>
      </trkpt>
      <trkpt lat="47.23627" lon="6.742">
        <ele>867</ele>
        <time>2018-07-01T08:41:20.000Z</time>
      </trkpt>
      <trkpt lat="47.23628" lon="6.74204">
        <ele>867</ele>
        <time>2018-07-01T08:41:21.000Z</time>
      </trkpt>
      <trkpt lat="47.23628" lon="6.74208">
        <ele>867</ele>
        <time>2018-07-01T08:41:22.000Z</time>
      </trkpt>
      <trkpt lat="47.23629" lon="6.74211">
        <ele>867</ele>
        <time>2018-07-01T08:41:23.000Z</time>
      </trkpt>
      <trkpt lat="47.23629" lon="6.74214">
        <ele>867</ele>
        <time>2018-07-01T08:41:24.000Z</time>
      </trkpt>
      <trkpt lat="47.2363" lon="6.74217">
        <ele>867</ele>
        <time>2018-07-01T08:41:25.000Z</time>
      </trkpt>
      <trkpt lat="47.2363" lon="6.74221">
        <ele>867</ele>
        <time>2018-07-01T08:41:26.000Z</time>
      </trkpt>
      <trkpt lat="47.23631" lon="6.74224">
        <ele>868</ele>
        <time>2018-07-01T08:41:27.000Z</time>
      </trkpt>
      <trkpt lat="47.23631" lon="6.74227">
        <ele>868</ele>
        <time>2018-07-01T08:41:28.000Z</time>
      </trkpt>
      <trkpt lat="47.23631" lon="6.74231">
        <ele>868</ele>
        <time>2018-07-01T08:41:29.000Z</time>
      </trkpt>
      <trkpt lat="47.23632" lon="6.74235">
        <ele>868</ele>
        <time>2018-07-01T08:41:30.000Z</time>
      </trkpt>
      <trkpt lat="47.23633" lon="6.74239">
        <ele>868</ele>
        <time>2018-07-01T08:41:31.000Z</time>
      </trkpt>
      <trkpt lat="47.23634" lon="6.74242">
        <ele>868</ele>
        <time>2018-07-01T08:41:32.000Z</time>
      </trkpt>
      <trkpt lat="47.23635" lon="6.74245">
        <ele>868</ele>
        <time>2018-07-01T08:41:33.000Z</time>
      </trkpt>
      <trkpt lat="47.23636" lon="6.74249">
        <ele>868</ele>
        <time>2018-07-01T08:41:34.000Z</time>
      </trkpt>
      <trkpt lat="47.23636" lon="6.74252">
        <ele>872</ele>
        <time>2018-07-01T08:41:35.000Z</time>
      </trkpt>
      <trkpt lat="47.23637" lon="6.74255">
        <ele>872</ele>
        <time>2018-07-01T08:41:36.000Z</time>
      </trkpt>
      <trkpt lat="47.23638" lon="6.74258">
        <ele>872</ele>
        <time>2018-07-01T08:41:37.000Z</time>
      </trkpt>
      <trkpt lat="47.23639" lon="6.7426">
        <ele>872</ele>
        <time>2018-07-01T08:41:38.000Z</time>
      </trkpt>
      <trkpt lat="47.2364" lon="6.74263">
        <ele>872</ele>
        <time>2018-07-01T08:41:39.000Z</time>
      </trkpt>
      <trkpt lat="47.23641" lon="6.74266">
        <ele>872</ele>
        <time>2018-07-01T08:41:40.000Z</time>
      </trkpt>
      <trkpt lat="47.23641" lon="6.74269">
        <ele>872</ele>
        <time>2018-07-01T08:41:41.000Z</time>
      </trkpt>
      <trkpt lat="47.23642" lon="6.74272">
        <ele>872</ele>
        <time>2018-07-01T08:41:42.000Z</time>
      </trkpt>
      <trkpt lat="47.23643" lon="6.74275">
        <ele>872</ele>
        <time>2018-07-01T08:41:43.000Z</time>
      </trkpt>
      <trkpt lat="47.23644" lon="6.74279">
        <ele>872</ele>
        <time>2018-07-01T08:41:44.000Z</time>
      </trkpt>
      <trkpt lat="47.23644" lon="6.74282">
        <ele>872</ele>
        <time>2018-07-01T08:41:45.000Z</time>
      </trkpt>
      <trkpt lat="47.23645" lon="6.74285">
        <ele>873</ele>
        <time>2018-07-01T08:41:46.000Z</time>
      </trkpt>
      <trkpt lat="47.23645" lon="6.74288">
        <ele>873</ele>
        <time>2018-07-01T08:41:47.000Z</time>
      </trkpt>
      <trkpt lat="47.23646" lon="6.7429">
        <ele>873</ele>
        <time>2018-07-01T08:41:48.000Z</time>
      </trkpt>
      <trkpt lat="47.23646" lon="6.74293">
        <ele>873</ele>
        <time>2018-07-01T08:41:49.000Z</time>
      </trkpt>
      <trkpt lat="47.23646" lon="6.74295">
        <ele>873</ele>
        <time>2018-07-01T08:41:50.000Z</time>
      </trkpt>
      <trkpt lat="47.23646" lon="6.74297">
        <ele>873</ele>
        <time>2018-07-01T08:41:51.000Z</time>
      </trkpt>
      <trkpt lat="47.23645" lon="6.74298">
        <ele>873</ele>
        <time>2018-07-01T08:41:52.000Z</time>
      </trkpt>
      <trkpt lat="47.23644" lon="6.74298">
        <ele>873</ele>
        <time>2018-07-01T08:41:53.000Z</time>
      </trkpt>
      <trkpt lat="47.23644" lon="6.74298">
        <ele>873</ele>
        <time>2018-07-01T08:41:54.000Z</time>
      </trkpt>
      <trkpt lat="47.23643" lon="6.74298">
        <ele>873</ele>
        <time>2018-07-01T08:41:55.000Z</time>
      </trkpt>
      <trkpt lat="47.23642" lon="6.74299">
        <ele>873</ele>
        <time>2018-07-01T08:41:56.000Z</time>
      </trkpt>
      <trkpt lat="47.23641" lon="6.74299">
        <ele>873</ele>
        <time>2018-07-01T08:41:57.000Z</time>
      </trkpt>
      <trkpt lat="47.23641" lon="6.74299">
        <ele>873</ele>
        <time>2018-07-01T08:41:58.000Z</time>
      </trkpt>
      <trkpt lat="47.2364" lon="6.74299">
        <ele>873</ele>
        <time>2018-07-01T08:41:59.000Z</time>
      </trkpt>
      <trkpt lat="47.23639" lon="6.743">
        <ele>873</ele>
        <time>2018-07-01T08:42:00.000Z</time>
      </trkpt>
      <trkpt lat="47.23638" lon="6.743">
        <ele>873</ele>
        <time>2018-07-01T08:42:01.000Z</time>
      </trkpt>
      <trkpt lat="47.23637" lon="6.743">
        <ele>873</ele>
        <time>2018-07-01T08:42:02.000Z</time>
      </trkpt>
      <trkpt lat="47.23636" lon="6.74299">
        <ele>873</ele>
        <time>2018-07-01T08:42:03.000Z</time>
      </trkpt>
      <trkpt lat="47.23635" lon="6.74299">
        <ele>873</ele>
        <time>2018-07-01T08:42:04.000Z</time>
      </trkpt>
      <trkpt lat="47.23634" lon="6.74299">
        <ele>873</ele>
        <time>2018-07-01T08:42:05.000Z</time>
      </trkpt>
      <trkpt lat="47.23633" lon="6.74298">
        <ele>873</ele>
        <time>2018-07-01T08:42:06.000Z</time>
      </trkpt>
      <trkpt lat="47.23632" lon="6.74298">
        <ele>873</ele>
        <time>2018-07-01T08:42:07.000Z</time>
      </trkpt>
      <trkpt lat="47.23632" lon="6.74298">
        <ele>873</ele>
        <time>2018-07-01T08:42:08.000Z</time>
      </trkpt>
      <trkpt lat="47.23631" lon="6.74298">
        <ele>872</ele>
        <time>2018-07-01T08:42:09.000Z</time>
      </trkpt>
      <trkpt lat="47.2363" lon="6.74298">
        <ele>872</ele>
        <time>2018-07-01T08:42:10.000Z</time>
      </trkpt>
      <trkpt lat="47.23629" lon="6.74297">
        <ele>872</ele>
        <time>2018-07-01T08:42:11.000Z</time>
      </trkpt>
      <trkpt lat="47.23628" lon="6.74298">
        <ele>872</ele>
        <time>2018-07-01T08:42:12.000Z</time>
      </trkpt>
      <trkpt lat="47.23628" lon="6.74298">
        <ele>872</ele>
        <time>2018-07-01T08:42:13.000Z</time>
      </trkpt>
      <trkpt lat="47.23628" lon="6.74298">
        <ele>872</ele>
        <time>2018-07-01T08:42:14.000Z</time>
      </trkpt>
      <trkpt lat="47.23628" lon="6.74299">
        <ele>872</ele>
        <time>2018-07-01T08:42:15.000Z</time>
      </trkpt>
      <trkpt lat="47.23628" lon="6.74299">
        <ele>872</ele>
        <time>2018-07-01T08:42:16.000Z</time>
      </trkpt>
      <trkpt lat="47.23627" lon="6.74299">
        <ele>872</ele>
        <time>2018-07-01T08:42:17.000Z</time>
      </trkpt>
      <trkpt lat="47.23627" lon="6.74299">
        <ele>872</ele>
        <time>2018-07-01T08:42:18.000Z</time>
      </trkpt>
      <trkpt lat="47.23626" lon="6.74298">
        <ele>872</ele>
        <time>2018-07-01T08:42:19.000Z</time>
      </trkpt>
      <trkpt lat="47.23625" lon="6.74298">
        <ele>872</ele>
        <time>2018-07-01T08:42:20.000Z</time>
      </trkpt>
      <trkpt lat="47.23624" lon="6.74298">
        <ele>872</ele>
        <time>2018-07-01T08:42:21.000Z</time>
      </trkpt>
      <trkpt lat="47.23623" lon="6.74297">
        <ele>872</ele>
        <time>2018-07-01T08:42:22.000Z</time>
      </trkpt>
      <trkpt lat="47.23622" lon="6.74296">
        <ele>872</ele>
        <time>2018-07-01T08:42:23.000Z</time>
      </trkpt>
      <trkpt lat="47.23621" lon="6.74296">
        <ele>872</ele>
        <time>2018-07-01T08:42:24.000Z</time>
      </trkpt>
      <trkpt lat="47.23621" lon="6.74295">
        <ele>872</ele>
        <time>2018-07-01T08:42:25.000Z</time>
      </trkpt>
      <trkpt lat="47.2362" lon="6.74295">
        <ele>872</ele>
        <time>2018-07-01T08:42:26.000Z</time>
      </trkpt>
      <trkpt lat="47.2362" lon="6.74294">
        <ele>872</ele>
        <time>2018-07-01T08:42:27.000Z</time>
      </trkpt>
      <trkpt lat="47.23619" lon="6.74293">
        <ele>872</ele>
        <time>2018-07-01T08:42:28.000Z</time>
      </trkpt>
      <trkpt lat="47.23618" lon="6.74293">
        <ele>872</ele>
        <time>2018-07-01T08:42:29.000Z</time>
      </trkpt>
      <trkpt lat="47.23618" lon="6.74292">
        <ele>872</ele>
        <time>2018-07-01T08:42:30.000Z</time>
      </trkpt>
      <trkpt lat="47.23617" lon="6.74292">
        <ele>872</ele>
        <time>2018-07-01T08:42:31.000Z</time>
      </trkpt>
      <trkpt lat="47.23617" lon="6.74292">
        <ele>872</ele>
        <time>2018-07-01T08:42:32.000Z</time>
      </trkpt>
      <trkpt lat="47.23616" lon="6.74293">
        <ele>872</ele>
        <time>2018-07-01T08:42:33.000Z</time>
      </trkpt>
      <trkpt lat="47.23616" lon="6.74294">
        <ele>872</ele>
        <time>2018-07-01T08:42:34.000Z</time>
      </trkpt>
      <trkpt lat="47.23616" lon="6.74295">
        <ele>872</ele>
        <time>2018-07-01T08:42:35.000Z</time>
      </trkpt>
      <trkpt lat="47.23616" lon="6.74296">
        <ele>872</ele>
        <time>2018-07-01T08:42:36.000Z</time>
      </trkpt>
      <trkpt lat="47.23617" lon="6.74297">
        <ele>872</ele>
        <time>2018-07-01T08:42:37.000Z</time>
      </trkpt>
      <trkpt lat="47.23617" lon="6.74298">
        <ele>872</ele>
        <time>2018-07-01T08:42:38.000Z</time>
      </trkpt>
      <trkpt lat="47.23617" lon="6.74299">
        <ele>872</ele>
        <time>2018-07-01T08:42:39.000Z</time>
      </trkpt>
      <trkpt lat="47.23616" lon="6.74301">
        <ele>872</ele>
        <time>2018-07-01T08:42:40.000Z</time>
      </trkpt>
      <trkpt lat="47.23616" lon="6.74302">
        <ele>872</ele>
        <time>2018-07-01T08:42:41.000Z</time>
      </trkpt>
      <trkpt lat="47.23616" lon="6.74303">
        <ele>872</ele>
        <time>2018-07-01T08:42:42.000Z</time>
      </trkpt>
      <trkpt lat="47.23616" lon="6.74304">
        <ele>872</ele>
        <time>2018-07-01T08:42:43.000Z</time>
      </trkpt>
      <trkpt lat="47.23617" lon="6.74306">
        <ele>872</ele>
        <time>2018-07-01T08:42:44.000Z</time>
      </trkpt>
      <trkpt lat="47.23617" lon="6.74307">
        <ele>872</ele>
        <time>2018-07-01T08:42:45.000Z</time>
      </trkpt>
      <trkpt lat="47.23618" lon="6.74308">
        <ele>872</ele>
        <time>2018-07-01T08:42:46.000Z</time>
      </trkpt>
      <trkpt lat="47.23618" lon="6.7431">
        <ele>872</ele>
        <time>2018-07-01T08:42:47.000Z</time>
      </trkpt>
      <trkpt lat="47.23619" lon="6.74311">
        <ele>872</ele>
        <time>2018-07-01T08:42:48.000Z</time>
      </trkpt>
      <trkpt lat="47.23619" lon="6.74313">
        <ele>872</ele>
        <time>2018-07-01T08:42:49.000Z</time>
      </trkpt>
      <trkpt lat="47.23619" lon="6.74314">
        <ele>872</ele>
        <time>2018-07-01T08:42:50.000Z</time>
      </trkpt>
      <trkpt lat="47.2362" lon="6.74315">
        <ele>872</ele>
        <time>2018-07-01T08:42:51.000Z</time>
      </trkpt>
      <trkpt lat="47.2362" lon="6.74316">
        <ele>872</ele>
        <time>2018-07-01T08:42:52.000Z</time>
      </trkpt>
      <trkpt lat="47.2362" lon="6.74317">
        <ele>872</ele>
        <time>2018-07-01T08:42:53.000Z</time>
      </trkpt>
      <trkpt lat="47.2362" lon="6.74318">
        <ele>872</ele>
        <time>2018-07-01T08:42:54.000Z</time>
      </trkpt>
      <trkpt lat="47.2362" lon="6.74319">
        <ele>872</ele>
        <time>2018-07-01T08:42:55.000Z</time>
      </trkpt>
      <trkpt lat="47.2362" lon="6.7432">
        <ele>872</ele>
        <time>2018-07-01T08:42:56.000Z</time>
      </trkpt>
      <trkpt lat="47.2362" lon="6.74322">
        <ele>872</ele>
        <time>2018-07-01T08:42:57.000Z</time>
      </trkpt>
      <trkpt lat="47.2362" lon="6.74323">
        <ele>872</ele>
        <time>2018-07-01T08:42:58.000Z</time>
      </trkpt>
      <trkpt lat="47.2362" lon="6.74324">
        <ele>872</ele>
        <time>2018-07-01T08:42:59.000Z</time>
      </trkpt>
      <trkpt lat="47.2362" lon="6.74325">
        <ele>872</ele>
        <time>2018-07-01T08:43:00.000Z</time>
      </trkpt>
      <trkpt lat="47.23621" lon="6.74327">
        <ele>872</ele>
        <time>2018-07-01T08:43:01.000Z</time>
      </trkpt>
      <trkpt lat="47.23621" lon="6.74328">
        <ele>873</ele>
        <time>2018-07-01T08:43:02.000Z</time>
      </trkpt>
      <trkpt lat="47.23622" lon="6.7433">
        <ele>873</ele>
        <time>2018-07-01T08:43:03.000Z</time>
      </trkpt>
      <trkpt lat="47.23622" lon="6.74331">
        <ele>873</ele>
        <time>2018-07-01T08:43:04.000Z</time>
      </trkpt>
      <trkpt lat="47.23623" lon="6.74333">
        <ele>873</ele>
        <time>2018-07-01T08:43:05.000Z</time>
      </trkpt>
      <trkpt lat="47.23623" lon="6.74335">
        <ele>875</ele>
        <time>2018-07-01T08:43:06.000Z</time>
      </trkpt>
      <trkpt lat="47.23624" lon="6.74336">
        <ele>875</ele>
        <time>2018-07-01T08:43:07.000Z</time>
      </trkpt>
      <trkpt lat="47.23624" lon="6.74338">
        <ele>876</ele>
        <time>2018-07-01T08:43:08.000Z</time>
      </trkpt>
      <trkpt lat="47.23625" lon="6.7434">
        <ele>876</ele>
        <time>2018-07-01T08:43:09.000Z</time>
      </trkpt>
      <trkpt lat="47.23625" lon="6.74342">
        <ele>876</ele>
        <time>2018-07-01T08:43:10.000Z</time>
      </trkpt>
      <trkpt lat="47.23625" lon="6.74344">
        <ele>876</ele>
        <time>2018-07-01T08:43:11.000Z</time>
      </trkpt>
      <trkpt lat="47.23625" lon="6.74347">
        <ele>876</ele>
        <time>2018-07-01T08:43:12.000Z</time>
      </trkpt>
      <trkpt lat="47.23625" lon="6.7435">
        <ele>876</ele>
        <time>2018-07-01T08:43:13.000Z</time>
      </trkpt>
      <trkpt lat="47.23626" lon="6.74353">
        <ele>876</ele>
        <time>2018-07-01T08:43:14.000Z</time>
      </trkpt>
      <trkpt lat="47.23626" lon="6.74356">
        <ele>876</ele>
        <time>2018-07-01T08:43:15.000Z</time>
      </trkpt>
      <trkpt lat="47.23626" lon="6.74359">
        <ele>876</ele>
        <time>2018-07-01T08:43:16.000Z</time>
      </trkpt>
      <trkpt lat="47.23626" lon="6.74361">
        <ele>876</ele>
        <time>2018-07-01T08:43:17.000Z</time>
      </trkpt>
      <trkpt lat="47.23627" lon="6.74364">
        <ele>876</ele>
        <time>2018-07-01T08:43:18.000Z</time>
      </trkpt>
      <trkpt lat="47.23627" lon="6.74367">
        <ele>876</ele>
        <time>2018-07-01T08:43:19.000Z</time>
      </trkpt>
      <trkpt lat="47.23628" lon="6.7437">
        <ele>876</ele>
        <time>2018-07-01T08:43:20.000Z</time>
      </trkpt>
      <trkpt lat="47.23628" lon="6.74373">
        <ele>876</ele>
        <time>2018-07-01T08:43:21.000Z</time>
      </trkpt>
      <trkpt lat="47.23628" lon="6.74376">
        <ele>877</ele>
        <time>2018-07-01T08:43:22.000Z</time>
      </trkpt>
      <trkpt lat="47.23629" lon="6.74378">
        <ele>877</ele>
        <time>2018-07-01T08:43:23.000Z</time>
      </trkpt>
      <trkpt lat="47.23629" lon="6.7438">
        <ele>877</ele>
        <time>2018-07-01T08:43:24.000Z</time>
      </trkpt>
      <trkpt lat="47.23629" lon="6.74382">
        <ele>877</ele>
        <time>2018-07-01T08:43:25.000Z</time>
      </trkpt>
      <trkpt lat="47.2363" lon="6.74385">
        <ele>877</ele>
        <time>2018-07-01T08:43:26.000Z</time>
      </trkpt>
      <trkpt lat="47.2363" lon="6.74387">
        <ele>877</ele>
        <time>2018-07-01T08:43:27.000Z</time>
      </trkpt>
      <trkpt lat="47.23631" lon="6.74389">
        <ele>877</ele>
        <time>2018-07-01T08:43:28.000Z</time>
      </trkpt>
      <trkpt lat="47.23631" lon="6.7439">
        <ele>877</ele>
        <time>2018-07-01T08:43:29.000Z</time>
      </trkpt>
      <trkpt lat="47.23632" lon="6.74391">
        <ele>877</ele>
        <time>2018-07-01T08:43:30.000Z</time>
      </trkpt>
      <trkpt lat="47.23632" lon="6.74392">
        <ele>877</ele>
        <time>2018-07-01T08:43:31.000Z</time>
      </trkpt>
      <trkpt lat="47.23632" lon="6.74394">
        <ele>877</ele>
        <time>2018-07-01T08:43:32.000Z</time>
      </trkpt>
      <trkpt lat="47.23632" lon="6.74395">
        <ele>877</ele>
        <time>2018-07-01T08:43:33.000Z</time>
      </trkpt>
      <trkpt lat="47.23632" lon="6.74396">
        <ele>877</ele>
        <time>2018-07-01T08:43:34.000Z</time>
      </trkpt>
      <trkpt lat="47.23633" lon="6.74397">
        <ele>878</ele>
        <time>2018-07-01T08:43:35.000Z</time>
      </trkpt>
      <trkpt lat="47.23633" lon="6.74398">
        <ele>878</ele>
        <time>2018-07-01T08:43:36.000Z</time>
      </trkpt>
      <trkpt lat="47.23633" lon="6.74399">
        <ele>878</ele>
        <time>2018-07-01T08:43:37.000Z</time>
      </trkpt>
      <trkpt lat="47.23632" lon="6.744">
        <ele>878</ele>
        <time>2018-07-01T08:43:38.000Z</time>
      </trkpt>
      <trkpt lat="47.23632" lon="6.74401">
        <ele>878</ele>
        <time>2018-07-01T08:43:39.000Z</time>
      </trkpt>
      <trkpt lat="47.23633" lon="6.74402">
        <ele>878</ele>
        <time>2018-07-01T08:43:40.000Z</time>
      </trkpt>
      <trkpt lat="47.23632" lon="6.74403">
        <ele>878</ele>
        <time>2018-07-01T08:43:41.000Z</time>
      </trkpt>
      <trkpt lat="47.23632" lon="6.74404">
        <ele>878</ele>
        <time>2018-07-01T08:43:42.000Z</time>
      </trkpt>
      <trkpt lat="47.23632" lon="6.74405">
        <ele>878</ele>
        <time>2018-07-01T08:43:43.000Z</time>
      </trkpt>
      <trkpt lat="47.23632" lon="6.74406">
        <ele>878</ele>
        <time>2018-07-01T08:43:44.000Z</time>
      </trkpt>
      <trkpt lat="47.23632" lon="6.74406">
        <ele>878</ele>
        <time>2018-07-01T08:43:45.000Z</time>
      </trkpt>
      <trkpt lat="47.23632" lon="6.74408">
        <ele>878</ele>
        <time>2018-07-01T08:43:46.000Z</time>
      </trkpt>
      <trkpt lat="47.23632" lon="6.74409">
        <ele>878</ele>
        <time>2018-07-01T08:43:47.000Z</time>
      </trkpt>
      <trkpt lat="47.23632" lon="6.7441">
        <ele>878</ele>
        <time>2018-07-01T08:43:48.000Z</time>
      </trkpt>
      <trkpt lat="47.23632" lon="6.74411">
        <ele>878</ele>
        <time>2018-07-01T08:43:49.000Z</time>
      </trkpt>
      <trkpt lat="47.23632" lon="6.74412">
        <ele>878</ele>
        <time>2018-07-01T08:43:50.000Z</time>
      </trkpt>
      <trkpt lat="47.23633" lon="6.74413">
        <ele>878</ele>
        <time>2018-07-01T08:43:51.000Z</time>
      </trkpt>
      <trkpt lat="47.23632" lon="6.74414">
        <ele>878</ele>
        <time>2018-07-01T08:43:52.000Z</time>
      </trkpt>
      <trkpt lat="47.23632" lon="6.74415">
        <ele>878</ele>
        <time>2018-07-01T08:43:53.000Z</time>
      </trkpt>
      <trkpt lat="47.23632" lon="6.74415">
        <ele>878</ele>
        <time>2018-07-01T08:43:54.000Z</time>
      </trkpt>
      <trkpt lat="47.23632" lon="6.74416">
        <ele>878</ele>
        <time>2018-07-01T08:43:55.000Z</time>
      </trkpt>
      <trkpt lat="47.23632" lon="6.74418">
        <ele>881</ele>
        <time>2018-07-01T08:43:56.000Z</time>
      </trkpt>
      <trkpt lat="47.23632" lon="6.74419">
        <ele>881</ele>
        <time>2018-07-01T08:43:57.000Z</time>
      </trkpt>
      <trkpt lat="47.23632" lon="6.7442">
        <ele>881</ele>
        <time>2018-07-01T08:43:58.000Z</time>
      </trkpt>
      <trkpt lat="47.23632" lon="6.74422">
        <ele>881</ele>
        <time>2018-07-01T08:43:59.000Z</time>
      </trkpt>
      <trkpt lat="47.23632" lon="6.74424">
        <ele>881</ele>
        <time>2018-07-01T08:44:00.000Z</time>
      </trkpt>
      <trkpt lat="47.23632" lon="6.74426">
        <ele>881</ele>
        <time>2018-07-01T08:44:01.000Z</time>
      </trkpt>
      <trkpt lat="47.23632" lon="6.74428">
        <ele>881</ele>
        <time>2018-07-01T08:44:02.000Z</time>
      </trkpt>
      <trkpt lat="47.23632" lon="6.7443">
        <ele>881</ele>
        <time>2018-07-01T08:44:03.000Z</time>
      </trkpt>
      <trkpt lat="47.23631" lon="6.74432">
        <ele>881</ele>
        <time>2018-07-01T08:44:04.000Z</time>
      </trkpt>
      <trkpt lat="47.23631" lon="6.74434">
        <ele>881</ele>
        <time>2018-07-01T08:44:05.000Z</time>
      </trkpt>
      <trkpt lat="47.23631" lon="6.74436">
        <ele>881</ele>
        <time>2018-07-01T08:44:06.000Z</time>
      </trkpt>
      <trkpt lat="47.2363" lon="6.74439">
        <ele>881</ele>
        <time>2018-07-01T08:44:07.000Z</time>
      </trkpt>
      <trkpt lat="47.2363" lon="6.74441">
        <ele>881</ele>
        <time>2018-07-01T08:44:08.000Z</time>
      </trkpt>
      <trkpt lat="47.2363" lon="6.74443">
        <ele>881</ele>
        <time>2018-07-01T08:44:09.000Z</time>
      </trkpt>
      <trkpt lat="47.23629" lon="6.74445">
        <ele>881</ele>
        <time>2018-07-01T08:44:10.000Z</time>
      </trkpt>
      <trkpt lat="47.23629" lon="6.74447">
        <ele>881</ele>
        <time>2018-07-01T08:44:11.000Z</time>
      </trkpt>
      <trkpt lat="47.23629" lon="6.74449">
        <ele>881</ele>
        <time>2018-07-01T08:44:12.000Z</time>
      </trkpt>
      <trkpt lat="47.23629" lon="6.74452">
        <ele>881</ele>
        <time>2018-07-01T08:44:13.000Z</time>
      </trkpt>
      <trkpt lat="47.23629" lon="6.74455">
        <ele>881</ele>
        <time>2018-07-01T08:44:14.000Z</time>
      </trkpt>
      <trkpt lat="47.23628" lon="6.74458">
        <ele>881</ele>
        <time>2018-07-01T08:44:15.000Z</time>
      </trkpt>
      <trkpt lat="47.23628" lon="6.7446">
        <ele>881</ele>
        <time>2018-07-01T08:44:16.000Z</time>
      </trkpt>
      <trkpt lat="47.23628" lon="6.74462">
        <ele>881</ele>
        <time>2018-07-01T08:44:17.000Z</time>
      </trkpt>
      <trkpt lat="47.23628" lon="6.74465">
        <ele>881</ele>
        <time>2018-07-01T08:44:18.000Z</time>
      </trkpt>
      <trkpt lat="47.23628" lon="6.74467">
        <ele>881</ele>
        <time>2018-07-01T08:44:19.000Z</time>
      </trkpt>
      <trkpt lat="47.23628" lon="6.7447">
        <ele>882</ele>
        <time>2018-07-01T08:44:20.000Z</time>
      </trkpt>
      <trkpt lat="47.23628" lon="6.74473">
        <ele>882</ele>
        <time>2018-07-01T08:44:21.000Z</time>
      </trkpt>
      <trkpt lat="47.23629" lon="6.74475">
        <ele>882</ele>
        <time>2018-07-01T08:44:22.000Z</time>
      </trkpt>
      <trkpt lat="47.23629" lon="6.74478">
        <ele>882</ele>
        <time>2018-07-01T08:44:23.000Z</time>
      </trkpt>
      <trkpt lat="47.2363" lon="6.74481">
        <ele>882</ele>
        <time>2018-07-01T08:44:24.000Z</time>
      </trkpt>
      <trkpt lat="47.2363" lon="6.74485">
        <ele>882</ele>
        <time>2018-07-01T08:44:25.000Z</time>
      </trkpt>
      <trkpt lat="47.2363" lon="6.74488">
        <ele>882</ele>
        <time>2018-07-01T08:44:26.000Z</time>
      </trkpt>
      <trkpt lat="47.2363" lon="6.74491">
        <ele>883</ele>
        <time>2018-07-01T08:44:27.000Z</time>
      </trkpt>
      <trkpt lat="47.2363" lon="6.74494">
        <ele>883</ele>
        <time>2018-07-01T08:44:28.000Z</time>
      </trkpt>
      <trkpt lat="47.2363" lon="6.74497">
        <ele>883</ele>
        <time>2018-07-01T08:44:29.000Z</time>
      </trkpt>
      <trkpt lat="47.2363" lon="6.745">
        <ele>883</ele>
        <time>2018-07-01T08:44:30.000Z</time>
      </trkpt>
      <trkpt lat="47.2363" lon="6.74503">
        <ele>885</ele>
        <time>2018-07-01T08:44:31.000Z</time>
      </trkpt>
      <trkpt lat="47.2363" lon="6.74506">
        <ele>885</ele>
        <time>2018-07-01T08:44:32.000Z</time>
      </trkpt>
      <trkpt lat="47.2363" lon="6.74508">
        <ele>885</ele>
        <time>2018-07-01T08:44:33.000Z</time>
      </trkpt>
      <trkpt lat="47.2363" lon="6.74511">
        <ele>885</ele>
        <time>2018-07-01T08:44:34.000Z</time>
      </trkpt>
      <trkpt lat="47.23631" lon="6.74515">
        <ele>885</ele>
        <time>2018-07-01T08:44:35.000Z</time>
      </trkpt>
      <trkpt lat="47.23631" lon="6.74518">
        <ele>885</ele>
        <time>2018-07-01T08:44:36.000Z</time>
      </trkpt>
      <trkpt lat="47.23631" lon="6.74522">
        <ele>885</ele>
        <time>2018-07-01T08:44:37.000Z</time>
      </trkpt>
      <trkpt lat="47.23632" lon="6.74524">
        <ele>885</ele>
        <time>2018-07-01T08:44:38.000Z</time>
      </trkpt>
      <trkpt lat="47.23632" lon="6.74527">
        <ele>885</ele>
        <time>2018-07-01T08:44:39.000Z</time>
      </trkpt>
      <trkpt lat="47.23633" lon="6.74529">
        <ele>885</ele>
        <time>2018-07-01T08:44:40.000Z</time>
      </trkpt>
      <trkpt lat="47.23634" lon="6.74531">
        <ele>886</ele>
        <time>2018-07-01T08:44:41.000Z</time>
      </trkpt>
      <trkpt lat="47.23634" lon="6.74534">
        <ele>886</ele>
        <time>2018-07-01T08:44:42.000Z</time>
      </trkpt>
      <trkpt lat="47.23635" lon="6.74537">
        <ele>886</ele>
        <time>2018-07-01T08:44:43.000Z</time>
      </trkpt>
      <trkpt lat="47.23636" lon="6.7454">
        <ele>886</ele>
        <time>2018-07-01T08:44:44.000Z</time>
      </trkpt>
      <trkpt lat="47.23636" lon="6.74542">
        <ele>886</ele>
        <time>2018-07-01T08:44:45.000Z</time>
      </trkpt>
      <trkpt lat="47.23637" lon="6.74545">
        <ele>886</ele>
        <time>2018-07-01T08:44:46.000Z</time>
      </trkpt>
      <trkpt lat="47.23638" lon="6.74548">
        <ele>886</ele>
        <time>2018-07-01T08:44:47.000Z</time>
      </trkpt>
      <trkpt lat="47.23639" lon="6.74551">
        <ele>886</ele>
        <time>2018-07-01T08:44:48.000Z</time>
      </trkpt>
      <trkpt lat="47.23639" lon="6.74554">
        <ele>887</ele>
        <time>2018-07-01T08:44:49.000Z</time>
      </trkpt>
      <trkpt lat="47.2364" lon="6.74557">
        <ele>887</ele>
        <time>2018-07-01T08:44:50.000Z</time>
      </trkpt>
      <trkpt lat="47.23641" lon="6.7456">
        <ele>887</ele>
        <time>2018-07-01T08:44:51.000Z</time>
      </trkpt>
      <trkpt lat="47.23641" lon="6.74563">
        <ele>887</ele>
        <time>2018-07-01T08:44:52.000Z</time>
      </trkpt>
      <trkpt lat="47.23642" lon="6.74566">
        <ele>888</ele>
        <time>2018-07-01T08:44:53.000Z</time>
      </trkpt>
      <trkpt lat="47.23643" lon="6.74569">
        <ele>888</ele>
        <time>2018-07-01T08:44:54.000Z</time>
      </trkpt>
      <trkpt lat="47.23643" lon="6.74572">
        <ele>888</ele>
        <time>2018-07-01T08:44:55.000Z</time>
      </trkpt>
      <trkpt lat="47.23644" lon="6.74575">
        <ele>889</ele>
        <time>2018-07-01T08:44:56.000Z</time>
      </trkpt>
      <trkpt lat="47.23644" lon="6.74579">
        <ele>889</ele>
        <time>2018-07-01T08:44:57.000Z</time>
      </trkpt>
      <trkpt lat="47.23644" lon="6.74582">
        <ele>889</ele>
        <time>2018-07-01T08:44:58.000Z</time>
      </trkpt>
      <trkpt lat="47.23645" lon="6.74584">
        <ele>890</ele>
        <time>2018-07-01T08:44:59.000Z</time>
      </trkpt>
      <trkpt lat="47.23645" lon="6.74588">
        <ele>890</ele>
        <time>2018-07-01T08:45:00.000Z</time>
      </trkpt>
      <trkpt lat="47.23645" lon="6.74591">
        <ele>890</ele>
        <time>2018-07-01T08:45:01.000Z</time>
      </trkpt>
      <trkpt lat="47.23645" lon="6.74594">
        <ele>890</ele>
        <time>2018-07-01T08:45:02.000Z</time>
      </trkpt>
      <trkpt lat="47.23645" lon="6.74597">
        <ele>890</ele>
        <time>2018-07-01T08:45:03.000Z</time>
      </trkpt>
      <trkpt lat="47.23645" lon="6.746">
        <ele>889</ele>
        <time>2018-07-01T08:45:04.000Z</time>
      </trkpt>
      <trkpt lat="47.23645" lon="6.74603">
        <ele>889</ele>
        <time>2018-07-01T08:45:05.000Z</time>
      </trkpt>
      <trkpt lat="47.23645" lon="6.74606">
        <ele>889</ele>
        <time>2018-07-01T08:45:06.000Z</time>
      </trkpt>
      <trkpt lat="47.23646" lon="6.74609">
        <ele>889</ele>
        <time>2018-07-01T08:45:07.000Z</time>
      </trkpt>
      <trkpt lat="47.23647" lon="6.74612">
        <ele>889</ele>
        <time>2018-07-01T08:45:08.000Z</time>
      </trkpt>
      <trkpt lat="47.23647" lon="6.74615">
        <ele>889</ele>
        <time>2018-07-01T08:45:09.000Z</time>
      </trkpt>
      <trkpt lat="47.23648" lon="6.74618">
        <ele>889</ele>
        <time>2018-07-01T08:45:10.000Z</time>
      </trkpt>
      <trkpt lat="47.23649" lon="6.74621">
        <ele>889</ele>
        <time>2018-07-01T08:45:11.000Z</time>
      </trkpt>
      <trkpt lat="47.23649" lon="6.74625">
        <ele>889</ele>
        <time>2018-07-01T08:45:12.000Z</time>
      </trkpt>
      <trkpt lat="47.23649" lon="6.74628">
        <ele>889</ele>
        <time>2018-07-01T08:45:13.000Z</time>
      </trkpt>
      <trkpt lat="47.2365" lon="6.74632">
        <ele>889</ele>
        <time>2018-07-01T08:45:14.000Z</time>
      </trkpt>
      <trkpt lat="47.2365" lon="6.74636">
        <ele>890</ele>
        <time>2018-07-01T08:45:15.000Z</time>
      </trkpt>
      <trkpt lat="47.23651" lon="6.74639">
        <ele>890</ele>
        <time>2018-07-01T08:45:16.000Z</time>
      </trkpt>
      <trkpt lat="47.23652" lon="6.74642">
        <ele>890</ele>
        <time>2018-07-01T08:45:17.000Z</time>
      </trkpt>
      <trkpt lat="47.23653" lon="6.74645">
        <ele>891</ele>
        <time>2018-07-01T08:45:18.000Z</time>
      </trkpt>
      <trkpt lat="47.23654" lon="6.74648">
        <ele>891</ele>
        <time>2018-07-01T08:45:19.000Z</time>
      </trkpt>
      <trkpt lat="47.23655" lon="6.74652">
        <ele>892</ele>
        <time>2018-07-01T08:45:20.000Z</time>
      </trkpt>
      <trkpt lat="47.23655" lon="6.74656">
        <ele>892</ele>
        <time>2018-07-01T08:45:21.000Z</time>
      </trkpt>
      <trkpt lat="47.23655" lon="6.7466">
        <ele>893</ele>
        <time>2018-07-01T08:45:22.000Z</time>
      </trkpt>
      <trkpt lat="47.23655" lon="6.74664">
        <ele>893</ele>
        <time>2018-07-01T08:45:23.000Z</time>
      </trkpt>
      <trkpt lat="47.23655" lon="6.74667">
        <ele>894</ele>
        <time>2018-07-01T08:45:24.000Z</time>
      </trkpt>
      <trkpt lat="47.23656" lon="6.7467">
        <ele>894</ele>
        <time>2018-07-01T08:45:25.000Z</time>
      </trkpt>
      <trkpt lat="47.23657" lon="6.74674">
        <ele>894</ele>
        <time>2018-07-01T08:45:26.000Z</time>
      </trkpt>
      <trkpt lat="47.23658" lon="6.74676">
        <ele>893</ele>
        <time>2018-07-01T08:45:27.000Z</time>
      </trkpt>
      <trkpt lat="47.23659" lon="6.74679">
        <ele>893</ele>
        <time>2018-07-01T08:45:28.000Z</time>
      </trkpt>
      <trkpt lat="47.2366" lon="6.74682">
        <ele>893</ele>
        <time>2018-07-01T08:45:29.000Z</time>
      </trkpt>
      <trkpt lat="47.23661" lon="6.74685">
        <ele>892</ele>
        <time>2018-07-01T08:45:30.000Z</time>
      </trkpt>
      <trkpt lat="47.23662" lon="6.74689">
        <ele>892</ele>
        <time>2018-07-01T08:45:31.000Z</time>
      </trkpt>
      <trkpt lat="47.23664" lon="6.74693">
        <ele>892</ele>
        <time>2018-07-01T08:45:32.000Z</time>
      </trkpt>
      <trkpt lat="47.23665" lon="6.74697">
        <ele>891</ele>
        <time>2018-07-01T08:45:33.000Z</time>
      </trkpt>
      <trkpt lat="47.23666" lon="6.747">
        <ele>891</ele>
        <time>2018-07-01T08:45:34.000Z</time>
      </trkpt>
      <trkpt lat="47.23667" lon="6.74704">
        <ele>897</ele>
        <time>2018-07-01T08:45:35.000Z</time>
      </trkpt>
      <trkpt lat="47.23668" lon="6.74708">
        <ele>897</ele>
        <time>2018-07-01T08:45:36.000Z</time>
      </trkpt>
      <trkpt lat="47.23668" lon="6.74713">
        <ele>897</ele>
        <time>2018-07-01T08:45:37.000Z</time>
      </trkpt>
      <trkpt lat="47.23669" lon="6.74717">
        <ele>897</ele>
        <time>2018-07-01T08:45:38.000Z</time>
      </trkpt>
      <trkpt lat="47.2367" lon="6.74722">
        <ele>897</ele>
        <time>2018-07-01T08:45:39.000Z</time>
      </trkpt>
      <trkpt lat="47.2367" lon="6.74726">
        <ele>897</ele>
        <time>2018-07-01T08:45:40.000Z</time>
      </trkpt>
      <trkpt lat="47.23671" lon="6.7473">
        <ele>897</ele>
        <time>2018-07-01T08:45:41.000Z</time>
      </trkpt>
      <trkpt lat="47.23672" lon="6.74734">
        <ele>897</ele>
        <time>2018-07-01T08:45:42.000Z</time>
      </trkpt>
      <trkpt lat="47.23672" lon="6.74738">
        <ele>897</ele>
        <time>2018-07-01T08:45:43.000Z</time>
      </trkpt>
      <trkpt lat="47.23671" lon="6.74742">
        <ele>897</ele>
        <time>2018-07-01T08:45:44.000Z</time>
      </trkpt>
      <trkpt lat="47.23671" lon="6.74747">
        <ele>897</ele>
        <time>2018-07-01T08:45:45.000Z</time>
      </trkpt>
      <trkpt lat="47.23671" lon="6.74751">
        <ele>897</ele>
        <time>2018-07-01T08:45:46.000Z</time>
      </trkpt>
      <trkpt lat="47.23671" lon="6.74755">
        <ele>897</ele>
        <time>2018-07-01T08:45:47.000Z</time>
      </trkpt>
      <trkpt lat="47.2367" lon="6.7476">
        <ele>897</ele>
        <time>2018-07-01T08:45:48.000Z</time>
      </trkpt>
      <trkpt lat="47.2367" lon="6.74763">
        <ele>897</ele>
        <time>2018-07-01T08:45:49.000Z</time>
      </trkpt>
      <trkpt lat="47.23669" lon="6.74767">
        <ele>897</ele>
        <time>2018-07-01T08:45:50.000Z</time>
      </trkpt>
      <trkpt lat="47.2367" lon="6.74771">
        <ele>897</ele>
        <time>2018-07-01T08:45:51.000Z</time>
      </trkpt>
      <trkpt lat="47.2367" lon="6.74773">
        <ele>897</ele>
        <time>2018-07-01T08:45:52.000Z</time>
      </trkpt>
      <trkpt lat="47.2367" lon="6.74776">
        <ele>897</ele>
        <time>2018-07-01T08:45:53.000Z</time>
      </trkpt>
      <trkpt lat="47.23671" lon="6.74779">
        <ele>897</ele>
        <time>2018-07-01T08:45:54.000Z</time>
      </trkpt>
      <trkpt lat="47.23671" lon="6.74781">
        <ele>897</ele>
        <time>2018-07-01T08:45:55.000Z</time>
      </trkpt>
      <trkpt lat="47.23671" lon="6.74784">
        <ele>897</ele>
        <time>2018-07-01T08:45:56.000Z</time>
      </trkpt>
      <trkpt lat="47.2367" lon="6.74788">
        <ele>897</ele>
        <time>2018-07-01T08:45:57.000Z</time>
      </trkpt>
      <trkpt lat="47.2367" lon="6.74791">
        <ele>897</ele>
        <time>2018-07-01T08:45:58.000Z</time>
      </trkpt>
      <trkpt lat="47.2367" lon="6.74795">
        <ele>897</ele>
        <time>2018-07-01T08:45:59.000Z</time>
      </trkpt>
      <trkpt lat="47.2367" lon="6.74798">
        <ele>897</ele>
        <time>2018-07-01T08:46:00.000Z</time>
      </trkpt>
      <trkpt lat="47.23671" lon="6.74799">
        <ele>897</ele>
        <time>2018-07-01T08:46:01.000Z</time>
      </trkpt>
      <trkpt lat="47.23671" lon="6.74801">
        <ele>897</ele>
        <time>2018-07-01T08:46:02.000Z</time>
      </trkpt>
      <trkpt lat="47.23672" lon="6.74802">
        <ele>897</ele>
        <time>2018-07-01T08:46:03.000Z</time>
      </trkpt>
      <trkpt lat="47.23673" lon="6.74804">
        <ele>897</ele>
        <time>2018-07-01T08:46:04.000Z</time>
      </trkpt>
      <trkpt lat="47.23674" lon="6.74805">
        <ele>897</ele>
        <time>2018-07-01T08:46:05.000Z</time>
      </trkpt>
      <trkpt lat="47.23676" lon="6.74806">
        <ele>897</ele>
        <time>2018-07-01T08:46:06.000Z</time>
      </trkpt>
      <trkpt lat="47.23677" lon="6.74807">
        <ele>898</ele>
        <time>2018-07-01T08:46:07.000Z</time>
      </trkpt>
      <trkpt lat="47.23678" lon="6.74809">
        <ele>898</ele>
        <time>2018-07-01T08:46:08.000Z</time>
      </trkpt>
      <trkpt lat="47.23679" lon="6.74809">
        <ele>898</ele>
        <time>2018-07-01T08:46:09.000Z</time>
      </trkpt>
      <trkpt lat="47.2368" lon="6.7481">
        <ele>898</ele>
        <time>2018-07-01T08:46:10.000Z</time>
      </trkpt>
      <trkpt lat="47.23681" lon="6.74812">
        <ele>898</ele>
        <time>2018-07-01T08:46:11.000Z</time>
      </trkpt>
      <trkpt lat="47.23683" lon="6.74813">
        <ele>898</ele>
        <time>2018-07-01T08:46:12.000Z</time>
      </trkpt>
      <trkpt lat="47.23684" lon="6.74815">
        <ele>898</ele>
        <time>2018-07-01T08:46:13.000Z</time>
      </trkpt>
      <trkpt lat="47.23685" lon="6.74817">
        <ele>898</ele>
        <time>2018-07-01T08:46:14.000Z</time>
      </trkpt>
      <trkpt lat="47.23686" lon="6.74819">
        <ele>898</ele>
        <time>2018-07-01T08:46:15.000Z</time>
      </trkpt>
      <trkpt lat="47.23687" lon="6.74822">
        <ele>898</ele>
        <time>2018-07-01T08:46:16.000Z</time>
      </trkpt>
      <trkpt lat="47.23688" lon="6.74825">
        <ele>898</ele>
        <time>2018-07-01T08:46:17.000Z</time>
      </trkpt>
      <trkpt lat="47.23689" lon="6.74828">
        <ele>898</ele>
        <time>2018-07-01T08:46:18.000Z</time>
      </trkpt>
      <trkpt lat="47.2369" lon="6.74831">
        <ele>898</ele>
        <time>2018-07-01T08:46:19.000Z</time>
      </trkpt>
      <trkpt lat="47.2369" lon="6.74834">
        <ele>899</ele>
        <time>2018-07-01T08:46:20.000Z</time>
      </trkpt>
      <trkpt lat="47.23691" lon="6.74837">
        <ele>899</ele>
        <time>2018-07-01T08:46:21.000Z</time>
      </trkpt>
      <trkpt lat="47.23692" lon="6.74839">
        <ele>899</ele>
        <time>2018-07-01T08:46:22.000Z</time>
      </trkpt>
      <trkpt lat="47.23693" lon="6.74842">
        <ele>899</ele>
        <time>2018-07-01T08:46:23.000Z</time>
      </trkpt>
      <trkpt lat="47.23693" lon="6.74845">
        <ele>899</ele>
        <time>2018-07-01T08:46:24.000Z</time>
      </trkpt>
      <trkpt lat="47.23694" lon="6.74847">
        <ele>899</ele>
        <time>2018-07-01T08:46:25.000Z</time>
      </trkpt>
      <trkpt lat="47.23695" lon="6.7485">
        <ele>899</ele>
        <time>2018-07-01T08:46:26.000Z</time>
      </trkpt>
      <trkpt lat="47.23695" lon="6.74853">
        <ele>900</ele>
        <time>2018-07-01T08:46:27.000Z</time>
      </trkpt>
      <trkpt lat="47.23696" lon="6.74855">
        <ele>900</ele>
        <time>2018-07-01T08:46:28.000Z</time>
      </trkpt>
      <trkpt lat="47.23697" lon="6.74858">
        <ele>900</ele>
        <time>2018-07-01T08:46:29.000Z</time>
      </trkpt>
      <trkpt lat="47.23698" lon="6.74861">
        <ele>900</ele>
        <time>2018-07-01T08:46:30.000Z</time>
      </trkpt>
      <trkpt lat="47.23698" lon="6.74863">
        <ele>900</ele>
        <time>2018-07-01T08:46:31.000Z</time>
      </trkpt>
      <trkpt lat="47.23699" lon="6.74867">
        <ele>900</ele>
        <time>2018-07-01T08:46:32.000Z</time>
      </trkpt>
      <trkpt lat="47.23699" lon="6.7487">
        <ele>900</ele>
        <time>2018-07-01T08:46:33.000Z</time>
      </trkpt>
      <trkpt lat="47.23699" lon="6.74873">
        <ele>900</ele>
        <time>2018-07-01T08:46:34.000Z</time>
      </trkpt>
      <trkpt lat="47.23699" lon="6.74877">
        <ele>900</ele>
        <time>2018-07-01T08:46:35.000Z</time>
      </trkpt>
      <trkpt lat="47.237" lon="6.7488">
        <ele>900</ele>
        <time>2018-07-01T08:46:36.000Z</time>
      </trkpt>
      <trkpt lat="47.237" lon="6.74883">
        <ele>900</ele>
        <time>2018-07-01T08:46:37.000Z</time>
      </trkpt>
      <trkpt lat="47.237" lon="6.74886">
        <ele>900</ele>
        <time>2018-07-01T08:46:38.000Z</time>
      </trkpt>
      <trkpt lat="47.237" lon="6.74889">
        <ele>901</ele>
        <time>2018-07-01T08:46:39.000Z</time>
      </trkpt>
      <trkpt lat="47.237" lon="6.74893">
        <ele>901</ele>
        <time>2018-07-01T08:46:40.000Z</time>
      </trkpt>
      <trkpt lat="47.237" lon="6.74896">
        <ele>901</ele>
        <time>2018-07-01T08:46:41.000Z</time>
      </trkpt>
      <trkpt lat="47.23699" lon="6.749">
        <ele>901</ele>
        <time>2018-07-01T08:46:42.000Z</time>
      </trkpt>
      <trkpt lat="47.23698" lon="6.74904">
        <ele>901</ele>
        <time>2018-07-01T08:46:43.000Z</time>
      </trkpt>
      <trkpt lat="47.23698" lon="6.74908">
        <ele>901</ele>
        <time>2018-07-01T08:46:44.000Z</time>
      </trkpt>
      <trkpt lat="47.23697" lon="6.74911">
        <ele>901</ele>
        <time>2018-07-01T08:46:45.000Z</time>
      </trkpt>
      <trkpt lat="47.23697" lon="6.74916">
        <ele>901</ele>
        <time>2018-07-01T08:46:46.000Z</time>
      </trkpt>
      <trkpt lat="47.23696" lon="6.7492">
        <ele>903</ele>
        <time>2018-07-01T08:46:47.000Z</time>
      </trkpt>
      <trkpt lat="47.23696" lon="6.74924">
        <ele>903</ele>
        <time>2018-07-01T08:46:48.000Z</time>
      </trkpt>
      <trkpt lat="47.23696" lon="6.74927">
        <ele>903</ele>
        <time>2018-07-01T08:46:49.000Z</time>
      </trkpt>
      <trkpt lat="47.23696" lon="6.7493">
        <ele>903</ele>
        <time>2018-07-01T08:46:50.000Z</time>
      </trkpt>
      <trkpt lat="47.23696" lon="6.74934">
        <ele>903</ele>
        <time>2018-07-01T08:46:51.000Z</time>
      </trkpt>
      <trkpt lat="47.23696" lon="6.74938">
        <ele>903</ele>
        <time>2018-07-01T08:46:52.000Z</time>
      </trkpt>
      <trkpt lat="47.23696" lon="6.74941">
        <ele>903</ele>
        <time>2018-07-01T08:46:53.000Z</time>
      </trkpt>
      <trkpt lat="47.23696" lon="6.74945">
        <ele>904</ele>
        <time>2018-07-01T08:46:54.000Z</time>
      </trkpt>
      <trkpt lat="47.23696" lon="6.74949">
        <ele>904</ele>
        <time>2018-07-01T08:46:55.000Z</time>
      </trkpt>
      <trkpt lat="47.23696" lon="6.74953">
        <ele>904</ele>
        <time>2018-07-01T08:46:56.000Z</time>
      </trkpt>
      <trkpt lat="47.23697" lon="6.74957">
        <ele>904</ele>
        <time>2018-07-01T08:46:57.000Z</time>
      </trkpt>
      <trkpt lat="47.23697" lon="6.7496">
        <ele>904</ele>
        <time>2018-07-01T08:46:58.000Z</time>
      </trkpt>
      <trkpt lat="47.23698" lon="6.74964">
        <ele>904</ele>
        <time>2018-07-01T08:46:59.000Z</time>
      </trkpt>
      <trkpt lat="47.23699" lon="6.74967">
        <ele>904</ele>
        <time>2018-07-01T08:47:00.000Z</time>
      </trkpt>
      <trkpt lat="47.23699" lon="6.7497">
        <ele>904</ele>
        <time>2018-07-01T08:47:01.000Z</time>
      </trkpt>
      <trkpt lat="47.237" lon="6.74973">
        <ele>904</ele>
        <time>2018-07-01T08:47:02.000Z</time>
      </trkpt>
      <trkpt lat="47.23701" lon="6.74976">
        <ele>904</ele>
        <time>2018-07-01T08:47:03.000Z</time>
      </trkpt>
      <trkpt lat="47.23701" lon="6.74979">
        <ele>904</ele>
        <time>2018-07-01T08:47:04.000Z</time>
      </trkpt>
      <trkpt lat="47.23702" lon="6.74982">
        <ele>905</ele>
        <time>2018-07-01T08:47:05.000Z</time>
      </trkpt>
      <trkpt lat="47.23703" lon="6.74985">
        <ele>905</ele>
        <time>2018-07-01T08:47:06.000Z</time>
      </trkpt>
      <trkpt lat="47.23704" lon="6.74987">
        <ele>905</ele>
        <time>2018-07-01T08:47:07.000Z</time>
      </trkpt>
      <trkpt lat="47.23705" lon="6.7499">
        <ele>905</ele>
        <time>2018-07-01T08:47:08.000Z</time>
      </trkpt>
      <trkpt lat="47.23706" lon="6.74992">
        <ele>905</ele>
        <time>2018-07-01T08:47:09.000Z</time>
      </trkpt>
      <trkpt lat="47.23707" lon="6.74994">
        <ele>905</ele>
        <time>2018-07-01T08:47:10.000Z</time>
      </trkpt>
      <trkpt lat="47.23708" lon="6.74996">
        <ele>905</ele>
        <time>2018-07-01T08:47:11.000Z</time>
      </trkpt>
      <trkpt lat="47.23709" lon="6.74998">
        <ele>905</ele>
        <time>2018-07-01T08:47:12.000Z</time>
      </trkpt>
      <trkpt lat="47.2371" lon="6.75">
        <ele>905</ele>
        <time>2018-07-01T08:47:13.000Z</time>
      </trkpt>
      <trkpt lat="47.23711" lon="6.75002">
        <ele>908</ele>
        <time>2018-07-01T08:47:14.000Z</time>
      </trkpt>
      <trkpt lat="47.23713" lon="6.75005">
        <ele>908</ele>
        <time>2018-07-01T08:47:15.000Z</time>
      </trkpt>
      <trkpt lat="47.23714" lon="6.75008">
        <ele>908</ele>
        <time>2018-07-01T08:47:16.000Z</time>
      </trkpt>
      <trkpt lat="47.23715" lon="6.75011">
        <ele>908</ele>
        <time>2018-07-01T08:47:17.000Z</time>
      </trkpt>
      <trkpt lat="47.23715" lon="6.75014">
        <ele>908</ele>
        <time>2018-07-01T08:47:18.000Z</time>
      </trkpt>
      <trkpt lat="47.23716" lon="6.75017">
        <ele>908</ele>
        <time>2018-07-01T08:47:19.000Z</time>
      </trkpt>
      <trkpt lat="47.23717" lon="6.7502">
        <ele>908</ele>
        <time>2018-07-01T08:47:20.000Z</time>
      </trkpt>
      <trkpt lat="47.23718" lon="6.75023">
        <ele>908</ele>
        <time>2018-07-01T08:47:21.000Z</time>
      </trkpt>
      <trkpt lat="47.23718" lon="6.75025">
        <ele>908</ele>
        <time>2018-07-01T08:47:22.000Z</time>
      </trkpt>
      <trkpt lat="47.23719" lon="6.75028">
        <ele>908</ele>
        <time>2018-07-01T08:47:23.000Z</time>
      </trkpt>
      <trkpt lat="47.2372" lon="6.75031">
        <ele>909</ele>
        <time>2018-07-01T08:47:24.000Z</time>
      </trkpt>
      <trkpt lat="47.23721" lon="6.75034">
        <ele>909</ele>
        <time>2018-07-01T08:47:25.000Z</time>
      </trkpt>
      <trkpt lat="47.23722" lon="6.75037">
        <ele>909</ele>
        <time>2018-07-01T08:47:26.000Z</time>
      </trkpt>
      <trkpt lat="47.23723" lon="6.7504">
        <ele>909</ele>
        <time>2018-07-01T08:47:27.000Z</time>
      </trkpt>
      <trkpt lat="47.23724" lon="6.75043">
        <ele>909</ele>
        <time>2018-07-01T08:47:28.000Z</time>
      </trkpt>
      <trkpt lat="47.23724" lon="6.75046">
        <ele>909</ele>
        <time>2018-07-01T08:47:29.000Z</time>
      </trkpt>
      <trkpt lat="47.23725" lon="6.75049">
        <ele>909</ele>
        <time>2018-07-01T08:47:30.000Z</time>
      </trkpt>
      <trkpt lat="47.23725" lon="6.75053">
        <ele>909</ele>
        <time>2018-07-01T08:47:31.000Z</time>
      </trkpt>
      <trkpt lat="47.23725" lon="6.75056">
        <ele>909</ele>
        <time>2018-07-01T08:47:32.000Z</time>
      </trkpt>
      <trkpt lat="47.23724" lon="6.7506">
        <ele>909</ele>
        <time>2018-07-01T08:47:33.000Z</time>
      </trkpt>
      <trkpt lat="47.23724" lon="6.75064">
        <ele>910</ele>
        <time>2018-07-01T08:47:34.000Z</time>
      </trkpt>
      <trkpt lat="47.23724" lon="6.75068">
        <ele>910</ele>
        <time>2018-07-01T08:47:35.000Z</time>
      </trkpt>
      <trkpt lat="47.23724" lon="6.75072">
        <ele>910</ele>
        <time>2018-07-01T08:47:36.000Z</time>
      </trkpt>
      <trkpt lat="47.23724" lon="6.75076">
        <ele>910</ele>
        <time>2018-07-01T08:47:37.000Z</time>
      </trkpt>
      <trkpt lat="47.23724" lon="6.75079">
        <ele>910</ele>
        <time>2018-07-01T08:47:38.000Z</time>
      </trkpt>
      <trkpt lat="47.23724" lon="6.75083">
        <ele>910</ele>
        <time>2018-07-01T08:47:39.000Z</time>
      </trkpt>
      <trkpt lat="47.23725" lon="6.75087">
        <ele>912</ele>
        <time>2018-07-01T08:47:40.000Z</time>
      </trkpt>
      <trkpt lat="47.23726" lon="6.75091">
        <ele>912</ele>
        <time>2018-07-01T08:47:41.000Z</time>
      </trkpt>
      <trkpt lat="47.23727" lon="6.75094">
        <ele>912</ele>
        <time>2018-07-01T08:47:42.000Z</time>
      </trkpt>
      <trkpt lat="47.23728" lon="6.75097">
        <ele>912</ele>
        <time>2018-07-01T08:47:43.000Z</time>
      </trkpt>
      <trkpt lat="47.23729" lon="6.751">
        <ele>912</ele>
        <time>2018-07-01T08:47:44.000Z</time>
      </trkpt>
      <trkpt lat="47.2373" lon="6.75104">
        <ele>912</ele>
        <time>2018-07-01T08:47:45.000Z</time>
      </trkpt>
      <trkpt lat="47.23731" lon="6.75108">
        <ele>912</ele>
        <time>2018-07-01T08:47:46.000Z</time>
      </trkpt>
      <trkpt lat="47.23732" lon="6.75111">
        <ele>912</ele>
        <time>2018-07-01T08:47:47.000Z</time>
      </trkpt>
      <trkpt lat="47.23733" lon="6.75115">
        <ele>912</ele>
        <time>2018-07-01T08:47:48.000Z</time>
      </trkpt>
      <trkpt lat="47.23734" lon="6.75118">
        <ele>912</ele>
        <time>2018-07-01T08:47:49.000Z</time>
      </trkpt>
      <trkpt lat="47.23734" lon="6.75122">
        <ele>912</ele>
        <time>2018-07-01T08:47:50.000Z</time>
      </trkpt>
      <trkpt lat="47.23735" lon="6.75125">
        <ele>912</ele>
        <time>2018-07-01T08:47:51.000Z</time>
      </trkpt>
      <trkpt lat="47.23735" lon="6.75129">
        <ele>913</ele>
        <time>2018-07-01T08:47:52.000Z</time>
      </trkpt>
      <trkpt lat="47.23735" lon="6.75133">
        <ele>913</ele>
        <time>2018-07-01T08:47:53.000Z</time>
      </trkpt>
      <trkpt lat="47.23735" lon="6.75137">
        <ele>913</ele>
        <time>2018-07-01T08:47:54.000Z</time>
      </trkpt>
      <trkpt lat="47.23736" lon="6.75141">
        <ele>913</ele>
        <time>2018-07-01T08:47:55.000Z</time>
      </trkpt>
      <trkpt lat="47.23736" lon="6.75145">
        <ele>913</ele>
        <time>2018-07-01T08:47:56.000Z</time>
      </trkpt>
      <trkpt lat="47.23737" lon="6.75148">
        <ele>914</ele>
        <time>2018-07-01T08:47:57.000Z</time>
      </trkpt>
      <trkpt lat="47.23737" lon="6.75153">
        <ele>914</ele>
        <time>2018-07-01T08:47:58.000Z</time>
      </trkpt>
      <trkpt lat="47.23738" lon="6.75157">
        <ele>914</ele>
        <time>2018-07-01T08:47:59.000Z</time>
      </trkpt>
      <trkpt lat="47.23739" lon="6.75161">
        <ele>915</ele>
        <time>2018-07-01T08:48:00.000Z</time>
      </trkpt>
      <trkpt lat="47.2374" lon="6.75164">
        <ele>915</ele>
        <time>2018-07-01T08:48:01.000Z</time>
      </trkpt>
      <trkpt lat="47.2374" lon="6.75168">
        <ele>916</ele>
        <time>2018-07-01T08:48:02.000Z</time>
      </trkpt>
      <trkpt lat="47.23741" lon="6.75171">
        <ele>916</ele>
        <time>2018-07-01T08:48:03.000Z</time>
      </trkpt>
      <trkpt lat="47.23742" lon="6.75175">
        <ele>916</ele>
        <time>2018-07-01T08:48:04.000Z</time>
      </trkpt>
      <trkpt lat="47.23743" lon="6.75178">
        <ele>916</ele>
        <time>2018-07-01T08:48:05.000Z</time>
      </trkpt>
      <trkpt lat="47.23744" lon="6.75181">
        <ele>916</ele>
        <time>2018-07-01T08:48:06.000Z</time>
      </trkpt>
      <trkpt lat="47.23744" lon="6.75184">
        <ele>916</ele>
        <time>2018-07-01T08:48:07.000Z</time>
      </trkpt>
      <trkpt lat="47.23745" lon="6.75187">
        <ele>916</ele>
        <time>2018-07-01T08:48:08.000Z</time>
      </trkpt>
      <trkpt lat="47.23745" lon="6.75191">
        <ele>916</ele>
        <time>2018-07-01T08:48:09.000Z</time>
      </trkpt>
      <trkpt lat="47.23746" lon="6.75195">
        <ele>916</ele>
        <time>2018-07-01T08:48:10.000Z</time>
      </trkpt>
      <trkpt lat="47.23746" lon="6.75199">
        <ele>916</ele>
        <time>2018-07-01T08:48:11.000Z</time>
      </trkpt>
      <trkpt lat="47.23746" lon="6.75204">
        <ele>916</ele>
        <time>2018-07-01T08:48:12.000Z</time>
      </trkpt>
      <trkpt lat="47.23747" lon="6.75207">
        <ele>916</ele>
        <time>2018-07-01T08:48:13.000Z</time>
      </trkpt>
      <trkpt lat="47.23748" lon="6.75211">
        <ele>916</ele>
        <time>2018-07-01T08:48:14.000Z</time>
      </trkpt>
      <trkpt lat="47.23749" lon="6.75214">
        <ele>917</ele>
        <time>2018-07-01T08:48:15.000Z</time>
      </trkpt>
      <trkpt lat="47.2375" lon="6.75218">
        <ele>917</ele>
        <time>2018-07-01T08:48:16.000Z</time>
      </trkpt>
      <trkpt lat="47.23751" lon="6.75222">
        <ele>915</ele>
        <time>2018-07-01T08:48:17.000Z</time>
      </trkpt>
      <trkpt lat="47.23752" lon="6.75225">
        <ele>915</ele>
        <time>2018-07-01T08:48:18.000Z</time>
      </trkpt>
      <trkpt lat="47.23753" lon="6.75229">
        <ele>916</ele>
        <time>2018-07-01T08:48:19.000Z</time>
      </trkpt>
      <trkpt lat="47.23754" lon="6.75232">
        <ele>916</ele>
        <time>2018-07-01T08:48:20.000Z</time>
      </trkpt>
      <trkpt lat="47.23755" lon="6.75236">
        <ele>916</ele>
        <time>2018-07-01T08:48:21.000Z</time>
      </trkpt>
      <trkpt lat="47.23756" lon="6.7524">
        <ele>917</ele>
        <time>2018-07-01T08:48:22.000Z</time>
      </trkpt>
      <trkpt lat="47.23757" lon="6.75244">
        <ele>917</ele>
        <time>2018-07-01T08:48:23.000Z</time>
      </trkpt>
      <trkpt lat="47.23757" lon="6.75247">
        <ele>918</ele>
        <time>2018-07-01T08:48:24.000Z</time>
      </trkpt>
      <trkpt lat="47.23758" lon="6.75252">
        <ele>919</ele>
        <time>2018-07-01T08:48:25.000Z</time>
      </trkpt>
      <trkpt lat="47.23759" lon="6.75256">
        <ele>918</ele>
        <time>2018-07-01T08:48:26.000Z</time>
      </trkpt>
      <trkpt lat="47.2376" lon="6.7526">
        <ele>918</ele>
        <time>2018-07-01T08:48:27.000Z</time>
      </trkpt>
      <trkpt lat="47.23761" lon="6.75265">
        <ele>918</ele>
        <time>2018-07-01T08:48:28.000Z</time>
      </trkpt>
      <trkpt lat="47.23762" lon="6.75269">
        <ele>918</ele>
        <time>2018-07-01T08:48:29.000Z</time>
      </trkpt>
      <trkpt lat="47.23762" lon="6.75273">
        <ele>917</ele>
        <time>2018-07-01T08:48:30.000Z</time>
      </trkpt>
      <trkpt lat="47.23763" lon="6.75277">
        <ele>917</ele>
        <time>2018-07-01T08:48:31.000Z</time>
      </trkpt>
      <trkpt lat="47.23763" lon="6.75281">
        <ele>917</ele>
        <time>2018-07-01T08:48:32.000Z</time>
      </trkpt>
      <trkpt lat="47.23763" lon="6.75286">
        <ele>917</ele>
        <time>2018-07-01T08:48:33.000Z</time>
      </trkpt>
      <trkpt lat="47.23763" lon="6.7529">
        <ele>917</ele>
        <time>2018-07-01T08:48:34.000Z</time>
      </trkpt>
      <trkpt lat="47.23764" lon="6.75294">
        <ele>917</ele>
        <time>2018-07-01T08:48:35.000Z</time>
      </trkpt>
      <trkpt lat="47.23764" lon="6.75298">
        <ele>917</ele>
        <time>2018-07-01T08:48:36.000Z</time>
      </trkpt>
      <trkpt lat="47.23765" lon="6.75302">
        <ele>918</ele>
        <time>2018-07-01T08:48:37.000Z</time>
      </trkpt>
      <trkpt lat="47.23765" lon="6.75305">
        <ele>918</ele>
        <time>2018-07-01T08:48:38.000Z</time>
      </trkpt>
      <trkpt lat="47.23766" lon="6.75309">
        <ele>918</ele>
        <time>2018-07-01T08:48:39.000Z</time>
      </trkpt>
      <trkpt lat="47.23767" lon="6.75312">
        <ele>918</ele>
        <time>2018-07-01T08:48:40.000Z</time>
      </trkpt>
      <trkpt lat="47.23768" lon="6.75315">
        <ele>918</ele>
        <time>2018-07-01T08:48:41.000Z</time>
      </trkpt>
      <trkpt lat="47.23769" lon="6.75319">
        <ele>918</ele>
        <time>2018-07-01T08:48:42.000Z</time>
      </trkpt>
      <trkpt lat="47.2377" lon="6.75322">
        <ele>918</ele>
        <time>2018-07-01T08:48:43.000Z</time>
      </trkpt>
      <trkpt lat="47.23771" lon="6.75326">
        <ele>918</ele>
        <time>2018-07-01T08:48:44.000Z</time>
      </trkpt>
      <trkpt lat="47.23772" lon="6.75329">
        <ele>918</ele>
        <time>2018-07-01T08:48:45.000Z</time>
      </trkpt>
      <trkpt lat="47.23773" lon="6.75332">
        <ele>918</ele>
        <time>2018-07-01T08:48:46.000Z</time>
      </trkpt>
      <trkpt lat="47.23774" lon="6.75336">
        <ele>920</ele>
        <time>2018-07-01T08:48:47.000Z</time>
      </trkpt>
      <trkpt lat="47.23775" lon="6.7534">
        <ele>920</ele>
        <time>2018-07-01T08:48:48.000Z</time>
      </trkpt>
      <trkpt lat="47.23776" lon="6.75344">
        <ele>920</ele>
        <time>2018-07-01T08:48:49.000Z</time>
      </trkpt>
      <trkpt lat="47.23776" lon="6.75349">
        <ele>920</ele>
        <time>2018-07-01T08:48:50.000Z</time>
      </trkpt>
      <trkpt lat="47.23777" lon="6.75355">
        <ele>919</ele>
        <time>2018-07-01T08:48:51.000Z</time>
      </trkpt>
      <trkpt lat="47.23777" lon="6.7536">
        <ele>919</ele>
        <time>2018-07-01T08:48:52.000Z</time>
      </trkpt>
      <trkpt lat="47.23777" lon="6.75366">
        <ele>919</ele>
        <time>2018-07-01T08:48:53.000Z</time>
      </trkpt>
      <trkpt lat="47.23778" lon="6.75372">
        <ele>919</ele>
        <time>2018-07-01T08:48:54.000Z</time>
      </trkpt>
      <trkpt lat="47.23778" lon="6.75377">
        <ele>919</ele>
        <time>2018-07-01T08:48:55.000Z</time>
      </trkpt>
      <trkpt lat="47.23778" lon="6.75381">
        <ele>919</ele>
        <time>2018-07-01T08:48:56.000Z</time>
      </trkpt>
      <trkpt lat="47.23778" lon="6.75385">
        <ele>919</ele>
        <time>2018-07-01T08:48:57.000Z</time>
      </trkpt>
      <trkpt lat="47.23777" lon="6.75388">
        <ele>920</ele>
        <time>2018-07-01T08:48:58.000Z</time>
      </trkpt>
      <trkpt lat="47.23776" lon="6.75392">
        <ele>920</ele>
        <time>2018-07-01T08:48:59.000Z</time>
      </trkpt>
      <trkpt lat="47.23774" lon="6.75394">
        <ele>920</ele>
        <time>2018-07-01T08:49:00.000Z</time>
      </trkpt>
      <trkpt lat="47.23772" lon="6.75397">
        <ele>920</ele>
        <time>2018-07-01T08:49:01.000Z</time>
      </trkpt>
      <trkpt lat="47.2377" lon="6.754">
        <ele>920</ele>
        <time>2018-07-01T08:49:02.000Z</time>
      </trkpt>
      <trkpt lat="47.23768" lon="6.75403">
        <ele>920</ele>
        <time>2018-07-01T08:49:03.000Z</time>
      </trkpt>
      <trkpt lat="47.23765" lon="6.75407">
        <ele>920</ele>
        <time>2018-07-01T08:49:04.000Z</time>
      </trkpt>
      <trkpt lat="47.23763" lon="6.75411">
        <ele>920</ele>
        <time>2018-07-01T08:49:05.000Z</time>
      </trkpt>
      <trkpt lat="47.23761" lon="6.75415">
        <ele>920</ele>
        <time>2018-07-01T08:49:06.000Z</time>
      </trkpt>
      <trkpt lat="47.23759" lon="6.75419">
        <ele>920</ele>
        <time>2018-07-01T08:49:07.000Z</time>
      </trkpt>
      <trkpt lat="47.23757" lon="6.75422">
        <ele>920</ele>
        <time>2018-07-01T08:49:08.000Z</time>
      </trkpt>
      <trkpt lat="47.23756" lon="6.75426">
        <ele>920</ele>
        <time>2018-07-01T08:49:09.000Z</time>
      </trkpt>
      <trkpt lat="47.23754" lon="6.7543">
        <ele>920</ele>
        <time>2018-07-01T08:49:10.000Z</time>
      </trkpt>
      <trkpt lat="47.23753" lon="6.75433">
        <ele>920</ele>
        <time>2018-07-01T08:49:11.000Z</time>
      </trkpt>
      <trkpt lat="47.23751" lon="6.75437">
        <ele>920</ele>
        <time>2018-07-01T08:49:12.000Z</time>
      </trkpt>
      <trkpt lat="47.2375" lon="6.7544">
        <ele>920</ele>
        <time>2018-07-01T08:49:13.000Z</time>
      </trkpt>
      <trkpt lat="47.23748" lon="6.75443">
        <ele>920</ele>
        <time>2018-07-01T08:49:14.000Z</time>
      </trkpt>
      <trkpt lat="47.23747" lon="6.75447">
        <ele>920</ele>
        <time>2018-07-01T08:49:15.000Z</time>
      </trkpt>
      <trkpt lat="47.23746" lon="6.75451">
        <ele>920</ele>
        <time>2018-07-01T08:49:16.000Z</time>
      </trkpt>
      <trkpt lat="47.23744" lon="6.75455">
        <ele>920</ele>
        <time>2018-07-01T08:49:17.000Z</time>
      </trkpt>
      <trkpt lat="47.23743" lon="6.75459">
        <ele>920</ele>
        <time>2018-07-01T08:49:18.000Z</time>
      </trkpt>
      <trkpt lat="47.23742" lon="6.75463">
        <ele>920</ele>
        <time>2018-07-01T08:49:19.000Z</time>
      </trkpt>
      <trkpt lat="47.2374" lon="6.75466">
        <ele>920</ele>
        <time>2018-07-01T08:49:20.000Z</time>
      </trkpt>
      <trkpt lat="47.23739" lon="6.75469">
        <ele>920</ele>
        <time>2018-07-01T08:49:21.000Z</time>
      </trkpt>
      <trkpt lat="47.23737" lon="6.75472">
        <ele>920</ele>
        <time>2018-07-01T08:49:22.000Z</time>
      </trkpt>
      <trkpt lat="47.23735" lon="6.75475">
        <ele>920</ele>
        <time>2018-07-01T08:49:23.000Z</time>
      </trkpt>
      <trkpt lat="47.23733" lon="6.75477">
        <ele>920</ele>
        <time>2018-07-01T08:49:24.000Z</time>
      </trkpt>
      <trkpt lat="47.23731" lon="6.7548">
        <ele>920</ele>
        <time>2018-07-01T08:49:25.000Z</time>
      </trkpt>
      <trkpt lat="47.23728" lon="6.75481">
        <ele>920</ele>
        <time>2018-07-01T08:49:26.000Z</time>
      </trkpt>
      <trkpt lat="47.23725" lon="6.75483">
        <ele>920</ele>
        <time>2018-07-01T08:49:27.000Z</time>
      </trkpt>
      <trkpt lat="47.23722" lon="6.75484">
        <ele>920</ele>
        <time>2018-07-01T08:49:28.000Z</time>
      </trkpt>
      <trkpt lat="47.23718" lon="6.75486">
        <ele>920</ele>
        <time>2018-07-01T08:49:29.000Z</time>
      </trkpt>
      <trkpt lat="47.23716" lon="6.75488">
        <ele>920</ele>
        <time>2018-07-01T08:49:30.000Z</time>
      </trkpt>
      <trkpt lat="47.23714" lon="6.75489">
        <ele>920</ele>
        <time>2018-07-01T08:49:31.000Z</time>
      </trkpt>
      <trkpt lat="47.23712" lon="6.75491">
        <ele>921</ele>
        <time>2018-07-01T08:49:32.000Z</time>
      </trkpt>
      <trkpt lat="47.2371" lon="6.75494">
        <ele>921</ele>
        <time>2018-07-01T08:49:33.000Z</time>
      </trkpt>
      <trkpt lat="47.23709" lon="6.75498">
        <ele>921</ele>
        <time>2018-07-01T08:49:34.000Z</time>
      </trkpt>
      <trkpt lat="47.23708" lon="6.75503">
        <ele>922</ele>
        <time>2018-07-01T08:49:35.000Z</time>
      </trkpt>
      <trkpt lat="47.23707" lon="6.75507">
        <ele>923</ele>
        <time>2018-07-01T08:49:36.000Z</time>
      </trkpt>
      <trkpt lat="47.23706" lon="6.75512">
        <ele>923</ele>
        <time>2018-07-01T08:49:37.000Z</time>
      </trkpt>
      <trkpt lat="47.23705" lon="6.75517">
        <ele>923</ele>
        <time>2018-07-01T08:49:38.000Z</time>
      </trkpt>
      <trkpt lat="47.23704" lon="6.75521">
        <ele>923</ele>
        <time>2018-07-01T08:49:39.000Z</time>
      </trkpt>
      <trkpt lat="47.23704" lon="6.75526">
        <ele>923</ele>
        <time>2018-07-01T08:49:40.000Z</time>
      </trkpt>
      <trkpt lat="47.23704" lon="6.75531">
        <ele>923</ele>
        <time>2018-07-01T08:49:41.000Z</time>
      </trkpt>
      <trkpt lat="47.23705" lon="6.75536">
        <ele>923</ele>
        <time>2018-07-01T08:49:42.000Z</time>
      </trkpt>
      <trkpt lat="47.23705" lon="6.7554">
        <ele>923</ele>
        <time>2018-07-01T08:49:43.000Z</time>
      </trkpt>
      <trkpt lat="47.23706" lon="6.75544">
        <ele>923</ele>
        <time>2018-07-01T08:49:44.000Z</time>
      </trkpt>
      <trkpt lat="47.23706" lon="6.75549">
        <ele>924</ele>
        <time>2018-07-01T08:49:45.000Z</time>
      </trkpt>
      <trkpt lat="47.23706" lon="6.75553">
        <ele>924</ele>
        <time>2018-07-01T08:49:46.000Z</time>
      </trkpt>
      <trkpt lat="47.23707" lon="6.75558">
        <ele>924</ele>
        <time>2018-07-01T08:49:47.000Z</time>
      </trkpt>
      <trkpt lat="47.23708" lon="6.75562">
        <ele>924</ele>
        <time>2018-07-01T08:49:48.000Z</time>
      </trkpt>
      <trkpt lat="47.23709" lon="6.75567">
        <ele>924</ele>
        <time>2018-07-01T08:49:49.000Z</time>
      </trkpt>
      <trkpt lat="47.2371" lon="6.75571">
        <ele>924</ele>
        <time>2018-07-01T08:49:50.000Z</time>
      </trkpt>
      <trkpt lat="47.23711" lon="6.75575">
        <ele>924</ele>
        <time>2018-07-01T08:49:51.000Z</time>
      </trkpt>
      <trkpt lat="47.23712" lon="6.75579">
        <ele>924</ele>
        <time>2018-07-01T08:49:52.000Z</time>
      </trkpt>
      <trkpt lat="47.23712" lon="6.75583">
        <ele>924</ele>
        <time>2018-07-01T08:49:53.000Z</time>
      </trkpt>
      <trkpt lat="47.23713" lon="6.75587">
        <ele>924</ele>
        <time>2018-07-01T08:49:54.000Z</time>
      </trkpt>
      <trkpt lat="47.23714" lon="6.75592">
        <ele>924</ele>
        <time>2018-07-01T08:49:55.000Z</time>
      </trkpt>
      <trkpt lat="47.23714" lon="6.75596">
        <ele>924</ele>
        <time>2018-07-01T08:49:56.000Z</time>
      </trkpt>
      <trkpt lat="47.23715" lon="6.756">
        <ele>924</ele>
        <time>2018-07-01T08:49:57.000Z</time>
      </trkpt>
      <trkpt lat="47.23715" lon="6.75604">
        <ele>924</ele>
        <time>2018-07-01T08:49:58.000Z</time>
      </trkpt>
      <trkpt lat="47.23715" lon="6.75608">
        <ele>924</ele>
        <time>2018-07-01T08:49:59.000Z</time>
      </trkpt>
      <trkpt lat="47.23715" lon="6.75612">
        <ele>924</ele>
        <time>2018-07-01T08:50:00.000Z</time>
      </trkpt>
      <trkpt lat="47.23714" lon="6.75615">
        <ele>924</ele>
        <time>2018-07-01T08:50:01.000Z</time>
      </trkpt>
      <trkpt lat="47.23712" lon="6.75617">
        <ele>924</ele>
        <time>2018-07-01T08:50:02.000Z</time>
      </trkpt>
      <trkpt lat="47.23711" lon="6.7562">
        <ele>924</ele>
        <time>2018-07-01T08:50:03.000Z</time>
      </trkpt>
      <trkpt lat="47.23709" lon="6.75622">
        <ele>924</ele>
        <time>2018-07-01T08:50:04.000Z</time>
      </trkpt>
      <trkpt lat="47.23707" lon="6.75624">
        <ele>924</ele>
        <time>2018-07-01T08:50:05.000Z</time>
      </trkpt>
      <trkpt lat="47.23704" lon="6.75624">
        <ele>925</ele>
        <time>2018-07-01T08:50:06.000Z</time>
      </trkpt>
      <trkpt lat="47.23701" lon="6.75624">
        <ele>925</ele>
        <time>2018-07-01T08:50:07.000Z</time>
      </trkpt>
      <trkpt lat="47.23698" lon="6.75623">
        <ele>925</ele>
        <time>2018-07-01T08:50:08.000Z</time>
      </trkpt>
      <trkpt lat="47.23695" lon="6.75621">
        <ele>925</ele>
        <time>2018-07-01T08:50:09.000Z</time>
      </trkpt>
      <trkpt lat="47.23693" lon="6.75619">
        <ele>925</ele>
        <time>2018-07-01T08:50:10.000Z</time>
      </trkpt>
      <trkpt lat="47.23691" lon="6.75616">
        <ele>925</ele>
        <time>2018-07-01T08:50:11.000Z</time>
      </trkpt>
      <trkpt lat="47.23689" lon="6.75614">
        <ele>926</ele>
        <time>2018-07-01T08:50:12.000Z</time>
      </trkpt>
      <trkpt lat="47.23687" lon="6.75611">
        <ele>926</ele>
        <time>2018-07-01T08:50:13.000Z</time>
      </trkpt>
      <trkpt lat="47.23685" lon="6.75608">
        <ele>926</ele>
        <time>2018-07-01T08:50:14.000Z</time>
      </trkpt>
      <trkpt lat="47.23683" lon="6.75605">
        <ele>926</ele>
        <time>2018-07-01T08:50:15.000Z</time>
      </trkpt>
      <trkpt lat="47.2368" lon="6.75603">
        <ele>927</ele>
        <time>2018-07-01T08:50:16.000Z</time>
      </trkpt>
      <trkpt lat="47.23678" lon="6.756">
        <ele>927</ele>
        <time>2018-07-01T08:50:17.000Z</time>
      </trkpt>
      <trkpt lat="47.23676" lon="6.75598">
        <ele>927</ele>
        <time>2018-07-01T08:50:18.000Z</time>
      </trkpt>
      <trkpt lat="47.23674" lon="6.75595">
        <ele>928</ele>
        <time>2018-07-01T08:50:19.000Z</time>
      </trkpt>
      <trkpt lat="47.23672" lon="6.75591">
        <ele>928</ele>
        <time>2018-07-01T08:50:20.000Z</time>
      </trkpt>
      <trkpt lat="47.2367" lon="6.75588">
        <ele>929</ele>
        <time>2018-07-01T08:50:21.000Z</time>
      </trkpt>
      <trkpt lat="47.23668" lon="6.75585">
        <ele>930</ele>
        <time>2018-07-01T08:50:22.000Z</time>
      </trkpt>
      <trkpt lat="47.23666" lon="6.75581">
        <ele>930</ele>
        <time>2018-07-01T08:50:23.000Z</time>
      </trkpt>
      <trkpt lat="47.23664" lon="6.75577">
        <ele>931</ele>
        <time>2018-07-01T08:50:24.000Z</time>
      </trkpt>
      <trkpt lat="47.23662" lon="6.75574">
        <ele>931</ele>
        <time>2018-07-01T08:50:25.000Z</time>
      </trkpt>
      <trkpt lat="47.2366" lon="6.75571">
        <ele>932</ele>
        <time>2018-07-01T08:50:26.000Z</time>
      </trkpt>
      <trkpt lat="47.23659" lon="6.75568">
        <ele>932</ele>
        <time>2018-07-01T08:50:27.000Z</time>
      </trkpt>
      <trkpt lat="47.23657" lon="6.75565">
        <ele>932</ele>
        <time>2018-07-01T08:50:28.000Z</time>
      </trkpt>
      <trkpt lat="47.23655" lon="6.75563">
        <ele>932</ele>
        <time>2018-07-01T08:50:29.000Z</time>
      </trkpt>
      <trkpt lat="47.23654" lon="6.7556">
        <ele>932</ele>
        <time>2018-07-01T08:50:30.000Z</time>
      </trkpt>
      <trkpt lat="47.23653" lon="6.75557">
        <ele>933</ele>
        <time>2018-07-01T08:50:31.000Z</time>
      </trkpt>
      <trkpt lat="47.23652" lon="6.75555">
        <ele>933</ele>
        <time>2018-07-01T08:50:32.000Z</time>
      </trkpt>
      <trkpt lat="47.23651" lon="6.75552">
        <ele>933</ele>
        <time>2018-07-01T08:50:33.000Z</time>
      </trkpt>
      <trkpt lat="47.2365" lon="6.75549">
        <ele>933</ele>
        <time>2018-07-01T08:50:34.000Z</time>
      </trkpt>
      <trkpt lat="47.23649" lon="6.75547">
        <ele>933</ele>
        <time>2018-07-01T08:50:35.000Z</time>
      </trkpt>
      <trkpt lat="47.23648" lon="6.75545">
        <ele>933</ele>
        <time>2018-07-01T08:50:36.000Z</time>
      </trkpt>
      <trkpt lat="47.23648" lon="6.75542">
        <ele>933</ele>
        <time>2018-07-01T08:50:37.000Z</time>
      </trkpt>
      <trkpt lat="47.23647" lon="6.7554">
        <ele>933</ele>
        <time>2018-07-01T08:50:38.000Z</time>
      </trkpt>
      <trkpt lat="47.23646" lon="6.75537">
        <ele>932</ele>
        <time>2018-07-01T08:50:39.000Z</time>
      </trkpt>
      <trkpt lat="47.23646" lon="6.75534">
        <ele>932</ele>
        <time>2018-07-01T08:50:40.000Z</time>
      </trkpt>
      <trkpt lat="47.23645" lon="6.75531">
        <ele>932</ele>
        <time>2018-07-01T08:50:41.000Z</time>
      </trkpt>
      <trkpt lat="47.23645" lon="6.75528">
        <ele>932</ele>
        <time>2018-07-01T08:50:42.000Z</time>
      </trkpt>
      <trkpt lat="47.23645" lon="6.75525">
        <ele>932</ele>
        <time>2018-07-01T08:50:43.000Z</time>
      </trkpt>
      <trkpt lat="47.23645" lon="6.75522">
        <ele>932</ele>
        <time>2018-07-01T08:50:44.000Z</time>
      </trkpt>
      <trkpt lat="47.23645" lon="6.7552">
        <ele>932</ele>
        <time>2018-07-01T08:50:45.000Z</time>
      </trkpt>
      <trkpt lat="47.23645" lon="6.75517">
        <ele>931</ele>
        <time>2018-07-01T08:50:46.000Z</time>
      </trkpt>
      <trkpt lat="47.23644" lon="6.75514">
        <ele>931</ele>
        <time>2018-07-01T08:50:47.000Z</time>
      </trkpt>
      <trkpt lat="47.23643" lon="6.75512">
        <ele>931</ele>
        <time>2018-07-01T08:50:48.000Z</time>
      </trkpt>
      <trkpt lat="47.23643" lon="6.7551">
        <ele>931</ele>
        <time>2018-07-01T08:50:49.000Z</time>
      </trkpt>
      <trkpt lat="47.23642" lon="6.75508">
        <ele>931</ele>
        <time>2018-07-01T08:50:50.000Z</time>
      </trkpt>
      <trkpt lat="47.23641" lon="6.75505">
        <ele>931</ele>
        <time>2018-07-01T08:50:51.000Z</time>
      </trkpt>
      <trkpt lat="47.2364" lon="6.75503">
        <ele>931</ele>
        <time>2018-07-01T08:50:52.000Z</time>
      </trkpt>
      <trkpt lat="47.23639" lon="6.75501">
        <ele>932</ele>
        <time>2018-07-01T08:50:53.000Z</time>
      </trkpt>
      <trkpt lat="47.23639" lon="6.75499">
        <ele>930</ele>
        <time>2018-07-01T08:50:54.000Z</time>
      </trkpt>
      <trkpt lat="47.23638" lon="6.75496">
        <ele>930</ele>
        <time>2018-07-01T08:50:55.000Z</time>
      </trkpt>
      <trkpt lat="47.23637" lon="6.75494">
        <ele>931</ele>
        <time>2018-07-01T08:50:56.000Z</time>
      </trkpt>
      <trkpt lat="47.23636" lon="6.75492">
        <ele>931</ele>
        <time>2018-07-01T08:50:57.000Z</time>
      </trkpt>
      <trkpt lat="47.23635" lon="6.7549">
        <ele>931</ele>
        <time>2018-07-01T08:50:58.000Z</time>
      </trkpt>
      <trkpt lat="47.23634" lon="6.75489">
        <ele>931</ele>
        <time>2018-07-01T08:50:59.000Z</time>
      </trkpt>
      <trkpt lat="47.23633" lon="6.75487">
        <ele>931</ele>
        <time>2018-07-01T08:51:00.000Z</time>
      </trkpt>
      <trkpt lat="47.23632" lon="6.75486">
        <ele>931</ele>
        <time>2018-07-01T08:51:01.000Z</time>
      </trkpt>
      <trkpt lat="47.23631" lon="6.75484">
        <ele>932</ele>
        <time>2018-07-01T08:51:02.000Z</time>
      </trkpt>
      <trkpt lat="47.2363" lon="6.75483">
        <ele>932</ele>
        <time>2018-07-01T08:51:03.000Z</time>
      </trkpt>
      <trkpt lat="47.23629" lon="6.75481">
        <ele>932</ele>
        <time>2018-07-01T08:51:04.000Z</time>
      </trkpt>
      <trkpt lat="47.23628" lon="6.7548">
        <ele>932</ele>
        <time>2018-07-01T08:51:05.000Z</time>
      </trkpt>
      <trkpt lat="47.23627" lon="6.75478">
        <ele>932</ele>
        <time>2018-07-01T08:51:06.000Z</time>
      </trkpt>
      <trkpt lat="47.23626" lon="6.75477">
        <ele>932</ele>
        <time>2018-07-01T08:51:07.000Z</time>
      </trkpt>
      <trkpt lat="47.23625" lon="6.75476">
        <ele>932</ele>
        <time>2018-07-01T08:51:08.000Z</time>
      </trkpt>
      <trkpt lat="47.23624" lon="6.75474">
        <ele>933</ele>
        <time>2018-07-01T08:51:09.000Z</time>
      </trkpt>
      <trkpt lat="47.23623" lon="6.75473">
        <ele>933</ele>
        <time>2018-07-01T08:51:10.000Z</time>
      </trkpt>
      <trkpt lat="47.23622" lon="6.75472">
        <ele>933</ele>
        <time>2018-07-01T08:51:11.000Z</time>
      </trkpt>
      <trkpt lat="47.23621" lon="6.75471">
        <ele>933</ele>
        <time>2018-07-01T08:51:12.000Z</time>
      </trkpt>
      <trkpt lat="47.2362" lon="6.7547">
        <ele>933</ele>
        <time>2018-07-01T08:51:13.000Z</time>
      </trkpt>
      <trkpt lat="47.23618" lon="6.75469">
        <ele>933</ele>
        <time>2018-07-01T08:51:14.000Z</time>
      </trkpt>
      <trkpt lat="47.23617" lon="6.75468">
        <ele>933</ele>
        <time>2018-07-01T08:51:15.000Z</time>
      </trkpt>
      <trkpt lat="47.23616" lon="6.75467">
        <ele>933</ele>
        <time>2018-07-01T08:51:16.000Z</time>
      </trkpt>
      <trkpt lat="47.23616" lon="6.75467">
        <ele>933</ele>
        <time>2018-07-01T08:51:17.000Z</time>
      </trkpt>
      <trkpt lat="47.23615" lon="6.75466">
        <ele>934</ele>
        <time>2018-07-01T08:51:18.000Z</time>
      </trkpt>
      <trkpt lat="47.23614" lon="6.75464">
        <ele>934</ele>
        <time>2018-07-01T08:51:19.000Z</time>
      </trkpt>
      <trkpt lat="47.23613" lon="6.75463">
        <ele>934</ele>
        <time>2018-07-01T08:51:20.000Z</time>
      </trkpt>
      <trkpt lat="47.23612" lon="6.75462">
        <ele>934</ele>
        <time>2018-07-01T08:51:21.000Z</time>
      </trkpt>
      <trkpt lat="47.23611" lon="6.75461">
        <ele>934</ele>
        <time>2018-07-01T08:51:22.000Z</time>
      </trkpt>
      <trkpt lat="47.2361" lon="6.7546">
        <ele>934</ele>
        <time>2018-07-01T08:51:23.000Z</time>
      </trkpt>
      <trkpt lat="47.23609" lon="6.75459">
        <ele>934</ele>
        <time>2018-07-01T08:51:24.000Z</time>
      </trkpt>
      <trkpt lat="47.23608" lon="6.75457">
        <ele>934</ele>
        <time>2018-07-01T08:51:25.000Z</time>
      </trkpt>
      <trkpt lat="47.23608" lon="6.75456">
        <ele>934</ele>
        <time>2018-07-01T08:51:26.000Z</time>
      </trkpt>
      <trkpt lat="47.23607" lon="6.75455">
        <ele>934</ele>
        <time>2018-07-01T08:51:27.000Z</time>
      </trkpt>
      <trkpt lat="47.23606" lon="6.75454">
        <ele>934</ele>
        <time>2018-07-01T08:51:28.000Z</time>
      </trkpt>
      <trkpt lat="47.23606" lon="6.75453">
        <ele>935</ele>
        <time>2018-07-01T08:51:29.000Z</time>
      </trkpt>
      <trkpt lat="47.23606" lon="6.75452">
        <ele>935</ele>
        <time>2018-07-01T08:51:30.000Z</time>
      </trkpt>
      <trkpt lat="47.23605" lon="6.7545">
        <ele>935</ele>
        <time>2018-07-01T08:51:31.000Z</time>
      </trkpt>
      <trkpt lat="47.23604" lon="6.75449">
        <ele>935</ele>
        <time>2018-07-01T08:51:32.000Z</time>
      </trkpt>
      <trkpt lat="47.23604" lon="6.75448">
        <ele>935</ele>
        <time>2018-07-01T08:51:33.000Z</time>
      </trkpt>
      <trkpt lat="47.23603" lon="6.75446">
        <ele>935</ele>
        <time>2018-07-01T08:51:34.000Z</time>
      </trkpt>
      <trkpt lat="47.23602" lon="6.75445">
        <ele>935</ele>
        <time>2018-07-01T08:51:35.000Z</time>
      </trkpt>
      <trkpt lat="47.23602" lon="6.75444">
        <ele>935</ele>
        <time>2018-07-01T08:51:36.000Z</time>
      </trkpt>
      <trkpt lat="47.23601" lon="6.75444">
        <ele>935</ele>
        <time>2018-07-01T08:51:37.000Z</time>
      </trkpt>
      <trkpt lat="47.236" lon="6.75443">
        <ele>936</ele>
        <time>2018-07-01T08:51:38.000Z</time>
      </trkpt>
      <trkpt lat="47.236" lon="6.75442">
        <ele>936</ele>
        <time>2018-07-01T08:51:39.000Z</time>
      </trkpt>
      <trkpt lat="47.23599" lon="6.7544">
        <ele>936</ele>
        <time>2018-07-01T08:51:40.000Z</time>
      </trkpt>
      <trkpt lat="47.23598" lon="6.75439">
        <ele>936</ele>
        <time>2018-07-01T08:51:41.000Z</time>
      </trkpt>
      <trkpt lat="47.23598" lon="6.75437">
        <ele>936</ele>
        <time>2018-07-01T08:51:42.000Z</time>
      </trkpt>
      <trkpt lat="47.23597" lon="6.75436">
        <ele>936</ele>
        <time>2018-07-01T08:51:43.000Z</time>
      </trkpt>
      <trkpt lat="47.23596" lon="6.75435">
        <ele>937</ele>
        <time>2018-07-01T08:51:44.000Z</time>
      </trkpt>
      <trkpt lat="47.23595" lon="6.75434">
        <ele>937</ele>
        <time>2018-07-01T08:51:45.000Z</time>
      </trkpt>
      <trkpt lat="47.23595" lon="6.75433">
        <ele>937</ele>
        <time>2018-07-01T08:51:46.000Z</time>
      </trkpt>
      <trkpt lat="47.23594" lon="6.75433">
        <ele>937</ele>
        <time>2018-07-01T08:51:47.000Z</time>
      </trkpt>
      <trkpt lat="47.23593" lon="6.75431">
        <ele>938</ele>
        <time>2018-07-01T08:51:48.000Z</time>
      </trkpt>
      <trkpt lat="47.23592" lon="6.7543">
        <ele>938</ele>
        <time>2018-07-01T08:51:49.000Z</time>
      </trkpt>
      <trkpt lat="47.23591" lon="6.75429">
        <ele>938</ele>
        <time>2018-07-01T08:51:50.000Z</time>
      </trkpt>
      <trkpt lat="47.2359" lon="6.75427">
        <ele>939</ele>
        <time>2018-07-01T08:51:51.000Z</time>
      </trkpt>
      <trkpt lat="47.2359" lon="6.75426">
        <ele>939</ele>
        <time>2018-07-01T08:51:52.000Z</time>
      </trkpt>
      <trkpt lat="47.23589" lon="6.75425">
        <ele>940</ele>
        <time>2018-07-01T08:51:53.000Z</time>
      </trkpt>
      <trkpt lat="47.23588" lon="6.75423">
        <ele>940</ele>
        <time>2018-07-01T08:51:54.000Z</time>
      </trkpt>
      <trkpt lat="47.23587" lon="6.75422">
        <ele>941</ele>
        <time>2018-07-01T08:51:55.000Z</time>
      </trkpt>
      <trkpt lat="47.23586" lon="6.7542">
        <ele>941</ele>
        <time>2018-07-01T08:51:56.000Z</time>
      </trkpt>
      <trkpt lat="47.23585" lon="6.75418">
        <ele>942</ele>
        <time>2018-07-01T08:51:57.000Z</time>
      </trkpt>
      <trkpt lat="47.23584" lon="6.75416">
        <ele>942</ele>
        <time>2018-07-01T08:51:58.000Z</time>
      </trkpt>
      <trkpt lat="47.23583" lon="6.75414">
        <ele>943</ele>
        <time>2018-07-01T08:51:59.000Z</time>
      </trkpt>
      <trkpt lat="47.23582" lon="6.75412">
        <ele>942</ele>
        <time>2018-07-01T08:52:00.000Z</time>
      </trkpt>
      <trkpt lat="47.23581" lon="6.75409">
        <ele>942</ele>
        <time>2018-07-01T08:52:01.000Z</time>
      </trkpt>
      <trkpt lat="47.2358" lon="6.75407">
        <ele>942</ele>
        <time>2018-07-01T08:52:02.000Z</time>
      </trkpt>
      <trkpt lat="47.23579" lon="6.75405">
        <ele>942</ele>
        <time>2018-07-01T08:52:03.000Z</time>
      </trkpt>
      <trkpt lat="47.23578" lon="6.75403">
        <ele>941</ele>
        <time>2018-07-01T08:52:04.000Z</time>
      </trkpt>
      <trkpt lat="47.23577" lon="6.75402">
        <ele>941</ele>
        <time>2018-07-01T08:52:05.000Z</time>
      </trkpt>
      <trkpt lat="47.23575" lon="6.754">
        <ele>941</ele>
        <time>2018-07-01T08:52:06.000Z</time>
      </trkpt>
      <trkpt lat="47.23574" lon="6.75399">
        <ele>941</ele>
        <time>2018-07-01T08:52:07.000Z</time>
      </trkpt>
      <trkpt lat="47.23573" lon="6.75397">
        <ele>941</ele>
        <time>2018-07-01T08:52:08.000Z</time>
      </trkpt>
      <trkpt lat="47.23572" lon="6.75395">
        <ele>941</ele>
        <time>2018-07-01T08:52:09.000Z</time>
      </trkpt>
      <trkpt lat="47.23571" lon="6.75393">
        <ele>941</ele>
        <time>2018-07-01T08:52:10.000Z</time>
      </trkpt>
      <trkpt lat="47.2357" lon="6.75392">
        <ele>940</ele>
        <time>2018-07-01T08:52:11.000Z</time>
      </trkpt>
      <trkpt lat="47.23569" lon="6.7539">
        <ele>940</ele>
        <time>2018-07-01T08:52:12.000Z</time>
      </trkpt>
      <trkpt lat="47.23568" lon="6.75389">
        <ele>940</ele>
        <time>2018-07-01T08:52:13.000Z</time>
      </trkpt>
      <trkpt lat="47.23567" lon="6.75388">
        <ele>940</ele>
        <time>2018-07-01T08:52:14.000Z</time>
      </trkpt>
      <trkpt lat="47.23567" lon="6.75386">
        <ele>940</ele>
        <time>2018-07-01T08:52:15.000Z</time>
      </trkpt>
      <trkpt lat="47.23566" lon="6.75385">
        <ele>940</ele>
        <time>2018-07-01T08:52:16.000Z</time>
      </trkpt>
      <trkpt lat="47.23565" lon="6.75384">
        <ele>940</ele>
        <time>2018-07-01T08:52:17.000Z</time>
      </trkpt>
      <trkpt lat="47.23564" lon="6.75383">
        <ele>940</ele>
        <time>2018-07-01T08:52:18.000Z</time>
      </trkpt>
      <trkpt lat="47.23563" lon="6.75382">
        <ele>940</ele>
        <time>2018-07-01T08:52:19.000Z</time>
      </trkpt>
      <trkpt lat="47.23562" lon="6.7538">
        <ele>940</ele>
        <time>2018-07-01T08:52:20.000Z</time>
      </trkpt>
      <trkpt lat="47.23561" lon="6.75379">
        <ele>940</ele>
        <time>2018-07-01T08:52:21.000Z</time>
      </trkpt>
      <trkpt lat="47.2356" lon="6.75378">
        <ele>940</ele>
        <time>2018-07-01T08:52:22.000Z</time>
      </trkpt>
      <trkpt lat="47.23559" lon="6.75377">
        <ele>940</ele>
        <time>2018-07-01T08:52:23.000Z</time>
      </trkpt>
      <trkpt lat="47.23558" lon="6.75376">
        <ele>940</ele>
        <time>2018-07-01T08:52:24.000Z</time>
      </trkpt>
      <trkpt lat="47.23557" lon="6.75375">
        <ele>940</ele>
        <time>2018-07-01T08:52:25.000Z</time>
      </trkpt>
      <trkpt lat="47.23557" lon="6.75374">
        <ele>940</ele>
        <time>2018-07-01T08:52:26.000Z</time>
      </trkpt>
      <trkpt lat="47.23556" lon="6.75372">
        <ele>940</ele>
        <time>2018-07-01T08:52:27.000Z</time>
      </trkpt>
      <trkpt lat="47.23555" lon="6.75371">
        <ele>940</ele>
        <time>2018-07-01T08:52:28.000Z</time>
      </trkpt>
      <trkpt lat="47.23554" lon="6.7537">
        <ele>940</ele>
        <time>2018-07-01T08:52:29.000Z</time>
      </trkpt>
      <trkpt lat="47.23553" lon="6.75368">
        <ele>940</ele>
        <time>2018-07-01T08:52:30.000Z</time>
      </trkpt>
      <trkpt lat="47.23552" lon="6.75367">
        <ele>940</ele>
        <time>2018-07-01T08:52:31.000Z</time>
      </trkpt>
      <trkpt lat="47.23551" lon="6.75365">
        <ele>940</ele>
        <time>2018-07-01T08:52:32.000Z</time>
      </trkpt>
      <trkpt lat="47.23551" lon="6.75364">
        <ele>940</ele>
        <time>2018-07-01T08:52:33.000Z</time>
      </trkpt>
      <trkpt lat="47.2355" lon="6.75363">
        <ele>940</ele>
        <time>2018-07-01T08:52:34.000Z</time>
      </trkpt>
      <trkpt lat="47.23549" lon="6.75361">
        <ele>940</ele>
        <time>2018-07-01T08:52:35.000Z</time>
      </trkpt>
      <trkpt lat="47.23548" lon="6.7536">
        <ele>940</ele>
        <time>2018-07-01T08:52:36.000Z</time>
      </trkpt>
      <trkpt lat="47.23547" lon="6.75358">
        <ele>940</ele>
        <time>2018-07-01T08:52:37.000Z</time>
      </trkpt>
      <trkpt lat="47.23546" lon="6.75357">
        <ele>940</ele>
        <time>2018-07-01T08:52:38.000Z</time>
      </trkpt>
      <trkpt lat="47.23545" lon="6.75356">
        <ele>940</ele>
        <time>2018-07-01T08:52:39.000Z</time>
      </trkpt>
      <trkpt lat="47.23544" lon="6.75355">
        <ele>940</ele>
        <time>2018-07-01T08:52:40.000Z</time>
      </trkpt>
      <trkpt lat="47.23543" lon="6.75354">
        <ele>940</ele>
        <time>2018-07-01T08:52:41.000Z</time>
      </trkpt>
      <trkpt lat="47.23542" lon="6.75353">
        <ele>940</ele>
        <time>2018-07-01T08:52:42.000Z</time>
      </trkpt>
      <trkpt lat="47.23541" lon="6.75352">
        <ele>940</ele>
        <time>2018-07-01T08:52:43.000Z</time>
      </trkpt>
      <trkpt lat="47.2354" lon="6.75351">
        <ele>940</ele>
        <time>2018-07-01T08:52:44.000Z</time>
      </trkpt>
      <trkpt lat="47.23539" lon="6.7535">
        <ele>940</ele>
        <time>2018-07-01T08:52:45.000Z</time>
      </trkpt>
      <trkpt lat="47.23538" lon="6.75349">
        <ele>940</ele>
        <time>2018-07-01T08:52:46.000Z</time>
      </trkpt>
      <trkpt lat="47.23537" lon="6.75348">
        <ele>940</ele>
        <time>2018-07-01T08:52:47.000Z</time>
      </trkpt>
      <trkpt lat="47.23535" lon="6.75346">
        <ele>940</ele>
        <time>2018-07-01T08:52:48.000Z</time>
      </trkpt>
      <trkpt lat="47.23534" lon="6.75345">
        <ele>940</ele>
        <time>2018-07-01T08:52:49.000Z</time>
      </trkpt>
      <trkpt lat="47.23532" lon="6.75344">
        <ele>941</ele>
        <time>2018-07-01T08:52:50.000Z</time>
      </trkpt>
      <trkpt lat="47.2353" lon="6.75343">
        <ele>941</ele>
        <time>2018-07-01T08:52:51.000Z</time>
      </trkpt>
      <trkpt lat="47.23529" lon="6.75342">
        <ele>941</ele>
        <time>2018-07-01T08:52:52.000Z</time>
      </trkpt>
      <trkpt lat="47.23527" lon="6.75342">
        <ele>941</ele>
        <time>2018-07-01T08:52:53.000Z</time>
      </trkpt>
      <trkpt lat="47.23525" lon="6.75341">
        <ele>941</ele>
        <time>2018-07-01T08:52:54.000Z</time>
      </trkpt>
      <trkpt lat="47.23524" lon="6.75341">
        <ele>941</ele>
        <time>2018-07-01T08:52:55.000Z</time>
      </trkpt>
      <trkpt lat="47.23522" lon="6.7534">
        <ele>942</ele>
        <time>2018-07-01T08:52:56.000Z</time>
      </trkpt>
      <trkpt lat="47.2352" lon="6.75339">
        <ele>942</ele>
        <time>2018-07-01T08:52:57.000Z</time>
      </trkpt>
      <trkpt lat="47.23518" lon="6.75337">
        <ele>942</ele>
        <time>2018-07-01T08:52:58.000Z</time>
      </trkpt>
      <trkpt lat="47.23516" lon="6.75336">
        <ele>942</ele>
        <time>2018-07-01T08:52:59.000Z</time>
      </trkpt>
      <trkpt lat="47.23514" lon="6.75334">
        <ele>943</ele>
        <time>2018-07-01T08:53:00.000Z</time>
      </trkpt>
      <trkpt lat="47.23512" lon="6.75332">
        <ele>942</ele>
        <time>2018-07-01T08:53:01.000Z</time>
      </trkpt>
      <trkpt lat="47.23509" lon="6.7533">
        <ele>943</ele>
        <time>2018-07-01T08:53:02.000Z</time>
      </trkpt>
      <trkpt lat="47.23507" lon="6.75328">
        <ele>943</ele>
        <time>2018-07-01T08:53:03.000Z</time>
      </trkpt>
      <trkpt lat="47.23505" lon="6.75326">
        <ele>943</ele>
        <time>2018-07-01T08:53:04.000Z</time>
      </trkpt>
      <trkpt lat="47.23502" lon="6.75324">
        <ele>943</ele>
        <time>2018-07-01T08:53:05.000Z</time>
      </trkpt>
      <trkpt lat="47.23499" lon="6.75321">
        <ele>944</ele>
        <time>2018-07-01T08:53:06.000Z</time>
      </trkpt>
      <trkpt lat="47.23497" lon="6.75318">
        <ele>943</ele>
        <time>2018-07-01T08:53:07.000Z</time>
      </trkpt>
      <trkpt lat="47.23494" lon="6.75316">
        <ele>943</ele>
        <time>2018-07-01T08:53:08.000Z</time>
      </trkpt>
      <trkpt lat="47.23491" lon="6.75313">
        <ele>943</ele>
        <time>2018-07-01T08:53:09.000Z</time>
      </trkpt>
      <trkpt lat="47.23488" lon="6.7531">
        <ele>943</ele>
        <time>2018-07-01T08:53:10.000Z</time>
      </trkpt>
      <trkpt lat="47.23485" lon="6.75308">
        <ele>943</ele>
        <time>2018-07-01T08:53:11.000Z</time>
      </trkpt>
      <trkpt lat="47.23482" lon="6.75306">
        <ele>943</ele>
        <time>2018-07-01T08:53:12.000Z</time>
      </trkpt>
      <trkpt lat="47.23479" lon="6.75304">
        <ele>942</ele>
        <time>2018-07-01T08:53:13.000Z</time>
      </trkpt>
      <trkpt lat="47.23477" lon="6.75301">
        <ele>942</ele>
        <time>2018-07-01T08:53:14.000Z</time>
      </trkpt>
      <trkpt lat="47.23474" lon="6.75299">
        <ele>942</ele>
        <time>2018-07-01T08:53:15.000Z</time>
      </trkpt>
      <trkpt lat="47.23471" lon="6.75297">
        <ele>942</ele>
        <time>2018-07-01T08:53:16.000Z</time>
      </trkpt>
      <trkpt lat="47.23468" lon="6.75295">
        <ele>942</ele>
        <time>2018-07-01T08:53:17.000Z</time>
      </trkpt>
      <trkpt lat="47.23464" lon="6.75293">
        <ele>942</ele>
        <time>2018-07-01T08:53:18.000Z</time>
      </trkpt>
      <trkpt lat="47.23461" lon="6.75291">
        <ele>942</ele>
        <time>2018-07-01T08:53:19.000Z</time>
      </trkpt>
      <trkpt lat="47.23458" lon="6.7529">
        <ele>942</ele>
        <time>2018-07-01T08:53:20.000Z</time>
      </trkpt>
      <trkpt lat="47.23455" lon="6.75288">
        <ele>941</ele>
        <time>2018-07-01T08:53:21.000Z</time>
      </trkpt>
      <trkpt lat="47.23453" lon="6.75286">
        <ele>941</ele>
        <time>2018-07-01T08:53:22.000Z</time>
      </trkpt>
      <trkpt lat="47.2345" lon="6.75284">
        <ele>941</ele>
        <time>2018-07-01T08:53:23.000Z</time>
      </trkpt>
      <trkpt lat="47.23447" lon="6.75281">
        <ele>941</ele>
        <time>2018-07-01T08:53:24.000Z</time>
      </trkpt>
      <trkpt lat="47.23444" lon="6.75279">
        <ele>941</ele>
        <time>2018-07-01T08:53:25.000Z</time>
      </trkpt>
      <trkpt lat="47.23442" lon="6.75277">
        <ele>941</ele>
        <time>2018-07-01T08:53:26.000Z</time>
      </trkpt>
      <trkpt lat="47.23439" lon="6.75274">
        <ele>941</ele>
        <time>2018-07-01T08:53:27.000Z</time>
      </trkpt>
      <trkpt lat="47.23437" lon="6.7527">
        <ele>941</ele>
        <time>2018-07-01T08:53:28.000Z</time>
      </trkpt>
      <trkpt lat="47.23435" lon="6.75267">
        <ele>941</ele>
        <time>2018-07-01T08:53:29.000Z</time>
      </trkpt>
      <trkpt lat="47.23434" lon="6.75264">
        <ele>940</ele>
        <time>2018-07-01T08:53:30.000Z</time>
      </trkpt>
      <trkpt lat="47.23432" lon="6.75261">
        <ele>940</ele>
        <time>2018-07-01T08:53:31.000Z</time>
      </trkpt>
      <trkpt lat="47.2343" lon="6.75258">
        <ele>940</ele>
        <time>2018-07-01T08:53:32.000Z</time>
      </trkpt>
      <trkpt lat="47.23427" lon="6.75255">
        <ele>940</ele>
        <time>2018-07-01T08:53:33.000Z</time>
      </trkpt>
      <trkpt lat="47.23425" lon="6.75252">
        <ele>940</ele>
        <time>2018-07-01T08:53:34.000Z</time>
      </trkpt>
      <trkpt lat="47.23422" lon="6.7525">
        <ele>940</ele>
        <time>2018-07-01T08:53:35.000Z</time>
      </trkpt>
      <trkpt lat="47.2342" lon="6.75247">
        <ele>939</ele>
        <time>2018-07-01T08:53:36.000Z</time>
      </trkpt>
      <trkpt lat="47.23418" lon="6.75244">
        <ele>940</ele>
        <time>2018-07-01T08:53:37.000Z</time>
      </trkpt>
      <trkpt lat="47.23415" lon="6.75242">
        <ele>939</ele>
        <time>2018-07-01T08:53:38.000Z</time>
      </trkpt>
      <trkpt lat="47.23413" lon="6.7524">
        <ele>939</ele>
        <time>2018-07-01T08:53:39.000Z</time>
      </trkpt>
      <trkpt lat="47.2341" lon="6.75238">
        <ele>939</ele>
        <time>2018-07-01T08:53:40.000Z</time>
      </trkpt>
      <trkpt lat="47.23408" lon="6.75236">
        <ele>939</ele>
        <time>2018-07-01T08:53:41.000Z</time>
      </trkpt>
      <trkpt lat="47.23405" lon="6.75235">
        <ele>939</ele>
        <time>2018-07-01T08:53:42.000Z</time>
      </trkpt>
      <trkpt lat="47.23402" lon="6.75234">
        <ele>939</ele>
        <time>2018-07-01T08:53:43.000Z</time>
      </trkpt>
      <trkpt lat="47.234" lon="6.75234">
        <ele>939</ele>
        <time>2018-07-01T08:53:44.000Z</time>
      </trkpt>
      <trkpt lat="47.23397" lon="6.75235">
        <ele>939</ele>
        <time>2018-07-01T08:53:45.000Z</time>
      </trkpt>
      <trkpt lat="47.23394" lon="6.75236">
        <ele>939</ele>
        <time>2018-07-01T08:53:46.000Z</time>
      </trkpt>
      <trkpt lat="47.23391" lon="6.75238">
        <ele>939</ele>
        <time>2018-07-01T08:53:47.000Z</time>
      </trkpt>
      <trkpt lat="47.23388" lon="6.7524">
        <ele>939</ele>
        <time>2018-07-01T08:53:48.000Z</time>
      </trkpt>
      <trkpt lat="47.23385" lon="6.75242">
        <ele>939</ele>
        <time>2018-07-01T08:53:49.000Z</time>
      </trkpt>
      <trkpt lat="47.23382" lon="6.75245">
        <ele>939</ele>
        <time>2018-07-01T08:53:50.000Z</time>
      </trkpt>
      <trkpt lat="47.23379" lon="6.75248">
        <ele>939</ele>
        <time>2018-07-01T08:53:51.000Z</time>
      </trkpt>
      <trkpt lat="47.23376" lon="6.75251">
        <ele>938</ele>
        <time>2018-07-01T08:53:52.000Z</time>
      </trkpt>
      <trkpt lat="47.23374" lon="6.75255">
        <ele>938</ele>
        <time>2018-07-01T08:53:53.000Z</time>
      </trkpt>
      <trkpt lat="47.23371" lon="6.75258">
        <ele>938</ele>
        <time>2018-07-01T08:53:54.000Z</time>
      </trkpt>
      <trkpt lat="47.23368" lon="6.75262">
        <ele>938</ele>
        <time>2018-07-01T08:53:55.000Z</time>
      </trkpt>
      <trkpt lat="47.23365" lon="6.75266">
        <ele>938</ele>
        <time>2018-07-01T08:53:56.000Z</time>
      </trkpt>
      <trkpt lat="47.23363" lon="6.75269">
        <ele>938</ele>
        <time>2018-07-01T08:53:57.000Z</time>
      </trkpt>
      <trkpt lat="47.2336" lon="6.75273">
        <ele>938</ele>
        <time>2018-07-01T08:53:58.000Z</time>
      </trkpt>
      <trkpt lat="47.23357" lon="6.75276">
        <ele>938</ele>
        <time>2018-07-01T08:53:59.000Z</time>
      </trkpt>
      <trkpt lat="47.23353" lon="6.75279">
        <ele>938</ele>
        <time>2018-07-01T08:54:00.000Z</time>
      </trkpt>
      <trkpt lat="47.2335" lon="6.75282">
        <ele>938</ele>
        <time>2018-07-01T08:54:01.000Z</time>
      </trkpt>
      <trkpt lat="47.23347" lon="6.75285">
        <ele>938</ele>
        <time>2018-07-01T08:54:02.000Z</time>
      </trkpt>
      <trkpt lat="47.23345" lon="6.75287">
        <ele>938</ele>
        <time>2018-07-01T08:54:03.000Z</time>
      </trkpt>
      <trkpt lat="47.23342" lon="6.7529">
        <ele>938</ele>
        <time>2018-07-01T08:54:04.000Z</time>
      </trkpt>
      <trkpt lat="47.2334" lon="6.75292">
        <ele>938</ele>
        <time>2018-07-01T08:54:05.000Z</time>
      </trkpt>
      <trkpt lat="47.23337" lon="6.75295">
        <ele>938</ele>
        <time>2018-07-01T08:54:06.000Z</time>
      </trkpt>
      <trkpt lat="47.23335" lon="6.75297">
        <ele>938</ele>
        <time>2018-07-01T08:54:07.000Z</time>
      </trkpt>
      <trkpt lat="47.23333" lon="6.75299">
        <ele>937</ele>
        <time>2018-07-01T08:54:08.000Z</time>
      </trkpt>
      <trkpt lat="47.2333" lon="6.75301">
        <ele>937</ele>
        <time>2018-07-01T08:54:09.000Z</time>
      </trkpt>
      <trkpt lat="47.23328" lon="6.75303">
        <ele>937</ele>
        <time>2018-07-01T08:54:10.000Z</time>
      </trkpt>
      <trkpt lat="47.23325" lon="6.75305">
        <ele>937</ele>
        <time>2018-07-01T08:54:11.000Z</time>
      </trkpt>
      <trkpt lat="47.23323" lon="6.75307">
        <ele>937</ele>
        <time>2018-07-01T08:54:12.000Z</time>
      </trkpt>
      <trkpt lat="47.23321" lon="6.75309">
        <ele>937</ele>
        <time>2018-07-01T08:54:13.000Z</time>
      </trkpt>
      <trkpt lat="47.23319" lon="6.75311">
        <ele>937</ele>
        <time>2018-07-01T08:54:14.000Z</time>
      </trkpt>
      <trkpt lat="47.23316" lon="6.75312">
        <ele>937</ele>
        <time>2018-07-01T08:54:15.000Z</time>
      </trkpt>
      <trkpt lat="47.23314" lon="6.75314">
        <ele>937</ele>
        <time>2018-07-01T08:54:16.000Z</time>
      </trkpt>
      <trkpt lat="47.23312" lon="6.75316">
        <ele>937</ele>
        <time>2018-07-01T08:54:17.000Z</time>
      </trkpt>
      <trkpt lat="47.2331" lon="6.75317">
        <ele>937</ele>
        <time>2018-07-01T08:54:18.000Z</time>
      </trkpt>
      <trkpt lat="47.23307" lon="6.75319">
        <ele>937</ele>
        <time>2018-07-01T08:54:19.000Z</time>
      </trkpt>
      <trkpt lat="47.23305" lon="6.75321">
        <ele>937</ele>
        <time>2018-07-01T08:54:20.000Z</time>
      </trkpt>
      <trkpt lat="47.23303" lon="6.75323">
        <ele>937</ele>
        <time>2018-07-01T08:54:21.000Z</time>
      </trkpt>
      <trkpt lat="47.233" lon="6.75325">
        <ele>937</ele>
        <time>2018-07-01T08:54:22.000Z</time>
      </trkpt>
      <trkpt lat="47.23298" lon="6.75326">
        <ele>937</ele>
        <time>2018-07-01T08:54:23.000Z</time>
      </trkpt>
      <trkpt lat="47.23296" lon="6.75328">
        <ele>937</ele>
        <time>2018-07-01T08:54:24.000Z</time>
      </trkpt>
      <trkpt lat="47.23293" lon="6.7533">
        <ele>937</ele>
        <time>2018-07-01T08:54:25.000Z</time>
      </trkpt>
      <trkpt lat="47.23291" lon="6.75332">
        <ele>937</ele>
        <time>2018-07-01T08:54:26.000Z</time>
      </trkpt>
      <trkpt lat="47.23289" lon="6.75334">
        <ele>939</ele>
        <time>2018-07-01T08:54:27.000Z</time>
      </trkpt>
      <trkpt lat="47.23287" lon="6.75335">
        <ele>939</ele>
        <time>2018-07-01T08:54:28.000Z</time>
      </trkpt>
      <trkpt lat="47.23284" lon="6.75336">
        <ele>939</ele>
        <time>2018-07-01T08:54:29.000Z</time>
      </trkpt>
      <trkpt lat="47.23282" lon="6.75338">
        <ele>939</ele>
        <time>2018-07-01T08:54:30.000Z</time>
      </trkpt>
      <trkpt lat="47.2328" lon="6.75339">
        <ele>939</ele>
        <time>2018-07-01T08:54:31.000Z</time>
      </trkpt>
      <trkpt lat="47.23278" lon="6.7534">
        <ele>939</ele>
        <time>2018-07-01T08:54:32.000Z</time>
      </trkpt>
      <trkpt lat="47.23276" lon="6.75342">
        <ele>939</ele>
        <time>2018-07-01T08:54:33.000Z</time>
      </trkpt>
      <trkpt lat="47.23273" lon="6.75343">
        <ele>939</ele>
        <time>2018-07-01T08:54:34.000Z</time>
      </trkpt>
      <trkpt lat="47.23271" lon="6.75345">
        <ele>939</ele>
        <time>2018-07-01T08:54:35.000Z</time>
      </trkpt>
      <trkpt lat="47.23268" lon="6.75347">
        <ele>939</ele>
        <time>2018-07-01T08:54:36.000Z</time>
      </trkpt>
      <trkpt lat="47.23265" lon="6.75348">
        <ele>938</ele>
        <time>2018-07-01T08:54:37.000Z</time>
      </trkpt>
      <trkpt lat="47.23262" lon="6.7535">
        <ele>938</ele>
        <time>2018-07-01T08:54:38.000Z</time>
      </trkpt>
      <trkpt lat="47.23259" lon="6.75351">
        <ele>938</ele>
        <time>2018-07-01T08:54:39.000Z</time>
      </trkpt>
      <trkpt lat="47.23256" lon="6.75353">
        <ele>938</ele>
        <time>2018-07-01T08:54:40.000Z</time>
      </trkpt>
      <trkpt lat="47.23252" lon="6.75354">
        <ele>939</ele>
        <time>2018-07-01T08:54:41.000Z</time>
      </trkpt>
      <trkpt lat="47.23249" lon="6.75356">
        <ele>937</ele>
        <time>2018-07-01T08:54:42.000Z</time>
      </trkpt>
      <trkpt lat="47.23246" lon="6.75358">
        <ele>937</ele>
        <time>2018-07-01T08:54:43.000Z</time>
      </trkpt>
      <trkpt lat="47.23243" lon="6.75359">
        <ele>937</ele>
        <time>2018-07-01T08:54:44.000Z</time>
      </trkpt>
      <trkpt lat="47.23239" lon="6.75361">
        <ele>937</ele>
        <time>2018-07-01T08:54:45.000Z</time>
      </trkpt>
      <trkpt lat="47.23236" lon="6.75363">
        <ele>937</ele>
        <time>2018-07-01T08:54:46.000Z</time>
      </trkpt>
      <trkpt lat="47.23233" lon="6.75366">
        <ele>938</ele>
        <time>2018-07-01T08:54:47.000Z</time>
      </trkpt>
      <trkpt lat="47.2323" lon="6.75368">
        <ele>938</ele>
        <time>2018-07-01T08:54:48.000Z</time>
      </trkpt>
      <trkpt lat="47.23227" lon="6.75371">
        <ele>938</ele>
        <time>2018-07-01T08:54:49.000Z</time>
      </trkpt>
      <trkpt lat="47.23223" lon="6.75373">
        <ele>938</ele>
        <time>2018-07-01T08:54:50.000Z</time>
      </trkpt>
      <trkpt lat="47.23221" lon="6.75375">
        <ele>938</ele>
        <time>2018-07-01T08:54:51.000Z</time>
      </trkpt>
      <trkpt lat="47.23218" lon="6.75378">
        <ele>938</ele>
        <time>2018-07-01T08:54:52.000Z</time>
      </trkpt>
      <trkpt lat="47.23216" lon="6.7538">
        <ele>938</ele>
        <time>2018-07-01T08:54:53.000Z</time>
      </trkpt>
      <trkpt lat="47.23214" lon="6.75382">
        <ele>938</ele>
        <time>2018-07-01T08:54:54.000Z</time>
      </trkpt>
      <trkpt lat="47.23212" lon="6.75384">
        <ele>938</ele>
        <time>2018-07-01T08:54:55.000Z</time>
      </trkpt>
      <trkpt lat="47.2321" lon="6.75386">
        <ele>938</ele>
        <time>2018-07-01T08:54:56.000Z</time>
      </trkpt>
      <trkpt lat="47.23208" lon="6.75388">
        <ele>938</ele>
        <time>2018-07-01T08:54:57.000Z</time>
      </trkpt>
      <trkpt lat="47.23206" lon="6.7539">
        <ele>938</ele>
        <time>2018-07-01T08:54:58.000Z</time>
      </trkpt>
      <trkpt lat="47.23205" lon="6.75393">
        <ele>938</ele>
        <time>2018-07-01T08:54:59.000Z</time>
      </trkpt>
      <trkpt lat="47.23204" lon="6.75395">
        <ele>938</ele>
        <time>2018-07-01T08:55:00.000Z</time>
      </trkpt>
      <trkpt lat="47.23204" lon="6.75396">
        <ele>938</ele>
        <time>2018-07-01T08:55:01.000Z</time>
      </trkpt>
      <trkpt lat="47.23203" lon="6.75398">
        <ele>938</ele>
        <time>2018-07-01T08:55:02.000Z</time>
      </trkpt>
      <trkpt lat="47.23203" lon="6.754">
        <ele>938</ele>
        <time>2018-07-01T08:55:03.000Z</time>
      </trkpt>
      <trkpt lat="47.23203" lon="6.75403">
        <ele>938</ele>
        <time>2018-07-01T08:55:04.000Z</time>
      </trkpt>
      <trkpt lat="47.23203" lon="6.75405">
        <ele>938</ele>
        <time>2018-07-01T08:55:05.000Z</time>
      </trkpt>
      <trkpt lat="47.23203" lon="6.75407">
        <ele>939</ele>
        <time>2018-07-01T08:55:06.000Z</time>
      </trkpt>
      <trkpt lat="47.23203" lon="6.7541">
        <ele>939</ele>
        <time>2018-07-01T08:55:07.000Z</time>
      </trkpt>
      <trkpt lat="47.23203" lon="6.75412">
        <ele>939</ele>
        <time>2018-07-01T08:55:08.000Z</time>
      </trkpt>
      <trkpt lat="47.23203" lon="6.75414">
        <ele>939</ele>
        <time>2018-07-01T08:55:09.000Z</time>
      </trkpt>
      <trkpt lat="47.23204" lon="6.75417">
        <ele>939</ele>
        <time>2018-07-01T08:55:10.000Z</time>
      </trkpt>
      <trkpt lat="47.23205" lon="6.75419">
        <ele>943</ele>
        <time>2018-07-01T08:55:11.000Z</time>
      </trkpt>
      <trkpt lat="47.23206" lon="6.75421">
        <ele>943</ele>
        <time>2018-07-01T08:55:12.000Z</time>
      </trkpt>
      <trkpt lat="47.23206" lon="6.75423">
        <ele>943</ele>
        <time>2018-07-01T08:55:13.000Z</time>
      </trkpt>
      <trkpt lat="47.23207" lon="6.75425">
        <ele>944</ele>
        <time>2018-07-01T08:55:14.000Z</time>
      </trkpt>
      <trkpt lat="47.23208" lon="6.75428">
        <ele>944</ele>
        <time>2018-07-01T08:55:15.000Z</time>
      </trkpt>
      <trkpt lat="47.23208" lon="6.7543">
        <ele>944</ele>
        <time>2018-07-01T08:55:16.000Z</time>
      </trkpt>
      <trkpt lat="47.23209" lon="6.75432">
        <ele>944</ele>
        <time>2018-07-01T08:55:17.000Z</time>
      </trkpt>
      <trkpt lat="47.2321" lon="6.75435">
        <ele>944</ele>
        <time>2018-07-01T08:55:18.000Z</time>
      </trkpt>
      <trkpt lat="47.2321" lon="6.75437">
        <ele>944</ele>
        <time>2018-07-01T08:55:19.000Z</time>
      </trkpt>
      <trkpt lat="47.2321" lon="6.75439">
        <ele>944</ele>
        <time>2018-07-01T08:55:20.000Z</time>
      </trkpt>
      <trkpt lat="47.23211" lon="6.75442">
        <ele>944</ele>
        <time>2018-07-01T08:55:21.000Z</time>
      </trkpt>
      <trkpt lat="47.23212" lon="6.75443">
        <ele>944</ele>
        <time>2018-07-01T08:55:22.000Z</time>
      </trkpt>
      <trkpt lat="47.23212" lon="6.75445">
        <ele>944</ele>
        <time>2018-07-01T08:55:23.000Z</time>
      </trkpt>
      <trkpt lat="47.23213" lon="6.75447">
        <ele>944</ele>
        <time>2018-07-01T08:55:24.000Z</time>
      </trkpt>
      <trkpt lat="47.23214" lon="6.75449">
        <ele>944</ele>
        <time>2018-07-01T08:55:25.000Z</time>
      </trkpt>
      <trkpt lat="47.23215" lon="6.7545">
        <ele>945</ele>
        <time>2018-07-01T08:55:26.000Z</time>
      </trkpt>
      <trkpt lat="47.23216" lon="6.75452">
        <ele>945</ele>
        <time>2018-07-01T08:55:27.000Z</time>
      </trkpt>
      <trkpt lat="47.23217" lon="6.75453">
        <ele>945</ele>
        <time>2018-07-01T08:55:28.000Z</time>
      </trkpt>
      <trkpt lat="47.23218" lon="6.75454">
        <ele>945</ele>
        <time>2018-07-01T08:55:29.000Z</time>
      </trkpt>
      <trkpt lat="47.23218" lon="6.75456">
        <ele>945</ele>
        <time>2018-07-01T08:55:30.000Z</time>
      </trkpt>
      <trkpt lat="47.23219" lon="6.75458">
        <ele>945</ele>
        <time>2018-07-01T08:55:31.000Z</time>
      </trkpt>
      <trkpt lat="47.2322" lon="6.7546">
        <ele>945</ele>
        <time>2018-07-01T08:55:32.000Z</time>
      </trkpt>
      <trkpt lat="47.23221" lon="6.75462">
        <ele>945</ele>
        <time>2018-07-01T08:55:33.000Z</time>
      </trkpt>
      <trkpt lat="47.23221" lon="6.75464">
        <ele>945</ele>
        <time>2018-07-01T08:55:34.000Z</time>
      </trkpt>
      <trkpt lat="47.23222" lon="6.75465">
        <ele>945</ele>
        <time>2018-07-01T08:55:35.000Z</time>
      </trkpt>
      <trkpt lat="47.23223" lon="6.75467">
        <ele>946</ele>
        <time>2018-07-01T08:55:36.000Z</time>
      </trkpt>
      <trkpt lat="47.23224" lon="6.75469">
        <ele>946</ele>
        <time>2018-07-01T08:55:37.000Z</time>
      </trkpt>
      <trkpt lat="47.23224" lon="6.75471">
        <ele>946</ele>
        <time>2018-07-01T08:55:38.000Z</time>
      </trkpt>
      <trkpt lat="47.23225" lon="6.75473">
        <ele>946</ele>
        <time>2018-07-01T08:55:39.000Z</time>
      </trkpt>
      <trkpt lat="47.23225" lon="6.75476">
        <ele>946</ele>
        <time>2018-07-01T08:55:40.000Z</time>
      </trkpt>
      <trkpt lat="47.23225" lon="6.75479">
        <ele>946</ele>
        <time>2018-07-01T08:55:41.000Z</time>
      </trkpt>
      <trkpt lat="47.23226" lon="6.75482">
        <ele>947</ele>
        <time>2018-07-01T08:55:42.000Z</time>
      </trkpt>
      <trkpt lat="47.23226" lon="6.75485">
        <ele>947</ele>
        <time>2018-07-01T08:55:43.000Z</time>
      </trkpt>
      <trkpt lat="47.23226" lon="6.75487">
        <ele>947</ele>
        <time>2018-07-01T08:55:44.000Z</time>
      </trkpt>
      <trkpt lat="47.23227" lon="6.7549">
        <ele>947</ele>
        <time>2018-07-01T08:55:45.000Z</time>
      </trkpt>
      <trkpt lat="47.23227" lon="6.75493">
        <ele>947</ele>
        <time>2018-07-01T08:55:46.000Z</time>
      </trkpt>
      <trkpt lat="47.23228" lon="6.75496">
        <ele>947</ele>
        <time>2018-07-01T08:55:47.000Z</time>
      </trkpt>
      <trkpt lat="47.23229" lon="6.75499">
        <ele>948</ele>
        <time>2018-07-01T08:55:48.000Z</time>
      </trkpt>
      <trkpt lat="47.2323" lon="6.75501">
        <ele>949</ele>
        <time>2018-07-01T08:55:49.000Z</time>
      </trkpt>
      <trkpt lat="47.23232" lon="6.75504">
        <ele>950</ele>
        <time>2018-07-01T08:55:50.000Z</time>
      </trkpt>
      <trkpt lat="47.23233" lon="6.75506">
        <ele>950</ele>
        <time>2018-07-01T08:55:51.000Z</time>
      </trkpt>
      <trkpt lat="47.23235" lon="6.75509">
        <ele>950</ele>
        <time>2018-07-01T08:55:52.000Z</time>
      </trkpt>
      <trkpt lat="47.23238" lon="6.75512">
        <ele>950</ele>
        <time>2018-07-01T08:55:53.000Z</time>
      </trkpt>
      <trkpt lat="47.23239" lon="6.75514">
        <ele>950</ele>
        <time>2018-07-01T08:55:54.000Z</time>
      </trkpt>
      <trkpt lat="47.23242" lon="6.75517">
        <ele>950</ele>
        <time>2018-07-01T08:55:55.000Z</time>
      </trkpt>
      <trkpt lat="47.23244" lon="6.7552">
        <ele>950</ele>
        <time>2018-07-01T08:55:56.000Z</time>
      </trkpt>
      <trkpt lat="47.23246" lon="6.75522">
        <ele>950</ele>
        <time>2018-07-01T08:55:57.000Z</time>
      </trkpt>
      <trkpt lat="47.23248" lon="6.75525">
        <ele>950</ele>
        <time>2018-07-01T08:55:58.000Z</time>
      </trkpt>
      <trkpt lat="47.2325" lon="6.75527">
        <ele>951</ele>
        <time>2018-07-01T08:55:59.000Z</time>
      </trkpt>
      <trkpt lat="47.23252" lon="6.75529">
        <ele>951</ele>
        <time>2018-07-01T08:56:00.000Z</time>
      </trkpt>
      <trkpt lat="47.23254" lon="6.75532">
        <ele>951</ele>
        <time>2018-07-01T08:56:01.000Z</time>
      </trkpt>
      <trkpt lat="47.23256" lon="6.75534">
        <ele>951</ele>
        <time>2018-07-01T08:56:02.000Z</time>
      </trkpt>
      <trkpt lat="47.23258" lon="6.75537">
        <ele>951</ele>
        <time>2018-07-01T08:56:03.000Z</time>
      </trkpt>
      <trkpt lat="47.2326" lon="6.7554">
        <ele>951</ele>
        <time>2018-07-01T08:56:04.000Z</time>
      </trkpt>
      <trkpt lat="47.23262" lon="6.75543">
        <ele>951</ele>
        <time>2018-07-01T08:56:05.000Z</time>
      </trkpt>
      <trkpt lat="47.23264" lon="6.75546">
        <ele>951</ele>
        <time>2018-07-01T08:56:06.000Z</time>
      </trkpt>
      <trkpt lat="47.23266" lon="6.75549">
        <ele>951</ele>
        <time>2018-07-01T08:56:07.000Z</time>
      </trkpt>
      <trkpt lat="47.23268" lon="6.75552">
        <ele>951</ele>
        <time>2018-07-01T08:56:08.000Z</time>
      </trkpt>
      <trkpt lat="47.2327" lon="6.75554">
        <ele>951</ele>
        <time>2018-07-01T08:56:09.000Z</time>
      </trkpt>
      <trkpt lat="47.23272" lon="6.75556">
        <ele>951</ele>
        <time>2018-07-01T08:56:10.000Z</time>
      </trkpt>
      <trkpt lat="47.23273" lon="6.75558">
        <ele>951</ele>
        <time>2018-07-01T08:56:11.000Z</time>
      </trkpt>
      <trkpt lat="47.23275" lon="6.7556">
        <ele>951</ele>
        <time>2018-07-01T08:56:12.000Z</time>
      </trkpt>
      <trkpt lat="47.23277" lon="6.75562">
        <ele>951</ele>
        <time>2018-07-01T08:56:13.000Z</time>
      </trkpt>
      <trkpt lat="47.23278" lon="6.75564">
        <ele>951</ele>
        <time>2018-07-01T08:56:14.000Z</time>
      </trkpt>
      <trkpt lat="47.2328" lon="6.75566">
        <ele>951</ele>
        <time>2018-07-01T08:56:15.000Z</time>
      </trkpt>
      <trkpt lat="47.23282" lon="6.75568">
        <ele>951</ele>
        <time>2018-07-01T08:56:16.000Z</time>
      </trkpt>
      <trkpt lat="47.23283" lon="6.7557">
        <ele>951</ele>
        <time>2018-07-01T08:56:17.000Z</time>
      </trkpt>
      <trkpt lat="47.23284" lon="6.75572">
        <ele>951</ele>
        <time>2018-07-01T08:56:18.000Z</time>
      </trkpt>
      <trkpt lat="47.23286" lon="6.75574">
        <ele>951</ele>
        <time>2018-07-01T08:56:19.000Z</time>
      </trkpt>
      <trkpt lat="47.23288" lon="6.75577">
        <ele>951</ele>
        <time>2018-07-01T08:56:20.000Z</time>
      </trkpt>
      <trkpt lat="47.23289" lon="6.75579">
        <ele>951</ele>
        <time>2018-07-01T08:56:21.000Z</time>
      </trkpt>
      <trkpt lat="47.23291" lon="6.75582">
        <ele>951</ele>
        <time>2018-07-01T08:56:22.000Z</time>
      </trkpt>
      <trkpt lat="47.23292" lon="6.75584">
        <ele>953</ele>
        <time>2018-07-01T08:56:23.000Z</time>
      </trkpt>
      <trkpt lat="47.23293" lon="6.75587">
        <ele>953</ele>
        <time>2018-07-01T08:56:24.000Z</time>
      </trkpt>
      <trkpt lat="47.23294" lon="6.7559">
        <ele>953</ele>
        <time>2018-07-01T08:56:25.000Z</time>
      </trkpt>
      <trkpt lat="47.23296" lon="6.75594">
        <ele>953</ele>
        <time>2018-07-01T08:56:26.000Z</time>
      </trkpt>
      <trkpt lat="47.23297" lon="6.75597">
        <ele>953</ele>
        <time>2018-07-01T08:56:27.000Z</time>
      </trkpt>
      <trkpt lat="47.23298" lon="6.75601">
        <ele>953</ele>
        <time>2018-07-01T08:56:28.000Z</time>
      </trkpt>
      <trkpt lat="47.23299" lon="6.75604">
        <ele>953</ele>
        <time>2018-07-01T08:56:29.000Z</time>
      </trkpt>
      <trkpt lat="47.233" lon="6.75607">
        <ele>953</ele>
        <time>2018-07-01T08:56:30.000Z</time>
      </trkpt>
      <trkpt lat="47.233" lon="6.75611">
        <ele>953</ele>
        <time>2018-07-01T08:56:31.000Z</time>
      </trkpt>
      <trkpt lat="47.23301" lon="6.75614">
        <ele>953</ele>
        <time>2018-07-01T08:56:32.000Z</time>
      </trkpt>
      <trkpt lat="47.23302" lon="6.75617">
        <ele>953</ele>
        <time>2018-07-01T08:56:33.000Z</time>
      </trkpt>
      <trkpt lat="47.23303" lon="6.75621">
        <ele>953</ele>
        <time>2018-07-01T08:56:34.000Z</time>
      </trkpt>
      <trkpt lat="47.23304" lon="6.75624">
        <ele>953</ele>
        <time>2018-07-01T08:56:35.000Z</time>
      </trkpt>
      <trkpt lat="47.23305" lon="6.75627">
        <ele>953</ele>
        <time>2018-07-01T08:56:36.000Z</time>
      </trkpt>
      <trkpt lat="47.23305" lon="6.7563">
        <ele>953</ele>
        <time>2018-07-01T08:56:37.000Z</time>
      </trkpt>
      <trkpt lat="47.23306" lon="6.75634">
        <ele>953</ele>
        <time>2018-07-01T08:56:38.000Z</time>
      </trkpt>
      <trkpt lat="47.23307" lon="6.75637">
        <ele>953</ele>
        <time>2018-07-01T08:56:39.000Z</time>
      </trkpt>
      <trkpt lat="47.23308" lon="6.75641">
        <ele>953</ele>
        <time>2018-07-01T08:56:40.000Z</time>
      </trkpt>
      <trkpt lat="47.23309" lon="6.75645">
        <ele>953</ele>
        <time>2018-07-01T08:56:41.000Z</time>
      </trkpt>
      <trkpt lat="47.23309" lon="6.75649">
        <ele>953</ele>
        <time>2018-07-01T08:56:42.000Z</time>
      </trkpt>
      <trkpt lat="47.2331" lon="6.75653">
        <ele>953</ele>
        <time>2018-07-01T08:56:43.000Z</time>
      </trkpt>
      <trkpt lat="47.2331" lon="6.75658">
        <ele>953</ele>
        <time>2018-07-01T08:56:44.000Z</time>
      </trkpt>
      <trkpt lat="47.23311" lon="6.75662">
        <ele>953</ele>
        <time>2018-07-01T08:56:45.000Z</time>
      </trkpt>
      <trkpt lat="47.23311" lon="6.75667">
        <ele>953</ele>
        <time>2018-07-01T08:56:46.000Z</time>
      </trkpt>
      <trkpt lat="47.23311" lon="6.75671">
        <ele>955</ele>
        <time>2018-07-01T08:56:47.000Z</time>
      </trkpt>
      <trkpt lat="47.23312" lon="6.75676">
        <ele>955</ele>
        <time>2018-07-01T08:56:48.000Z</time>
      </trkpt>
      <trkpt lat="47.23312" lon="6.7568">
        <ele>955</ele>
        <time>2018-07-01T08:56:49.000Z</time>
      </trkpt>
      <trkpt lat="47.23313" lon="6.75685">
        <ele>955</ele>
        <time>2018-07-01T08:56:50.000Z</time>
      </trkpt>
      <trkpt lat="47.23313" lon="6.75689">
        <ele>956</ele>
        <time>2018-07-01T08:56:51.000Z</time>
      </trkpt>
      <trkpt lat="47.23314" lon="6.75693">
        <ele>956</ele>
        <time>2018-07-01T08:56:52.000Z</time>
      </trkpt>
      <trkpt lat="47.23315" lon="6.75698">
        <ele>956</ele>
        <time>2018-07-01T08:56:53.000Z</time>
      </trkpt>
      <trkpt lat="47.23315" lon="6.75701">
        <ele>956</ele>
        <time>2018-07-01T08:56:54.000Z</time>
      </trkpt>
      <trkpt lat="47.23315" lon="6.75705">
        <ele>956</ele>
        <time>2018-07-01T08:56:55.000Z</time>
      </trkpt>
      <trkpt lat="47.23314" lon="6.75708">
        <ele>956</ele>
        <time>2018-07-01T08:56:56.000Z</time>
      </trkpt>
      <trkpt lat="47.23312" lon="6.7571">
        <ele>956</ele>
        <time>2018-07-01T08:56:57.000Z</time>
      </trkpt>
      <trkpt lat="47.23311" lon="6.75712">
        <ele>956</ele>
        <time>2018-07-01T08:56:58.000Z</time>
      </trkpt>
      <trkpt lat="47.23309" lon="6.75715">
        <ele>956</ele>
        <time>2018-07-01T08:56:59.000Z</time>
      </trkpt>
      <trkpt lat="47.23308" lon="6.75717">
        <ele>957</ele>
        <time>2018-07-01T08:57:00.000Z</time>
      </trkpt>
      <trkpt lat="47.23307" lon="6.75719">
        <ele>957</ele>
        <time>2018-07-01T08:57:01.000Z</time>
      </trkpt>
      <trkpt lat="47.23307" lon="6.75721">
        <ele>957</ele>
        <time>2018-07-01T08:57:02.000Z</time>
      </trkpt>
      <trkpt lat="47.23306" lon="6.75724">
        <ele>957</ele>
        <time>2018-07-01T08:57:03.000Z</time>
      </trkpt>
      <trkpt lat="47.23306" lon="6.75728">
        <ele>957</ele>
        <time>2018-07-01T08:57:04.000Z</time>
      </trkpt>
      <trkpt lat="47.23307" lon="6.75732">
        <ele>957</ele>
        <time>2018-07-01T08:57:05.000Z</time>
      </trkpt>
      <trkpt lat="47.23307" lon="6.75735">
        <ele>957</ele>
        <time>2018-07-01T08:57:06.000Z</time>
      </trkpt>
      <trkpt lat="47.23308" lon="6.75739">
        <ele>957</ele>
        <time>2018-07-01T08:57:07.000Z</time>
      </trkpt>
      <trkpt lat="47.23308" lon="6.75743">
        <ele>957</ele>
        <time>2018-07-01T08:57:08.000Z</time>
      </trkpt>
      <trkpt lat="47.23308" lon="6.75746">
        <ele>957</ele>
        <time>2018-07-01T08:57:09.000Z</time>
      </trkpt>
      <trkpt lat="47.23309" lon="6.7575">
        <ele>958</ele>
        <time>2018-07-01T08:57:10.000Z</time>
      </trkpt>
      <trkpt lat="47.2331" lon="6.75754">
        <ele>958</ele>
        <time>2018-07-01T08:57:11.000Z</time>
      </trkpt>
      <trkpt lat="47.2331" lon="6.75758">
        <ele>958</ele>
        <time>2018-07-01T08:57:12.000Z</time>
      </trkpt>
      <trkpt lat="47.23311" lon="6.75761">
        <ele>958</ele>
        <time>2018-07-01T08:57:13.000Z</time>
      </trkpt>
      <trkpt lat="47.23311" lon="6.75765">
        <ele>958</ele>
        <time>2018-07-01T08:57:14.000Z</time>
      </trkpt>
      <trkpt lat="47.23312" lon="6.7577">
        <ele>959</ele>
        <time>2018-07-01T08:57:15.000Z</time>
      </trkpt>
      <trkpt lat="47.23312" lon="6.75773">
        <ele>959</ele>
        <time>2018-07-01T08:57:16.000Z</time>
      </trkpt>
      <trkpt lat="47.23312" lon="6.75777">
        <ele>959</ele>
        <time>2018-07-01T08:57:17.000Z</time>
      </trkpt>
      <trkpt lat="47.23312" lon="6.75781">
        <ele>959</ele>
        <time>2018-07-01T08:57:18.000Z</time>
      </trkpt>
      <trkpt lat="47.23312" lon="6.75785">
        <ele>959</ele>
        <time>2018-07-01T08:57:19.000Z</time>
      </trkpt>
      <trkpt lat="47.23312" lon="6.7579">
        <ele>959</ele>
        <time>2018-07-01T08:57:20.000Z</time>
      </trkpt>
      <trkpt lat="47.23312" lon="6.75794">
        <ele>959</ele>
        <time>2018-07-01T08:57:21.000Z</time>
      </trkpt>
      <trkpt lat="47.23313" lon="6.75798">
        <ele>959</ele>
        <time>2018-07-01T08:57:22.000Z</time>
      </trkpt>
      <trkpt lat="47.23312" lon="6.75803">
        <ele>959</ele>
        <time>2018-07-01T08:57:23.000Z</time>
      </trkpt>
      <trkpt lat="47.23312" lon="6.75807">
        <ele>959</ele>
        <time>2018-07-01T08:57:24.000Z</time>
      </trkpt>
      <trkpt lat="47.23312" lon="6.75811">
        <ele>959</ele>
        <time>2018-07-01T08:57:25.000Z</time>
      </trkpt>
      <trkpt lat="47.23313" lon="6.75815">
        <ele>959</ele>
        <time>2018-07-01T08:57:26.000Z</time>
      </trkpt>
      <trkpt lat="47.23313" lon="6.75819">
        <ele>959</ele>
        <time>2018-07-01T08:57:27.000Z</time>
      </trkpt>
      <trkpt lat="47.23313" lon="6.75823">
        <ele>959</ele>
        <time>2018-07-01T08:57:28.000Z</time>
      </trkpt>
      <trkpt lat="47.23313" lon="6.75827">
        <ele>959</ele>
        <time>2018-07-01T08:57:29.000Z</time>
      </trkpt>
      <trkpt lat="47.23314" lon="6.75831">
        <ele>959</ele>
        <time>2018-07-01T08:57:30.000Z</time>
      </trkpt>
      <trkpt lat="47.23315" lon="6.75835">
        <ele>960</ele>
        <time>2018-07-01T08:57:31.000Z</time>
      </trkpt>
      <trkpt lat="47.23316" lon="6.7584">
        <ele>960</ele>
        <time>2018-07-01T08:57:32.000Z</time>
      </trkpt>
      <trkpt lat="47.23317" lon="6.75844">
        <ele>960</ele>
        <time>2018-07-01T08:57:33.000Z</time>
      </trkpt>
      <trkpt lat="47.23318" lon="6.75849">
        <ele>960</ele>
        <time>2018-07-01T08:57:34.000Z</time>
      </trkpt>
      <trkpt lat="47.23319" lon="6.75853">
        <ele>960</ele>
        <time>2018-07-01T08:57:35.000Z</time>
      </trkpt>
      <trkpt lat="47.2332" lon="6.75857">
        <ele>960</ele>
        <time>2018-07-01T08:57:36.000Z</time>
      </trkpt>
      <trkpt lat="47.23321" lon="6.75861">
        <ele>960</ele>
        <time>2018-07-01T08:57:37.000Z</time>
      </trkpt>
      <trkpt lat="47.23322" lon="6.75865">
        <ele>960</ele>
        <time>2018-07-01T08:57:38.000Z</time>
      </trkpt>
      <trkpt lat="47.23322" lon="6.75869">
        <ele>961</ele>
        <time>2018-07-01T08:57:39.000Z</time>
      </trkpt>
      <trkpt lat="47.23323" lon="6.75873">
        <ele>961</ele>
        <time>2018-07-01T08:57:40.000Z</time>
      </trkpt>
      <trkpt lat="47.23323" lon="6.75877">
        <ele>961</ele>
        <time>2018-07-01T08:57:41.000Z</time>
      </trkpt>
      <trkpt lat="47.23323" lon="6.75881">
        <ele>961</ele>
        <time>2018-07-01T08:57:42.000Z</time>
      </trkpt>
      <trkpt lat="47.23323" lon="6.75885">
        <ele>961</ele>
        <time>2018-07-01T08:57:43.000Z</time>
      </trkpt>
      <trkpt lat="47.23323" lon="6.75889">
        <ele>961</ele>
        <time>2018-07-01T08:57:44.000Z</time>
      </trkpt>
      <trkpt lat="47.23323" lon="6.75893">
        <ele>961</ele>
        <time>2018-07-01T08:57:45.000Z</time>
      </trkpt>
      <trkpt lat="47.23323" lon="6.75896">
        <ele>961</ele>
        <time>2018-07-01T08:57:46.000Z</time>
      </trkpt>
      <trkpt lat="47.23323" lon="6.75899">
        <ele>961</ele>
        <time>2018-07-01T08:57:47.000Z</time>
      </trkpt>
      <trkpt lat="47.23322" lon="6.75902">
        <ele>962</ele>
        <time>2018-07-01T08:57:48.000Z</time>
      </trkpt>
      <trkpt lat="47.23322" lon="6.75905">
        <ele>962</ele>
        <time>2018-07-01T08:57:49.000Z</time>
      </trkpt>
      <trkpt lat="47.23321" lon="6.75908">
        <ele>962</ele>
        <time>2018-07-01T08:57:50.000Z</time>
      </trkpt>
      <trkpt lat="47.23321" lon="6.7591">
        <ele>962</ele>
        <time>2018-07-01T08:57:51.000Z</time>
      </trkpt>
      <trkpt lat="47.2332" lon="6.75912">
        <ele>962</ele>
        <time>2018-07-01T08:57:52.000Z</time>
      </trkpt>
      <trkpt lat="47.2332" lon="6.75915">
        <ele>962</ele>
        <time>2018-07-01T08:57:53.000Z</time>
      </trkpt>
      <trkpt lat="47.2332" lon="6.75917">
        <ele>963</ele>
        <time>2018-07-01T08:57:54.000Z</time>
      </trkpt>
      <trkpt lat="47.23319" lon="6.7592">
        <ele>963</ele>
        <time>2018-07-01T08:57:55.000Z</time>
      </trkpt>
      <trkpt lat="47.2332" lon="6.75922">
        <ele>963</ele>
        <time>2018-07-01T08:57:56.000Z</time>
      </trkpt>
      <trkpt lat="47.2332" lon="6.75925">
        <ele>963</ele>
        <time>2018-07-01T08:57:57.000Z</time>
      </trkpt>
      <trkpt lat="47.2332" lon="6.75927">
        <ele>963</ele>
        <time>2018-07-01T08:57:58.000Z</time>
      </trkpt>
      <trkpt lat="47.2332" lon="6.7593">
        <ele>963</ele>
        <time>2018-07-01T08:57:59.000Z</time>
      </trkpt>
      <trkpt lat="47.2332" lon="6.75932">
        <ele>963</ele>
        <time>2018-07-01T08:58:00.000Z</time>
      </trkpt>
      <trkpt lat="47.2332" lon="6.75935">
        <ele>963</ele>
        <time>2018-07-01T08:58:01.000Z</time>
      </trkpt>
      <trkpt lat="47.2332" lon="6.75938">
        <ele>963</ele>
        <time>2018-07-01T08:58:02.000Z</time>
      </trkpt>
      <trkpt lat="47.2332" lon="6.7594">
        <ele>963</ele>
        <time>2018-07-01T08:58:03.000Z</time>
      </trkpt>
      <trkpt lat="47.2332" lon="6.75943">
        <ele>963</ele>
        <time>2018-07-01T08:58:04.000Z</time>
      </trkpt>
      <trkpt lat="47.2332" lon="6.75946">
        <ele>963</ele>
        <time>2018-07-01T08:58:05.000Z</time>
      </trkpt>
      <trkpt lat="47.2332" lon="6.7595">
        <ele>963</ele>
        <time>2018-07-01T08:58:06.000Z</time>
      </trkpt>
      <trkpt lat="47.2332" lon="6.75953">
        <ele>963</ele>
        <time>2018-07-01T08:58:07.000Z</time>
      </trkpt>
      <trkpt lat="47.2332" lon="6.75956">
        <ele>963</ele>
        <time>2018-07-01T08:58:08.000Z</time>
      </trkpt>
      <trkpt lat="47.2332" lon="6.75959">
        <ele>963</ele>
        <time>2018-07-01T08:58:09.000Z</time>
      </trkpt>
      <trkpt lat="47.2332" lon="6.75963">
        <ele>963</ele>
        <time>2018-07-01T08:58:10.000Z</time>
      </trkpt>
      <trkpt lat="47.2332" lon="6.75966">
        <ele>963</ele>
        <time>2018-07-01T08:58:11.000Z</time>
      </trkpt>
      <trkpt lat="47.2332" lon="6.75969">
        <ele>963</ele>
        <time>2018-07-01T08:58:12.000Z</time>
      </trkpt>
      <trkpt lat="47.2332" lon="6.75972">
        <ele>964</ele>
        <time>2018-07-01T08:58:13.000Z</time>
      </trkpt>
      <trkpt lat="47.2332" lon="6.75975">
        <ele>964</ele>
        <time>2018-07-01T08:58:14.000Z</time>
      </trkpt>
      <trkpt lat="47.2332" lon="6.75978">
        <ele>964</ele>
        <time>2018-07-01T08:58:15.000Z</time>
      </trkpt>
      <trkpt lat="47.2332" lon="6.75982">
        <ele>964</ele>
        <time>2018-07-01T08:58:16.000Z</time>
      </trkpt>
      <trkpt lat="47.2332" lon="6.75985">
        <ele>964</ele>
        <time>2018-07-01T08:58:17.000Z</time>
      </trkpt>
      <trkpt lat="47.2332" lon="6.75989">
        <ele>965</ele>
        <time>2018-07-01T08:58:18.000Z</time>
      </trkpt>
      <trkpt lat="47.2332" lon="6.75993">
        <ele>965</ele>
        <time>2018-07-01T08:58:19.000Z</time>
      </trkpt>
      <trkpt lat="47.2332" lon="6.75997">
        <ele>965</ele>
        <time>2018-07-01T08:58:20.000Z</time>
      </trkpt>
      <trkpt lat="47.23319" lon="6.76001">
        <ele>965</ele>
        <time>2018-07-01T08:58:21.000Z</time>
      </trkpt>
      <trkpt lat="47.23319" lon="6.76005">
        <ele>965</ele>
        <time>2018-07-01T08:58:22.000Z</time>
      </trkpt>
      <trkpt lat="47.23319" lon="6.76009">
        <ele>965</ele>
        <time>2018-07-01T08:58:23.000Z</time>
      </trkpt>
      <trkpt lat="47.23318" lon="6.76013">
        <ele>965</ele>
        <time>2018-07-01T08:58:24.000Z</time>
      </trkpt>
      <trkpt lat="47.23318" lon="6.76017">
        <ele>965</ele>
        <time>2018-07-01T08:58:25.000Z</time>
      </trkpt>
      <trkpt lat="47.23317" lon="6.76021">
        <ele>964</ele>
        <time>2018-07-01T08:58:26.000Z</time>
      </trkpt>
      <trkpt lat="47.23317" lon="6.76025">
        <ele>964</ele>
        <time>2018-07-01T08:58:27.000Z</time>
      </trkpt>
      <trkpt lat="47.23317" lon="6.76029">
        <ele>964</ele>
        <time>2018-07-01T08:58:28.000Z</time>
      </trkpt>
      <trkpt lat="47.23316" lon="6.76033">
        <ele>964</ele>
        <time>2018-07-01T08:58:29.000Z</time>
      </trkpt>
      <trkpt lat="47.23316" lon="6.76037">
        <ele>964</ele>
        <time>2018-07-01T08:58:30.000Z</time>
      </trkpt>
      <trkpt lat="47.23315" lon="6.76041">
        <ele>964</ele>
        <time>2018-07-01T08:58:31.000Z</time>
      </trkpt>
      <trkpt lat="47.23314" lon="6.76045">
        <ele>964</ele>
        <time>2018-07-01T08:58:32.000Z</time>
      </trkpt>
      <trkpt lat="47.23313" lon="6.76049">
        <ele>964</ele>
        <time>2018-07-01T08:58:33.000Z</time>
      </trkpt>
      <trkpt lat="47.23313" lon="6.76053">
        <ele>964</ele>
        <time>2018-07-01T08:58:34.000Z</time>
      </trkpt>
      <trkpt lat="47.23312" lon="6.76057">
        <ele>964</ele>
        <time>2018-07-01T08:58:35.000Z</time>
      </trkpt>
      <trkpt lat="47.23312" lon="6.7606">
        <ele>964</ele>
        <time>2018-07-01T08:58:36.000Z</time>
      </trkpt>
      <trkpt lat="47.23311" lon="6.76064">
        <ele>964</ele>
        <time>2018-07-01T08:58:37.000Z</time>
      </trkpt>
      <trkpt lat="47.2331" lon="6.76068">
        <ele>964</ele>
        <time>2018-07-01T08:58:38.000Z</time>
      </trkpt>
      <trkpt lat="47.2331" lon="6.76072">
        <ele>964</ele>
        <time>2018-07-01T08:58:39.000Z</time>
      </trkpt>
      <trkpt lat="47.2331" lon="6.76076">
        <ele>964</ele>
        <time>2018-07-01T08:58:40.000Z</time>
      </trkpt>
      <trkpt lat="47.2331" lon="6.7608">
        <ele>964</ele>
        <time>2018-07-01T08:58:41.000Z</time>
      </trkpt>
      <trkpt lat="47.2331" lon="6.76083">
        <ele>964</ele>
        <time>2018-07-01T08:58:42.000Z</time>
      </trkpt>
      <trkpt lat="47.2331" lon="6.76087">
        <ele>964</ele>
        <time>2018-07-01T08:58:43.000Z</time>
      </trkpt>
      <trkpt lat="47.2331" lon="6.7609">
        <ele>964</ele>
        <time>2018-07-01T08:58:44.000Z</time>
      </trkpt>
      <trkpt lat="47.2331" lon="6.76094">
        <ele>964</ele>
        <time>2018-07-01T08:58:45.000Z</time>
      </trkpt>
      <trkpt lat="47.2331" lon="6.76097">
        <ele>964</ele>
        <time>2018-07-01T08:58:46.000Z</time>
      </trkpt>
      <trkpt lat="47.2331" lon="6.761">
        <ele>964</ele>
        <time>2018-07-01T08:58:47.000Z</time>
      </trkpt>
      <trkpt lat="47.2331" lon="6.76104">
        <ele>964</ele>
        <time>2018-07-01T08:58:48.000Z</time>
      </trkpt>
      <trkpt lat="47.2331" lon="6.76107">
        <ele>964</ele>
        <time>2018-07-01T08:58:49.000Z</time>
      </trkpt>
      <trkpt lat="47.23311" lon="6.7611">
        <ele>964</ele>
        <time>2018-07-01T08:58:50.000Z</time>
      </trkpt>
      <trkpt lat="47.23311" lon="6.76113">
        <ele>964</ele>
        <time>2018-07-01T08:58:51.000Z</time>
      </trkpt>
      <trkpt lat="47.23311" lon="6.76116">
        <ele>964</ele>
        <time>2018-07-01T08:58:52.000Z</time>
      </trkpt>
      <trkpt lat="47.23311" lon="6.76119">
        <ele>964</ele>
        <time>2018-07-01T08:58:53.000Z</time>
      </trkpt>
      <trkpt lat="47.23312" lon="6.76122">
        <ele>964</ele>
        <time>2018-07-01T08:58:54.000Z</time>
      </trkpt>
      <trkpt lat="47.23313" lon="6.76125">
        <ele>964</ele>
        <time>2018-07-01T08:58:55.000Z</time>
      </trkpt>
      <trkpt lat="47.23313" lon="6.76128">
        <ele>964</ele>
        <time>2018-07-01T08:58:56.000Z</time>
      </trkpt>
      <trkpt lat="47.23313" lon="6.76132">
        <ele>964</ele>
        <time>2018-07-01T08:58:57.000Z</time>
      </trkpt>
      <trkpt lat="47.23314" lon="6.76136">
        <ele>964</ele>
        <time>2018-07-01T08:58:58.000Z</time>
      </trkpt>
      <trkpt lat="47.23314" lon="6.76139">
        <ele>964</ele>
        <time>2018-07-01T08:58:59.000Z</time>
      </trkpt>
      <trkpt lat="47.23314" lon="6.76143">
        <ele>964</ele>
        <time>2018-07-01T08:59:00.000Z</time>
      </trkpt>
      <trkpt lat="47.23314" lon="6.76147">
        <ele>964</ele>
        <time>2018-07-01T08:59:01.000Z</time>
      </trkpt>
      <trkpt lat="47.23314" lon="6.76151">
        <ele>964</ele>
        <time>2018-07-01T08:59:02.000Z</time>
      </trkpt>
      <trkpt lat="47.23315" lon="6.76155">
        <ele>964</ele>
        <time>2018-07-01T08:59:03.000Z</time>
      </trkpt>
      <trkpt lat="47.23315" lon="6.76158">
        <ele>964</ele>
        <time>2018-07-01T08:59:04.000Z</time>
      </trkpt>
      <trkpt lat="47.23316" lon="6.76162">
        <ele>964</ele>
        <time>2018-07-01T08:59:05.000Z</time>
      </trkpt>
      <trkpt lat="47.23316" lon="6.76166">
        <ele>964</ele>
        <time>2018-07-01T08:59:06.000Z</time>
      </trkpt>
      <trkpt lat="47.23317" lon="6.76169">
        <ele>964</ele>
        <time>2018-07-01T08:59:07.000Z</time>
      </trkpt>
      <trkpt lat="47.23318" lon="6.76173">
        <ele>964</ele>
        <time>2018-07-01T08:59:08.000Z</time>
      </trkpt>
      <trkpt lat="47.23318" lon="6.76176">
        <ele>964</ele>
        <time>2018-07-01T08:59:09.000Z</time>
      </trkpt>
      <trkpt lat="47.23319" lon="6.7618">
        <ele>964</ele>
        <time>2018-07-01T08:59:10.000Z</time>
      </trkpt>
      <trkpt lat="47.2332" lon="6.76184">
        <ele>964</ele>
        <time>2018-07-01T08:59:11.000Z</time>
      </trkpt>
      <trkpt lat="47.23321" lon="6.76187">
        <ele>964</ele>
        <time>2018-07-01T08:59:12.000Z</time>
      </trkpt>
      <trkpt lat="47.23321" lon="6.76191">
        <ele>964</ele>
        <time>2018-07-01T08:59:13.000Z</time>
      </trkpt>
      <trkpt lat="47.23322" lon="6.76194">
        <ele>964</ele>
        <time>2018-07-01T08:59:14.000Z</time>
      </trkpt>
      <trkpt lat="47.23323" lon="6.76197">
        <ele>964</ele>
        <time>2018-07-01T08:59:15.000Z</time>
      </trkpt>
      <trkpt lat="47.23324" lon="6.76201">
        <ele>964</ele>
        <time>2018-07-01T08:59:16.000Z</time>
      </trkpt>
      <trkpt lat="47.23325" lon="6.76204">
        <ele>964</ele>
        <time>2018-07-01T08:59:17.000Z</time>
      </trkpt>
      <trkpt lat="47.23326" lon="6.76208">
        <ele>964</ele>
        <time>2018-07-01T08:59:18.000Z</time>
      </trkpt>
      <trkpt lat="47.23327" lon="6.76212">
        <ele>964</ele>
        <time>2018-07-01T08:59:19.000Z</time>
      </trkpt>
      <trkpt lat="47.23328" lon="6.76216">
        <ele>965</ele>
        <time>2018-07-01T08:59:20.000Z</time>
      </trkpt>
      <trkpt lat="47.23329" lon="6.76219">
        <ele>965</ele>
        <time>2018-07-01T08:59:21.000Z</time>
      </trkpt>
      <trkpt lat="47.2333" lon="6.76223">
        <ele>965</ele>
        <time>2018-07-01T08:59:22.000Z</time>
      </trkpt>
      <trkpt lat="47.23332" lon="6.76227">
        <ele>965</ele>
        <time>2018-07-01T08:59:23.000Z</time>
      </trkpt>
      <trkpt lat="47.23333" lon="6.76231">
        <ele>966</ele>
        <time>2018-07-01T08:59:24.000Z</time>
      </trkpt>
      <trkpt lat="47.23334" lon="6.76234">
        <ele>960</ele>
        <time>2018-07-01T08:59:25.000Z</time>
      </trkpt>
      <trkpt lat="47.23334" lon="6.76238">
        <ele>961</ele>
        <time>2018-07-01T08:59:26.000Z</time>
      </trkpt>
      <trkpt lat="47.23335" lon="6.76241">
        <ele>963</ele>
        <time>2018-07-01T08:59:27.000Z</time>
      </trkpt>
      <trkpt lat="47.23336" lon="6.76245">
        <ele>965</ele>
        <time>2018-07-01T08:59:28.000Z</time>
      </trkpt>
      <trkpt lat="47.23337" lon="6.76249">
        <ele>966</ele>
        <time>2018-07-01T08:59:29.000Z</time>
      </trkpt>
      <trkpt lat="47.23338" lon="6.76253">
        <ele>965</ele>
        <time>2018-07-01T08:59:30.000Z</time>
      </trkpt>
      <trkpt lat="47.23339" lon="6.76257">
        <ele>963</ele>
        <time>2018-07-01T08:59:31.000Z</time>
      </trkpt>
      <trkpt lat="47.2334" lon="6.76262">
        <ele>961</ele>
        <time>2018-07-01T08:59:32.000Z</time>
      </trkpt>
      <trkpt lat="47.23341" lon="6.76266">
        <ele>960</ele>
        <time>2018-07-01T08:59:33.000Z</time>
      </trkpt>
      <trkpt lat="47.23343" lon="6.76271">
        <ele>958</ele>
        <time>2018-07-01T08:59:34.000Z</time>
      </trkpt>
      <trkpt lat="47.23344" lon="6.76275">
        <ele>958</ele>
        <time>2018-07-01T08:59:35.000Z</time>
      </trkpt>
      <trkpt lat="47.23345" lon="6.76279">
        <ele>957</ele>
        <time>2018-07-01T08:59:36.000Z</time>
      </trkpt>
      <trkpt lat="47.23345" lon="6.76283">
        <ele>956</ele>
        <time>2018-07-01T08:59:37.000Z</time>
      </trkpt>
      <trkpt lat="47.23346" lon="6.76287">
        <ele>956</ele>
        <time>2018-07-01T08:59:38.000Z</time>
      </trkpt>
      <trkpt lat="47.23348" lon="6.76292">
        <ele>956</ele>
        <time>2018-07-01T08:59:39.000Z</time>
      </trkpt>
      <trkpt lat="47.23349" lon="6.76296">
        <ele>955</ele>
        <time>2018-07-01T08:59:40.000Z</time>
      </trkpt>
      <trkpt lat="47.23349" lon="6.763">
        <ele>955</ele>
        <time>2018-07-01T08:59:41.000Z</time>
      </trkpt>
      <trkpt lat="47.2335" lon="6.76305">
        <ele>955</ele>
        <time>2018-07-01T08:59:42.000Z</time>
      </trkpt>
      <trkpt lat="47.23351" lon="6.76309">
        <ele>956</ele>
        <time>2018-07-01T08:59:43.000Z</time>
      </trkpt>
      <trkpt lat="47.23351" lon="6.76314">
        <ele>956</ele>
        <time>2018-07-01T08:59:44.000Z</time>
      </trkpt>
      <trkpt lat="47.23352" lon="6.76319">
        <ele>956</ele>
        <time>2018-07-01T08:59:45.000Z</time>
      </trkpt>
      <trkpt lat="47.23352" lon="6.76324">
        <ele>957</ele>
        <time>2018-07-01T08:59:46.000Z</time>
      </trkpt>
      <trkpt lat="47.23353" lon="6.76329">
        <ele>957</ele>
        <time>2018-07-01T08:59:47.000Z</time>
      </trkpt>
      <trkpt lat="47.23353" lon="6.76334">
        <ele>956</ele>
        <time>2018-07-01T08:59:48.000Z</time>
      </trkpt>
      <trkpt lat="47.23354" lon="6.76338">
        <ele>956</ele>
        <time>2018-07-01T08:59:49.000Z</time>
      </trkpt>
      <trkpt lat="47.23355" lon="6.76343">
        <ele>955</ele>
        <time>2018-07-01T08:59:50.000Z</time>
      </trkpt>
      <trkpt lat="47.23355" lon="6.76348">
        <ele>954</ele>
        <time>2018-07-01T08:59:51.000Z</time>
      </trkpt>
      <trkpt lat="47.23355" lon="6.76353">
        <ele>954</ele>
        <time>2018-07-01T08:59:52.000Z</time>
      </trkpt>
      <trkpt lat="47.23356" lon="6.76358">
        <ele>953</ele>
        <time>2018-07-01T08:59:53.000Z</time>
      </trkpt>
      <trkpt lat="47.23356" lon="6.76363">
        <ele>953</ele>
        <time>2018-07-01T08:59:54.000Z</time>
      </trkpt>
      <trkpt lat="47.23356" lon="6.76368">
        <ele>952</ele>
        <time>2018-07-01T08:59:55.000Z</time>
      </trkpt>
      <trkpt lat="47.23357" lon="6.76372">
        <ele>952</ele>
        <time>2018-07-01T08:59:56.000Z</time>
      </trkpt>
      <trkpt lat="47.23357" lon="6.76377">
        <ele>951</ele>
        <time>2018-07-01T08:59:57.000Z</time>
      </trkpt>
      <trkpt lat="47.23358" lon="6.76382">
        <ele>951</ele>
        <time>2018-07-01T08:59:58.000Z</time>
      </trkpt>
      <trkpt lat="47.23358" lon="6.76387">
        <ele>951</ele>
        <time>2018-07-01T08:59:59.000Z</time>
      </trkpt>
      <trkpt lat="47.23359" lon="6.76392">
        <ele>951</ele>
        <time>2018-07-01T09:00:00.000Z</time>
      </trkpt>
      <trkpt lat="47.23359" lon="6.76397">
        <ele>951</ele>
        <time>2018-07-01T09:00:01.000Z</time>
      </trkpt>
      <trkpt lat="47.23359" lon="6.76402">
        <ele>951</ele>
        <time>2018-07-01T09:00:02.000Z</time>
      </trkpt>
      <trkpt lat="47.23358" lon="6.76405">
        <ele>951</ele>
        <time>2018-07-01T09:00:03.000Z</time>
      </trkpt>
      <trkpt lat="47.23357" lon="6.76408">
        <ele>951</ele>
        <time>2018-07-01T09:00:04.000Z</time>
      </trkpt>
      <trkpt lat="47.23355" lon="6.7641">
        <ele>952</ele>
        <time>2018-07-01T09:00:05.000Z</time>
      </trkpt>
      <trkpt lat="47.23354" lon="6.76411">
        <ele>952</ele>
        <time>2018-07-01T09:00:06.000Z</time>
      </trkpt>
      <trkpt lat="47.23351" lon="6.76411">
        <ele>952</ele>
        <time>2018-07-01T09:00:07.000Z</time>
      </trkpt>
      <trkpt lat="47.23349" lon="6.76411">
        <ele>953</ele>
        <time>2018-07-01T09:00:08.000Z</time>
      </trkpt>
      <trkpt lat="47.23345" lon="6.76411">
        <ele>953</ele>
        <time>2018-07-01T09:00:09.000Z</time>
      </trkpt>
      <trkpt lat="47.23342" lon="6.7641">
        <ele>954</ele>
        <time>2018-07-01T09:00:10.000Z</time>
      </trkpt>
      <trkpt lat="47.23338" lon="6.76409">
        <ele>954</ele>
        <time>2018-07-01T09:00:11.000Z</time>
      </trkpt>
      <trkpt lat="47.23334" lon="6.76408">
        <ele>954</ele>
        <time>2018-07-01T09:00:12.000Z</time>
      </trkpt>
      <trkpt lat="47.23331" lon="6.76406">
        <ele>954</ele>
        <time>2018-07-01T09:00:13.000Z</time>
      </trkpt>
      <trkpt lat="47.23327" lon="6.76405">
        <ele>953</ele>
        <time>2018-07-01T09:00:14.000Z</time>
      </trkpt>
      <trkpt lat="47.23323" lon="6.76403">
        <ele>953</ele>
        <time>2018-07-01T09:00:15.000Z</time>
      </trkpt>
      <trkpt lat="47.23319" lon="6.764">
        <ele>952</ele>
        <time>2018-07-01T09:00:16.000Z</time>
      </trkpt>
      <trkpt lat="47.23315" lon="6.76397">
        <ele>951</ele>
        <time>2018-07-01T09:00:17.000Z</time>
      </trkpt>
      <trkpt lat="47.23311" lon="6.76395">
        <ele>951</ele>
        <time>2018-07-01T09:00:18.000Z</time>
      </trkpt>
      <trkpt lat="47.23308" lon="6.76392">
        <ele>950</ele>
        <time>2018-07-01T09:00:19.000Z</time>
      </trkpt>
      <trkpt lat="47.23304" lon="6.76389">
        <ele>950</ele>
        <time>2018-07-01T09:00:20.000Z</time>
      </trkpt>
      <trkpt lat="47.233" lon="6.76387">
        <ele>950</ele>
        <time>2018-07-01T09:00:21.000Z</time>
      </trkpt>
      <trkpt lat="47.23297" lon="6.76385">
        <ele>949</ele>
        <time>2018-07-01T09:00:22.000Z</time>
      </trkpt>
      <trkpt lat="47.23293" lon="6.76382">
        <ele>949</ele>
        <time>2018-07-01T09:00:23.000Z</time>
      </trkpt>
      <trkpt lat="47.23289" lon="6.7638">
        <ele>948</ele>
        <time>2018-07-01T09:00:24.000Z</time>
      </trkpt>
      <trkpt lat="47.23286" lon="6.76377">
        <ele>948</ele>
        <time>2018-07-01T09:00:25.000Z</time>
      </trkpt>
      <trkpt lat="47.23283" lon="6.76374">
        <ele>948</ele>
        <time>2018-07-01T09:00:26.000Z</time>
      </trkpt>
      <trkpt lat="47.2328" lon="6.76371">
        <ele>948</ele>
        <time>2018-07-01T09:00:27.000Z</time>
      </trkpt>
      <trkpt lat="47.23277" lon="6.76368">
        <ele>947</ele>
        <time>2018-07-01T09:00:28.000Z</time>
      </trkpt>
      <trkpt lat="47.23274" lon="6.76365">
        <ele>947</ele>
        <time>2018-07-01T09:00:29.000Z</time>
      </trkpt>
      <trkpt lat="47.23271" lon="6.76362">
        <ele>947</ele>
        <time>2018-07-01T09:00:30.000Z</time>
      </trkpt>
      <trkpt lat="47.23268" lon="6.76359">
        <ele>947</ele>
        <time>2018-07-01T09:00:31.000Z</time>
      </trkpt>
      <trkpt lat="47.23265" lon="6.76355">
        <ele>946</ele>
        <time>2018-07-01T09:00:32.000Z</time>
      </trkpt>
      <trkpt lat="47.23262" lon="6.76352">
        <ele>946</ele>
        <time>2018-07-01T09:00:33.000Z</time>
      </trkpt>
      <trkpt lat="47.23259" lon="6.76348">
        <ele>945</ele>
        <time>2018-07-01T09:00:34.000Z</time>
      </trkpt>
      <trkpt lat="47.23256" lon="6.76345">
        <ele>945</ele>
        <time>2018-07-01T09:00:35.000Z</time>
      </trkpt>
      <trkpt lat="47.23253" lon="6.76341">
        <ele>944</ele>
        <time>2018-07-01T09:00:36.000Z</time>
      </trkpt>
      <trkpt lat="47.2325" lon="6.76338">
        <ele>941</ele>
        <time>2018-07-01T09:00:37.000Z</time>
      </trkpt>
      <trkpt lat="47.23247" lon="6.76336">
        <ele>941</ele>
        <time>2018-07-01T09:00:38.000Z</time>
      </trkpt>
      <trkpt lat="47.23244" lon="6.76334">
        <ele>940</ele>
        <time>2018-07-01T09:00:39.000Z</time>
      </trkpt>
      <trkpt lat="47.23241" lon="6.76334">
        <ele>940</ele>
        <time>2018-07-01T09:00:40.000Z</time>
      </trkpt>
      <trkpt lat="47.23238" lon="6.76335">
        <ele>939</ele>
        <time>2018-07-01T09:00:41.000Z</time>
      </trkpt>
      <trkpt lat="47.23235" lon="6.76337">
        <ele>938</ele>
        <time>2018-07-01T09:00:42.000Z</time>
      </trkpt>
      <trkpt lat="47.23232" lon="6.7634">
        <ele>938</ele>
        <time>2018-07-01T09:00:43.000Z</time>
      </trkpt>
      <trkpt lat="47.23228" lon="6.76343">
        <ele>937</ele>
        <time>2018-07-01T09:00:44.000Z</time>
      </trkpt>
      <trkpt lat="47.23225" lon="6.76347">
        <ele>937</ele>
        <time>2018-07-01T09:00:45.000Z</time>
      </trkpt>
      <trkpt lat="47.23223" lon="6.7635">
        <ele>936</ele>
        <time>2018-07-01T09:00:46.000Z</time>
      </trkpt>
      <trkpt lat="47.2322" lon="6.76353">
        <ele>936</ele>
        <time>2018-07-01T09:00:47.000Z</time>
      </trkpt>
      <trkpt lat="47.23217" lon="6.76355">
        <ele>936</ele>
        <time>2018-07-01T09:00:48.000Z</time>
      </trkpt>
      <trkpt lat="47.23214" lon="6.76357">
        <ele>935</ele>
        <time>2018-07-01T09:00:49.000Z</time>
      </trkpt>
      <trkpt lat="47.2321" lon="6.76357">
        <ele>935</ele>
        <time>2018-07-01T09:00:50.000Z</time>
      </trkpt>
      <trkpt lat="47.23207" lon="6.76357">
        <ele>935</ele>
        <time>2018-07-01T09:00:51.000Z</time>
      </trkpt>
      <trkpt lat="47.23203" lon="6.76356">
        <ele>935</ele>
        <time>2018-07-01T09:00:52.000Z</time>
      </trkpt>
      <trkpt lat="47.232" lon="6.76355">
        <ele>935</ele>
        <time>2018-07-01T09:00:53.000Z</time>
      </trkpt>
      <trkpt lat="47.23196" lon="6.76355">
        <ele>934</ele>
        <time>2018-07-01T09:00:54.000Z</time>
      </trkpt>
      <trkpt lat="47.23193" lon="6.76354">
        <ele>934</ele>
        <time>2018-07-01T09:00:55.000Z</time>
      </trkpt>
      <trkpt lat="47.2319" lon="6.76353">
        <ele>934</ele>
        <time>2018-07-01T09:00:56.000Z</time>
      </trkpt>
      <trkpt lat="47.23188" lon="6.76353">
        <ele>934</ele>
        <time>2018-07-01T09:00:57.000Z</time>
      </trkpt>
      <trkpt lat="47.23186" lon="6.76352">
        <ele>934</ele>
        <time>2018-07-01T09:00:58.000Z</time>
      </trkpt>
      <trkpt lat="47.23184" lon="6.76351">
        <ele>934</ele>
        <time>2018-07-01T09:00:59.000Z</time>
      </trkpt>
      <trkpt lat="47.23184" lon="6.76351">
        <ele>934</ele>
        <time>2018-07-01T09:01:00.000Z</time>
      </trkpt>
      <trkpt lat="47.23184" lon="6.7635">
        <ele>934</ele>
        <time>2018-07-01T09:01:01.000Z</time>
      </trkpt>
      <trkpt lat="47.23184" lon="6.7635">
        <ele>934</ele>
        <time>2018-07-01T09:01:02.000Z</time>
      </trkpt>
      <trkpt lat="47.23185" lon="6.7635">
        <ele>934</ele>
        <time>2018-07-01T09:01:03.000Z</time>
      </trkpt>
      <trkpt lat="47.23185" lon="6.7635">
        <ele>934</ele>
        <time>2018-07-01T09:01:04.000Z</time>
      </trkpt>
      <trkpt lat="47.23185" lon="6.7635">
        <ele>934</ele>
        <time>2018-07-01T09:01:05.000Z</time>
      </trkpt>
      <trkpt lat="47.23186" lon="6.76349">
        <ele>934</ele>
        <time>2018-07-01T09:01:06.000Z</time>
      </trkpt>
      <trkpt lat="47.23186" lon="6.76349">
        <ele>934</ele>
        <time>2018-07-01T09:01:07.000Z</time>
      </trkpt>
      <trkpt lat="47.23186" lon="6.76349">
        <ele>934</ele>
        <time>2018-07-01T09:01:08.000Z</time>
      </trkpt>
      <trkpt lat="47.23186" lon="6.76348">
        <ele>934</ele>
        <time>2018-07-01T09:01:09.000Z</time>
      </trkpt>
      <trkpt lat="47.23186" lon="6.76348">
        <ele>934</ele>
        <time>2018-07-01T09:01:10.000Z</time>
      </trkpt>
      <trkpt lat="47.23186" lon="6.76347">
        <ele>934</ele>
        <time>2018-07-01T09:01:11.000Z</time>
      </trkpt>
      <trkpt lat="47.23186" lon="6.76347">
        <ele>934</ele>
        <time>2018-07-01T09:01:12.000Z</time>
      </trkpt>
      <trkpt lat="47.23186" lon="6.76347">
        <ele>934</ele>
        <time>2018-07-01T09:01:13.000Z</time>
      </trkpt>
      <trkpt lat="47.23186" lon="6.76347">
        <ele>934</ele>
        <time>2018-07-01T09:01:14.000Z</time>
      </trkpt>
      <trkpt lat="47.23187" lon="6.76347">
        <ele>934</ele>
        <time>2018-07-01T09:01:15.000Z</time>
      </trkpt>
      <trkpt lat="47.23187" lon="6.76347">
        <ele>934</ele>
        <time>2018-07-01T09:01:16.000Z</time>
      </trkpt>
      <trkpt lat="47.23187" lon="6.76347">
        <ele>934</ele>
        <time>2018-07-01T09:01:17.000Z</time>
      </trkpt>
      <trkpt lat="47.23187" lon="6.76347">
        <ele>934</ele>
        <time>2018-07-01T09:01:18.000Z</time>
      </trkpt>
      <trkpt lat="47.23188" lon="6.76347">
        <ele>934</ele>
        <time>2018-07-01T09:01:19.000Z</time>
      </trkpt>
      <trkpt lat="47.23188" lon="6.76347">
        <ele>934</ele>
        <time>2018-07-01T09:01:20.000Z</time>
      </trkpt>
      <trkpt lat="47.23188" lon="6.76347">
        <ele>934</ele>
        <time>2018-07-01T09:01:21.000Z</time>
      </trkpt>
      <trkpt lat="47.23188" lon="6.76347">
        <ele>934</ele>
        <time>2018-07-01T09:01:22.000Z</time>
      </trkpt>
      <trkpt lat="47.23188" lon="6.76347">
        <ele>934</ele>
        <time>2018-07-01T09:01:23.000Z</time>
      </trkpt>
      <trkpt lat="47.23188" lon="6.76347">
        <ele>934</ele>
        <time>2018-07-01T09:01:24.000Z</time>
      </trkpt>
      <trkpt lat="47.23188" lon="6.76347">
        <ele>934</ele>
        <time>2018-07-01T09:01:25.000Z</time>
      </trkpt>
      <trkpt lat="47.23188" lon="6.76347">
        <ele>934</ele>
        <time>2018-07-01T09:01:26.000Z</time>
      </trkpt>
      <trkpt lat="47.23188" lon="6.76347">
        <ele>934</ele>
        <time>2018-07-01T09:01:27.000Z</time>
      </trkpt>
      <trkpt lat="47.23188" lon="6.76347">
        <ele>934</ele>
        <time>2018-07-01T09:01:28.000Z</time>
      </trkpt>
      <trkpt lat="47.23188" lon="6.76347">
        <ele>934</ele>
        <time>2018-07-01T09:01:29.000Z</time>
      </trkpt>
      <trkpt lat="47.23188" lon="6.76347">
        <ele>934</ele>
        <time>2018-07-01T09:01:30.000Z</time>
      </trkpt>
      <trkpt lat="47.23188" lon="6.76347">
        <ele>934</ele>
        <time>2018-07-01T09:01:31.000Z</time>
      </trkpt>
      <trkpt lat="47.23188" lon="6.76347">
        <ele>934</ele>
        <time>2018-07-01T09:01:32.000Z</time>
      </trkpt>
      <trkpt lat="47.23187" lon="6.76346">
        <ele>934</ele>
        <time>2018-07-01T09:01:33.000Z</time>
      </trkpt>
      <trkpt lat="47.23186" lon="6.76346">
        <ele>934</ele>
        <time>2018-07-01T09:01:34.000Z</time>
      </trkpt>
      <trkpt lat="47.23186" lon="6.76346">
        <ele>934</ele>
        <time>2018-07-01T09:01:35.000Z</time>
      </trkpt>
      <trkpt lat="47.23185" lon="6.76345">
        <ele>934</ele>
        <time>2018-07-01T09:01:36.000Z</time>
      </trkpt>
      <trkpt lat="47.23183" lon="6.76345">
        <ele>934</ele>
        <time>2018-07-01T09:01:37.000Z</time>
      </trkpt>
      <trkpt lat="47.23182" lon="6.76343">
        <ele>933</ele>
        <time>2018-07-01T09:01:38.000Z</time>
      </trkpt>
      <trkpt lat="47.23181" lon="6.76341">
        <ele>933</ele>
        <time>2018-07-01T09:01:39.000Z</time>
      </trkpt>
      <trkpt lat="47.23181" lon="6.76337">
        <ele>933</ele>
        <time>2018-07-01T09:01:40.000Z</time>
      </trkpt>
      <trkpt lat="47.23181" lon="6.76334">
        <ele>933</ele>
        <time>2018-07-01T09:01:41.000Z</time>
      </trkpt>
      <trkpt lat="47.23182" lon="6.76332">
        <ele>935</ele>
        <time>2018-07-01T09:01:42.000Z</time>
      </trkpt>
      <trkpt lat="47.23182" lon="6.76329">
        <ele>936</ele>
        <time>2018-07-01T09:01:43.000Z</time>
      </trkpt>
      <trkpt lat="47.23184" lon="6.76327">
        <ele>936</ele>
        <time>2018-07-01T09:01:44.000Z</time>
      </trkpt>
      <trkpt lat="47.23185" lon="6.76326">
        <ele>936</ele>
        <time>2018-07-01T09:01:45.000Z</time>
      </trkpt>
      <trkpt lat="47.23187" lon="6.76324">
        <ele>936</ele>
        <time>2018-07-01T09:01:46.000Z</time>
      </trkpt>
      <trkpt lat="47.23188" lon="6.76322">
        <ele>937</ele>
        <time>2018-07-01T09:01:47.000Z</time>
      </trkpt>
      <trkpt lat="47.2319" lon="6.76319">
        <ele>937</ele>
        <time>2018-07-01T09:01:48.000Z</time>
      </trkpt>
      <trkpt lat="47.23191" lon="6.76315">
        <ele>937</ele>
        <time>2018-07-01T09:01:49.000Z</time>
      </trkpt>
      <trkpt lat="47.23192" lon="6.7631">
        <ele>938</ele>
        <time>2018-07-01T09:01:50.000Z</time>
      </trkpt>
      <trkpt lat="47.23193" lon="6.76306">
        <ele>938</ele>
        <time>2018-07-01T09:01:51.000Z</time>
      </trkpt>
      <trkpt lat="47.23194" lon="6.76301">
        <ele>938</ele>
        <time>2018-07-01T09:01:52.000Z</time>
      </trkpt>
      <trkpt lat="47.23194" lon="6.76297">
        <ele>938</ele>
        <time>2018-07-01T09:01:53.000Z</time>
      </trkpt>
      <trkpt lat="47.23195" lon="6.76293">
        <ele>939</ele>
        <time>2018-07-01T09:01:54.000Z</time>
      </trkpt>
      <trkpt lat="47.23195" lon="6.76289">
        <ele>939</ele>
        <time>2018-07-01T09:01:55.000Z</time>
      </trkpt>
      <trkpt lat="47.23195" lon="6.76284">
        <ele>939</ele>
        <time>2018-07-01T09:01:56.000Z</time>
      </trkpt>
      <trkpt lat="47.23195" lon="6.7628">
        <ele>939</ele>
        <time>2018-07-01T09:01:57.000Z</time>
      </trkpt>
      <trkpt lat="47.23195" lon="6.76276">
        <ele>939</ele>
        <time>2018-07-01T09:01:58.000Z</time>
      </trkpt>
      <trkpt lat="47.23195" lon="6.76271">
        <ele>939</ele>
        <time>2018-07-01T09:01:59.000Z</time>
      </trkpt>
      <trkpt lat="47.23194" lon="6.76267">
        <ele>939</ele>
        <time>2018-07-01T09:02:00.000Z</time>
      </trkpt>
      <trkpt lat="47.23194" lon="6.76262">
        <ele>938</ele>
        <time>2018-07-01T09:02:01.000Z</time>
      </trkpt>
      <trkpt lat="47.23193" lon="6.76258">
        <ele>938</ele>
        <time>2018-07-01T09:02:02.000Z</time>
      </trkpt>
      <trkpt lat="47.23193" lon="6.76254">
        <ele>938</ele>
        <time>2018-07-01T09:02:03.000Z</time>
      </trkpt>
      <trkpt lat="47.23192" lon="6.7625">
        <ele>938</ele>
        <time>2018-07-01T09:02:04.000Z</time>
      </trkpt>
      <trkpt lat="47.23191" lon="6.76247">
        <ele>941</ele>
        <time>2018-07-01T09:02:05.000Z</time>
      </trkpt>
      <trkpt lat="47.2319" lon="6.76243">
        <ele>941</ele>
        <time>2018-07-01T09:02:06.000Z</time>
      </trkpt>
      <trkpt lat="47.23189" lon="6.76239">
        <ele>941</ele>
        <time>2018-07-01T09:02:07.000Z</time>
      </trkpt>
      <trkpt lat="47.23188" lon="6.76234">
        <ele>941</ele>
        <time>2018-07-01T09:02:08.000Z</time>
      </trkpt>
      <trkpt lat="47.23187" lon="6.7623">
        <ele>941</ele>
        <time>2018-07-01T09:02:09.000Z</time>
      </trkpt>
      <trkpt lat="47.23186" lon="6.76226">
        <ele>941</ele>
        <time>2018-07-01T09:02:10.000Z</time>
      </trkpt>
      <trkpt lat="47.23185" lon="6.76222">
        <ele>942</ele>
        <time>2018-07-01T09:02:11.000Z</time>
      </trkpt>
      <trkpt lat="47.23184" lon="6.76217">
        <ele>942</ele>
        <time>2018-07-01T09:02:12.000Z</time>
      </trkpt>
      <trkpt lat="47.23182" lon="6.76213">
        <ele>942</ele>
        <time>2018-07-01T09:02:13.000Z</time>
      </trkpt>
      <trkpt lat="47.23181" lon="6.76208">
        <ele>942</ele>
        <time>2018-07-01T09:02:14.000Z</time>
      </trkpt>
      <trkpt lat="47.23179" lon="6.76204">
        <ele>942</ele>
        <time>2018-07-01T09:02:15.000Z</time>
      </trkpt>
      <trkpt lat="47.23178" lon="6.762">
        <ele>942</ele>
        <time>2018-07-01T09:02:16.000Z</time>
      </trkpt>
      <trkpt lat="47.23177" lon="6.76195">
        <ele>941</ele>
        <time>2018-07-01T09:02:17.000Z</time>
      </trkpt>
      <trkpt lat="47.23175" lon="6.76191">
        <ele>941</ele>
        <time>2018-07-01T09:02:18.000Z</time>
      </trkpt>
      <trkpt lat="47.23174" lon="6.76187">
        <ele>940</ele>
        <time>2018-07-01T09:02:19.000Z</time>
      </trkpt>
      <trkpt lat="47.23173" lon="6.76182">
        <ele>939</ele>
        <time>2018-07-01T09:02:20.000Z</time>
      </trkpt>
      <trkpt lat="47.23172" lon="6.76177">
        <ele>938</ele>
        <time>2018-07-01T09:02:21.000Z</time>
      </trkpt>
      <trkpt lat="47.2317" lon="6.76172">
        <ele>937</ele>
        <time>2018-07-01T09:02:22.000Z</time>
      </trkpt>
      <trkpt lat="47.23169" lon="6.76167">
        <ele>935</ele>
        <time>2018-07-01T09:02:23.000Z</time>
      </trkpt>
      <trkpt lat="47.23168" lon="6.76162">
        <ele>937</ele>
        <time>2018-07-01T09:02:24.000Z</time>
      </trkpt>
      <trkpt lat="47.23166" lon="6.76158">
        <ele>933</ele>
        <time>2018-07-01T09:02:25.000Z</time>
      </trkpt>
      <trkpt lat="47.23165" lon="6.76153">
        <ele>932</ele>
        <time>2018-07-01T09:02:26.000Z</time>
      </trkpt>
      <trkpt lat="47.23164" lon="6.76149">
        <ele>932</ele>
        <time>2018-07-01T09:02:27.000Z</time>
      </trkpt>
      <trkpt lat="47.23163" lon="6.76146">
        <ele>932</ele>
        <time>2018-07-01T09:02:28.000Z</time>
      </trkpt>
      <trkpt lat="47.23162" lon="6.76141">
        <ele>931</ele>
        <time>2018-07-01T09:02:29.000Z</time>
      </trkpt>
      <trkpt lat="47.23161" lon="6.76137">
        <ele>931</ele>
        <time>2018-07-01T09:02:30.000Z</time>
      </trkpt>
      <trkpt lat="47.23161" lon="6.76133">
        <ele>931</ele>
        <time>2018-07-01T09:02:31.000Z</time>
      </trkpt>
      <trkpt lat="47.23161" lon="6.76129">
        <ele>931</ele>
        <time>2018-07-01T09:02:32.000Z</time>
      </trkpt>
      <trkpt lat="47.23161" lon="6.76124">
        <ele>931</ele>
        <time>2018-07-01T09:02:33.000Z</time>
      </trkpt>
      <trkpt lat="47.23161" lon="6.7612">
        <ele>931</ele>
        <time>2018-07-01T09:02:34.000Z</time>
      </trkpt>
      <trkpt lat="47.23161" lon="6.76116">
        <ele>931</ele>
        <time>2018-07-01T09:02:35.000Z</time>
      </trkpt>
      <trkpt lat="47.23161" lon="6.76111">
        <ele>932</ele>
        <time>2018-07-01T09:02:36.000Z</time>
      </trkpt>
      <trkpt lat="47.23161" lon="6.76106">
        <ele>932</ele>
        <time>2018-07-01T09:02:37.000Z</time>
      </trkpt>
      <trkpt lat="47.23161" lon="6.76101">
        <ele>932</ele>
        <time>2018-07-01T09:02:38.000Z</time>
      </trkpt>
      <trkpt lat="47.23161" lon="6.76096">
        <ele>933</ele>
        <time>2018-07-01T09:02:39.000Z</time>
      </trkpt>
      <trkpt lat="47.23162" lon="6.76091">
        <ele>934</ele>
        <time>2018-07-01T09:02:40.000Z</time>
      </trkpt>
      <trkpt lat="47.23162" lon="6.76086">
        <ele>935</ele>
        <time>2018-07-01T09:02:41.000Z</time>
      </trkpt>
      <trkpt lat="47.23162" lon="6.76081">
        <ele>934</ele>
        <time>2018-07-01T09:02:42.000Z</time>
      </trkpt>
      <trkpt lat="47.23162" lon="6.76077">
        <ele>933</ele>
        <time>2018-07-01T09:02:43.000Z</time>
      </trkpt>
      <trkpt lat="47.23162" lon="6.76072">
        <ele>932</ele>
        <time>2018-07-01T09:02:44.000Z</time>
      </trkpt>
      <trkpt lat="47.23162" lon="6.76068">
        <ele>931</ele>
        <time>2018-07-01T09:02:45.000Z</time>
      </trkpt>
      <trkpt lat="47.23162" lon="6.76064">
        <ele>931</ele>
        <time>2018-07-01T09:02:46.000Z</time>
      </trkpt>
      <trkpt lat="47.23162" lon="6.76061">
        <ele>930</ele>
        <time>2018-07-01T09:02:47.000Z</time>
      </trkpt>
      <trkpt lat="47.23163" lon="6.76057">
        <ele>930</ele>
        <time>2018-07-01T09:02:48.000Z</time>
      </trkpt>
      <trkpt lat="47.23163" lon="6.76053">
        <ele>929</ele>
        <time>2018-07-01T09:02:49.000Z</time>
      </trkpt>
      <trkpt lat="47.23164" lon="6.76049">
        <ele>929</ele>
        <time>2018-07-01T09:02:50.000Z</time>
      </trkpt>
      <trkpt lat="47.23164" lon="6.76046">
        <ele>929</ele>
        <time>2018-07-01T09:02:51.000Z</time>
      </trkpt>
      <trkpt lat="47.23165" lon="6.76042">
        <ele>929</ele>
        <time>2018-07-01T09:02:52.000Z</time>
      </trkpt>
      <trkpt lat="47.23165" lon="6.76038">
        <ele>929</ele>
        <time>2018-07-01T09:02:53.000Z</time>
      </trkpt>
      <trkpt lat="47.23166" lon="6.76033">
        <ele>929</ele>
        <time>2018-07-01T09:02:54.000Z</time>
      </trkpt>
      <trkpt lat="47.23167" lon="6.76029">
        <ele>942</ele>
        <time>2018-07-01T09:02:55.000Z</time>
      </trkpt>
      <trkpt lat="47.23167" lon="6.76025">
        <ele>941</ele>
        <time>2018-07-01T09:02:56.000Z</time>
      </trkpt>
      <trkpt lat="47.23168" lon="6.76021">
        <ele>941</ele>
        <time>2018-07-01T09:02:57.000Z</time>
      </trkpt>
      <trkpt lat="47.23168" lon="6.76017">
        <ele>940</ele>
        <time>2018-07-01T09:02:58.000Z</time>
      </trkpt>
      <trkpt lat="47.23168" lon="6.76013">
        <ele>939</ele>
        <time>2018-07-01T09:02:59.000Z</time>
      </trkpt>
      <trkpt lat="47.23169" lon="6.76009">
        <ele>938</ele>
        <time>2018-07-01T09:03:00.000Z</time>
      </trkpt>
      <trkpt lat="47.23169" lon="6.76005">
        <ele>936</ele>
        <time>2018-07-01T09:03:01.000Z</time>
      </trkpt>
      <trkpt lat="47.23169" lon="6.76001">
        <ele>935</ele>
        <time>2018-07-01T09:03:02.000Z</time>
      </trkpt>
      <trkpt lat="47.23169" lon="6.75997">
        <ele>935</ele>
        <time>2018-07-01T09:03:03.000Z</time>
      </trkpt>
      <trkpt lat="47.23169" lon="6.75993">
        <ele>936</ele>
        <time>2018-07-01T09:03:04.000Z</time>
      </trkpt>
      <trkpt lat="47.23169" lon="6.75989">
        <ele>938</ele>
        <time>2018-07-01T09:03:05.000Z</time>
      </trkpt>
      <trkpt lat="47.23169" lon="6.75985">
        <ele>939</ele>
        <time>2018-07-01T09:03:06.000Z</time>
      </trkpt>
      <trkpt lat="47.23169" lon="6.75981">
        <ele>940</ele>
        <time>2018-07-01T09:03:07.000Z</time>
      </trkpt>
      <trkpt lat="47.2317" lon="6.75976">
        <ele>940</ele>
        <time>2018-07-01T09:03:08.000Z</time>
      </trkpt>
      <trkpt lat="47.2317" lon="6.75973">
        <ele>941</ele>
        <time>2018-07-01T09:03:09.000Z</time>
      </trkpt>
      <trkpt lat="47.2317" lon="6.75969">
        <ele>941</ele>
        <time>2018-07-01T09:03:10.000Z</time>
      </trkpt>
      <trkpt lat="47.2317" lon="6.75966">
        <ele>941</ele>
        <time>2018-07-01T09:03:11.000Z</time>
      </trkpt>
      <trkpt lat="47.23169" lon="6.75963">
        <ele>942</ele>
        <time>2018-07-01T09:03:12.000Z</time>
      </trkpt>
      <trkpt lat="47.23169" lon="6.7596">
        <ele>942</ele>
        <time>2018-07-01T09:03:13.000Z</time>
      </trkpt>
      <trkpt lat="47.23169" lon="6.75957">
        <ele>942</ele>
        <time>2018-07-01T09:03:14.000Z</time>
      </trkpt>
      <trkpt lat="47.23169" lon="6.75954">
        <ele>942</ele>
        <time>2018-07-01T09:03:15.000Z</time>
      </trkpt>
      <trkpt lat="47.23169" lon="6.7595">
        <ele>941</ele>
        <time>2018-07-01T09:03:16.000Z</time>
      </trkpt>
      <trkpt lat="47.23169" lon="6.75947">
        <ele>941</ele>
        <time>2018-07-01T09:03:17.000Z</time>
      </trkpt>
      <trkpt lat="47.23169" lon="6.75944">
        <ele>941</ele>
        <time>2018-07-01T09:03:18.000Z</time>
      </trkpt>
      <trkpt lat="47.23169" lon="6.75941">
        <ele>941</ele>
        <time>2018-07-01T09:03:19.000Z</time>
      </trkpt>
      <trkpt lat="47.23169" lon="6.75937">
        <ele>940</ele>
        <time>2018-07-01T09:03:20.000Z</time>
      </trkpt>
      <trkpt lat="47.23169" lon="6.75934">
        <ele>940</ele>
        <time>2018-07-01T09:03:21.000Z</time>
      </trkpt>
      <trkpt lat="47.2317" lon="6.7593">
        <ele>939</ele>
        <time>2018-07-01T09:03:22.000Z</time>
      </trkpt>
      <trkpt lat="47.2317" lon="6.75926">
        <ele>938</ele>
        <time>2018-07-01T09:03:23.000Z</time>
      </trkpt>
      <trkpt lat="47.2317" lon="6.75922">
        <ele>937</ele>
        <time>2018-07-01T09:03:24.000Z</time>
      </trkpt>
      <trkpt lat="47.2317" lon="6.75919">
        <ele>936</ele>
        <time>2018-07-01T09:03:25.000Z</time>
      </trkpt>
      <trkpt lat="47.2317" lon="6.75915">
        <ele>936</ele>
        <time>2018-07-01T09:03:26.000Z</time>
      </trkpt>
      <trkpt lat="47.2317" lon="6.75911">
        <ele>937</ele>
        <time>2018-07-01T09:03:27.000Z</time>
      </trkpt>
      <trkpt lat="47.2317" lon="6.75907">
        <ele>938</ele>
        <time>2018-07-01T09:03:28.000Z</time>
      </trkpt>
      <trkpt lat="47.2317" lon="6.75903">
        <ele>939</ele>
        <time>2018-07-01T09:03:29.000Z</time>
      </trkpt>
      <trkpt lat="47.2317" lon="6.75898">
        <ele>940</ele>
        <time>2018-07-01T09:03:30.000Z</time>
      </trkpt>
      <trkpt lat="47.2317" lon="6.75894">
        <ele>941</ele>
        <time>2018-07-01T09:03:31.000Z</time>
      </trkpt>
      <trkpt lat="47.2317" lon="6.7589">
        <ele>942</ele>
        <time>2018-07-01T09:03:32.000Z</time>
      </trkpt>
      <trkpt lat="47.23171" lon="6.75885">
        <ele>942</ele>
        <time>2018-07-01T09:03:33.000Z</time>
      </trkpt>
      <trkpt lat="47.23171" lon="6.7588">
        <ele>943</ele>
        <time>2018-07-01T09:03:34.000Z</time>
      </trkpt>
      <trkpt lat="47.23172" lon="6.75875">
        <ele>943</ele>
        <time>2018-07-01T09:03:35.000Z</time>
      </trkpt>
      <trkpt lat="47.23172" lon="6.7587">
        <ele>943</ele>
        <time>2018-07-01T09:03:36.000Z</time>
      </trkpt>
      <trkpt lat="47.23173" lon="6.75866">
        <ele>943</ele>
        <time>2018-07-01T09:03:37.000Z</time>
      </trkpt>
      <trkpt lat="47.23173" lon="6.75861">
        <ele>942</ele>
        <time>2018-07-01T09:03:38.000Z</time>
      </trkpt>
      <trkpt lat="47.23173" lon="6.75856">
        <ele>942</ele>
        <time>2018-07-01T09:03:39.000Z</time>
      </trkpt>
      <trkpt lat="47.23173" lon="6.7585">
        <ele>941</ele>
        <time>2018-07-01T09:03:40.000Z</time>
      </trkpt>
      <trkpt lat="47.23174" lon="6.75846">
        <ele>941</ele>
        <time>2018-07-01T09:03:41.000Z</time>
      </trkpt>
      <trkpt lat="47.23174" lon="6.75841">
        <ele>940</ele>
        <time>2018-07-01T09:03:42.000Z</time>
      </trkpt>
      <trkpt lat="47.23174" lon="6.75837">
        <ele>939</ele>
        <time>2018-07-01T09:03:43.000Z</time>
      </trkpt>
      <trkpt lat="47.23174" lon="6.75832">
        <ele>939</ele>
        <time>2018-07-01T09:03:44.000Z</time>
      </trkpt>
      <trkpt lat="47.23174" lon="6.75828">
        <ele>940</ele>
        <time>2018-07-01T09:03:45.000Z</time>
      </trkpt>
      <trkpt lat="47.23175" lon="6.75824">
        <ele>941</ele>
        <time>2018-07-01T09:03:46.000Z</time>
      </trkpt>
      <trkpt lat="47.23175" lon="6.7582">
        <ele>941</ele>
        <time>2018-07-01T09:03:47.000Z</time>
      </trkpt>
      <trkpt lat="47.23175" lon="6.75815">
        <ele>942</ele>
        <time>2018-07-01T09:03:48.000Z</time>
      </trkpt>
      <trkpt lat="47.23175" lon="6.75811">
        <ele>943</ele>
        <time>2018-07-01T09:03:49.000Z</time>
      </trkpt>
      <trkpt lat="47.23176" lon="6.75806">
        <ele>943</ele>
        <time>2018-07-01T09:03:50.000Z</time>
      </trkpt>
      <trkpt lat="47.23176" lon="6.75802">
        <ele>944</ele>
        <time>2018-07-01T09:03:51.000Z</time>
      </trkpt>
      <trkpt lat="47.23177" lon="6.75797">
        <ele>944</ele>
        <time>2018-07-01T09:03:52.000Z</time>
      </trkpt>
      <trkpt lat="47.23177" lon="6.75792">
        <ele>944</ele>
        <time>2018-07-01T09:03:53.000Z</time>
      </trkpt>
      <trkpt lat="47.23177" lon="6.75788">
        <ele>944</ele>
        <time>2018-07-01T09:03:54.000Z</time>
      </trkpt>
      <trkpt lat="47.23176" lon="6.75783">
        <ele>944</ele>
        <time>2018-07-01T09:03:55.000Z</time>
      </trkpt>
      <trkpt lat="47.23176" lon="6.75779">
        <ele>944</ele>
        <time>2018-07-01T09:03:56.000Z</time>
      </trkpt>
      <trkpt lat="47.23176" lon="6.75774">
        <ele>944</ele>
        <time>2018-07-01T09:03:57.000Z</time>
      </trkpt>
      <trkpt lat="47.23176" lon="6.7577">
        <ele>943</ele>
        <time>2018-07-01T09:03:58.000Z</time>
      </trkpt>
      <trkpt lat="47.23176" lon="6.75767">
        <ele>943</ele>
        <time>2018-07-01T09:03:59.000Z</time>
      </trkpt>
      <trkpt lat="47.23176" lon="6.75763">
        <ele>942</ele>
        <time>2018-07-01T09:04:00.000Z</time>
      </trkpt>
      <trkpt lat="47.23175" lon="6.7576">
        <ele>942</ele>
        <time>2018-07-01T09:04:01.000Z</time>
      </trkpt>
      <trkpt lat="47.23175" lon="6.75757">
        <ele>941</ele>
        <time>2018-07-01T09:04:02.000Z</time>
      </trkpt>
      <trkpt lat="47.23174" lon="6.75753">
        <ele>940</ele>
        <time>2018-07-01T09:04:03.000Z</time>
      </trkpt>
      <trkpt lat="47.23172" lon="6.75749">
        <ele>940</ele>
        <time>2018-07-01T09:04:04.000Z</time>
      </trkpt>
      <trkpt lat="47.23171" lon="6.75745">
        <ele>940</ele>
        <time>2018-07-01T09:04:05.000Z</time>
      </trkpt>
      <trkpt lat="47.2317" lon="6.75741">
        <ele>941</ele>
        <time>2018-07-01T09:04:06.000Z</time>
      </trkpt>
      <trkpt lat="47.23169" lon="6.75737">
        <ele>942</ele>
        <time>2018-07-01T09:04:07.000Z</time>
      </trkpt>
      <trkpt lat="47.23169" lon="6.75733">
        <ele>943</ele>
        <time>2018-07-01T09:04:08.000Z</time>
      </trkpt>
      <trkpt lat="47.23169" lon="6.75728">
        <ele>943</ele>
        <time>2018-07-01T09:04:09.000Z</time>
      </trkpt>
      <trkpt lat="47.23169" lon="6.75724">
        <ele>944</ele>
        <time>2018-07-01T09:04:10.000Z</time>
      </trkpt>
      <trkpt lat="47.23168" lon="6.7572">
        <ele>944</ele>
        <time>2018-07-01T09:04:11.000Z</time>
      </trkpt>
      <trkpt lat="47.23168" lon="6.75716">
        <ele>945</ele>
        <time>2018-07-01T09:04:12.000Z</time>
      </trkpt>
      <trkpt lat="47.23168" lon="6.75712">
        <ele>945</ele>
        <time>2018-07-01T09:04:13.000Z</time>
      </trkpt>
      <trkpt lat="47.23168" lon="6.75708">
        <ele>945</ele>
        <time>2018-07-01T09:04:14.000Z</time>
      </trkpt>
      <trkpt lat="47.23169" lon="6.75705">
        <ele>945</ele>
        <time>2018-07-01T09:04:15.000Z</time>
      </trkpt>
      <trkpt lat="47.23169" lon="6.75701">
        <ele>945</ele>
        <time>2018-07-01T09:04:16.000Z</time>
      </trkpt>
      <trkpt lat="47.23169" lon="6.75698">
        <ele>945</ele>
        <time>2018-07-01T09:04:17.000Z</time>
      </trkpt>
      <trkpt lat="47.23169" lon="6.75695">
        <ele>945</ele>
        <time>2018-07-01T09:04:18.000Z</time>
      </trkpt>
      <trkpt lat="47.2317" lon="6.75692">
        <ele>944</ele>
        <time>2018-07-01T09:04:19.000Z</time>
      </trkpt>
      <trkpt lat="47.2317" lon="6.75689">
        <ele>944</ele>
        <time>2018-07-01T09:04:20.000Z</time>
      </trkpt>
      <trkpt lat="47.2317" lon="6.75685">
        <ele>944</ele>
        <time>2018-07-01T09:04:21.000Z</time>
      </trkpt>
      <trkpt lat="47.2317" lon="6.75682">
        <ele>943</ele>
        <time>2018-07-01T09:04:22.000Z</time>
      </trkpt>
      <trkpt lat="47.2317" lon="6.75679">
        <ele>943</ele>
        <time>2018-07-01T09:04:23.000Z</time>
      </trkpt>
      <trkpt lat="47.2317" lon="6.75675">
        <ele>942</ele>
        <time>2018-07-01T09:04:24.000Z</time>
      </trkpt>
      <trkpt lat="47.23169" lon="6.75671">
        <ele>941</ele>
        <time>2018-07-01T09:04:25.000Z</time>
      </trkpt>
      <trkpt lat="47.23167" lon="6.75668">
        <ele>940</ele>
        <time>2018-07-01T09:04:26.000Z</time>
      </trkpt>
      <trkpt lat="47.23165" lon="6.75664">
        <ele>938</ele>
        <time>2018-07-01T09:04:27.000Z</time>
      </trkpt>
      <trkpt lat="47.23162" lon="6.75661">
        <ele>936</ele>
        <time>2018-07-01T09:04:28.000Z</time>
      </trkpt>
      <trkpt lat="47.23159" lon="6.75657">
        <ele>934</ele>
        <time>2018-07-01T09:04:29.000Z</time>
      </trkpt>
      <trkpt lat="47.23156" lon="6.75652">
        <ele>933</ele>
        <time>2018-07-01T09:04:30.000Z</time>
      </trkpt>
      <trkpt lat="47.23153" lon="6.75647">
        <ele>931</ele>
        <time>2018-07-01T09:04:31.000Z</time>
      </trkpt>
      <trkpt lat="47.2315" lon="6.75642">
        <ele>930</ele>
        <time>2018-07-01T09:04:32.000Z</time>
      </trkpt>
      <trkpt lat="47.23148" lon="6.75637">
        <ele>930</ele>
        <time>2018-07-01T09:04:33.000Z</time>
      </trkpt>
      <trkpt lat="47.23145" lon="6.75632">
        <ele>929</ele>
        <time>2018-07-01T09:04:34.000Z</time>
      </trkpt>
      <trkpt lat="47.23143" lon="6.75626">
        <ele>929</ele>
        <time>2018-07-01T09:04:35.000Z</time>
      </trkpt>
      <trkpt lat="47.2314" lon="6.75621">
        <ele>928</ele>
        <time>2018-07-01T09:04:36.000Z</time>
      </trkpt>
      <trkpt lat="47.23138" lon="6.75616">
        <ele>928</ele>
        <time>2018-07-01T09:04:37.000Z</time>
      </trkpt>
      <trkpt lat="47.23136" lon="6.75611">
        <ele>928</ele>
        <time>2018-07-01T09:04:38.000Z</time>
      </trkpt>
      <trkpt lat="47.23134" lon="6.75606">
        <ele>928</ele>
        <time>2018-07-01T09:04:39.000Z</time>
      </trkpt>
      <trkpt lat="47.23132" lon="6.75602">
        <ele>927</ele>
        <time>2018-07-01T09:04:40.000Z</time>
      </trkpt>
      <trkpt lat="47.2313" lon="6.75597">
        <ele>927</ele>
        <time>2018-07-01T09:04:41.000Z</time>
      </trkpt>
      <trkpt lat="47.23128" lon="6.75591">
        <ele>927</ele>
        <time>2018-07-01T09:04:42.000Z</time>
      </trkpt>
      <trkpt lat="47.23127" lon="6.75586">
        <ele>926</ele>
        <time>2018-07-01T09:04:43.000Z</time>
      </trkpt>
      <trkpt lat="47.23126" lon="6.75582">
        <ele>927</ele>
        <time>2018-07-01T09:04:44.000Z</time>
      </trkpt>
      <trkpt lat="47.23125" lon="6.75577">
        <ele>927</ele>
        <time>2018-07-01T09:04:45.000Z</time>
      </trkpt>
      <trkpt lat="47.23124" lon="6.75572">
        <ele>927</ele>
        <time>2018-07-01T09:04:46.000Z</time>
      </trkpt>
      <trkpt lat="47.23123" lon="6.75568">
        <ele>927</ele>
        <time>2018-07-01T09:04:47.000Z</time>
      </trkpt>
      <trkpt lat="47.23122" lon="6.75564">
        <ele>926</ele>
        <time>2018-07-01T09:04:48.000Z</time>
      </trkpt>
      <trkpt lat="47.23121" lon="6.75559">
        <ele>926</ele>
        <time>2018-07-01T09:04:49.000Z</time>
      </trkpt>
      <trkpt lat="47.23121" lon="6.75555">
        <ele>926</ele>
        <time>2018-07-01T09:04:50.000Z</time>
      </trkpt>
      <trkpt lat="47.2312" lon="6.7555">
        <ele>926</ele>
        <time>2018-07-01T09:04:51.000Z</time>
      </trkpt>
      <trkpt lat="47.2312" lon="6.75545">
        <ele>926</ele>
        <time>2018-07-01T09:04:52.000Z</time>
      </trkpt>
      <trkpt lat="47.23119" lon="6.7554">
        <ele>926</ele>
        <time>2018-07-01T09:04:53.000Z</time>
      </trkpt>
      <trkpt lat="47.23119" lon="6.75535">
        <ele>926</ele>
        <time>2018-07-01T09:04:54.000Z</time>
      </trkpt>
      <trkpt lat="47.23118" lon="6.7553">
        <ele>926</ele>
        <time>2018-07-01T09:04:55.000Z</time>
      </trkpt>
      <trkpt lat="47.23118" lon="6.75525">
        <ele>926</ele>
        <time>2018-07-01T09:04:56.000Z</time>
      </trkpt>
      <trkpt lat="47.23117" lon="6.7552">
        <ele>926</ele>
        <time>2018-07-01T09:04:57.000Z</time>
      </trkpt>
      <trkpt lat="47.23117" lon="6.75515">
        <ele>926</ele>
        <time>2018-07-01T09:04:58.000Z</time>
      </trkpt>
      <trkpt lat="47.23116" lon="6.7551">
        <ele>925</ele>
        <time>2018-07-01T09:04:59.000Z</time>
      </trkpt>
      <trkpt lat="47.23115" lon="6.75505">
        <ele>925</ele>
        <time>2018-07-01T09:05:00.000Z</time>
      </trkpt>
      <trkpt lat="47.23114" lon="6.755">
        <ele>925</ele>
        <time>2018-07-01T09:05:01.000Z</time>
      </trkpt>
      <trkpt lat="47.23113" lon="6.75494">
        <ele>925</ele>
        <time>2018-07-01T09:05:02.000Z</time>
      </trkpt>
      <trkpt lat="47.23112" lon="6.75489">
        <ele>925</ele>
        <time>2018-07-01T09:05:03.000Z</time>
      </trkpt>
      <trkpt lat="47.23111" lon="6.75483">
        <ele>925</ele>
        <time>2018-07-01T09:05:04.000Z</time>
      </trkpt>
      <trkpt lat="47.23109" lon="6.75477">
        <ele>925</ele>
        <time>2018-07-01T09:05:05.000Z</time>
      </trkpt>
      <trkpt lat="47.23108" lon="6.75471">
        <ele>925</ele>
        <time>2018-07-01T09:05:06.000Z</time>
      </trkpt>
      <trkpt lat="47.23107" lon="6.75465">
        <ele>925</ele>
        <time>2018-07-01T09:05:07.000Z</time>
      </trkpt>
      <trkpt lat="47.23105" lon="6.7546">
        <ele>925</ele>
        <time>2018-07-01T09:05:08.000Z</time>
      </trkpt>
      <trkpt lat="47.23104" lon="6.75455">
        <ele>924</ele>
        <time>2018-07-01T09:05:09.000Z</time>
      </trkpt>
      <trkpt lat="47.23103" lon="6.7545">
        <ele>924</ele>
        <time>2018-07-01T09:05:10.000Z</time>
      </trkpt>
      <trkpt lat="47.23101" lon="6.75444">
        <ele>924</ele>
        <time>2018-07-01T09:05:11.000Z</time>
      </trkpt>
      <trkpt lat="47.23101" lon="6.75439">
        <ele>923</ele>
        <time>2018-07-01T09:05:12.000Z</time>
      </trkpt>
      <trkpt lat="47.23099" lon="6.75434">
        <ele>922</ele>
        <time>2018-07-01T09:05:13.000Z</time>
      </trkpt>
      <trkpt lat="47.23099" lon="6.75428">
        <ele>922</ele>
        <time>2018-07-01T09:05:14.000Z</time>
      </trkpt>
      <trkpt lat="47.23098" lon="6.75422">
        <ele>921</ele>
        <time>2018-07-01T09:05:15.000Z</time>
      </trkpt>
      <trkpt lat="47.23098" lon="6.75417">
        <ele>921</ele>
        <time>2018-07-01T09:05:16.000Z</time>
      </trkpt>
      <trkpt lat="47.23097" lon="6.75412">
        <ele>919</ele>
        <time>2018-07-01T09:05:17.000Z</time>
      </trkpt>
      <trkpt lat="47.23096" lon="6.75407">
        <ele>919</ele>
        <time>2018-07-01T09:05:18.000Z</time>
      </trkpt>
      <trkpt lat="47.23096" lon="6.75402">
        <ele>919</ele>
        <time>2018-07-01T09:05:19.000Z</time>
      </trkpt>
      <trkpt lat="47.23096" lon="6.75397">
        <ele>920</ele>
        <time>2018-07-01T09:05:20.000Z</time>
      </trkpt>
      <trkpt lat="47.23095" lon="6.75392">
        <ele>920</ele>
        <time>2018-07-01T09:05:21.000Z</time>
      </trkpt>
      <trkpt lat="47.23095" lon="6.75387">
        <ele>920</ele>
        <time>2018-07-01T09:05:22.000Z</time>
      </trkpt>
      <trkpt lat="47.23095" lon="6.75383">
        <ele>920</ele>
        <time>2018-07-01T09:05:23.000Z</time>
      </trkpt>
      <trkpt lat="47.23094" lon="6.75378">
        <ele>920</ele>
        <time>2018-07-01T09:05:24.000Z</time>
      </trkpt>
      <trkpt lat="47.23094" lon="6.75373">
        <ele>920</ele>
        <time>2018-07-01T09:05:25.000Z</time>
      </trkpt>
      <trkpt lat="47.23094" lon="6.75369">
        <ele>919</ele>
        <time>2018-07-01T09:05:26.000Z</time>
      </trkpt>
      <trkpt lat="47.23093" lon="6.75365">
        <ele>919</ele>
        <time>2018-07-01T09:05:27.000Z</time>
      </trkpt>
      <trkpt lat="47.23093" lon="6.75361">
        <ele>918</ele>
        <time>2018-07-01T09:05:28.000Z</time>
      </trkpt>
      <trkpt lat="47.23092" lon="6.75356">
        <ele>918</ele>
        <time>2018-07-01T09:05:29.000Z</time>
      </trkpt>
      <trkpt lat="47.23091" lon="6.75352">
        <ele>917</ele>
        <time>2018-07-01T09:05:30.000Z</time>
      </trkpt>
      <trkpt lat="47.2309" lon="6.75347">
        <ele>916</ele>
        <time>2018-07-01T09:05:31.000Z</time>
      </trkpt>
      <trkpt lat="47.23089" lon="6.75342">
        <ele>914</ele>
        <time>2018-07-01T09:05:32.000Z</time>
      </trkpt>
      <trkpt lat="47.23089" lon="6.75338">
        <ele>913</ele>
        <time>2018-07-01T09:05:33.000Z</time>
      </trkpt>
      <trkpt lat="47.23088" lon="6.75333">
        <ele>911</ele>
        <time>2018-07-01T09:05:34.000Z</time>
      </trkpt>
      <trkpt lat="47.23088" lon="6.75328">
        <ele>911</ele>
        <time>2018-07-01T09:05:35.000Z</time>
      </trkpt>
      <trkpt lat="47.23087" lon="6.75323">
        <ele>912</ele>
        <time>2018-07-01T09:05:36.000Z</time>
      </trkpt>
      <trkpt lat="47.23087" lon="6.75318">
        <ele>912</ele>
        <time>2018-07-01T09:05:37.000Z</time>
      </trkpt>
      <trkpt lat="47.23087" lon="6.75313">
        <ele>913</ele>
        <time>2018-07-01T09:05:38.000Z</time>
      </trkpt>
      <trkpt lat="47.23086" lon="6.75308">
        <ele>913</ele>
        <time>2018-07-01T09:05:39.000Z</time>
      </trkpt>
      <trkpt lat="47.23086" lon="6.75302">
        <ele>913</ele>
        <time>2018-07-01T09:05:40.000Z</time>
      </trkpt>
      <trkpt lat="47.23085" lon="6.75297">
        <ele>912</ele>
        <time>2018-07-01T09:05:41.000Z</time>
      </trkpt>
      <trkpt lat="47.23084" lon="6.75292">
        <ele>912</ele>
        <time>2018-07-01T09:05:42.000Z</time>
      </trkpt>
      <trkpt lat="47.23083" lon="6.75288">
        <ele>898</ele>
        <time>2018-07-01T09:05:43.000Z</time>
      </trkpt>
      <trkpt lat="47.23082" lon="6.75282">
        <ele>898</ele>
        <time>2018-07-01T09:05:44.000Z</time>
      </trkpt>
      <trkpt lat="47.23081" lon="6.75277">
        <ele>898</ele>
        <time>2018-07-01T09:05:45.000Z</time>
      </trkpt>
      <trkpt lat="47.2308" lon="6.75272">
        <ele>899</ele>
        <time>2018-07-01T09:05:46.000Z</time>
      </trkpt>
      <trkpt lat="47.2308" lon="6.75267">
        <ele>899</ele>
        <time>2018-07-01T09:05:47.000Z</time>
      </trkpt>
      <trkpt lat="47.23079" lon="6.75262">
        <ele>900</ele>
        <time>2018-07-01T09:05:48.000Z</time>
      </trkpt>
      <trkpt lat="47.23078" lon="6.75257">
        <ele>900</ele>
        <time>2018-07-01T09:05:49.000Z</time>
      </trkpt>
      <trkpt lat="47.23078" lon="6.75252">
        <ele>901</ele>
        <time>2018-07-01T09:05:50.000Z</time>
      </trkpt>
      <trkpt lat="47.23078" lon="6.75248">
        <ele>901</ele>
        <time>2018-07-01T09:05:51.000Z</time>
      </trkpt>
      <trkpt lat="47.23078" lon="6.75243">
        <ele>901</ele>
        <time>2018-07-01T09:05:52.000Z</time>
      </trkpt>
      <trkpt lat="47.23078" lon="6.75239">
        <ele>900</ele>
        <time>2018-07-01T09:05:53.000Z</time>
      </trkpt>
      <trkpt lat="47.23078" lon="6.75236">
        <ele>900</ele>
        <time>2018-07-01T09:05:54.000Z</time>
      </trkpt>
      <trkpt lat="47.23078" lon="6.75232">
        <ele>900</ele>
        <time>2018-07-01T09:05:55.000Z</time>
      </trkpt>
      <trkpt lat="47.23077" lon="6.75229">
        <ele>899</ele>
        <time>2018-07-01T09:05:56.000Z</time>
      </trkpt>
      <trkpt lat="47.23077" lon="6.75225">
        <ele>899</ele>
        <time>2018-07-01T09:05:57.000Z</time>
      </trkpt>
      <trkpt lat="47.23076" lon="6.75221">
        <ele>899</ele>
        <time>2018-07-01T09:05:58.000Z</time>
      </trkpt>
      <trkpt lat="47.23075" lon="6.75218">
        <ele>899</ele>
        <time>2018-07-01T09:05:59.000Z</time>
      </trkpt>
      <trkpt lat="47.23074" lon="6.75216">
        <ele>899</ele>
        <time>2018-07-01T09:06:00.000Z</time>
      </trkpt>
      <trkpt lat="47.23074" lon="6.75214">
        <ele>899</ele>
        <time>2018-07-01T09:06:01.000Z</time>
      </trkpt>
      <trkpt lat="47.23073" lon="6.75212">
        <ele>899</ele>
        <time>2018-07-01T09:06:02.000Z</time>
      </trkpt>
      <trkpt lat="47.23072" lon="6.75209">
        <ele>899</ele>
        <time>2018-07-01T09:06:03.000Z</time>
      </trkpt>
      <trkpt lat="47.2307" lon="6.75207">
        <ele>899</ele>
        <time>2018-07-01T09:06:04.000Z</time>
      </trkpt>
      <trkpt lat="47.23069" lon="6.75204">
        <ele>899</ele>
        <time>2018-07-01T09:06:05.000Z</time>
      </trkpt>
      <trkpt lat="47.23068" lon="6.75201">
        <ele>899</ele>
        <time>2018-07-01T09:06:06.000Z</time>
      </trkpt>
      <trkpt lat="47.23066" lon="6.75198">
        <ele>899</ele>
        <time>2018-07-01T09:06:07.000Z</time>
      </trkpt>
      <trkpt lat="47.23065" lon="6.75195">
        <ele>899</ele>
        <time>2018-07-01T09:06:08.000Z</time>
      </trkpt>
      <trkpt lat="47.23063" lon="6.75192">
        <ele>899</ele>
        <time>2018-07-01T09:06:09.000Z</time>
      </trkpt>
      <trkpt lat="47.23062" lon="6.75189">
        <ele>900</ele>
        <time>2018-07-01T09:06:10.000Z</time>
      </trkpt>
      <trkpt lat="47.23061" lon="6.75186">
        <ele>900</ele>
        <time>2018-07-01T09:06:11.000Z</time>
      </trkpt>
      <trkpt lat="47.2306" lon="6.75183">
        <ele>900</ele>
        <time>2018-07-01T09:06:12.000Z</time>
      </trkpt>
      <trkpt lat="47.23058" lon="6.75181">
        <ele>900</ele>
        <time>2018-07-01T09:06:13.000Z</time>
      </trkpt>
      <trkpt lat="47.23057" lon="6.75178">
        <ele>900</ele>
        <time>2018-07-01T09:06:14.000Z</time>
      </trkpt>
      <trkpt lat="47.23055" lon="6.75175">
        <ele>899</ele>
        <time>2018-07-01T09:06:15.000Z</time>
      </trkpt>
      <trkpt lat="47.23054" lon="6.75172">
        <ele>899</ele>
        <time>2018-07-01T09:06:16.000Z</time>
      </trkpt>
      <trkpt lat="47.23052" lon="6.75168">
        <ele>899</ele>
        <time>2018-07-01T09:06:17.000Z</time>
      </trkpt>
      <trkpt lat="47.23051" lon="6.75164">
        <ele>904</ele>
        <time>2018-07-01T09:06:18.000Z</time>
      </trkpt>
      <trkpt lat="47.23049" lon="6.7516">
        <ele>904</ele>
        <time>2018-07-01T09:06:19.000Z</time>
      </trkpt>
      <trkpt lat="47.23048" lon="6.75156">
        <ele>903</ele>
        <time>2018-07-01T09:06:20.000Z</time>
      </trkpt>
      <trkpt lat="47.23047" lon="6.75153">
        <ele>903</ele>
        <time>2018-07-01T09:06:21.000Z</time>
      </trkpt>
      <trkpt lat="47.23046" lon="6.75149">
        <ele>903</ele>
        <time>2018-07-01T09:06:22.000Z</time>
      </trkpt>
      <trkpt lat="47.23044" lon="6.75146">
        <ele>903</ele>
        <time>2018-07-01T09:06:23.000Z</time>
      </trkpt>
      <trkpt lat="47.23042" lon="6.75143">
        <ele>903</ele>
        <time>2018-07-01T09:06:24.000Z</time>
      </trkpt>
      <trkpt lat="47.23041" lon="6.7514">
        <ele>903</ele>
        <time>2018-07-01T09:06:25.000Z</time>
      </trkpt>
      <trkpt lat="47.2304" lon="6.75137">
        <ele>903</ele>
        <time>2018-07-01T09:06:26.000Z</time>
      </trkpt>
      <trkpt lat="47.23039" lon="6.75135">
        <ele>903</ele>
        <time>2018-07-01T09:06:27.000Z</time>
      </trkpt>
      <trkpt lat="47.23038" lon="6.75132">
        <ele>903</ele>
        <time>2018-07-01T09:06:28.000Z</time>
      </trkpt>
      <trkpt lat="47.23037" lon="6.75129">
        <ele>903</ele>
        <time>2018-07-01T09:06:29.000Z</time>
      </trkpt>
      <trkpt lat="47.23036" lon="6.75126">
        <ele>903</ele>
        <time>2018-07-01T09:06:30.000Z</time>
      </trkpt>
      <trkpt lat="47.23035" lon="6.75123">
        <ele>903</ele>
        <time>2018-07-01T09:06:31.000Z</time>
      </trkpt>
      <trkpt lat="47.23034" lon="6.7512">
        <ele>903</ele>
        <time>2018-07-01T09:06:32.000Z</time>
      </trkpt>
      <trkpt lat="47.23034" lon="6.75117">
        <ele>904</ele>
        <time>2018-07-01T09:06:33.000Z</time>
      </trkpt>
      <trkpt lat="47.23033" lon="6.75114">
        <ele>904</ele>
        <time>2018-07-01T09:06:34.000Z</time>
      </trkpt>
      <trkpt lat="47.23032" lon="6.75111">
        <ele>904</ele>
        <time>2018-07-01T09:06:35.000Z</time>
      </trkpt>
      <trkpt lat="47.23031" lon="6.75107">
        <ele>904</ele>
        <time>2018-07-01T09:06:36.000Z</time>
      </trkpt>
      <trkpt lat="47.23029" lon="6.75104">
        <ele>904</ele>
        <time>2018-07-01T09:06:37.000Z</time>
      </trkpt>
      <trkpt lat="47.23028" lon="6.751">
        <ele>904</ele>
        <time>2018-07-01T09:06:38.000Z</time>
      </trkpt>
      <trkpt lat="47.23027" lon="6.75097">
        <ele>903</ele>
        <time>2018-07-01T09:06:39.000Z</time>
      </trkpt>
      <trkpt lat="47.23026" lon="6.75094">
        <ele>903</ele>
        <time>2018-07-01T09:06:40.000Z</time>
      </trkpt>
      <trkpt lat="47.23024" lon="6.7509">
        <ele>903</ele>
        <time>2018-07-01T09:06:41.000Z</time>
      </trkpt>
      <trkpt lat="47.23023" lon="6.75087">
        <ele>903</ele>
        <time>2018-07-01T09:06:42.000Z</time>
      </trkpt>
      <trkpt lat="47.23021" lon="6.75083">
        <ele>908</ele>
        <time>2018-07-01T09:06:43.000Z</time>
      </trkpt>
      <trkpt lat="47.2302" lon="6.7508">
        <ele>907</ele>
        <time>2018-07-01T09:06:44.000Z</time>
      </trkpt>
      <trkpt lat="47.23019" lon="6.75077">
        <ele>907</ele>
        <time>2018-07-01T09:06:45.000Z</time>
      </trkpt>
      <trkpt lat="47.23018" lon="6.75074">
        <ele>907</ele>
        <time>2018-07-01T09:06:46.000Z</time>
      </trkpt>
      <trkpt lat="47.23016" lon="6.75071">
        <ele>908</ele>
        <time>2018-07-01T09:06:47.000Z</time>
      </trkpt>
      <trkpt lat="47.23015" lon="6.75068">
        <ele>908</ele>
        <time>2018-07-01T09:06:48.000Z</time>
      </trkpt>
      <trkpt lat="47.23013" lon="6.75065">
        <ele>908</ele>
        <time>2018-07-01T09:06:49.000Z</time>
      </trkpt>
      <trkpt lat="47.23012" lon="6.75063">
        <ele>908</ele>
        <time>2018-07-01T09:06:50.000Z</time>
      </trkpt>
      <trkpt lat="47.23011" lon="6.7506">
        <ele>908</ele>
        <time>2018-07-01T09:06:51.000Z</time>
      </trkpt>
      <trkpt lat="47.2301" lon="6.75057">
        <ele>909</ele>
        <time>2018-07-01T09:06:52.000Z</time>
      </trkpt>
      <trkpt lat="47.23009" lon="6.75054">
        <ele>909</ele>
        <time>2018-07-01T09:06:53.000Z</time>
      </trkpt>
      <trkpt lat="47.23008" lon="6.75052">
        <ele>910</ele>
        <time>2018-07-01T09:06:54.000Z</time>
      </trkpt>
      <trkpt lat="47.23007" lon="6.75049">
        <ele>910</ele>
        <time>2018-07-01T09:06:55.000Z</time>
      </trkpt>
      <trkpt lat="47.23006" lon="6.75046">
        <ele>910</ele>
        <time>2018-07-01T09:06:56.000Z</time>
      </trkpt>
      <trkpt lat="47.23005" lon="6.75044">
        <ele>910</ele>
        <time>2018-07-01T09:06:57.000Z</time>
      </trkpt>
      <trkpt lat="47.23004" lon="6.75041">
        <ele>911</ele>
        <time>2018-07-01T09:06:58.000Z</time>
      </trkpt>
      <trkpt lat="47.23003" lon="6.75038">
        <ele>911</ele>
        <time>2018-07-01T09:06:59.000Z</time>
      </trkpt>
      <trkpt lat="47.23002" lon="6.75035">
        <ele>911</ele>
        <time>2018-07-01T09:07:00.000Z</time>
      </trkpt>
      <trkpt lat="47.23001" lon="6.75032">
        <ele>911</ele>
        <time>2018-07-01T09:07:01.000Z</time>
      </trkpt>
      <trkpt lat="47.23" lon="6.75029">
        <ele>903</ele>
        <time>2018-07-01T09:07:02.000Z</time>
      </trkpt>
      <trkpt lat="47.22999" lon="6.75027">
        <ele>903</ele>
        <time>2018-07-01T09:07:03.000Z</time>
      </trkpt>
      <trkpt lat="47.22998" lon="6.75024">
        <ele>904</ele>
        <time>2018-07-01T09:07:04.000Z</time>
      </trkpt>
      <trkpt lat="47.22998" lon="6.75022">
        <ele>904</ele>
        <time>2018-07-01T09:07:05.000Z</time>
      </trkpt>
      <trkpt lat="47.22997" lon="6.75019">
        <ele>905</ele>
        <time>2018-07-01T09:07:06.000Z</time>
      </trkpt>
      <trkpt lat="47.22996" lon="6.75017">
        <ele>905</ele>
        <time>2018-07-01T09:07:07.000Z</time>
      </trkpt>
      <trkpt lat="47.22996" lon="6.75014">
        <ele>906</ele>
        <time>2018-07-01T09:07:08.000Z</time>
      </trkpt>
      <trkpt lat="47.22995" lon="6.75011">
        <ele>907</ele>
        <time>2018-07-01T09:07:09.000Z</time>
      </trkpt>
      <trkpt lat="47.22995" lon="6.75008">
        <ele>908</ele>
        <time>2018-07-01T09:07:10.000Z</time>
      </trkpt>
      <trkpt lat="47.22994" lon="6.75005">
        <ele>909</ele>
        <time>2018-07-01T09:07:11.000Z</time>
      </trkpt>
      <trkpt lat="47.22994" lon="6.75002">
        <ele>910</ele>
        <time>2018-07-01T09:07:12.000Z</time>
      </trkpt>
      <trkpt lat="47.22994" lon="6.74999">
        <ele>912</ele>
        <time>2018-07-01T09:07:13.000Z</time>
      </trkpt>
      <trkpt lat="47.22994" lon="6.74996">
        <ele>911</ele>
        <time>2018-07-01T09:07:14.000Z</time>
      </trkpt>
      <trkpt lat="47.22994" lon="6.74993">
        <ele>911</ele>
        <time>2018-07-01T09:07:15.000Z</time>
      </trkpt>
      <trkpt lat="47.22994" lon="6.7499">
        <ele>911</ele>
        <time>2018-07-01T09:07:16.000Z</time>
      </trkpt>
      <trkpt lat="47.22993" lon="6.74987">
        <ele>910</ele>
        <time>2018-07-01T09:07:17.000Z</time>
      </trkpt>
      <trkpt lat="47.22993" lon="6.74983">
        <ele>910</ele>
        <time>2018-07-01T09:07:18.000Z</time>
      </trkpt>
      <trkpt lat="47.22992" lon="6.7498">
        <ele>910</ele>
        <time>2018-07-01T09:07:19.000Z</time>
      </trkpt>
      <trkpt lat="47.22992" lon="6.74977">
        <ele>910</ele>
        <time>2018-07-01T09:07:20.000Z</time>
      </trkpt>
      <trkpt lat="47.22992" lon="6.74973">
        <ele>910</ele>
        <time>2018-07-01T09:07:21.000Z</time>
      </trkpt>
      <trkpt lat="47.22991" lon="6.7497">
        <ele>910</ele>
        <time>2018-07-01T09:07:22.000Z</time>
      </trkpt>
      <trkpt lat="47.22991" lon="6.74966">
        <ele>910</ele>
        <time>2018-07-01T09:07:23.000Z</time>
      </trkpt>
      <trkpt lat="47.2299" lon="6.74963">
        <ele>910</ele>
        <time>2018-07-01T09:07:24.000Z</time>
      </trkpt>
      <trkpt lat="47.22989" lon="6.7496">
        <ele>910</ele>
        <time>2018-07-01T09:07:25.000Z</time>
      </trkpt>
      <trkpt lat="47.22989" lon="6.74957">
        <ele>910</ele>
        <time>2018-07-01T09:07:26.000Z</time>
      </trkpt>
      <trkpt lat="47.22988" lon="6.74953">
        <ele>910</ele>
        <time>2018-07-01T09:07:27.000Z</time>
      </trkpt>
      <trkpt lat="47.22988" lon="6.7495">
        <ele>910</ele>
        <time>2018-07-01T09:07:28.000Z</time>
      </trkpt>
      <trkpt lat="47.22987" lon="6.74947">
        <ele>910</ele>
        <time>2018-07-01T09:07:29.000Z</time>
      </trkpt>
      <trkpt lat="47.22987" lon="6.74944">
        <ele>911</ele>
        <time>2018-07-01T09:07:30.000Z</time>
      </trkpt>
      <trkpt lat="47.22987" lon="6.74941">
        <ele>911</ele>
        <time>2018-07-01T09:07:31.000Z</time>
      </trkpt>
      <trkpt lat="47.22987" lon="6.74938">
        <ele>911</ele>
        <time>2018-07-01T09:07:32.000Z</time>
      </trkpt>
      <trkpt lat="47.22987" lon="6.74934">
        <ele>911</ele>
        <time>2018-07-01T09:07:33.000Z</time>
      </trkpt>
      <trkpt lat="47.22987" lon="6.74931">
        <ele>912</ele>
        <time>2018-07-01T09:07:34.000Z</time>
      </trkpt>
      <trkpt lat="47.22988" lon="6.74928">
        <ele>912</ele>
        <time>2018-07-01T09:07:35.000Z</time>
      </trkpt>
      <trkpt lat="47.22989" lon="6.74925">
        <ele>913</ele>
        <time>2018-07-01T09:07:36.000Z</time>
      </trkpt>
      <trkpt lat="47.2299" lon="6.74923">
        <ele>914</ele>
        <time>2018-07-01T09:07:37.000Z</time>
      </trkpt>
      <trkpt lat="47.22992" lon="6.7492">
        <ele>914</ele>
        <time>2018-07-01T09:07:38.000Z</time>
      </trkpt>
      <trkpt lat="47.22994" lon="6.74918">
        <ele>915</ele>
        <time>2018-07-01T09:07:39.000Z</time>
      </trkpt>
      <trkpt lat="47.22995" lon="6.74916">
        <ele>916</ele>
        <time>2018-07-01T09:07:40.000Z</time>
      </trkpt>
      <trkpt lat="47.22997" lon="6.74915">
        <ele>916</ele>
        <time>2018-07-01T09:07:41.000Z</time>
      </trkpt>
      <trkpt lat="47.22999" lon="6.74913">
        <ele>916</ele>
        <time>2018-07-01T09:07:42.000Z</time>
      </trkpt>
      <trkpt lat="47.23001" lon="6.74911">
        <ele>917</ele>
        <time>2018-07-01T09:07:43.000Z</time>
      </trkpt>
      <trkpt lat="47.23002" lon="6.74909">
        <ele>917</ele>
        <time>2018-07-01T09:07:44.000Z</time>
      </trkpt>
      <trkpt lat="47.23004" lon="6.74907">
        <ele>917</ele>
        <time>2018-07-01T09:07:45.000Z</time>
      </trkpt>
      <trkpt lat="47.23006" lon="6.74905">
        <ele>917</ele>
        <time>2018-07-01T09:07:46.000Z</time>
      </trkpt>
      <trkpt lat="47.23007" lon="6.74903">
        <ele>917</ele>
        <time>2018-07-01T09:07:47.000Z</time>
      </trkpt>
      <trkpt lat="47.23008" lon="6.749">
        <ele>917</ele>
        <time>2018-07-01T09:07:48.000Z</time>
      </trkpt>
      <trkpt lat="47.23008" lon="6.74896">
        <ele>917</ele>
        <time>2018-07-01T09:07:49.000Z</time>
      </trkpt>
      <trkpt lat="47.23008" lon="6.74891">
        <ele>917</ele>
        <time>2018-07-01T09:07:50.000Z</time>
      </trkpt>
      <trkpt lat="47.23008" lon="6.74887">
        <ele>917</ele>
        <time>2018-07-01T09:07:51.000Z</time>
      </trkpt>
      <trkpt lat="47.23006" lon="6.74883">
        <ele>917</ele>
        <time>2018-07-01T09:07:52.000Z</time>
      </trkpt>
      <trkpt lat="47.23005" lon="6.74879">
        <ele>917</ele>
        <time>2018-07-01T09:07:53.000Z</time>
      </trkpt>
      <trkpt lat="47.23003" lon="6.74875">
        <ele>917</ele>
        <time>2018-07-01T09:07:54.000Z</time>
      </trkpt>
      <trkpt lat="47.23001" lon="6.74871">
        <ele>917</ele>
        <time>2018-07-01T09:07:55.000Z</time>
      </trkpt>
      <trkpt lat="47.22999" lon="6.74867">
        <ele>912</ele>
        <time>2018-07-01T09:07:56.000Z</time>
      </trkpt>
      <trkpt lat="47.22997" lon="6.74863">
        <ele>912</ele>
        <time>2018-07-01T09:07:57.000Z</time>
      </trkpt>
      <trkpt lat="47.22995" lon="6.74859">
        <ele>912</ele>
        <time>2018-07-01T09:07:58.000Z</time>
      </trkpt>
      <trkpt lat="47.22993" lon="6.74855">
        <ele>912</ele>
        <time>2018-07-01T09:07:59.000Z</time>
      </trkpt>
      <trkpt lat="47.22991" lon="6.74851">
        <ele>912</ele>
        <time>2018-07-01T09:08:00.000Z</time>
      </trkpt>
      <trkpt lat="47.22989" lon="6.74848">
        <ele>912</ele>
        <time>2018-07-01T09:08:01.000Z</time>
      </trkpt>
      <trkpt lat="47.22987" lon="6.74844">
        <ele>912</ele>
        <time>2018-07-01T09:08:02.000Z</time>
      </trkpt>
      <trkpt lat="47.22985" lon="6.74841">
        <ele>912</ele>
        <time>2018-07-01T09:08:03.000Z</time>
      </trkpt>
      <trkpt lat="47.22983" lon="6.74837">
        <ele>912</ele>
        <time>2018-07-01T09:08:04.000Z</time>
      </trkpt>
      <trkpt lat="47.22981" lon="6.74833">
        <ele>911</ele>
        <time>2018-07-01T09:08:05.000Z</time>
      </trkpt>
      <trkpt lat="47.22979" lon="6.74829">
        <ele>911</ele>
        <time>2018-07-01T09:08:06.000Z</time>
      </trkpt>
      <trkpt lat="47.22977" lon="6.74825">
        <ele>910</ele>
        <time>2018-07-01T09:08:07.000Z</time>
      </trkpt>
      <trkpt lat="47.22975" lon="6.74821">
        <ele>910</ele>
        <time>2018-07-01T09:08:08.000Z</time>
      </trkpt>
      <trkpt lat="47.22973" lon="6.74817">
        <ele>910</ele>
        <time>2018-07-01T09:08:09.000Z</time>
      </trkpt>
      <trkpt lat="47.22971" lon="6.74813">
        <ele>910</ele>
        <time>2018-07-01T09:08:10.000Z</time>
      </trkpt>
      <trkpt lat="47.22969" lon="6.74809">
        <ele>909</ele>
        <time>2018-07-01T09:08:11.000Z</time>
      </trkpt>
      <trkpt lat="47.22966" lon="6.74805">
        <ele>909</ele>
        <time>2018-07-01T09:08:12.000Z</time>
      </trkpt>
      <trkpt lat="47.22964" lon="6.74802">
        <ele>909</ele>
        <time>2018-07-01T09:08:13.000Z</time>
      </trkpt>
      <trkpt lat="47.22962" lon="6.74798">
        <ele>909</ele>
        <time>2018-07-01T09:08:14.000Z</time>
      </trkpt>
      <trkpt lat="47.2296" lon="6.74794">
        <ele>909</ele>
        <time>2018-07-01T09:08:15.000Z</time>
      </trkpt>
      <trkpt lat="47.22958" lon="6.7479">
        <ele>908</ele>
        <time>2018-07-01T09:08:16.000Z</time>
      </trkpt>
      <trkpt lat="47.22956" lon="6.74785">
        <ele>908</ele>
        <time>2018-07-01T09:08:17.000Z</time>
      </trkpt>
      <trkpt lat="47.22954" lon="6.74781">
        <ele>908</ele>
        <time>2018-07-01T09:08:18.000Z</time>
      </trkpt>
      <trkpt lat="47.22952" lon="6.74777">
        <ele>908</ele>
        <time>2018-07-01T09:08:19.000Z</time>
      </trkpt>
      <trkpt lat="47.2295" lon="6.74772">
        <ele>908</ele>
        <time>2018-07-01T09:08:20.000Z</time>
      </trkpt>
      <trkpt lat="47.22948" lon="6.74768">
        <ele>908</ele>
        <time>2018-07-01T09:08:21.000Z</time>
      </trkpt>
      <trkpt lat="47.22947" lon="6.74763">
        <ele>907</ele>
        <time>2018-07-01T09:08:22.000Z</time>
      </trkpt>
      <trkpt lat="47.22945" lon="6.74759">
        <ele>907</ele>
        <time>2018-07-01T09:08:23.000Z</time>
      </trkpt>
      <trkpt lat="47.22944" lon="6.74754">
        <ele>907</ele>
        <time>2018-07-01T09:08:24.000Z</time>
      </trkpt>
      <trkpt lat="47.22942" lon="6.7475">
        <ele>906</ele>
        <time>2018-07-01T09:08:25.000Z</time>
      </trkpt>
      <trkpt lat="47.2294" lon="6.74745">
        <ele>906</ele>
        <time>2018-07-01T09:08:26.000Z</time>
      </trkpt>
      <trkpt lat="47.22938" lon="6.74741">
        <ele>905</ele>
        <time>2018-07-01T09:08:27.000Z</time>
      </trkpt>
      <trkpt lat="47.22936" lon="6.74737">
        <ele>905</ele>
        <time>2018-07-01T09:08:28.000Z</time>
      </trkpt>
      <trkpt lat="47.22935" lon="6.74732">
        <ele>905</ele>
        <time>2018-07-01T09:08:29.000Z</time>
      </trkpt>
      <trkpt lat="47.22933" lon="6.74728">
        <ele>905</ele>
        <time>2018-07-01T09:08:30.000Z</time>
      </trkpt>
      <trkpt lat="47.22931" lon="6.74724">
        <ele>905</ele>
        <time>2018-07-01T09:08:31.000Z</time>
      </trkpt>
      <trkpt lat="47.22929" lon="6.7472">
        <ele>905</ele>
        <time>2018-07-01T09:08:32.000Z</time>
      </trkpt>
      <trkpt lat="47.22927" lon="6.74715">
        <ele>905</ele>
        <time>2018-07-01T09:08:33.000Z</time>
      </trkpt>
      <trkpt lat="47.22925" lon="6.74711">
        <ele>905</ele>
        <time>2018-07-01T09:08:34.000Z</time>
      </trkpt>
      <trkpt lat="47.22923" lon="6.74706">
        <ele>905</ele>
        <time>2018-07-01T09:08:35.000Z</time>
      </trkpt>
      <trkpt lat="47.22921" lon="6.74701">
        <ele>904</ele>
        <time>2018-07-01T09:08:36.000Z</time>
      </trkpt>
      <trkpt lat="47.22919" lon="6.74697">
        <ele>904</ele>
        <time>2018-07-01T09:08:37.000Z</time>
      </trkpt>
      <trkpt lat="47.22918" lon="6.74692">
        <ele>904</ele>
        <time>2018-07-01T09:08:38.000Z</time>
      </trkpt>
      <trkpt lat="47.22916" lon="6.74687">
        <ele>899</ele>
        <time>2018-07-01T09:08:39.000Z</time>
      </trkpt>
      <trkpt lat="47.22914" lon="6.74683">
        <ele>899</ele>
        <time>2018-07-01T09:08:40.000Z</time>
      </trkpt>
      <trkpt lat="47.22913" lon="6.74678">
        <ele>899</ele>
        <time>2018-07-01T09:08:41.000Z</time>
      </trkpt>
      <trkpt lat="47.22911" lon="6.74674">
        <ele>899</ele>
        <time>2018-07-01T09:08:42.000Z</time>
      </trkpt>
      <trkpt lat="47.2291" lon="6.74669">
        <ele>900</ele>
        <time>2018-07-01T09:08:43.000Z</time>
      </trkpt>
      <trkpt lat="47.22909" lon="6.74664">
        <ele>899</ele>
        <time>2018-07-01T09:08:44.000Z</time>
      </trkpt>
      <trkpt lat="47.22907" lon="6.74659">
        <ele>898</ele>
        <time>2018-07-01T09:08:45.000Z</time>
      </trkpt>
      <trkpt lat="47.22906" lon="6.74655">
        <ele>898</ele>
        <time>2018-07-01T09:08:46.000Z</time>
      </trkpt>
      <trkpt lat="47.22905" lon="6.7465">
        <ele>898</ele>
        <time>2018-07-01T09:08:47.000Z</time>
      </trkpt>
      <trkpt lat="47.22904" lon="6.74645">
        <ele>898</ele>
        <time>2018-07-01T09:08:48.000Z</time>
      </trkpt>
      <trkpt lat="47.22903" lon="6.74641">
        <ele>897</ele>
        <time>2018-07-01T09:08:49.000Z</time>
      </trkpt>
      <trkpt lat="47.22901" lon="6.74636">
        <ele>897</ele>
        <time>2018-07-01T09:08:50.000Z</time>
      </trkpt>
      <trkpt lat="47.22899" lon="6.74632">
        <ele>897</ele>
        <time>2018-07-01T09:08:51.000Z</time>
      </trkpt>
      <trkpt lat="47.22898" lon="6.74627">
        <ele>897</ele>
        <time>2018-07-01T09:08:52.000Z</time>
      </trkpt>
      <trkpt lat="47.22896" lon="6.74623">
        <ele>897</ele>
        <time>2018-07-01T09:08:53.000Z</time>
      </trkpt>
      <trkpt lat="47.22895" lon="6.74619">
        <ele>897</ele>
        <time>2018-07-01T09:08:54.000Z</time>
      </trkpt>
      <trkpt lat="47.22893" lon="6.74615">
        <ele>897</ele>
        <time>2018-07-01T09:08:55.000Z</time>
      </trkpt>
      <trkpt lat="47.22892" lon="6.74611">
        <ele>897</ele>
        <time>2018-07-01T09:08:56.000Z</time>
      </trkpt>
      <trkpt lat="47.2289" lon="6.74607">
        <ele>897</ele>
        <time>2018-07-01T09:08:57.000Z</time>
      </trkpt>
      <trkpt lat="47.22888" lon="6.74603">
        <ele>897</ele>
        <time>2018-07-01T09:08:58.000Z</time>
      </trkpt>
      <trkpt lat="47.22886" lon="6.74599">
        <ele>897</ele>
        <time>2018-07-01T09:08:59.000Z</time>
      </trkpt>
      <trkpt lat="47.22884" lon="6.74595">
        <ele>897</ele>
        <time>2018-07-01T09:09:00.000Z</time>
      </trkpt>
      <trkpt lat="47.22882" lon="6.7459">
        <ele>897</ele>
        <time>2018-07-01T09:09:01.000Z</time>
      </trkpt>
      <trkpt lat="47.2288" lon="6.74586">
        <ele>896</ele>
        <time>2018-07-01T09:09:02.000Z</time>
      </trkpt>
      <trkpt lat="47.22878" lon="6.74582">
        <ele>896</ele>
        <time>2018-07-01T09:09:03.000Z</time>
      </trkpt>
      <trkpt lat="47.22875" lon="6.74578">
        <ele>896</ele>
        <time>2018-07-01T09:09:04.000Z</time>
      </trkpt>
      <trkpt lat="47.22873" lon="6.74574">
        <ele>896</ele>
        <time>2018-07-01T09:09:05.000Z</time>
      </trkpt>
      <trkpt lat="47.22872" lon="6.74569">
        <ele>896</ele>
        <time>2018-07-01T09:09:06.000Z</time>
      </trkpt>
      <trkpt lat="47.2287" lon="6.74565">
        <ele>896</ele>
        <time>2018-07-01T09:09:07.000Z</time>
      </trkpt>
      <trkpt lat="47.22869" lon="6.7456">
        <ele>896</ele>
        <time>2018-07-01T09:09:08.000Z</time>
      </trkpt>
      <trkpt lat="47.22868" lon="6.74556">
        <ele>896</ele>
        <time>2018-07-01T09:09:09.000Z</time>
      </trkpt>
      <trkpt lat="47.22868" lon="6.74551">
        <ele>896</ele>
        <time>2018-07-01T09:09:10.000Z</time>
      </trkpt>
      <trkpt lat="47.22867" lon="6.74546">
        <ele>896</ele>
        <time>2018-07-01T09:09:11.000Z</time>
      </trkpt>
      <trkpt lat="47.22867" lon="6.74542">
        <ele>896</ele>
        <time>2018-07-01T09:09:12.000Z</time>
      </trkpt>
      <trkpt lat="47.22867" lon="6.74537">
        <ele>896</ele>
        <time>2018-07-01T09:09:13.000Z</time>
      </trkpt>
      <trkpt lat="47.22866" lon="6.74532">
        <ele>896</ele>
        <time>2018-07-01T09:09:14.000Z</time>
      </trkpt>
      <trkpt lat="47.22866" lon="6.74527">
        <ele>896</ele>
        <time>2018-07-01T09:09:15.000Z</time>
      </trkpt>
      <trkpt lat="47.22866" lon="6.74522">
        <ele>896</ele>
        <time>2018-07-01T09:09:16.000Z</time>
      </trkpt>
      <trkpt lat="47.22865" lon="6.74517">
        <ele>896</ele>
        <time>2018-07-01T09:09:17.000Z</time>
      </trkpt>
      <trkpt lat="47.22865" lon="6.74513">
        <ele>896</ele>
        <time>2018-07-01T09:09:18.000Z</time>
      </trkpt>
      <trkpt lat="47.22865" lon="6.74509">
        <ele>896</ele>
        <time>2018-07-01T09:09:19.000Z</time>
      </trkpt>
      <trkpt lat="47.22865" lon="6.74504">
        <ele>896</ele>
        <time>2018-07-01T09:09:20.000Z</time>
      </trkpt>
      <trkpt lat="47.22865" lon="6.745">
        <ele>896</ele>
        <time>2018-07-01T09:09:21.000Z</time>
      </trkpt>
      <trkpt lat="47.22865" lon="6.74495">
        <ele>896</ele>
        <time>2018-07-01T09:09:22.000Z</time>
      </trkpt>
      <trkpt lat="47.22865" lon="6.74491">
        <ele>896</ele>
        <time>2018-07-01T09:09:23.000Z</time>
      </trkpt>
      <trkpt lat="47.22865" lon="6.74486">
        <ele>896</ele>
        <time>2018-07-01T09:09:24.000Z</time>
      </trkpt>
      <trkpt lat="47.22865" lon="6.74481">
        <ele>896</ele>
        <time>2018-07-01T09:09:25.000Z</time>
      </trkpt>
      <trkpt lat="47.22865" lon="6.74476">
        <ele>896</ele>
        <time>2018-07-01T09:09:26.000Z</time>
      </trkpt>
      <trkpt lat="47.22865" lon="6.74472">
        <ele>896</ele>
        <time>2018-07-01T09:09:27.000Z</time>
      </trkpt>
      <trkpt lat="47.22865" lon="6.74467">
        <ele>896</ele>
        <time>2018-07-01T09:09:28.000Z</time>
      </trkpt>
      <trkpt lat="47.22865" lon="6.74462">
        <ele>896</ele>
        <time>2018-07-01T09:09:29.000Z</time>
      </trkpt>
      <trkpt lat="47.22865" lon="6.74458">
        <ele>896</ele>
        <time>2018-07-01T09:09:30.000Z</time>
      </trkpt>
      <trkpt lat="47.22865" lon="6.74453">
        <ele>896</ele>
        <time>2018-07-01T09:09:31.000Z</time>
      </trkpt>
      <trkpt lat="47.22865" lon="6.74449">
        <ele>896</ele>
        <time>2018-07-01T09:09:32.000Z</time>
      </trkpt>
      <trkpt lat="47.22865" lon="6.74444">
        <ele>896</ele>
        <time>2018-07-01T09:09:33.000Z</time>
      </trkpt>
      <trkpt lat="47.22865" lon="6.7444">
        <ele>896</ele>
        <time>2018-07-01T09:09:34.000Z</time>
      </trkpt>
      <trkpt lat="47.22864" lon="6.74435">
        <ele>896</ele>
        <time>2018-07-01T09:09:35.000Z</time>
      </trkpt>
      <trkpt lat="47.22863" lon="6.7443">
        <ele>896</ele>
        <time>2018-07-01T09:09:36.000Z</time>
      </trkpt>
      <trkpt lat="47.22862" lon="6.74425">
        <ele>896</ele>
        <time>2018-07-01T09:09:37.000Z</time>
      </trkpt>
      <trkpt lat="47.22861" lon="6.7442">
        <ele>896</ele>
        <time>2018-07-01T09:09:38.000Z</time>
      </trkpt>
      <trkpt lat="47.2286" lon="6.74415">
        <ele>894</ele>
        <time>2018-07-01T09:09:39.000Z</time>
      </trkpt>
      <trkpt lat="47.22858" lon="6.74411">
        <ele>894</ele>
        <time>2018-07-01T09:09:40.000Z</time>
      </trkpt>
      <trkpt lat="47.22856" lon="6.74407">
        <ele>894</ele>
        <time>2018-07-01T09:09:41.000Z</time>
      </trkpt>
      <trkpt lat="47.22854" lon="6.74403">
        <ele>894</ele>
        <time>2018-07-01T09:09:42.000Z</time>
      </trkpt>
      <trkpt lat="47.22852" lon="6.74399">
        <ele>894</ele>
        <time>2018-07-01T09:09:43.000Z</time>
      </trkpt>
      <trkpt lat="47.2285" lon="6.74395">
        <ele>893</ele>
        <time>2018-07-01T09:09:44.000Z</time>
      </trkpt>
      <trkpt lat="47.22847" lon="6.74392">
        <ele>893</ele>
        <time>2018-07-01T09:09:45.000Z</time>
      </trkpt>
      <trkpt lat="47.22845" lon="6.7439">
        <ele>893</ele>
        <time>2018-07-01T09:09:46.000Z</time>
      </trkpt>
      <trkpt lat="47.22842" lon="6.74388">
        <ele>893</ele>
        <time>2018-07-01T09:09:47.000Z</time>
      </trkpt>
      <trkpt lat="47.2284" lon="6.74386">
        <ele>893</ele>
        <time>2018-07-01T09:09:48.000Z</time>
      </trkpt>
      <trkpt lat="47.22836" lon="6.74385">
        <ele>893</ele>
        <time>2018-07-01T09:09:49.000Z</time>
      </trkpt>
      <trkpt lat="47.22833" lon="6.74384">
        <ele>889</ele>
        <time>2018-07-01T09:09:50.000Z</time>
      </trkpt>
      <trkpt lat="47.22829" lon="6.74384">
        <ele>889</ele>
        <time>2018-07-01T09:09:51.000Z</time>
      </trkpt>
      <trkpt lat="47.22826" lon="6.74384">
        <ele>889</ele>
        <time>2018-07-01T09:09:52.000Z</time>
      </trkpt>
      <trkpt lat="47.22822" lon="6.74384">
        <ele>889</ele>
        <time>2018-07-01T09:09:53.000Z</time>
      </trkpt>
      <trkpt lat="47.22818" lon="6.74384">
        <ele>888</ele>
        <time>2018-07-01T09:09:54.000Z</time>
      </trkpt>
      <trkpt lat="47.22815" lon="6.74384">
        <ele>888</ele>
        <time>2018-07-01T09:09:55.000Z</time>
      </trkpt>
      <trkpt lat="47.22811" lon="6.74385">
        <ele>888</ele>
        <time>2018-07-01T09:09:56.000Z</time>
      </trkpt>
      <trkpt lat="47.22808" lon="6.74385">
        <ele>888</ele>
        <time>2018-07-01T09:09:57.000Z</time>
      </trkpt>
      <trkpt lat="47.22804" lon="6.74386">
        <ele>888</ele>
        <time>2018-07-01T09:09:58.000Z</time>
      </trkpt>
      <trkpt lat="47.228" lon="6.74386">
        <ele>887</ele>
        <time>2018-07-01T09:09:59.000Z</time>
      </trkpt>
      <trkpt lat="47.22795" lon="6.74387">
        <ele>887</ele>
        <time>2018-07-01T09:10:00.000Z</time>
      </trkpt>
      <trkpt lat="47.22791" lon="6.74387">
        <ele>887</ele>
        <time>2018-07-01T09:10:01.000Z</time>
      </trkpt>
      <trkpt lat="47.22786" lon="6.74388">
        <ele>887</ele>
        <time>2018-07-01T09:10:02.000Z</time>
      </trkpt>
      <trkpt lat="47.22781" lon="6.74388">
        <ele>886</ele>
        <time>2018-07-01T09:10:03.000Z</time>
      </trkpt>
      <trkpt lat="47.22776" lon="6.74388">
        <ele>886</ele>
        <time>2018-07-01T09:10:04.000Z</time>
      </trkpt>
      <trkpt lat="47.22771" lon="6.74389">
        <ele>886</ele>
        <time>2018-07-01T09:10:05.000Z</time>
      </trkpt>
      <trkpt lat="47.22766" lon="6.74389">
        <ele>885</ele>
        <time>2018-07-01T09:10:06.000Z</time>
      </trkpt>
      <trkpt lat="47.22761" lon="6.7439">
        <ele>885</ele>
        <time>2018-07-01T09:10:07.000Z</time>
      </trkpt>
      <trkpt lat="47.22757" lon="6.7439">
        <ele>885</ele>
        <time>2018-07-01T09:10:08.000Z</time>
      </trkpt>
      <trkpt lat="47.22752" lon="6.74391">
        <ele>885</ele>
        <time>2018-07-01T09:10:09.000Z</time>
      </trkpt>
      <trkpt lat="47.22748" lon="6.74392">
        <ele>879</ele>
        <time>2018-07-01T09:10:10.000Z</time>
      </trkpt>
      <trkpt lat="47.22744" lon="6.74393">
        <ele>879</ele>
        <time>2018-07-01T09:10:11.000Z</time>
      </trkpt>
      <trkpt lat="47.2274" lon="6.74394">
        <ele>879</ele>
        <time>2018-07-01T09:10:12.000Z</time>
      </trkpt>
      <trkpt lat="47.22737" lon="6.74395">
        <ele>878</ele>
        <time>2018-07-01T09:10:13.000Z</time>
      </trkpt>
      <trkpt lat="47.22733" lon="6.74397">
        <ele>878</ele>
        <time>2018-07-01T09:10:14.000Z</time>
      </trkpt>
      <trkpt lat="47.2273" lon="6.74398">
        <ele>878</ele>
        <time>2018-07-01T09:10:15.000Z</time>
      </trkpt>
      <trkpt lat="47.22726" lon="6.744">
        <ele>878</ele>
        <time>2018-07-01T09:10:16.000Z</time>
      </trkpt>
      <trkpt lat="47.22723" lon="6.74401">
        <ele>877</ele>
        <time>2018-07-01T09:10:17.000Z</time>
      </trkpt>
      <trkpt lat="47.2272" lon="6.74403">
        <ele>877</ele>
        <time>2018-07-01T09:10:18.000Z</time>
      </trkpt>
      <trkpt lat="47.22717" lon="6.74404">
        <ele>877</ele>
        <time>2018-07-01T09:10:19.000Z</time>
      </trkpt>
      <trkpt lat="47.22713" lon="6.74406">
        <ele>876</ele>
        <time>2018-07-01T09:10:20.000Z</time>
      </trkpt>
      <trkpt lat="47.22709" lon="6.74407">
        <ele>876</ele>
        <time>2018-07-01T09:10:21.000Z</time>
      </trkpt>
      <trkpt lat="47.22706" lon="6.74409">
        <ele>876</ele>
        <time>2018-07-01T09:10:22.000Z</time>
      </trkpt>
      <trkpt lat="47.22702" lon="6.74412">
        <ele>875</ele>
        <time>2018-07-01T09:10:23.000Z</time>
      </trkpt>
      <trkpt lat="47.22698" lon="6.74414">
        <ele>875</ele>
        <time>2018-07-01T09:10:24.000Z</time>
      </trkpt>
      <trkpt lat="47.22695" lon="6.74417">
        <ele>875</ele>
        <time>2018-07-01T09:10:25.000Z</time>
      </trkpt>
      <trkpt lat="47.22692" lon="6.74421">
        <ele>875</ele>
        <time>2018-07-01T09:10:26.000Z</time>
      </trkpt>
      <trkpt lat="47.22689" lon="6.74425">
        <ele>875</ele>
        <time>2018-07-01T09:10:27.000Z</time>
      </trkpt>
      <trkpt lat="47.22686" lon="6.7443">
        <ele>874</ele>
        <time>2018-07-01T09:10:28.000Z</time>
      </trkpt>
      <trkpt lat="47.22683" lon="6.74435">
        <ele>875</ele>
        <time>2018-07-01T09:10:29.000Z</time>
      </trkpt>
      <trkpt lat="47.22682" lon="6.74439">
        <ele>875</ele>
        <time>2018-07-01T09:10:30.000Z</time>
      </trkpt>
      <trkpt lat="47.2268" lon="6.74444">
        <ele>875</ele>
        <time>2018-07-01T09:10:31.000Z</time>
      </trkpt>
      <trkpt lat="47.22678" lon="6.74448">
        <ele>875</ele>
        <time>2018-07-01T09:10:32.000Z</time>
      </trkpt>
      <trkpt lat="47.22677" lon="6.74453">
        <ele>875</ele>
        <time>2018-07-01T09:10:33.000Z</time>
      </trkpt>
      <trkpt lat="47.22675" lon="6.74458">
        <ele>876</ele>
        <time>2018-07-01T09:10:34.000Z</time>
      </trkpt>
      <trkpt lat="47.22673" lon="6.74462">
        <ele>876</ele>
        <time>2018-07-01T09:10:35.000Z</time>
      </trkpt>
      <trkpt lat="47.2267" lon="6.74467">
        <ele>876</ele>
        <time>2018-07-01T09:10:36.000Z</time>
      </trkpt>
      <trkpt lat="47.22668" lon="6.74472">
        <ele>876</ele>
        <time>2018-07-01T09:10:37.000Z</time>
      </trkpt>
      <trkpt lat="47.22665" lon="6.74476">
        <ele>871</ele>
        <time>2018-07-01T09:10:38.000Z</time>
      </trkpt>
      <trkpt lat="47.22662" lon="6.74479">
        <ele>871</ele>
        <time>2018-07-01T09:10:39.000Z</time>
      </trkpt>
      <trkpt lat="47.22659" lon="6.74481">
        <ele>872</ele>
        <time>2018-07-01T09:10:40.000Z</time>
      </trkpt>
      <trkpt lat="47.22656" lon="6.74483">
        <ele>872</ele>
        <time>2018-07-01T09:10:41.000Z</time>
      </trkpt>
      <trkpt lat="47.22653" lon="6.74484">
        <ele>871</ele>
        <time>2018-07-01T09:10:42.000Z</time>
      </trkpt>
      <trkpt lat="47.22649" lon="6.74485">
        <ele>871</ele>
        <time>2018-07-01T09:10:43.000Z</time>
      </trkpt>
      <trkpt lat="47.22646" lon="6.74484">
        <ele>871</ele>
        <time>2018-07-01T09:10:44.000Z</time>
      </trkpt>
      <trkpt lat="47.22642" lon="6.74483">
        <ele>870</ele>
        <time>2018-07-01T09:10:45.000Z</time>
      </trkpt>
      <trkpt lat="47.22639" lon="6.74482">
        <ele>870</ele>
        <time>2018-07-01T09:10:46.000Z</time>
      </trkpt>
      <trkpt lat="47.22635" lon="6.74481">
        <ele>869</ele>
        <time>2018-07-01T09:10:47.000Z</time>
      </trkpt>
      <trkpt lat="47.22631" lon="6.7448">
        <ele>869</ele>
        <time>2018-07-01T09:10:48.000Z</time>
      </trkpt>
      <trkpt lat="47.22627" lon="6.74479">
        <ele>869</ele>
        <time>2018-07-01T09:10:49.000Z</time>
      </trkpt>
      <trkpt lat="47.22624" lon="6.74478">
        <ele>868</ele>
        <time>2018-07-01T09:10:50.000Z</time>
      </trkpt>
      <trkpt lat="47.2262" lon="6.74476">
        <ele>868</ele>
        <time>2018-07-01T09:10:51.000Z</time>
      </trkpt>
      <trkpt lat="47.22617" lon="6.74474">
        <ele>868</ele>
        <time>2018-07-01T09:10:52.000Z</time>
      </trkpt>
      <trkpt lat="47.22614" lon="6.74472">
        <ele>868</ele>
        <time>2018-07-01T09:10:53.000Z</time>
      </trkpt>
      <trkpt lat="47.22611" lon="6.7447">
        <ele>867</ele>
        <time>2018-07-01T09:10:54.000Z</time>
      </trkpt>
      <trkpt lat="47.22608" lon="6.74468">
        <ele>867</ele>
        <time>2018-07-01T09:10:55.000Z</time>
      </trkpt>
      <trkpt lat="47.22605" lon="6.74465">
        <ele>867</ele>
        <time>2018-07-01T09:10:56.000Z</time>
      </trkpt>
      <trkpt lat="47.22602" lon="6.74463">
        <ele>867</ele>
        <time>2018-07-01T09:10:57.000Z</time>
      </trkpt>
      <trkpt lat="47.22599" lon="6.74461">
        <ele>867</ele>
        <time>2018-07-01T09:10:58.000Z</time>
      </trkpt>
      <trkpt lat="47.22596" lon="6.7446">
        <ele>867</ele>
        <time>2018-07-01T09:10:59.000Z</time>
      </trkpt>
      <trkpt lat="47.22593" lon="6.74458">
        <ele>866</ele>
        <time>2018-07-01T09:11:00.000Z</time>
      </trkpt>
      <trkpt lat="47.2259" lon="6.74456">
        <ele>866</ele>
        <time>2018-07-01T09:11:01.000Z</time>
      </trkpt>
      <trkpt lat="47.22587" lon="6.74454">
        <ele>866</ele>
        <time>2018-07-01T09:11:02.000Z</time>
      </trkpt>
      <trkpt lat="47.22585" lon="6.74452">
        <ele>866</ele>
        <time>2018-07-01T09:11:03.000Z</time>
      </trkpt>
      <trkpt lat="47.22582" lon="6.74451">
        <ele>856</ele>
        <time>2018-07-01T09:11:04.000Z</time>
      </trkpt>
      <trkpt lat="47.22579" lon="6.74449">
        <ele>856</ele>
        <time>2018-07-01T09:11:05.000Z</time>
      </trkpt>
      <trkpt lat="47.22576" lon="6.74449">
        <ele>856</ele>
        <time>2018-07-01T09:11:06.000Z</time>
      </trkpt>
      <trkpt lat="47.22572" lon="6.74449">
        <ele>856</ele>
        <time>2018-07-01T09:11:07.000Z</time>
      </trkpt>
      <trkpt lat="47.22568" lon="6.74449">
        <ele>855</ele>
        <time>2018-07-01T09:11:08.000Z</time>
      </trkpt>
      <trkpt lat="47.22564" lon="6.7445">
        <ele>855</ele>
        <time>2018-07-01T09:11:09.000Z</time>
      </trkpt>
      <trkpt lat="47.2256" lon="6.74451">
        <ele>855</ele>
        <time>2018-07-01T09:11:10.000Z</time>
      </trkpt>
      <trkpt lat="47.22556" lon="6.74452">
        <ele>854</ele>
        <time>2018-07-01T09:11:11.000Z</time>
      </trkpt>
      <trkpt lat="47.22553" lon="6.74453">
        <ele>854</ele>
        <time>2018-07-01T09:11:12.000Z</time>
      </trkpt>
      <trkpt lat="47.22549" lon="6.74454">
        <ele>853</ele>
        <time>2018-07-01T09:11:13.000Z</time>
      </trkpt>
      <trkpt lat="47.22545" lon="6.74455">
        <ele>853</ele>
        <time>2018-07-01T09:11:14.000Z</time>
      </trkpt>
      <trkpt lat="47.22542" lon="6.74456">
        <ele>852</ele>
        <time>2018-07-01T09:11:15.000Z</time>
      </trkpt>
      <trkpt lat="47.22539" lon="6.74458">
        <ele>852</ele>
        <time>2018-07-01T09:11:16.000Z</time>
      </trkpt>
      <trkpt lat="47.22536" lon="6.74461">
        <ele>852</ele>
        <time>2018-07-01T09:11:17.000Z</time>
      </trkpt>
      <trkpt lat="47.22533" lon="6.74465">
        <ele>851</ele>
        <time>2018-07-01T09:11:18.000Z</time>
      </trkpt>
      <trkpt lat="47.22531" lon="6.74469">
        <ele>851</ele>
        <time>2018-07-01T09:11:19.000Z</time>
      </trkpt>
      <trkpt lat="47.22529" lon="6.74474">
        <ele>851</ele>
        <time>2018-07-01T09:11:20.000Z</time>
      </trkpt>
      <trkpt lat="47.22528" lon="6.7448">
        <ele>850</ele>
        <time>2018-07-01T09:11:21.000Z</time>
      </trkpt>
      <trkpt lat="47.22527" lon="6.74486">
        <ele>850</ele>
        <time>2018-07-01T09:11:22.000Z</time>
      </trkpt>
      <trkpt lat="47.22526" lon="6.74493">
        <ele>849</ele>
        <time>2018-07-01T09:11:23.000Z</time>
      </trkpt>
      <trkpt lat="47.22525" lon="6.74499">
        <ele>849</ele>
        <time>2018-07-01T09:11:24.000Z</time>
      </trkpt>
      <trkpt lat="47.22525" lon="6.74505">
        <ele>848</ele>
        <time>2018-07-01T09:11:25.000Z</time>
      </trkpt>
      <trkpt lat="47.22524" lon="6.74511">
        <ele>849</ele>
        <time>2018-07-01T09:11:26.000Z</time>
      </trkpt>
      <trkpt lat="47.22524" lon="6.74517">
        <ele>849</ele>
        <time>2018-07-01T09:11:27.000Z</time>
      </trkpt>
      <trkpt lat="47.22524" lon="6.74522">
        <ele>849</ele>
        <time>2018-07-01T09:11:28.000Z</time>
      </trkpt>
      <trkpt lat="47.22524" lon="6.74528">
        <ele>849</ele>
        <time>2018-07-01T09:11:29.000Z</time>
      </trkpt>
      <trkpt lat="47.22524" lon="6.74534">
        <ele>849</ele>
        <time>2018-07-01T09:11:30.000Z</time>
      </trkpt>
      <trkpt lat="47.22524" lon="6.74539">
        <ele>849</ele>
        <time>2018-07-01T09:11:31.000Z</time>
      </trkpt>
      <trkpt lat="47.22523" lon="6.74543">
        <ele>849</ele>
        <time>2018-07-01T09:11:32.000Z</time>
      </trkpt>
      <trkpt lat="47.22523" lon="6.74546">
        <ele>849</ele>
        <time>2018-07-01T09:11:33.000Z</time>
      </trkpt>
      <trkpt lat="47.22522" lon="6.7455">
        <ele>849</ele>
        <time>2018-07-01T09:11:34.000Z</time>
      </trkpt>
      <trkpt lat="47.2252" lon="6.74552">
        <ele>849</ele>
        <time>2018-07-01T09:11:35.000Z</time>
      </trkpt>
      <trkpt lat="47.22518" lon="6.74552">
        <ele>848</ele>
        <time>2018-07-01T09:11:36.000Z</time>
      </trkpt>
      <trkpt lat="47.22515" lon="6.7455">
        <ele>848</ele>
        <time>2018-07-01T09:11:37.000Z</time>
      </trkpt>
      <trkpt lat="47.22511" lon="6.74547">
        <ele>848</ele>
        <time>2018-07-01T09:11:38.000Z</time>
      </trkpt>
      <trkpt lat="47.22508" lon="6.74543">
        <ele>848</ele>
        <time>2018-07-01T09:11:39.000Z</time>
      </trkpt>
      <trkpt lat="47.22504" lon="6.74539">
        <ele>848</ele>
        <time>2018-07-01T09:11:40.000Z</time>
      </trkpt>
      <trkpt lat="47.22501" lon="6.74534">
        <ele>847</ele>
        <time>2018-07-01T09:11:41.000Z</time>
      </trkpt>
      <trkpt lat="47.22498" lon="6.7453">
        <ele>842</ele>
        <time>2018-07-01T09:11:42.000Z</time>
      </trkpt>
      <trkpt lat="47.22495" lon="6.74525">
        <ele>842</ele>
        <time>2018-07-01T09:11:43.000Z</time>
      </trkpt>
      <trkpt lat="47.22492" lon="6.74521">
        <ele>842</ele>
        <time>2018-07-01T09:11:44.000Z</time>
      </trkpt>
      <trkpt lat="47.2249" lon="6.74516">
        <ele>842</ele>
        <time>2018-07-01T09:11:45.000Z</time>
      </trkpt>
      <trkpt lat="47.22488" lon="6.74511">
        <ele>842</ele>
        <time>2018-07-01T09:11:46.000Z</time>
      </trkpt>
      <trkpt lat="47.22486" lon="6.74507">
        <ele>842</ele>
        <time>2018-07-01T09:11:47.000Z</time>
      </trkpt>
      <trkpt lat="47.22484" lon="6.74502">
        <ele>842</ele>
        <time>2018-07-01T09:11:48.000Z</time>
      </trkpt>
      <trkpt lat="47.22482" lon="6.74497">
        <ele>838</ele>
        <time>2018-07-01T09:11:49.000Z</time>
      </trkpt>
      <trkpt lat="47.2248" lon="6.74493">
        <ele>838</ele>
        <time>2018-07-01T09:11:50.000Z</time>
      </trkpt>
      <trkpt lat="47.22479" lon="6.74489">
        <ele>838</ele>
        <time>2018-07-01T09:11:51.000Z</time>
      </trkpt>
      <trkpt lat="47.22477" lon="6.74484">
        <ele>838</ele>
        <time>2018-07-01T09:11:52.000Z</time>
      </trkpt>
      <trkpt lat="47.22475" lon="6.7448">
        <ele>837</ele>
        <time>2018-07-01T09:11:53.000Z</time>
      </trkpt>
      <trkpt lat="47.22473" lon="6.74475">
        <ele>837</ele>
        <time>2018-07-01T09:11:54.000Z</time>
      </trkpt>
      <trkpt lat="47.22471" lon="6.7447">
        <ele>837</ele>
        <time>2018-07-01T09:11:55.000Z</time>
      </trkpt>
      <trkpt lat="47.2247" lon="6.74466">
        <ele>837</ele>
        <time>2018-07-01T09:11:56.000Z</time>
      </trkpt>
      <trkpt lat="47.22468" lon="6.74462">
        <ele>836</ele>
        <time>2018-07-01T09:11:57.000Z</time>
      </trkpt>
      <trkpt lat="47.22466" lon="6.74457">
        <ele>836</ele>
        <time>2018-07-01T09:11:58.000Z</time>
      </trkpt>
      <trkpt lat="47.22464" lon="6.74453">
        <ele>836</ele>
        <time>2018-07-01T09:11:59.000Z</time>
      </trkpt>
      <trkpt lat="47.22462" lon="6.74449">
        <ele>836</ele>
        <time>2018-07-01T09:12:00.000Z</time>
      </trkpt>
      <trkpt lat="47.2246" lon="6.74446">
        <ele>835</ele>
        <time>2018-07-01T09:12:01.000Z</time>
      </trkpt>
      <trkpt lat="47.22457" lon="6.74442">
        <ele>835</ele>
        <time>2018-07-01T09:12:02.000Z</time>
      </trkpt>
      <trkpt lat="47.22454" lon="6.74439">
        <ele>834</ele>
        <time>2018-07-01T09:12:03.000Z</time>
      </trkpt>
      <trkpt lat="47.22451" lon="6.74436">
        <ele>834</ele>
        <time>2018-07-01T09:12:04.000Z</time>
      </trkpt>
      <trkpt lat="47.22449" lon="6.74434">
        <ele>833</ele>
        <time>2018-07-01T09:12:05.000Z</time>
      </trkpt>
      <trkpt lat="47.22446" lon="6.74431">
        <ele>833</ele>
        <time>2018-07-01T09:12:06.000Z</time>
      </trkpt>
      <trkpt lat="47.22444" lon="6.74429">
        <ele>832</ele>
        <time>2018-07-01T09:12:07.000Z</time>
      </trkpt>
      <trkpt lat="47.22441" lon="6.74427">
        <ele>831</ele>
        <time>2018-07-01T09:12:08.000Z</time>
      </trkpt>
      <trkpt lat="47.22437" lon="6.74425">
        <ele>830</ele>
        <time>2018-07-01T09:12:09.000Z</time>
      </trkpt>
      <trkpt lat="47.22434" lon="6.74424">
        <ele>829</ele>
        <time>2018-07-01T09:12:10.000Z</time>
      </trkpt>
      <trkpt lat="47.22431" lon="6.74422">
        <ele>828</ele>
        <time>2018-07-01T09:12:11.000Z</time>
      </trkpt>
      <trkpt lat="47.22428" lon="6.7442">
        <ele>827</ele>
        <time>2018-07-01T09:12:12.000Z</time>
      </trkpt>
      <trkpt lat="47.22425" lon="6.74417">
        <ele>826</ele>
        <time>2018-07-01T09:12:13.000Z</time>
      </trkpt>
      <trkpt lat="47.22421" lon="6.74415">
        <ele>824</ele>
        <time>2018-07-01T09:12:14.000Z</time>
      </trkpt>
      <trkpt lat="47.22418" lon="6.74412">
        <ele>823</ele>
        <time>2018-07-01T09:12:15.000Z</time>
      </trkpt>
      <trkpt lat="47.22414" lon="6.7441">
        <ele>822</ele>
        <time>2018-07-01T09:12:16.000Z</time>
      </trkpt>
      <trkpt lat="47.22411" lon="6.74406">
        <ele>822</ele>
        <time>2018-07-01T09:12:17.000Z</time>
      </trkpt>
      <trkpt lat="47.22408" lon="6.74404">
        <ele>822</ele>
        <time>2018-07-01T09:12:18.000Z</time>
      </trkpt>
      <trkpt lat="47.22404" lon="6.744">
        <ele>822</ele>
        <time>2018-07-01T09:12:19.000Z</time>
      </trkpt>
      <trkpt lat="47.22402" lon="6.74396">
        <ele>822</ele>
        <time>2018-07-01T09:12:20.000Z</time>
      </trkpt>
      <trkpt lat="47.224" lon="6.74392">
        <ele>822</ele>
        <time>2018-07-01T09:12:21.000Z</time>
      </trkpt>
      <trkpt lat="47.22398" lon="6.74387">
        <ele>822</ele>
        <time>2018-07-01T09:12:22.000Z</time>
      </trkpt>
      <trkpt lat="47.22397" lon="6.74382">
        <ele>822</ele>
        <time>2018-07-01T09:12:23.000Z</time>
      </trkpt>
      <trkpt lat="47.22395" lon="6.74377">
        <ele>822</ele>
        <time>2018-07-01T09:12:24.000Z</time>
      </trkpt>
      <trkpt lat="47.22394" lon="6.74372">
        <ele>822</ele>
        <time>2018-07-01T09:12:25.000Z</time>
      </trkpt>
      <trkpt lat="47.22393" lon="6.74367">
        <ele>821</ele>
        <time>2018-07-01T09:12:26.000Z</time>
      </trkpt>
      <trkpt lat="47.22392" lon="6.74362">
        <ele>821</ele>
        <time>2018-07-01T09:12:27.000Z</time>
      </trkpt>
      <trkpt lat="47.22391" lon="6.74358">
        <ele>821</ele>
        <time>2018-07-01T09:12:28.000Z</time>
      </trkpt>
      <trkpt lat="47.2239" lon="6.74353">
        <ele>821</ele>
        <time>2018-07-01T09:12:29.000Z</time>
      </trkpt>
      <trkpt lat="47.22389" lon="6.74348">
        <ele>821</ele>
        <time>2018-07-01T09:12:30.000Z</time>
      </trkpt>
      <trkpt lat="47.22388" lon="6.74343">
        <ele>821</ele>
        <time>2018-07-01T09:12:31.000Z</time>
      </trkpt>
      <trkpt lat="47.22387" lon="6.74339">
        <ele>821</ele>
        <time>2018-07-01T09:12:32.000Z</time>
      </trkpt>
      <trkpt lat="47.22385" lon="6.74334">
        <ele>821</ele>
        <time>2018-07-01T09:12:33.000Z</time>
      </trkpt>
      <trkpt lat="47.22384" lon="6.7433">
        <ele>819</ele>
        <time>2018-07-01T09:12:34.000Z</time>
      </trkpt>
      <trkpt lat="47.22383" lon="6.74325">
        <ele>819</ele>
        <time>2018-07-01T09:12:35.000Z</time>
      </trkpt>
      <trkpt lat="47.22382" lon="6.74321">
        <ele>819</ele>
        <time>2018-07-01T09:12:36.000Z</time>
      </trkpt>
      <trkpt lat="47.22381" lon="6.74317">
        <ele>819</ele>
        <time>2018-07-01T09:12:37.000Z</time>
      </trkpt>
      <trkpt lat="47.22379" lon="6.74312">
        <ele>820</ele>
        <time>2018-07-01T09:12:38.000Z</time>
      </trkpt>
      <trkpt lat="47.22378" lon="6.74308">
        <ele>820</ele>
        <time>2018-07-01T09:12:39.000Z</time>
      </trkpt>
      <trkpt lat="47.22377" lon="6.74304">
        <ele>820</ele>
        <time>2018-07-01T09:12:40.000Z</time>
      </trkpt>
      <trkpt lat="47.22376" lon="6.74299">
        <ele>820</ele>
        <time>2018-07-01T09:12:41.000Z</time>
      </trkpt>
      <trkpt lat="47.22375" lon="6.74295">
        <ele>820</ele>
        <time>2018-07-01T09:12:42.000Z</time>
      </trkpt>
      <trkpt lat="47.22374" lon="6.74291">
        <ele>820</ele>
        <time>2018-07-01T09:12:43.000Z</time>
      </trkpt>
      <trkpt lat="47.22372" lon="6.74286">
        <ele>820</ele>
        <time>2018-07-01T09:12:44.000Z</time>
      </trkpt>
      <trkpt lat="47.22371" lon="6.74282">
        <ele>820</ele>
        <time>2018-07-01T09:12:45.000Z</time>
      </trkpt>
      <trkpt lat="47.2237" lon="6.74278">
        <ele>820</ele>
        <time>2018-07-01T09:12:46.000Z</time>
      </trkpt>
      <trkpt lat="47.22369" lon="6.74273">
        <ele>820</ele>
        <time>2018-07-01T09:12:47.000Z</time>
      </trkpt>
      <trkpt lat="47.22368" lon="6.74269">
        <ele>819</ele>
        <time>2018-07-01T09:12:48.000Z</time>
      </trkpt>
      <trkpt lat="47.22366" lon="6.74265">
        <ele>819</ele>
        <time>2018-07-01T09:12:49.000Z</time>
      </trkpt>
      <trkpt lat="47.22365" lon="6.7426">
        <ele>819</ele>
        <time>2018-07-01T09:12:50.000Z</time>
      </trkpt>
      <trkpt lat="47.22364" lon="6.74255">
        <ele>819</ele>
        <time>2018-07-01T09:12:51.000Z</time>
      </trkpt>
      <trkpt lat="47.22363" lon="6.74251">
        <ele>819</ele>
        <time>2018-07-01T09:12:52.000Z</time>
      </trkpt>
      <trkpt lat="47.22362" lon="6.74247">
        <ele>822</ele>
        <time>2018-07-01T09:12:53.000Z</time>
      </trkpt>
      <trkpt lat="47.2236" lon="6.74242">
        <ele>822</ele>
        <time>2018-07-01T09:12:54.000Z</time>
      </trkpt>
      <trkpt lat="47.22359" lon="6.74238">
        <ele>822</ele>
        <time>2018-07-01T09:12:55.000Z</time>
      </trkpt>
      <trkpt lat="47.22358" lon="6.74233">
        <ele>822</ele>
        <time>2018-07-01T09:12:56.000Z</time>
      </trkpt>
      <trkpt lat="47.22358" lon="6.74229">
        <ele>822</ele>
        <time>2018-07-01T09:12:57.000Z</time>
      </trkpt>
      <trkpt lat="47.22357" lon="6.74224">
        <ele>822</ele>
        <time>2018-07-01T09:12:58.000Z</time>
      </trkpt>
      <trkpt lat="47.22357" lon="6.74219">
        <ele>823</ele>
        <time>2018-07-01T09:12:59.000Z</time>
      </trkpt>
      <trkpt lat="47.22356" lon="6.74215">
        <ele>823</ele>
        <time>2018-07-01T09:13:00.000Z</time>
      </trkpt>
      <trkpt lat="47.22356" lon="6.7421">
        <ele>823</ele>
        <time>2018-07-01T09:13:01.000Z</time>
      </trkpt>
      <trkpt lat="47.22355" lon="6.74205">
        <ele>823</ele>
        <time>2018-07-01T09:13:02.000Z</time>
      </trkpt>
      <trkpt lat="47.22355" lon="6.74201">
        <ele>824</ele>
        <time>2018-07-01T09:13:03.000Z</time>
      </trkpt>
      <trkpt lat="47.22354" lon="6.74196">
        <ele>824</ele>
        <time>2018-07-01T09:13:04.000Z</time>
      </trkpt>
      <trkpt lat="47.22354" lon="6.74192">
        <ele>824</ele>
        <time>2018-07-01T09:13:05.000Z</time>
      </trkpt>
      <trkpt lat="47.22353" lon="6.74188">
        <ele>823</ele>
        <time>2018-07-01T09:13:06.000Z</time>
      </trkpt>
      <trkpt lat="47.22353" lon="6.74184">
        <ele>823</ele>
        <time>2018-07-01T09:13:07.000Z</time>
      </trkpt>
      <trkpt lat="47.22352" lon="6.7418">
        <ele>823</ele>
        <time>2018-07-01T09:13:08.000Z</time>
      </trkpt>
      <trkpt lat="47.22352" lon="6.74176">
        <ele>823</ele>
        <time>2018-07-01T09:13:09.000Z</time>
      </trkpt>
      <trkpt lat="47.22351" lon="6.74172">
        <ele>823</ele>
        <time>2018-07-01T09:13:10.000Z</time>
      </trkpt>
      <trkpt lat="47.22351" lon="6.74167">
        <ele>823</ele>
        <time>2018-07-01T09:13:11.000Z</time>
      </trkpt>
      <trkpt lat="47.2235" lon="6.74163">
        <ele>825</ele>
        <time>2018-07-01T09:13:12.000Z</time>
      </trkpt>
      <trkpt lat="47.22349" lon="6.74159">
        <ele>825</ele>
        <time>2018-07-01T09:13:13.000Z</time>
      </trkpt>
      <trkpt lat="47.22348" lon="6.74155">
        <ele>825</ele>
        <time>2018-07-01T09:13:14.000Z</time>
      </trkpt>
      <trkpt lat="47.22347" lon="6.7415">
        <ele>826</ele>
        <time>2018-07-01T09:13:15.000Z</time>
      </trkpt>
      <trkpt lat="47.22347" lon="6.74146">
        <ele>826</ele>
        <time>2018-07-01T09:13:16.000Z</time>
      </trkpt>
      <trkpt lat="47.22345" lon="6.74141">
        <ele>827</ele>
        <time>2018-07-01T09:13:17.000Z</time>
      </trkpt>
      <trkpt lat="47.22344" lon="6.74137">
        <ele>827</ele>
        <time>2018-07-01T09:13:18.000Z</time>
      </trkpt>
      <trkpt lat="47.22342" lon="6.74132">
        <ele>827</ele>
        <time>2018-07-01T09:13:19.000Z</time>
      </trkpt>
      <trkpt lat="47.22341" lon="6.74128">
        <ele>827</ele>
        <time>2018-07-01T09:13:20.000Z</time>
      </trkpt>
      <trkpt lat="47.2234" lon="6.74124">
        <ele>827</ele>
        <time>2018-07-01T09:13:21.000Z</time>
      </trkpt>
      <trkpt lat="47.22339" lon="6.7412">
        <ele>827</ele>
        <time>2018-07-01T09:13:22.000Z</time>
      </trkpt>
      <trkpt lat="47.22337" lon="6.74116">
        <ele>827</ele>
        <time>2018-07-01T09:13:23.000Z</time>
      </trkpt>
      <trkpt lat="47.22336" lon="6.74112">
        <ele>827</ele>
        <time>2018-07-01T09:13:24.000Z</time>
      </trkpt>
      <trkpt lat="47.22335" lon="6.74108">
        <ele>827</ele>
        <time>2018-07-01T09:13:25.000Z</time>
      </trkpt>
      <trkpt lat="47.22333" lon="6.74104">
        <ele>822</ele>
        <time>2018-07-01T09:13:26.000Z</time>
      </trkpt>
      <trkpt lat="47.22331" lon="6.741">
        <ele>822</ele>
        <time>2018-07-01T09:13:27.000Z</time>
      </trkpt>
      <trkpt lat="47.22329" lon="6.74095">
        <ele>822</ele>
        <time>2018-07-01T09:13:28.000Z</time>
      </trkpt>
      <trkpt lat="47.22327" lon="6.74091">
        <ele>822</ele>
        <time>2018-07-01T09:13:29.000Z</time>
      </trkpt>
      <trkpt lat="47.22325" lon="6.74088">
        <ele>822</ele>
        <time>2018-07-01T09:13:30.000Z</time>
      </trkpt>
      <trkpt lat="47.22323" lon="6.74084">
        <ele>822</ele>
        <time>2018-07-01T09:13:31.000Z</time>
      </trkpt>
      <trkpt lat="47.22321" lon="6.7408">
        <ele>822</ele>
        <time>2018-07-01T09:13:32.000Z</time>
      </trkpt>
      <trkpt lat="47.22319" lon="6.74076">
        <ele>822</ele>
        <time>2018-07-01T09:13:33.000Z</time>
      </trkpt>
      <trkpt lat="47.22318" lon="6.74072">
        <ele>822</ele>
        <time>2018-07-01T09:13:34.000Z</time>
      </trkpt>
      <trkpt lat="47.22317" lon="6.74069">
        <ele>822</ele>
        <time>2018-07-01T09:13:35.000Z</time>
      </trkpt>
      <trkpt lat="47.22315" lon="6.74065">
        <ele>822</ele>
        <time>2018-07-01T09:13:36.000Z</time>
      </trkpt>
      <trkpt lat="47.22314" lon="6.74061">
        <ele>822</ele>
        <time>2018-07-01T09:13:37.000Z</time>
      </trkpt>
      <trkpt lat="47.22312" lon="6.74057">
        <ele>822</ele>
        <time>2018-07-01T09:13:38.000Z</time>
      </trkpt>
      <trkpt lat="47.2231" lon="6.74053">
        <ele>822</ele>
        <time>2018-07-01T09:13:39.000Z</time>
      </trkpt>
      <trkpt lat="47.22308" lon="6.74049">
        <ele>822</ele>
        <time>2018-07-01T09:13:40.000Z</time>
      </trkpt>
      <trkpt lat="47.22307" lon="6.74045">
        <ele>822</ele>
        <time>2018-07-01T09:13:41.000Z</time>
      </trkpt>
      <trkpt lat="47.22305" lon="6.74041">
        <ele>822</ele>
        <time>2018-07-01T09:13:42.000Z</time>
      </trkpt>
      <trkpt lat="47.22304" lon="6.74037">
        <ele>822</ele>
        <time>2018-07-01T09:13:43.000Z</time>
      </trkpt>
      <trkpt lat="47.22303" lon="6.74033">
        <ele>822</ele>
        <time>2018-07-01T09:13:44.000Z</time>
      </trkpt>
      <trkpt lat="47.22302" lon="6.74028">
        <ele>822</ele>
        <time>2018-07-01T09:13:45.000Z</time>
      </trkpt>
      <trkpt lat="47.22302" lon="6.74024">
        <ele>822</ele>
        <time>2018-07-01T09:13:46.000Z</time>
      </trkpt>
      <trkpt lat="47.22302" lon="6.7402">
        <ele>822</ele>
        <time>2018-07-01T09:13:47.000Z</time>
      </trkpt>
      <trkpt lat="47.22302" lon="6.74015">
        <ele>822</ele>
        <time>2018-07-01T09:13:48.000Z</time>
      </trkpt>
      <trkpt lat="47.22302" lon="6.74011">
        <ele>823</ele>
        <time>2018-07-01T09:13:49.000Z</time>
      </trkpt>
      <trkpt lat="47.22303" lon="6.74006">
        <ele>823</ele>
        <time>2018-07-01T09:13:50.000Z</time>
      </trkpt>
      <trkpt lat="47.22303" lon="6.74002">
        <ele>823</ele>
        <time>2018-07-01T09:13:51.000Z</time>
      </trkpt>
      <trkpt lat="47.22304" lon="6.73997">
        <ele>823</ele>
        <time>2018-07-01T09:13:52.000Z</time>
      </trkpt>
      <trkpt lat="47.22305" lon="6.73992">
        <ele>823</ele>
        <time>2018-07-01T09:13:53.000Z</time>
      </trkpt>
      <trkpt lat="47.22305" lon="6.73988">
        <ele>823</ele>
        <time>2018-07-01T09:13:54.000Z</time>
      </trkpt>
      <trkpt lat="47.22305" lon="6.73983">
        <ele>823</ele>
        <time>2018-07-01T09:13:55.000Z</time>
      </trkpt>
      <trkpt lat="47.22306" lon="6.73978">
        <ele>823</ele>
        <time>2018-07-01T09:13:56.000Z</time>
      </trkpt>
      <trkpt lat="47.22306" lon="6.73974">
        <ele>823</ele>
        <time>2018-07-01T09:13:57.000Z</time>
      </trkpt>
      <trkpt lat="47.22307" lon="6.73969">
        <ele>822</ele>
        <time>2018-07-01T09:13:58.000Z</time>
      </trkpt>
      <trkpt lat="47.22308" lon="6.73964">
        <ele>822</ele>
        <time>2018-07-01T09:13:59.000Z</time>
      </trkpt>
      <trkpt lat="47.22308" lon="6.73959">
        <ele>822</ele>
        <time>2018-07-01T09:14:00.000Z</time>
      </trkpt>
      <trkpt lat="47.22308" lon="6.73955">
        <ele>822</ele>
        <time>2018-07-01T09:14:01.000Z</time>
      </trkpt>
      <trkpt lat="47.22308" lon="6.7395">
        <ele>822</ele>
        <time>2018-07-01T09:14:02.000Z</time>
      </trkpt>
      <trkpt lat="47.22308" lon="6.73945">
        <ele>822</ele>
        <time>2018-07-01T09:14:03.000Z</time>
      </trkpt>
      <trkpt lat="47.22309" lon="6.73941">
        <ele>822</ele>
        <time>2018-07-01T09:14:04.000Z</time>
      </trkpt>
      <trkpt lat="47.22309" lon="6.73936">
        <ele>821</ele>
        <time>2018-07-01T09:14:05.000Z</time>
      </trkpt>
      <trkpt lat="47.22309" lon="6.73932">
        <ele>821</ele>
        <time>2018-07-01T09:14:06.000Z</time>
      </trkpt>
      <trkpt lat="47.22309" lon="6.73927">
        <ele>821</ele>
        <time>2018-07-01T09:14:07.000Z</time>
      </trkpt>
      <trkpt lat="47.22309" lon="6.73923">
        <ele>821</ele>
        <time>2018-07-01T09:14:08.000Z</time>
      </trkpt>
      <trkpt lat="47.2231" lon="6.73919">
        <ele>821</ele>
        <time>2018-07-01T09:14:09.000Z</time>
      </trkpt>
      <trkpt lat="47.22311" lon="6.73914">
        <ele>822</ele>
        <time>2018-07-01T09:14:10.000Z</time>
      </trkpt>
      <trkpt lat="47.22312" lon="6.7391">
        <ele>822</ele>
        <time>2018-07-01T09:14:11.000Z</time>
      </trkpt>
      <trkpt lat="47.22312" lon="6.73906">
        <ele>822</ele>
        <time>2018-07-01T09:14:12.000Z</time>
      </trkpt>
      <trkpt lat="47.22313" lon="6.73902">
        <ele>822</ele>
        <time>2018-07-01T09:14:13.000Z</time>
      </trkpt>
      <trkpt lat="47.22314" lon="6.73898">
        <ele>822</ele>
        <time>2018-07-01T09:14:14.000Z</time>
      </trkpt>
      <trkpt lat="47.22314" lon="6.73894">
        <ele>823</ele>
        <time>2018-07-01T09:14:15.000Z</time>
      </trkpt>
      <trkpt lat="47.22315" lon="6.7389">
        <ele>823</ele>
        <time>2018-07-01T09:14:16.000Z</time>
      </trkpt>
      <trkpt lat="47.22316" lon="6.73886">
        <ele>823</ele>
        <time>2018-07-01T09:14:17.000Z</time>
      </trkpt>
      <trkpt lat="47.22317" lon="6.73882">
        <ele>823</ele>
        <time>2018-07-01T09:14:18.000Z</time>
      </trkpt>
      <trkpt lat="47.22318" lon="6.73878">
        <ele>823</ele>
        <time>2018-07-01T09:14:19.000Z</time>
      </trkpt>
      <trkpt lat="47.2232" lon="6.73875">
        <ele>823</ele>
        <time>2018-07-01T09:14:20.000Z</time>
      </trkpt>
      <trkpt lat="47.22321" lon="6.73871">
        <ele>823</ele>
        <time>2018-07-01T09:14:21.000Z</time>
      </trkpt>
      <trkpt lat="47.22321" lon="6.73867">
        <ele>823</ele>
        <time>2018-07-01T09:14:22.000Z</time>
      </trkpt>
      <trkpt lat="47.22323" lon="6.73864">
        <ele>823</ele>
        <time>2018-07-01T09:14:23.000Z</time>
      </trkpt>
      <trkpt lat="47.22324" lon="6.7386">
        <ele>823</ele>
        <time>2018-07-01T09:14:24.000Z</time>
      </trkpt>
      <trkpt lat="47.22325" lon="6.73857">
        <ele>822</ele>
        <time>2018-07-01T09:14:25.000Z</time>
      </trkpt>
      <trkpt lat="47.22327" lon="6.73853">
        <ele>822</ele>
        <time>2018-07-01T09:14:26.000Z</time>
      </trkpt>
      <trkpt lat="47.22328" lon="6.73849">
        <ele>822</ele>
        <time>2018-07-01T09:14:27.000Z</time>
      </trkpt>
      <trkpt lat="47.2233" lon="6.73846">
        <ele>821</ele>
        <time>2018-07-01T09:14:28.000Z</time>
      </trkpt>
      <trkpt lat="47.22332" lon="6.73842">
        <ele>820</ele>
        <time>2018-07-01T09:14:29.000Z</time>
      </trkpt>
      <trkpt lat="47.22333" lon="6.73838">
        <ele>819</ele>
        <time>2018-07-01T09:14:30.000Z</time>
      </trkpt>
      <trkpt lat="47.22335" lon="6.73834">
        <ele>818</ele>
        <time>2018-07-01T09:14:31.000Z</time>
      </trkpt>
      <trkpt lat="47.22337" lon="6.7383">
        <ele>818</ele>
        <time>2018-07-01T09:14:32.000Z</time>
      </trkpt>
      <trkpt lat="47.22338" lon="6.73826">
        <ele>817</ele>
        <time>2018-07-01T09:14:33.000Z</time>
      </trkpt>
      <trkpt lat="47.2234" lon="6.73822">
        <ele>817</ele>
        <time>2018-07-01T09:14:34.000Z</time>
      </trkpt>
      <trkpt lat="47.22342" lon="6.73818">
        <ele>817</ele>
        <time>2018-07-01T09:14:35.000Z</time>
      </trkpt>
      <trkpt lat="47.22345" lon="6.73814">
        <ele>817</ele>
        <time>2018-07-01T09:14:36.000Z</time>
      </trkpt>
      <trkpt lat="47.22347" lon="6.7381">
        <ele>817</ele>
        <time>2018-07-01T09:14:37.000Z</time>
      </trkpt>
      <trkpt lat="47.2235" lon="6.73806">
        <ele>817</ele>
        <time>2018-07-01T09:14:38.000Z</time>
      </trkpt>
      <trkpt lat="47.22352" lon="6.73802">
        <ele>817</ele>
        <time>2018-07-01T09:14:39.000Z</time>
      </trkpt>
      <trkpt lat="47.22355" lon="6.73797">
        <ele>816</ele>
        <time>2018-07-01T09:14:40.000Z</time>
      </trkpt>
      <trkpt lat="47.22358" lon="6.73792">
        <ele>816</ele>
        <time>2018-07-01T09:14:41.000Z</time>
      </trkpt>
      <trkpt lat="47.22361" lon="6.73787">
        <ele>816</ele>
        <time>2018-07-01T09:14:42.000Z</time>
      </trkpt>
      <trkpt lat="47.22363" lon="6.73782">
        <ele>816</ele>
        <time>2018-07-01T09:14:43.000Z</time>
      </trkpt>
      <trkpt lat="47.22366" lon="6.73777">
        <ele>816</ele>
        <time>2018-07-01T09:14:44.000Z</time>
      </trkpt>
      <trkpt lat="47.22369" lon="6.73772">
        <ele>816</ele>
        <time>2018-07-01T09:14:45.000Z</time>
      </trkpt>
      <trkpt lat="47.22372" lon="6.73768">
        <ele>815</ele>
        <time>2018-07-01T09:14:46.000Z</time>
      </trkpt>
      <trkpt lat="47.22375" lon="6.73764">
        <ele>814</ele>
        <time>2018-07-01T09:14:47.000Z</time>
      </trkpt>
      <trkpt lat="47.22378" lon="6.73761">
        <ele>814</ele>
        <time>2018-07-01T09:14:48.000Z</time>
      </trkpt>
      <trkpt lat="47.22382" lon="6.73758">
        <ele>813</ele>
        <time>2018-07-01T09:14:49.000Z</time>
      </trkpt>
      <trkpt lat="47.22385" lon="6.73756">
        <ele>812</ele>
        <time>2018-07-01T09:14:50.000Z</time>
      </trkpt>
      <trkpt lat="47.22388" lon="6.73754">
        <ele>811</ele>
        <time>2018-07-01T09:14:51.000Z</time>
      </trkpt>
      <trkpt lat="47.22392" lon="6.73752">
        <ele>810</ele>
        <time>2018-07-01T09:14:52.000Z</time>
      </trkpt>
      <trkpt lat="47.22395" lon="6.7375">
        <ele>809</ele>
        <time>2018-07-01T09:14:53.000Z</time>
      </trkpt>
      <trkpt lat="47.22398" lon="6.73748">
        <ele>810</ele>
        <time>2018-07-01T09:14:54.000Z</time>
      </trkpt>
      <trkpt lat="47.22401" lon="6.73747">
        <ele>809</ele>
        <time>2018-07-01T09:14:55.000Z</time>
      </trkpt>
      <trkpt lat="47.22404" lon="6.73746">
        <ele>807</ele>
        <time>2018-07-01T09:14:56.000Z</time>
      </trkpt>
      <trkpt lat="47.22407" lon="6.73745">
        <ele>806</ele>
        <time>2018-07-01T09:14:57.000Z</time>
      </trkpt>
      <trkpt lat="47.22411" lon="6.73744">
        <ele>805</ele>
        <time>2018-07-01T09:14:58.000Z</time>
      </trkpt>
      <trkpt lat="47.22414" lon="6.73743">
        <ele>804</ele>
        <time>2018-07-01T09:14:59.000Z</time>
      </trkpt>
      <trkpt lat="47.22417" lon="6.73743">
        <ele>799</ele>
        <time>2018-07-01T09:15:00.000Z</time>
      </trkpt>
      <trkpt lat="47.2242" lon="6.73743">
        <ele>799</ele>
        <time>2018-07-01T09:15:01.000Z</time>
      </trkpt>
      <trkpt lat="47.22422" lon="6.73743">
        <ele>798</ele>
        <time>2018-07-01T09:15:02.000Z</time>
      </trkpt>
      <trkpt lat="47.22425" lon="6.73744">
        <ele>798</ele>
        <time>2018-07-01T09:15:03.000Z</time>
      </trkpt>
      <trkpt lat="47.22427" lon="6.73744">
        <ele>798</ele>
        <time>2018-07-01T09:15:04.000Z</time>
      </trkpt>
      <trkpt lat="47.2243" lon="6.73745">
        <ele>798</ele>
        <time>2018-07-01T09:15:05.000Z</time>
      </trkpt>
      <trkpt lat="47.22433" lon="6.73744">
        <ele>797</ele>
        <time>2018-07-01T09:15:06.000Z</time>
      </trkpt>
      <trkpt lat="47.22435" lon="6.73744">
        <ele>797</ele>
        <time>2018-07-01T09:15:07.000Z</time>
      </trkpt>
      <trkpt lat="47.22438" lon="6.73744">
        <ele>797</ele>
        <time>2018-07-01T09:15:08.000Z</time>
      </trkpt>
      <trkpt lat="47.22441" lon="6.73744">
        <ele>796</ele>
        <time>2018-07-01T09:15:09.000Z</time>
      </trkpt>
      <trkpt lat="47.22444" lon="6.73744">
        <ele>796</ele>
        <time>2018-07-01T09:15:10.000Z</time>
      </trkpt>
      <trkpt lat="47.22447" lon="6.73744">
        <ele>796</ele>
        <time>2018-07-01T09:15:11.000Z</time>
      </trkpt>
      <trkpt lat="47.2245" lon="6.73743">
        <ele>795</ele>
        <time>2018-07-01T09:15:12.000Z</time>
      </trkpt>
      <trkpt lat="47.22453" lon="6.73742">
        <ele>795</ele>
        <time>2018-07-01T09:15:13.000Z</time>
      </trkpt>
      <trkpt lat="47.22456" lon="6.73741">
        <ele>795</ele>
        <time>2018-07-01T09:15:14.000Z</time>
      </trkpt>
      <trkpt lat="47.22459" lon="6.7374">
        <ele>795</ele>
        <time>2018-07-01T09:15:15.000Z</time>
      </trkpt>
      <trkpt lat="47.22463" lon="6.73738">
        <ele>794</ele>
        <time>2018-07-01T09:15:16.000Z</time>
      </trkpt>
      <trkpt lat="47.22466" lon="6.73737">
        <ele>794</ele>
        <time>2018-07-01T09:15:17.000Z</time>
      </trkpt>
      <trkpt lat="47.22469" lon="6.73736">
        <ele>794</ele>
        <time>2018-07-01T09:15:18.000Z</time>
      </trkpt>
      <trkpt lat="47.22472" lon="6.73735">
        <ele>794</ele>
        <time>2018-07-01T09:15:19.000Z</time>
      </trkpt>
      <trkpt lat="47.22474" lon="6.73733">
        <ele>793</ele>
        <time>2018-07-01T09:15:20.000Z</time>
      </trkpt>
      <trkpt lat="47.22476" lon="6.73731">
        <ele>793</ele>
        <time>2018-07-01T09:15:21.000Z</time>
      </trkpt>
      <trkpt lat="47.22478" lon="6.73729">
        <ele>793</ele>
        <time>2018-07-01T09:15:22.000Z</time>
      </trkpt>
      <trkpt lat="47.22481" lon="6.73728">
        <ele>793</ele>
        <time>2018-07-01T09:15:23.000Z</time>
      </trkpt>
      <trkpt lat="47.22483" lon="6.73725">
        <ele>793</ele>
        <time>2018-07-01T09:15:24.000Z</time>
      </trkpt>
      <trkpt lat="47.22486" lon="6.73722">
        <ele>792</ele>
        <time>2018-07-01T09:15:25.000Z</time>
      </trkpt>
      <trkpt lat="47.22488" lon="6.73719">
        <ele>792</ele>
        <time>2018-07-01T09:15:26.000Z</time>
      </trkpt>
      <trkpt lat="47.2249" lon="6.73716">
        <ele>792</ele>
        <time>2018-07-01T09:15:27.000Z</time>
      </trkpt>
      <trkpt lat="47.22492" lon="6.73712">
        <ele>791</ele>
        <time>2018-07-01T09:15:28.000Z</time>
      </trkpt>
      <trkpt lat="47.22493" lon="6.73708">
        <ele>791</ele>
        <time>2018-07-01T09:15:29.000Z</time>
      </trkpt>
      <trkpt lat="47.22495" lon="6.73704">
        <ele>791</ele>
        <time>2018-07-01T09:15:30.000Z</time>
      </trkpt>
      <trkpt lat="47.22496" lon="6.737">
        <ele>790</ele>
        <time>2018-07-01T09:15:31.000Z</time>
      </trkpt>
      <trkpt lat="47.22497" lon="6.73694">
        <ele>789</ele>
        <time>2018-07-01T09:15:32.000Z</time>
      </trkpt>
      <trkpt lat="47.22499" lon="6.73688">
        <ele>788</ele>
        <time>2018-07-01T09:15:33.000Z</time>
      </trkpt>
      <trkpt lat="47.225" lon="6.73682">
        <ele>779</ele>
        <time>2018-07-01T09:15:34.000Z</time>
      </trkpt>
      <trkpt lat="47.22501" lon="6.73675">
        <ele>779</ele>
        <time>2018-07-01T09:15:35.000Z</time>
      </trkpt>
      <trkpt lat="47.22503" lon="6.73668">
        <ele>779</ele>
        <time>2018-07-01T09:15:36.000Z</time>
      </trkpt>
      <trkpt lat="47.22503" lon="6.73661">
        <ele>775</ele>
        <time>2018-07-01T09:15:37.000Z</time>
      </trkpt>
      <trkpt lat="47.22504" lon="6.73655">
        <ele>773</ele>
        <time>2018-07-01T09:15:38.000Z</time>
      </trkpt>
      <trkpt lat="47.22504" lon="6.73649">
        <ele>771</ele>
        <time>2018-07-01T09:15:39.000Z</time>
      </trkpt>
      <trkpt lat="47.22504" lon="6.73642">
        <ele>770</ele>
        <time>2018-07-01T09:15:40.000Z</time>
      </trkpt>
      <trkpt lat="47.22504" lon="6.73636">
        <ele>768</ele>
        <time>2018-07-01T09:15:41.000Z</time>
      </trkpt>
      <trkpt lat="47.22504" lon="6.7363">
        <ele>768</ele>
        <time>2018-07-01T09:15:42.000Z</time>
      </trkpt>
      <trkpt lat="47.22504" lon="6.73623">
        <ele>767</ele>
        <time>2018-07-01T09:15:43.000Z</time>
      </trkpt>
      <trkpt lat="47.22504" lon="6.73617">
        <ele>767</ele>
        <time>2018-07-01T09:15:44.000Z</time>
      </trkpt>
      <trkpt lat="47.22504" lon="6.73611">
        <ele>767</ele>
        <time>2018-07-01T09:15:45.000Z</time>
      </trkpt>
      <trkpt lat="47.22504" lon="6.73605">
        <ele>768</ele>
        <time>2018-07-01T09:15:46.000Z</time>
      </trkpt>
      <trkpt lat="47.22503" lon="6.736">
        <ele>769</ele>
        <time>2018-07-01T09:15:47.000Z</time>
      </trkpt>
      <trkpt lat="47.22502" lon="6.73594">
        <ele>770</ele>
        <time>2018-07-01T09:15:48.000Z</time>
      </trkpt>
      <trkpt lat="47.22502" lon="6.73587">
        <ele>772</ele>
        <time>2018-07-01T09:15:49.000Z</time>
      </trkpt>
      <trkpt lat="47.22502" lon="6.73581">
        <ele>772</ele>
        <time>2018-07-01T09:15:50.000Z</time>
      </trkpt>
      <trkpt lat="47.22501" lon="6.73574">
        <ele>768</ele>
        <time>2018-07-01T09:15:51.000Z</time>
      </trkpt>
      <trkpt lat="47.22501" lon="6.73568">
        <ele>765</ele>
        <time>2018-07-01T09:15:52.000Z</time>
      </trkpt>
      <trkpt lat="47.22501" lon="6.73562">
        <ele>763</ele>
        <time>2018-07-01T09:15:53.000Z</time>
      </trkpt>
      <trkpt lat="47.22501" lon="6.73556">
        <ele>762</ele>
        <time>2018-07-01T09:15:54.000Z</time>
      </trkpt>
      <trkpt lat="47.22501" lon="6.7355">
        <ele>761</ele>
        <time>2018-07-01T09:15:55.000Z</time>
      </trkpt>
      <trkpt lat="47.22501" lon="6.73545">
        <ele>760</ele>
        <time>2018-07-01T09:15:56.000Z</time>
      </trkpt>
      <trkpt lat="47.225" lon="6.73539">
        <ele>760</ele>
        <time>2018-07-01T09:15:57.000Z</time>
      </trkpt>
      <trkpt lat="47.225" lon="6.73533">
        <ele>760</ele>
        <time>2018-07-01T09:15:58.000Z</time>
      </trkpt>
      <trkpt lat="47.225" lon="6.73528">
        <ele>760</ele>
        <time>2018-07-01T09:15:59.000Z</time>
      </trkpt>
      <trkpt lat="47.225" lon="6.73522">
        <ele>761</ele>
        <time>2018-07-01T09:16:00.000Z</time>
      </trkpt>
      <trkpt lat="47.225" lon="6.73517">
        <ele>761</ele>
        <time>2018-07-01T09:16:01.000Z</time>
      </trkpt>
      <trkpt lat="47.225" lon="6.73511">
        <ele>763</ele>
        <time>2018-07-01T09:16:02.000Z</time>
      </trkpt>
      <trkpt lat="47.225" lon="6.73505">
        <ele>765</ele>
        <time>2018-07-01T09:16:03.000Z</time>
      </trkpt>
      <trkpt lat="47.225" lon="6.73499">
        <ele>766</ele>
        <time>2018-07-01T09:16:04.000Z</time>
      </trkpt>
      <trkpt lat="47.225" lon="6.73493">
        <ele>763</ele>
        <time>2018-07-01T09:16:05.000Z</time>
      </trkpt>
      <trkpt lat="47.225" lon="6.73487">
        <ele>761</ele>
        <time>2018-07-01T09:16:06.000Z</time>
      </trkpt>
      <trkpt lat="47.225" lon="6.73482">
        <ele>759</ele>
        <time>2018-07-01T09:16:07.000Z</time>
      </trkpt>
      <trkpt lat="47.225" lon="6.73477">
        <ele>758</ele>
        <time>2018-07-01T09:16:08.000Z</time>
      </trkpt>
      <trkpt lat="47.225" lon="6.73473">
        <ele>757</ele>
        <time>2018-07-01T09:16:09.000Z</time>
      </trkpt>
      <trkpt lat="47.22501" lon="6.73468">
        <ele>757</ele>
        <time>2018-07-01T09:16:10.000Z</time>
      </trkpt>
      <trkpt lat="47.22501" lon="6.73464">
        <ele>756</ele>
        <time>2018-07-01T09:16:11.000Z</time>
      </trkpt>
      <trkpt lat="47.22501" lon="6.73459">
        <ele>756</ele>
        <time>2018-07-01T09:16:12.000Z</time>
      </trkpt>
      <trkpt lat="47.22501" lon="6.73455">
        <ele>756</ele>
        <time>2018-07-01T09:16:13.000Z</time>
      </trkpt>
      <trkpt lat="47.22501" lon="6.73451">
        <ele>756</ele>
        <time>2018-07-01T09:16:14.000Z</time>
      </trkpt>
      <trkpt lat="47.22501" lon="6.73446">
        <ele>757</ele>
        <time>2018-07-01T09:16:15.000Z</time>
      </trkpt>
      <trkpt lat="47.22501" lon="6.73442">
        <ele>757</ele>
        <time>2018-07-01T09:16:16.000Z</time>
      </trkpt>
      <trkpt lat="47.22501" lon="6.73438">
        <ele>758</ele>
        <time>2018-07-01T09:16:17.000Z</time>
      </trkpt>
      <trkpt lat="47.22502" lon="6.73433">
        <ele>759</ele>
        <time>2018-07-01T09:16:18.000Z</time>
      </trkpt>
      <trkpt lat="47.22501" lon="6.73429">
        <ele>760</ele>
        <time>2018-07-01T09:16:19.000Z</time>
      </trkpt>
      <trkpt lat="47.22501" lon="6.73424">
        <ele>762</ele>
        <time>2018-07-01T09:16:20.000Z</time>
      </trkpt>
      <trkpt lat="47.22501" lon="6.73421">
        <ele>764</ele>
        <time>2018-07-01T09:16:21.000Z</time>
      </trkpt>
      <trkpt lat="47.225" lon="6.73416">
        <ele>766</ele>
        <time>2018-07-01T09:16:22.000Z</time>
      </trkpt>
      <trkpt lat="47.225" lon="6.73412">
        <ele>763</ele>
        <time>2018-07-01T09:16:23.000Z</time>
      </trkpt>
      <trkpt lat="47.22501" lon="6.73408">
        <ele>761</ele>
        <time>2018-07-01T09:16:24.000Z</time>
      </trkpt>
      <trkpt lat="47.22501" lon="6.73404">
        <ele>760</ele>
        <time>2018-07-01T09:16:25.000Z</time>
      </trkpt>
      <trkpt lat="47.22502" lon="6.734">
        <ele>759</ele>
        <time>2018-07-01T09:16:26.000Z</time>
      </trkpt>
      <trkpt lat="47.22502" lon="6.73395">
        <ele>757</ele>
        <time>2018-07-01T09:16:27.000Z</time>
      </trkpt>
      <trkpt lat="47.22503" lon="6.73391">
        <ele>757</ele>
        <time>2018-07-01T09:16:28.000Z</time>
      </trkpt>
      <trkpt lat="47.22503" lon="6.73386">
        <ele>756</ele>
        <time>2018-07-01T09:16:29.000Z</time>
      </trkpt>
      <trkpt lat="47.22504" lon="6.73381">
        <ele>756</ele>
        <time>2018-07-01T09:16:30.000Z</time>
      </trkpt>
      <trkpt lat="47.22505" lon="6.73377">
        <ele>756</ele>
        <time>2018-07-01T09:16:31.000Z</time>
      </trkpt>
      <trkpt lat="47.22506" lon="6.73372">
        <ele>756</ele>
        <time>2018-07-01T09:16:32.000Z</time>
      </trkpt>
      <trkpt lat="47.22507" lon="6.73368">
        <ele>756</ele>
        <time>2018-07-01T09:16:33.000Z</time>
      </trkpt>
      <trkpt lat="47.22508" lon="6.73365">
        <ele>756</ele>
        <time>2018-07-01T09:16:34.000Z</time>
      </trkpt>
      <trkpt lat="47.22509" lon="6.73362">
        <ele>756</ele>
        <time>2018-07-01T09:16:35.000Z</time>
      </trkpt>
      <trkpt lat="47.22511" lon="6.73358">
        <ele>756</ele>
        <time>2018-07-01T09:16:36.000Z</time>
      </trkpt>
      <trkpt lat="47.22512" lon="6.73355">
        <ele>757</ele>
        <time>2018-07-01T09:16:37.000Z</time>
      </trkpt>
      <trkpt lat="47.22514" lon="6.73351">
        <ele>757</ele>
        <time>2018-07-01T09:16:38.000Z</time>
      </trkpt>
      <trkpt lat="47.22516" lon="6.73347">
        <ele>757</ele>
        <time>2018-07-01T09:16:39.000Z</time>
      </trkpt>
      <trkpt lat="47.22518" lon="6.73343">
        <ele>757</ele>
        <time>2018-07-01T09:16:40.000Z</time>
      </trkpt>
      <trkpt lat="47.2252" lon="6.7334">
        <ele>757</ele>
        <time>2018-07-01T09:16:41.000Z</time>
      </trkpt>
      <trkpt lat="47.22522" lon="6.73336">
        <ele>756</ele>
        <time>2018-07-01T09:16:42.000Z</time>
      </trkpt>
      <trkpt lat="47.22524" lon="6.73331">
        <ele>754</ele>
        <time>2018-07-01T09:16:43.000Z</time>
      </trkpt>
      <trkpt lat="47.22526" lon="6.73326">
        <ele>752</ele>
        <time>2018-07-01T09:16:44.000Z</time>
      </trkpt>
      <trkpt lat="47.22529" lon="6.7332">
        <ele>751</ele>
        <time>2018-07-01T09:16:45.000Z</time>
      </trkpt>
      <trkpt lat="47.22532" lon="6.73315">
        <ele>750</ele>
        <time>2018-07-01T09:16:46.000Z</time>
      </trkpt>
      <trkpt lat="47.22534" lon="6.73309">
        <ele>749</ele>
        <time>2018-07-01T09:16:47.000Z</time>
      </trkpt>
      <trkpt lat="47.22536" lon="6.73304">
        <ele>748</ele>
        <time>2018-07-01T09:16:48.000Z</time>
      </trkpt>
      <trkpt lat="47.22537" lon="6.73298">
        <ele>747</ele>
        <time>2018-07-01T09:16:49.000Z</time>
      </trkpt>
      <trkpt lat="47.22537" lon="6.73293">
        <ele>747</ele>
        <time>2018-07-01T09:16:50.000Z</time>
      </trkpt>
      <trkpt lat="47.22537" lon="6.73287">
        <ele>747</ele>
        <time>2018-07-01T09:16:51.000Z</time>
      </trkpt>
      <trkpt lat="47.22537" lon="6.73281">
        <ele>747</ele>
        <time>2018-07-01T09:16:52.000Z</time>
      </trkpt>
      <trkpt lat="47.22536" lon="6.73275">
        <ele>747</ele>
        <time>2018-07-01T09:16:53.000Z</time>
      </trkpt>
      <trkpt lat="47.22535" lon="6.7327">
        <ele>747</ele>
        <time>2018-07-01T09:16:54.000Z</time>
      </trkpt>
      <trkpt lat="47.22534" lon="6.73264">
        <ele>747</ele>
        <time>2018-07-01T09:16:55.000Z</time>
      </trkpt>
      <trkpt lat="47.22532" lon="6.7326">
        <ele>748</ele>
        <time>2018-07-01T09:16:56.000Z</time>
      </trkpt>
      <trkpt lat="47.22531" lon="6.73254">
        <ele>748</ele>
        <time>2018-07-01T09:16:57.000Z</time>
      </trkpt>
      <trkpt lat="47.22529" lon="6.73249">
        <ele>744</ele>
        <time>2018-07-01T09:16:58.000Z</time>
      </trkpt>
      <trkpt lat="47.22527" lon="6.73244">
        <ele>744</ele>
        <time>2018-07-01T09:16:59.000Z</time>
      </trkpt>
      <trkpt lat="47.22525" lon="6.73239">
        <ele>745</ele>
        <time>2018-07-01T09:17:00.000Z</time>
      </trkpt>
      <trkpt lat="47.22523" lon="6.73235">
        <ele>745</ele>
        <time>2018-07-01T09:17:01.000Z</time>
      </trkpt>
      <trkpt lat="47.22521" lon="6.7323">
        <ele>745</ele>
        <time>2018-07-01T09:17:02.000Z</time>
      </trkpt>
      <trkpt lat="47.22518" lon="6.73226">
        <ele>745</ele>
        <time>2018-07-01T09:17:03.000Z</time>
      </trkpt>
      <trkpt lat="47.22516" lon="6.73222">
        <ele>745</ele>
        <time>2018-07-01T09:17:04.000Z</time>
      </trkpt>
      <trkpt lat="47.22513" lon="6.73217">
        <ele>744</ele>
        <time>2018-07-01T09:17:05.000Z</time>
      </trkpt>
      <trkpt lat="47.22511" lon="6.73213">
        <ele>744</ele>
        <time>2018-07-01T09:17:06.000Z</time>
      </trkpt>
      <trkpt lat="47.22508" lon="6.73209">
        <ele>744</ele>
        <time>2018-07-01T09:17:07.000Z</time>
      </trkpt>
      <trkpt lat="47.22506" lon="6.73205">
        <ele>744</ele>
        <time>2018-07-01T09:17:08.000Z</time>
      </trkpt>
      <trkpt lat="47.22503" lon="6.732">
        <ele>745</ele>
        <time>2018-07-01T09:17:09.000Z</time>
      </trkpt>
      <trkpt lat="47.225" lon="6.73196">
        <ele>745</ele>
        <time>2018-07-01T09:17:10.000Z</time>
      </trkpt>
      <trkpt lat="47.22498" lon="6.73192">
        <ele>771</ele>
        <time>2018-07-01T09:17:11.000Z</time>
      </trkpt>
      <trkpt lat="47.22497" lon="6.73187">
        <ele>770</ele>
        <time>2018-07-01T09:17:12.000Z</time>
      </trkpt>
      <trkpt lat="47.22495" lon="6.73182">
        <ele>768</ele>
        <time>2018-07-01T09:17:13.000Z</time>
      </trkpt>
      <trkpt lat="47.22494" lon="6.73178">
        <ele>767</ele>
        <time>2018-07-01T09:17:14.000Z</time>
      </trkpt>
      <trkpt lat="47.22493" lon="6.73174">
        <ele>765</ele>
        <time>2018-07-01T09:17:15.000Z</time>
      </trkpt>
      <trkpt lat="47.22492" lon="6.7317">
        <ele>764</ele>
        <time>2018-07-01T09:17:16.000Z</time>
      </trkpt>
      <trkpt lat="47.22491" lon="6.73166">
        <ele>764</ele>
        <time>2018-07-01T09:17:17.000Z</time>
      </trkpt>
      <trkpt lat="47.2249" lon="6.73163">
        <ele>765</ele>
        <time>2018-07-01T09:17:18.000Z</time>
      </trkpt>
      <trkpt lat="47.2249" lon="6.7316">
        <ele>766</ele>
        <time>2018-07-01T09:17:19.000Z</time>
      </trkpt>
      <trkpt lat="47.2249" lon="6.73157">
        <ele>767</ele>
        <time>2018-07-01T09:17:20.000Z</time>
      </trkpt>
      <trkpt lat="47.2249" lon="6.73154">
        <ele>768</ele>
        <time>2018-07-01T09:17:21.000Z</time>
      </trkpt>
      <trkpt lat="47.22489" lon="6.73151">
        <ele>770</ele>
        <time>2018-07-01T09:17:22.000Z</time>
      </trkpt>
      <trkpt lat="47.22489" lon="6.73148">
        <ele>770</ele>
        <time>2018-07-01T09:17:23.000Z</time>
      </trkpt>
      <trkpt lat="47.22489" lon="6.73146">
        <ele>771</ele>
        <time>2018-07-01T09:17:24.000Z</time>
      </trkpt>
      <trkpt lat="47.22488" lon="6.73143">
        <ele>772</ele>
        <time>2018-07-01T09:17:25.000Z</time>
      </trkpt>
      <trkpt lat="47.22487" lon="6.73141">
        <ele>773</ele>
        <time>2018-07-01T09:17:26.000Z</time>
      </trkpt>
      <trkpt lat="47.22487" lon="6.73139">
        <ele>773</ele>
        <time>2018-07-01T09:17:27.000Z</time>
      </trkpt>
      <trkpt lat="47.22486" lon="6.73137">
        <ele>774</ele>
        <time>2018-07-01T09:17:28.000Z</time>
      </trkpt>
      <trkpt lat="47.22485" lon="6.73134">
        <ele>774</ele>
        <time>2018-07-01T09:17:29.000Z</time>
      </trkpt>
      <trkpt lat="47.22485" lon="6.73133">
        <ele>774</ele>
        <time>2018-07-01T09:17:30.000Z</time>
      </trkpt>
      <trkpt lat="47.22485" lon="6.73131">
        <ele>774</ele>
        <time>2018-07-01T09:17:31.000Z</time>
      </trkpt>
      <trkpt lat="47.22484" lon="6.73131">
        <ele>775</ele>
        <time>2018-07-01T09:17:32.000Z</time>
      </trkpt>
      <trkpt lat="47.22484" lon="6.7313">
        <ele>775</ele>
        <time>2018-07-01T09:17:33.000Z</time>
      </trkpt>
      <trkpt lat="47.22484" lon="6.7313">
        <ele>775</ele>
        <time>2018-07-01T09:17:34.000Z</time>
      </trkpt>
      <trkpt lat="47.22484" lon="6.73129">
        <ele>775</ele>
        <time>2018-07-01T09:17:35.000Z</time>
      </trkpt>
      <trkpt lat="47.22484" lon="6.73128">
        <ele>775</ele>
        <time>2018-07-01T09:17:36.000Z</time>
      </trkpt>
      <trkpt lat="47.22484" lon="6.73127">
        <ele>775</ele>
        <time>2018-07-01T09:17:37.000Z</time>
      </trkpt>
      <trkpt lat="47.22485" lon="6.73127">
        <ele>775</ele>
        <time>2018-07-01T09:17:38.000Z</time>
      </trkpt>
      <trkpt lat="47.22485" lon="6.73126">
        <ele>775</ele>
        <time>2018-07-01T09:17:39.000Z</time>
      </trkpt>
      <trkpt lat="47.22486" lon="6.73125">
        <ele>775</ele>
        <time>2018-07-01T09:17:40.000Z</time>
      </trkpt>
      <trkpt lat="47.22487" lon="6.73124">
        <ele>774</ele>
        <time>2018-07-01T09:17:41.000Z</time>
      </trkpt>
      <trkpt lat="47.22488" lon="6.73123">
        <ele>774</ele>
        <time>2018-07-01T09:17:42.000Z</time>
      </trkpt>
      <trkpt lat="47.2249" lon="6.73122">
        <ele>774</ele>
        <time>2018-07-01T09:17:43.000Z</time>
      </trkpt>
      <trkpt lat="47.2249" lon="6.73121">
        <ele>774</ele>
        <time>2018-07-01T09:17:44.000Z</time>
      </trkpt>
      <trkpt lat="47.22491" lon="6.7312">
        <ele>774</ele>
        <time>2018-07-01T09:17:45.000Z</time>
      </trkpt>
      <trkpt lat="47.22491" lon="6.73119">
        <ele>774</ele>
        <time>2018-07-01T09:17:46.000Z</time>
      </trkpt>
      <trkpt lat="47.22492" lon="6.73118">
        <ele>773</ele>
        <time>2018-07-01T09:17:47.000Z</time>
      </trkpt>
      <trkpt lat="47.22492" lon="6.73117">
        <ele>773</ele>
        <time>2018-07-01T09:17:48.000Z</time>
      </trkpt>
      <trkpt lat="47.22492" lon="6.73116">
        <ele>773</ele>
        <time>2018-07-01T09:17:49.000Z</time>
      </trkpt>
      <trkpt lat="47.22492" lon="6.73115">
        <ele>773</ele>
        <time>2018-07-01T09:17:50.000Z</time>
      </trkpt>
      <trkpt lat="47.22492" lon="6.73115">
        <ele>773</ele>
        <time>2018-07-01T09:17:51.000Z</time>
      </trkpt>
      <trkpt lat="47.22491" lon="6.73114">
        <ele>773</ele>
        <time>2018-07-01T09:17:52.000Z</time>
      </trkpt>
      <trkpt lat="47.22491" lon="6.73113">
        <ele>773</ele>
        <time>2018-07-01T09:17:53.000Z</time>
      </trkpt>
      <trkpt lat="47.22491" lon="6.73113">
        <ele>773</ele>
        <time>2018-07-01T09:17:54.000Z</time>
      </trkpt>
      <trkpt lat="47.22491" lon="6.73112">
        <ele>773</ele>
        <time>2018-07-01T09:17:55.000Z</time>
      </trkpt>
      <trkpt lat="47.22491" lon="6.73111">
        <ele>773</ele>
        <time>2018-07-01T09:17:56.000Z</time>
      </trkpt>
      <trkpt lat="47.22491" lon="6.7311">
        <ele>773</ele>
        <time>2018-07-01T09:17:57.000Z</time>
      </trkpt>
      <trkpt lat="47.22491" lon="6.73109">
        <ele>773</ele>
        <time>2018-07-01T09:17:58.000Z</time>
      </trkpt>
      <trkpt lat="47.22491" lon="6.73108">
        <ele>773</ele>
        <time>2018-07-01T09:17:59.000Z</time>
      </trkpt>
      <trkpt lat="47.22491" lon="6.73107">
        <ele>772</ele>
        <time>2018-07-01T09:18:00.000Z</time>
      </trkpt>
      <trkpt lat="47.22491" lon="6.73106">
        <ele>772</ele>
        <time>2018-07-01T09:18:01.000Z</time>
      </trkpt>
      <trkpt lat="47.22491" lon="6.73105">
        <ele>772</ele>
        <time>2018-07-01T09:18:02.000Z</time>
      </trkpt>
      <trkpt lat="47.22491" lon="6.73105">
        <ele>772</ele>
        <time>2018-07-01T09:18:03.000Z</time>
      </trkpt>
      <trkpt lat="47.2249" lon="6.73104">
        <ele>772</ele>
        <time>2018-07-01T09:18:04.000Z</time>
      </trkpt>
      <trkpt lat="47.2249" lon="6.73104">
        <ele>772</ele>
        <time>2018-07-01T09:18:05.000Z</time>
      </trkpt>
      <trkpt lat="47.2249" lon="6.73104">
        <ele>772</ele>
        <time>2018-07-01T09:18:06.000Z</time>
      </trkpt>
      <trkpt lat="47.22489" lon="6.73103">
        <ele>772</ele>
        <time>2018-07-01T09:18:07.000Z</time>
      </trkpt>
      <trkpt lat="47.22488" lon="6.73103">
        <ele>772</ele>
        <time>2018-07-01T09:18:08.000Z</time>
      </trkpt>
      <trkpt lat="47.22488" lon="6.73103">
        <ele>772</ele>
        <time>2018-07-01T09:18:09.000Z</time>
      </trkpt>
      <trkpt lat="47.22487" lon="6.73103">
        <ele>772</ele>
        <time>2018-07-01T09:18:10.000Z</time>
      </trkpt>
      <trkpt lat="47.22487" lon="6.73103">
        <ele>773</ele>
        <time>2018-07-01T09:18:11.000Z</time>
      </trkpt>
      <trkpt lat="47.22486" lon="6.73102">
        <ele>773</ele>
        <time>2018-07-01T09:18:12.000Z</time>
      </trkpt>
      <trkpt lat="47.22486" lon="6.73102">
        <ele>773</ele>
        <time>2018-07-01T09:18:13.000Z</time>
      </trkpt>
      <trkpt lat="47.22485" lon="6.73102">
        <ele>773</ele>
        <time>2018-07-01T09:18:14.000Z</time>
      </trkpt>
      <trkpt lat="47.22485" lon="6.73101">
        <ele>773</ele>
        <time>2018-07-01T09:18:15.000Z</time>
      </trkpt>
      <trkpt lat="47.22484" lon="6.73101">
        <ele>773</ele>
        <time>2018-07-01T09:18:16.000Z</time>
      </trkpt>
      <trkpt lat="47.22484" lon="6.73101">
        <ele>773</ele>
        <time>2018-07-01T09:18:17.000Z</time>
      </trkpt>
      <trkpt lat="47.22483" lon="6.731">
        <ele>773</ele>
        <time>2018-07-01T09:18:18.000Z</time>
      </trkpt>
      <trkpt lat="47.22483" lon="6.731">
        <ele>773</ele>
        <time>2018-07-01T09:18:19.000Z</time>
      </trkpt>
      <trkpt lat="47.22482" lon="6.73099">
        <ele>773</ele>
        <time>2018-07-01T09:18:20.000Z</time>
      </trkpt>
      <trkpt lat="47.22482" lon="6.73099">
        <ele>773</ele>
        <time>2018-07-01T09:18:21.000Z</time>
      </trkpt>
      <trkpt lat="47.22481" lon="6.73099">
        <ele>774</ele>
        <time>2018-07-01T09:18:22.000Z</time>
      </trkpt>
      <trkpt lat="47.22481" lon="6.73098">
        <ele>773</ele>
        <time>2018-07-01T09:18:23.000Z</time>
      </trkpt>
      <trkpt lat="47.22481" lon="6.73097">
        <ele>773</ele>
        <time>2018-07-01T09:18:24.000Z</time>
      </trkpt>
      <trkpt lat="47.22481" lon="6.73096">
        <ele>773</ele>
        <time>2018-07-01T09:18:25.000Z</time>
      </trkpt>
      <trkpt lat="47.22481" lon="6.73096">
        <ele>773</ele>
        <time>2018-07-01T09:18:26.000Z</time>
      </trkpt>
      <trkpt lat="47.22482" lon="6.73095">
        <ele>773</ele>
        <time>2018-07-01T09:18:27.000Z</time>
      </trkpt>
      <trkpt lat="47.22482" lon="6.73095">
        <ele>773</ele>
        <time>2018-07-01T09:18:28.000Z</time>
      </trkpt>
      <trkpt lat="47.22482" lon="6.73094">
        <ele>772</ele>
        <time>2018-07-01T09:18:29.000Z</time>
      </trkpt>
      <trkpt lat="47.22483" lon="6.73094">
        <ele>772</ele>
        <time>2018-07-01T09:18:30.000Z</time>
      </trkpt>
      <trkpt lat="47.22483" lon="6.73093">
        <ele>772</ele>
        <time>2018-07-01T09:18:31.000Z</time>
      </trkpt>
      <trkpt lat="47.22483" lon="6.73093">
        <ele>772</ele>
        <time>2018-07-01T09:18:32.000Z</time>
      </trkpt>
      <trkpt lat="47.22482" lon="6.73093">
        <ele>772</ele>
        <time>2018-07-01T09:18:33.000Z</time>
      </trkpt>
      <trkpt lat="47.22482" lon="6.73093">
        <ele>772</ele>
        <time>2018-07-01T09:18:34.000Z</time>
      </trkpt>
      <trkpt lat="47.22482" lon="6.73092">
        <ele>772</ele>
        <time>2018-07-01T09:18:35.000Z</time>
      </trkpt>
      <trkpt lat="47.22482" lon="6.73092">
        <ele>772</ele>
        <time>2018-07-01T09:18:36.000Z</time>
      </trkpt>
      <trkpt lat="47.22482" lon="6.73091">
        <ele>772</ele>
        <time>2018-07-01T09:18:37.000Z</time>
      </trkpt>
      <trkpt lat="47.22482" lon="6.73091">
        <ele>772</ele>
        <time>2018-07-01T09:18:38.000Z</time>
      </trkpt>
      <trkpt lat="47.22482" lon="6.7309">
        <ele>772</ele>
        <time>2018-07-01T09:18:39.000Z</time>
      </trkpt>
      <trkpt lat="47.22481" lon="6.7309">
        <ele>772</ele>
        <time>2018-07-01T09:18:40.000Z</time>
      </trkpt>
      <trkpt lat="47.22481" lon="6.7309">
        <ele>772</ele>
        <time>2018-07-01T09:18:41.000Z</time>
      </trkpt>
      <trkpt lat="47.22481" lon="6.7309">
        <ele>772</ele>
        <time>2018-07-01T09:18:42.000Z</time>
      </trkpt>
      <trkpt lat="47.22481" lon="6.73089">
        <ele>772</ele>
        <time>2018-07-01T09:18:43.000Z</time>
      </trkpt>
      <trkpt lat="47.22481" lon="6.73089">
        <ele>772</ele>
        <time>2018-07-01T09:18:44.000Z</time>
      </trkpt>
      <trkpt lat="47.2248" lon="6.73088">
        <ele>773</ele>
        <time>2018-07-01T09:18:45.000Z</time>
      </trkpt>
      <trkpt lat="47.2248" lon="6.73088">
        <ele>773</ele>
        <time>2018-07-01T09:18:46.000Z</time>
      </trkpt>
      <trkpt lat="47.2248" lon="6.73088">
        <ele>773</ele>
        <time>2018-07-01T09:18:47.000Z</time>
      </trkpt>
      <trkpt lat="47.22479" lon="6.73088">
        <ele>773</ele>
        <time>2018-07-01T09:18:48.000Z</time>
      </trkpt>
      <trkpt lat="47.22479" lon="6.73088">
        <ele>773</ele>
        <time>2018-07-01T09:18:49.000Z</time>
      </trkpt>
      <trkpt lat="47.22479" lon="6.73088">
        <ele>773</ele>
        <time>2018-07-01T09:18:50.000Z</time>
      </trkpt>
      <trkpt lat="47.22479" lon="6.73088">
        <ele>773</ele>
        <time>2018-07-01T09:18:51.000Z</time>
      </trkpt>
      <trkpt lat="47.22478" lon="6.73087">
        <ele>774</ele>
        <time>2018-07-01T09:18:52.000Z</time>
      </trkpt>
      <trkpt lat="47.22478" lon="6.73087">
        <ele>774</ele>
        <time>2018-07-01T09:18:53.000Z</time>
      </trkpt>
      <trkpt lat="47.22478" lon="6.73087">
        <ele>774</ele>
        <time>2018-07-01T09:18:54.000Z</time>
      </trkpt>
      <trkpt lat="47.22477" lon="6.73086">
        <ele>774</ele>
        <time>2018-07-01T09:18:55.000Z</time>
      </trkpt>
      <trkpt lat="47.22477" lon="6.73086">
        <ele>774</ele>
        <time>2018-07-01T09:18:56.000Z</time>
      </trkpt>
      <trkpt lat="47.22477" lon="6.73085">
        <ele>774</ele>
        <time>2018-07-01T09:18:57.000Z</time>
      </trkpt>
      <trkpt lat="47.22476" lon="6.73085">
        <ele>774</ele>
        <time>2018-07-01T09:18:58.000Z</time>
      </trkpt>
      <trkpt lat="47.22476" lon="6.73085">
        <ele>774</ele>
        <time>2018-07-01T09:18:59.000Z</time>
      </trkpt>
      <trkpt lat="47.22477" lon="6.73085">
        <ele>774</ele>
        <time>2018-07-01T09:19:00.000Z</time>
      </trkpt>
      <trkpt lat="47.22477" lon="6.73084">
        <ele>774</ele>
        <time>2018-07-01T09:19:01.000Z</time>
      </trkpt>
      <trkpt lat="47.22477" lon="6.73084">
        <ele>774</ele>
        <time>2018-07-01T09:19:02.000Z</time>
      </trkpt>
      <trkpt lat="47.22477" lon="6.73083">
        <ele>779</ele>
        <time>2018-07-01T09:19:03.000Z</time>
      </trkpt>
      <trkpt lat="47.22477" lon="6.73083">
        <ele>779</ele>
        <time>2018-07-01T09:19:04.000Z</time>
      </trkpt>
      <trkpt lat="47.22477" lon="6.73082">
        <ele>779</ele>
        <time>2018-07-01T09:19:05.000Z</time>
      </trkpt>
      <trkpt lat="47.22477" lon="6.73082">
        <ele>779</ele>
        <time>2018-07-01T09:19:06.000Z</time>
      </trkpt>
      <trkpt lat="47.22477" lon="6.73082">
        <ele>779</ele>
        <time>2018-07-01T09:19:07.000Z</time>
      </trkpt>
      <trkpt lat="47.22477" lon="6.73081">
        <ele>779</ele>
        <time>2018-07-01T09:19:08.000Z</time>
      </trkpt>
      <trkpt lat="47.22477" lon="6.73081">
        <ele>779</ele>
        <time>2018-07-01T09:19:09.000Z</time>
      </trkpt>
      <trkpt lat="47.22477" lon="6.73081">
        <ele>779</ele>
        <time>2018-07-01T09:19:10.000Z</time>
      </trkpt>
      <trkpt lat="47.22477" lon="6.73081">
        <ele>779</ele>
        <time>2018-07-01T09:19:11.000Z</time>
      </trkpt>
      <trkpt lat="47.22477" lon="6.7308">
        <ele>779</ele>
        <time>2018-07-01T09:19:12.000Z</time>
      </trkpt>
      <trkpt lat="47.22477" lon="6.7308">
        <ele>779</ele>
        <time>2018-07-01T09:19:13.000Z</time>
      </trkpt>
      <trkpt lat="47.22477" lon="6.7308">
        <ele>779</ele>
        <time>2018-07-01T09:19:14.000Z</time>
      </trkpt>
      <trkpt lat="47.22477" lon="6.73079">
        <ele>779</ele>
        <time>2018-07-01T09:19:15.000Z</time>
      </trkpt>
      <trkpt lat="47.22478" lon="6.73079">
        <ele>779</ele>
        <time>2018-07-01T09:19:16.000Z</time>
      </trkpt>
      <trkpt lat="47.22478" lon="6.73079">
        <ele>779</ele>
        <time>2018-07-01T09:19:17.000Z</time>
      </trkpt>
      <trkpt lat="47.22478" lon="6.73079">
        <ele>778</ele>
        <time>2018-07-01T09:19:18.000Z</time>
      </trkpt>
      <trkpt lat="47.22478" lon="6.73078">
        <ele>778</ele>
        <time>2018-07-01T09:19:19.000Z</time>
      </trkpt>
      <trkpt lat="47.22478" lon="6.73078">
        <ele>778</ele>
        <time>2018-07-01T09:19:20.000Z</time>
      </trkpt>
      <trkpt lat="47.22478" lon="6.73077">
        <ele>779</ele>
        <time>2018-07-01T09:19:21.000Z</time>
      </trkpt>
      <trkpt lat="47.22479" lon="6.73077">
        <ele>778</ele>
        <time>2018-07-01T09:19:22.000Z</time>
      </trkpt>
      <trkpt lat="47.22479" lon="6.73076">
        <ele>778</ele>
        <time>2018-07-01T09:19:23.000Z</time>
      </trkpt>
      <trkpt lat="47.22479" lon="6.73076">
        <ele>778</ele>
        <time>2018-07-01T09:19:24.000Z</time>
      </trkpt>
      <trkpt lat="47.22479" lon="6.73076">
        <ele>779</ele>
        <time>2018-07-01T09:19:25.000Z</time>
      </trkpt>
      <trkpt lat="47.22479" lon="6.73076">
        <ele>779</ele>
        <time>2018-07-01T09:19:26.000Z</time>
      </trkpt>
      <trkpt lat="47.22478" lon="6.73075">
        <ele>779</ele>
        <time>2018-07-01T09:19:27.000Z</time>
      </trkpt>
      <trkpt lat="47.22478" lon="6.73075">
        <ele>779</ele>
        <time>2018-07-01T09:19:28.000Z</time>
      </trkpt>
      <trkpt lat="47.22478" lon="6.73075">
        <ele>779</ele>
        <time>2018-07-01T09:19:29.000Z</time>
      </trkpt>
      <trkpt lat="47.22478" lon="6.73074">
        <ele>779</ele>
        <time>2018-07-01T09:19:30.000Z</time>
      </trkpt>
      <trkpt lat="47.22478" lon="6.73074">
        <ele>780</ele>
        <time>2018-07-01T09:19:31.000Z</time>
      </trkpt>
      <trkpt lat="47.22477" lon="6.73073">
        <ele>780</ele>
        <time>2018-07-01T09:19:32.000Z</time>
      </trkpt>
      <trkpt lat="47.22477" lon="6.73073">
        <ele>780</ele>
        <time>2018-07-01T09:19:33.000Z</time>
      </trkpt>
      <trkpt lat="47.22477" lon="6.73073">
        <ele>780</ele>
        <time>2018-07-01T09:19:34.000Z</time>
      </trkpt>
      <trkpt lat="47.22476" lon="6.73073">
        <ele>780</ele>
        <time>2018-07-01T09:19:35.000Z</time>
      </trkpt>
      <trkpt lat="47.22476" lon="6.73072">
        <ele>781</ele>
        <time>2018-07-01T09:19:36.000Z</time>
      </trkpt>
      <trkpt lat="47.22475" lon="6.73072">
        <ele>781</ele>
        <time>2018-07-01T09:19:37.000Z</time>
      </trkpt>
      <trkpt lat="47.22475" lon="6.73071">
        <ele>781</ele>
        <time>2018-07-01T09:19:38.000Z</time>
      </trkpt>
      <trkpt lat="47.22475" lon="6.73071">
        <ele>781</ele>
        <time>2018-07-01T09:19:39.000Z</time>
      </trkpt>
      <trkpt lat="47.22474" lon="6.7307">
        <ele>782</ele>
        <time>2018-07-01T09:19:40.000Z</time>
      </trkpt>
      <trkpt lat="47.22473" lon="6.7307">
        <ele>782</ele>
        <time>2018-07-01T09:19:41.000Z</time>
      </trkpt>
      <trkpt lat="47.22473" lon="6.73069">
        <ele>782</ele>
        <time>2018-07-01T09:19:42.000Z</time>
      </trkpt>
      <trkpt lat="47.22473" lon="6.73069">
        <ele>783</ele>
        <time>2018-07-01T09:19:43.000Z</time>
      </trkpt>
      <trkpt lat="47.22472" lon="6.73068">
        <ele>783</ele>
        <time>2018-07-01T09:19:44.000Z</time>
      </trkpt>
      <trkpt lat="47.22471" lon="6.73068">
        <ele>783</ele>
        <time>2018-07-01T09:19:45.000Z</time>
      </trkpt>
      <trkpt lat="47.22471" lon="6.73068">
        <ele>784</ele>
        <time>2018-07-01T09:19:46.000Z</time>
      </trkpt>
      <trkpt lat="47.2247" lon="6.73067">
        <ele>784</ele>
        <time>2018-07-01T09:19:47.000Z</time>
      </trkpt>
      <trkpt lat="47.2247" lon="6.73067">
        <ele>784</ele>
        <time>2018-07-01T09:19:48.000Z</time>
      </trkpt>
      <trkpt lat="47.2247" lon="6.73067">
        <ele>784</ele>
        <time>2018-07-01T09:19:49.000Z</time>
      </trkpt>
      <trkpt lat="47.22469" lon="6.73066">
        <ele>784</ele>
        <time>2018-07-01T09:19:50.000Z</time>
      </trkpt>
      <trkpt lat="47.22469" lon="6.73065">
        <ele>785</ele>
        <time>2018-07-01T09:19:51.000Z</time>
      </trkpt>
      <trkpt lat="47.22468" lon="6.73064">
        <ele>785</ele>
        <time>2018-07-01T09:19:52.000Z</time>
      </trkpt>
      <trkpt lat="47.22468" lon="6.73064">
        <ele>785</ele>
        <time>2018-07-01T09:19:53.000Z</time>
      </trkpt>
      <trkpt lat="47.22468" lon="6.73063">
        <ele>785</ele>
        <time>2018-07-01T09:19:54.000Z</time>
      </trkpt>
      <trkpt lat="47.22467" lon="6.73063">
        <ele>785</ele>
        <time>2018-07-01T09:19:55.000Z</time>
      </trkpt>
      <trkpt lat="47.22467" lon="6.73062">
        <ele>786</ele>
        <time>2018-07-01T09:19:56.000Z</time>
      </trkpt>
      <trkpt lat="47.22467" lon="6.73061">
        <ele>786</ele>
        <time>2018-07-01T09:19:57.000Z</time>
      </trkpt>
      <trkpt lat="47.22467" lon="6.73061">
        <ele>786</ele>
        <time>2018-07-01T09:19:58.000Z</time>
      </trkpt>
      <trkpt lat="47.22466" lon="6.7306">
        <ele>786</ele>
        <time>2018-07-01T09:19:59.000Z</time>
      </trkpt>
      <trkpt lat="47.22465" lon="6.7306">
        <ele>787</ele>
        <time>2018-07-01T09:20:00.000Z</time>
      </trkpt>
      <trkpt lat="47.22464" lon="6.7306">
        <ele>787</ele>
        <time>2018-07-01T09:20:01.000Z</time>
      </trkpt>
      <trkpt lat="47.22463" lon="6.73061">
        <ele>787</ele>
        <time>2018-07-01T09:20:02.000Z</time>
      </trkpt>
      <trkpt lat="47.22462" lon="6.73061">
        <ele>787</ele>
        <time>2018-07-01T09:20:03.000Z</time>
      </trkpt>
      <trkpt lat="47.22461" lon="6.7306">
        <ele>788</ele>
        <time>2018-07-01T09:20:04.000Z</time>
      </trkpt>
      <trkpt lat="47.22461" lon="6.7306">
        <ele>788</ele>
        <time>2018-07-01T09:20:05.000Z</time>
      </trkpt>
      <trkpt lat="47.2246" lon="6.7306">
        <ele>788</ele>
        <time>2018-07-01T09:20:06.000Z</time>
      </trkpt>
      <trkpt lat="47.22459" lon="6.7306">
        <ele>788</ele>
        <time>2018-07-01T09:20:07.000Z</time>
      </trkpt>
      <trkpt lat="47.22459" lon="6.73059">
        <ele>789</ele>
        <time>2018-07-01T09:20:08.000Z</time>
      </trkpt>
      <trkpt lat="47.22458" lon="6.73059">
        <ele>789</ele>
        <time>2018-07-01T09:20:09.000Z</time>
      </trkpt>
      <trkpt lat="47.22458" lon="6.73058">
        <ele>789</ele>
        <time>2018-07-01T09:20:10.000Z</time>
      </trkpt>
      <trkpt lat="47.22458" lon="6.73058">
        <ele>789</ele>
        <time>2018-07-01T09:20:11.000Z</time>
      </trkpt>
      <trkpt lat="47.22458" lon="6.73058">
        <ele>789</ele>
        <time>2018-07-01T09:20:12.000Z</time>
      </trkpt>
      <trkpt lat="47.22458" lon="6.73057">
        <ele>789</ele>
        <time>2018-07-01T09:20:13.000Z</time>
      </trkpt>
      <trkpt lat="47.22458" lon="6.73057">
        <ele>789</ele>
        <time>2018-07-01T09:20:14.000Z</time>
      </trkpt>
      <trkpt lat="47.22458" lon="6.73057">
        <ele>789</ele>
        <time>2018-07-01T09:20:15.000Z</time>
      </trkpt>
      <trkpt lat="47.22458" lon="6.73056">
        <ele>789</ele>
        <time>2018-07-01T09:20:16.000Z</time>
      </trkpt>
      <trkpt lat="47.22458" lon="6.73055">
        <ele>789</ele>
        <time>2018-07-01T09:20:17.000Z</time>
      </trkpt>
      <trkpt lat="47.22458" lon="6.73055">
        <ele>789</ele>
        <time>2018-07-01T09:20:18.000Z</time>
      </trkpt>
      <trkpt lat="47.22458" lon="6.73055">
        <ele>789</ele>
        <time>2018-07-01T09:20:19.000Z</time>
      </trkpt>
      <trkpt lat="47.22459" lon="6.73054">
        <ele>789</ele>
        <time>2018-07-01T09:20:20.000Z</time>
      </trkpt>
      <trkpt lat="47.22459" lon="6.73054">
        <ele>789</ele>
        <time>2018-07-01T09:20:21.000Z</time>
      </trkpt>
      <trkpt lat="47.22459" lon="6.73054">
        <ele>789</ele>
        <time>2018-07-01T09:20:22.000Z</time>
      </trkpt>
      <trkpt lat="47.22459" lon="6.73053">
        <ele>789</ele>
        <time>2018-07-01T09:20:23.000Z</time>
      </trkpt>
      <trkpt lat="47.22459" lon="6.73053">
        <ele>789</ele>
        <time>2018-07-01T09:20:24.000Z</time>
      </trkpt>
      <trkpt lat="47.22459" lon="6.73053">
        <ele>789</ele>
        <time>2018-07-01T09:20:25.000Z</time>
      </trkpt>
      <trkpt lat="47.22458" lon="6.73053">
        <ele>789</ele>
        <time>2018-07-01T09:20:26.000Z</time>
      </trkpt>
      <trkpt lat="47.22458" lon="6.73052">
        <ele>789</ele>
        <time>2018-07-01T09:20:27.000Z</time>
      </trkpt>
      <trkpt lat="47.22457" lon="6.73052">
        <ele>790</ele>
        <time>2018-07-01T09:20:28.000Z</time>
      </trkpt>
      <trkpt lat="47.22457" lon="6.73051">
        <ele>790</ele>
        <time>2018-07-01T09:20:29.000Z</time>
      </trkpt>
      <trkpt lat="47.22457" lon="6.73051">
        <ele>790</ele>
        <time>2018-07-01T09:20:30.000Z</time>
      </trkpt>
      <trkpt lat="47.22456" lon="6.7305">
        <ele>790</ele>
        <time>2018-07-01T09:20:31.000Z</time>
      </trkpt>
      <trkpt lat="47.22456" lon="6.7305">
        <ele>790</ele>
        <time>2018-07-01T09:20:32.000Z</time>
      </trkpt>
      <trkpt lat="47.22455" lon="6.73049">
        <ele>790</ele>
        <time>2018-07-01T09:20:33.000Z</time>
      </trkpt>
      <trkpt lat="47.22455" lon="6.73049">
        <ele>790</ele>
        <time>2018-07-01T09:20:34.000Z</time>
      </trkpt>
      <trkpt lat="47.22455" lon="6.73048">
        <ele>791</ele>
        <time>2018-07-01T09:20:35.000Z</time>
      </trkpt>
      <trkpt lat="47.22454" lon="6.73047">
        <ele>791</ele>
        <time>2018-07-01T09:20:36.000Z</time>
      </trkpt>
      <trkpt lat="47.22454" lon="6.73047">
        <ele>791</ele>
        <time>2018-07-01T09:20:37.000Z</time>
      </trkpt>
      <trkpt lat="47.22454" lon="6.73047">
        <ele>791</ele>
        <time>2018-07-01T09:20:38.000Z</time>
      </trkpt>
      <trkpt lat="47.22454" lon="6.73046">
        <ele>791</ele>
        <time>2018-07-01T09:20:39.000Z</time>
      </trkpt>
      <trkpt lat="47.22454" lon="6.73046">
        <ele>791</ele>
        <time>2018-07-01T09:20:40.000Z</time>
      </trkpt>
      <trkpt lat="47.22453" lon="6.73046">
        <ele>791</ele>
        <time>2018-07-01T09:20:41.000Z</time>
      </trkpt>
      <trkpt lat="47.22453" lon="6.73045">
        <ele>791</ele>
        <time>2018-07-01T09:20:42.000Z</time>
      </trkpt>
      <trkpt lat="47.22453" lon="6.73045">
        <ele>791</ele>
        <time>2018-07-01T09:20:43.000Z</time>
      </trkpt>
      <trkpt lat="47.22452" lon="6.73044">
        <ele>792</ele>
        <time>2018-07-01T09:20:44.000Z</time>
      </trkpt>
      <trkpt lat="47.22452" lon="6.73044">
        <ele>792</ele>
        <time>2018-07-01T09:20:45.000Z</time>
      </trkpt>
      <trkpt lat="47.22451" lon="6.73043">
        <ele>792</ele>
        <time>2018-07-01T09:20:46.000Z</time>
      </trkpt>
      <trkpt lat="47.22451" lon="6.73043">
        <ele>792</ele>
        <time>2018-07-01T09:20:47.000Z</time>
      </trkpt>
      <trkpt lat="47.22451" lon="6.73042">
        <ele>792</ele>
        <time>2018-07-01T09:20:48.000Z</time>
      </trkpt>
      <trkpt lat="47.22451" lon="6.73042">
        <ele>792</ele>
        <time>2018-07-01T09:20:49.000Z</time>
      </trkpt>
      <trkpt lat="47.22451" lon="6.73041">
        <ele>792</ele>
        <time>2018-07-01T09:20:50.000Z</time>
      </trkpt>
      <trkpt lat="47.22451" lon="6.73041">
        <ele>792</ele>
        <time>2018-07-01T09:20:51.000Z</time>
      </trkpt>
      <trkpt lat="47.22451" lon="6.73041">
        <ele>792</ele>
        <time>2018-07-01T09:20:52.000Z</time>
      </trkpt>
      <trkpt lat="47.2245" lon="6.7304">
        <ele>792</ele>
        <time>2018-07-01T09:20:53.000Z</time>
      </trkpt>
      <trkpt lat="47.2245" lon="6.7304">
        <ele>793</ele>
        <time>2018-07-01T09:20:54.000Z</time>
      </trkpt>
      <trkpt lat="47.2245" lon="6.7304">
        <ele>793</ele>
        <time>2018-07-01T09:20:55.000Z</time>
      </trkpt>
      <trkpt lat="47.2245" lon="6.73039">
        <ele>793</ele>
        <time>2018-07-01T09:20:56.000Z</time>
      </trkpt>
      <trkpt lat="47.2245" lon="6.73039">
        <ele>793</ele>
        <time>2018-07-01T09:20:57.000Z</time>
      </trkpt>
      <trkpt lat="47.2245" lon="6.73039">
        <ele>793</ele>
        <time>2018-07-01T09:20:58.000Z</time>
      </trkpt>
      <trkpt lat="47.2245" lon="6.73038">
        <ele>793</ele>
        <time>2018-07-01T09:20:59.000Z</time>
      </trkpt>
      <trkpt lat="47.2245" lon="6.73038">
        <ele>793</ele>
        <time>2018-07-01T09:21:00.000Z</time>
      </trkpt>
      <trkpt lat="47.2245" lon="6.73038">
        <ele>793</ele>
        <time>2018-07-01T09:21:01.000Z</time>
      </trkpt>
      <trkpt lat="47.2245" lon="6.73038">
        <ele>793</ele>
        <time>2018-07-01T09:21:02.000Z</time>
      </trkpt>
      <trkpt lat="47.2245" lon="6.73037">
        <ele>793</ele>
        <time>2018-07-01T09:21:03.000Z</time>
      </trkpt>
      <trkpt lat="47.22451" lon="6.73037">
        <ele>793</ele>
        <time>2018-07-01T09:21:04.000Z</time>
      </trkpt>
      <trkpt lat="47.22451" lon="6.73037">
        <ele>793</ele>
        <time>2018-07-01T09:21:05.000Z</time>
      </trkpt>
      <trkpt lat="47.2245" lon="6.73036">
        <ele>793</ele>
        <time>2018-07-01T09:21:06.000Z</time>
      </trkpt>
      <trkpt lat="47.2245" lon="6.73036">
        <ele>793</ele>
        <time>2018-07-01T09:21:07.000Z</time>
      </trkpt>
      <trkpt lat="47.2245" lon="6.73035">
        <ele>793</ele>
        <time>2018-07-01T09:21:08.000Z</time>
      </trkpt>
      <trkpt lat="47.22449" lon="6.73035">
        <ele>793</ele>
        <time>2018-07-01T09:21:09.000Z</time>
      </trkpt>
      <trkpt lat="47.22449" lon="6.73034">
        <ele>793</ele>
        <time>2018-07-01T09:21:10.000Z</time>
      </trkpt>
      <trkpt lat="47.22449" lon="6.73033">
        <ele>793</ele>
        <time>2018-07-01T09:21:11.000Z</time>
      </trkpt>
      <trkpt lat="47.22449" lon="6.73032">
        <ele>794</ele>
        <time>2018-07-01T09:21:12.000Z</time>
      </trkpt>
      <trkpt lat="47.22449" lon="6.73031">
        <ele>794</ele>
        <time>2018-07-01T09:21:13.000Z</time>
      </trkpt>
      <trkpt lat="47.22449" lon="6.73029">
        <ele>794</ele>
        <time>2018-07-01T09:21:14.000Z</time>
      </trkpt>
      <trkpt lat="47.22448" lon="6.73028">
        <ele>794</ele>
        <time>2018-07-01T09:21:15.000Z</time>
      </trkpt>
      <trkpt lat="47.22448" lon="6.73026">
        <ele>795</ele>
        <time>2018-07-01T09:21:16.000Z</time>
      </trkpt>
      <trkpt lat="47.22448" lon="6.73025">
        <ele>795</ele>
        <time>2018-07-01T09:21:17.000Z</time>
      </trkpt>
      <trkpt lat="47.22447" lon="6.73024">
        <ele>795</ele>
        <time>2018-07-01T09:21:18.000Z</time>
      </trkpt>
      <trkpt lat="47.22447" lon="6.73024">
        <ele>795</ele>
        <time>2018-07-01T09:21:19.000Z</time>
      </trkpt>
      <trkpt lat="47.22446" lon="6.73023">
        <ele>795</ele>
        <time>2018-07-01T09:21:20.000Z</time>
      </trkpt>
      <trkpt lat="47.22446" lon="6.73023">
        <ele>796</ele>
        <time>2018-07-01T09:21:21.000Z</time>
      </trkpt>
      <trkpt lat="47.22446" lon="6.73022">
        <ele>796</ele>
        <time>2018-07-01T09:21:22.000Z</time>
      </trkpt>
      <trkpt lat="47.22445" lon="6.73022">
        <ele>796</ele>
        <time>2018-07-01T09:21:23.000Z</time>
      </trkpt>
      <trkpt lat="47.22445" lon="6.73021">
        <ele>796</ele>
        <time>2018-07-01T09:21:24.000Z</time>
      </trkpt>
      <trkpt lat="47.22444" lon="6.73021">
        <ele>796</ele>
        <time>2018-07-01T09:21:25.000Z</time>
      </trkpt>
      <trkpt lat="47.22444" lon="6.7302">
        <ele>797</ele>
        <time>2018-07-01T09:21:26.000Z</time>
      </trkpt>
      <trkpt lat="47.22443" lon="6.7302">
        <ele>797</ele>
        <time>2018-07-01T09:21:27.000Z</time>
      </trkpt>
      <trkpt lat="47.22442" lon="6.73019">
        <ele>797</ele>
        <time>2018-07-01T09:21:28.000Z</time>
      </trkpt>
      <trkpt lat="47.22442" lon="6.73019">
        <ele>797</ele>
        <time>2018-07-01T09:21:29.000Z</time>
      </trkpt>
      <trkpt lat="47.22441" lon="6.73018">
        <ele>798</ele>
        <time>2018-07-01T09:21:30.000Z</time>
      </trkpt>
      <trkpt lat="47.22441" lon="6.73017">
        <ele>798</ele>
        <time>2018-07-01T09:21:31.000Z</time>
      </trkpt>
      <trkpt lat="47.22441" lon="6.73016">
        <ele>798</ele>
        <time>2018-07-01T09:21:32.000Z</time>
      </trkpt>
      <trkpt lat="47.2244" lon="6.73015">
        <ele>799</ele>
        <time>2018-07-01T09:21:33.000Z</time>
      </trkpt>
      <trkpt lat="47.2244" lon="6.73014">
        <ele>799</ele>
        <time>2018-07-01T09:21:34.000Z</time>
      </trkpt>
      <trkpt lat="47.2244" lon="6.73013">
        <ele>799</ele>
        <time>2018-07-01T09:21:35.000Z</time>
      </trkpt>
      <trkpt lat="47.2244" lon="6.73012">
        <ele>799</ele>
        <time>2018-07-01T09:21:36.000Z</time>
      </trkpt>
      <trkpt lat="47.2244" lon="6.73011">
        <ele>799</ele>
        <time>2018-07-01T09:21:37.000Z</time>
      </trkpt>
      <trkpt lat="47.2244" lon="6.73009">
        <ele>800</ele>
        <time>2018-07-01T09:21:38.000Z</time>
      </trkpt>
      <trkpt lat="47.22441" lon="6.73008">
        <ele>800</ele>
        <time>2018-07-01T09:21:39.000Z</time>
      </trkpt>
      <trkpt lat="47.22441" lon="6.73006">
        <ele>800</ele>
        <time>2018-07-01T09:21:40.000Z</time>
      </trkpt>
      <trkpt lat="47.22441" lon="6.73005">
        <ele>800</ele>
        <time>2018-07-01T09:21:41.000Z</time>
      </trkpt>
      <trkpt lat="47.22441" lon="6.73004">
        <ele>800</ele>
        <time>2018-07-01T09:21:42.000Z</time>
      </trkpt>
      <trkpt lat="47.22441" lon="6.73003">
        <ele>800</ele>
        <time>2018-07-01T09:21:43.000Z</time>
      </trkpt>
      <trkpt lat="47.22441" lon="6.73002">
        <ele>800</ele>
        <time>2018-07-01T09:21:44.000Z</time>
      </trkpt>
      <trkpt lat="47.22441" lon="6.73001">
        <ele>800</ele>
        <time>2018-07-01T09:21:45.000Z</time>
      </trkpt>
      <trkpt lat="47.22441" lon="6.73">
        <ele>800</ele>
        <time>2018-07-01T09:21:46.000Z</time>
      </trkpt>
      <trkpt lat="47.22441" lon="6.72999">
        <ele>810</ele>
        <time>2018-07-01T09:21:47.000Z</time>
      </trkpt>
      <trkpt lat="47.22441" lon="6.72998">
        <ele>810</ele>
        <time>2018-07-01T09:21:48.000Z</time>
      </trkpt>
      <trkpt lat="47.22441" lon="6.72998">
        <ele>810</ele>
        <time>2018-07-01T09:21:49.000Z</time>
      </trkpt>
      <trkpt lat="47.22441" lon="6.72997">
        <ele>810</ele>
        <time>2018-07-01T09:21:50.000Z</time>
      </trkpt>
      <trkpt lat="47.22441" lon="6.72996">
        <ele>810</ele>
        <time>2018-07-01T09:21:51.000Z</time>
      </trkpt>
      <trkpt lat="47.22441" lon="6.72996">
        <ele>810</ele>
        <time>2018-07-01T09:21:52.000Z</time>
      </trkpt>
      <trkpt lat="47.2244" lon="6.72995">
        <ele>810</ele>
        <time>2018-07-01T09:21:53.000Z</time>
      </trkpt>
      <trkpt lat="47.2244" lon="6.72994">
        <ele>810</ele>
        <time>2018-07-01T09:21:54.000Z</time>
      </trkpt>
      <trkpt lat="47.2244" lon="6.72994">
        <ele>810</ele>
        <time>2018-07-01T09:21:55.000Z</time>
      </trkpt>
      <trkpt lat="47.2244" lon="6.72994">
        <ele>811</ele>
        <time>2018-07-01T09:21:56.000Z</time>
      </trkpt>
      <trkpt lat="47.22439" lon="6.72993">
        <ele>811</ele>
        <time>2018-07-01T09:21:57.000Z</time>
      </trkpt>
      <trkpt lat="47.22439" lon="6.72994">
        <ele>811</ele>
        <time>2018-07-01T09:21:58.000Z</time>
      </trkpt>
      <trkpt lat="47.22439" lon="6.72993">
        <ele>811</ele>
        <time>2018-07-01T09:21:59.000Z</time>
      </trkpt>
      <trkpt lat="47.22439" lon="6.72993">
        <ele>811</ele>
        <time>2018-07-01T09:22:00.000Z</time>
      </trkpt>
      <trkpt lat="47.22439" lon="6.72992">
        <ele>811</ele>
        <time>2018-07-01T09:22:01.000Z</time>
      </trkpt>
      <trkpt lat="47.22439" lon="6.72992">
        <ele>811</ele>
        <time>2018-07-01T09:22:02.000Z</time>
      </trkpt>
      <trkpt lat="47.22439" lon="6.72992">
        <ele>811</ele>
        <time>2018-07-01T09:22:03.000Z</time>
      </trkpt>
      <trkpt lat="47.22438" lon="6.72992">
        <ele>811</ele>
        <time>2018-07-01T09:22:04.000Z</time>
      </trkpt>
      <trkpt lat="47.22438" lon="6.72991">
        <ele>811</ele>
        <time>2018-07-01T09:22:05.000Z</time>
      </trkpt>
      <trkpt lat="47.22437" lon="6.72991">
        <ele>811</ele>
        <time>2018-07-01T09:22:06.000Z</time>
      </trkpt>
      <trkpt lat="47.22437" lon="6.72991">
        <ele>811</ele>
        <time>2018-07-01T09:22:07.000Z</time>
      </trkpt>
      <trkpt lat="47.22436" lon="6.7299">
        <ele>811</ele>
        <time>2018-07-01T09:22:08.000Z</time>
      </trkpt>
      <trkpt lat="47.22436" lon="6.72989">
        <ele>811</ele>
        <time>2018-07-01T09:22:09.000Z</time>
      </trkpt>
      <trkpt lat="47.22436" lon="6.72989">
        <ele>811</ele>
        <time>2018-07-01T09:22:10.000Z</time>
      </trkpt>
      <trkpt lat="47.22436" lon="6.72988">
        <ele>811</ele>
        <time>2018-07-01T09:22:11.000Z</time>
      </trkpt>
      <trkpt lat="47.22436" lon="6.72987">
        <ele>811</ele>
        <time>2018-07-01T09:22:12.000Z</time>
      </trkpt>
      <trkpt lat="47.22435" lon="6.72986">
        <ele>812</ele>
        <time>2018-07-01T09:22:13.000Z</time>
      </trkpt>
      <trkpt lat="47.22435" lon="6.72986">
        <ele>812</ele>
        <time>2018-07-01T09:22:14.000Z</time>
      </trkpt>
      <trkpt lat="47.22435" lon="6.72985">
        <ele>812</ele>
        <time>2018-07-01T09:22:15.000Z</time>
      </trkpt>
      <trkpt lat="47.22434" lon="6.72985">
        <ele>812</ele>
        <time>2018-07-01T09:22:16.000Z</time>
      </trkpt>
      <trkpt lat="47.22434" lon="6.72984">
        <ele>812</ele>
        <time>2018-07-01T09:22:17.000Z</time>
      </trkpt>
      <trkpt lat="47.22434" lon="6.72983">
        <ele>812</ele>
        <time>2018-07-01T09:22:18.000Z</time>
      </trkpt>
      <trkpt lat="47.22433" lon="6.72982">
        <ele>812</ele>
        <time>2018-07-01T09:22:19.000Z</time>
      </trkpt>
      <trkpt lat="47.22433" lon="6.7298">
        <ele>812</ele>
        <time>2018-07-01T09:22:20.000Z</time>
      </trkpt>
      <trkpt lat="47.22433" lon="6.72979">
        <ele>812</ele>
        <time>2018-07-01T09:22:21.000Z</time>
      </trkpt>
      <trkpt lat="47.22433" lon="6.72978">
        <ele>812</ele>
        <time>2018-07-01T09:22:22.000Z</time>
      </trkpt>
      <trkpt lat="47.22433" lon="6.72977">
        <ele>812</ele>
        <time>2018-07-01T09:22:23.000Z</time>
      </trkpt>
      <trkpt lat="47.22432" lon="6.72976">
        <ele>812</ele>
        <time>2018-07-01T09:22:24.000Z</time>
      </trkpt>
      <trkpt lat="47.22432" lon="6.72975">
        <ele>812</ele>
        <time>2018-07-01T09:22:25.000Z</time>
      </trkpt>
      <trkpt lat="47.22432" lon="6.72974">
        <ele>812</ele>
        <time>2018-07-01T09:22:26.000Z</time>
      </trkpt>
      <trkpt lat="47.22432" lon="6.72973">
        <ele>813</ele>
        <time>2018-07-01T09:22:27.000Z</time>
      </trkpt>
      <trkpt lat="47.22432" lon="6.72973">
        <ele>813</ele>
        <time>2018-07-01T09:22:28.000Z</time>
      </trkpt>
      <trkpt lat="47.22432" lon="6.72972">
        <ele>813</ele>
        <time>2018-07-01T09:22:29.000Z</time>
      </trkpt>
      <trkpt lat="47.22432" lon="6.72971">
        <ele>813</ele>
        <time>2018-07-01T09:22:30.000Z</time>
      </trkpt>
      <trkpt lat="47.22432" lon="6.72971">
        <ele>813</ele>
        <time>2018-07-01T09:22:31.000Z</time>
      </trkpt>
      <trkpt lat="47.22432" lon="6.7297">
        <ele>813</ele>
        <time>2018-07-01T09:22:32.000Z</time>
      </trkpt>
      <trkpt lat="47.22432" lon="6.7297">
        <ele>813</ele>
        <time>2018-07-01T09:22:33.000Z</time>
      </trkpt>
      <trkpt lat="47.22431" lon="6.72969">
        <ele>813</ele>
        <time>2018-07-01T09:22:34.000Z</time>
      </trkpt>
      <trkpt lat="47.22431" lon="6.72969">
        <ele>813</ele>
        <time>2018-07-01T09:22:35.000Z</time>
      </trkpt>
      <trkpt lat="47.22431" lon="6.72968">
        <ele>813</ele>
        <time>2018-07-01T09:22:36.000Z</time>
      </trkpt>
      <trkpt lat="47.2243" lon="6.72968">
        <ele>813</ele>
        <time>2018-07-01T09:22:37.000Z</time>
      </trkpt>
      <trkpt lat="47.22429" lon="6.72967">
        <ele>813</ele>
        <time>2018-07-01T09:22:38.000Z</time>
      </trkpt>
      <trkpt lat="47.22429" lon="6.72966">
        <ele>814</ele>
        <time>2018-07-01T09:22:39.000Z</time>
      </trkpt>
      <trkpt lat="47.22428" lon="6.72965">
        <ele>814</ele>
        <time>2018-07-01T09:22:40.000Z</time>
      </trkpt>
      <trkpt lat="47.22427" lon="6.72964">
        <ele>814</ele>
        <time>2018-07-01T09:22:41.000Z</time>
      </trkpt>
      <trkpt lat="47.22427" lon="6.72963">
        <ele>814</ele>
        <time>2018-07-01T09:22:42.000Z</time>
      </trkpt>
      <trkpt lat="47.22427" lon="6.72961">
        <ele>814</ele>
        <time>2018-07-01T09:22:43.000Z</time>
      </trkpt>
      <trkpt lat="47.22427" lon="6.7296">
        <ele>815</ele>
        <time>2018-07-01T09:22:44.000Z</time>
      </trkpt>
      <trkpt lat="47.22427" lon="6.7296">
        <ele>815</ele>
        <time>2018-07-01T09:22:45.000Z</time>
      </trkpt>
      <trkpt lat="47.22427" lon="6.72959">
        <ele>815</ele>
        <time>2018-07-01T09:22:46.000Z</time>
      </trkpt>
      <trkpt lat="47.22427" lon="6.72958">
        <ele>815</ele>
        <time>2018-07-01T09:22:47.000Z</time>
      </trkpt>
      <trkpt lat="47.22426" lon="6.72956">
        <ele>815</ele>
        <time>2018-07-01T09:22:48.000Z</time>
      </trkpt>
      <trkpt lat="47.22426" lon="6.72955">
        <ele>816</ele>
        <time>2018-07-01T09:22:49.000Z</time>
      </trkpt>
      <trkpt lat="47.22426" lon="6.72954">
        <ele>816</ele>
        <time>2018-07-01T09:22:50.000Z</time>
      </trkpt>
      <trkpt lat="47.22426" lon="6.72954">
        <ele>816</ele>
        <time>2018-07-01T09:22:51.000Z</time>
      </trkpt>
      <trkpt lat="47.22426" lon="6.72953">
        <ele>816</ele>
        <time>2018-07-01T09:22:52.000Z</time>
      </trkpt>
      <trkpt lat="47.22425" lon="6.72952">
        <ele>817</ele>
        <time>2018-07-01T09:22:53.000Z</time>
      </trkpt>
      <trkpt lat="47.22425" lon="6.72951">
        <ele>817</ele>
        <time>2018-07-01T09:22:54.000Z</time>
      </trkpt>
      <trkpt lat="47.22425" lon="6.72951">
        <ele>817</ele>
        <time>2018-07-01T09:22:55.000Z</time>
      </trkpt>
      <trkpt lat="47.22424" lon="6.7295">
        <ele>817</ele>
        <time>2018-07-01T09:22:56.000Z</time>
      </trkpt>
      <trkpt lat="47.22423" lon="6.7295">
        <ele>818</ele>
        <time>2018-07-01T09:22:57.000Z</time>
      </trkpt>
      <trkpt lat="47.22422" lon="6.72949">
        <ele>818</ele>
        <time>2018-07-01T09:22:58.000Z</time>
      </trkpt>
      <trkpt lat="47.22422" lon="6.72948">
        <ele>818</ele>
        <time>2018-07-01T09:22:59.000Z</time>
      </trkpt>
      <trkpt lat="47.22421" lon="6.72948">
        <ele>818</ele>
        <time>2018-07-01T09:23:00.000Z</time>
      </trkpt>
      <trkpt lat="47.2242" lon="6.72947">
        <ele>819</ele>
        <time>2018-07-01T09:23:01.000Z</time>
      </trkpt>
      <trkpt lat="47.22419" lon="6.72946">
        <ele>819</ele>
        <time>2018-07-01T09:23:02.000Z</time>
      </trkpt>
      <trkpt lat="47.22419" lon="6.72945">
        <ele>820</ele>
        <time>2018-07-01T09:23:03.000Z</time>
      </trkpt>
      <trkpt lat="47.22418" lon="6.72944">
        <ele>820</ele>
        <time>2018-07-01T09:23:04.000Z</time>
      </trkpt>
      <trkpt lat="47.22417" lon="6.72944">
        <ele>820</ele>
        <time>2018-07-01T09:23:05.000Z</time>
      </trkpt>
      <trkpt lat="47.22416" lon="6.72943">
        <ele>837</ele>
        <time>2018-07-01T09:23:06.000Z</time>
      </trkpt>
      <trkpt lat="47.22416" lon="6.72943">
        <ele>837</ele>
        <time>2018-07-01T09:23:07.000Z</time>
      </trkpt>
      <trkpt lat="47.22415" lon="6.72943">
        <ele>837</ele>
        <time>2018-07-01T09:23:08.000Z</time>
      </trkpt>
      <trkpt lat="47.22415" lon="6.72942">
        <ele>837</ele>
        <time>2018-07-01T09:23:09.000Z</time>
      </trkpt>
      <trkpt lat="47.22414" lon="6.72941">
        <ele>837</ele>
        <time>2018-07-01T09:23:10.000Z</time>
      </trkpt>
      <trkpt lat="47.22414" lon="6.7294">
        <ele>837</ele>
        <time>2018-07-01T09:23:11.000Z</time>
      </trkpt>
      <trkpt lat="47.22414" lon="6.72939">
        <ele>837</ele>
        <time>2018-07-01T09:23:12.000Z</time>
      </trkpt>
      <trkpt lat="47.22413" lon="6.72939">
        <ele>837</ele>
        <time>2018-07-01T09:23:13.000Z</time>
      </trkpt>
      <trkpt lat="47.22413" lon="6.72938">
        <ele>837</ele>
        <time>2018-07-01T09:23:14.000Z</time>
      </trkpt>
      <trkpt lat="47.22413" lon="6.72937">
        <ele>837</ele>
        <time>2018-07-01T09:23:15.000Z</time>
      </trkpt>
      <trkpt lat="47.22413" lon="6.72936">
        <ele>837</ele>
        <time>2018-07-01T09:23:16.000Z</time>
      </trkpt>
      <trkpt lat="47.22413" lon="6.72936">
        <ele>838</ele>
        <time>2018-07-01T09:23:17.000Z</time>
      </trkpt>
      <trkpt lat="47.22412" lon="6.72935">
        <ele>838</ele>
        <time>2018-07-01T09:23:18.000Z</time>
      </trkpt>
      <trkpt lat="47.22412" lon="6.72934">
        <ele>838</ele>
        <time>2018-07-01T09:23:19.000Z</time>
      </trkpt>
      <trkpt lat="47.22412" lon="6.72934">
        <ele>838</ele>
        <time>2018-07-01T09:23:20.000Z</time>
      </trkpt>
      <trkpt lat="47.22411" lon="6.72933">
        <ele>838</ele>
        <time>2018-07-01T09:23:21.000Z</time>
      </trkpt>
      <trkpt lat="47.22411" lon="6.72932">
        <ele>838</ele>
        <time>2018-07-01T09:23:22.000Z</time>
      </trkpt>
      <trkpt lat="47.2241" lon="6.72932">
        <ele>838</ele>
        <time>2018-07-01T09:23:23.000Z</time>
      </trkpt>
      <trkpt lat="47.2241" lon="6.72931">
        <ele>838</ele>
        <time>2018-07-01T09:23:24.000Z</time>
      </trkpt>
      <trkpt lat="47.2241" lon="6.7293">
        <ele>838</ele>
        <time>2018-07-01T09:23:25.000Z</time>
      </trkpt>
      <trkpt lat="47.22411" lon="6.72929">
        <ele>838</ele>
        <time>2018-07-01T09:23:26.000Z</time>
      </trkpt>
      <trkpt lat="47.22411" lon="6.72928">
        <ele>838</ele>
        <time>2018-07-01T09:23:27.000Z</time>
      </trkpt>
      <trkpt lat="47.22412" lon="6.72928">
        <ele>838</ele>
        <time>2018-07-01T09:23:28.000Z</time>
      </trkpt>
      <trkpt lat="47.22412" lon="6.72927">
        <ele>838</ele>
        <time>2018-07-01T09:23:29.000Z</time>
      </trkpt>
      <trkpt lat="47.22413" lon="6.72926">
        <ele>838</ele>
        <time>2018-07-01T09:23:30.000Z</time>
      </trkpt>
      <trkpt lat="47.22413" lon="6.72926">
        <ele>838</ele>
        <time>2018-07-01T09:23:31.000Z</time>
      </trkpt>
      <trkpt lat="47.22412" lon="6.72925">
        <ele>838</ele>
        <time>2018-07-01T09:23:32.000Z</time>
      </trkpt>
      <trkpt lat="47.22412" lon="6.72924">
        <ele>838</ele>
        <time>2018-07-01T09:23:33.000Z</time>
      </trkpt>
      <trkpt lat="47.22412" lon="6.72923">
        <ele>839</ele>
        <time>2018-07-01T09:23:34.000Z</time>
      </trkpt>
      <trkpt lat="47.22412" lon="6.72923">
        <ele>839</ele>
        <time>2018-07-01T09:23:35.000Z</time>
      </trkpt>
      <trkpt lat="47.22411" lon="6.72922">
        <ele>839</ele>
        <time>2018-07-01T09:23:36.000Z</time>
      </trkpt>
      <trkpt lat="47.22411" lon="6.72921">
        <ele>839</ele>
        <time>2018-07-01T09:23:37.000Z</time>
      </trkpt>
      <trkpt lat="47.22411" lon="6.7292">
        <ele>839</ele>
        <time>2018-07-01T09:23:38.000Z</time>
      </trkpt>
      <trkpt lat="47.22411" lon="6.72919">
        <ele>839</ele>
        <time>2018-07-01T09:23:39.000Z</time>
      </trkpt>
      <trkpt lat="47.22412" lon="6.72917">
        <ele>839</ele>
        <time>2018-07-01T09:23:40.000Z</time>
      </trkpt>
      <trkpt lat="47.22412" lon="6.72916">
        <ele>841</ele>
        <time>2018-07-01T09:23:41.000Z</time>
      </trkpt>
      <trkpt lat="47.22412" lon="6.72915">
        <ele>841</ele>
        <time>2018-07-01T09:23:42.000Z</time>
      </trkpt>
      <trkpt lat="47.22413" lon="6.72913">
        <ele>841</ele>
        <time>2018-07-01T09:23:43.000Z</time>
      </trkpt>
      <trkpt lat="47.22414" lon="6.72912">
        <ele>842</ele>
        <time>2018-07-01T09:23:44.000Z</time>
      </trkpt>
      <trkpt lat="47.22414" lon="6.72911">
        <ele>842</ele>
        <time>2018-07-01T09:23:45.000Z</time>
      </trkpt>
      <trkpt lat="47.22415" lon="6.72909">
        <ele>842</ele>
        <time>2018-07-01T09:23:46.000Z</time>
      </trkpt>
      <trkpt lat="47.22415" lon="6.72908">
        <ele>843</ele>
        <time>2018-07-01T09:23:47.000Z</time>
      </trkpt>
      <trkpt lat="47.22415" lon="6.72907">
        <ele>843</ele>
        <time>2018-07-01T09:23:48.000Z</time>
      </trkpt>
      <trkpt lat="47.22416" lon="6.72905">
        <ele>844</ele>
        <time>2018-07-01T09:23:49.000Z</time>
      </trkpt>
      <trkpt lat="47.22416" lon="6.72904">
        <ele>844</ele>
        <time>2018-07-01T09:23:50.000Z</time>
      </trkpt>
      <trkpt lat="47.22416" lon="6.72904">
        <ele>844</ele>
        <time>2018-07-01T09:23:51.000Z</time>
      </trkpt>
      <trkpt lat="47.22416" lon="6.72903">
        <ele>845</ele>
        <time>2018-07-01T09:23:52.000Z</time>
      </trkpt>
      <trkpt lat="47.22417" lon="6.72902">
        <ele>845</ele>
        <time>2018-07-01T09:23:53.000Z</time>
      </trkpt>
      <trkpt lat="47.22417" lon="6.72901">
        <ele>837</ele>
        <time>2018-07-01T09:23:54.000Z</time>
      </trkpt>
      <trkpt lat="47.22417" lon="6.72901">
        <ele>836</ele>
        <time>2018-07-01T09:23:55.000Z</time>
      </trkpt>
      <trkpt lat="47.22417" lon="6.729">
        <ele>836</ele>
        <time>2018-07-01T09:23:56.000Z</time>
      </trkpt>
      <trkpt lat="47.22417" lon="6.72899">
        <ele>836</ele>
        <time>2018-07-01T09:23:57.000Z</time>
      </trkpt>
      <trkpt lat="47.22417" lon="6.72898">
        <ele>836</ele>
        <time>2018-07-01T09:23:58.000Z</time>
      </trkpt>
      <trkpt lat="47.22417" lon="6.72897">
        <ele>846</ele>
        <time>2018-07-01T09:23:59.000Z</time>
      </trkpt>
      <trkpt lat="47.22416" lon="6.72896">
        <ele>846</ele>
        <time>2018-07-01T09:24:00.000Z</time>
      </trkpt>
      <trkpt lat="47.22416" lon="6.72896">
        <ele>846</ele>
        <time>2018-07-01T09:24:01.000Z</time>
      </trkpt>
      <trkpt lat="47.22415" lon="6.72895">
        <ele>847</ele>
        <time>2018-07-01T09:24:02.000Z</time>
      </trkpt>
      <trkpt lat="47.22415" lon="6.72894">
        <ele>847</ele>
        <time>2018-07-01T09:24:03.000Z</time>
      </trkpt>
      <trkpt lat="47.22415" lon="6.72893">
        <ele>847</ele>
        <time>2018-07-01T09:24:04.000Z</time>
      </trkpt>
      <trkpt lat="47.22415" lon="6.72893">
        <ele>847</ele>
        <time>2018-07-01T09:24:05.000Z</time>
      </trkpt>
      <trkpt lat="47.22415" lon="6.72892">
        <ele>847</ele>
        <time>2018-07-01T09:24:06.000Z</time>
      </trkpt>
      <trkpt lat="47.22415" lon="6.72891">
        <ele>848</ele>
        <time>2018-07-01T09:24:07.000Z</time>
      </trkpt>
      <trkpt lat="47.22415" lon="6.7289">
        <ele>848</ele>
        <time>2018-07-01T09:24:08.000Z</time>
      </trkpt>
      <trkpt lat="47.22415" lon="6.72889">
        <ele>848</ele>
        <time>2018-07-01T09:24:09.000Z</time>
      </trkpt>
      <trkpt lat="47.22415" lon="6.72889">
        <ele>848</ele>
        <time>2018-07-01T09:24:10.000Z</time>
      </trkpt>
      <trkpt lat="47.22416" lon="6.72888">
        <ele>848</ele>
        <time>2018-07-01T09:24:11.000Z</time>
      </trkpt>
      <trkpt lat="47.22416" lon="6.72887">
        <ele>848</ele>
        <time>2018-07-01T09:24:12.000Z</time>
      </trkpt>
      <trkpt lat="47.22416" lon="6.72887">
        <ele>849</ele>
        <time>2018-07-01T09:24:13.000Z</time>
      </trkpt>
      <trkpt lat="47.22416" lon="6.72885">
        <ele>849</ele>
        <time>2018-07-01T09:24:14.000Z</time>
      </trkpt>
      <trkpt lat="47.22416" lon="6.72884">
        <ele>849</ele>
        <time>2018-07-01T09:24:15.000Z</time>
      </trkpt>
      <trkpt lat="47.22416" lon="6.72882">
        <ele>849</ele>
        <time>2018-07-01T09:24:16.000Z</time>
      </trkpt>
      <trkpt lat="47.22416" lon="6.72881">
        <ele>850</ele>
        <time>2018-07-01T09:24:17.000Z</time>
      </trkpt>
      <trkpt lat="47.22415" lon="6.72879">
        <ele>850</ele>
        <time>2018-07-01T09:24:18.000Z</time>
      </trkpt>
      <trkpt lat="47.22415" lon="6.72877">
        <ele>850</ele>
        <time>2018-07-01T09:24:19.000Z</time>
      </trkpt>
      <trkpt lat="47.22415" lon="6.72876">
        <ele>851</ele>
        <time>2018-07-01T09:24:20.000Z</time>
      </trkpt>
      <trkpt lat="47.22415" lon="6.72875">
        <ele>851</ele>
        <time>2018-07-01T09:24:21.000Z</time>
      </trkpt>
      <trkpt lat="47.22414" lon="6.72874">
        <ele>851</ele>
        <time>2018-07-01T09:24:22.000Z</time>
      </trkpt>
      <trkpt lat="47.22414" lon="6.72873">
        <ele>851</ele>
        <time>2018-07-01T09:24:23.000Z</time>
      </trkpt>
      <trkpt lat="47.22413" lon="6.72872">
        <ele>851</ele>
        <time>2018-07-01T09:24:24.000Z</time>
      </trkpt>
      <trkpt lat="47.22413" lon="6.72871">
        <ele>852</ele>
        <time>2018-07-01T09:24:25.000Z</time>
      </trkpt>
      <trkpt lat="47.22413" lon="6.7287">
        <ele>852</ele>
        <time>2018-07-01T09:24:26.000Z</time>
      </trkpt>
      <trkpt lat="47.22412" lon="6.72869">
        <ele>852</ele>
        <time>2018-07-01T09:24:27.000Z</time>
      </trkpt>
      <trkpt lat="47.22412" lon="6.72868">
        <ele>852</ele>
        <time>2018-07-01T09:24:28.000Z</time>
      </trkpt>
      <trkpt lat="47.22412" lon="6.72867">
        <ele>852</ele>
        <time>2018-07-01T09:24:29.000Z</time>
      </trkpt>
      <trkpt lat="47.22412" lon="6.72866">
        <ele>852</ele>
        <time>2018-07-01T09:24:30.000Z</time>
      </trkpt>
      <trkpt lat="47.22412" lon="6.72865">
        <ele>853</ele>
        <time>2018-07-01T09:24:31.000Z</time>
      </trkpt>
      <trkpt lat="47.22412" lon="6.72864">
        <ele>853</ele>
        <time>2018-07-01T09:24:32.000Z</time>
      </trkpt>
      <trkpt lat="47.22412" lon="6.72863">
        <ele>853</ele>
        <time>2018-07-01T09:24:33.000Z</time>
      </trkpt>
      <trkpt lat="47.22412" lon="6.72862">
        <ele>853</ele>
        <time>2018-07-01T09:24:34.000Z</time>
      </trkpt>
      <trkpt lat="47.22412" lon="6.72861">
        <ele>853</ele>
        <time>2018-07-01T09:24:35.000Z</time>
      </trkpt>
      <trkpt lat="47.22412" lon="6.7286">
        <ele>854</ele>
        <time>2018-07-01T09:24:36.000Z</time>
      </trkpt>
      <trkpt lat="47.22411" lon="6.72859">
        <ele>854</ele>
        <time>2018-07-01T09:24:37.000Z</time>
      </trkpt>
      <trkpt lat="47.22411" lon="6.72858">
        <ele>854</ele>
        <time>2018-07-01T09:24:38.000Z</time>
      </trkpt>
      <trkpt lat="47.22412" lon="6.72857">
        <ele>854</ele>
        <time>2018-07-01T09:24:39.000Z</time>
      </trkpt>
      <trkpt lat="47.22412" lon="6.72855">
        <ele>855</ele>
        <time>2018-07-01T09:24:40.000Z</time>
      </trkpt>
      <trkpt lat="47.22413" lon="6.72854">
        <ele>855</ele>
        <time>2018-07-01T09:24:41.000Z</time>
      </trkpt>
      <trkpt lat="47.22413" lon="6.72852">
        <ele>855</ele>
        <time>2018-07-01T09:24:42.000Z</time>
      </trkpt>
      <trkpt lat="47.22413" lon="6.72851">
        <ele>855</ele>
        <time>2018-07-01T09:24:43.000Z</time>
      </trkpt>
      <trkpt lat="47.22414" lon="6.72849">
        <ele>856</ele>
        <time>2018-07-01T09:24:44.000Z</time>
      </trkpt>
      <trkpt lat="47.22414" lon="6.72848">
        <ele>856</ele>
        <time>2018-07-01T09:24:45.000Z</time>
      </trkpt>
      <trkpt lat="47.22414" lon="6.72847">
        <ele>856</ele>
        <time>2018-07-01T09:24:46.000Z</time>
      </trkpt>
      <trkpt lat="47.22414" lon="6.72846">
        <ele>857</ele>
        <time>2018-07-01T09:24:47.000Z</time>
      </trkpt>
      <trkpt lat="47.22414" lon="6.72844">
        <ele>857</ele>
        <time>2018-07-01T09:24:48.000Z</time>
      </trkpt>
      <trkpt lat="47.22413" lon="6.72843">
        <ele>857</ele>
        <time>2018-07-01T09:24:49.000Z</time>
      </trkpt>
      <trkpt lat="47.22412" lon="6.72842">
        <ele>858</ele>
        <time>2018-07-01T09:24:50.000Z</time>
      </trkpt>
      <trkpt lat="47.22412" lon="6.72841">
        <ele>858</ele>
        <time>2018-07-01T09:24:51.000Z</time>
      </trkpt>
      <trkpt lat="47.22411" lon="6.7284">
        <ele>858</ele>
        <time>2018-07-01T09:24:52.000Z</time>
      </trkpt>
      <trkpt lat="47.2241" lon="6.72839">
        <ele>858</ele>
        <time>2018-07-01T09:24:53.000Z</time>
      </trkpt>
      <trkpt lat="47.22409" lon="6.72838">
        <ele>858</ele>
        <time>2018-07-01T09:24:54.000Z</time>
      </trkpt>
      <trkpt lat="47.22409" lon="6.72837">
        <ele>858</ele>
        <time>2018-07-01T09:24:55.000Z</time>
      </trkpt>
      <trkpt lat="47.22408" lon="6.72836">
        <ele>858</ele>
        <time>2018-07-01T09:24:56.000Z</time>
      </trkpt>
      <trkpt lat="47.22407" lon="6.72836">
        <ele>858</ele>
        <time>2018-07-01T09:24:57.000Z</time>
      </trkpt>
      <trkpt lat="47.22406" lon="6.72835">
        <ele>858</ele>
        <time>2018-07-01T09:24:58.000Z</time>
      </trkpt>
      <trkpt lat="47.22406" lon="6.72834">
        <ele>858</ele>
        <time>2018-07-01T09:24:59.000Z</time>
      </trkpt>
      <trkpt lat="47.22406" lon="6.72833">
        <ele>863</ele>
        <time>2018-07-01T09:25:00.000Z</time>
      </trkpt>
      <trkpt lat="47.22405" lon="6.72832">
        <ele>863</ele>
        <time>2018-07-01T09:25:01.000Z</time>
      </trkpt>
      <trkpt lat="47.22405" lon="6.7283">
        <ele>863</ele>
        <time>2018-07-01T09:25:02.000Z</time>
      </trkpt>
      <trkpt lat="47.22404" lon="6.72829">
        <ele>863</ele>
        <time>2018-07-01T09:25:03.000Z</time>
      </trkpt>
      <trkpt lat="47.22404" lon="6.72827">
        <ele>863</ele>
        <time>2018-07-01T09:25:04.000Z</time>
      </trkpt>
      <trkpt lat="47.22404" lon="6.72825">
        <ele>863</ele>
        <time>2018-07-01T09:25:05.000Z</time>
      </trkpt>
      <trkpt lat="47.22403" lon="6.72824">
        <ele>863</ele>
        <time>2018-07-01T09:25:06.000Z</time>
      </trkpt>
      <trkpt lat="47.22403" lon="6.72823">
        <ele>863</ele>
        <time>2018-07-01T09:25:07.000Z</time>
      </trkpt>
      <trkpt lat="47.22403" lon="6.72822">
        <ele>863</ele>
        <time>2018-07-01T09:25:08.000Z</time>
      </trkpt>
      <trkpt lat="47.22403" lon="6.72821">
        <ele>864</ele>
        <time>2018-07-01T09:25:09.000Z</time>
      </trkpt>
      <trkpt lat="47.22403" lon="6.7282">
        <ele>864</ele>
        <time>2018-07-01T09:25:10.000Z</time>
      </trkpt>
      <trkpt lat="47.22402" lon="6.72818">
        <ele>864</ele>
        <time>2018-07-01T09:25:11.000Z</time>
      </trkpt>
      <trkpt lat="47.22402" lon="6.72817">
        <ele>864</ele>
        <time>2018-07-01T09:25:12.000Z</time>
      </trkpt>
      <trkpt lat="47.22402" lon="6.72815">
        <ele>864</ele>
        <time>2018-07-01T09:25:13.000Z</time>
      </trkpt>
      <trkpt lat="47.22402" lon="6.72814">
        <ele>864</ele>
        <time>2018-07-01T09:25:14.000Z</time>
      </trkpt>
      <trkpt lat="47.22402" lon="6.72813">
        <ele>864</ele>
        <time>2018-07-01T09:25:15.000Z</time>
      </trkpt>
      <trkpt lat="47.22402" lon="6.72812">
        <ele>864</ele>
        <time>2018-07-01T09:25:16.000Z</time>
      </trkpt>
      <trkpt lat="47.22402" lon="6.72811">
        <ele>865</ele>
        <time>2018-07-01T09:25:17.000Z</time>
      </trkpt>
      <trkpt lat="47.22402" lon="6.72809">
        <ele>865</ele>
        <time>2018-07-01T09:25:18.000Z</time>
      </trkpt>
      <trkpt lat="47.22402" lon="6.72808">
        <ele>865</ele>
        <time>2018-07-01T09:25:19.000Z</time>
      </trkpt>
      <trkpt lat="47.22402" lon="6.72807">
        <ele>865</ele>
        <time>2018-07-01T09:25:20.000Z</time>
      </trkpt>
      <trkpt lat="47.22402" lon="6.72806">
        <ele>865</ele>
        <time>2018-07-01T09:25:21.000Z</time>
      </trkpt>
      <trkpt lat="47.22402" lon="6.72805">
        <ele>865</ele>
        <time>2018-07-01T09:25:22.000Z</time>
      </trkpt>
      <trkpt lat="47.22403" lon="6.72804">
        <ele>865</ele>
        <time>2018-07-01T09:25:23.000Z</time>
      </trkpt>
      <trkpt lat="47.22403" lon="6.72803">
        <ele>866</ele>
        <time>2018-07-01T09:25:24.000Z</time>
      </trkpt>
      <trkpt lat="47.22404" lon="6.72801">
        <ele>866</ele>
        <time>2018-07-01T09:25:25.000Z</time>
      </trkpt>
      <trkpt lat="47.22404" lon="6.728">
        <ele>866</ele>
        <time>2018-07-01T09:25:26.000Z</time>
      </trkpt>
      <trkpt lat="47.22405" lon="6.72799">
        <ele>866</ele>
        <time>2018-07-01T09:25:27.000Z</time>
      </trkpt>
      <trkpt lat="47.22405" lon="6.72797">
        <ele>866</ele>
        <time>2018-07-01T09:25:28.000Z</time>
      </trkpt>
      <trkpt lat="47.22405" lon="6.72796">
        <ele>866</ele>
        <time>2018-07-01T09:25:29.000Z</time>
      </trkpt>
      <trkpt lat="47.22406" lon="6.72794">
        <ele>867</ele>
        <time>2018-07-01T09:25:30.000Z</time>
      </trkpt>
      <trkpt lat="47.22406" lon="6.72793">
        <ele>867</ele>
        <time>2018-07-01T09:25:31.000Z</time>
      </trkpt>
      <trkpt lat="47.22407" lon="6.72792">
        <ele>867</ele>
        <time>2018-07-01T09:25:32.000Z</time>
      </trkpt>
      <trkpt lat="47.22408" lon="6.72791">
        <ele>867</ele>
        <time>2018-07-01T09:25:33.000Z</time>
      </trkpt>
      <trkpt lat="47.22408" lon="6.7279">
        <ele>867</ele>
        <time>2018-07-01T09:25:34.000Z</time>
      </trkpt>
      <trkpt lat="47.22409" lon="6.72789">
        <ele>868</ele>
        <time>2018-07-01T09:25:35.000Z</time>
      </trkpt>
      <trkpt lat="47.22409" lon="6.72788">
        <ele>868</ele>
        <time>2018-07-01T09:25:36.000Z</time>
      </trkpt>
      <trkpt lat="47.2241" lon="6.72787">
        <ele>868</ele>
        <time>2018-07-01T09:25:37.000Z</time>
      </trkpt>
      <trkpt lat="47.2241" lon="6.72786">
        <ele>868</ele>
        <time>2018-07-01T09:25:38.000Z</time>
      </trkpt>
      <trkpt lat="47.22411" lon="6.72785">
        <ele>868</ele>
        <time>2018-07-01T09:25:39.000Z</time>
      </trkpt>
      <trkpt lat="47.22411" lon="6.72784">
        <ele>869</ele>
        <time>2018-07-01T09:25:40.000Z</time>
      </trkpt>
      <trkpt lat="47.22411" lon="6.72783">
        <ele>869</ele>
        <time>2018-07-01T09:25:41.000Z</time>
      </trkpt>
      <trkpt lat="47.22412" lon="6.72782">
        <ele>869</ele>
        <time>2018-07-01T09:25:42.000Z</time>
      </trkpt>
      <trkpt lat="47.22412" lon="6.72782">
        <ele>869</ele>
        <time>2018-07-01T09:25:43.000Z</time>
      </trkpt>
      <trkpt lat="47.22413" lon="6.7278">
        <ele>869</ele>
        <time>2018-07-01T09:25:44.000Z</time>
      </trkpt>
      <trkpt lat="47.22413" lon="6.72779">
        <ele>870</ele>
        <time>2018-07-01T09:25:45.000Z</time>
      </trkpt>
      <trkpt lat="47.22412" lon="6.72778">
        <ele>870</ele>
        <time>2018-07-01T09:25:46.000Z</time>
      </trkpt>
      <trkpt lat="47.22412" lon="6.72777">
        <ele>870</ele>
        <time>2018-07-01T09:25:47.000Z</time>
      </trkpt>
      <trkpt lat="47.22412" lon="6.72776">
        <ele>870</ele>
        <time>2018-07-01T09:25:48.000Z</time>
      </trkpt>
      <trkpt lat="47.22412" lon="6.72774">
        <ele>871</ele>
        <time>2018-07-01T09:25:49.000Z</time>
      </trkpt>
      <trkpt lat="47.22413" lon="6.72773">
        <ele>871</ele>
        <time>2018-07-01T09:25:50.000Z</time>
      </trkpt>
      <trkpt lat="47.22413" lon="6.72771">
        <ele>871</ele>
        <time>2018-07-01T09:25:51.000Z</time>
      </trkpt>
      <trkpt lat="47.22413" lon="6.72769">
        <ele>872</ele>
        <time>2018-07-01T09:25:52.000Z</time>
      </trkpt>
      <trkpt lat="47.22413" lon="6.72768">
        <ele>872</ele>
        <time>2018-07-01T09:25:53.000Z</time>
      </trkpt>
      <trkpt lat="47.22412" lon="6.72767">
        <ele>873</ele>
        <time>2018-07-01T09:25:54.000Z</time>
      </trkpt>
      <trkpt lat="47.22412" lon="6.72765">
        <ele>873</ele>
        <time>2018-07-01T09:25:55.000Z</time>
      </trkpt>
      <trkpt lat="47.22411" lon="6.72763">
        <ele>874</ele>
        <time>2018-07-01T09:25:56.000Z</time>
      </trkpt>
      <trkpt lat="47.22411" lon="6.72762">
        <ele>874</ele>
        <time>2018-07-01T09:25:57.000Z</time>
      </trkpt>
      <trkpt lat="47.2241" lon="6.7276">
        <ele>874</ele>
        <time>2018-07-01T09:25:58.000Z</time>
      </trkpt>
      <trkpt lat="47.22409" lon="6.72759">
        <ele>875</ele>
        <time>2018-07-01T09:25:59.000Z</time>
      </trkpt>
      <trkpt lat="47.22409" lon="6.72757">
        <ele>875</ele>
        <time>2018-07-01T09:26:00.000Z</time>
      </trkpt>
      <trkpt lat="47.22408" lon="6.72756">
        <ele>875</ele>
        <time>2018-07-01T09:26:01.000Z</time>
      </trkpt>
      <trkpt lat="47.22407" lon="6.72754">
        <ele>875</ele>
        <time>2018-07-01T09:26:02.000Z</time>
      </trkpt>
      <trkpt lat="47.22406" lon="6.72753">
        <ele>875</ele>
        <time>2018-07-01T09:26:03.000Z</time>
      </trkpt>
      <trkpt lat="47.22406" lon="6.72752">
        <ele>875</ele>
        <time>2018-07-01T09:26:04.000Z</time>
      </trkpt>
      <trkpt lat="47.22405" lon="6.72751">
        <ele>875</ele>
        <time>2018-07-01T09:26:05.000Z</time>
      </trkpt>
      <trkpt lat="47.22404" lon="6.72749">
        <ele>879</ele>
        <time>2018-07-01T09:26:06.000Z</time>
      </trkpt>
      <trkpt lat="47.22403" lon="6.72748">
        <ele>879</ele>
        <time>2018-07-01T09:26:07.000Z</time>
      </trkpt>
      <trkpt lat="47.22402" lon="6.72746">
        <ele>879</ele>
        <time>2018-07-01T09:26:08.000Z</time>
      </trkpt>
      <trkpt lat="47.22401" lon="6.72744">
        <ele>879</ele>
        <time>2018-07-01T09:26:09.000Z</time>
      </trkpt>
      <trkpt lat="47.224" lon="6.72742">
        <ele>879</ele>
        <time>2018-07-01T09:26:10.000Z</time>
      </trkpt>
      <trkpt lat="47.22399" lon="6.7274">
        <ele>878</ele>
        <time>2018-07-01T09:26:11.000Z</time>
      </trkpt>
      <trkpt lat="47.22398" lon="6.72739">
        <ele>878</ele>
        <time>2018-07-01T09:26:12.000Z</time>
      </trkpt>
      <trkpt lat="47.22397" lon="6.72736">
        <ele>878</ele>
        <time>2018-07-01T09:26:13.000Z</time>
      </trkpt>
      <trkpt lat="47.22396" lon="6.72734">
        <ele>878</ele>
        <time>2018-07-01T09:26:14.000Z</time>
      </trkpt>
      <trkpt lat="47.22395" lon="6.72731">
        <ele>878</ele>
        <time>2018-07-01T09:26:15.000Z</time>
      </trkpt>
      <trkpt lat="47.22394" lon="6.72728">
        <ele>878</ele>
        <time>2018-07-01T09:26:16.000Z</time>
      </trkpt>
      <trkpt lat="47.22393" lon="6.72726">
        <ele>878</ele>
        <time>2018-07-01T09:26:17.000Z</time>
      </trkpt>
      <trkpt lat="47.22392" lon="6.72723">
        <ele>878</ele>
        <time>2018-07-01T09:26:18.000Z</time>
      </trkpt>
      <trkpt lat="47.22391" lon="6.7272">
        <ele>878</ele>
        <time>2018-07-01T09:26:19.000Z</time>
      </trkpt>
      <trkpt lat="47.2239" lon="6.72717">
        <ele>878</ele>
        <time>2018-07-01T09:26:20.000Z</time>
      </trkpt>
      <trkpt lat="47.22389" lon="6.72714">
        <ele>878</ele>
        <time>2018-07-01T09:26:21.000Z</time>
      </trkpt>
      <trkpt lat="47.22388" lon="6.72711">
        <ele>879</ele>
        <time>2018-07-01T09:26:22.000Z</time>
      </trkpt>
      <trkpt lat="47.22387" lon="6.72708">
        <ele>879</ele>
        <time>2018-07-01T09:26:23.000Z</time>
      </trkpt>
      <trkpt lat="47.22386" lon="6.72705">
        <ele>879</ele>
        <time>2018-07-01T09:26:24.000Z</time>
      </trkpt>
      <trkpt lat="47.22384" lon="6.72702">
        <ele>879</ele>
        <time>2018-07-01T09:26:25.000Z</time>
      </trkpt>
      <trkpt lat="47.22383" lon="6.72699">
        <ele>879</ele>
        <time>2018-07-01T09:26:26.000Z</time>
      </trkpt>
      <trkpt lat="47.22381" lon="6.72696">
        <ele>879</ele>
        <time>2018-07-01T09:26:27.000Z</time>
      </trkpt>
      <trkpt lat="47.2238" lon="6.72693">
        <ele>879</ele>
        <time>2018-07-01T09:26:28.000Z</time>
      </trkpt>
      <trkpt lat="47.22379" lon="6.7269">
        <ele>879</ele>
        <time>2018-07-01T09:26:29.000Z</time>
      </trkpt>
      <trkpt lat="47.22378" lon="6.72687">
        <ele>879</ele>
        <time>2018-07-01T09:26:30.000Z</time>
      </trkpt>
      <trkpt lat="47.22376" lon="6.72684">
        <ele>879</ele>
        <time>2018-07-01T09:26:31.000Z</time>
      </trkpt>
      <trkpt lat="47.22375" lon="6.72682">
        <ele>879</ele>
        <time>2018-07-01T09:26:32.000Z</time>
      </trkpt>
      <trkpt lat="47.22374" lon="6.72679">
        <ele>879</ele>
        <time>2018-07-01T09:26:33.000Z</time>
      </trkpt>
      <trkpt lat="47.22372" lon="6.72676">
        <ele>879</ele>
        <time>2018-07-01T09:26:34.000Z</time>
      </trkpt>
      <trkpt lat="47.22371" lon="6.72674">
        <ele>879</ele>
        <time>2018-07-01T09:26:35.000Z</time>
      </trkpt>
      <trkpt lat="47.2237" lon="6.72671">
        <ele>879</ele>
        <time>2018-07-01T09:26:36.000Z</time>
      </trkpt>
      <trkpt lat="47.22369" lon="6.72668">
        <ele>879</ele>
        <time>2018-07-01T09:26:37.000Z</time>
      </trkpt>
      <trkpt lat="47.22367" lon="6.72666">
        <ele>882</ele>
        <time>2018-07-01T09:26:38.000Z</time>
      </trkpt>
      <trkpt lat="47.22366" lon="6.72663">
        <ele>882</ele>
        <time>2018-07-01T09:26:39.000Z</time>
      </trkpt>
      <trkpt lat="47.22364" lon="6.7266">
        <ele>882</ele>
        <time>2018-07-01T09:26:40.000Z</time>
      </trkpt>
      <trkpt lat="47.22363" lon="6.72658">
        <ele>882</ele>
        <time>2018-07-01T09:26:41.000Z</time>
      </trkpt>
      <trkpt lat="47.22361" lon="6.72655">
        <ele>882</ele>
        <time>2018-07-01T09:26:42.000Z</time>
      </trkpt>
      <trkpt lat="47.2236" lon="6.72651">
        <ele>882</ele>
        <time>2018-07-01T09:26:43.000Z</time>
      </trkpt>
      <trkpt lat="47.22359" lon="6.72648">
        <ele>882</ele>
        <time>2018-07-01T09:26:44.000Z</time>
      </trkpt>
      <trkpt lat="47.22358" lon="6.72645">
        <ele>882</ele>
        <time>2018-07-01T09:26:45.000Z</time>
      </trkpt>
      <trkpt lat="47.22356" lon="6.72642">
        <ele>882</ele>
        <time>2018-07-01T09:26:46.000Z</time>
      </trkpt>
      <trkpt lat="47.22355" lon="6.72639">
        <ele>882</ele>
        <time>2018-07-01T09:26:47.000Z</time>
      </trkpt>
      <trkpt lat="47.22354" lon="6.72635">
        <ele>883</ele>
        <time>2018-07-01T09:26:48.000Z</time>
      </trkpt>
      <trkpt lat="47.22354" lon="6.72632">
        <ele>883</ele>
        <time>2018-07-01T09:26:49.000Z</time>
      </trkpt>
      <trkpt lat="47.22353" lon="6.72627">
        <ele>883</ele>
        <time>2018-07-01T09:26:50.000Z</time>
      </trkpt>
      <trkpt lat="47.22352" lon="6.72623">
        <ele>883</ele>
        <time>2018-07-01T09:26:51.000Z</time>
      </trkpt>
      <trkpt lat="47.22351" lon="6.72619">
        <ele>883</ele>
        <time>2018-07-01T09:26:52.000Z</time>
      </trkpt>
      <trkpt lat="47.2235" lon="6.72615">
        <ele>883</ele>
        <time>2018-07-01T09:26:53.000Z</time>
      </trkpt>
      <trkpt lat="47.22349" lon="6.72611">
        <ele>884</ele>
        <time>2018-07-01T09:26:54.000Z</time>
      </trkpt>
      <trkpt lat="47.22347" lon="6.72607">
        <ele>884</ele>
        <time>2018-07-01T09:26:55.000Z</time>
      </trkpt>
      <trkpt lat="47.22346" lon="6.72604">
        <ele>884</ele>
        <time>2018-07-01T09:26:56.000Z</time>
      </trkpt>
      <trkpt lat="47.22344" lon="6.72601">
        <ele>884</ele>
        <time>2018-07-01T09:26:57.000Z</time>
      </trkpt>
      <trkpt lat="47.22343" lon="6.72597">
        <ele>884</ele>
        <time>2018-07-01T09:26:58.000Z</time>
      </trkpt>
      <trkpt lat="47.22341" lon="6.72593">
        <ele>885</ele>
        <time>2018-07-01T09:26:59.000Z</time>
      </trkpt>
      <trkpt lat="47.2234" lon="6.72589">
        <ele>885</ele>
        <time>2018-07-01T09:27:00.000Z</time>
      </trkpt>
      <trkpt lat="47.22339" lon="6.72585">
        <ele>885</ele>
        <time>2018-07-01T09:27:01.000Z</time>
      </trkpt>
      <trkpt lat="47.22338" lon="6.72582">
        <ele>886</ele>
        <time>2018-07-01T09:27:02.000Z</time>
      </trkpt>
      <trkpt lat="47.22336" lon="6.72578">
        <ele>885</ele>
        <time>2018-07-01T09:27:03.000Z</time>
      </trkpt>
      <trkpt lat="47.22335" lon="6.72574">
        <ele>885</ele>
        <time>2018-07-01T09:27:04.000Z</time>
      </trkpt>
      <trkpt lat="47.22334" lon="6.7257">
        <ele>885</ele>
        <time>2018-07-01T09:27:05.000Z</time>
      </trkpt>
      <trkpt lat="47.22333" lon="6.72566">
        <ele>883</ele>
        <time>2018-07-01T09:27:06.000Z</time>
      </trkpt>
      <trkpt lat="47.22332" lon="6.72563">
        <ele>883</ele>
        <time>2018-07-01T09:27:07.000Z</time>
      </trkpt>
      <trkpt lat="47.22331" lon="6.72559">
        <ele>882</ele>
        <time>2018-07-01T09:27:08.000Z</time>
      </trkpt>
      <trkpt lat="47.2233" lon="6.72554">
        <ele>882</ele>
        <time>2018-07-01T09:27:09.000Z</time>
      </trkpt>
      <trkpt lat="47.22329" lon="6.7255">
        <ele>882</ele>
        <time>2018-07-01T09:27:10.000Z</time>
      </trkpt>
      <trkpt lat="47.22328" lon="6.72547">
        <ele>882</ele>
        <time>2018-07-01T09:27:11.000Z</time>
      </trkpt>
      <trkpt lat="47.22327" lon="6.72543">
        <ele>882</ele>
        <time>2018-07-01T09:27:12.000Z</time>
      </trkpt>
      <trkpt lat="47.22327" lon="6.72539">
        <ele>882</ele>
        <time>2018-07-01T09:27:13.000Z</time>
      </trkpt>
      <trkpt lat="47.22326" lon="6.72535">
        <ele>882</ele>
        <time>2018-07-01T09:27:14.000Z</time>
      </trkpt>
      <trkpt lat="47.22326" lon="6.72531">
        <ele>882</ele>
        <time>2018-07-01T09:27:15.000Z</time>
      </trkpt>
      <trkpt lat="47.22325" lon="6.72526">
        <ele>882</ele>
        <time>2018-07-01T09:27:16.000Z</time>
      </trkpt>
      <trkpt lat="47.22324" lon="6.72522">
        <ele>882</ele>
        <time>2018-07-01T09:27:17.000Z</time>
      </trkpt>
      <trkpt lat="47.22324" lon="6.72518">
        <ele>883</ele>
        <time>2018-07-01T09:27:18.000Z</time>
      </trkpt>
      <trkpt lat="47.22323" lon="6.72513">
        <ele>883</ele>
        <time>2018-07-01T09:27:19.000Z</time>
      </trkpt>
      <trkpt lat="47.22322" lon="6.72509">
        <ele>884</ele>
        <time>2018-07-01T09:27:20.000Z</time>
      </trkpt>
      <trkpt lat="47.22321" lon="6.72505">
        <ele>884</ele>
        <time>2018-07-01T09:27:21.000Z</time>
      </trkpt>
      <trkpt lat="47.2232" lon="6.72501">
        <ele>884</ele>
        <time>2018-07-01T09:27:22.000Z</time>
      </trkpt>
      <trkpt lat="47.2232" lon="6.72497">
        <ele>883</ele>
        <time>2018-07-01T09:27:23.000Z</time>
      </trkpt>
      <trkpt lat="47.22319" lon="6.72492">
        <ele>883</ele>
        <time>2018-07-01T09:27:24.000Z</time>
      </trkpt>
      <trkpt lat="47.22319" lon="6.72488">
        <ele>882</ele>
        <time>2018-07-01T09:27:25.000Z</time>
      </trkpt>
      <trkpt lat="47.22318" lon="6.72484">
        <ele>882</ele>
        <time>2018-07-01T09:27:26.000Z</time>
      </trkpt>
      <trkpt lat="47.22318" lon="6.72481">
        <ele>881</ele>
        <time>2018-07-01T09:27:27.000Z</time>
      </trkpt>
      <trkpt lat="47.22318" lon="6.72477">
        <ele>881</ele>
        <time>2018-07-01T09:27:28.000Z</time>
      </trkpt>
      <trkpt lat="47.22317" lon="6.72473">
        <ele>881</ele>
        <time>2018-07-01T09:27:29.000Z</time>
      </trkpt>
      <trkpt lat="47.22316" lon="6.72469">
        <ele>880</ele>
        <time>2018-07-01T09:27:30.000Z</time>
      </trkpt>
      <trkpt lat="47.22315" lon="6.72465">
        <ele>880</ele>
        <time>2018-07-01T09:27:31.000Z</time>
      </trkpt>
      <trkpt lat="47.22314" lon="6.72461">
        <ele>880</ele>
        <time>2018-07-01T09:27:32.000Z</time>
      </trkpt>
      <trkpt lat="47.22313" lon="6.72456">
        <ele>880</ele>
        <time>2018-07-01T09:27:33.000Z</time>
      </trkpt>
      <trkpt lat="47.22312" lon="6.72451">
        <ele>880</ele>
        <time>2018-07-01T09:27:34.000Z</time>
      </trkpt>
      <trkpt lat="47.2231" lon="6.72446">
        <ele>879</ele>
        <time>2018-07-01T09:27:35.000Z</time>
      </trkpt>
      <trkpt lat="47.22309" lon="6.72441">
        <ele>879</ele>
        <time>2018-07-01T09:27:36.000Z</time>
      </trkpt>
      <trkpt lat="47.22308" lon="6.72437">
        <ele>879</ele>
        <time>2018-07-01T09:27:37.000Z</time>
      </trkpt>
      <trkpt lat="47.22307" lon="6.72433">
        <ele>879</ele>
        <time>2018-07-01T09:27:38.000Z</time>
      </trkpt>
      <trkpt lat="47.22306" lon="6.72428">
        <ele>879</ele>
        <time>2018-07-01T09:27:39.000Z</time>
      </trkpt>
      <trkpt lat="47.22304" lon="6.72425">
        <ele>879</ele>
        <time>2018-07-01T09:27:40.000Z</time>
      </trkpt>
      <trkpt lat="47.22304" lon="6.7242">
        <ele>879</ele>
        <time>2018-07-01T09:27:41.000Z</time>
      </trkpt>
      <trkpt lat="47.22303" lon="6.72416">
        <ele>876</ele>
        <time>2018-07-01T09:27:42.000Z</time>
      </trkpt>
      <trkpt lat="47.22303" lon="6.72412">
        <ele>876</ele>
        <time>2018-07-01T09:27:43.000Z</time>
      </trkpt>
      <trkpt lat="47.22302" lon="6.72407">
        <ele>875</ele>
        <time>2018-07-01T09:27:44.000Z</time>
      </trkpt>
      <trkpt lat="47.223" lon="6.72403">
        <ele>875</ele>
        <time>2018-07-01T09:27:45.000Z</time>
      </trkpt>
      <trkpt lat="47.22299" lon="6.72399">
        <ele>874</ele>
        <time>2018-07-01T09:27:46.000Z</time>
      </trkpt>
      <trkpt lat="47.22299" lon="6.72394">
        <ele>874</ele>
        <time>2018-07-01T09:27:47.000Z</time>
      </trkpt>
      <trkpt lat="47.22298" lon="6.72389">
        <ele>874</ele>
        <time>2018-07-01T09:27:48.000Z</time>
      </trkpt>
      <trkpt lat="47.22297" lon="6.72384">
        <ele>873</ele>
        <time>2018-07-01T09:27:49.000Z</time>
      </trkpt>
      <trkpt lat="47.22296" lon="6.72378">
        <ele>873</ele>
        <time>2018-07-01T09:27:50.000Z</time>
      </trkpt>
      <trkpt lat="47.22295" lon="6.72373">
        <ele>872</ele>
        <time>2018-07-01T09:27:51.000Z</time>
      </trkpt>
      <trkpt lat="47.22294" lon="6.72368">
        <ele>872</ele>
        <time>2018-07-01T09:27:52.000Z</time>
      </trkpt>
      <trkpt lat="47.22293" lon="6.72363">
        <ele>872</ele>
        <time>2018-07-01T09:27:53.000Z</time>
      </trkpt>
      <trkpt lat="47.22292" lon="6.72357">
        <ele>871</ele>
        <time>2018-07-01T09:27:54.000Z</time>
      </trkpt>
      <trkpt lat="47.22291" lon="6.72352">
        <ele>871</ele>
        <time>2018-07-01T09:27:55.000Z</time>
      </trkpt>
      <trkpt lat="47.2229" lon="6.72346">
        <ele>871</ele>
        <time>2018-07-01T09:27:56.000Z</time>
      </trkpt>
      <trkpt lat="47.2229" lon="6.72341">
        <ele>871</ele>
        <time>2018-07-01T09:27:57.000Z</time>
      </trkpt>
      <trkpt lat="47.22289" lon="6.72335">
        <ele>870</ele>
        <time>2018-07-01T09:27:58.000Z</time>
      </trkpt>
      <trkpt lat="47.22287" lon="6.7233">
        <ele>865</ele>
        <time>2018-07-01T09:27:59.000Z</time>
      </trkpt>
      <trkpt lat="47.22286" lon="6.72325">
        <ele>865</ele>
        <time>2018-07-01T09:28:00.000Z</time>
      </trkpt>
      <trkpt lat="47.22285" lon="6.7232">
        <ele>864</ele>
        <time>2018-07-01T09:28:01.000Z</time>
      </trkpt>
      <trkpt lat="47.22283" lon="6.72316">
        <ele>864</ele>
        <time>2018-07-01T09:28:02.000Z</time>
      </trkpt>
      <trkpt lat="47.22282" lon="6.72312">
        <ele>864</ele>
        <time>2018-07-01T09:28:03.000Z</time>
      </trkpt>
      <trkpt lat="47.2228" lon="6.72308">
        <ele>864</ele>
        <time>2018-07-01T09:28:04.000Z</time>
      </trkpt>
      <trkpt lat="47.22279" lon="6.72304">
        <ele>864</ele>
        <time>2018-07-01T09:28:05.000Z</time>
      </trkpt>
      <trkpt lat="47.22277" lon="6.723">
        <ele>863</ele>
        <time>2018-07-01T09:28:06.000Z</time>
      </trkpt>
      <trkpt lat="47.22276" lon="6.72295">
        <ele>863</ele>
        <time>2018-07-01T09:28:07.000Z</time>
      </trkpt>
      <trkpt lat="47.22274" lon="6.7229">
        <ele>863</ele>
        <time>2018-07-01T09:28:08.000Z</time>
      </trkpt>
      <trkpt lat="47.22272" lon="6.72285">
        <ele>862</ele>
        <time>2018-07-01T09:28:09.000Z</time>
      </trkpt>
      <trkpt lat="47.2227" lon="6.7228">
        <ele>862</ele>
        <time>2018-07-01T09:28:10.000Z</time>
      </trkpt>
      <trkpt lat="47.22268" lon="6.72275">
        <ele>861</ele>
        <time>2018-07-01T09:28:11.000Z</time>
      </trkpt>
      <trkpt lat="47.22266" lon="6.7227">
        <ele>861</ele>
        <time>2018-07-01T09:28:12.000Z</time>
      </trkpt>
      <trkpt lat="47.22264" lon="6.72265">
        <ele>860</ele>
        <time>2018-07-01T09:28:13.000Z</time>
      </trkpt>
      <trkpt lat="47.22262" lon="6.7226">
        <ele>860</ele>
        <time>2018-07-01T09:28:14.000Z</time>
      </trkpt>
      <trkpt lat="47.22261" lon="6.72255">
        <ele>859</ele>
        <time>2018-07-01T09:28:15.000Z</time>
      </trkpt>
      <trkpt lat="47.2226" lon="6.72249">
        <ele>855</ele>
        <time>2018-07-01T09:28:16.000Z</time>
      </trkpt>
      <trkpt lat="47.22258" lon="6.72244">
        <ele>855</ele>
        <time>2018-07-01T09:28:17.000Z</time>
      </trkpt>
      <trkpt lat="47.22257" lon="6.72239">
        <ele>855</ele>
        <time>2018-07-01T09:28:18.000Z</time>
      </trkpt>
      <trkpt lat="47.22256" lon="6.72235">
        <ele>854</ele>
        <time>2018-07-01T09:28:19.000Z</time>
      </trkpt>
      <trkpt lat="47.22256" lon="6.72231">
        <ele>854</ele>
        <time>2018-07-01T09:28:20.000Z</time>
      </trkpt>
      <trkpt lat="47.22256" lon="6.72227">
        <ele>854</ele>
        <time>2018-07-01T09:28:21.000Z</time>
      </trkpt>
      <trkpt lat="47.22258" lon="6.72225">
        <ele>853</ele>
        <time>2018-07-01T09:28:22.000Z</time>
      </trkpt>
      <trkpt lat="47.22261" lon="6.72224">
        <ele>853</ele>
        <time>2018-07-01T09:28:23.000Z</time>
      </trkpt>
      <trkpt lat="47.22264" lon="6.72224">
        <ele>853</ele>
        <time>2018-07-01T09:28:24.000Z</time>
      </trkpt>
      <trkpt lat="47.22268" lon="6.72225">
        <ele>854</ele>
        <time>2018-07-01T09:28:25.000Z</time>
      </trkpt>
      <trkpt lat="47.22272" lon="6.72226">
        <ele>854</ele>
        <time>2018-07-01T09:28:26.000Z</time>
      </trkpt>
      <trkpt lat="47.22275" lon="6.72227">
        <ele>854</ele>
        <time>2018-07-01T09:28:27.000Z</time>
      </trkpt>
      <trkpt lat="47.22278" lon="6.72228">
        <ele>854</ele>
        <time>2018-07-01T09:28:28.000Z</time>
      </trkpt>
      <trkpt lat="47.22282" lon="6.72228">
        <ele>854</ele>
        <time>2018-07-01T09:28:29.000Z</time>
      </trkpt>
      <trkpt lat="47.22285" lon="6.72229">
        <ele>854</ele>
        <time>2018-07-01T09:28:30.000Z</time>
      </trkpt>
      <trkpt lat="47.22289" lon="6.72229">
        <ele>855</ele>
        <time>2018-07-01T09:28:31.000Z</time>
      </trkpt>
      <trkpt lat="47.22293" lon="6.72229">
        <ele>855</ele>
        <time>2018-07-01T09:28:32.000Z</time>
      </trkpt>
      <trkpt lat="47.22296" lon="6.72229">
        <ele>855</ele>
        <time>2018-07-01T09:28:33.000Z</time>
      </trkpt>
      <trkpt lat="47.223" lon="6.72228">
        <ele>855</ele>
        <time>2018-07-01T09:28:34.000Z</time>
      </trkpt>
      <trkpt lat="47.22303" lon="6.72227">
        <ele>856</ele>
        <time>2018-07-01T09:28:35.000Z</time>
      </trkpt>
      <trkpt lat="47.22306" lon="6.72225">
        <ele>856</ele>
        <time>2018-07-01T09:28:36.000Z</time>
      </trkpt>
      <trkpt lat="47.22309" lon="6.72223">
        <ele>856</ele>
        <time>2018-07-01T09:28:37.000Z</time>
      </trkpt>
      <trkpt lat="47.22313" lon="6.7222">
        <ele>856</ele>
        <time>2018-07-01T09:28:38.000Z</time>
      </trkpt>
      <trkpt lat="47.22316" lon="6.72218">
        <ele>855</ele>
        <time>2018-07-01T09:28:39.000Z</time>
      </trkpt>
      <trkpt lat="47.22319" lon="6.72215">
        <ele>855</ele>
        <time>2018-07-01T09:28:40.000Z</time>
      </trkpt>
      <trkpt lat="47.22323" lon="6.72212">
        <ele>855</ele>
        <time>2018-07-01T09:28:41.000Z</time>
      </trkpt>
      <trkpt lat="47.22326" lon="6.72209">
        <ele>855</ele>
        <time>2018-07-01T09:28:42.000Z</time>
      </trkpt>
      <trkpt lat="47.22328" lon="6.72207">
        <ele>855</ele>
        <time>2018-07-01T09:28:43.000Z</time>
      </trkpt>
      <trkpt lat="47.22331" lon="6.72205">
        <ele>855</ele>
        <time>2018-07-01T09:28:44.000Z</time>
      </trkpt>
      <trkpt lat="47.22334" lon="6.72203">
        <ele>852</ele>
        <time>2018-07-01T09:28:45.000Z</time>
      </trkpt>
      <trkpt lat="47.22336" lon="6.72202">
        <ele>852</ele>
        <time>2018-07-01T09:28:46.000Z</time>
      </trkpt>
      <trkpt lat="47.22339" lon="6.722">
        <ele>852</ele>
        <time>2018-07-01T09:28:47.000Z</time>
      </trkpt>
      <trkpt lat="47.22342" lon="6.72199">
        <ele>851</ele>
        <time>2018-07-01T09:28:48.000Z</time>
      </trkpt>
      <trkpt lat="47.22346" lon="6.72198">
        <ele>851</ele>
        <time>2018-07-01T09:28:49.000Z</time>
      </trkpt>
      <trkpt lat="47.2235" lon="6.72196">
        <ele>851</ele>
        <time>2018-07-01T09:28:50.000Z</time>
      </trkpt>
      <trkpt lat="47.22354" lon="6.72195">
        <ele>850</ele>
        <time>2018-07-01T09:28:51.000Z</time>
      </trkpt>
      <trkpt lat="47.22357" lon="6.72194">
        <ele>850</ele>
        <time>2018-07-01T09:28:52.000Z</time>
      </trkpt>
      <trkpt lat="47.22361" lon="6.72193">
        <ele>850</ele>
        <time>2018-07-01T09:28:53.000Z</time>
      </trkpt>
      <trkpt lat="47.22365" lon="6.72191">
        <ele>849</ele>
        <time>2018-07-01T09:28:54.000Z</time>
      </trkpt>
      <trkpt lat="47.22369" lon="6.7219">
        <ele>849</ele>
        <time>2018-07-01T09:28:55.000Z</time>
      </trkpt>
      <trkpt lat="47.22373" lon="6.72189">
        <ele>848</ele>
        <time>2018-07-01T09:28:56.000Z</time>
      </trkpt>
      <trkpt lat="47.22376" lon="6.72188">
        <ele>848</ele>
        <time>2018-07-01T09:28:57.000Z</time>
      </trkpt>
      <trkpt lat="47.22379" lon="6.72187">
        <ele>847</ele>
        <time>2018-07-01T09:28:58.000Z</time>
      </trkpt>
      <trkpt lat="47.22383" lon="6.72185">
        <ele>847</ele>
        <time>2018-07-01T09:28:59.000Z</time>
      </trkpt>
      <trkpt lat="47.22386" lon="6.72185">
        <ele>846</ele>
        <time>2018-07-01T09:29:00.000Z</time>
      </trkpt>
      <trkpt lat="47.22388" lon="6.72184">
        <ele>846</ele>
        <time>2018-07-01T09:29:01.000Z</time>
      </trkpt>
      <trkpt lat="47.2239" lon="6.72184">
        <ele>845</ele>
        <time>2018-07-01T09:29:02.000Z</time>
      </trkpt>
      <trkpt lat="47.22392" lon="6.72183">
        <ele>845</ele>
        <time>2018-07-01T09:29:03.000Z</time>
      </trkpt>
      <trkpt lat="47.22395" lon="6.72182">
        <ele>845</ele>
        <time>2018-07-01T09:29:04.000Z</time>
      </trkpt>
      <trkpt lat="47.22397" lon="6.72182">
        <ele>844</ele>
        <time>2018-07-01T09:29:05.000Z</time>
      </trkpt>
      <trkpt lat="47.22399" lon="6.72181">
        <ele>844</ele>
        <time>2018-07-01T09:29:06.000Z</time>
      </trkpt>
      <trkpt lat="47.22402" lon="6.72181">
        <ele>843</ele>
        <time>2018-07-01T09:29:07.000Z</time>
      </trkpt>
      <trkpt lat="47.22404" lon="6.7218">
        <ele>842</ele>
        <time>2018-07-01T09:29:08.000Z</time>
      </trkpt>
      <trkpt lat="47.22406" lon="6.72179">
        <ele>842</ele>
        <time>2018-07-01T09:29:09.000Z</time>
      </trkpt>
      <trkpt lat="47.22408" lon="6.72178">
        <ele>841</ele>
        <time>2018-07-01T09:29:10.000Z</time>
      </trkpt>
      <trkpt lat="47.22409" lon="6.72178">
        <ele>841</ele>
        <time>2018-07-01T09:29:11.000Z</time>
      </trkpt>
      <trkpt lat="47.22408" lon="6.72177">
        <ele>841</ele>
        <time>2018-07-01T09:29:12.000Z</time>
      </trkpt>
      <trkpt lat="47.22408" lon="6.72177">
        <ele>841</ele>
        <time>2018-07-01T09:29:13.000Z</time>
      </trkpt>
      <trkpt lat="47.22408" lon="6.72177">
        <ele>841</ele>
        <time>2018-07-01T09:29:14.000Z</time>
      </trkpt>
      <trkpt lat="47.22408" lon="6.72177">
        <ele>841</ele>
        <time>2018-07-01T09:29:15.000Z</time>
      </trkpt>
      <trkpt lat="47.22408" lon="6.72177">
        <ele>841</ele>
        <time>2018-07-01T09:29:16.000Z</time>
      </trkpt>
      <trkpt lat="47.22409" lon="6.72178">
        <ele>841</ele>
        <time>2018-07-01T09:29:17.000Z</time>
      </trkpt>
      <trkpt lat="47.2241" lon="6.72178">
        <ele>841</ele>
        <time>2018-07-01T09:29:18.000Z</time>
      </trkpt>
      <trkpt lat="47.22412" lon="6.72178">
        <ele>840</ele>
        <time>2018-07-01T09:29:19.000Z</time>
      </trkpt>
      <trkpt lat="47.22414" lon="6.72177">
        <ele>840</ele>
        <time>2018-07-01T09:29:20.000Z</time>
      </trkpt>
      <trkpt lat="47.22416" lon="6.72175">
        <ele>839</ele>
        <time>2018-07-01T09:29:21.000Z</time>
      </trkpt>
      <trkpt lat="47.22418" lon="6.72172">
        <ele>833</ele>
        <time>2018-07-01T09:29:22.000Z</time>
      </trkpt>
      <trkpt lat="47.2242" lon="6.72168">
        <ele>834</ele>
        <time>2018-07-01T09:29:23.000Z</time>
      </trkpt>
      <trkpt lat="47.22421" lon="6.72163">
        <ele>832</ele>
        <time>2018-07-01T09:29:24.000Z</time>
      </trkpt>
      <trkpt lat="47.22422" lon="6.72159">
        <ele>830</ele>
        <time>2018-07-01T09:29:25.000Z</time>
      </trkpt>
      <trkpt lat="47.22422" lon="6.72154">
        <ele>829</ele>
        <time>2018-07-01T09:29:26.000Z</time>
      </trkpt>
      <trkpt lat="47.22423" lon="6.7215">
        <ele>828</ele>
        <time>2018-07-01T09:29:27.000Z</time>
      </trkpt>
      <trkpt lat="47.22424" lon="6.72146">
        <ele>827</ele>
        <time>2018-07-01T09:29:28.000Z</time>
      </trkpt>
      <trkpt lat="47.22425" lon="6.72142">
        <ele>826</ele>
        <time>2018-07-01T09:29:29.000Z</time>
      </trkpt>
      <trkpt lat="47.22425" lon="6.72137">
        <ele>825</ele>
        <time>2018-07-01T09:29:30.000Z</time>
      </trkpt>
      <trkpt lat="47.22426" lon="6.72132">
        <ele>824</ele>
        <time>2018-07-01T09:29:31.000Z</time>
      </trkpt>
      <trkpt lat="47.22427" lon="6.72126">
        <ele>824</ele>
        <time>2018-07-01T09:29:32.000Z</time>
      </trkpt>
      <trkpt lat="47.22427" lon="6.72121">
        <ele>824</ele>
        <time>2018-07-01T09:29:33.000Z</time>
      </trkpt>
      <trkpt lat="47.22426" lon="6.72117">
        <ele>824</ele>
        <time>2018-07-01T09:29:34.000Z</time>
      </trkpt>
      <trkpt lat="47.22426" lon="6.72112">
        <ele>824</ele>
        <time>2018-07-01T09:29:35.000Z</time>
      </trkpt>
      <trkpt lat="47.22424" lon="6.72107">
        <ele>824</ele>
        <time>2018-07-01T09:29:36.000Z</time>
      </trkpt>
      <trkpt lat="47.22422" lon="6.72102">
        <ele>825</ele>
        <time>2018-07-01T09:29:37.000Z</time>
      </trkpt>
      <trkpt lat="47.22421" lon="6.72097">
        <ele>825</ele>
        <time>2018-07-01T09:29:38.000Z</time>
      </trkpt>
      <trkpt lat="47.22419" lon="6.72092">
        <ele>826</ele>
        <time>2018-07-01T09:29:39.000Z</time>
      </trkpt>
      <trkpt lat="47.22418" lon="6.72088">
        <ele>827</ele>
        <time>2018-07-01T09:29:40.000Z</time>
      </trkpt>
      <trkpt lat="47.22417" lon="6.72083">
        <ele>828</ele>
        <time>2018-07-01T09:29:41.000Z</time>
      </trkpt>
      <trkpt lat="47.22416" lon="6.72078">
        <ele>826</ele>
        <time>2018-07-01T09:29:42.000Z</time>
      </trkpt>
      <trkpt lat="47.22415" lon="6.72073">
        <ele>824</ele>
        <time>2018-07-01T09:29:43.000Z</time>
      </trkpt>
      <trkpt lat="47.22415" lon="6.72067">
        <ele>823</ele>
        <time>2018-07-01T09:29:44.000Z</time>
      </trkpt>
      <trkpt lat="47.22414" lon="6.72061">
        <ele>822</ele>
        <time>2018-07-01T09:29:45.000Z</time>
      </trkpt>
      <trkpt lat="47.22415" lon="6.72056">
        <ele>821</ele>
        <time>2018-07-01T09:29:46.000Z</time>
      </trkpt>
      <trkpt lat="47.22415" lon="6.7205">
        <ele>820</ele>
        <time>2018-07-01T09:29:47.000Z</time>
      </trkpt>
      <trkpt lat="47.22415" lon="6.72045">
        <ele>819</ele>
        <time>2018-07-01T09:29:48.000Z</time>
      </trkpt>
      <trkpt lat="47.22415" lon="6.7204">
        <ele>818</ele>
        <time>2018-07-01T09:29:49.000Z</time>
      </trkpt>
      <trkpt lat="47.22416" lon="6.72035">
        <ele>818</ele>
        <time>2018-07-01T09:29:50.000Z</time>
      </trkpt>
      <trkpt lat="47.22417" lon="6.72031">
        <ele>816</ele>
        <time>2018-07-01T09:29:51.000Z</time>
      </trkpt>
      <trkpt lat="47.22418" lon="6.72027">
        <ele>816</ele>
        <time>2018-07-01T09:29:52.000Z</time>
      </trkpt>
      <trkpt lat="47.22419" lon="6.72024">
        <ele>815</ele>
        <time>2018-07-01T09:29:53.000Z</time>
      </trkpt>
      <trkpt lat="47.22421" lon="6.72022">
        <ele>815</ele>
        <time>2018-07-01T09:29:54.000Z</time>
      </trkpt>
      <trkpt lat="47.22423" lon="6.7202">
        <ele>815</ele>
        <time>2018-07-01T09:29:55.000Z</time>
      </trkpt>
      <trkpt lat="47.22426" lon="6.72019">
        <ele>815</ele>
        <time>2018-07-01T09:29:56.000Z</time>
      </trkpt>
      <trkpt lat="47.22429" lon="6.72018">
        <ele>815</ele>
        <time>2018-07-01T09:29:57.000Z</time>
      </trkpt>
      <trkpt lat="47.22432" lon="6.72019">
        <ele>815</ele>
        <time>2018-07-01T09:29:58.000Z</time>
      </trkpt>
      <trkpt lat="47.22435" lon="6.72019">
        <ele>815</ele>
        <time>2018-07-01T09:29:59.000Z</time>
      </trkpt>
      <trkpt lat="47.22438" lon="6.7202">
        <ele>815</ele>
        <time>2018-07-01T09:30:00.000Z</time>
      </trkpt>
      <trkpt lat="47.22442" lon="6.72022">
        <ele>814</ele>
        <time>2018-07-01T09:30:01.000Z</time>
      </trkpt>
      <trkpt lat="47.22446" lon="6.72023">
        <ele>814</ele>
        <time>2018-07-01T09:30:02.000Z</time>
      </trkpt>
      <trkpt lat="47.2245" lon="6.72025">
        <ele>814</ele>
        <time>2018-07-01T09:30:03.000Z</time>
      </trkpt>
      <trkpt lat="47.22454" lon="6.72027">
        <ele>814</ele>
        <time>2018-07-01T09:30:04.000Z</time>
      </trkpt>
      <trkpt lat="47.22458" lon="6.72029">
        <ele>814</ele>
        <time>2018-07-01T09:30:05.000Z</time>
      </trkpt>
      <trkpt lat="47.22462" lon="6.72031">
        <ele>814</ele>
        <time>2018-07-01T09:30:06.000Z</time>
      </trkpt>
      <trkpt lat="47.22466" lon="6.72033">
        <ele>813</ele>
        <time>2018-07-01T09:30:07.000Z</time>
      </trkpt>
      <trkpt lat="47.2247" lon="6.72035">
        <ele>813</ele>
        <time>2018-07-01T09:30:08.000Z</time>
      </trkpt>
      <trkpt lat="47.22474" lon="6.72037">
        <ele>813</ele>
        <time>2018-07-01T09:30:09.000Z</time>
      </trkpt>
      <trkpt lat="47.22478" lon="6.7204">
        <ele>813</ele>
        <time>2018-07-01T09:30:10.000Z</time>
      </trkpt>
      <trkpt lat="47.22482" lon="6.72043">
        <ele>813</ele>
        <time>2018-07-01T09:30:11.000Z</time>
      </trkpt>
      <trkpt lat="47.22486" lon="6.72046">
        <ele>813</ele>
        <time>2018-07-01T09:30:12.000Z</time>
      </trkpt>
      <trkpt lat="47.22491" lon="6.72049">
        <ele>813</ele>
        <time>2018-07-01T09:30:13.000Z</time>
      </trkpt>
      <trkpt lat="47.22495" lon="6.72052">
        <ele>812</ele>
        <time>2018-07-01T09:30:14.000Z</time>
      </trkpt>
      <trkpt lat="47.22498" lon="6.72054">
        <ele>812</ele>
        <time>2018-07-01T09:30:15.000Z</time>
      </trkpt>
      <trkpt lat="47.22502" lon="6.72057">
        <ele>802</ele>
        <time>2018-07-01T09:30:16.000Z</time>
      </trkpt>
      <trkpt lat="47.22506" lon="6.72059">
        <ele>802</ele>
        <time>2018-07-01T09:30:17.000Z</time>
      </trkpt>
      <trkpt lat="47.22509" lon="6.72062">
        <ele>802</ele>
        <time>2018-07-01T09:30:18.000Z</time>
      </trkpt>
      <trkpt lat="47.22512" lon="6.72065">
        <ele>802</ele>
        <time>2018-07-01T09:30:19.000Z</time>
      </trkpt>
      <trkpt lat="47.22516" lon="6.72068">
        <ele>802</ele>
        <time>2018-07-01T09:30:20.000Z</time>
      </trkpt>
      <trkpt lat="47.22519" lon="6.72071">
        <ele>802</ele>
        <time>2018-07-01T09:30:21.000Z</time>
      </trkpt>
      <trkpt lat="47.22522" lon="6.72073">
        <ele>801</ele>
        <time>2018-07-01T09:30:22.000Z</time>
      </trkpt>
      <trkpt lat="47.22525" lon="6.72076">
        <ele>801</ele>
        <time>2018-07-01T09:30:23.000Z</time>
      </trkpt>
      <trkpt lat="47.22528" lon="6.72079">
        <ele>800</ele>
        <time>2018-07-01T09:30:24.000Z</time>
      </trkpt>
      <trkpt lat="47.22531" lon="6.72081">
        <ele>800</ele>
        <time>2018-07-01T09:30:25.000Z</time>
      </trkpt>
      <trkpt lat="47.22535" lon="6.72084">
        <ele>801</ele>
        <time>2018-07-01T09:30:26.000Z</time>
      </trkpt>
      <trkpt lat="47.22538" lon="6.72087">
        <ele>801</ele>
        <time>2018-07-01T09:30:27.000Z</time>
      </trkpt>
      <trkpt lat="47.22541" lon="6.7209">
        <ele>800</ele>
        <time>2018-07-01T09:30:28.000Z</time>
      </trkpt>
      <trkpt lat="47.22544" lon="6.72094">
        <ele>800</ele>
        <time>2018-07-01T09:30:29.000Z</time>
      </trkpt>
      <trkpt lat="47.22548" lon="6.72097">
        <ele>799</ele>
        <time>2018-07-01T09:30:30.000Z</time>
      </trkpt>
      <trkpt lat="47.2255" lon="6.721">
        <ele>799</ele>
        <time>2018-07-01T09:30:31.000Z</time>
      </trkpt>
      <trkpt lat="47.22553" lon="6.72103">
        <ele>799</ele>
        <time>2018-07-01T09:30:32.000Z</time>
      </trkpt>
      <trkpt lat="47.22556" lon="6.72107">
        <ele>798</ele>
        <time>2018-07-01T09:30:33.000Z</time>
      </trkpt>
      <trkpt lat="47.22558" lon="6.7211">
        <ele>798</ele>
        <time>2018-07-01T09:30:34.000Z</time>
      </trkpt>
      <trkpt lat="47.22561" lon="6.72113">
        <ele>798</ele>
        <time>2018-07-01T09:30:35.000Z</time>
      </trkpt>
      <trkpt lat="47.22564" lon="6.72117">
        <ele>798</ele>
        <time>2018-07-01T09:30:36.000Z</time>
      </trkpt>
      <trkpt lat="47.22567" lon="6.72121">
        <ele>798</ele>
        <time>2018-07-01T09:30:37.000Z</time>
      </trkpt>
      <trkpt lat="47.22571" lon="6.72124">
        <ele>798</ele>
        <time>2018-07-01T09:30:38.000Z</time>
      </trkpt>
      <trkpt lat="47.22574" lon="6.72127">
        <ele>798</ele>
        <time>2018-07-01T09:30:39.000Z</time>
      </trkpt>
      <trkpt lat="47.22577" lon="6.7213">
        <ele>798</ele>
        <time>2018-07-01T09:30:40.000Z</time>
      </trkpt>
      <trkpt lat="47.22581" lon="6.72132">
        <ele>798</ele>
        <time>2018-07-01T09:30:41.000Z</time>
      </trkpt>
      <trkpt lat="47.22584" lon="6.72135">
        <ele>786</ele>
        <time>2018-07-01T09:30:42.000Z</time>
      </trkpt>
      <trkpt lat="47.22587" lon="6.72137">
        <ele>787</ele>
        <time>2018-07-01T09:30:43.000Z</time>
      </trkpt>
      <trkpt lat="47.2259" lon="6.72139">
        <ele>787</ele>
        <time>2018-07-01T09:30:44.000Z</time>
      </trkpt>
      <trkpt lat="47.22593" lon="6.72141">
        <ele>787</ele>
        <time>2018-07-01T09:30:45.000Z</time>
      </trkpt>
      <trkpt lat="47.22596" lon="6.72141">
        <ele>786</ele>
        <time>2018-07-01T09:30:46.000Z</time>
      </trkpt>
      <trkpt lat="47.22598" lon="6.72139">
        <ele>786</ele>
        <time>2018-07-01T09:30:47.000Z</time>
      </trkpt>
      <trkpt lat="47.22599" lon="6.72136">
        <ele>785</ele>
        <time>2018-07-01T09:30:48.000Z</time>
      </trkpt>
      <trkpt lat="47.22599" lon="6.72133">
        <ele>785</ele>
        <time>2018-07-01T09:30:49.000Z</time>
      </trkpt>
      <trkpt lat="47.226" lon="6.72129">
        <ele>784</ele>
        <time>2018-07-01T09:30:50.000Z</time>
      </trkpt>
      <trkpt lat="47.226" lon="6.72125">
        <ele>784</ele>
        <time>2018-07-01T09:30:51.000Z</time>
      </trkpt>
      <trkpt lat="47.226" lon="6.72121">
        <ele>784</ele>
        <time>2018-07-01T09:30:52.000Z</time>
      </trkpt>
      <trkpt lat="47.22601" lon="6.72116">
        <ele>784</ele>
        <time>2018-07-01T09:30:53.000Z</time>
      </trkpt>
      <trkpt lat="47.22601" lon="6.72112">
        <ele>784</ele>
        <time>2018-07-01T09:30:54.000Z</time>
      </trkpt>
      <trkpt lat="47.22602" lon="6.72108">
        <ele>783</ele>
        <time>2018-07-01T09:30:55.000Z</time>
      </trkpt>
      <trkpt lat="47.22603" lon="6.72103">
        <ele>783</ele>
        <time>2018-07-01T09:30:56.000Z</time>
      </trkpt>
      <trkpt lat="47.22604" lon="6.72099">
        <ele>783</ele>
        <time>2018-07-01T09:30:57.000Z</time>
      </trkpt>
      <trkpt lat="47.22605" lon="6.72095">
        <ele>783</ele>
        <time>2018-07-01T09:30:58.000Z</time>
      </trkpt>
      <trkpt lat="47.22606" lon="6.72091">
        <ele>783</ele>
        <time>2018-07-01T09:30:59.000Z</time>
      </trkpt>
      <trkpt lat="47.22607" lon="6.72087">
        <ele>783</ele>
        <time>2018-07-01T09:31:00.000Z</time>
      </trkpt>
      <trkpt lat="47.22608" lon="6.72083">
        <ele>781</ele>
        <time>2018-07-01T09:31:01.000Z</time>
      </trkpt>
      <trkpt lat="47.22609" lon="6.72079">
        <ele>781</ele>
        <time>2018-07-01T09:31:02.000Z</time>
      </trkpt>
      <trkpt lat="47.2261" lon="6.72075">
        <ele>780</ele>
        <time>2018-07-01T09:31:03.000Z</time>
      </trkpt>
      <trkpt lat="47.22611" lon="6.72071">
        <ele>780</ele>
        <time>2018-07-01T09:31:04.000Z</time>
      </trkpt>
      <trkpt lat="47.22613" lon="6.72068">
        <ele>780</ele>
        <time>2018-07-01T09:31:05.000Z</time>
      </trkpt>
      <trkpt lat="47.22614" lon="6.72065">
        <ele>779</ele>
        <time>2018-07-01T09:31:06.000Z</time>
      </trkpt>
      <trkpt lat="47.22616" lon="6.72061">
        <ele>779</ele>
        <time>2018-07-01T09:31:07.000Z</time>
      </trkpt>
      <trkpt lat="47.22617" lon="6.72058">
        <ele>779</ele>
        <time>2018-07-01T09:31:08.000Z</time>
      </trkpt>
      <trkpt lat="47.22619" lon="6.72055">
        <ele>778</ele>
        <time>2018-07-01T09:31:09.000Z</time>
      </trkpt>
      <trkpt lat="47.22621" lon="6.72053">
        <ele>778</ele>
        <time>2018-07-01T09:31:10.000Z</time>
      </trkpt>
      <trkpt lat="47.22623" lon="6.7205">
        <ele>778</ele>
        <time>2018-07-01T09:31:11.000Z</time>
      </trkpt>
      <trkpt lat="47.22625" lon="6.72047">
        <ele>778</ele>
        <time>2018-07-01T09:31:12.000Z</time>
      </trkpt>
      <trkpt lat="47.22627" lon="6.72045">
        <ele>777</ele>
        <time>2018-07-01T09:31:13.000Z</time>
      </trkpt>
      <trkpt lat="47.22629" lon="6.72042">
        <ele>777</ele>
        <time>2018-07-01T09:31:14.000Z</time>
      </trkpt>
      <trkpt lat="47.22631" lon="6.72039">
        <ele>777</ele>
        <time>2018-07-01T09:31:15.000Z</time>
      </trkpt>
      <trkpt lat="47.22634" lon="6.72036">
        <ele>777</ele>
        <time>2018-07-01T09:31:16.000Z</time>
      </trkpt>
      <trkpt lat="47.22637" lon="6.72034">
        <ele>776</ele>
        <time>2018-07-01T09:31:17.000Z</time>
      </trkpt>
      <trkpt lat="47.22641" lon="6.72031">
        <ele>776</ele>
        <time>2018-07-01T09:31:18.000Z</time>
      </trkpt>
      <trkpt lat="47.22644" lon="6.72029">
        <ele>776</ele>
        <time>2018-07-01T09:31:19.000Z</time>
      </trkpt>
      <trkpt lat="47.22648" lon="6.72026">
        <ele>775</ele>
        <time>2018-07-01T09:31:20.000Z</time>
      </trkpt>
      <trkpt lat="47.22653" lon="6.72023">
        <ele>775</ele>
        <time>2018-07-01T09:31:21.000Z</time>
      </trkpt>
      <trkpt lat="47.22657" lon="6.72019">
        <ele>774</ele>
        <time>2018-07-01T09:31:22.000Z</time>
      </trkpt>
      <trkpt lat="47.22661" lon="6.72016">
        <ele>773</ele>
        <time>2018-07-01T09:31:23.000Z</time>
      </trkpt>
      <trkpt lat="47.22664" lon="6.72012">
        <ele>773</ele>
        <time>2018-07-01T09:31:24.000Z</time>
      </trkpt>
      <trkpt lat="47.22666" lon="6.72008">
        <ele>772</ele>
        <time>2018-07-01T09:31:25.000Z</time>
      </trkpt>
      <trkpt lat="47.22668" lon="6.72004">
        <ele>767</ele>
        <time>2018-07-01T09:31:26.000Z</time>
      </trkpt>
      <trkpt lat="47.2267" lon="6.71999">
        <ele>767</ele>
        <time>2018-07-01T09:31:27.000Z</time>
      </trkpt>
      <trkpt lat="47.22672" lon="6.71995">
        <ele>765</ele>
        <time>2018-07-01T09:31:28.000Z</time>
      </trkpt>
      <trkpt lat="47.22673" lon="6.7199">
        <ele>763</ele>
        <time>2018-07-01T09:31:29.000Z</time>
      </trkpt>
      <trkpt lat="47.22674" lon="6.71986">
        <ele>761</ele>
        <time>2018-07-01T09:31:30.000Z</time>
      </trkpt>
      <trkpt lat="47.22675" lon="6.71982">
        <ele>759</ele>
        <time>2018-07-01T09:31:31.000Z</time>
      </trkpt>
      <trkpt lat="47.22676" lon="6.71977">
        <ele>758</ele>
        <time>2018-07-01T09:31:32.000Z</time>
      </trkpt>
      <trkpt lat="47.22677" lon="6.71973">
        <ele>757</ele>
        <time>2018-07-01T09:31:33.000Z</time>
      </trkpt>
      <trkpt lat="47.22677" lon="6.71969">
        <ele>757</ele>
        <time>2018-07-01T09:31:34.000Z</time>
      </trkpt>
      <trkpt lat="47.22678" lon="6.71965">
        <ele>756</ele>
        <time>2018-07-01T09:31:35.000Z</time>
      </trkpt>
      <trkpt lat="47.22679" lon="6.7196">
        <ele>756</ele>
        <time>2018-07-01T09:31:36.000Z</time>
      </trkpt>
      <trkpt lat="47.22679" lon="6.71956">
        <ele>756</ele>
        <time>2018-07-01T09:31:37.000Z</time>
      </trkpt>
      <trkpt lat="47.2268" lon="6.71951">
        <ele>756</ele>
        <time>2018-07-01T09:31:38.000Z</time>
      </trkpt>
      <trkpt lat="47.22681" lon="6.71947">
        <ele>756</ele>
        <time>2018-07-01T09:31:39.000Z</time>
      </trkpt>
      <trkpt lat="47.22681" lon="6.71942">
        <ele>756</ele>
        <time>2018-07-01T09:31:40.000Z</time>
      </trkpt>
      <trkpt lat="47.22682" lon="6.71938">
        <ele>756</ele>
        <time>2018-07-01T09:31:41.000Z</time>
      </trkpt>
      <trkpt lat="47.22683" lon="6.71934">
        <ele>757</ele>
        <time>2018-07-01T09:31:42.000Z</time>
      </trkpt>
      <trkpt lat="47.22684" lon="6.71929">
        <ele>757</ele>
        <time>2018-07-01T09:31:43.000Z</time>
      </trkpt>
      <trkpt lat="47.22685" lon="6.71925">
        <ele>757</ele>
        <time>2018-07-01T09:31:44.000Z</time>
      </trkpt>
      <trkpt lat="47.22686" lon="6.71921">
        <ele>757</ele>
        <time>2018-07-01T09:31:45.000Z</time>
      </trkpt>
      <trkpt lat="47.22688" lon="6.71918">
        <ele>756</ele>
        <time>2018-07-01T09:31:46.000Z</time>
      </trkpt>
      <trkpt lat="47.22689" lon="6.71916">
        <ele>754</ele>
        <time>2018-07-01T09:31:47.000Z</time>
      </trkpt>
      <trkpt lat="47.22691" lon="6.71914">
        <ele>753</ele>
        <time>2018-07-01T09:31:48.000Z</time>
      </trkpt>
      <trkpt lat="47.22693" lon="6.71912">
        <ele>752</ele>
        <time>2018-07-01T09:31:49.000Z</time>
      </trkpt>
      <trkpt lat="47.22695" lon="6.71912">
        <ele>751</ele>
        <time>2018-07-01T09:31:50.000Z</time>
      </trkpt>
      <trkpt lat="47.22697" lon="6.71911">
        <ele>751</ele>
        <time>2018-07-01T09:31:51.000Z</time>
      </trkpt>
      <trkpt lat="47.22699" lon="6.7191">
        <ele>750</ele>
        <time>2018-07-01T09:31:52.000Z</time>
      </trkpt>
      <trkpt lat="47.22701" lon="6.7191">
        <ele>750</ele>
        <time>2018-07-01T09:31:53.000Z</time>
      </trkpt>
      <trkpt lat="47.22702" lon="6.7191">
        <ele>749</ele>
        <time>2018-07-01T09:31:54.000Z</time>
      </trkpt>
      <trkpt lat="47.22705" lon="6.71911">
        <ele>748</ele>
        <time>2018-07-01T09:31:55.000Z</time>
      </trkpt>
      <trkpt lat="47.22706" lon="6.71912">
        <ele>748</ele>
        <time>2018-07-01T09:31:56.000Z</time>
      </trkpt>
      <trkpt lat="47.22708" lon="6.71912">
        <ele>747</ele>
        <time>2018-07-01T09:31:57.000Z</time>
      </trkpt>
      <trkpt lat="47.22709" lon="6.71911">
        <ele>747</ele>
        <time>2018-07-01T09:31:58.000Z</time>
      </trkpt>
      <trkpt lat="47.22711" lon="6.71909">
        <ele>747</ele>
        <time>2018-07-01T09:31:59.000Z</time>
      </trkpt>
      <trkpt lat="47.22712" lon="6.71907">
        <ele>746</ele>
        <time>2018-07-01T09:32:00.000Z</time>
      </trkpt>
      <trkpt lat="47.22713" lon="6.71904">
        <ele>746</ele>
        <time>2018-07-01T09:32:01.000Z</time>
      </trkpt>
      <trkpt lat="47.22714" lon="6.71901">
        <ele>745</ele>
        <time>2018-07-01T09:32:02.000Z</time>
      </trkpt>
      <trkpt lat="47.22715" lon="6.71896">
        <ele>745</ele>
        <time>2018-07-01T09:32:03.000Z</time>
      </trkpt>
      <trkpt lat="47.22716" lon="6.71892">
        <ele>745</ele>
        <time>2018-07-01T09:32:04.000Z</time>
      </trkpt>
      <trkpt lat="47.22717" lon="6.71888">
        <ele>745</ele>
        <time>2018-07-01T09:32:05.000Z</time>
      </trkpt>
      <trkpt lat="47.22718" lon="6.71883">
        <ele>744</ele>
        <time>2018-07-01T09:32:06.000Z</time>
      </trkpt>
      <trkpt lat="47.22719" lon="6.71879">
        <ele>744</ele>
        <time>2018-07-01T09:32:07.000Z</time>
      </trkpt>
      <trkpt lat="47.2272" lon="6.71874">
        <ele>744</ele>
        <time>2018-07-01T09:32:08.000Z</time>
      </trkpt>
      <trkpt lat="47.22721" lon="6.71869">
        <ele>743</ele>
        <time>2018-07-01T09:32:09.000Z</time>
      </trkpt>
      <trkpt lat="47.22722" lon="6.71863">
        <ele>742</ele>
        <time>2018-07-01T09:32:10.000Z</time>
      </trkpt>
      <trkpt lat="47.22723" lon="6.71858">
        <ele>742</ele>
        <time>2018-07-01T09:32:11.000Z</time>
      </trkpt>
      <trkpt lat="47.22724" lon="6.71853">
        <ele>741</ele>
        <time>2018-07-01T09:32:12.000Z</time>
      </trkpt>
      <trkpt lat="47.22725" lon="6.71847">
        <ele>740</ele>
        <time>2018-07-01T09:32:13.000Z</time>
      </trkpt>
      <trkpt lat="47.22726" lon="6.71841">
        <ele>739</ele>
        <time>2018-07-01T09:32:14.000Z</time>
      </trkpt>
      <trkpt lat="47.22726" lon="6.71835">
        <ele>738</ele>
        <time>2018-07-01T09:32:15.000Z</time>
      </trkpt>
      <trkpt lat="47.22727" lon="6.71828">
        <ele>733</ele>
        <time>2018-07-01T09:32:16.000Z</time>
      </trkpt>
      <trkpt lat="47.22728" lon="6.71822">
        <ele>733</ele>
        <time>2018-07-01T09:32:17.000Z</time>
      </trkpt>
      <trkpt lat="47.22729" lon="6.71815">
        <ele>733</ele>
        <time>2018-07-01T09:32:18.000Z</time>
      </trkpt>
      <trkpt lat="47.2273" lon="6.71808">
        <ele>732</ele>
        <time>2018-07-01T09:32:19.000Z</time>
      </trkpt>
      <trkpt lat="47.22731" lon="6.71802">
        <ele>732</ele>
        <time>2018-07-01T09:32:20.000Z</time>
      </trkpt>
      <trkpt lat="47.22732" lon="6.71796">
        <ele>732</ele>
        <time>2018-07-01T09:32:21.000Z</time>
      </trkpt>
      <trkpt lat="47.22733" lon="6.7179">
        <ele>731</ele>
        <time>2018-07-01T09:32:22.000Z</time>
      </trkpt>
      <trkpt lat="47.22734" lon="6.71785">
        <ele>730</ele>
        <time>2018-07-01T09:32:23.000Z</time>
      </trkpt>
      <trkpt lat="47.22735" lon="6.7178">
        <ele>729</ele>
        <time>2018-07-01T09:32:24.000Z</time>
      </trkpt>
      <trkpt lat="47.22735" lon="6.71774">
        <ele>727</ele>
        <time>2018-07-01T09:32:25.000Z</time>
      </trkpt>
      <trkpt lat="47.22736" lon="6.71768">
        <ele>726</ele>
        <time>2018-07-01T09:32:26.000Z</time>
      </trkpt>
      <trkpt lat="47.22736" lon="6.71762">
        <ele>724</ele>
        <time>2018-07-01T09:32:27.000Z</time>
      </trkpt>
      <trkpt lat="47.22736" lon="6.71757">
        <ele>722</ele>
        <time>2018-07-01T09:32:28.000Z</time>
      </trkpt>
      <trkpt lat="47.22736" lon="6.71752">
        <ele>721</ele>
        <time>2018-07-01T09:32:29.000Z</time>
      </trkpt>
      <trkpt lat="47.22736" lon="6.71746">
        <ele>712</ele>
        <time>2018-07-01T09:32:30.000Z</time>
      </trkpt>
      <trkpt lat="47.22735" lon="6.71741">
        <ele>712</ele>
        <time>2018-07-01T09:32:31.000Z</time>
      </trkpt>
      <trkpt lat="47.22734" lon="6.71736">
        <ele>713</ele>
        <time>2018-07-01T09:32:32.000Z</time>
      </trkpt>
      <trkpt lat="47.22732" lon="6.71731">
        <ele>713</ele>
        <time>2018-07-01T09:32:33.000Z</time>
      </trkpt>
      <trkpt lat="47.22731" lon="6.71725">
        <ele>712</ele>
        <time>2018-07-01T09:32:34.000Z</time>
      </trkpt>
      <trkpt lat="47.2273" lon="6.71721">
        <ele>712</ele>
        <time>2018-07-01T09:32:35.000Z</time>
      </trkpt>
      <trkpt lat="47.22729" lon="6.71716">
        <ele>711</ele>
        <time>2018-07-01T09:32:36.000Z</time>
      </trkpt>
      <trkpt lat="47.22728" lon="6.71711">
        <ele>711</ele>
        <time>2018-07-01T09:32:37.000Z</time>
      </trkpt>
      <trkpt lat="47.22727" lon="6.71707">
        <ele>710</ele>
        <time>2018-07-01T09:32:38.000Z</time>
      </trkpt>
      <trkpt lat="47.22726" lon="6.71702">
        <ele>709</ele>
        <time>2018-07-01T09:32:39.000Z</time>
      </trkpt>
      <trkpt lat="47.22725" lon="6.71697">
        <ele>708</ele>
        <time>2018-07-01T09:32:40.000Z</time>
      </trkpt>
      <trkpt lat="47.22724" lon="6.71692">
        <ele>707</ele>
        <time>2018-07-01T09:32:41.000Z</time>
      </trkpt>
      <trkpt lat="47.22722" lon="6.71687">
        <ele>707</ele>
        <time>2018-07-01T09:32:42.000Z</time>
      </trkpt>
      <trkpt lat="47.2272" lon="6.71683">
        <ele>706</ele>
        <time>2018-07-01T09:32:43.000Z</time>
      </trkpt>
      <trkpt lat="47.22718" lon="6.71679">
        <ele>706</ele>
        <time>2018-07-01T09:32:44.000Z</time>
      </trkpt>
      <trkpt lat="47.22716" lon="6.71675">
        <ele>706</ele>
        <time>2018-07-01T09:32:45.000Z</time>
      </trkpt>
      <trkpt lat="47.22714" lon="6.71672">
        <ele>707</ele>
        <time>2018-07-01T09:32:46.000Z</time>
      </trkpt>
      <trkpt lat="47.22711" lon="6.71669">
        <ele>708</ele>
        <time>2018-07-01T09:32:47.000Z</time>
      </trkpt>
      <trkpt lat="47.22708" lon="6.71666">
        <ele>689</ele>
        <time>2018-07-01T09:32:48.000Z</time>
      </trkpt>
      <trkpt lat="47.22705" lon="6.71663">
        <ele>690</ele>
        <time>2018-07-01T09:32:49.000Z</time>
      </trkpt>
      <trkpt lat="47.22702" lon="6.7166">
        <ele>690</ele>
        <time>2018-07-01T09:32:50.000Z</time>
      </trkpt>
      <trkpt lat="47.22699" lon="6.71657">
        <ele>691</ele>
        <time>2018-07-01T09:32:51.000Z</time>
      </trkpt>
      <trkpt lat="47.22697" lon="6.71654">
        <ele>692</ele>
        <time>2018-07-01T09:32:52.000Z</time>
      </trkpt>
      <trkpt lat="47.22694" lon="6.71652">
        <ele>692</ele>
        <time>2018-07-01T09:32:53.000Z</time>
      </trkpt>
      <trkpt lat="47.22691" lon="6.71649">
        <ele>693</ele>
        <time>2018-07-01T09:32:54.000Z</time>
      </trkpt>
      <trkpt lat="47.22687" lon="6.71647">
        <ele>693</ele>
        <time>2018-07-01T09:32:55.000Z</time>
      </trkpt>
      <trkpt lat="47.22683" lon="6.71644">
        <ele>693</ele>
        <time>2018-07-01T09:32:56.000Z</time>
      </trkpt>
      <trkpt lat="47.22679" lon="6.71642">
        <ele>694</ele>
        <time>2018-07-01T09:32:57.000Z</time>
      </trkpt>
      <trkpt lat="47.22675" lon="6.71641">
        <ele>694</ele>
        <time>2018-07-01T09:32:58.000Z</time>
      </trkpt>
      <trkpt lat="47.22671" lon="6.71639">
        <ele>694</ele>
        <time>2018-07-01T09:32:59.000Z</time>
      </trkpt>
      <trkpt lat="47.22667" lon="6.71637">
        <ele>700</ele>
        <time>2018-07-01T09:33:00.000Z</time>
      </trkpt>
      <trkpt lat="47.22662" lon="6.71635">
        <ele>699</ele>
        <time>2018-07-01T09:33:01.000Z</time>
      </trkpt>
      <trkpt lat="47.22658" lon="6.71633">
        <ele>698</ele>
        <time>2018-07-01T09:33:02.000Z</time>
      </trkpt>
      <trkpt lat="47.22654" lon="6.71632">
        <ele>698</ele>
        <time>2018-07-01T09:33:03.000Z</time>
      </trkpt>
      <trkpt lat="47.2265" lon="6.71631">
        <ele>697</ele>
        <time>2018-07-01T09:33:04.000Z</time>
      </trkpt>
      <trkpt lat="47.22647" lon="6.7163">
        <ele>697</ele>
        <time>2018-07-01T09:33:05.000Z</time>
      </trkpt>
      <trkpt lat="47.22643" lon="6.7163">
        <ele>697</ele>
        <time>2018-07-01T09:33:06.000Z</time>
      </trkpt>
      <trkpt lat="47.2264" lon="6.71629">
        <ele>696</ele>
        <time>2018-07-01T09:33:07.000Z</time>
      </trkpt>
      <trkpt lat="47.22637" lon="6.71629">
        <ele>696</ele>
        <time>2018-07-01T09:33:08.000Z</time>
      </trkpt>
      <trkpt lat="47.22634" lon="6.71629">
        <ele>696</ele>
        <time>2018-07-01T09:33:09.000Z</time>
      </trkpt>
      <trkpt lat="47.22631" lon="6.71629">
        <ele>696</ele>
        <time>2018-07-01T09:33:10.000Z</time>
      </trkpt>
      <trkpt lat="47.22629" lon="6.71629">
        <ele>696</ele>
        <time>2018-07-01T09:33:11.000Z</time>
      </trkpt>
      <trkpt lat="47.22626" lon="6.71629">
        <ele>695</ele>
        <time>2018-07-01T09:33:12.000Z</time>
      </trkpt>
      <trkpt lat="47.22623" lon="6.71629">
        <ele>695</ele>
        <time>2018-07-01T09:33:13.000Z</time>
      </trkpt>
      <trkpt lat="47.2262" lon="6.71629">
        <ele>695</ele>
        <time>2018-07-01T09:33:14.000Z</time>
      </trkpt>
      <trkpt lat="47.22617" lon="6.7163">
        <ele>695</ele>
        <time>2018-07-01T09:33:15.000Z</time>
      </trkpt>
      <trkpt lat="47.22613" lon="6.71631">
        <ele>695</ele>
        <time>2018-07-01T09:33:16.000Z</time>
      </trkpt>
      <trkpt lat="47.22611" lon="6.71632">
        <ele>695</ele>
        <time>2018-07-01T09:33:17.000Z</time>
      </trkpt>
      <trkpt lat="47.22608" lon="6.71633">
        <ele>695</ele>
        <time>2018-07-01T09:33:18.000Z</time>
      </trkpt>
      <trkpt lat="47.22605" lon="6.71633">
        <ele>695</ele>
        <time>2018-07-01T09:33:19.000Z</time>
      </trkpt>
      <trkpt lat="47.22602" lon="6.71634">
        <ele>696</ele>
        <time>2018-07-01T09:33:20.000Z</time>
      </trkpt>
      <trkpt lat="47.22599" lon="6.71634">
        <ele>696</ele>
        <time>2018-07-01T09:33:21.000Z</time>
      </trkpt>
      <trkpt lat="47.22597" lon="6.71635">
        <ele>696</ele>
        <time>2018-07-01T09:33:22.000Z</time>
      </trkpt>
      <trkpt lat="47.22594" lon="6.71636">
        <ele>696</ele>
        <time>2018-07-01T09:33:23.000Z</time>
      </trkpt>
      <trkpt lat="47.22591" lon="6.71637">
        <ele>696</ele>
        <time>2018-07-01T09:33:24.000Z</time>
      </trkpt>
      <trkpt lat="47.22588" lon="6.71639">
        <ele>697</ele>
        <time>2018-07-01T09:33:25.000Z</time>
      </trkpt>
      <trkpt lat="47.22586" lon="6.71639">
        <ele>697</ele>
        <time>2018-07-01T09:33:26.000Z</time>
      </trkpt>
      <trkpt lat="47.22583" lon="6.71641">
        <ele>686</ele>
        <time>2018-07-01T09:33:27.000Z</time>
      </trkpt>
      <trkpt lat="47.2258" lon="6.71642">
        <ele>687</ele>
        <time>2018-07-01T09:33:28.000Z</time>
      </trkpt>
      <trkpt lat="47.22578" lon="6.71644">
        <ele>687</ele>
        <time>2018-07-01T09:33:29.000Z</time>
      </trkpt>
      <trkpt lat="47.22575" lon="6.71645">
        <ele>687</ele>
        <time>2018-07-01T09:33:30.000Z</time>
      </trkpt>
      <trkpt lat="47.22573" lon="6.71646">
        <ele>687</ele>
        <time>2018-07-01T09:33:31.000Z</time>
      </trkpt>
      <trkpt lat="47.2257" lon="6.71647">
        <ele>687</ele>
        <time>2018-07-01T09:33:32.000Z</time>
      </trkpt>
      <trkpt lat="47.22567" lon="6.71648">
        <ele>686</ele>
        <time>2018-07-01T09:33:33.000Z</time>
      </trkpt>
      <trkpt lat="47.22564" lon="6.71649">
        <ele>686</ele>
        <time>2018-07-01T09:33:34.000Z</time>
      </trkpt>
      <trkpt lat="47.22561" lon="6.71651">
        <ele>685</ele>
        <time>2018-07-01T09:33:35.000Z</time>
      </trkpt>
      <trkpt lat="47.22557" lon="6.71653">
        <ele>684</ele>
        <time>2018-07-01T09:33:36.000Z</time>
      </trkpt>
      <trkpt lat="47.22554" lon="6.71655">
        <ele>683</ele>
        <time>2018-07-01T09:33:37.000Z</time>
      </trkpt>
      <trkpt lat="47.2255" lon="6.71658">
        <ele>682</ele>
        <time>2018-07-01T09:33:38.000Z</time>
      </trkpt>
      <trkpt lat="47.22546" lon="6.7166">
        <ele>681</ele>
        <time>2018-07-01T09:33:39.000Z</time>
      </trkpt>
      <trkpt lat="47.22542" lon="6.71663">
        <ele>681</ele>
        <time>2018-07-01T09:33:40.000Z</time>
      </trkpt>
      <trkpt lat="47.22538" lon="6.71666">
        <ele>680</ele>
        <time>2018-07-01T09:33:41.000Z</time>
      </trkpt>
      <trkpt lat="47.22534" lon="6.71669">
        <ele>701</ele>
        <time>2018-07-01T09:33:42.000Z</time>
      </trkpt>
      <trkpt lat="47.2253" lon="6.71672">
        <ele>700</ele>
        <time>2018-07-01T09:33:43.000Z</time>
      </trkpt>
      <trkpt lat="47.22525" lon="6.71675">
        <ele>698</ele>
        <time>2018-07-01T09:33:44.000Z</time>
      </trkpt>
      <trkpt lat="47.22521" lon="6.71677">
        <ele>697</ele>
        <time>2018-07-01T09:33:45.000Z</time>
      </trkpt>
      <trkpt lat="47.22517" lon="6.7168">
        <ele>696</ele>
        <time>2018-07-01T09:33:46.000Z</time>
      </trkpt>
      <trkpt lat="47.22512" lon="6.71683">
        <ele>695</ele>
        <time>2018-07-01T09:33:47.000Z</time>
      </trkpt>
      <trkpt lat="47.22508" lon="6.71687">
        <ele>696</ele>
        <time>2018-07-01T09:33:48.000Z</time>
      </trkpt>
      <trkpt lat="47.22504" lon="6.7169">
        <ele>697</ele>
        <time>2018-07-01T09:33:49.000Z</time>
      </trkpt>
      <trkpt lat="47.225" lon="6.71693">
        <ele>678</ele>
        <time>2018-07-01T09:33:50.000Z</time>
      </trkpt>
      <trkpt lat="47.22496" lon="6.71697">
        <ele>678</ele>
        <time>2018-07-01T09:33:51.000Z</time>
      </trkpt>
      <trkpt lat="47.22492" lon="6.717">
        <ele>678</ele>
        <time>2018-07-01T09:33:52.000Z</time>
      </trkpt>
      <trkpt lat="47.22488" lon="6.71703">
        <ele>679</ele>
        <time>2018-07-01T09:33:53.000Z</time>
      </trkpt>
      <trkpt lat="47.22485" lon="6.71705">
        <ele>679</ele>
        <time>2018-07-01T09:33:54.000Z</time>
      </trkpt>
      <trkpt lat="47.22482" lon="6.71708">
        <ele>679</ele>
        <time>2018-07-01T09:33:55.000Z</time>
      </trkpt>
      <trkpt lat="47.22479" lon="6.7171">
        <ele>679</ele>
        <time>2018-07-01T09:33:56.000Z</time>
      </trkpt>
      <trkpt lat="47.22475" lon="6.71712">
        <ele>679</ele>
        <time>2018-07-01T09:33:57.000Z</time>
      </trkpt>
      <trkpt lat="47.22472" lon="6.71715">
        <ele>679</ele>
        <time>2018-07-01T09:33:58.000Z</time>
      </trkpt>
      <trkpt lat="47.22468" lon="6.71717">
        <ele>678</ele>
        <time>2018-07-01T09:33:59.000Z</time>
      </trkpt>
      <trkpt lat="47.22464" lon="6.71719">
        <ele>678</ele>
        <time>2018-07-01T09:34:00.000Z</time>
      </trkpt>
      <trkpt lat="47.22461" lon="6.71722">
        <ele>677</ele>
        <time>2018-07-01T09:34:01.000Z</time>
      </trkpt>
      <trkpt lat="47.22457" lon="6.71724">
        <ele>677</ele>
        <time>2018-07-01T09:34:02.000Z</time>
      </trkpt>
      <trkpt lat="47.22454" lon="6.71726">
        <ele>676</ele>
        <time>2018-07-01T09:34:03.000Z</time>
      </trkpt>
      <trkpt lat="47.22451" lon="6.71729">
        <ele>676</ele>
        <time>2018-07-01T09:34:04.000Z</time>
      </trkpt>
      <trkpt lat="47.22449" lon="6.71731">
        <ele>676</ele>
        <time>2018-07-01T09:34:05.000Z</time>
      </trkpt>
      <trkpt lat="47.22446" lon="6.71732">
        <ele>675</ele>
        <time>2018-07-01T09:34:06.000Z</time>
      </trkpt>
      <trkpt lat="47.22443" lon="6.71734">
        <ele>675</ele>
        <time>2018-07-01T09:34:07.000Z</time>
      </trkpt>
      <trkpt lat="47.22441" lon="6.71735">
        <ele>674</ele>
        <time>2018-07-01T09:34:08.000Z</time>
      </trkpt>
      <trkpt lat="47.22438" lon="6.71737">
        <ele>674</ele>
        <time>2018-07-01T09:34:09.000Z</time>
      </trkpt>
      <trkpt lat="47.22435" lon="6.71739">
        <ele>674</ele>
        <time>2018-07-01T09:34:10.000Z</time>
      </trkpt>
      <trkpt lat="47.22433" lon="6.7174">
        <ele>673</ele>
        <time>2018-07-01T09:34:11.000Z</time>
      </trkpt>
      <trkpt lat="47.2243" lon="6.71742">
        <ele>673</ele>
        <time>2018-07-01T09:34:12.000Z</time>
      </trkpt>
      <trkpt lat="47.22428" lon="6.71743">
        <ele>673</ele>
        <time>2018-07-01T09:34:13.000Z</time>
      </trkpt>
      <trkpt lat="47.22426" lon="6.71744">
        <ele>672</ele>
        <time>2018-07-01T09:34:14.000Z</time>
      </trkpt>
      <trkpt lat="47.22424" lon="6.71745">
        <ele>672</ele>
        <time>2018-07-01T09:34:15.000Z</time>
      </trkpt>
      <trkpt lat="47.22422" lon="6.71746">
        <ele>672</ele>
        <time>2018-07-01T09:34:16.000Z</time>
      </trkpt>
      <trkpt lat="47.2242" lon="6.71746">
        <ele>672</ele>
        <time>2018-07-01T09:34:17.000Z</time>
      </trkpt>
      <trkpt lat="47.22418" lon="6.71747">
        <ele>671</ele>
        <time>2018-07-01T09:34:18.000Z</time>
      </trkpt>
      <trkpt lat="47.22415" lon="6.71747">
        <ele>667</ele>
        <time>2018-07-01T09:34:19.000Z</time>
      </trkpt>
      <trkpt lat="47.22413" lon="6.71747">
        <ele>665</ele>
        <time>2018-07-01T09:34:20.000Z</time>
      </trkpt>
      <trkpt lat="47.2241" lon="6.71747">
        <ele>663</ele>
        <time>2018-07-01T09:34:21.000Z</time>
      </trkpt>
      <trkpt lat="47.22408" lon="6.71748">
        <ele>662</ele>
        <time>2018-07-01T09:34:22.000Z</time>
      </trkpt>
      <trkpt lat="47.22405" lon="6.71748">
        <ele>660</ele>
        <time>2018-07-01T09:34:23.000Z</time>
      </trkpt>
      <trkpt lat="47.22403" lon="6.71748">
        <ele>658</ele>
        <time>2018-07-01T09:34:24.000Z</time>
      </trkpt>
      <trkpt lat="47.224" lon="6.71749">
        <ele>657</ele>
        <time>2018-07-01T09:34:25.000Z</time>
      </trkpt>
      <trkpt lat="47.22398" lon="6.71748">
        <ele>655</ele>
        <time>2018-07-01T09:34:26.000Z</time>
      </trkpt>
      <trkpt lat="47.22396" lon="6.71749">
        <ele>654</ele>
        <time>2018-07-01T09:34:27.000Z</time>
      </trkpt>
      <trkpt lat="47.22394" lon="6.71748">
        <ele>653</ele>
        <time>2018-07-01T09:34:28.000Z</time>
      </trkpt>
      <trkpt lat="47.22392" lon="6.71748">
        <ele>652</ele>
        <time>2018-07-01T09:34:29.000Z</time>
      </trkpt>
      <trkpt lat="47.2239" lon="6.71748">
        <ele>652</ele>
        <time>2018-07-01T09:34:30.000Z</time>
      </trkpt>
      <trkpt lat="47.22388" lon="6.71748">
        <ele>651</ele>
        <time>2018-07-01T09:34:31.000Z</time>
      </trkpt>
      <trkpt lat="47.22387" lon="6.71749">
        <ele>650</ele>
        <time>2018-07-01T09:34:32.000Z</time>
      </trkpt>
      <trkpt lat="47.22384" lon="6.7175">
        <ele>650</ele>
        <time>2018-07-01T09:34:33.000Z</time>
      </trkpt>
      <trkpt lat="47.22382" lon="6.71751">
        <ele>671</ele>
        <time>2018-07-01T09:34:34.000Z</time>
      </trkpt>
      <trkpt lat="47.22379" lon="6.71751">
        <ele>671</ele>
        <time>2018-07-01T09:34:35.000Z</time>
      </trkpt>
      <trkpt lat="47.22376" lon="6.71752">
        <ele>670</ele>
        <time>2018-07-01T09:34:36.000Z</time>
      </trkpt>
      <trkpt lat="47.22373" lon="6.71752">
        <ele>669</ele>
        <time>2018-07-01T09:34:37.000Z</time>
      </trkpt>
      <trkpt lat="47.22369" lon="6.71752">
        <ele>668</ele>
        <time>2018-07-01T09:34:38.000Z</time>
      </trkpt>
      <trkpt lat="47.22367" lon="6.71754">
        <ele>668</ele>
        <time>2018-07-01T09:34:39.000Z</time>
      </trkpt>
      <trkpt lat="47.22364" lon="6.71756">
        <ele>667</ele>
        <time>2018-07-01T09:34:40.000Z</time>
      </trkpt>
      <trkpt lat="47.22362" lon="6.71758">
        <ele>666</ele>
        <time>2018-07-01T09:34:41.000Z</time>
      </trkpt>
      <trkpt lat="47.22359" lon="6.71761">
        <ele>666</ele>
        <time>2018-07-01T09:34:42.000Z</time>
      </trkpt>
      <trkpt lat="47.22357" lon="6.71763">
        <ele>666</ele>
        <time>2018-07-01T09:34:43.000Z</time>
      </trkpt>
      <trkpt lat="47.22355" lon="6.71766">
        <ele>666</ele>
        <time>2018-07-01T09:34:44.000Z</time>
      </trkpt>
      <trkpt lat="47.22353" lon="6.71769">
        <ele>666</ele>
        <time>2018-07-01T09:34:45.000Z</time>
      </trkpt>
      <trkpt lat="47.22352" lon="6.71772">
        <ele>667</ele>
        <time>2018-07-01T09:34:46.000Z</time>
      </trkpt>
      <trkpt lat="47.22351" lon="6.71774">
        <ele>667</ele>
        <time>2018-07-01T09:34:47.000Z</time>
      </trkpt>
      <trkpt lat="47.22349" lon="6.71777">
        <ele>668</ele>
        <time>2018-07-01T09:34:48.000Z</time>
      </trkpt>
      <trkpt lat="47.22347" lon="6.71779">
        <ele>669</ele>
        <time>2018-07-01T09:34:49.000Z</time>
      </trkpt>
      <trkpt lat="47.22346" lon="6.71782">
        <ele>669</ele>
        <time>2018-07-01T09:34:50.000Z</time>
      </trkpt>
      <trkpt lat="47.22345" lon="6.71784">
        <ele>670</ele>
        <time>2018-07-01T09:34:51.000Z</time>
      </trkpt>
      <trkpt lat="47.22343" lon="6.71787">
        <ele>671</ele>
        <time>2018-07-01T09:34:52.000Z</time>
      </trkpt>
      <trkpt lat="47.22342" lon="6.71789">
        <ele>672</ele>
        <time>2018-07-01T09:34:53.000Z</time>
      </trkpt>
      <trkpt lat="47.22341" lon="6.71791">
        <ele>672</ele>
        <time>2018-07-01T09:34:54.000Z</time>
      </trkpt>
      <trkpt lat="47.2234" lon="6.71793">
        <ele>673</ele>
        <time>2018-07-01T09:34:55.000Z</time>
      </trkpt>
      <trkpt lat="47.22339" lon="6.71795">
        <ele>673</ele>
        <time>2018-07-01T09:34:56.000Z</time>
      </trkpt>
      <trkpt lat="47.22338" lon="6.71797">
        <ele>674</ele>
        <time>2018-07-01T09:34:57.000Z</time>
      </trkpt>
      <trkpt lat="47.22336" lon="6.71799">
        <ele>674</ele>
        <time>2018-07-01T09:34:58.000Z</time>
      </trkpt>
      <trkpt lat="47.22334" lon="6.718">
        <ele>674</ele>
        <time>2018-07-01T09:34:59.000Z</time>
      </trkpt>
      <trkpt lat="47.22332" lon="6.71801">
        <ele>659</ele>
        <time>2018-07-01T09:35:00.000Z</time>
      </trkpt>
      <trkpt lat="47.2233" lon="6.71802">
        <ele>660</ele>
        <time>2018-07-01T09:35:01.000Z</time>
      </trkpt>
      <trkpt lat="47.22327" lon="6.71804">
        <ele>660</ele>
        <time>2018-07-01T09:35:02.000Z</time>
      </trkpt>
      <trkpt lat="47.22325" lon="6.71805">
        <ele>661</ele>
        <time>2018-07-01T09:35:03.000Z</time>
      </trkpt>
      <trkpt lat="47.22322" lon="6.71807">
        <ele>661</ele>
        <time>2018-07-01T09:35:04.000Z</time>
      </trkpt>
      <trkpt lat="47.22319" lon="6.71808">
        <ele>661</ele>
        <time>2018-07-01T09:35:05.000Z</time>
      </trkpt>
      <trkpt lat="47.22317" lon="6.71809">
        <ele>661</ele>
        <time>2018-07-01T09:35:06.000Z</time>
      </trkpt>
      <trkpt lat="47.22314" lon="6.71811">
        <ele>661</ele>
        <time>2018-07-01T09:35:07.000Z</time>
      </trkpt>
      <trkpt lat="47.22312" lon="6.71812">
        <ele>661</ele>
        <time>2018-07-01T09:35:08.000Z</time>
      </trkpt>
      <trkpt lat="47.2231" lon="6.71813">
        <ele>660</ele>
        <time>2018-07-01T09:35:09.000Z</time>
      </trkpt>
      <trkpt lat="47.22308" lon="6.71814">
        <ele>660</ele>
        <time>2018-07-01T09:35:10.000Z</time>
      </trkpt>
      <trkpt lat="47.22305" lon="6.71815">
        <ele>660</ele>
        <time>2018-07-01T09:35:11.000Z</time>
      </trkpt>
      <trkpt lat="47.22303" lon="6.71815">
        <ele>659</ele>
        <time>2018-07-01T09:35:12.000Z</time>
      </trkpt>
      <trkpt lat="47.22301" lon="6.71816">
        <ele>659</ele>
        <time>2018-07-01T09:35:13.000Z</time>
      </trkpt>
      <trkpt lat="47.223" lon="6.71816">
        <ele>659</ele>
        <time>2018-07-01T09:35:14.000Z</time>
      </trkpt>
      <trkpt lat="47.22298" lon="6.71817">
        <ele>658</ele>
        <time>2018-07-01T09:35:15.000Z</time>
      </trkpt>
      <trkpt lat="47.22296" lon="6.71818">
        <ele>658</ele>
        <time>2018-07-01T09:35:16.000Z</time>
      </trkpt>
      <trkpt lat="47.22295" lon="6.71819">
        <ele>658</ele>
        <time>2018-07-01T09:35:17.000Z</time>
      </trkpt>
      <trkpt lat="47.22293" lon="6.71819">
        <ele>658</ele>
        <time>2018-07-01T09:35:18.000Z</time>
      </trkpt>
      <trkpt lat="47.22291" lon="6.71819">
        <ele>657</ele>
        <time>2018-07-01T09:35:19.000Z</time>
      </trkpt>
      <trkpt lat="47.22289" lon="6.71819">
        <ele>657</ele>
        <time>2018-07-01T09:35:20.000Z</time>
      </trkpt>
      <trkpt lat="47.22286" lon="6.7182">
        <ele>657</ele>
        <time>2018-07-01T09:35:21.000Z</time>
      </trkpt>
      <trkpt lat="47.22284" lon="6.7182">
        <ele>656</ele>
        <time>2018-07-01T09:35:22.000Z</time>
      </trkpt>
      <trkpt lat="47.22281" lon="6.7182">
        <ele>656</ele>
        <time>2018-07-01T09:35:23.000Z</time>
      </trkpt>
      <trkpt lat="47.22279" lon="6.7182">
        <ele>656</ele>
        <time>2018-07-01T09:35:24.000Z</time>
      </trkpt>
      <trkpt lat="47.22276" lon="6.71821">
        <ele>656</ele>
        <time>2018-07-01T09:35:25.000Z</time>
      </trkpt>
      <trkpt lat="47.22273" lon="6.71821">
        <ele>656</ele>
        <time>2018-07-01T09:35:26.000Z</time>
      </trkpt>
      <trkpt lat="47.22269" lon="6.71821">
        <ele>656</ele>
        <time>2018-07-01T09:35:27.000Z</time>
      </trkpt>
      <trkpt lat="47.22266" lon="6.71821">
        <ele>656</ele>
        <time>2018-07-01T09:35:28.000Z</time>
      </trkpt>
      <trkpt lat="47.22263" lon="6.71821">
        <ele>656</ele>
        <time>2018-07-01T09:35:29.000Z</time>
      </trkpt>
      <trkpt lat="47.2226" lon="6.71822">
        <ele>656</ele>
        <time>2018-07-01T09:35:30.000Z</time>
      </trkpt>
      <trkpt lat="47.22257" lon="6.71823">
        <ele>656</ele>
        <time>2018-07-01T09:35:31.000Z</time>
      </trkpt>
      <trkpt lat="47.22255" lon="6.71823">
        <ele>657</ele>
        <time>2018-07-01T09:35:32.000Z</time>
      </trkpt>
      <trkpt lat="47.22252" lon="6.71824">
        <ele>657</ele>
        <time>2018-07-01T09:35:33.000Z</time>
      </trkpt>
      <trkpt lat="47.22249" lon="6.71825">
        <ele>652</ele>
        <time>2018-07-01T09:35:34.000Z</time>
      </trkpt>
      <trkpt lat="47.22245" lon="6.71826">
        <ele>652</ele>
        <time>2018-07-01T09:35:35.000Z</time>
      </trkpt>
      <trkpt lat="47.22242" lon="6.71827">
        <ele>651</ele>
        <time>2018-07-01T09:35:36.000Z</time>
      </trkpt>
      <trkpt lat="47.22239" lon="6.71827">
        <ele>649</ele>
        <time>2018-07-01T09:35:37.000Z</time>
      </trkpt>
      <trkpt lat="47.22236" lon="6.71828">
        <ele>648</ele>
        <time>2018-07-01T09:35:38.000Z</time>
      </trkpt>
      <trkpt lat="47.22233" lon="6.71828">
        <ele>647</ele>
        <time>2018-07-01T09:35:39.000Z</time>
      </trkpt>
      <trkpt lat="47.22231" lon="6.71829">
        <ele>646</ele>
        <time>2018-07-01T09:35:40.000Z</time>
      </trkpt>
      <trkpt lat="47.22228" lon="6.71831">
        <ele>645</ele>
        <time>2018-07-01T09:35:41.000Z</time>
      </trkpt>
      <trkpt lat="47.22226" lon="6.71832">
        <ele>644</ele>
        <time>2018-07-01T09:35:42.000Z</time>
      </trkpt>
      <trkpt lat="47.22224" lon="6.71833">
        <ele>644</ele>
        <time>2018-07-01T09:35:43.000Z</time>
      </trkpt>
      <trkpt lat="47.22221" lon="6.71834">
        <ele>668</ele>
        <time>2018-07-01T09:35:44.000Z</time>
      </trkpt>
      <trkpt lat="47.22219" lon="6.71836">
        <ele>668</ele>
        <time>2018-07-01T09:35:45.000Z</time>
      </trkpt>
      <trkpt lat="47.22216" lon="6.71837">
        <ele>668</ele>
        <time>2018-07-01T09:35:46.000Z</time>
      </trkpt>
      <trkpt lat="47.22214" lon="6.71838">
        <ele>668</ele>
        <time>2018-07-01T09:35:47.000Z</time>
      </trkpt>
      <trkpt lat="47.22211" lon="6.71839">
        <ele>668</ele>
        <time>2018-07-01T09:35:48.000Z</time>
      </trkpt>
      <trkpt lat="47.22209" lon="6.71841">
        <ele>668</ele>
        <time>2018-07-01T09:35:49.000Z</time>
      </trkpt>
      <trkpt lat="47.22208" lon="6.71842">
        <ele>668</ele>
        <time>2018-07-01T09:35:50.000Z</time>
      </trkpt>
      <trkpt lat="47.22205" lon="6.71843">
        <ele>668</ele>
        <time>2018-07-01T09:35:51.000Z</time>
      </trkpt>
      <trkpt lat="47.22203" lon="6.71844">
        <ele>668</ele>
        <time>2018-07-01T09:35:52.000Z</time>
      </trkpt>
      <trkpt lat="47.22201" lon="6.71844">
        <ele>667</ele>
        <time>2018-07-01T09:35:53.000Z</time>
      </trkpt>
      <trkpt lat="47.22198" lon="6.71845">
        <ele>667</ele>
        <time>2018-07-01T09:35:54.000Z</time>
      </trkpt>
      <trkpt lat="47.22195" lon="6.71845">
        <ele>666</ele>
        <time>2018-07-01T09:35:55.000Z</time>
      </trkpt>
      <trkpt lat="47.22193" lon="6.71845">
        <ele>666</ele>
        <time>2018-07-01T09:35:56.000Z</time>
      </trkpt>
      <trkpt lat="47.2219" lon="6.71845">
        <ele>665</ele>
        <time>2018-07-01T09:35:57.000Z</time>
      </trkpt>
      <trkpt lat="47.22188" lon="6.71845">
        <ele>664</ele>
        <time>2018-07-01T09:35:58.000Z</time>
      </trkpt>
      <trkpt lat="47.22185" lon="6.71846">
        <ele>663</ele>
        <time>2018-07-01T09:35:59.000Z</time>
      </trkpt>
      <trkpt lat="47.22183" lon="6.71846">
        <ele>662</ele>
        <time>2018-07-01T09:36:00.000Z</time>
      </trkpt>
      <trkpt lat="47.2218" lon="6.71845">
        <ele>661</ele>
        <time>2018-07-01T09:36:01.000Z</time>
      </trkpt>
      <trkpt lat="47.22177" lon="6.71845">
        <ele>660</ele>
        <time>2018-07-01T09:36:02.000Z</time>
      </trkpt>
      <trkpt lat="47.22174" lon="6.71845">
        <ele>659</ele>
        <time>2018-07-01T09:36:03.000Z</time>
      </trkpt>
      <trkpt lat="47.22171" lon="6.71845">
        <ele>658</ele>
        <time>2018-07-01T09:36:04.000Z</time>
      </trkpt>
      <trkpt lat="47.22169" lon="6.71844">
        <ele>657</ele>
        <time>2018-07-01T09:36:05.000Z</time>
      </trkpt>
      <trkpt lat="47.22166" lon="6.71844">
        <ele>652</ele>
        <time>2018-07-01T09:36:06.000Z</time>
      </trkpt>
      <trkpt lat="47.22163" lon="6.71844">
        <ele>652</ele>
        <time>2018-07-01T09:36:07.000Z</time>
      </trkpt>
      <trkpt lat="47.2216" lon="6.71844">
        <ele>652</ele>
        <time>2018-07-01T09:36:08.000Z</time>
      </trkpt>
      <trkpt lat="47.22158" lon="6.71844">
        <ele>653</ele>
        <time>2018-07-01T09:36:09.000Z</time>
      </trkpt>
      <trkpt lat="47.22155" lon="6.71844">
        <ele>653</ele>
        <time>2018-07-01T09:36:10.000Z</time>
      </trkpt>
      <trkpt lat="47.22153" lon="6.71845">
        <ele>654</ele>
        <time>2018-07-01T09:36:11.000Z</time>
      </trkpt>
      <trkpt lat="47.2215" lon="6.71846">
        <ele>654</ele>
        <time>2018-07-01T09:36:12.000Z</time>
      </trkpt>
      <trkpt lat="47.22148" lon="6.71847">
        <ele>655</ele>
        <time>2018-07-01T09:36:13.000Z</time>
      </trkpt>
      <trkpt lat="47.22146" lon="6.71847">
        <ele>655</ele>
        <time>2018-07-01T09:36:14.000Z</time>
      </trkpt>
      <trkpt lat="47.22144" lon="6.71847">
        <ele>655</ele>
        <time>2018-07-01T09:36:15.000Z</time>
      </trkpt>
      <trkpt lat="47.22141" lon="6.71848">
        <ele>655</ele>
        <time>2018-07-01T09:36:16.000Z</time>
      </trkpt>
      <trkpt lat="47.22139" lon="6.71848">
        <ele>655</ele>
        <time>2018-07-01T09:36:17.000Z</time>
      </trkpt>
      <trkpt lat="47.22137" lon="6.71848">
        <ele>656</ele>
        <time>2018-07-01T09:36:18.000Z</time>
      </trkpt>
      <trkpt lat="47.22135" lon="6.71849">
        <ele>656</ele>
        <time>2018-07-01T09:36:19.000Z</time>
      </trkpt>
      <trkpt lat="47.22133" lon="6.71851">
        <ele>656</ele>
        <time>2018-07-01T09:36:20.000Z</time>
      </trkpt>
      <trkpt lat="47.22132" lon="6.71852">
        <ele>656</ele>
        <time>2018-07-01T09:36:21.000Z</time>
      </trkpt>
      <trkpt lat="47.2213" lon="6.71853">
        <ele>656</ele>
        <time>2018-07-01T09:36:22.000Z</time>
      </trkpt>
      <trkpt lat="47.22129" lon="6.71854">
        <ele>656</ele>
        <time>2018-07-01T09:36:23.000Z</time>
      </trkpt>
      <trkpt lat="47.22128" lon="6.71855">
        <ele>656</ele>
        <time>2018-07-01T09:36:24.000Z</time>
      </trkpt>
      <trkpt lat="47.22127" lon="6.71856">
        <ele>657</ele>
        <time>2018-07-01T09:36:25.000Z</time>
      </trkpt>
      <trkpt lat="47.22127" lon="6.71857">
        <ele>657</ele>
        <time>2018-07-01T09:36:26.000Z</time>
      </trkpt>
      <trkpt lat="47.22126" lon="6.71858">
        <ele>657</ele>
        <time>2018-07-01T09:36:27.000Z</time>
      </trkpt>
      <trkpt lat="47.22125" lon="6.7186">
        <ele>657</ele>
        <time>2018-07-01T09:36:28.000Z</time>
      </trkpt>
      <trkpt lat="47.22123" lon="6.71861">
        <ele>657</ele>
        <time>2018-07-01T09:36:29.000Z</time>
      </trkpt>
      <trkpt lat="47.22121" lon="6.71862">
        <ele>657</ele>
        <time>2018-07-01T09:36:30.000Z</time>
      </trkpt>
      <trkpt lat="47.2212" lon="6.71863">
        <ele>657</ele>
        <time>2018-07-01T09:36:31.000Z</time>
      </trkpt>
      <trkpt lat="47.22118" lon="6.71864">
        <ele>658</ele>
        <time>2018-07-01T09:36:32.000Z</time>
      </trkpt>
      <trkpt lat="47.22117" lon="6.71864">
        <ele>658</ele>
        <time>2018-07-01T09:36:33.000Z</time>
      </trkpt>
      <trkpt lat="47.22115" lon="6.71865">
        <ele>658</ele>
        <time>2018-07-01T09:36:34.000Z</time>
      </trkpt>
      <trkpt lat="47.22114" lon="6.71866">
        <ele>658</ele>
        <time>2018-07-01T09:36:35.000Z</time>
      </trkpt>
      <trkpt lat="47.22112" lon="6.71867">
        <ele>658</ele>
        <time>2018-07-01T09:36:36.000Z</time>
      </trkpt>
      <trkpt lat="47.2211" lon="6.71868">
        <ele>658</ele>
        <time>2018-07-01T09:36:37.000Z</time>
      </trkpt>
      <trkpt lat="47.22109" lon="6.71869">
        <ele>658</ele>
        <time>2018-07-01T09:36:38.000Z</time>
      </trkpt>
      <trkpt lat="47.22107" lon="6.7187">
        <ele>658</ele>
        <time>2018-07-01T09:36:39.000Z</time>
      </trkpt>
      <trkpt lat="47.22106" lon="6.71871">
        <ele>658</ele>
        <time>2018-07-01T09:36:40.000Z</time>
      </trkpt>
      <trkpt lat="47.22104" lon="6.71872">
        <ele>659</ele>
        <time>2018-07-01T09:36:41.000Z</time>
      </trkpt>
      <trkpt lat="47.22103" lon="6.71874">
        <ele>659</ele>
        <time>2018-07-01T09:36:42.000Z</time>
      </trkpt>
      <trkpt lat="47.22101" lon="6.71875">
        <ele>659</ele>
        <time>2018-07-01T09:36:43.000Z</time>
      </trkpt>
      <trkpt lat="47.221" lon="6.71876">
        <ele>659</ele>
        <time>2018-07-01T09:36:44.000Z</time>
      </trkpt>
      <trkpt lat="47.22098" lon="6.71877">
        <ele>660</ele>
        <time>2018-07-01T09:36:45.000Z</time>
      </trkpt>
      <trkpt lat="47.22097" lon="6.71878">
        <ele>660</ele>
        <time>2018-07-01T09:36:46.000Z</time>
      </trkpt>
      <trkpt lat="47.22095" lon="6.71879">
        <ele>660</ele>
        <time>2018-07-01T09:36:47.000Z</time>
      </trkpt>
      <trkpt lat="47.22094" lon="6.7188">
        <ele>661</ele>
        <time>2018-07-01T09:36:48.000Z</time>
      </trkpt>
      <trkpt lat="47.22093" lon="6.71882">
        <ele>661</ele>
        <time>2018-07-01T09:36:49.000Z</time>
      </trkpt>
      <trkpt lat="47.22092" lon="6.71882">
        <ele>661</ele>
        <time>2018-07-01T09:36:50.000Z</time>
      </trkpt>
      <trkpt lat="47.22091" lon="6.71883">
        <ele>661</ele>
        <time>2018-07-01T09:36:51.000Z</time>
      </trkpt>
      <trkpt lat="47.22089" lon="6.71884">
        <ele>662</ele>
        <time>2018-07-01T09:36:52.000Z</time>
      </trkpt>
      <trkpt lat="47.22088" lon="6.71885">
        <ele>662</ele>
        <time>2018-07-01T09:36:53.000Z</time>
      </trkpt>
      <trkpt lat="47.22087" lon="6.71886">
        <ele>662</ele>
        <time>2018-07-01T09:36:54.000Z</time>
      </trkpt>
      <trkpt lat="47.22086" lon="6.71887">
        <ele>662</ele>
        <time>2018-07-01T09:36:55.000Z</time>
      </trkpt>
      <trkpt lat="47.22085" lon="6.71888">
        <ele>663</ele>
        <time>2018-07-01T09:36:56.000Z</time>
      </trkpt>
      <trkpt lat="47.22084" lon="6.71889">
        <ele>663</ele>
        <time>2018-07-01T09:36:57.000Z</time>
      </trkpt>
      <trkpt lat="47.22082" lon="6.7189">
        <ele>664</ele>
        <time>2018-07-01T09:36:58.000Z</time>
      </trkpt>
      <trkpt lat="47.22081" lon="6.71891">
        <ele>665</ele>
        <time>2018-07-01T09:36:59.000Z</time>
      </trkpt>
      <trkpt lat="47.22079" lon="6.71892">
        <ele>665</ele>
        <time>2018-07-01T09:37:00.000Z</time>
      </trkpt>
      <trkpt lat="47.22077" lon="6.71893">
        <ele>665</ele>
        <time>2018-07-01T09:37:01.000Z</time>
      </trkpt>
      <trkpt lat="47.22076" lon="6.71894">
        <ele>665</ele>
        <time>2018-07-01T09:37:02.000Z</time>
      </trkpt>
      <trkpt lat="47.22074" lon="6.71895">
        <ele>666</ele>
        <time>2018-07-01T09:37:03.000Z</time>
      </trkpt>
      <trkpt lat="47.22072" lon="6.71896">
        <ele>666</ele>
        <time>2018-07-01T09:37:04.000Z</time>
      </trkpt>
      <trkpt lat="47.22071" lon="6.71897">
        <ele>666</ele>
        <time>2018-07-01T09:37:05.000Z</time>
      </trkpt>
      <trkpt lat="47.22069" lon="6.71897">
        <ele>666</ele>
        <time>2018-07-01T09:37:06.000Z</time>
      </trkpt>
      <trkpt lat="47.22067" lon="6.71898">
        <ele>666</ele>
        <time>2018-07-01T09:37:07.000Z</time>
      </trkpt>
      <trkpt lat="47.22066" lon="6.71899">
        <ele>666</ele>
        <time>2018-07-01T09:37:08.000Z</time>
      </trkpt>
      <trkpt lat="47.22064" lon="6.719">
        <ele>666</ele>
        <time>2018-07-01T09:37:09.000Z</time>
      </trkpt>
      <trkpt lat="47.22063" lon="6.71901">
        <ele>666</ele>
        <time>2018-07-01T09:37:10.000Z</time>
      </trkpt>
      <trkpt lat="47.22062" lon="6.71901">
        <ele>666</ele>
        <time>2018-07-01T09:37:11.000Z</time>
      </trkpt>
      <trkpt lat="47.2206" lon="6.71902">
        <ele>666</ele>
        <time>2018-07-01T09:37:12.000Z</time>
      </trkpt>
      <trkpt lat="47.22059" lon="6.71903">
        <ele>667</ele>
        <time>2018-07-01T09:37:13.000Z</time>
      </trkpt>
      <trkpt lat="47.22058" lon="6.71903">
        <ele>667</ele>
        <time>2018-07-01T09:37:14.000Z</time>
      </trkpt>
      <trkpt lat="47.22056" lon="6.71904">
        <ele>667</ele>
        <time>2018-07-01T09:37:15.000Z</time>
      </trkpt>
      <trkpt lat="47.22055" lon="6.71904">
        <ele>667</ele>
        <time>2018-07-01T09:37:16.000Z</time>
      </trkpt>
      <trkpt lat="47.22053" lon="6.71905">
        <ele>667</ele>
        <time>2018-07-01T09:37:17.000Z</time>
      </trkpt>
      <trkpt lat="47.22052" lon="6.71905">
        <ele>667</ele>
        <time>2018-07-01T09:37:18.000Z</time>
      </trkpt>
      <trkpt lat="47.2205" lon="6.71906">
        <ele>667</ele>
        <time>2018-07-01T09:37:19.000Z</time>
      </trkpt>
      <trkpt lat="47.22048" lon="6.71906">
        <ele>667</ele>
        <time>2018-07-01T09:37:20.000Z</time>
      </trkpt>
      <trkpt lat="47.22046" lon="6.71906">
        <ele>667</ele>
        <time>2018-07-01T09:37:21.000Z</time>
      </trkpt>
      <trkpt lat="47.22044" lon="6.71906">
        <ele>667</ele>
        <time>2018-07-01T09:37:22.000Z</time>
      </trkpt>
      <trkpt lat="47.22042" lon="6.71907">
        <ele>667</ele>
        <time>2018-07-01T09:37:23.000Z</time>
      </trkpt>
      <trkpt lat="47.2204" lon="6.71907">
        <ele>668</ele>
        <time>2018-07-01T09:37:24.000Z</time>
      </trkpt>
      <trkpt lat="47.22038" lon="6.71907">
        <ele>668</ele>
        <time>2018-07-01T09:37:25.000Z</time>
      </trkpt>
      <trkpt lat="47.22037" lon="6.71907">
        <ele>668</ele>
        <time>2018-07-01T09:37:26.000Z</time>
      </trkpt>
      <trkpt lat="47.22035" lon="6.71907">
        <ele>668</ele>
        <time>2018-07-01T09:37:27.000Z</time>
      </trkpt>
      <trkpt lat="47.22033" lon="6.71907">
        <ele>668</ele>
        <time>2018-07-01T09:37:28.000Z</time>
      </trkpt>
      <trkpt lat="47.22032" lon="6.71907">
        <ele>669</ele>
        <time>2018-07-01T09:37:29.000Z</time>
      </trkpt>
      <trkpt lat="47.2203" lon="6.71908">
        <ele>669</ele>
        <time>2018-07-01T09:37:30.000Z</time>
      </trkpt>
      <trkpt lat="47.22028" lon="6.71908">
        <ele>669</ele>
        <time>2018-07-01T09:37:31.000Z</time>
      </trkpt>
      <trkpt lat="47.22027" lon="6.71907">
        <ele>669</ele>
        <time>2018-07-01T09:37:32.000Z</time>
      </trkpt>
      <trkpt lat="47.22025" lon="6.71907">
        <ele>670</ele>
        <time>2018-07-01T09:37:33.000Z</time>
      </trkpt>
      <trkpt lat="47.22024" lon="6.71906">
        <ele>670</ele>
        <time>2018-07-01T09:37:34.000Z</time>
      </trkpt>
      <trkpt lat="47.22022" lon="6.71905">
        <ele>670</ele>
        <time>2018-07-01T09:37:35.000Z</time>
      </trkpt>
      <trkpt lat="47.2202" lon="6.71905">
        <ele>670</ele>
        <time>2018-07-01T09:37:36.000Z</time>
      </trkpt>
      <trkpt lat="47.22018" lon="6.71904">
        <ele>671</ele>
        <time>2018-07-01T09:37:37.000Z</time>
      </trkpt>
      <trkpt lat="47.22017" lon="6.71904">
        <ele>671</ele>
        <time>2018-07-01T09:37:38.000Z</time>
      </trkpt>
      <trkpt lat="47.22015" lon="6.71903">
        <ele>671</ele>
        <time>2018-07-01T09:37:39.000Z</time>
      </trkpt>
      <trkpt lat="47.22014" lon="6.71902">
        <ele>671</ele>
        <time>2018-07-01T09:37:40.000Z</time>
      </trkpt>
      <trkpt lat="47.22013" lon="6.71901">
        <ele>671</ele>
        <time>2018-07-01T09:37:41.000Z</time>
      </trkpt>
      <trkpt lat="47.22012" lon="6.719">
        <ele>671</ele>
        <time>2018-07-01T09:37:42.000Z</time>
      </trkpt>
      <trkpt lat="47.22011" lon="6.71899">
        <ele>671</ele>
        <time>2018-07-01T09:37:43.000Z</time>
      </trkpt>
      <trkpt lat="47.2201" lon="6.71897">
        <ele>671</ele>
        <time>2018-07-01T09:37:44.000Z</time>
      </trkpt>
      <trkpt lat="47.2201" lon="6.71896">
        <ele>670</ele>
        <time>2018-07-01T09:37:45.000Z</time>
      </trkpt>
      <trkpt lat="47.22009" lon="6.71895">
        <ele>670</ele>
        <time>2018-07-01T09:37:46.000Z</time>
      </trkpt>
      <trkpt lat="47.22008" lon="6.71893">
        <ele>670</ele>
        <time>2018-07-01T09:37:47.000Z</time>
      </trkpt>
      <trkpt lat="47.22007" lon="6.71893">
        <ele>670</ele>
        <time>2018-07-01T09:37:48.000Z</time>
      </trkpt>
      <trkpt lat="47.22006" lon="6.71892">
        <ele>669</ele>
        <time>2018-07-01T09:37:49.000Z</time>
      </trkpt>
      <trkpt lat="47.22005" lon="6.71891">
        <ele>669</ele>
        <time>2018-07-01T09:37:50.000Z</time>
      </trkpt>
      <trkpt lat="47.22004" lon="6.71891">
        <ele>669</ele>
        <time>2018-07-01T09:37:51.000Z</time>
      </trkpt>
      <trkpt lat="47.22003" lon="6.71891">
        <ele>669</ele>
        <time>2018-07-01T09:37:52.000Z</time>
      </trkpt>
      <trkpt lat="47.22002" lon="6.71891">
        <ele>669</ele>
        <time>2018-07-01T09:37:53.000Z</time>
      </trkpt>
      <trkpt lat="47.22001" lon="6.71891">
        <ele>669</ele>
        <time>2018-07-01T09:37:54.000Z</time>
      </trkpt>
      <trkpt lat="47.22" lon="6.71891">
        <ele>685</ele>
        <time>2018-07-01T09:37:55.000Z</time>
      </trkpt>
      <trkpt lat="47.21999" lon="6.7189">
        <ele>685</ele>
        <time>2018-07-01T09:37:56.000Z</time>
      </trkpt>
      <trkpt lat="47.21998" lon="6.7189">
        <ele>685</ele>
        <time>2018-07-01T09:37:57.000Z</time>
      </trkpt>
      <trkpt lat="47.21997" lon="6.7189">
        <ele>685</ele>
        <time>2018-07-01T09:37:58.000Z</time>
      </trkpt>
      <trkpt lat="47.21996" lon="6.7189">
        <ele>685</ele>
        <time>2018-07-01T09:37:59.000Z</time>
      </trkpt>
      <trkpt lat="47.21995" lon="6.7189">
        <ele>685</ele>
        <time>2018-07-01T09:38:00.000Z</time>
      </trkpt>
      <trkpt lat="47.21994" lon="6.7189">
        <ele>685</ele>
        <time>2018-07-01T09:38:01.000Z</time>
      </trkpt>
      <trkpt lat="47.21993" lon="6.7189">
        <ele>686</ele>
        <time>2018-07-01T09:38:02.000Z</time>
      </trkpt>
      <trkpt lat="47.21992" lon="6.7189">
        <ele>686</ele>
        <time>2018-07-01T09:38:03.000Z</time>
      </trkpt>
      <trkpt lat="47.21991" lon="6.71889">
        <ele>686</ele>
        <time>2018-07-01T09:38:04.000Z</time>
      </trkpt>
      <trkpt lat="47.2199" lon="6.71889">
        <ele>686</ele>
        <time>2018-07-01T09:38:05.000Z</time>
      </trkpt>
      <trkpt lat="47.21989" lon="6.71889">
        <ele>686</ele>
        <time>2018-07-01T09:38:06.000Z</time>
      </trkpt>
      <trkpt lat="47.21988" lon="6.71889">
        <ele>686</ele>
        <time>2018-07-01T09:38:07.000Z</time>
      </trkpt>
      <trkpt lat="47.21987" lon="6.71888">
        <ele>686</ele>
        <time>2018-07-01T09:38:08.000Z</time>
      </trkpt>
      <trkpt lat="47.21987" lon="6.71888">
        <ele>686</ele>
        <time>2018-07-01T09:38:09.000Z</time>
      </trkpt>
      <trkpt lat="47.21986" lon="6.71888">
        <ele>686</ele>
        <time>2018-07-01T09:38:10.000Z</time>
      </trkpt>
      <trkpt lat="47.21985" lon="6.71888">
        <ele>687</ele>
        <time>2018-07-01T09:38:11.000Z</time>
      </trkpt>
      <trkpt lat="47.21983" lon="6.71888">
        <ele>687</ele>
        <time>2018-07-01T09:38:12.000Z</time>
      </trkpt>
      <trkpt lat="47.21982" lon="6.71888">
        <ele>687</ele>
        <time>2018-07-01T09:38:13.000Z</time>
      </trkpt>
      <trkpt lat="47.21981" lon="6.71888">
        <ele>687</ele>
        <time>2018-07-01T09:38:14.000Z</time>
      </trkpt>
      <trkpt lat="47.2198" lon="6.71888">
        <ele>687</ele>
        <time>2018-07-01T09:38:15.000Z</time>
      </trkpt>
      <trkpt lat="47.21979" lon="6.71888">
        <ele>688</ele>
        <time>2018-07-01T09:38:16.000Z</time>
      </trkpt>
      <trkpt lat="47.21978" lon="6.71888">
        <ele>688</ele>
        <time>2018-07-01T09:38:17.000Z</time>
      </trkpt>
      <trkpt lat="47.21977" lon="6.71888">
        <ele>688</ele>
        <time>2018-07-01T09:38:18.000Z</time>
      </trkpt>
      <trkpt lat="47.21976" lon="6.71889">
        <ele>688</ele>
        <time>2018-07-01T09:38:19.000Z</time>
      </trkpt>
      <trkpt lat="47.21975" lon="6.71889">
        <ele>688</ele>
        <time>2018-07-01T09:38:20.000Z</time>
      </trkpt>
      <trkpt lat="47.21974" lon="6.71888">
        <ele>688</ele>
        <time>2018-07-01T09:38:21.000Z</time>
      </trkpt>
      <trkpt lat="47.21973" lon="6.71888">
        <ele>689</ele>
        <time>2018-07-01T09:38:22.000Z</time>
      </trkpt>
      <trkpt lat="47.21972" lon="6.71888">
        <ele>689</ele>
        <time>2018-07-01T09:38:23.000Z</time>
      </trkpt>
      <trkpt lat="47.21972" lon="6.71888">
        <ele>689</ele>
        <time>2018-07-01T09:38:24.000Z</time>
      </trkpt>
      <trkpt lat="47.21971" lon="6.71888">
        <ele>689</ele>
        <time>2018-07-01T09:38:25.000Z</time>
      </trkpt>
      <trkpt lat="47.2197" lon="6.71888">
        <ele>689</ele>
        <time>2018-07-01T09:38:26.000Z</time>
      </trkpt>
      <trkpt lat="47.21968" lon="6.71889">
        <ele>690</ele>
        <time>2018-07-01T09:38:27.000Z</time>
      </trkpt>
      <trkpt lat="47.21967" lon="6.71889">
        <ele>690</ele>
        <time>2018-07-01T09:38:28.000Z</time>
      </trkpt>
      <trkpt lat="47.21965" lon="6.71889">
        <ele>690</ele>
        <time>2018-07-01T09:38:29.000Z</time>
      </trkpt>
      <trkpt lat="47.21964" lon="6.71889">
        <ele>691</ele>
        <time>2018-07-01T09:38:30.000Z</time>
      </trkpt>
      <trkpt lat="47.21962" lon="6.71889">
        <ele>691</ele>
        <time>2018-07-01T09:38:31.000Z</time>
      </trkpt>
      <trkpt lat="47.21961" lon="6.71889">
        <ele>691</ele>
        <time>2018-07-01T09:38:32.000Z</time>
      </trkpt>
      <trkpt lat="47.21961" lon="6.71888">
        <ele>691</ele>
        <time>2018-07-01T09:38:33.000Z</time>
      </trkpt>
      <trkpt lat="47.21961" lon="6.71887">
        <ele>691</ele>
        <time>2018-07-01T09:38:34.000Z</time>
      </trkpt>
      <trkpt lat="47.2196" lon="6.71886">
        <ele>691</ele>
        <time>2018-07-01T09:38:35.000Z</time>
      </trkpt>
      <trkpt lat="47.2196" lon="6.71885">
        <ele>691</ele>
        <time>2018-07-01T09:38:36.000Z</time>
      </trkpt>
      <trkpt lat="47.2196" lon="6.71884">
        <ele>691</ele>
        <time>2018-07-01T09:38:37.000Z</time>
      </trkpt>
      <trkpt lat="47.2196" lon="6.71883">
        <ele>691</ele>
        <time>2018-07-01T09:38:38.000Z</time>
      </trkpt>
      <trkpt lat="47.2196" lon="6.71882">
        <ele>691</ele>
        <time>2018-07-01T09:38:39.000Z</time>
      </trkpt>
      <trkpt lat="47.2196" lon="6.7188">
        <ele>691</ele>
        <time>2018-07-01T09:38:40.000Z</time>
      </trkpt>
      <trkpt lat="47.2196" lon="6.71879">
        <ele>691</ele>
        <time>2018-07-01T09:38:41.000Z</time>
      </trkpt>
      <trkpt lat="47.2196" lon="6.71878">
        <ele>691</ele>
        <time>2018-07-01T09:38:42.000Z</time>
      </trkpt>
      <trkpt lat="47.2196" lon="6.71877">
        <ele>691</ele>
        <time>2018-07-01T09:38:43.000Z</time>
      </trkpt>
      <trkpt lat="47.2196" lon="6.71877">
        <ele>691</ele>
        <time>2018-07-01T09:38:44.000Z</time>
      </trkpt>
      <trkpt lat="47.21959" lon="6.71877">
        <ele>691</ele>
        <time>2018-07-01T09:38:45.000Z</time>
      </trkpt>
      <trkpt lat="47.21958" lon="6.71876">
        <ele>691</ele>
        <time>2018-07-01T09:38:46.000Z</time>
      </trkpt>
      <trkpt lat="47.21958" lon="6.71876">
        <ele>691</ele>
        <time>2018-07-01T09:38:47.000Z</time>
      </trkpt>
      <trkpt lat="47.21958" lon="6.71876">
        <ele>691</ele>
        <time>2018-07-01T09:38:48.000Z</time>
      </trkpt>
      <trkpt lat="47.21957" lon="6.71875">
        <ele>691</ele>
        <time>2018-07-01T09:38:49.000Z</time>
      </trkpt>
      <trkpt lat="47.21956" lon="6.71876">
        <ele>692</ele>
        <time>2018-07-01T09:38:50.000Z</time>
      </trkpt>
      <trkpt lat="47.21955" lon="6.71876">
        <ele>692</ele>
        <time>2018-07-01T09:38:51.000Z</time>
      </trkpt>
      <trkpt lat="47.21953" lon="6.71876">
        <ele>692</ele>
        <time>2018-07-01T09:38:52.000Z</time>
      </trkpt>
      <trkpt lat="47.21952" lon="6.71875">
        <ele>693</ele>
        <time>2018-07-01T09:38:53.000Z</time>
      </trkpt>
      <trkpt lat="47.2195" lon="6.71875">
        <ele>693</ele>
        <time>2018-07-01T09:38:54.000Z</time>
      </trkpt>
      <trkpt lat="47.21949" lon="6.71874">
        <ele>693</ele>
        <time>2018-07-01T09:38:55.000Z</time>
      </trkpt>
      <trkpt lat="47.21948" lon="6.71874">
        <ele>693</ele>
        <time>2018-07-01T09:38:56.000Z</time>
      </trkpt>
      <trkpt lat="47.21947" lon="6.71873">
        <ele>694</ele>
        <time>2018-07-01T09:38:57.000Z</time>
      </trkpt>
      <trkpt lat="47.21945" lon="6.71874">
        <ele>694</ele>
        <time>2018-07-01T09:38:58.000Z</time>
      </trkpt>
      <trkpt lat="47.21944" lon="6.71874">
        <ele>694</ele>
        <time>2018-07-01T09:38:59.000Z</time>
      </trkpt>
      <trkpt lat="47.21942" lon="6.71874">
        <ele>695</ele>
        <time>2018-07-01T09:39:00.000Z</time>
      </trkpt>
      <trkpt lat="47.21941" lon="6.71875">
        <ele>695</ele>
        <time>2018-07-01T09:39:01.000Z</time>
      </trkpt>
      <trkpt lat="47.2194" lon="6.71875">
        <ele>695</ele>
        <time>2018-07-01T09:39:02.000Z</time>
      </trkpt>
      <trkpt lat="47.21939" lon="6.71875">
        <ele>695</ele>
        <time>2018-07-01T09:39:03.000Z</time>
      </trkpt>
      <trkpt lat="47.21938" lon="6.71874">
        <ele>696</ele>
        <time>2018-07-01T09:39:04.000Z</time>
      </trkpt>
      <trkpt lat="47.21937" lon="6.71874">
        <ele>696</ele>
        <time>2018-07-01T09:39:05.000Z</time>
      </trkpt>
      <trkpt lat="47.21936" lon="6.71873">
        <ele>696</ele>
        <time>2018-07-01T09:39:06.000Z</time>
      </trkpt>
      <trkpt lat="47.21935" lon="6.71872">
        <ele>696</ele>
        <time>2018-07-01T09:39:07.000Z</time>
      </trkpt>
      <trkpt lat="47.21934" lon="6.71872">
        <ele>696</ele>
        <time>2018-07-01T09:39:08.000Z</time>
      </trkpt>
      <trkpt lat="47.21932" lon="6.71872">
        <ele>696</ele>
        <time>2018-07-01T09:39:09.000Z</time>
      </trkpt>
      <trkpt lat="47.21931" lon="6.71871">
        <ele>697</ele>
        <time>2018-07-01T09:39:10.000Z</time>
      </trkpt>
      <trkpt lat="47.2193" lon="6.71871">
        <ele>697</ele>
        <time>2018-07-01T09:39:11.000Z</time>
      </trkpt>
      <trkpt lat="47.21928" lon="6.7187">
        <ele>697</ele>
        <time>2018-07-01T09:39:12.000Z</time>
      </trkpt>
      <trkpt lat="47.21928" lon="6.7187">
        <ele>697</ele>
        <time>2018-07-01T09:39:13.000Z</time>
      </trkpt>
      <trkpt lat="47.21927" lon="6.7187">
        <ele>697</ele>
        <time>2018-07-01T09:39:14.000Z</time>
      </trkpt>
      <trkpt lat="47.21926" lon="6.71869">
        <ele>697</ele>
        <time>2018-07-01T09:39:15.000Z</time>
      </trkpt>
      <trkpt lat="47.21925" lon="6.71869">
        <ele>697</ele>
        <time>2018-07-01T09:39:16.000Z</time>
      </trkpt>
      <trkpt lat="47.21925" lon="6.71867">
        <ele>697</ele>
        <time>2018-07-01T09:39:17.000Z</time>
      </trkpt>
      <trkpt lat="47.21925" lon="6.71866">
        <ele>697</ele>
        <time>2018-07-01T09:39:18.000Z</time>
      </trkpt>
      <trkpt lat="47.21926" lon="6.71865">
        <ele>697</ele>
        <time>2018-07-01T09:39:19.000Z</time>
      </trkpt>
      <trkpt lat="47.21926" lon="6.71864">
        <ele>697</ele>
        <time>2018-07-01T09:39:20.000Z</time>
      </trkpt>
      <trkpt lat="47.21926" lon="6.71863">
        <ele>697</ele>
        <time>2018-07-01T09:39:21.000Z</time>
      </trkpt>
      <trkpt lat="47.21926" lon="6.71862">
        <ele>697</ele>
        <time>2018-07-01T09:39:22.000Z</time>
      </trkpt>
      <trkpt lat="47.21926" lon="6.71861">
        <ele>697</ele>
        <time>2018-07-01T09:39:23.000Z</time>
      </trkpt>
      <trkpt lat="47.21927" lon="6.71859">
        <ele>697</ele>
        <time>2018-07-01T09:39:24.000Z</time>
      </trkpt>
      <trkpt lat="47.21927" lon="6.71858">
        <ele>697</ele>
        <time>2018-07-01T09:39:25.000Z</time>
      </trkpt>
      <trkpt lat="47.21928" lon="6.71856">
        <ele>698</ele>
        <time>2018-07-01T09:39:26.000Z</time>
      </trkpt>
      <trkpt lat="47.21928" lon="6.71855">
        <ele>698</ele>
        <time>2018-07-01T09:39:27.000Z</time>
      </trkpt>
      <trkpt lat="47.21928" lon="6.71854">
        <ele>698</ele>
        <time>2018-07-01T09:39:28.000Z</time>
      </trkpt>
      <trkpt lat="47.21928" lon="6.71853">
        <ele>698</ele>
        <time>2018-07-01T09:39:29.000Z</time>
      </trkpt>
      <trkpt lat="47.21928" lon="6.71853">
        <ele>698</ele>
        <time>2018-07-01T09:39:30.000Z</time>
      </trkpt>
      <trkpt lat="47.21928" lon="6.71852">
        <ele>698</ele>
        <time>2018-07-01T09:39:31.000Z</time>
      </trkpt>
      <trkpt lat="47.21928" lon="6.7185">
        <ele>698</ele>
        <time>2018-07-01T09:39:32.000Z</time>
      </trkpt>
      <trkpt lat="47.21928" lon="6.71849">
        <ele>698</ele>
        <time>2018-07-01T09:39:33.000Z</time>
      </trkpt>
      <trkpt lat="47.21927" lon="6.71848">
        <ele>699</ele>
        <time>2018-07-01T09:39:34.000Z</time>
      </trkpt>
      <trkpt lat="47.21927" lon="6.71847">
        <ele>699</ele>
        <time>2018-07-01T09:39:35.000Z</time>
      </trkpt>
      <trkpt lat="47.21926" lon="6.71846">
        <ele>700</ele>
        <time>2018-07-01T09:39:36.000Z</time>
      </trkpt>
      <trkpt lat="47.21924" lon="6.71845">
        <ele>700</ele>
        <time>2018-07-01T09:39:37.000Z</time>
      </trkpt>
      <trkpt lat="47.21923" lon="6.71845">
        <ele>701</ele>
        <time>2018-07-01T09:39:38.000Z</time>
      </trkpt>
      <trkpt lat="47.21921" lon="6.71845">
        <ele>701</ele>
        <time>2018-07-01T09:39:39.000Z</time>
      </trkpt>
      <trkpt lat="47.2192" lon="6.71844">
        <ele>702</ele>
        <time>2018-07-01T09:39:40.000Z</time>
      </trkpt>
      <trkpt lat="47.21918" lon="6.71842">
        <ele>702</ele>
        <time>2018-07-01T09:39:41.000Z</time>
      </trkpt>
      <trkpt lat="47.21917" lon="6.71841">
        <ele>703</ele>
        <time>2018-07-01T09:39:42.000Z</time>
      </trkpt>
      <trkpt lat="47.21915" lon="6.7184">
        <ele>712</ele>
        <time>2018-07-01T09:39:43.000Z</time>
      </trkpt>
      <trkpt lat="47.21914" lon="6.71839">
        <ele>712</ele>
        <time>2018-07-01T09:39:44.000Z</time>
      </trkpt>
      <trkpt lat="47.21912" lon="6.71837">
        <ele>712</ele>
        <time>2018-07-01T09:39:45.000Z</time>
      </trkpt>
      <trkpt lat="47.21911" lon="6.71835">
        <ele>712</ele>
        <time>2018-07-01T09:39:46.000Z</time>
      </trkpt>
      <trkpt lat="47.21909" lon="6.71833">
        <ele>711</ele>
        <time>2018-07-01T09:39:47.000Z</time>
      </trkpt>
      <trkpt lat="47.21908" lon="6.71831">
        <ele>711</ele>
        <time>2018-07-01T09:39:48.000Z</time>
      </trkpt>
      <trkpt lat="47.21907" lon="6.71828">
        <ele>712</ele>
        <time>2018-07-01T09:39:49.000Z</time>
      </trkpt>
      <trkpt lat="47.21906" lon="6.71826">
        <ele>713</ele>
        <time>2018-07-01T09:39:50.000Z</time>
      </trkpt>
      <trkpt lat="47.21904" lon="6.71824">
        <ele>713</ele>
        <time>2018-07-01T09:39:51.000Z</time>
      </trkpt>
      <trkpt lat="47.21903" lon="6.71821">
        <ele>714</ele>
        <time>2018-07-01T09:39:52.000Z</time>
      </trkpt>
      <trkpt lat="47.21902" lon="6.71819">
        <ele>715</ele>
        <time>2018-07-01T09:39:53.000Z</time>
      </trkpt>
      <trkpt lat="47.219" lon="6.71817">
        <ele>715</ele>
        <time>2018-07-01T09:39:54.000Z</time>
      </trkpt>
      <trkpt lat="47.21899" lon="6.71815">
        <ele>716</ele>
        <time>2018-07-01T09:39:55.000Z</time>
      </trkpt>
      <trkpt lat="47.21898" lon="6.71813">
        <ele>716</ele>
        <time>2018-07-01T09:39:56.000Z</time>
      </trkpt>
      <trkpt lat="47.21896" lon="6.71811">
        <ele>717</ele>
        <time>2018-07-01T09:39:57.000Z</time>
      </trkpt>
      <trkpt lat="47.21894" lon="6.71808">
        <ele>717</ele>
        <time>2018-07-01T09:39:58.000Z</time>
      </trkpt>
      <trkpt lat="47.21891" lon="6.71805">
        <ele>718</ele>
        <time>2018-07-01T09:39:59.000Z</time>
      </trkpt>
      <trkpt lat="47.21888" lon="6.71802">
        <ele>718</ele>
        <time>2018-07-01T09:40:00.000Z</time>
      </trkpt>
      <trkpt lat="47.21884" lon="6.71799">
        <ele>719</ele>
        <time>2018-07-01T09:40:01.000Z</time>
      </trkpt>
      <trkpt lat="47.21881" lon="6.71796">
        <ele>719</ele>
        <time>2018-07-01T09:40:02.000Z</time>
      </trkpt>
      <trkpt lat="47.21879" lon="6.71793">
        <ele>719</ele>
        <time>2018-07-01T09:40:03.000Z</time>
      </trkpt>
      <trkpt lat="47.21877" lon="6.71789">
        <ele>719</ele>
        <time>2018-07-01T09:40:04.000Z</time>
      </trkpt>
      <trkpt lat="47.21875" lon="6.71786">
        <ele>719</ele>
        <time>2018-07-01T09:40:05.000Z</time>
      </trkpt>
      <trkpt lat="47.21874" lon="6.71782">
        <ele>719</ele>
        <time>2018-07-01T09:40:06.000Z</time>
      </trkpt>
      <trkpt lat="47.21873" lon="6.71779">
        <ele>719</ele>
        <time>2018-07-01T09:40:07.000Z</time>
      </trkpt>
      <trkpt lat="47.21872" lon="6.71775">
        <ele>719</ele>
        <time>2018-07-01T09:40:08.000Z</time>
      </trkpt>
      <trkpt lat="47.21871" lon="6.71771">
        <ele>719</ele>
        <time>2018-07-01T09:40:09.000Z</time>
      </trkpt>
      <trkpt lat="47.2187" lon="6.71768">
        <ele>719</ele>
        <time>2018-07-01T09:40:10.000Z</time>
      </trkpt>
      <trkpt lat="47.21869" lon="6.71765">
        <ele>719</ele>
        <time>2018-07-01T09:40:11.000Z</time>
      </trkpt>
      <trkpt lat="47.21868" lon="6.71762">
        <ele>719</ele>
        <time>2018-07-01T09:40:12.000Z</time>
      </trkpt>
      <trkpt lat="47.21866" lon="6.71759">
        <ele>719</ele>
        <time>2018-07-01T09:40:13.000Z</time>
      </trkpt>
      <trkpt lat="47.21865" lon="6.71756">
        <ele>719</ele>
        <time>2018-07-01T09:40:14.000Z</time>
      </trkpt>
      <trkpt lat="47.21864" lon="6.71754">
        <ele>719</ele>
        <time>2018-07-01T09:40:15.000Z</time>
      </trkpt>
      <trkpt lat="47.21863" lon="6.71752">
        <ele>719</ele>
        <time>2018-07-01T09:40:16.000Z</time>
      </trkpt>
      <trkpt lat="47.21862" lon="6.71749">
        <ele>719</ele>
        <time>2018-07-01T09:40:17.000Z</time>
      </trkpt>
      <trkpt lat="47.2186" lon="6.71747">
        <ele>719</ele>
        <time>2018-07-01T09:40:18.000Z</time>
      </trkpt>
      <trkpt lat="47.21859" lon="6.71744">
        <ele>719</ele>
        <time>2018-07-01T09:40:19.000Z</time>
      </trkpt>
      <trkpt lat="47.21858" lon="6.71741">
        <ele>719</ele>
        <time>2018-07-01T09:40:20.000Z</time>
      </trkpt>
      <trkpt lat="47.21856" lon="6.71738">
        <ele>719</ele>
        <time>2018-07-01T09:40:21.000Z</time>
      </trkpt>
      <trkpt lat="47.21856" lon="6.71735">
        <ele>719</ele>
        <time>2018-07-01T09:40:22.000Z</time>
      </trkpt>
      <trkpt lat="47.21855" lon="6.71732">
        <ele>719</ele>
        <time>2018-07-01T09:40:23.000Z</time>
      </trkpt>
      <trkpt lat="47.21853" lon="6.7173">
        <ele>719</ele>
        <time>2018-07-01T09:40:24.000Z</time>
      </trkpt>
      <trkpt lat="47.21852" lon="6.71728">
        <ele>719</ele>
        <time>2018-07-01T09:40:25.000Z</time>
      </trkpt>
      <trkpt lat="47.21851" lon="6.71725">
        <ele>719</ele>
        <time>2018-07-01T09:40:26.000Z</time>
      </trkpt>
      <trkpt lat="47.2185" lon="6.71723">
        <ele>719</ele>
        <time>2018-07-01T09:40:27.000Z</time>
      </trkpt>
      <trkpt lat="47.21849" lon="6.7172">
        <ele>719</ele>
        <time>2018-07-01T09:40:28.000Z</time>
      </trkpt>
      <trkpt lat="47.21848" lon="6.71718">
        <ele>719</ele>
        <time>2018-07-01T09:40:29.000Z</time>
      </trkpt>
      <trkpt lat="47.21848" lon="6.71715">
        <ele>719</ele>
        <time>2018-07-01T09:40:30.000Z</time>
      </trkpt>
      <trkpt lat="47.21848" lon="6.71713">
        <ele>719</ele>
        <time>2018-07-01T09:40:31.000Z</time>
      </trkpt>
      <trkpt lat="47.21848" lon="6.71711">
        <ele>719</ele>
        <time>2018-07-01T09:40:32.000Z</time>
      </trkpt>
      <trkpt lat="47.21848" lon="6.71709">
        <ele>719</ele>
        <time>2018-07-01T09:40:33.000Z</time>
      </trkpt>
      <trkpt lat="47.21847" lon="6.71706">
        <ele>720</ele>
        <time>2018-07-01T09:40:34.000Z</time>
      </trkpt>
      <trkpt lat="47.21846" lon="6.71704">
        <ele>720</ele>
        <time>2018-07-01T09:40:35.000Z</time>
      </trkpt>
      <trkpt lat="47.21845" lon="6.71701">
        <ele>720</ele>
        <time>2018-07-01T09:40:36.000Z</time>
      </trkpt>
      <trkpt lat="47.21843" lon="6.71699">
        <ele>720</ele>
        <time>2018-07-01T09:40:37.000Z</time>
      </trkpt>
      <trkpt lat="47.21842" lon="6.71697">
        <ele>720</ele>
        <time>2018-07-01T09:40:38.000Z</time>
      </trkpt>
      <trkpt lat="47.21841" lon="6.71694">
        <ele>720</ele>
        <time>2018-07-01T09:40:39.000Z</time>
      </trkpt>
      <trkpt lat="47.21841" lon="6.71692">
        <ele>720</ele>
        <time>2018-07-01T09:40:40.000Z</time>
      </trkpt>
      <trkpt lat="47.2184" lon="6.7169">
        <ele>720</ele>
        <time>2018-07-01T09:40:41.000Z</time>
      </trkpt>
      <trkpt lat="47.21839" lon="6.71688">
        <ele>720</ele>
        <time>2018-07-01T09:40:42.000Z</time>
      </trkpt>
      <trkpt lat="47.21839" lon="6.71686">
        <ele>720</ele>
        <time>2018-07-01T09:40:43.000Z</time>
      </trkpt>
      <trkpt lat="47.21838" lon="6.71684">
        <ele>720</ele>
        <time>2018-07-01T09:40:44.000Z</time>
      </trkpt>
      <trkpt lat="47.21837" lon="6.71681">
        <ele>720</ele>
        <time>2018-07-01T09:40:45.000Z</time>
      </trkpt>
      <trkpt lat="47.21837" lon="6.71679">
        <ele>720</ele>
        <time>2018-07-01T09:40:46.000Z</time>
      </trkpt>
      <trkpt lat="47.21836" lon="6.71676">
        <ele>720</ele>
        <time>2018-07-01T09:40:47.000Z</time>
      </trkpt>
      <trkpt lat="47.21836" lon="6.71674">
        <ele>720</ele>
        <time>2018-07-01T09:40:48.000Z</time>
      </trkpt>
      <trkpt lat="47.21835" lon="6.71672">
        <ele>720</ele>
        <time>2018-07-01T09:40:49.000Z</time>
      </trkpt>
      <trkpt lat="47.21833" lon="6.7167">
        <ele>722</ele>
        <time>2018-07-01T09:40:50.000Z</time>
      </trkpt>
      <trkpt lat="47.21832" lon="6.71667">
        <ele>721</ele>
        <time>2018-07-01T09:40:51.000Z</time>
      </trkpt>
      <trkpt lat="47.21831" lon="6.71665">
        <ele>723</ele>
        <time>2018-07-01T09:40:52.000Z</time>
      </trkpt>
      <trkpt lat="47.2183" lon="6.71662">
        <ele>725</ele>
        <time>2018-07-01T09:40:53.000Z</time>
      </trkpt>
      <trkpt lat="47.21829" lon="6.7166">
        <ele>726</ele>
        <time>2018-07-01T09:40:54.000Z</time>
      </trkpt>
      <trkpt lat="47.21828" lon="6.71659">
        <ele>727</ele>
        <time>2018-07-01T09:40:55.000Z</time>
      </trkpt>
      <trkpt lat="47.21827" lon="6.71658">
        <ele>728</ele>
        <time>2018-07-01T09:40:56.000Z</time>
      </trkpt>
      <trkpt lat="47.21826" lon="6.71656">
        <ele>729</ele>
        <time>2018-07-01T09:40:57.000Z</time>
      </trkpt>
      <trkpt lat="47.21825" lon="6.71655">
        <ele>729</ele>
        <time>2018-07-01T09:40:58.000Z</time>
      </trkpt>
      <trkpt lat="47.21825" lon="6.71653">
        <ele>730</ele>
        <time>2018-07-01T09:40:59.000Z</time>
      </trkpt>
      <trkpt lat="47.21824" lon="6.71652">
        <ele>731</ele>
        <time>2018-07-01T09:41:00.000Z</time>
      </trkpt>
      <trkpt lat="47.21823" lon="6.7165">
        <ele>732</ele>
        <time>2018-07-01T09:41:01.000Z</time>
      </trkpt>
      <trkpt lat="47.21822" lon="6.71648">
        <ele>733</ele>
        <time>2018-07-01T09:41:02.000Z</time>
      </trkpt>
      <trkpt lat="47.21821" lon="6.71647">
        <ele>733</ele>
        <time>2018-07-01T09:41:03.000Z</time>
      </trkpt>
      <trkpt lat="47.2182" lon="6.71645">
        <ele>734</ele>
        <time>2018-07-01T09:41:04.000Z</time>
      </trkpt>
      <trkpt lat="47.21819" lon="6.71643">
        <ele>735</ele>
        <time>2018-07-01T09:41:05.000Z</time>
      </trkpt>
      <trkpt lat="47.21818" lon="6.71642">
        <ele>735</ele>
        <time>2018-07-01T09:41:06.000Z</time>
      </trkpt>
      <trkpt lat="47.21817" lon="6.7164">
        <ele>736</ele>
        <time>2018-07-01T09:41:07.000Z</time>
      </trkpt>
      <trkpt lat="47.21817" lon="6.71638">
        <ele>736</ele>
        <time>2018-07-01T09:41:08.000Z</time>
      </trkpt>
      <trkpt lat="47.21817" lon="6.71637">
        <ele>737</ele>
        <time>2018-07-01T09:41:09.000Z</time>
      </trkpt>
      <trkpt lat="47.21816" lon="6.71635">
        <ele>737</ele>
        <time>2018-07-01T09:41:10.000Z</time>
      </trkpt>
      <trkpt lat="47.21815" lon="6.71633">
        <ele>738</ele>
        <time>2018-07-01T09:41:11.000Z</time>
      </trkpt>
      <trkpt lat="47.21814" lon="6.71631">
        <ele>738</ele>
        <time>2018-07-01T09:41:12.000Z</time>
      </trkpt>
      <trkpt lat="47.21813" lon="6.7163">
        <ele>739</ele>
        <time>2018-07-01T09:41:13.000Z</time>
      </trkpt>
      <trkpt lat="47.21813" lon="6.71629">
        <ele>739</ele>
        <time>2018-07-01T09:41:14.000Z</time>
      </trkpt>
      <trkpt lat="47.21812" lon="6.71628">
        <ele>739</ele>
        <time>2018-07-01T09:41:15.000Z</time>
      </trkpt>
      <trkpt lat="47.21811" lon="6.71627">
        <ele>739</ele>
        <time>2018-07-01T09:41:16.000Z</time>
      </trkpt>
      <trkpt lat="47.2181" lon="6.71627">
        <ele>739</ele>
        <time>2018-07-01T09:41:17.000Z</time>
      </trkpt>
      <trkpt lat="47.21809" lon="6.71626">
        <ele>740</ele>
        <time>2018-07-01T09:41:18.000Z</time>
      </trkpt>
      <trkpt lat="47.21808" lon="6.71625">
        <ele>740</ele>
        <time>2018-07-01T09:41:19.000Z</time>
      </trkpt>
      <trkpt lat="47.21807" lon="6.71625">
        <ele>740</ele>
        <time>2018-07-01T09:41:20.000Z</time>
      </trkpt>
      <trkpt lat="47.21806" lon="6.71624">
        <ele>740</ele>
        <time>2018-07-01T09:41:21.000Z</time>
      </trkpt>
      <trkpt lat="47.21805" lon="6.71623">
        <ele>740</ele>
        <time>2018-07-01T09:41:22.000Z</time>
      </trkpt>
      <trkpt lat="47.21805" lon="6.71623">
        <ele>740</ele>
        <time>2018-07-01T09:41:23.000Z</time>
      </trkpt>
      <trkpt lat="47.21804" lon="6.71623">
        <ele>740</ele>
        <time>2018-07-01T09:41:24.000Z</time>
      </trkpt>
      <trkpt lat="47.21803" lon="6.71622">
        <ele>740</ele>
        <time>2018-07-01T09:41:25.000Z</time>
      </trkpt>
      <trkpt lat="47.21801" lon="6.71622">
        <ele>740</ele>
        <time>2018-07-01T09:41:26.000Z</time>
      </trkpt>
      <trkpt lat="47.218" lon="6.71621">
        <ele>740</ele>
        <time>2018-07-01T09:41:27.000Z</time>
      </trkpt>
      <trkpt lat="47.21799" lon="6.71621">
        <ele>740</ele>
        <time>2018-07-01T09:41:28.000Z</time>
      </trkpt>
      <trkpt lat="47.21798" lon="6.7162">
        <ele>740</ele>
        <time>2018-07-01T09:41:29.000Z</time>
      </trkpt>
      <trkpt lat="47.21797" lon="6.71619">
        <ele>740</ele>
        <time>2018-07-01T09:41:30.000Z</time>
      </trkpt>
      <trkpt lat="47.21795" lon="6.71618">
        <ele>740</ele>
        <time>2018-07-01T09:41:31.000Z</time>
      </trkpt>
      <trkpt lat="47.21794" lon="6.71617">
        <ele>741</ele>
        <time>2018-07-01T09:41:32.000Z</time>
      </trkpt>
      <trkpt lat="47.21793" lon="6.71616">
        <ele>741</ele>
        <time>2018-07-01T09:41:33.000Z</time>
      </trkpt>
      <trkpt lat="47.21792" lon="6.71615">
        <ele>741</ele>
        <time>2018-07-01T09:41:34.000Z</time>
      </trkpt>
      <trkpt lat="47.2179" lon="6.71615">
        <ele>740</ele>
        <time>2018-07-01T09:41:35.000Z</time>
      </trkpt>
      <trkpt lat="47.21789" lon="6.71614">
        <ele>740</ele>
        <time>2018-07-01T09:41:36.000Z</time>
      </trkpt>
      <trkpt lat="47.21787" lon="6.71613">
        <ele>740</ele>
        <time>2018-07-01T09:41:37.000Z</time>
      </trkpt>
      <trkpt lat="47.21785" lon="6.71612">
        <ele>740</ele>
        <time>2018-07-01T09:41:38.000Z</time>
      </trkpt>
      <trkpt lat="47.21784" lon="6.71611">
        <ele>740</ele>
        <time>2018-07-01T09:41:39.000Z</time>
      </trkpt>
      <trkpt lat="47.21782" lon="6.71611">
        <ele>740</ele>
        <time>2018-07-01T09:41:40.000Z</time>
      </trkpt>
      <trkpt lat="47.2178" lon="6.7161">
        <ele>740</ele>
        <time>2018-07-01T09:41:41.000Z</time>
      </trkpt>
      <trkpt lat="47.21778" lon="6.71609">
        <ele>740</ele>
        <time>2018-07-01T09:41:42.000Z</time>
      </trkpt>
      <trkpt lat="47.21776" lon="6.71608">
        <ele>740</ele>
        <time>2018-07-01T09:41:43.000Z</time>
      </trkpt>
      <trkpt lat="47.21775" lon="6.71607">
        <ele>740</ele>
        <time>2018-07-01T09:41:44.000Z</time>
      </trkpt>
      <trkpt lat="47.21773" lon="6.71607">
        <ele>740</ele>
        <time>2018-07-01T09:41:45.000Z</time>
      </trkpt>
      <trkpt lat="47.21771" lon="6.71606">
        <ele>739</ele>
        <time>2018-07-01T09:41:46.000Z</time>
      </trkpt>
      <trkpt lat="47.21769" lon="6.71606">
        <ele>739</ele>
        <time>2018-07-01T09:41:47.000Z</time>
      </trkpt>
      <trkpt lat="47.21767" lon="6.71605">
        <ele>739</ele>
        <time>2018-07-01T09:41:48.000Z</time>
      </trkpt>
      <trkpt lat="47.21765" lon="6.71604">
        <ele>739</ele>
        <time>2018-07-01T09:41:49.000Z</time>
      </trkpt>
      <trkpt lat="47.21763" lon="6.71603">
        <ele>739</ele>
        <time>2018-07-01T09:41:50.000Z</time>
      </trkpt>
      <trkpt lat="47.21761" lon="6.71603">
        <ele>739</ele>
        <time>2018-07-01T09:41:51.000Z</time>
      </trkpt>
      <trkpt lat="47.2176" lon="6.71602">
        <ele>738</ele>
        <time>2018-07-01T09:41:52.000Z</time>
      </trkpt>
      <trkpt lat="47.21758" lon="6.716">
        <ele>738</ele>
        <time>2018-07-01T09:41:53.000Z</time>
      </trkpt>
      <trkpt lat="47.21757" lon="6.71599">
        <ele>738</ele>
        <time>2018-07-01T09:41:54.000Z</time>
      </trkpt>
      <trkpt lat="47.21755" lon="6.71598">
        <ele>738</ele>
        <time>2018-07-01T09:41:55.000Z</time>
      </trkpt>
      <trkpt lat="47.21753" lon="6.71597">
        <ele>738</ele>
        <time>2018-07-01T09:41:56.000Z</time>
      </trkpt>
      <trkpt lat="47.21752" lon="6.71596">
        <ele>737</ele>
        <time>2018-07-01T09:41:57.000Z</time>
      </trkpt>
      <trkpt lat="47.2175" lon="6.71595">
        <ele>737</ele>
        <time>2018-07-01T09:41:58.000Z</time>
      </trkpt>
      <trkpt lat="47.21749" lon="6.71594">
        <ele>741</ele>
        <time>2018-07-01T09:41:59.000Z</time>
      </trkpt>
      <trkpt lat="47.21748" lon="6.71593">
        <ele>741</ele>
        <time>2018-07-01T09:42:00.000Z</time>
      </trkpt>
      <trkpt lat="47.21748" lon="6.71592">
        <ele>741</ele>
        <time>2018-07-01T09:42:01.000Z</time>
      </trkpt>
      <trkpt lat="47.21747" lon="6.71591">
        <ele>740</ele>
        <time>2018-07-01T09:42:02.000Z</time>
      </trkpt>
      <trkpt lat="47.21747" lon="6.7159">
        <ele>740</ele>
        <time>2018-07-01T09:42:03.000Z</time>
      </trkpt>
      <trkpt lat="47.21746" lon="6.71589">
        <ele>740</ele>
        <time>2018-07-01T09:42:04.000Z</time>
      </trkpt>
      <trkpt lat="47.21745" lon="6.71587">
        <ele>739</ele>
        <time>2018-07-01T09:42:05.000Z</time>
      </trkpt>
      <trkpt lat="47.21744" lon="6.71586">
        <ele>739</ele>
        <time>2018-07-01T09:42:06.000Z</time>
      </trkpt>
      <trkpt lat="47.21744" lon="6.71584">
        <ele>739</ele>
        <time>2018-07-01T09:42:07.000Z</time>
      </trkpt>
      <trkpt lat="47.21742" lon="6.71583">
        <ele>740</ele>
        <time>2018-07-01T09:42:08.000Z</time>
      </trkpt>
      <trkpt lat="47.21741" lon="6.71582">
        <ele>740</ele>
        <time>2018-07-01T09:42:09.000Z</time>
      </trkpt>
      <trkpt lat="47.2174" lon="6.71582">
        <ele>741</ele>
        <time>2018-07-01T09:42:10.000Z</time>
      </trkpt>
      <trkpt lat="47.21738" lon="6.71581">
        <ele>742</ele>
        <time>2018-07-01T09:42:11.000Z</time>
      </trkpt>
      <trkpt lat="47.21737" lon="6.7158">
        <ele>743</ele>
        <time>2018-07-01T09:42:12.000Z</time>
      </trkpt>
      <trkpt lat="47.21735" lon="6.71579">
        <ele>744</ele>
        <time>2018-07-01T09:42:13.000Z</time>
      </trkpt>
      <trkpt lat="47.21733" lon="6.71579">
        <ele>744</ele>
        <time>2018-07-01T09:42:14.000Z</time>
      </trkpt>
      <trkpt lat="47.2173" lon="6.71578">
        <ele>745</ele>
        <time>2018-07-01T09:42:15.000Z</time>
      </trkpt>
      <trkpt lat="47.21728" lon="6.71577">
        <ele>746</ele>
        <time>2018-07-01T09:42:16.000Z</time>
      </trkpt>
      <trkpt lat="47.21726" lon="6.71577">
        <ele>746</ele>
        <time>2018-07-01T09:42:17.000Z</time>
      </trkpt>
      <trkpt lat="47.21724" lon="6.71576">
        <ele>747</ele>
        <time>2018-07-01T09:42:18.000Z</time>
      </trkpt>
      <trkpt lat="47.21722" lon="6.71575">
        <ele>748</ele>
        <time>2018-07-01T09:42:19.000Z</time>
      </trkpt>
      <trkpt lat="47.2172" lon="6.71575">
        <ele>748</ele>
        <time>2018-07-01T09:42:20.000Z</time>
      </trkpt>
      <trkpt lat="47.21718" lon="6.71574">
        <ele>748</ele>
        <time>2018-07-01T09:42:21.000Z</time>
      </trkpt>
      <trkpt lat="47.21716" lon="6.71573">
        <ele>749</ele>
        <time>2018-07-01T09:42:22.000Z</time>
      </trkpt>
      <trkpt lat="47.21714" lon="6.71572">
        <ele>749</ele>
        <time>2018-07-01T09:42:23.000Z</time>
      </trkpt>
      <trkpt lat="47.21712" lon="6.71571">
        <ele>750</ele>
        <time>2018-07-01T09:42:24.000Z</time>
      </trkpt>
      <trkpt lat="47.21709" lon="6.7157">
        <ele>750</ele>
        <time>2018-07-01T09:42:25.000Z</time>
      </trkpt>
      <trkpt lat="47.21707" lon="6.71569">
        <ele>751</ele>
        <time>2018-07-01T09:42:26.000Z</time>
      </trkpt>
      <trkpt lat="47.21705" lon="6.71568">
        <ele>751</ele>
        <time>2018-07-01T09:42:27.000Z</time>
      </trkpt>
      <trkpt lat="47.21703" lon="6.71566">
        <ele>751</ele>
        <time>2018-07-01T09:42:28.000Z</time>
      </trkpt>
      <trkpt lat="47.21701" lon="6.71564">
        <ele>751</ele>
        <time>2018-07-01T09:42:29.000Z</time>
      </trkpt>
      <trkpt lat="47.21699" lon="6.71562">
        <ele>752</ele>
        <time>2018-07-01T09:42:30.000Z</time>
      </trkpt>
      <trkpt lat="47.21698" lon="6.7156">
        <ele>752</ele>
        <time>2018-07-01T09:42:31.000Z</time>
      </trkpt>
      <trkpt lat="47.21696" lon="6.71558">
        <ele>752</ele>
        <time>2018-07-01T09:42:32.000Z</time>
      </trkpt>
      <trkpt lat="47.21695" lon="6.71556">
        <ele>752</ele>
        <time>2018-07-01T09:42:33.000Z</time>
      </trkpt>
      <trkpt lat="47.21694" lon="6.71553">
        <ele>752</ele>
        <time>2018-07-01T09:42:34.000Z</time>
      </trkpt>
      <trkpt lat="47.21693" lon="6.71551">
        <ele>752</ele>
        <time>2018-07-01T09:42:35.000Z</time>
      </trkpt>
      <trkpt lat="47.21692" lon="6.71548">
        <ele>752</ele>
        <time>2018-07-01T09:42:36.000Z</time>
      </trkpt>
      <trkpt lat="47.21691" lon="6.71546">
        <ele>752</ele>
        <time>2018-07-01T09:42:37.000Z</time>
      </trkpt>
      <trkpt lat="47.21689" lon="6.71544">
        <ele>752</ele>
        <time>2018-07-01T09:42:38.000Z</time>
      </trkpt>
      <trkpt lat="47.21688" lon="6.71541">
        <ele>752</ele>
        <time>2018-07-01T09:42:39.000Z</time>
      </trkpt>
      <trkpt lat="47.21686" lon="6.71539">
        <ele>752</ele>
        <time>2018-07-01T09:42:40.000Z</time>
      </trkpt>
      <trkpt lat="47.21684" lon="6.71538">
        <ele>752</ele>
        <time>2018-07-01T09:42:41.000Z</time>
      </trkpt>
      <trkpt lat="47.21683" lon="6.71537">
        <ele>752</ele>
        <time>2018-07-01T09:42:42.000Z</time>
      </trkpt>
      <trkpt lat="47.21681" lon="6.71535">
        <ele>752</ele>
        <time>2018-07-01T09:42:43.000Z</time>
      </trkpt>
      <trkpt lat="47.21679" lon="6.71534">
        <ele>752</ele>
        <time>2018-07-01T09:42:44.000Z</time>
      </trkpt>
      <trkpt lat="47.21677" lon="6.71533">
        <ele>752</ele>
        <time>2018-07-01T09:42:45.000Z</time>
      </trkpt>
      <trkpt lat="47.21676" lon="6.71532">
        <ele>752</ele>
        <time>2018-07-01T09:42:46.000Z</time>
      </trkpt>
      <trkpt lat="47.21674" lon="6.71531">
        <ele>752</ele>
        <time>2018-07-01T09:42:47.000Z</time>
      </trkpt>
      <trkpt lat="47.21673" lon="6.7153">
        <ele>752</ele>
        <time>2018-07-01T09:42:48.000Z</time>
      </trkpt>
      <trkpt lat="47.21673" lon="6.71529">
        <ele>752</ele>
        <time>2018-07-01T09:42:49.000Z</time>
      </trkpt>
      <trkpt lat="47.21672" lon="6.71528">
        <ele>752</ele>
        <time>2018-07-01T09:42:50.000Z</time>
      </trkpt>
      <trkpt lat="47.21672" lon="6.71526">
        <ele>752</ele>
        <time>2018-07-01T09:42:51.000Z</time>
      </trkpt>
      <trkpt lat="47.21671" lon="6.71525">
        <ele>752</ele>
        <time>2018-07-01T09:42:52.000Z</time>
      </trkpt>
      <trkpt lat="47.21671" lon="6.71524">
        <ele>752</ele>
        <time>2018-07-01T09:42:53.000Z</time>
      </trkpt>
      <trkpt lat="47.2167" lon="6.71524">
        <ele>752</ele>
        <time>2018-07-01T09:42:54.000Z</time>
      </trkpt>
      <trkpt lat="47.21669" lon="6.71523">
        <ele>752</ele>
        <time>2018-07-01T09:42:55.000Z</time>
      </trkpt>
      <trkpt lat="47.21668" lon="6.71523">
        <ele>751</ele>
        <time>2018-07-01T09:42:56.000Z</time>
      </trkpt>
      <trkpt lat="47.21667" lon="6.71522">
        <ele>751</ele>
        <time>2018-07-01T09:42:57.000Z</time>
      </trkpt>
      <trkpt lat="47.21667" lon="6.71521">
        <ele>763</ele>
        <time>2018-07-01T09:42:58.000Z</time>
      </trkpt>
      <trkpt lat="47.21666" lon="6.7152">
        <ele>762</ele>
        <time>2018-07-01T09:42:59.000Z</time>
      </trkpt>
      <trkpt lat="47.21665" lon="6.71519">
        <ele>762</ele>
        <time>2018-07-01T09:43:00.000Z</time>
      </trkpt>
      <trkpt lat="47.21665" lon="6.71518">
        <ele>762</ele>
        <time>2018-07-01T09:43:01.000Z</time>
      </trkpt>
      <trkpt lat="47.21664" lon="6.71518">
        <ele>762</ele>
        <time>2018-07-01T09:43:02.000Z</time>
      </trkpt>
      <trkpt lat="47.21663" lon="6.71517">
        <ele>762</ele>
        <time>2018-07-01T09:43:03.000Z</time>
      </trkpt>
      <trkpt lat="47.21663" lon="6.71517">
        <ele>762</ele>
        <time>2018-07-01T09:43:04.000Z</time>
      </trkpt>
      <trkpt lat="47.21662" lon="6.71517">
        <ele>762</ele>
        <time>2018-07-01T09:43:05.000Z</time>
      </trkpt>
      <trkpt lat="47.21661" lon="6.71516">
        <ele>761</ele>
        <time>2018-07-01T09:43:06.000Z</time>
      </trkpt>
      <trkpt lat="47.2166" lon="6.71514">
        <ele>761</ele>
        <time>2018-07-01T09:43:07.000Z</time>
      </trkpt>
      <trkpt lat="47.2166" lon="6.71513">
        <ele>760</ele>
        <time>2018-07-01T09:43:08.000Z</time>
      </trkpt>
      <trkpt lat="47.21659" lon="6.71511">
        <ele>760</ele>
        <time>2018-07-01T09:43:09.000Z</time>
      </trkpt>
      <trkpt lat="47.21659" lon="6.7151">
        <ele>759</ele>
        <time>2018-07-01T09:43:10.000Z</time>
      </trkpt>
      <trkpt lat="47.21658" lon="6.7151">
        <ele>760</ele>
        <time>2018-07-01T09:43:11.000Z</time>
      </trkpt>
      <trkpt lat="47.21657" lon="6.71509">
        <ele>760</ele>
        <time>2018-07-01T09:43:12.000Z</time>
      </trkpt>
      <trkpt lat="47.21656" lon="6.71508">
        <ele>760</ele>
        <time>2018-07-01T09:43:13.000Z</time>
      </trkpt>
      <trkpt lat="47.21655" lon="6.71507">
        <ele>760</ele>
        <time>2018-07-01T09:43:14.000Z</time>
      </trkpt>
      <trkpt lat="47.21654" lon="6.71506">
        <ele>761</ele>
        <time>2018-07-01T09:43:15.000Z</time>
      </trkpt>
      <trkpt lat="47.21652" lon="6.71505">
        <ele>761</ele>
        <time>2018-07-01T09:43:16.000Z</time>
      </trkpt>
      <trkpt lat="47.21651" lon="6.71505">
        <ele>762</ele>
        <time>2018-07-01T09:43:17.000Z</time>
      </trkpt>
      <trkpt lat="47.2165" lon="6.71504">
        <ele>762</ele>
        <time>2018-07-01T09:43:18.000Z</time>
      </trkpt>
      <trkpt lat="47.21649" lon="6.71502">
        <ele>763</ele>
        <time>2018-07-01T09:43:19.000Z</time>
      </trkpt>
      <trkpt lat="47.21648" lon="6.71501">
        <ele>763</ele>
        <time>2018-07-01T09:43:20.000Z</time>
      </trkpt>
      <trkpt lat="47.21647" lon="6.71501">
        <ele>764</ele>
        <time>2018-07-01T09:43:21.000Z</time>
      </trkpt>
      <trkpt lat="47.21646" lon="6.715">
        <ele>761</ele>
        <time>2018-07-01T09:43:22.000Z</time>
      </trkpt>
      <trkpt lat="47.21644" lon="6.71498">
        <ele>761</ele>
        <time>2018-07-01T09:43:23.000Z</time>
      </trkpt>
      <trkpt lat="47.21643" lon="6.71497">
        <ele>762</ele>
        <time>2018-07-01T09:43:24.000Z</time>
      </trkpt>
      <trkpt lat="47.21642" lon="6.71496">
        <ele>762</ele>
        <time>2018-07-01T09:43:25.000Z</time>
      </trkpt>
      <trkpt lat="47.2164" lon="6.71495">
        <ele>763</ele>
        <time>2018-07-01T09:43:26.000Z</time>
      </trkpt>
      <trkpt lat="47.21639" lon="6.71494">
        <ele>763</ele>
        <time>2018-07-01T09:43:27.000Z</time>
      </trkpt>
      <trkpt lat="47.21638" lon="6.71492">
        <ele>764</ele>
        <time>2018-07-01T09:43:28.000Z</time>
      </trkpt>
      <trkpt lat="47.21637" lon="6.71491">
        <ele>764</ele>
        <time>2018-07-01T09:43:29.000Z</time>
      </trkpt>
      <trkpt lat="47.21636" lon="6.7149">
        <ele>765</ele>
        <time>2018-07-01T09:43:30.000Z</time>
      </trkpt>
      <trkpt lat="47.21635" lon="6.71489">
        <ele>765</ele>
        <time>2018-07-01T09:43:31.000Z</time>
      </trkpt>
      <trkpt lat="47.21633" lon="6.71487">
        <ele>765</ele>
        <time>2018-07-01T09:43:32.000Z</time>
      </trkpt>
      <trkpt lat="47.21632" lon="6.71486">
        <ele>766</ele>
        <time>2018-07-01T09:43:33.000Z</time>
      </trkpt>
      <trkpt lat="47.2163" lon="6.71484">
        <ele>766</ele>
        <time>2018-07-01T09:43:34.000Z</time>
      </trkpt>
      <trkpt lat="47.21629" lon="6.71483">
        <ele>767</ele>
        <time>2018-07-01T09:43:35.000Z</time>
      </trkpt>
      <trkpt lat="47.21627" lon="6.71481">
        <ele>767</ele>
        <time>2018-07-01T09:43:36.000Z</time>
      </trkpt>
      <trkpt lat="47.21625" lon="6.7148">
        <ele>768</ele>
        <time>2018-07-01T09:43:37.000Z</time>
      </trkpt>
      <trkpt lat="47.21624" lon="6.71478">
        <ele>768</ele>
        <time>2018-07-01T09:43:38.000Z</time>
      </trkpt>
      <trkpt lat="47.21623" lon="6.71477">
        <ele>768</ele>
        <time>2018-07-01T09:43:39.000Z</time>
      </trkpt>
      <trkpt lat="47.21622" lon="6.71475">
        <ele>768</ele>
        <time>2018-07-01T09:43:40.000Z</time>
      </trkpt>
      <trkpt lat="47.21621" lon="6.71474">
        <ele>768</ele>
        <time>2018-07-01T09:43:41.000Z</time>
      </trkpt>
      <trkpt lat="47.21621" lon="6.71472">
        <ele>768</ele>
        <time>2018-07-01T09:43:42.000Z</time>
      </trkpt>
      <trkpt lat="47.2162" lon="6.7147">
        <ele>768</ele>
        <time>2018-07-01T09:43:43.000Z</time>
      </trkpt>
      <trkpt lat="47.2162" lon="6.71469">
        <ele>768</ele>
        <time>2018-07-01T09:43:44.000Z</time>
      </trkpt>
      <trkpt lat="47.2162" lon="6.71467">
        <ele>768</ele>
        <time>2018-07-01T09:43:45.000Z</time>
      </trkpt>
      <trkpt lat="47.21619" lon="6.71466">
        <ele>768</ele>
        <time>2018-07-01T09:43:46.000Z</time>
      </trkpt>
      <trkpt lat="47.21618" lon="6.71465">
        <ele>769</ele>
        <time>2018-07-01T09:43:47.000Z</time>
      </trkpt>
      <trkpt lat="47.21617" lon="6.71463">
        <ele>769</ele>
        <time>2018-07-01T09:43:48.000Z</time>
      </trkpt>
      <trkpt lat="47.21616" lon="6.71462">
        <ele>769</ele>
        <time>2018-07-01T09:43:49.000Z</time>
      </trkpt>
      <trkpt lat="47.21615" lon="6.71461">
        <ele>769</ele>
        <time>2018-07-01T09:43:50.000Z</time>
      </trkpt>
      <trkpt lat="47.21615" lon="6.71459">
        <ele>769</ele>
        <time>2018-07-01T09:43:51.000Z</time>
      </trkpt>
      <trkpt lat="47.21614" lon="6.71458">
        <ele>769</ele>
        <time>2018-07-01T09:43:52.000Z</time>
      </trkpt>
      <trkpt lat="47.21614" lon="6.71457">
        <ele>769</ele>
        <time>2018-07-01T09:43:53.000Z</time>
      </trkpt>
      <trkpt lat="47.21614" lon="6.71455">
        <ele>769</ele>
        <time>2018-07-01T09:43:54.000Z</time>
      </trkpt>
      <trkpt lat="47.21615" lon="6.71453">
        <ele>769</ele>
        <time>2018-07-01T09:43:55.000Z</time>
      </trkpt>
      <trkpt lat="47.21615" lon="6.7145">
        <ele>768</ele>
        <time>2018-07-01T09:43:56.000Z</time>
      </trkpt>
      <trkpt lat="47.21615" lon="6.71448">
        <ele>768</ele>
        <time>2018-07-01T09:43:57.000Z</time>
      </trkpt>
      <trkpt lat="47.21615" lon="6.71446">
        <ele>768</ele>
        <time>2018-07-01T09:43:58.000Z</time>
      </trkpt>
      <trkpt lat="47.21616" lon="6.71443">
        <ele>768</ele>
        <time>2018-07-01T09:43:59.000Z</time>
      </trkpt>
      <trkpt lat="47.21616" lon="6.7144">
        <ele>768</ele>
        <time>2018-07-01T09:44:00.000Z</time>
      </trkpt>
      <trkpt lat="47.21616" lon="6.71437">
        <ele>768</ele>
        <time>2018-07-01T09:44:01.000Z</time>
      </trkpt>
      <trkpt lat="47.21616" lon="6.71433">
        <ele>768</ele>
        <time>2018-07-01T09:44:02.000Z</time>
      </trkpt>
      <trkpt lat="47.21616" lon="6.7143">
        <ele>768</ele>
        <time>2018-07-01T09:44:03.000Z</time>
      </trkpt>
      <trkpt lat="47.21616" lon="6.71426">
        <ele>768</ele>
        <time>2018-07-01T09:44:04.000Z</time>
      </trkpt>
      <trkpt lat="47.21616" lon="6.71423">
        <ele>768</ele>
        <time>2018-07-01T09:44:05.000Z</time>
      </trkpt>
      <trkpt lat="47.21616" lon="6.71419">
        <ele>768</ele>
        <time>2018-07-01T09:44:06.000Z</time>
      </trkpt>
      <trkpt lat="47.21616" lon="6.71416">
        <ele>772</ele>
        <time>2018-07-01T09:44:07.000Z</time>
      </trkpt>
      <trkpt lat="47.21616" lon="6.71412">
        <ele>772</ele>
        <time>2018-07-01T09:44:08.000Z</time>
      </trkpt>
      <trkpt lat="47.21616" lon="6.71409">
        <ele>772</ele>
        <time>2018-07-01T09:44:09.000Z</time>
      </trkpt>
      <trkpt lat="47.21615" lon="6.71407">
        <ele>772</ele>
        <time>2018-07-01T09:44:10.000Z</time>
      </trkpt>
      <trkpt lat="47.21615" lon="6.71405">
        <ele>772</ele>
        <time>2018-07-01T09:44:11.000Z</time>
      </trkpt>
      <trkpt lat="47.21614" lon="6.71402">
        <ele>773</ele>
        <time>2018-07-01T09:44:12.000Z</time>
      </trkpt>
      <trkpt lat="47.21613" lon="6.714">
        <ele>773</ele>
        <time>2018-07-01T09:44:13.000Z</time>
      </trkpt>
      <trkpt lat="47.21612" lon="6.71398">
        <ele>773</ele>
        <time>2018-07-01T09:44:14.000Z</time>
      </trkpt>
      <trkpt lat="47.2161" lon="6.71396">
        <ele>773</ele>
        <time>2018-07-01T09:44:15.000Z</time>
      </trkpt>
      <trkpt lat="47.21609" lon="6.71394">
        <ele>773</ele>
        <time>2018-07-01T09:44:16.000Z</time>
      </trkpt>
      <trkpt lat="47.21607" lon="6.71393">
        <ele>773</ele>
        <time>2018-07-01T09:44:17.000Z</time>
      </trkpt>
      <trkpt lat="47.21604" lon="6.71391">
        <ele>772</ele>
        <time>2018-07-01T09:44:18.000Z</time>
      </trkpt>
      <trkpt lat="47.21602" lon="6.7139">
        <ele>772</ele>
        <time>2018-07-01T09:44:19.000Z</time>
      </trkpt>
      <trkpt lat="47.21599" lon="6.71389">
        <ele>772</ele>
        <time>2018-07-01T09:44:20.000Z</time>
      </trkpt>
      <trkpt lat="47.21596" lon="6.71387">
        <ele>772</ele>
        <time>2018-07-01T09:44:21.000Z</time>
      </trkpt>
      <trkpt lat="47.21594" lon="6.71386">
        <ele>772</ele>
        <time>2018-07-01T09:44:22.000Z</time>
      </trkpt>
      <trkpt lat="47.21592" lon="6.71384">
        <ele>772</ele>
        <time>2018-07-01T09:44:23.000Z</time>
      </trkpt>
      <trkpt lat="47.2159" lon="6.71383">
        <ele>772</ele>
        <time>2018-07-01T09:44:24.000Z</time>
      </trkpt>
      <trkpt lat="47.21588" lon="6.71381">
        <ele>772</ele>
        <time>2018-07-01T09:44:25.000Z</time>
      </trkpt>
      <trkpt lat="47.21586" lon="6.7138">
        <ele>772</ele>
        <time>2018-07-01T09:44:26.000Z</time>
      </trkpt>
      <trkpt lat="47.21584" lon="6.71378">
        <ele>772</ele>
        <time>2018-07-01T09:44:27.000Z</time>
      </trkpt>
      <trkpt lat="47.21582" lon="6.71377">
        <ele>779</ele>
        <time>2018-07-01T09:44:28.000Z</time>
      </trkpt>
      <trkpt lat="47.2158" lon="6.71375">
        <ele>779</ele>
        <time>2018-07-01T09:44:29.000Z</time>
      </trkpt>
      <trkpt lat="47.21577" lon="6.71373">
        <ele>779</ele>
        <time>2018-07-01T09:44:30.000Z</time>
      </trkpt>
      <trkpt lat="47.21575" lon="6.71372">
        <ele>780</ele>
        <time>2018-07-01T09:44:31.000Z</time>
      </trkpt>
      <trkpt lat="47.21572" lon="6.7137">
        <ele>780</ele>
        <time>2018-07-01T09:44:32.000Z</time>
      </trkpt>
      <trkpt lat="47.2157" lon="6.71368">
        <ele>780</ele>
        <time>2018-07-01T09:44:33.000Z</time>
      </trkpt>
      <trkpt lat="47.21567" lon="6.71366">
        <ele>780</ele>
        <time>2018-07-01T09:44:34.000Z</time>
      </trkpt>
      <trkpt lat="47.21564" lon="6.71364">
        <ele>781</ele>
        <time>2018-07-01T09:44:35.000Z</time>
      </trkpt>
      <trkpt lat="47.21562" lon="6.71363">
        <ele>781</ele>
        <time>2018-07-01T09:44:36.000Z</time>
      </trkpt>
      <trkpt lat="47.21559" lon="6.71361">
        <ele>782</ele>
        <time>2018-07-01T09:44:37.000Z</time>
      </trkpt>
      <trkpt lat="47.21556" lon="6.7136">
        <ele>782</ele>
        <time>2018-07-01T09:44:38.000Z</time>
      </trkpt>
      <trkpt lat="47.21553" lon="6.71359">
        <ele>783</ele>
        <time>2018-07-01T09:44:39.000Z</time>
      </trkpt>
      <trkpt lat="47.2155" lon="6.71357">
        <ele>783</ele>
        <time>2018-07-01T09:44:40.000Z</time>
      </trkpt>
      <trkpt lat="47.21548" lon="6.71356">
        <ele>784</ele>
        <time>2018-07-01T09:44:41.000Z</time>
      </trkpt>
      <trkpt lat="47.21545" lon="6.71355">
        <ele>784</ele>
        <time>2018-07-01T09:44:42.000Z</time>
      </trkpt>
      <trkpt lat="47.21543" lon="6.71353">
        <ele>785</ele>
        <time>2018-07-01T09:44:43.000Z</time>
      </trkpt>
      <trkpt lat="47.2154" lon="6.71352">
        <ele>785</ele>
        <time>2018-07-01T09:44:44.000Z</time>
      </trkpt>
      <trkpt lat="47.21538" lon="6.7135">
        <ele>786</ele>
        <time>2018-07-01T09:44:45.000Z</time>
      </trkpt>
      <trkpt lat="47.21536" lon="6.71349">
        <ele>786</ele>
        <time>2018-07-01T09:44:46.000Z</time>
      </trkpt>
      <trkpt lat="47.21533" lon="6.71347">
        <ele>787</ele>
        <time>2018-07-01T09:44:47.000Z</time>
      </trkpt>
      <trkpt lat="47.21531" lon="6.71345">
        <ele>787</ele>
        <time>2018-07-01T09:44:48.000Z</time>
      </trkpt>
      <trkpt lat="47.21529" lon="6.71342">
        <ele>787</ele>
        <time>2018-07-01T09:44:49.000Z</time>
      </trkpt>
      <trkpt lat="47.21528" lon="6.7134">
        <ele>788</ele>
        <time>2018-07-01T09:44:50.000Z</time>
      </trkpt>
      <trkpt lat="47.21526" lon="6.71338">
        <ele>788</ele>
        <time>2018-07-01T09:44:51.000Z</time>
      </trkpt>
      <trkpt lat="47.21525" lon="6.71336">
        <ele>788</ele>
        <time>2018-07-01T09:44:52.000Z</time>
      </trkpt>
      <trkpt lat="47.21523" lon="6.71334">
        <ele>789</ele>
        <time>2018-07-01T09:44:53.000Z</time>
      </trkpt>
      <trkpt lat="47.21521" lon="6.71333">
        <ele>787</ele>
        <time>2018-07-01T09:44:54.000Z</time>
      </trkpt>
      <trkpt lat="47.21519" lon="6.71331">
        <ele>787</ele>
        <time>2018-07-01T09:44:55.000Z</time>
      </trkpt>
      <trkpt lat="47.21517" lon="6.71329">
        <ele>788</ele>
        <time>2018-07-01T09:44:56.000Z</time>
      </trkpt>
      <trkpt lat="47.21516" lon="6.71328">
        <ele>788</ele>
        <time>2018-07-01T09:44:57.000Z</time>
      </trkpt>
      <trkpt lat="47.21514" lon="6.71325">
        <ele>788</ele>
        <time>2018-07-01T09:44:58.000Z</time>
      </trkpt>
      <trkpt lat="47.21513" lon="6.71323">
        <ele>788</ele>
        <time>2018-07-01T09:44:59.000Z</time>
      </trkpt>
      <trkpt lat="47.21512" lon="6.71321">
        <ele>788</ele>
        <time>2018-07-01T09:45:00.000Z</time>
      </trkpt>
      <trkpt lat="47.21511" lon="6.71319">
        <ele>788</ele>
        <time>2018-07-01T09:45:01.000Z</time>
      </trkpt>
      <trkpt lat="47.2151" lon="6.71318">
        <ele>788</ele>
        <time>2018-07-01T09:45:02.000Z</time>
      </trkpt>
      <trkpt lat="47.21509" lon="6.71316">
        <ele>787</ele>
        <time>2018-07-01T09:45:03.000Z</time>
      </trkpt>
      <trkpt lat="47.21508" lon="6.71315">
        <ele>787</ele>
        <time>2018-07-01T09:45:04.000Z</time>
      </trkpt>
      <trkpt lat="47.21507" lon="6.71314">
        <ele>787</ele>
        <time>2018-07-01T09:45:05.000Z</time>
      </trkpt>
      <trkpt lat="47.21506" lon="6.71313">
        <ele>787</ele>
        <time>2018-07-01T09:45:06.000Z</time>
      </trkpt>
      <trkpt lat="47.21505" lon="6.71311">
        <ele>787</ele>
        <time>2018-07-01T09:45:07.000Z</time>
      </trkpt>
      <trkpt lat="47.21505" lon="6.7131">
        <ele>787</ele>
        <time>2018-07-01T09:45:08.000Z</time>
      </trkpt>
      <trkpt lat="47.21504" lon="6.71308">
        <ele>786</ele>
        <time>2018-07-01T09:45:09.000Z</time>
      </trkpt>
      <trkpt lat="47.21503" lon="6.71306">
        <ele>786</ele>
        <time>2018-07-01T09:45:10.000Z</time>
      </trkpt>
      <trkpt lat="47.21502" lon="6.71304">
        <ele>786</ele>
        <time>2018-07-01T09:45:11.000Z</time>
      </trkpt>
      <trkpt lat="47.21502" lon="6.71302">
        <ele>786</ele>
        <time>2018-07-01T09:45:12.000Z</time>
      </trkpt>
      <trkpt lat="47.21501" lon="6.71301">
        <ele>786</ele>
        <time>2018-07-01T09:45:13.000Z</time>
      </trkpt>
      <trkpt lat="47.215" lon="6.71299">
        <ele>804</ele>
        <time>2018-07-01T09:45:14.000Z</time>
      </trkpt>
      <trkpt lat="47.21498" lon="6.71298">
        <ele>804</ele>
        <time>2018-07-01T09:45:15.000Z</time>
      </trkpt>
      <trkpt lat="47.21497" lon="6.71296">
        <ele>804</ele>
        <time>2018-07-01T09:45:16.000Z</time>
      </trkpt>
      <trkpt lat="47.21495" lon="6.71295">
        <ele>804</ele>
        <time>2018-07-01T09:45:17.000Z</time>
      </trkpt>
      <trkpt lat="47.21493" lon="6.71294">
        <ele>804</ele>
        <time>2018-07-01T09:45:18.000Z</time>
      </trkpt>
      <trkpt lat="47.21492" lon="6.71292">
        <ele>804</ele>
        <time>2018-07-01T09:45:19.000Z</time>
      </trkpt>
      <trkpt lat="47.21491" lon="6.7129">
        <ele>804</ele>
        <time>2018-07-01T09:45:20.000Z</time>
      </trkpt>
      <trkpt lat="47.2149" lon="6.71288">
        <ele>804</ele>
        <time>2018-07-01T09:45:21.000Z</time>
      </trkpt>
      <trkpt lat="47.21489" lon="6.71285">
        <ele>804</ele>
        <time>2018-07-01T09:45:22.000Z</time>
      </trkpt>
      <trkpt lat="47.21489" lon="6.71283">
        <ele>803</ele>
        <time>2018-07-01T09:45:23.000Z</time>
      </trkpt>
      <trkpt lat="47.21488" lon="6.71281">
        <ele>803</ele>
        <time>2018-07-01T09:45:24.000Z</time>
      </trkpt>
      <trkpt lat="47.21487" lon="6.71279">
        <ele>803</ele>
        <time>2018-07-01T09:45:25.000Z</time>
      </trkpt>
      <trkpt lat="47.21486" lon="6.71278">
        <ele>803</ele>
        <time>2018-07-01T09:45:26.000Z</time>
      </trkpt>
      <trkpt lat="47.21485" lon="6.71276">
        <ele>803</ele>
        <time>2018-07-01T09:45:27.000Z</time>
      </trkpt>
      <trkpt lat="47.21484" lon="6.71275">
        <ele>803</ele>
        <time>2018-07-01T09:45:28.000Z</time>
      </trkpt>
      <trkpt lat="47.21483" lon="6.71273">
        <ele>802</ele>
        <time>2018-07-01T09:45:29.000Z</time>
      </trkpt>
      <trkpt lat="47.21483" lon="6.71271">
        <ele>802</ele>
        <time>2018-07-01T09:45:30.000Z</time>
      </trkpt>
      <trkpt lat="47.21482" lon="6.71269">
        <ele>802</ele>
        <time>2018-07-01T09:45:31.000Z</time>
      </trkpt>
      <trkpt lat="47.21482" lon="6.71267">
        <ele>801</ele>
        <time>2018-07-01T09:45:32.000Z</time>
      </trkpt>
      <trkpt lat="47.21482" lon="6.71265">
        <ele>800</ele>
        <time>2018-07-01T09:45:33.000Z</time>
      </trkpt>
      <trkpt lat="47.21482" lon="6.71263">
        <ele>800</ele>
        <time>2018-07-01T09:45:34.000Z</time>
      </trkpt>
      <trkpt lat="47.21483" lon="6.7126">
        <ele>799</ele>
        <time>2018-07-01T09:45:35.000Z</time>
      </trkpt>
      <trkpt lat="47.21483" lon="6.71258">
        <ele>798</ele>
        <time>2018-07-01T09:45:36.000Z</time>
      </trkpt>
      <trkpt lat="47.21483" lon="6.71255">
        <ele>797</ele>
        <time>2018-07-01T09:45:37.000Z</time>
      </trkpt>
      <trkpt lat="47.21484" lon="6.71253">
        <ele>797</ele>
        <time>2018-07-01T09:45:38.000Z</time>
      </trkpt>
      <trkpt lat="47.21484" lon="6.71251">
        <ele>796</ele>
        <time>2018-07-01T09:45:39.000Z</time>
      </trkpt>
      <trkpt lat="47.21484" lon="6.71248">
        <ele>792</ele>
        <time>2018-07-01T09:45:40.000Z</time>
      </trkpt>
      <trkpt lat="47.21484" lon="6.71245">
        <ele>792</ele>
        <time>2018-07-01T09:45:41.000Z</time>
      </trkpt>
      <trkpt lat="47.21484" lon="6.71243">
        <ele>793</ele>
        <time>2018-07-01T09:45:42.000Z</time>
      </trkpt>
      <trkpt lat="47.21484" lon="6.71241">
        <ele>793</ele>
        <time>2018-07-01T09:45:43.000Z</time>
      </trkpt>
      <trkpt lat="47.21484" lon="6.71239">
        <ele>794</ele>
        <time>2018-07-01T09:45:44.000Z</time>
      </trkpt>
      <trkpt lat="47.21483" lon="6.71237">
        <ele>794</ele>
        <time>2018-07-01T09:45:45.000Z</time>
      </trkpt>
      <trkpt lat="47.21483" lon="6.71234">
        <ele>795</ele>
        <time>2018-07-01T09:45:46.000Z</time>
      </trkpt>
      <trkpt lat="47.21483" lon="6.71232">
        <ele>795</ele>
        <time>2018-07-01T09:45:47.000Z</time>
      </trkpt>
      <trkpt lat="47.21483" lon="6.7123">
        <ele>795</ele>
        <time>2018-07-01T09:45:48.000Z</time>
      </trkpt>
      <trkpt lat="47.21483" lon="6.71228">
        <ele>796</ele>
        <time>2018-07-01T09:45:49.000Z</time>
      </trkpt>
      <trkpt lat="47.21483" lon="6.71226">
        <ele>796</ele>
        <time>2018-07-01T09:45:50.000Z</time>
      </trkpt>
      <trkpt lat="47.21483" lon="6.71224">
        <ele>796</ele>
        <time>2018-07-01T09:45:51.000Z</time>
      </trkpt>
      <trkpt lat="47.21483" lon="6.71222">
        <ele>797</ele>
        <time>2018-07-01T09:45:52.000Z</time>
      </trkpt>
      <trkpt lat="47.21483" lon="6.71221">
        <ele>797</ele>
        <time>2018-07-01T09:45:53.000Z</time>
      </trkpt>
      <trkpt lat="47.21483" lon="6.7122">
        <ele>797</ele>
        <time>2018-07-01T09:45:54.000Z</time>
      </trkpt>
      <trkpt lat="47.21483" lon="6.71218">
        <ele>797</ele>
        <time>2018-07-01T09:45:55.000Z</time>
      </trkpt>
      <trkpt lat="47.21484" lon="6.71216">
        <ele>797</ele>
        <time>2018-07-01T09:45:56.000Z</time>
      </trkpt>
      <trkpt lat="47.21484" lon="6.71215">
        <ele>797</ele>
        <time>2018-07-01T09:45:57.000Z</time>
      </trkpt>
      <trkpt lat="47.21484" lon="6.71212">
        <ele>797</ele>
        <time>2018-07-01T09:45:58.000Z</time>
      </trkpt>
      <trkpt lat="47.21484" lon="6.7121">
        <ele>797</ele>
        <time>2018-07-01T09:45:59.000Z</time>
      </trkpt>
      <trkpt lat="47.21484" lon="6.71207">
        <ele>798</ele>
        <time>2018-07-01T09:46:00.000Z</time>
      </trkpt>
      <trkpt lat="47.21485" lon="6.71205">
        <ele>798</ele>
        <time>2018-07-01T09:46:01.000Z</time>
      </trkpt>
      <trkpt lat="47.21485" lon="6.71202">
        <ele>798</ele>
        <time>2018-07-01T09:46:02.000Z</time>
      </trkpt>
      <trkpt lat="47.21486" lon="6.71199">
        <ele>797</ele>
        <time>2018-07-01T09:46:03.000Z</time>
      </trkpt>
      <trkpt lat="47.21486" lon="6.71197">
        <ele>797</ele>
        <time>2018-07-01T09:46:04.000Z</time>
      </trkpt>
      <trkpt lat="47.21487" lon="6.71194">
        <ele>797</ele>
        <time>2018-07-01T09:46:05.000Z</time>
      </trkpt>
      <trkpt lat="47.21487" lon="6.71191">
        <ele>797</ele>
        <time>2018-07-01T09:46:06.000Z</time>
      </trkpt>
      <trkpt lat="47.21487" lon="6.71189">
        <ele>797</ele>
        <time>2018-07-01T09:46:07.000Z</time>
      </trkpt>
      <trkpt lat="47.21487" lon="6.71187">
        <ele>796</ele>
        <time>2018-07-01T09:46:08.000Z</time>
      </trkpt>
      <trkpt lat="47.21488" lon="6.71185">
        <ele>796</ele>
        <time>2018-07-01T09:46:09.000Z</time>
      </trkpt>
      <trkpt lat="47.21488" lon="6.71184">
        <ele>796</ele>
        <time>2018-07-01T09:46:10.000Z</time>
      </trkpt>
      <trkpt lat="47.21488" lon="6.71182">
        <ele>796</ele>
        <time>2018-07-01T09:46:11.000Z</time>
      </trkpt>
      <trkpt lat="47.21488" lon="6.7118">
        <ele>796</ele>
        <time>2018-07-01T09:46:12.000Z</time>
      </trkpt>
      <trkpt lat="47.21487" lon="6.71178">
        <ele>796</ele>
        <time>2018-07-01T09:46:13.000Z</time>
      </trkpt>
      <trkpt lat="47.21487" lon="6.71176">
        <ele>795</ele>
        <time>2018-07-01T09:46:14.000Z</time>
      </trkpt>
      <trkpt lat="47.21486" lon="6.71175">
        <ele>795</ele>
        <time>2018-07-01T09:46:15.000Z</time>
      </trkpt>
      <trkpt lat="47.21485" lon="6.71173">
        <ele>795</ele>
        <time>2018-07-01T09:46:16.000Z</time>
      </trkpt>
      <trkpt lat="47.21484" lon="6.71171">
        <ele>795</ele>
        <time>2018-07-01T09:46:17.000Z</time>
      </trkpt>
      <trkpt lat="47.21483" lon="6.71169">
        <ele>796</ele>
        <time>2018-07-01T09:46:18.000Z</time>
      </trkpt>
      <trkpt lat="47.21481" lon="6.71168">
        <ele>796</ele>
        <time>2018-07-01T09:46:19.000Z</time>
      </trkpt>
      <trkpt lat="47.2148" lon="6.71166">
        <ele>798</ele>
        <time>2018-07-01T09:46:20.000Z</time>
      </trkpt>
      <trkpt lat="47.21478" lon="6.71165">
        <ele>798</ele>
        <time>2018-07-01T09:46:21.000Z</time>
      </trkpt>
      <trkpt lat="47.21476" lon="6.71163">
        <ele>798</ele>
        <time>2018-07-01T09:46:22.000Z</time>
      </trkpt>
      <trkpt lat="47.21475" lon="6.71161">
        <ele>799</ele>
        <time>2018-07-01T09:46:23.000Z</time>
      </trkpt>
      <trkpt lat="47.21473" lon="6.7116">
        <ele>799</ele>
        <time>2018-07-01T09:46:24.000Z</time>
      </trkpt>
      <trkpt lat="47.21471" lon="6.71158">
        <ele>800</ele>
        <time>2018-07-01T09:46:25.000Z</time>
      </trkpt>
      <trkpt lat="47.21469" lon="6.71156">
        <ele>800</ele>
        <time>2018-07-01T09:46:26.000Z</time>
      </trkpt>
      <trkpt lat="47.21467" lon="6.71154">
        <ele>801</ele>
        <time>2018-07-01T09:46:27.000Z</time>
      </trkpt>
      <trkpt lat="47.21465" lon="6.71152">
        <ele>801</ele>
        <time>2018-07-01T09:46:28.000Z</time>
      </trkpt>
      <trkpt lat="47.21463" lon="6.7115">
        <ele>801</ele>
        <time>2018-07-01T09:46:29.000Z</time>
      </trkpt>
      <trkpt lat="47.2146" lon="6.71147">
        <ele>802</ele>
        <time>2018-07-01T09:46:30.000Z</time>
      </trkpt>
      <trkpt lat="47.21458" lon="6.71146">
        <ele>802</ele>
        <time>2018-07-01T09:46:31.000Z</time>
      </trkpt>
      <trkpt lat="47.21456" lon="6.71144">
        <ele>802</ele>
        <time>2018-07-01T09:46:32.000Z</time>
      </trkpt>
      <trkpt lat="47.21454" lon="6.71142">
        <ele>802</ele>
        <time>2018-07-01T09:46:33.000Z</time>
      </trkpt>
      <trkpt lat="47.21452" lon="6.7114">
        <ele>803</ele>
        <time>2018-07-01T09:46:34.000Z</time>
      </trkpt>
      <trkpt lat="47.2145" lon="6.71138">
        <ele>803</ele>
        <time>2018-07-01T09:46:35.000Z</time>
      </trkpt>
      <trkpt lat="47.21448" lon="6.71135">
        <ele>803</ele>
        <time>2018-07-01T09:46:36.000Z</time>
      </trkpt>
      <trkpt lat="47.21447" lon="6.71133">
        <ele>803</ele>
        <time>2018-07-01T09:46:37.000Z</time>
      </trkpt>
      <trkpt lat="47.21445" lon="6.7113">
        <ele>803</ele>
        <time>2018-07-01T09:46:38.000Z</time>
      </trkpt>
      <trkpt lat="47.21445" lon="6.71127">
        <ele>803</ele>
        <time>2018-07-01T09:46:39.000Z</time>
      </trkpt>
      <trkpt lat="47.21443" lon="6.71124">
        <ele>803</ele>
        <time>2018-07-01T09:46:40.000Z</time>
      </trkpt>
      <trkpt lat="47.21443" lon="6.71121">
        <ele>803</ele>
        <time>2018-07-01T09:46:41.000Z</time>
      </trkpt>
      <trkpt lat="47.21442" lon="6.71118">
        <ele>803</ele>
        <time>2018-07-01T09:46:42.000Z</time>
      </trkpt>
      <trkpt lat="47.21441" lon="6.71115">
        <ele>803</ele>
        <time>2018-07-01T09:46:43.000Z</time>
      </trkpt>
      <trkpt lat="47.2144" lon="6.71112">
        <ele>803</ele>
        <time>2018-07-01T09:46:44.000Z</time>
      </trkpt>
      <trkpt lat="47.2144" lon="6.71109">
        <ele>803</ele>
        <time>2018-07-01T09:46:45.000Z</time>
      </trkpt>
      <trkpt lat="47.21439" lon="6.71106">
        <ele>803</ele>
        <time>2018-07-01T09:46:46.000Z</time>
      </trkpt>
      <trkpt lat="47.21438" lon="6.71103">
        <ele>803</ele>
        <time>2018-07-01T09:46:47.000Z</time>
      </trkpt>
      <trkpt lat="47.21437" lon="6.711">
        <ele>803</ele>
        <time>2018-07-01T09:46:48.000Z</time>
      </trkpt>
      <trkpt lat="47.21436" lon="6.71098">
        <ele>803</ele>
        <time>2018-07-01T09:46:49.000Z</time>
      </trkpt>
      <trkpt lat="47.21435" lon="6.71096">
        <ele>802</ele>
        <time>2018-07-01T09:46:50.000Z</time>
      </trkpt>
      <trkpt lat="47.21434" lon="6.71093">
        <ele>802</ele>
        <time>2018-07-01T09:46:51.000Z</time>
      </trkpt>
      <trkpt lat="47.21433" lon="6.7109">
        <ele>802</ele>
        <time>2018-07-01T09:46:52.000Z</time>
      </trkpt>
      <trkpt lat="47.21432" lon="6.71088">
        <ele>802</ele>
        <time>2018-07-01T09:46:53.000Z</time>
      </trkpt>
      <trkpt lat="47.21431" lon="6.71085">
        <ele>802</ele>
        <time>2018-07-01T09:46:54.000Z</time>
      </trkpt>
      <trkpt lat="47.21429" lon="6.71083">
        <ele>806</ele>
        <time>2018-07-01T09:46:55.000Z</time>
      </trkpt>
      <trkpt lat="47.21428" lon="6.7108">
        <ele>806</ele>
        <time>2018-07-01T09:46:56.000Z</time>
      </trkpt>
      <trkpt lat="47.21426" lon="6.71078">
        <ele>806</ele>
        <time>2018-07-01T09:46:57.000Z</time>
      </trkpt>
      <trkpt lat="47.21425" lon="6.71075">
        <ele>806</ele>
        <time>2018-07-01T09:46:58.000Z</time>
      </trkpt>
      <trkpt lat="47.21424" lon="6.71073">
        <ele>806</ele>
        <time>2018-07-01T09:46:59.000Z</time>
      </trkpt>
      <trkpt lat="47.21422" lon="6.71072">
        <ele>807</ele>
        <time>2018-07-01T09:47:00.000Z</time>
      </trkpt>
      <trkpt lat="47.21421" lon="6.7107">
        <ele>807</ele>
        <time>2018-07-01T09:47:01.000Z</time>
      </trkpt>
      <trkpt lat="47.21419" lon="6.71067">
        <ele>808</ele>
        <time>2018-07-01T09:47:02.000Z</time>
      </trkpt>
      <trkpt lat="47.21418" lon="6.71065">
        <ele>808</ele>
        <time>2018-07-01T09:47:03.000Z</time>
      </trkpt>
      <trkpt lat="47.21416" lon="6.71062">
        <ele>808</ele>
        <time>2018-07-01T09:47:04.000Z</time>
      </trkpt>
      <trkpt lat="47.21414" lon="6.71059">
        <ele>809</ele>
        <time>2018-07-01T09:47:05.000Z</time>
      </trkpt>
      <trkpt lat="47.21412" lon="6.71057">
        <ele>809</ele>
        <time>2018-07-01T09:47:06.000Z</time>
      </trkpt>
      <trkpt lat="47.21411" lon="6.71055">
        <ele>810</ele>
        <time>2018-07-01T09:47:07.000Z</time>
      </trkpt>
      <trkpt lat="47.21408" lon="6.71052">
        <ele>810</ele>
        <time>2018-07-01T09:47:08.000Z</time>
      </trkpt>
      <trkpt lat="47.21406" lon="6.7105">
        <ele>810</ele>
        <time>2018-07-01T09:47:09.000Z</time>
      </trkpt>
      <trkpt lat="47.21404" lon="6.71048">
        <ele>811</ele>
        <time>2018-07-01T09:47:10.000Z</time>
      </trkpt>
      <trkpt lat="47.21402" lon="6.71046">
        <ele>811</ele>
        <time>2018-07-01T09:47:11.000Z</time>
      </trkpt>
      <trkpt lat="47.214" lon="6.71043">
        <ele>811</ele>
        <time>2018-07-01T09:47:12.000Z</time>
      </trkpt>
      <trkpt lat="47.21398" lon="6.71041">
        <ele>812</ele>
        <time>2018-07-01T09:47:13.000Z</time>
      </trkpt>
      <trkpt lat="47.21396" lon="6.71039">
        <ele>812</ele>
        <time>2018-07-01T09:47:14.000Z</time>
      </trkpt>
      <trkpt lat="47.21394" lon="6.71037">
        <ele>812</ele>
        <time>2018-07-01T09:47:15.000Z</time>
      </trkpt>
      <trkpt lat="47.21392" lon="6.71036">
        <ele>812</ele>
        <time>2018-07-01T09:47:16.000Z</time>
      </trkpt>
      <trkpt lat="47.2139" lon="6.71034">
        <ele>812</ele>
        <time>2018-07-01T09:47:17.000Z</time>
      </trkpt>
      <trkpt lat="47.21389" lon="6.71033">
        <ele>813</ele>
        <time>2018-07-01T09:47:18.000Z</time>
      </trkpt>
      <trkpt lat="47.21387" lon="6.71032">
        <ele>813</ele>
        <time>2018-07-01T09:47:19.000Z</time>
      </trkpt>
      <trkpt lat="47.21386" lon="6.71031">
        <ele>813</ele>
        <time>2018-07-01T09:47:20.000Z</time>
      </trkpt>
      <trkpt lat="47.21385" lon="6.71031">
        <ele>813</ele>
        <time>2018-07-01T09:47:21.000Z</time>
      </trkpt>
      <trkpt lat="47.21385" lon="6.7103">
        <ele>813</ele>
        <time>2018-07-01T09:47:22.000Z</time>
      </trkpt>
      <trkpt lat="47.21385" lon="6.71029">
        <ele>813</ele>
        <time>2018-07-01T09:47:23.000Z</time>
      </trkpt>
      <trkpt lat="47.21385" lon="6.71027">
        <ele>813</ele>
        <time>2018-07-01T09:47:24.000Z</time>
      </trkpt>
      <trkpt lat="47.21385" lon="6.71026">
        <ele>813</ele>
        <time>2018-07-01T09:47:25.000Z</time>
      </trkpt>
      <trkpt lat="47.21386" lon="6.71025">
        <ele>813</ele>
        <time>2018-07-01T09:47:26.000Z</time>
      </trkpt>
      <trkpt lat="47.21386" lon="6.71024">
        <ele>813</ele>
        <time>2018-07-01T09:47:27.000Z</time>
      </trkpt>
      <trkpt lat="47.21386" lon="6.71023">
        <ele>813</ele>
        <time>2018-07-01T09:47:28.000Z</time>
      </trkpt>
      <trkpt lat="47.21386" lon="6.71022">
        <ele>813</ele>
        <time>2018-07-01T09:47:29.000Z</time>
      </trkpt>
      <trkpt lat="47.21386" lon="6.71021">
        <ele>813</ele>
        <time>2018-07-01T09:47:30.000Z</time>
      </trkpt>
      <trkpt lat="47.21387" lon="6.71021">
        <ele>813</ele>
        <time>2018-07-01T09:47:31.000Z</time>
      </trkpt>
      <trkpt lat="47.21387" lon="6.7102">
        <ele>813</ele>
        <time>2018-07-01T09:47:32.000Z</time>
      </trkpt>
      <trkpt lat="47.21387" lon="6.71019">
        <ele>813</ele>
        <time>2018-07-01T09:47:33.000Z</time>
      </trkpt>
      <trkpt lat="47.21387" lon="6.71019">
        <ele>813</ele>
        <time>2018-07-01T09:47:34.000Z</time>
      </trkpt>
      <trkpt lat="47.21387" lon="6.71018">
        <ele>813</ele>
        <time>2018-07-01T09:47:35.000Z</time>
      </trkpt>
      <trkpt lat="47.21387" lon="6.71018">
        <ele>813</ele>
        <time>2018-07-01T09:47:36.000Z</time>
      </trkpt>
      <trkpt lat="47.21387" lon="6.71017">
        <ele>813</ele>
        <time>2018-07-01T09:47:37.000Z</time>
      </trkpt>
      <trkpt lat="47.21387" lon="6.71017">
        <ele>813</ele>
        <time>2018-07-01T09:47:38.000Z</time>
      </trkpt>
      <trkpt lat="47.21387" lon="6.71017">
        <ele>813</ele>
        <time>2018-07-01T09:47:39.000Z</time>
      </trkpt>
      <trkpt lat="47.21388" lon="6.71017">
        <ele>813</ele>
        <time>2018-07-01T09:47:40.000Z</time>
      </trkpt>
      <trkpt lat="47.21388" lon="6.71016">
        <ele>813</ele>
        <time>2018-07-01T09:47:41.000Z</time>
      </trkpt>
      <trkpt lat="47.21388" lon="6.71016">
        <ele>813</ele>
        <time>2018-07-01T09:47:42.000Z</time>
      </trkpt>
      <trkpt lat="47.21388" lon="6.71016">
        <ele>813</ele>
        <time>2018-07-01T09:47:43.000Z</time>
      </trkpt>
      <trkpt lat="47.21387" lon="6.71015">
        <ele>813</ele>
        <time>2018-07-01T09:47:44.000Z</time>
      </trkpt>
      <trkpt lat="47.21388" lon="6.71015">
        <ele>813</ele>
        <time>2018-07-01T09:47:45.000Z</time>
      </trkpt>
      <trkpt lat="47.21388" lon="6.71016">
        <ele>813</ele>
        <time>2018-07-01T09:47:46.000Z</time>
      </trkpt>
      <trkpt lat="47.21388" lon="6.71017">
        <ele>812</ele>
        <time>2018-07-01T09:47:47.000Z</time>
      </trkpt>
      <trkpt lat="47.21389" lon="6.71019">
        <ele>812</ele>
        <time>2018-07-01T09:47:48.000Z</time>
      </trkpt>
      <trkpt lat="47.2139" lon="6.7102">
        <ele>812</ele>
        <time>2018-07-01T09:47:49.000Z</time>
      </trkpt>
      <trkpt lat="47.2139" lon="6.71022">
        <ele>812</ele>
        <time>2018-07-01T09:47:50.000Z</time>
      </trkpt>
      <trkpt lat="47.21391" lon="6.71023">
        <ele>812</ele>
        <time>2018-07-01T09:47:51.000Z</time>
      </trkpt>
      <trkpt lat="47.21393" lon="6.71024">
        <ele>812</ele>
        <time>2018-07-01T09:47:52.000Z</time>
      </trkpt>
      <trkpt lat="47.21394" lon="6.71025">
        <ele>812</ele>
        <time>2018-07-01T09:47:53.000Z</time>
      </trkpt>
      <trkpt lat="47.21396" lon="6.71026">
        <ele>812</ele>
        <time>2018-07-01T09:47:54.000Z</time>
      </trkpt>
      <trkpt lat="47.21398" lon="6.71028">
        <ele>812</ele>
        <time>2018-07-01T09:47:55.000Z</time>
      </trkpt>
      <trkpt lat="47.214" lon="6.7103">
        <ele>812</ele>
        <time>2018-07-01T09:47:56.000Z</time>
      </trkpt>
      <trkpt lat="47.21402" lon="6.71032">
        <ele>812</ele>
        <time>2018-07-01T09:47:57.000Z</time>
      </trkpt>
      <trkpt lat="47.21405" lon="6.71033">
        <ele>812</ele>
        <time>2018-07-01T09:47:58.000Z</time>
      </trkpt>
      <trkpt lat="47.21408" lon="6.71035">
        <ele>811</ele>
        <time>2018-07-01T09:47:59.000Z</time>
      </trkpt>
      <trkpt lat="47.21411" lon="6.71037">
        <ele>811</ele>
        <time>2018-07-01T09:48:00.000Z</time>
      </trkpt>
      <trkpt lat="47.21414" lon="6.71038">
        <ele>811</ele>
        <time>2018-07-01T09:48:01.000Z</time>
      </trkpt>
      <trkpt lat="47.21418" lon="6.7104">
        <ele>813</ele>
        <time>2018-07-01T09:48:02.000Z</time>
      </trkpt>
      <trkpt lat="47.21421" lon="6.71042">
        <ele>813</ele>
        <time>2018-07-01T09:48:03.000Z</time>
      </trkpt>
      <trkpt lat="47.21424" lon="6.71044">
        <ele>813</ele>
        <time>2018-07-01T09:48:04.000Z</time>
      </trkpt>
      <trkpt lat="47.21427" lon="6.71046">
        <ele>813</ele>
        <time>2018-07-01T09:48:05.000Z</time>
      </trkpt>
      <trkpt lat="47.2143" lon="6.71048">
        <ele>813</ele>
        <time>2018-07-01T09:48:06.000Z</time>
      </trkpt>
      <trkpt lat="47.21433" lon="6.71051">
        <ele>813</ele>
        <time>2018-07-01T09:48:07.000Z</time>
      </trkpt>
      <trkpt lat="47.21435" lon="6.71054">
        <ele>812</ele>
        <time>2018-07-01T09:48:08.000Z</time>
      </trkpt>
      <trkpt lat="47.21437" lon="6.71057">
        <ele>812</ele>
        <time>2018-07-01T09:48:09.000Z</time>
      </trkpt>
      <trkpt lat="47.21439" lon="6.7106">
        <ele>812</ele>
        <time>2018-07-01T09:48:10.000Z</time>
      </trkpt>
      <trkpt lat="47.21441" lon="6.71064">
        <ele>812</ele>
        <time>2018-07-01T09:48:11.000Z</time>
      </trkpt>
      <trkpt lat="47.21443" lon="6.71067">
        <ele>812</ele>
        <time>2018-07-01T09:48:12.000Z</time>
      </trkpt>
      <trkpt lat="47.21445" lon="6.71071">
        <ele>812</ele>
        <time>2018-07-01T09:48:13.000Z</time>
      </trkpt>
      <trkpt lat="47.21447" lon="6.71075">
        <ele>812</ele>
        <time>2018-07-01T09:48:14.000Z</time>
      </trkpt>
      <trkpt lat="47.21448" lon="6.71079">
        <ele>812</ele>
        <time>2018-07-01T09:48:15.000Z</time>
      </trkpt>
      <trkpt lat="47.2145" lon="6.71082">
        <ele>812</ele>
        <time>2018-07-01T09:48:16.000Z</time>
      </trkpt>
      <trkpt lat="47.21452" lon="6.71086">
        <ele>804</ele>
        <time>2018-07-01T09:48:17.000Z</time>
      </trkpt>
      <trkpt lat="47.21454" lon="6.71089">
        <ele>804</ele>
        <time>2018-07-01T09:48:18.000Z</time>
      </trkpt>
      <trkpt lat="47.21455" lon="6.71093">
        <ele>804</ele>
        <time>2018-07-01T09:48:19.000Z</time>
      </trkpt>
      <trkpt lat="47.21456" lon="6.71097">
        <ele>804</ele>
        <time>2018-07-01T09:48:20.000Z</time>
      </trkpt>
      <trkpt lat="47.21457" lon="6.711">
        <ele>804</ele>
        <time>2018-07-01T09:48:21.000Z</time>
      </trkpt>
      <trkpt lat="47.21459" lon="6.71104">
        <ele>804</ele>
        <time>2018-07-01T09:48:22.000Z</time>
      </trkpt>
      <trkpt lat="47.2146" lon="6.71108">
        <ele>804</ele>
        <time>2018-07-01T09:48:23.000Z</time>
      </trkpt>
      <trkpt lat="47.21462" lon="6.71112">
        <ele>803</ele>
        <time>2018-07-01T09:48:24.000Z</time>
      </trkpt>
      <trkpt lat="47.21463" lon="6.71115">
        <ele>803</ele>
        <time>2018-07-01T09:48:25.000Z</time>
      </trkpt>
      <trkpt lat="47.21464" lon="6.71119">
        <ele>803</ele>
        <time>2018-07-01T09:48:26.000Z</time>
      </trkpt>
      <trkpt lat="47.21465" lon="6.71123">
        <ele>803</ele>
        <time>2018-07-01T09:48:27.000Z</time>
      </trkpt>
      <trkpt lat="47.21467" lon="6.71127">
        <ele>803</ele>
        <time>2018-07-01T09:48:28.000Z</time>
      </trkpt>
      <trkpt lat="47.21468" lon="6.7113">
        <ele>802</ele>
        <time>2018-07-01T09:48:29.000Z</time>
      </trkpt>
      <trkpt lat="47.21469" lon="6.71133">
        <ele>802</ele>
        <time>2018-07-01T09:48:30.000Z</time>
      </trkpt>
      <trkpt lat="47.2147" lon="6.71136">
        <ele>802</ele>
        <time>2018-07-01T09:48:31.000Z</time>
      </trkpt>
      <trkpt lat="47.21471" lon="6.71139">
        <ele>801</ele>
        <time>2018-07-01T09:48:32.000Z</time>
      </trkpt>
      <trkpt lat="47.21473" lon="6.71142">
        <ele>801</ele>
        <time>2018-07-01T09:48:33.000Z</time>
      </trkpt>
      <trkpt lat="47.21474" lon="6.71145">
        <ele>800</ele>
        <time>2018-07-01T09:48:34.000Z</time>
      </trkpt>
      <trkpt lat="47.21476" lon="6.71148">
        <ele>800</ele>
        <time>2018-07-01T09:48:35.000Z</time>
      </trkpt>
      <trkpt lat="47.21477" lon="6.7115">
        <ele>799</ele>
        <time>2018-07-01T09:48:36.000Z</time>
      </trkpt>
      <trkpt lat="47.21478" lon="6.71153">
        <ele>799</ele>
        <time>2018-07-01T09:48:37.000Z</time>
      </trkpt>
      <trkpt lat="47.21479" lon="6.71156">
        <ele>799</ele>
        <time>2018-07-01T09:48:38.000Z</time>
      </trkpt>
      <trkpt lat="47.21479" lon="6.71159">
        <ele>798</ele>
        <time>2018-07-01T09:48:39.000Z</time>
      </trkpt>
      <trkpt lat="47.2148" lon="6.71163">
        <ele>798</ele>
        <time>2018-07-01T09:48:40.000Z</time>
      </trkpt>
      <trkpt lat="47.2148" lon="6.71166">
        <ele>798</ele>
        <time>2018-07-01T09:48:41.000Z</time>
      </trkpt>
      <trkpt lat="47.2148" lon="6.7117">
        <ele>797</ele>
        <time>2018-07-01T09:48:42.000Z</time>
      </trkpt>
      <trkpt lat="47.2148" lon="6.71174">
        <ele>797</ele>
        <time>2018-07-01T09:48:43.000Z</time>
      </trkpt>
      <trkpt lat="47.21481" lon="6.71178">
        <ele>797</ele>
        <time>2018-07-01T09:48:44.000Z</time>
      </trkpt>
      <trkpt lat="47.21481" lon="6.71182">
        <ele>797</ele>
        <time>2018-07-01T09:48:45.000Z</time>
      </trkpt>
      <trkpt lat="47.21481" lon="6.71186">
        <ele>797</ele>
        <time>2018-07-01T09:48:46.000Z</time>
      </trkpt>
      <trkpt lat="47.21481" lon="6.7119">
        <ele>798</ele>
        <time>2018-07-01T09:48:47.000Z</time>
      </trkpt>
      <trkpt lat="47.21481" lon="6.71194">
        <ele>798</ele>
        <time>2018-07-01T09:48:48.000Z</time>
      </trkpt>
      <trkpt lat="47.21482" lon="6.71198">
        <ele>798</ele>
        <time>2018-07-01T09:48:49.000Z</time>
      </trkpt>
      <trkpt lat="47.21482" lon="6.71202">
        <ele>798</ele>
        <time>2018-07-01T09:48:50.000Z</time>
      </trkpt>
      <trkpt lat="47.21482" lon="6.71206">
        <ele>798</ele>
        <time>2018-07-01T09:48:51.000Z</time>
      </trkpt>
      <trkpt lat="47.21482" lon="6.71211">
        <ele>798</ele>
        <time>2018-07-01T09:48:52.000Z</time>
      </trkpt>
      <trkpt lat="47.21483" lon="6.71215">
        <ele>797</ele>
        <time>2018-07-01T09:48:53.000Z</time>
      </trkpt>
      <trkpt lat="47.21483" lon="6.71219">
        <ele>797</ele>
        <time>2018-07-01T09:48:54.000Z</time>
      </trkpt>
      <trkpt lat="47.21483" lon="6.71223">
        <ele>796</ele>
        <time>2018-07-01T09:48:55.000Z</time>
      </trkpt>
      <trkpt lat="47.21483" lon="6.71227">
        <ele>796</ele>
        <time>2018-07-01T09:48:56.000Z</time>
      </trkpt>
      <trkpt lat="47.21483" lon="6.71231">
        <ele>795</ele>
        <time>2018-07-01T09:48:57.000Z</time>
      </trkpt>
      <trkpt lat="47.21484" lon="6.71234">
        <ele>795</ele>
        <time>2018-07-01T09:48:58.000Z</time>
      </trkpt>
      <trkpt lat="47.21484" lon="6.71237">
        <ele>794</ele>
        <time>2018-07-01T09:48:59.000Z</time>
      </trkpt>
      <trkpt lat="47.21484" lon="6.71241">
        <ele>793</ele>
        <time>2018-07-01T09:49:00.000Z</time>
      </trkpt>
      <trkpt lat="47.21485" lon="6.71245">
        <ele>792</ele>
        <time>2018-07-01T09:49:01.000Z</time>
      </trkpt>
      <trkpt lat="47.21485" lon="6.71249">
        <ele>791</ele>
        <time>2018-07-01T09:49:02.000Z</time>
      </trkpt>
      <trkpt lat="47.21486" lon="6.71252">
        <ele>795</ele>
        <time>2018-07-01T09:49:03.000Z</time>
      </trkpt>
      <trkpt lat="47.21488" lon="6.71256">
        <ele>794</ele>
        <time>2018-07-01T09:49:04.000Z</time>
      </trkpt>
      <trkpt lat="47.21489" lon="6.71259">
        <ele>795</ele>
        <time>2018-07-01T09:49:05.000Z</time>
      </trkpt>
      <trkpt lat="47.2149" lon="6.71262">
        <ele>796</ele>
        <time>2018-07-01T09:49:06.000Z</time>
      </trkpt>
      <trkpt lat="47.21492" lon="6.71266">
        <ele>797</ele>
        <time>2018-07-01T09:49:07.000Z</time>
      </trkpt>
      <trkpt lat="47.21492" lon="6.7127">
        <ele>798</ele>
        <time>2018-07-01T09:49:08.000Z</time>
      </trkpt>
      <trkpt lat="47.21493" lon="6.71273">
        <ele>800</ele>
        <time>2018-07-01T09:49:09.000Z</time>
      </trkpt>
      <trkpt lat="47.21494" lon="6.71277">
        <ele>801</ele>
        <time>2018-07-01T09:49:10.000Z</time>
      </trkpt>
      <trkpt lat="47.21495" lon="6.71281">
        <ele>802</ele>
        <time>2018-07-01T09:49:11.000Z</time>
      </trkpt>
      <trkpt lat="47.21496" lon="6.71285">
        <ele>803</ele>
        <time>2018-07-01T09:49:12.000Z</time>
      </trkpt>
      <trkpt lat="47.21497" lon="6.71289">
        <ele>803</ele>
        <time>2018-07-01T09:49:13.000Z</time>
      </trkpt>
      <trkpt lat="47.21497" lon="6.71293">
        <ele>804</ele>
        <time>2018-07-01T09:49:14.000Z</time>
      </trkpt>
      <trkpt lat="47.21498" lon="6.71297">
        <ele>804</ele>
        <time>2018-07-01T09:49:15.000Z</time>
      </trkpt>
      <trkpt lat="47.21499" lon="6.71301">
        <ele>804</ele>
        <time>2018-07-01T09:49:16.000Z</time>
      </trkpt>
      <trkpt lat="47.215" lon="6.71305">
        <ele>804</ele>
        <time>2018-07-01T09:49:17.000Z</time>
      </trkpt>
      <trkpt lat="47.21501" lon="6.71309">
        <ele>787</ele>
        <time>2018-07-01T09:49:18.000Z</time>
      </trkpt>
      <trkpt lat="47.21501" lon="6.71313">
        <ele>787</ele>
        <time>2018-07-01T09:49:19.000Z</time>
      </trkpt>
      <trkpt lat="47.21503" lon="6.71317">
        <ele>788</ele>
        <time>2018-07-01T09:49:20.000Z</time>
      </trkpt>
      <trkpt lat="47.21504" lon="6.7132">
        <ele>789</ele>
        <time>2018-07-01T09:49:21.000Z</time>
      </trkpt>
      <trkpt lat="47.21504" lon="6.71324">
        <ele>790</ele>
        <time>2018-07-01T09:49:22.000Z</time>
      </trkpt>
      <trkpt lat="47.21505" lon="6.71327">
        <ele>791</ele>
        <time>2018-07-01T09:49:23.000Z</time>
      </trkpt>
      <trkpt lat="47.21506" lon="6.71331">
        <ele>791</ele>
        <time>2018-07-01T09:49:24.000Z</time>
      </trkpt>
      <trkpt lat="47.21507" lon="6.71335">
        <ele>792</ele>
        <time>2018-07-01T09:49:25.000Z</time>
      </trkpt>
      <trkpt lat="47.21508" lon="6.71339">
        <ele>792</ele>
        <time>2018-07-01T09:49:26.000Z</time>
      </trkpt>
      <trkpt lat="47.21509" lon="6.71342">
        <ele>791</ele>
        <time>2018-07-01T09:49:27.000Z</time>
      </trkpt>
      <trkpt lat="47.2151" lon="6.71345">
        <ele>791</ele>
        <time>2018-07-01T09:49:28.000Z</time>
      </trkpt>
      <trkpt lat="47.2151" lon="6.71349">
        <ele>791</ele>
        <time>2018-07-01T09:49:29.000Z</time>
      </trkpt>
      <trkpt lat="47.21511" lon="6.71352">
        <ele>791</ele>
        <time>2018-07-01T09:49:30.000Z</time>
      </trkpt>
      <trkpt lat="47.21512" lon="6.71355">
        <ele>791</ele>
        <time>2018-07-01T09:49:31.000Z</time>
      </trkpt>
      <trkpt lat="47.21513" lon="6.71358">
        <ele>790</ele>
        <time>2018-07-01T09:49:32.000Z</time>
      </trkpt>
      <trkpt lat="47.21514" lon="6.71362">
        <ele>790</ele>
        <time>2018-07-01T09:49:33.000Z</time>
      </trkpt>
      <trkpt lat="47.21515" lon="6.71365">
        <ele>791</ele>
        <time>2018-07-01T09:49:34.000Z</time>
      </trkpt>
      <trkpt lat="47.21517" lon="6.71368">
        <ele>791</ele>
        <time>2018-07-01T09:49:35.000Z</time>
      </trkpt>
      <trkpt lat="47.21518" lon="6.71371">
        <ele>791</ele>
        <time>2018-07-01T09:49:36.000Z</time>
      </trkpt>
      <trkpt lat="47.2152" lon="6.71375">
        <ele>791</ele>
        <time>2018-07-01T09:49:37.000Z</time>
      </trkpt>
      <trkpt lat="47.21522" lon="6.71378">
        <ele>791</ele>
        <time>2018-07-01T09:49:38.000Z</time>
      </trkpt>
      <trkpt lat="47.21523" lon="6.71381">
        <ele>791</ele>
        <time>2018-07-01T09:49:39.000Z</time>
      </trkpt>
      <trkpt lat="47.21525" lon="6.71384">
        <ele>791</ele>
        <time>2018-07-01T09:49:40.000Z</time>
      </trkpt>
      <trkpt lat="47.21526" lon="6.71387">
        <ele>791</ele>
        <time>2018-07-01T09:49:41.000Z</time>
      </trkpt>
      <trkpt lat="47.21527" lon="6.7139">
        <ele>792</ele>
        <time>2018-07-01T09:49:42.000Z</time>
      </trkpt>
      <trkpt lat="47.21529" lon="6.71394">
        <ele>792</ele>
        <time>2018-07-01T09:49:43.000Z</time>
      </trkpt>
      <trkpt lat="47.2153" lon="6.71397">
        <ele>792</ele>
        <time>2018-07-01T09:49:44.000Z</time>
      </trkpt>
      <trkpt lat="47.21532" lon="6.714">
        <ele>791</ele>
        <time>2018-07-01T09:49:45.000Z</time>
      </trkpt>
      <trkpt lat="47.21533" lon="6.71403">
        <ele>791</ele>
        <time>2018-07-01T09:49:46.000Z</time>
      </trkpt>
      <trkpt lat="47.21535" lon="6.71407">
        <ele>791</ele>
        <time>2018-07-01T09:49:47.000Z</time>
      </trkpt>
      <trkpt lat="47.21536" lon="6.71411">
        <ele>791</ele>
        <time>2018-07-01T09:49:48.000Z</time>
      </trkpt>
      <trkpt lat="47.21537" lon="6.71415">
        <ele>790</ele>
        <time>2018-07-01T09:49:49.000Z</time>
      </trkpt>
      <trkpt lat="47.21538" lon="6.71418">
        <ele>800</ele>
        <time>2018-07-01T09:49:50.000Z</time>
      </trkpt>
      <trkpt lat="47.21539" lon="6.71422">
        <ele>800</ele>
        <time>2018-07-01T09:49:51.000Z</time>
      </trkpt>
      <trkpt lat="47.2154" lon="6.71425">
        <ele>799</ele>
        <time>2018-07-01T09:49:52.000Z</time>
      </trkpt>
      <trkpt lat="47.21541" lon="6.71429">
        <ele>799</ele>
        <time>2018-07-01T09:49:53.000Z</time>
      </trkpt>
      <trkpt lat="47.21542" lon="6.71432">
        <ele>799</ele>
        <time>2018-07-01T09:49:54.000Z</time>
      </trkpt>
      <trkpt lat="47.21542" lon="6.71434">
        <ele>799</ele>
        <time>2018-07-01T09:49:55.000Z</time>
      </trkpt>
      <trkpt lat="47.21542" lon="6.71435">
        <ele>800</ele>
        <time>2018-07-01T09:49:56.000Z</time>
      </trkpt>
      <trkpt lat="47.21541" lon="6.71435">
        <ele>800</ele>
        <time>2018-07-01T09:49:57.000Z</time>
      </trkpt>
      <trkpt lat="47.2154" lon="6.71435">
        <ele>800</ele>
        <time>2018-07-01T09:49:58.000Z</time>
      </trkpt>
      <trkpt lat="47.21538" lon="6.71435">
        <ele>801</ele>
        <time>2018-07-01T09:49:59.000Z</time>
      </trkpt>
      <trkpt lat="47.21537" lon="6.71434">
        <ele>802</ele>
        <time>2018-07-01T09:50:00.000Z</time>
      </trkpt>
      <trkpt lat="47.21535" lon="6.71434">
        <ele>802</ele>
        <time>2018-07-01T09:50:01.000Z</time>
      </trkpt>
      <trkpt lat="47.21533" lon="6.71434">
        <ele>803</ele>
        <time>2018-07-01T09:50:02.000Z</time>
      </trkpt>
      <trkpt lat="47.21531" lon="6.71433">
        <ele>803</ele>
        <time>2018-07-01T09:50:03.000Z</time>
      </trkpt>
      <trkpt lat="47.2153" lon="6.71433">
        <ele>804</ele>
        <time>2018-07-01T09:50:04.000Z</time>
      </trkpt>
      <trkpt lat="47.21528" lon="6.71432">
        <ele>805</ele>
        <time>2018-07-01T09:50:05.000Z</time>
      </trkpt>
      <trkpt lat="47.21527" lon="6.71431">
        <ele>805</ele>
        <time>2018-07-01T09:50:06.000Z</time>
      </trkpt>
      <trkpt lat="47.21525" lon="6.71431">
        <ele>806</ele>
        <time>2018-07-01T09:50:07.000Z</time>
      </trkpt>
      <trkpt lat="47.21523" lon="6.7143">
        <ele>806</ele>
        <time>2018-07-01T09:50:08.000Z</time>
      </trkpt>
      <trkpt lat="47.21522" lon="6.7143">
        <ele>807</ele>
        <time>2018-07-01T09:50:09.000Z</time>
      </trkpt>
      <trkpt lat="47.21521" lon="6.71429">
        <ele>807</ele>
        <time>2018-07-01T09:50:10.000Z</time>
      </trkpt>
      <trkpt lat="47.21519" lon="6.71429">
        <ele>808</ele>
        <time>2018-07-01T09:50:11.000Z</time>
      </trkpt>
      <trkpt lat="47.21518" lon="6.71428">
        <ele>808</ele>
        <time>2018-07-01T09:50:12.000Z</time>
      </trkpt>
      <trkpt lat="47.21517" lon="6.71428">
        <ele>809</ele>
        <time>2018-07-01T09:50:13.000Z</time>
      </trkpt>
      <trkpt lat="47.21515" lon="6.71427">
        <ele>809</ele>
        <time>2018-07-01T09:50:14.000Z</time>
      </trkpt>
      <trkpt lat="47.21514" lon="6.71427">
        <ele>810</ele>
        <time>2018-07-01T09:50:15.000Z</time>
      </trkpt>
      <trkpt lat="47.21513" lon="6.71426">
        <ele>810</ele>
        <time>2018-07-01T09:50:16.000Z</time>
      </trkpt>
      <trkpt lat="47.21512" lon="6.71425">
        <ele>811</ele>
        <time>2018-07-01T09:50:17.000Z</time>
      </trkpt>
      <trkpt lat="47.2151" lon="6.71424">
        <ele>811</ele>
        <time>2018-07-01T09:50:18.000Z</time>
      </trkpt>
      <trkpt lat="47.21509" lon="6.71424">
        <ele>812</ele>
        <time>2018-07-01T09:50:19.000Z</time>
      </trkpt>
      <trkpt lat="47.21508" lon="6.71423">
        <ele>812</ele>
        <time>2018-07-01T09:50:20.000Z</time>
      </trkpt>
      <trkpt lat="47.21507" lon="6.71422">
        <ele>813</ele>
        <time>2018-07-01T09:50:21.000Z</time>
      </trkpt>
      <trkpt lat="47.21506" lon="6.71422">
        <ele>813</ele>
        <time>2018-07-01T09:50:22.000Z</time>
      </trkpt>
      <trkpt lat="47.21504" lon="6.71421">
        <ele>814</ele>
        <time>2018-07-01T09:50:23.000Z</time>
      </trkpt>
      <trkpt lat="47.21503" lon="6.7142">
        <ele>815</ele>
        <time>2018-07-01T09:50:24.000Z</time>
      </trkpt>
      <trkpt lat="47.21502" lon="6.71419">
        <ele>815</ele>
        <time>2018-07-01T09:50:25.000Z</time>
      </trkpt>
      <trkpt lat="47.21502" lon="6.71417">
        <ele>816</ele>
        <time>2018-07-01T09:50:26.000Z</time>
      </trkpt>
      <trkpt lat="47.21501" lon="6.71416">
        <ele>816</ele>
        <time>2018-07-01T09:50:27.000Z</time>
      </trkpt>
      <trkpt lat="47.21499" lon="6.71415">
        <ele>818</ele>
        <time>2018-07-01T09:50:28.000Z</time>
      </trkpt>
      <trkpt lat="47.21498" lon="6.71414">
        <ele>819</ele>
        <time>2018-07-01T09:50:29.000Z</time>
      </trkpt>
      <trkpt lat="47.21497" lon="6.71412">
        <ele>820</ele>
        <time>2018-07-01T09:50:30.000Z</time>
      </trkpt>
      <trkpt lat="47.21496" lon="6.71411">
        <ele>820</ele>
        <time>2018-07-01T09:50:31.000Z</time>
      </trkpt>
      <trkpt lat="47.21494" lon="6.71409">
        <ele>821</ele>
        <time>2018-07-01T09:50:32.000Z</time>
      </trkpt>
      <trkpt lat="47.21492" lon="6.71408">
        <ele>822</ele>
        <time>2018-07-01T09:50:33.000Z</time>
      </trkpt>
      <trkpt lat="47.2149" lon="6.71406">
        <ele>823</ele>
        <time>2018-07-01T09:50:34.000Z</time>
      </trkpt>
      <trkpt lat="47.21489" lon="6.71405">
        <ele>823</ele>
        <time>2018-07-01T09:50:35.000Z</time>
      </trkpt>
      <trkpt lat="47.21487" lon="6.71404">
        <ele>824</ele>
        <time>2018-07-01T09:50:36.000Z</time>
      </trkpt>
      <trkpt lat="47.21486" lon="6.71403">
        <ele>824</ele>
        <time>2018-07-01T09:50:37.000Z</time>
      </trkpt>
      <trkpt lat="47.21485" lon="6.71402">
        <ele>825</ele>
        <time>2018-07-01T09:50:38.000Z</time>
      </trkpt>
      <trkpt lat="47.21483" lon="6.71401">
        <ele>825</ele>
        <time>2018-07-01T09:50:39.000Z</time>
      </trkpt>
      <trkpt lat="47.21482" lon="6.714">
        <ele>825</ele>
        <time>2018-07-01T09:50:40.000Z</time>
      </trkpt>
      <trkpt lat="47.2148" lon="6.71399">
        <ele>826</ele>
        <time>2018-07-01T09:50:41.000Z</time>
      </trkpt>
      <trkpt lat="47.21479" lon="6.71398">
        <ele>826</ele>
        <time>2018-07-01T09:50:42.000Z</time>
      </trkpt>
      <trkpt lat="47.21478" lon="6.71397">
        <ele>826</ele>
        <time>2018-07-01T09:50:43.000Z</time>
      </trkpt>
      <trkpt lat="47.21478" lon="6.71396">
        <ele>826</ele>
        <time>2018-07-01T09:50:44.000Z</time>
      </trkpt>
      <trkpt lat="47.21478" lon="6.71395">
        <ele>826</ele>
        <time>2018-07-01T09:50:45.000Z</time>
      </trkpt>
      <trkpt lat="47.21478" lon="6.71395">
        <ele>826</ele>
        <time>2018-07-01T09:50:46.000Z</time>
      </trkpt>
      <trkpt lat="47.21479" lon="6.71396">
        <ele>826</ele>
        <time>2018-07-01T09:50:47.000Z</time>
      </trkpt>
      <trkpt lat="47.2148" lon="6.71397">
        <ele>826</ele>
        <time>2018-07-01T09:50:48.000Z</time>
      </trkpt>
      <trkpt lat="47.21482" lon="6.71398">
        <ele>825</ele>
        <time>2018-07-01T09:50:49.000Z</time>
      </trkpt>
      <trkpt lat="47.21484" lon="6.714">
        <ele>825</ele>
        <time>2018-07-01T09:50:50.000Z</time>
      </trkpt>
      <trkpt lat="47.21486" lon="6.71401">
        <ele>824</ele>
        <time>2018-07-01T09:50:51.000Z</time>
      </trkpt>
      <trkpt lat="47.21488" lon="6.71402">
        <ele>824</ele>
        <time>2018-07-01T09:50:52.000Z</time>
      </trkpt>
      <trkpt lat="47.21489" lon="6.71401">
        <ele>823</ele>
        <time>2018-07-01T09:50:53.000Z</time>
      </trkpt>
      <trkpt lat="47.2149" lon="6.714">
        <ele>823</ele>
        <time>2018-07-01T09:50:54.000Z</time>
      </trkpt>
      <trkpt lat="47.2149" lon="6.71399">
        <ele>823</ele>
        <time>2018-07-01T09:50:55.000Z</time>
      </trkpt>
      <trkpt lat="47.2149" lon="6.71398">
        <ele>824</ele>
        <time>2018-07-01T09:50:56.000Z</time>
      </trkpt>
      <trkpt lat="47.21489" lon="6.71398">
        <ele>824</ele>
        <time>2018-07-01T09:50:57.000Z</time>
      </trkpt>
      <trkpt lat="47.21488" lon="6.71397">
        <ele>824</ele>
        <time>2018-07-01T09:50:58.000Z</time>
      </trkpt>
      <trkpt lat="47.21486" lon="6.71395">
        <ele>824</ele>
        <time>2018-07-01T09:50:59.000Z</time>
      </trkpt>
      <trkpt lat="47.21485" lon="6.71394">
        <ele>825</ele>
        <time>2018-07-01T09:51:00.000Z</time>
      </trkpt>
      <trkpt lat="47.21484" lon="6.71392">
        <ele>825</ele>
        <time>2018-07-01T09:51:01.000Z</time>
      </trkpt>
      <trkpt lat="47.21483" lon="6.71391">
        <ele>825</ele>
        <time>2018-07-01T09:51:02.000Z</time>
      </trkpt>
      <trkpt lat="47.21482" lon="6.71389">
        <ele>825</ele>
        <time>2018-07-01T09:51:03.000Z</time>
      </trkpt>
      <trkpt lat="47.21481" lon="6.71388">
        <ele>826</ele>
        <time>2018-07-01T09:51:04.000Z</time>
      </trkpt>
      <trkpt lat="47.21479" lon="6.71386">
        <ele>826</ele>
        <time>2018-07-01T09:51:05.000Z</time>
      </trkpt>
      <trkpt lat="47.21478" lon="6.71385">
        <ele>826</ele>
        <time>2018-07-01T09:51:06.000Z</time>
      </trkpt>
      <trkpt lat="47.21477" lon="6.71385">
        <ele>826</ele>
        <time>2018-07-01T09:51:07.000Z</time>
      </trkpt>
      <trkpt lat="47.21475" lon="6.71383">
        <ele>826</ele>
        <time>2018-07-01T09:51:08.000Z</time>
      </trkpt>
      <trkpt lat="47.21474" lon="6.71382">
        <ele>827</ele>
        <time>2018-07-01T09:51:09.000Z</time>
      </trkpt>
      <trkpt lat="47.21473" lon="6.71381">
        <ele>827</ele>
        <time>2018-07-01T09:51:10.000Z</time>
      </trkpt>
      <trkpt lat="47.21472" lon="6.7138">
        <ele>827</ele>
        <time>2018-07-01T09:51:11.000Z</time>
      </trkpt>
      <trkpt lat="47.2147" lon="6.71379">
        <ele>827</ele>
        <time>2018-07-01T09:51:12.000Z</time>
      </trkpt>
      <trkpt lat="47.21469" lon="6.71378">
        <ele>828</ele>
        <time>2018-07-01T09:51:13.000Z</time>
      </trkpt>
      <trkpt lat="47.21468" lon="6.71377">
        <ele>828</ele>
        <time>2018-07-01T09:51:14.000Z</time>
      </trkpt>
      <trkpt lat="47.21467" lon="6.71376">
        <ele>828</ele>
        <time>2018-07-01T09:51:15.000Z</time>
      </trkpt>
      <trkpt lat="47.21466" lon="6.71375">
        <ele>828</ele>
        <time>2018-07-01T09:51:16.000Z</time>
      </trkpt>
      <trkpt lat="47.21466" lon="6.71375">
        <ele>828</ele>
        <time>2018-07-01T09:51:17.000Z</time>
      </trkpt>
      <trkpt lat="47.21465" lon="6.71375">
        <ele>828</ele>
        <time>2018-07-01T09:51:18.000Z</time>
      </trkpt>
      <trkpt lat="47.21464" lon="6.71374">
        <ele>829</ele>
        <time>2018-07-01T09:51:19.000Z</time>
      </trkpt>
      <trkpt lat="47.21463" lon="6.71373">
        <ele>829</ele>
        <time>2018-07-01T09:51:20.000Z</time>
      </trkpt>
      <trkpt lat="47.21462" lon="6.71372">
        <ele>829</ele>
        <time>2018-07-01T09:51:21.000Z</time>
      </trkpt>
      <trkpt lat="47.21461" lon="6.71371">
        <ele>829</ele>
        <time>2018-07-01T09:51:22.000Z</time>
      </trkpt>
      <trkpt lat="47.2146" lon="6.7137">
        <ele>829</ele>
        <time>2018-07-01T09:51:23.000Z</time>
      </trkpt>
      <trkpt lat="47.21459" lon="6.71369">
        <ele>829</ele>
        <time>2018-07-01T09:51:24.000Z</time>
      </trkpt>
      <trkpt lat="47.21458" lon="6.71368">
        <ele>830</ele>
        <time>2018-07-01T09:51:25.000Z</time>
      </trkpt>
      <trkpt lat="47.21457" lon="6.71367">
        <ele>830</ele>
        <time>2018-07-01T09:51:26.000Z</time>
      </trkpt>
      <trkpt lat="47.21455" lon="6.71366">
        <ele>830</ele>
        <time>2018-07-01T09:51:27.000Z</time>
      </trkpt>
      <trkpt lat="47.21454" lon="6.71365">
        <ele>831</ele>
        <time>2018-07-01T09:51:28.000Z</time>
      </trkpt>
      <trkpt lat="47.21453" lon="6.71365">
        <ele>831</ele>
        <time>2018-07-01T09:51:29.000Z</time>
      </trkpt>
      <trkpt lat="47.21451" lon="6.71364">
        <ele>831</ele>
        <time>2018-07-01T09:51:30.000Z</time>
      </trkpt>
      <trkpt lat="47.2145" lon="6.71363">
        <ele>832</ele>
        <time>2018-07-01T09:51:31.000Z</time>
      </trkpt>
      <trkpt lat="47.21449" lon="6.71362">
        <ele>832</ele>
        <time>2018-07-01T09:51:32.000Z</time>
      </trkpt>
      <trkpt lat="47.21447" lon="6.7136">
        <ele>832</ele>
        <time>2018-07-01T09:51:33.000Z</time>
      </trkpt>
      <trkpt lat="47.21446" lon="6.71359">
        <ele>833</ele>
        <time>2018-07-01T09:51:34.000Z</time>
      </trkpt>
      <trkpt lat="47.21445" lon="6.71358">
        <ele>833</ele>
        <time>2018-07-01T09:51:35.000Z</time>
      </trkpt>
      <trkpt lat="47.21444" lon="6.71357">
        <ele>833</ele>
        <time>2018-07-01T09:51:36.000Z</time>
      </trkpt>
      <trkpt lat="47.21443" lon="6.71355">
        <ele>833</ele>
        <time>2018-07-01T09:51:37.000Z</time>
      </trkpt>
      <trkpt lat="47.21442" lon="6.71355">
        <ele>834</ele>
        <time>2018-07-01T09:51:38.000Z</time>
      </trkpt>
      <trkpt lat="47.21441" lon="6.71354">
        <ele>834</ele>
        <time>2018-07-01T09:51:39.000Z</time>
      </trkpt>
      <trkpt lat="47.2144" lon="6.71353">
        <ele>834</ele>
        <time>2018-07-01T09:51:40.000Z</time>
      </trkpt>
      <trkpt lat="47.21439" lon="6.71353">
        <ele>835</ele>
        <time>2018-07-01T09:51:41.000Z</time>
      </trkpt>
      <trkpt lat="47.21438" lon="6.71352">
        <ele>835</ele>
        <time>2018-07-01T09:51:42.000Z</time>
      </trkpt>
      <trkpt lat="47.21437" lon="6.71351">
        <ele>835</ele>
        <time>2018-07-01T09:51:43.000Z</time>
      </trkpt>
      <trkpt lat="47.21436" lon="6.7135">
        <ele>836</ele>
        <time>2018-07-01T09:51:44.000Z</time>
      </trkpt>
      <trkpt lat="47.21435" lon="6.71349">
        <ele>836</ele>
        <time>2018-07-01T09:51:45.000Z</time>
      </trkpt>
      <trkpt lat="47.21434" lon="6.71348">
        <ele>836</ele>
        <time>2018-07-01T09:51:46.000Z</time>
      </trkpt>
      <trkpt lat="47.21433" lon="6.71347">
        <ele>837</ele>
        <time>2018-07-01T09:51:47.000Z</time>
      </trkpt>
      <trkpt lat="47.21432" lon="6.71346">
        <ele>837</ele>
        <time>2018-07-01T09:51:48.000Z</time>
      </trkpt>
      <trkpt lat="47.21431" lon="6.71345">
        <ele>838</ele>
        <time>2018-07-01T09:51:49.000Z</time>
      </trkpt>
      <trkpt lat="47.2143" lon="6.71344">
        <ele>838</ele>
        <time>2018-07-01T09:51:50.000Z</time>
      </trkpt>
      <trkpt lat="47.21429" lon="6.71343">
        <ele>839</ele>
        <time>2018-07-01T09:51:51.000Z</time>
      </trkpt>
      <trkpt lat="47.21428" lon="6.71342">
        <ele>839</ele>
        <time>2018-07-01T09:51:52.000Z</time>
      </trkpt>
      <trkpt lat="47.21427" lon="6.71341">
        <ele>840</ele>
        <time>2018-07-01T09:51:53.000Z</time>
      </trkpt>
      <trkpt lat="47.21426" lon="6.7134">
        <ele>841</ele>
        <time>2018-07-01T09:51:54.000Z</time>
      </trkpt>
      <trkpt lat="47.21426" lon="6.71339">
        <ele>841</ele>
        <time>2018-07-01T09:51:55.000Z</time>
      </trkpt>
      <trkpt lat="47.21426" lon="6.71339">
        <ele>841</ele>
        <time>2018-07-01T09:51:56.000Z</time>
      </trkpt>
      <trkpt lat="47.21425" lon="6.71338">
        <ele>841</ele>
        <time>2018-07-01T09:51:57.000Z</time>
      </trkpt>
      <trkpt lat="47.21425" lon="6.71337">
        <ele>841</ele>
        <time>2018-07-01T09:51:58.000Z</time>
      </trkpt>
      <trkpt lat="47.21425" lon="6.71337">
        <ele>842</ele>
        <time>2018-07-01T09:51:59.000Z</time>
      </trkpt>
      <trkpt lat="47.21424" lon="6.71336">
        <ele>842</ele>
        <time>2018-07-01T09:52:00.000Z</time>
      </trkpt>
      <trkpt lat="47.21424" lon="6.71335">
        <ele>843</ele>
        <time>2018-07-01T09:52:01.000Z</time>
      </trkpt>
      <trkpt lat="47.21423" lon="6.71334">
        <ele>843</ele>
        <time>2018-07-01T09:52:02.000Z</time>
      </trkpt>
      <trkpt lat="47.21423" lon="6.71332">
        <ele>840</ele>
        <time>2018-07-01T09:52:03.000Z</time>
      </trkpt>
      <trkpt lat="47.21422" lon="6.71331">
        <ele>840</ele>
        <time>2018-07-01T09:52:04.000Z</time>
      </trkpt>
      <trkpt lat="47.21421" lon="6.7133">
        <ele>840</ele>
        <time>2018-07-01T09:52:05.000Z</time>
      </trkpt>
      <trkpt lat="47.21421" lon="6.71329">
        <ele>840</ele>
        <time>2018-07-01T09:52:06.000Z</time>
      </trkpt>
      <trkpt lat="47.2142" lon="6.71328">
        <ele>839</ele>
        <time>2018-07-01T09:52:07.000Z</time>
      </trkpt>
      <trkpt lat="47.21419" lon="6.71327">
        <ele>839</ele>
        <time>2018-07-01T09:52:08.000Z</time>
      </trkpt>
      <trkpt lat="47.21419" lon="6.71326">
        <ele>838</ele>
        <time>2018-07-01T09:52:09.000Z</time>
      </trkpt>
      <trkpt lat="47.21418" lon="6.71325">
        <ele>837</ele>
        <time>2018-07-01T09:52:10.000Z</time>
      </trkpt>
      <trkpt lat="47.21418" lon="6.71324">
        <ele>837</ele>
        <time>2018-07-01T09:52:11.000Z</time>
      </trkpt>
      <trkpt lat="47.21417" lon="6.71323">
        <ele>836</ele>
        <time>2018-07-01T09:52:12.000Z</time>
      </trkpt>
      <trkpt lat="47.21416" lon="6.71322">
        <ele>850</ele>
        <time>2018-07-01T09:52:13.000Z</time>
      </trkpt>
      <trkpt lat="47.21416" lon="6.71321">
        <ele>851</ele>
        <time>2018-07-01T09:52:14.000Z</time>
      </trkpt>
      <trkpt lat="47.21415" lon="6.71319">
        <ele>851</ele>
        <time>2018-07-01T09:52:15.000Z</time>
      </trkpt>
      <trkpt lat="47.21414" lon="6.71318">
        <ele>851</ele>
        <time>2018-07-01T09:52:16.000Z</time>
      </trkpt>
      <trkpt lat="47.21414" lon="6.71317">
        <ele>851</ele>
        <time>2018-07-01T09:52:17.000Z</time>
      </trkpt>
      <trkpt lat="47.21413" lon="6.71316">
        <ele>852</ele>
        <time>2018-07-01T09:52:18.000Z</time>
      </trkpt>
      <trkpt lat="47.21411" lon="6.71315">
        <ele>852</ele>
        <time>2018-07-01T09:52:19.000Z</time>
      </trkpt>
      <trkpt lat="47.2141" lon="6.71314">
        <ele>852</ele>
        <time>2018-07-01T09:52:20.000Z</time>
      </trkpt>
      <trkpt lat="47.21409" lon="6.71313">
        <ele>852</ele>
        <time>2018-07-01T09:52:21.000Z</time>
      </trkpt>
      <trkpt lat="47.21408" lon="6.71312">
        <ele>853</ele>
        <time>2018-07-01T09:52:22.000Z</time>
      </trkpt>
      <trkpt lat="47.21406" lon="6.71311">
        <ele>853</ele>
        <time>2018-07-01T09:52:23.000Z</time>
      </trkpt>
      <trkpt lat="47.21405" lon="6.7131">
        <ele>853</ele>
        <time>2018-07-01T09:52:24.000Z</time>
      </trkpt>
      <trkpt lat="47.21403" lon="6.71309">
        <ele>853</ele>
        <time>2018-07-01T09:52:25.000Z</time>
      </trkpt>
      <trkpt lat="47.21402" lon="6.71308">
        <ele>853</ele>
        <time>2018-07-01T09:52:26.000Z</time>
      </trkpt>
      <trkpt lat="47.214" lon="6.71308">
        <ele>854</ele>
        <time>2018-07-01T09:52:27.000Z</time>
      </trkpt>
      <trkpt lat="47.21399" lon="6.71307">
        <ele>854</ele>
        <time>2018-07-01T09:52:28.000Z</time>
      </trkpt>
      <trkpt lat="47.21398" lon="6.71306">
        <ele>854</ele>
        <time>2018-07-01T09:52:29.000Z</time>
      </trkpt>
      <trkpt lat="47.21397" lon="6.71305">
        <ele>854</ele>
        <time>2018-07-01T09:52:30.000Z</time>
      </trkpt>
      <trkpt lat="47.21396" lon="6.71305">
        <ele>854</ele>
        <time>2018-07-01T09:52:31.000Z</time>
      </trkpt>
      <trkpt lat="47.21395" lon="6.71304">
        <ele>855</ele>
        <time>2018-07-01T09:52:32.000Z</time>
      </trkpt>
      <trkpt lat="47.21394" lon="6.71303">
        <ele>855</ele>
        <time>2018-07-01T09:52:33.000Z</time>
      </trkpt>
      <trkpt lat="47.21393" lon="6.71302">
        <ele>855</ele>
        <time>2018-07-01T09:52:34.000Z</time>
      </trkpt>
      <trkpt lat="47.21392" lon="6.71301">
        <ele>855</ele>
        <time>2018-07-01T09:52:35.000Z</time>
      </trkpt>
      <trkpt lat="47.21391" lon="6.713">
        <ele>855</ele>
        <time>2018-07-01T09:52:36.000Z</time>
      </trkpt>
      <trkpt lat="47.2139" lon="6.71299">
        <ele>855</ele>
        <time>2018-07-01T09:52:37.000Z</time>
      </trkpt>
      <trkpt lat="47.21388" lon="6.71298">
        <ele>856</ele>
        <time>2018-07-01T09:52:38.000Z</time>
      </trkpt>
      <trkpt lat="47.21387" lon="6.71298">
        <ele>856</ele>
        <time>2018-07-01T09:52:39.000Z</time>
      </trkpt>
      <trkpt lat="47.21386" lon="6.71297">
        <ele>856</ele>
        <time>2018-07-01T09:52:40.000Z</time>
      </trkpt>
      <trkpt lat="47.21385" lon="6.71295">
        <ele>856</ele>
        <time>2018-07-01T09:52:41.000Z</time>
      </trkpt>
      <trkpt lat="47.21384" lon="6.71294">
        <ele>856</ele>
        <time>2018-07-01T09:52:42.000Z</time>
      </trkpt>
      <trkpt lat="47.21383" lon="6.71293">
        <ele>856</ele>
        <time>2018-07-01T09:52:43.000Z</time>
      </trkpt>
      <trkpt lat="47.21382" lon="6.71292">
        <ele>856</ele>
        <time>2018-07-01T09:52:44.000Z</time>
      </trkpt>
      <trkpt lat="47.21381" lon="6.71291">
        <ele>856</ele>
        <time>2018-07-01T09:52:45.000Z</time>
      </trkpt>
      <trkpt lat="47.2138" lon="6.7129">
        <ele>857</ele>
        <time>2018-07-01T09:52:46.000Z</time>
      </trkpt>
      <trkpt lat="47.21379" lon="6.71289">
        <ele>857</ele>
        <time>2018-07-01T09:52:47.000Z</time>
      </trkpt>
      <trkpt lat="47.21378" lon="6.71287">
        <ele>857</ele>
        <time>2018-07-01T09:52:48.000Z</time>
      </trkpt>
      <trkpt lat="47.21377" lon="6.71286">
        <ele>857</ele>
        <time>2018-07-01T09:52:49.000Z</time>
      </trkpt>
      <trkpt lat="47.21376" lon="6.71285">
        <ele>857</ele>
        <time>2018-07-01T09:52:50.000Z</time>
      </trkpt>
      <trkpt lat="47.21375" lon="6.71284">
        <ele>857</ele>
        <time>2018-07-01T09:52:51.000Z</time>
      </trkpt>
      <trkpt lat="47.21374" lon="6.71283">
        <ele>857</ele>
        <time>2018-07-01T09:52:52.000Z</time>
      </trkpt>
      <trkpt lat="47.21373" lon="6.71282">
        <ele>858</ele>
        <time>2018-07-01T09:52:53.000Z</time>
      </trkpt>
      <trkpt lat="47.21372" lon="6.7128">
        <ele>858</ele>
        <time>2018-07-01T09:52:54.000Z</time>
      </trkpt>
      <trkpt lat="47.21371" lon="6.71279">
        <ele>858</ele>
        <time>2018-07-01T09:52:55.000Z</time>
      </trkpt>
      <trkpt lat="47.21371" lon="6.71277">
        <ele>858</ele>
        <time>2018-07-01T09:52:56.000Z</time>
      </trkpt>
      <trkpt lat="47.21369" lon="6.71276">
        <ele>858</ele>
        <time>2018-07-01T09:52:57.000Z</time>
      </trkpt>
      <trkpt lat="47.21368" lon="6.71275">
        <ele>858</ele>
        <time>2018-07-01T09:52:58.000Z</time>
      </trkpt>
      <trkpt lat="47.21367" lon="6.71273">
        <ele>859</ele>
        <time>2018-07-01T09:52:59.000Z</time>
      </trkpt>
      <trkpt lat="47.21366" lon="6.71272">
        <ele>859</ele>
        <time>2018-07-01T09:53:00.000Z</time>
      </trkpt>
      <trkpt lat="47.21366" lon="6.71271">
        <ele>859</ele>
        <time>2018-07-01T09:53:01.000Z</time>
      </trkpt>
      <trkpt lat="47.21365" lon="6.7127">
        <ele>859</ele>
        <time>2018-07-01T09:53:02.000Z</time>
      </trkpt>
      <trkpt lat="47.21365" lon="6.71268">
        <ele>859</ele>
        <time>2018-07-01T09:53:03.000Z</time>
      </trkpt>
      <trkpt lat="47.21364" lon="6.71267">
        <ele>859</ele>
        <time>2018-07-01T09:53:04.000Z</time>
      </trkpt>
      <trkpt lat="47.21364" lon="6.71265">
        <ele>860</ele>
        <time>2018-07-01T09:53:05.000Z</time>
      </trkpt>
      <trkpt lat="47.21363" lon="6.71264">
        <ele>860</ele>
        <time>2018-07-01T09:53:06.000Z</time>
      </trkpt>
      <trkpt lat="47.21362" lon="6.71263">
        <ele>860</ele>
        <time>2018-07-01T09:53:07.000Z</time>
      </trkpt>
      <trkpt lat="47.21361" lon="6.71263">
        <ele>860</ele>
        <time>2018-07-01T09:53:08.000Z</time>
      </trkpt>
      <trkpt lat="47.2136" lon="6.71262">
        <ele>861</ele>
        <time>2018-07-01T09:53:09.000Z</time>
      </trkpt>
      <trkpt lat="47.21359" lon="6.71262">
        <ele>861</ele>
        <time>2018-07-01T09:53:10.000Z</time>
      </trkpt>
      <trkpt lat="47.21358" lon="6.71261">
        <ele>861</ele>
        <time>2018-07-01T09:53:11.000Z</time>
      </trkpt>
      <trkpt lat="47.21357" lon="6.7126">
        <ele>862</ele>
        <time>2018-07-01T09:53:12.000Z</time>
      </trkpt>
      <trkpt lat="47.21356" lon="6.71259">
        <ele>862</ele>
        <time>2018-07-01T09:53:13.000Z</time>
      </trkpt>
      <trkpt lat="47.21355" lon="6.71258">
        <ele>862</ele>
        <time>2018-07-01T09:53:14.000Z</time>
      </trkpt>
      <trkpt lat="47.21353" lon="6.71257">
        <ele>863</ele>
        <time>2018-07-01T09:53:15.000Z</time>
      </trkpt>
      <trkpt lat="47.21352" lon="6.71257">
        <ele>864</ele>
        <time>2018-07-01T09:53:16.000Z</time>
      </trkpt>
      <trkpt lat="47.21351" lon="6.71256">
        <ele>864</ele>
        <time>2018-07-01T09:53:17.000Z</time>
      </trkpt>
      <trkpt lat="47.21349" lon="6.71255">
        <ele>865</ele>
        <time>2018-07-01T09:53:18.000Z</time>
      </trkpt>
      <trkpt lat="47.21347" lon="6.71254">
        <ele>865</ele>
        <time>2018-07-01T09:53:19.000Z</time>
      </trkpt>
      <trkpt lat="47.21345" lon="6.71253">
        <ele>866</ele>
        <time>2018-07-01T09:53:20.000Z</time>
      </trkpt>
      <trkpt lat="47.21344" lon="6.71251">
        <ele>867</ele>
        <time>2018-07-01T09:53:21.000Z</time>
      </trkpt>
      <trkpt lat="47.21343" lon="6.7125">
        <ele>863</ele>
        <time>2018-07-01T09:53:22.000Z</time>
      </trkpt>
      <trkpt lat="47.21341" lon="6.71249">
        <ele>864</ele>
        <time>2018-07-01T09:53:23.000Z</time>
      </trkpt>
      <trkpt lat="47.2134" lon="6.71248">
        <ele>864</ele>
        <time>2018-07-01T09:53:24.000Z</time>
      </trkpt>
      <trkpt lat="47.2134" lon="6.71246">
        <ele>864</ele>
        <time>2018-07-01T09:53:25.000Z</time>
      </trkpt>
      <trkpt lat="47.21339" lon="6.71245">
        <ele>864</ele>
        <time>2018-07-01T09:53:26.000Z</time>
      </trkpt>
      <trkpt lat="47.21338" lon="6.71244">
        <ele>864</ele>
        <time>2018-07-01T09:53:27.000Z</time>
      </trkpt>
      <trkpt lat="47.21337" lon="6.71243">
        <ele>864</ele>
        <time>2018-07-01T09:53:28.000Z</time>
      </trkpt>
      <trkpt lat="47.21336" lon="6.71242">
        <ele>863</ele>
        <time>2018-07-01T09:53:29.000Z</time>
      </trkpt>
      <trkpt lat="47.21335" lon="6.71241">
        <ele>863</ele>
        <time>2018-07-01T09:53:30.000Z</time>
      </trkpt>
      <trkpt lat="47.21333" lon="6.71239">
        <ele>874</ele>
        <time>2018-07-01T09:53:31.000Z</time>
      </trkpt>
      <trkpt lat="47.21332" lon="6.71238">
        <ele>874</ele>
        <time>2018-07-01T09:53:32.000Z</time>
      </trkpt>
      <trkpt lat="47.21331" lon="6.71237">
        <ele>874</ele>
        <time>2018-07-01T09:53:33.000Z</time>
      </trkpt>
      <trkpt lat="47.2133" lon="6.71236">
        <ele>874</ele>
        <time>2018-07-01T09:53:34.000Z</time>
      </trkpt>
      <trkpt lat="47.21329" lon="6.71235">
        <ele>874</ele>
        <time>2018-07-01T09:53:35.000Z</time>
      </trkpt>
      <trkpt lat="47.21328" lon="6.71234">
        <ele>875</ele>
        <time>2018-07-01T09:53:36.000Z</time>
      </trkpt>
      <trkpt lat="47.21328" lon="6.71233">
        <ele>875</ele>
        <time>2018-07-01T09:53:37.000Z</time>
      </trkpt>
      <trkpt lat="47.21327" lon="6.71232">
        <ele>875</ele>
        <time>2018-07-01T09:53:38.000Z</time>
      </trkpt>
      <trkpt lat="47.21327" lon="6.71231">
        <ele>875</ele>
        <time>2018-07-01T09:53:39.000Z</time>
      </trkpt>
      <trkpt lat="47.21326" lon="6.7123">
        <ele>875</ele>
        <time>2018-07-01T09:53:40.000Z</time>
      </trkpt>
      <trkpt lat="47.21326" lon="6.71229">
        <ele>875</ele>
        <time>2018-07-01T09:53:41.000Z</time>
      </trkpt>
      <trkpt lat="47.21325" lon="6.71227">
        <ele>875</ele>
        <time>2018-07-01T09:53:42.000Z</time>
      </trkpt>
      <trkpt lat="47.21324" lon="6.71225">
        <ele>875</ele>
        <time>2018-07-01T09:53:43.000Z</time>
      </trkpt>
      <trkpt lat="47.21324" lon="6.71223">
        <ele>875</ele>
        <time>2018-07-01T09:53:44.000Z</time>
      </trkpt>
      <trkpt lat="47.21323" lon="6.71221">
        <ele>875</ele>
        <time>2018-07-01T09:53:45.000Z</time>
      </trkpt>
      <trkpt lat="47.21322" lon="6.71218">
        <ele>875</ele>
        <time>2018-07-01T09:53:46.000Z</time>
      </trkpt>
      <trkpt lat="47.21321" lon="6.71215">
        <ele>875</ele>
        <time>2018-07-01T09:53:47.000Z</time>
      </trkpt>
      <trkpt lat="47.2132" lon="6.71212">
        <ele>875</ele>
        <time>2018-07-01T09:53:48.000Z</time>
      </trkpt>
      <trkpt lat="47.21319" lon="6.71208">
        <ele>875</ele>
        <time>2018-07-01T09:53:49.000Z</time>
      </trkpt>
      <trkpt lat="47.21318" lon="6.71205">
        <ele>874</ele>
        <time>2018-07-01T09:53:50.000Z</time>
      </trkpt>
      <trkpt lat="47.21316" lon="6.71202">
        <ele>874</ele>
        <time>2018-07-01T09:53:51.000Z</time>
      </trkpt>
      <trkpt lat="47.21315" lon="6.71199">
        <ele>874</ele>
        <time>2018-07-01T09:53:52.000Z</time>
      </trkpt>
      <trkpt lat="47.21314" lon="6.71197">
        <ele>874</ele>
        <time>2018-07-01T09:53:53.000Z</time>
      </trkpt>
      <trkpt lat="47.21313" lon="6.71195">
        <ele>874</ele>
        <time>2018-07-01T09:53:54.000Z</time>
      </trkpt>
      <trkpt lat="47.21312" lon="6.71194">
        <ele>874</ele>
        <time>2018-07-01T09:53:55.000Z</time>
      </trkpt>
      <trkpt lat="47.21311" lon="6.71192">
        <ele>874</ele>
        <time>2018-07-01T09:53:56.000Z</time>
      </trkpt>
      <trkpt lat="47.21309" lon="6.71191">
        <ele>874</ele>
        <time>2018-07-01T09:53:57.000Z</time>
      </trkpt>
      <trkpt lat="47.21308" lon="6.71189">
        <ele>874</ele>
        <time>2018-07-01T09:53:58.000Z</time>
      </trkpt>
      <trkpt lat="47.21307" lon="6.71188">
        <ele>874</ele>
        <time>2018-07-01T09:53:59.000Z</time>
      </trkpt>
      <trkpt lat="47.21306" lon="6.71186">
        <ele>874</ele>
        <time>2018-07-01T09:54:00.000Z</time>
      </trkpt>
      <trkpt lat="47.21305" lon="6.71185">
        <ele>874</ele>
        <time>2018-07-01T09:54:01.000Z</time>
      </trkpt>
      <trkpt lat="47.21303" lon="6.71184">
        <ele>874</ele>
        <time>2018-07-01T09:54:02.000Z</time>
      </trkpt>
      <trkpt lat="47.21302" lon="6.71183">
        <ele>875</ele>
        <time>2018-07-01T09:54:03.000Z</time>
      </trkpt>
      <trkpt lat="47.21301" lon="6.71182">
        <ele>875</ele>
        <time>2018-07-01T09:54:04.000Z</time>
      </trkpt>
      <trkpt lat="47.21299" lon="6.71181">
        <ele>875</ele>
        <time>2018-07-01T09:54:05.000Z</time>
      </trkpt>
      <trkpt lat="47.21298" lon="6.7118">
        <ele>876</ele>
        <time>2018-07-01T09:54:06.000Z</time>
      </trkpt>
      <trkpt lat="47.21297" lon="6.71179">
        <ele>876</ele>
        <time>2018-07-01T09:54:07.000Z</time>
      </trkpt>
      <trkpt lat="47.21296" lon="6.71179">
        <ele>876</ele>
        <time>2018-07-01T09:54:08.000Z</time>
      </trkpt>
      <trkpt lat="47.21295" lon="6.71179">
        <ele>876</ele>
        <time>2018-07-01T09:54:09.000Z</time>
      </trkpt>
      <trkpt lat="47.21294" lon="6.71178">
        <ele>877</ele>
        <time>2018-07-01T09:54:10.000Z</time>
      </trkpt>
      <trkpt lat="47.21293" lon="6.71177">
        <ele>877</ele>
        <time>2018-07-01T09:54:11.000Z</time>
      </trkpt>
      <trkpt lat="47.21292" lon="6.71176">
        <ele>877</ele>
        <time>2018-07-01T09:54:12.000Z</time>
      </trkpt>
      <trkpt lat="47.21291" lon="6.71174">
        <ele>877</ele>
        <time>2018-07-01T09:54:13.000Z</time>
      </trkpt>
      <trkpt lat="47.21291" lon="6.71173">
        <ele>877</ele>
        <time>2018-07-01T09:54:14.000Z</time>
      </trkpt>
      <trkpt lat="47.2129" lon="6.71172">
        <ele>878</ele>
        <time>2018-07-01T09:54:15.000Z</time>
      </trkpt>
      <trkpt lat="47.21289" lon="6.71171">
        <ele>878</ele>
        <time>2018-07-01T09:54:16.000Z</time>
      </trkpt>
      <trkpt lat="47.21288" lon="6.7117">
        <ele>878</ele>
        <time>2018-07-01T09:54:17.000Z</time>
      </trkpt>
      <trkpt lat="47.21287" lon="6.71169">
        <ele>878</ele>
        <time>2018-07-01T09:54:18.000Z</time>
      </trkpt>
      <trkpt lat="47.21287" lon="6.71167">
        <ele>878</ele>
        <time>2018-07-01T09:54:19.000Z</time>
      </trkpt>
      <trkpt lat="47.21286" lon="6.71166">
        <ele>869</ele>
        <time>2018-07-01T09:54:20.000Z</time>
      </trkpt>
      <trkpt lat="47.21286" lon="6.71165">
        <ele>870</ele>
        <time>2018-07-01T09:54:21.000Z</time>
      </trkpt>
      <trkpt lat="47.21285" lon="6.71164">
        <ele>870</ele>
        <time>2018-07-01T09:54:22.000Z</time>
      </trkpt>
      <trkpt lat="47.21285" lon="6.71164">
        <ele>870</ele>
        <time>2018-07-01T09:54:23.000Z</time>
      </trkpt>
      <trkpt lat="47.21284" lon="6.71165">
        <ele>870</ele>
        <time>2018-07-01T09:54:24.000Z</time>
      </trkpt>
      <trkpt lat="47.21284" lon="6.71166">
        <ele>870</ele>
        <time>2018-07-01T09:54:25.000Z</time>
      </trkpt>
      <trkpt lat="47.21283" lon="6.71167">
        <ele>879</ele>
        <time>2018-07-01T09:54:26.000Z</time>
      </trkpt>
      <trkpt lat="47.21283" lon="6.71169">
        <ele>880</ele>
        <time>2018-07-01T09:54:27.000Z</time>
      </trkpt>
      <trkpt lat="47.21283" lon="6.7117">
        <ele>880</ele>
        <time>2018-07-01T09:54:28.000Z</time>
      </trkpt>
      <trkpt lat="47.21283" lon="6.71172">
        <ele>880</ele>
        <time>2018-07-01T09:54:29.000Z</time>
      </trkpt>
      <trkpt lat="47.21283" lon="6.71174">
        <ele>880</ele>
        <time>2018-07-01T09:54:30.000Z</time>
      </trkpt>
      <trkpt lat="47.21283" lon="6.71176">
        <ele>880</ele>
        <time>2018-07-01T09:54:31.000Z</time>
      </trkpt>
      <trkpt lat="47.21284" lon="6.71178">
        <ele>879</ele>
        <time>2018-07-01T09:54:32.000Z</time>
      </trkpt>
      <trkpt lat="47.21285" lon="6.71181">
        <ele>879</ele>
        <time>2018-07-01T09:54:33.000Z</time>
      </trkpt>
      <trkpt lat="47.21286" lon="6.71183">
        <ele>879</ele>
        <time>2018-07-01T09:54:34.000Z</time>
      </trkpt>
      <trkpt lat="47.21287" lon="6.71185">
        <ele>879</ele>
        <time>2018-07-01T09:54:35.000Z</time>
      </trkpt>
      <trkpt lat="47.21289" lon="6.71187">
        <ele>878</ele>
        <time>2018-07-01T09:54:36.000Z</time>
      </trkpt>
      <trkpt lat="47.2129" lon="6.71189">
        <ele>878</ele>
        <time>2018-07-01T09:54:37.000Z</time>
      </trkpt>
      <trkpt lat="47.21292" lon="6.71192">
        <ele>878</ele>
        <time>2018-07-01T09:54:38.000Z</time>
      </trkpt>
      <trkpt lat="47.21293" lon="6.71194">
        <ele>878</ele>
        <time>2018-07-01T09:54:39.000Z</time>
      </trkpt>
      <trkpt lat="47.21295" lon="6.71195">
        <ele>877</ele>
        <time>2018-07-01T09:54:40.000Z</time>
      </trkpt>
      <trkpt lat="47.21297" lon="6.71197">
        <ele>877</ele>
        <time>2018-07-01T09:54:41.000Z</time>
      </trkpt>
      <trkpt lat="47.21298" lon="6.71198">
        <ele>877</ele>
        <time>2018-07-01T09:54:42.000Z</time>
      </trkpt>
      <trkpt lat="47.213" lon="6.71199">
        <ele>877</ele>
        <time>2018-07-01T09:54:43.000Z</time>
      </trkpt>
      <trkpt lat="47.21301" lon="6.712">
        <ele>877</ele>
        <time>2018-07-01T09:54:44.000Z</time>
      </trkpt>
      <trkpt lat="47.21302" lon="6.71202">
        <ele>877</ele>
        <time>2018-07-01T09:54:45.000Z</time>
      </trkpt>
      <trkpt lat="47.21302" lon="6.71203">
        <ele>877</ele>
        <time>2018-07-01T09:54:46.000Z</time>
      </trkpt>
      <trkpt lat="47.21303" lon="6.71204">
        <ele>877</ele>
        <time>2018-07-01T09:54:47.000Z</time>
      </trkpt>
      <trkpt lat="47.21304" lon="6.71205">
        <ele>876</ele>
        <time>2018-07-01T09:54:48.000Z</time>
      </trkpt>
      <trkpt lat="47.21305" lon="6.71206">
        <ele>876</ele>
        <time>2018-07-01T09:54:49.000Z</time>
      </trkpt>
      <trkpt lat="47.21306" lon="6.71208">
        <ele>876</ele>
        <time>2018-07-01T09:54:50.000Z</time>
      </trkpt>
      <trkpt lat="47.21307" lon="6.7121">
        <ele>876</ele>
        <time>2018-07-01T09:54:51.000Z</time>
      </trkpt>
      <trkpt lat="47.21307" lon="6.71212">
        <ele>876</ele>
        <time>2018-07-01T09:54:52.000Z</time>
      </trkpt>
      <trkpt lat="47.21307" lon="6.71214">
        <ele>877</ele>
        <time>2018-07-01T09:54:53.000Z</time>
      </trkpt>
      <trkpt lat="47.21308" lon="6.71216">
        <ele>877</ele>
        <time>2018-07-01T09:54:54.000Z</time>
      </trkpt>
      <trkpt lat="47.21309" lon="6.71218">
        <ele>877</ele>
        <time>2018-07-01T09:54:55.000Z</time>
      </trkpt>
      <trkpt lat="47.21309" lon="6.71219">
        <ele>877</ele>
        <time>2018-07-01T09:54:56.000Z</time>
      </trkpt>
      <trkpt lat="47.2131" lon="6.71221">
        <ele>877</ele>
        <time>2018-07-01T09:54:57.000Z</time>
      </trkpt>
      <trkpt lat="47.2131" lon="6.71223">
        <ele>877</ele>
        <time>2018-07-01T09:54:58.000Z</time>
      </trkpt>
      <trkpt lat="47.2131" lon="6.71225">
        <ele>877</ele>
        <time>2018-07-01T09:54:59.000Z</time>
      </trkpt>
      <trkpt lat="47.2131" lon="6.71227">
        <ele>877</ele>
        <time>2018-07-01T09:55:00.000Z</time>
      </trkpt>
      <trkpt lat="47.2131" lon="6.71229">
        <ele>877</ele>
        <time>2018-07-01T09:55:01.000Z</time>
      </trkpt>
      <trkpt lat="47.2131" lon="6.71231">
        <ele>877</ele>
        <time>2018-07-01T09:55:02.000Z</time>
      </trkpt>
      <trkpt lat="47.21311" lon="6.71233">
        <ele>877</ele>
        <time>2018-07-01T09:55:03.000Z</time>
      </trkpt>
      <trkpt lat="47.21311" lon="6.71236">
        <ele>877</ele>
        <time>2018-07-01T09:55:04.000Z</time>
      </trkpt>
      <trkpt lat="47.21311" lon="6.71238">
        <ele>877</ele>
        <time>2018-07-01T09:55:05.000Z</time>
      </trkpt>
      <trkpt lat="47.21311" lon="6.71241">
        <ele>877</ele>
        <time>2018-07-01T09:55:06.000Z</time>
      </trkpt>
      <trkpt lat="47.21311" lon="6.71243">
        <ele>877</ele>
        <time>2018-07-01T09:55:07.000Z</time>
      </trkpt>
      <trkpt lat="47.2131" lon="6.71246">
        <ele>877</ele>
        <time>2018-07-01T09:55:08.000Z</time>
      </trkpt>
      <trkpt lat="47.2131" lon="6.71249">
        <ele>877</ele>
        <time>2018-07-01T09:55:09.000Z</time>
      </trkpt>
      <trkpt lat="47.21309" lon="6.71252">
        <ele>881</ele>
        <time>2018-07-01T09:55:10.000Z</time>
      </trkpt>
      <trkpt lat="47.21309" lon="6.71255">
        <ele>881</ele>
        <time>2018-07-01T09:55:11.000Z</time>
      </trkpt>
      <trkpt lat="47.21308" lon="6.71258">
        <ele>881</ele>
        <time>2018-07-01T09:55:12.000Z</time>
      </trkpt>
      <trkpt lat="47.21307" lon="6.7126">
        <ele>881</ele>
        <time>2018-07-01T09:55:13.000Z</time>
      </trkpt>
      <trkpt lat="47.21306" lon="6.71263">
        <ele>882</ele>
        <time>2018-07-01T09:55:14.000Z</time>
      </trkpt>
      <trkpt lat="47.21306" lon="6.71264">
        <ele>882</ele>
        <time>2018-07-01T09:55:15.000Z</time>
      </trkpt>
      <trkpt lat="47.21305" lon="6.71266">
        <ele>882</ele>
        <time>2018-07-01T09:55:16.000Z</time>
      </trkpt>
      <trkpt lat="47.21304" lon="6.71267">
        <ele>882</ele>
        <time>2018-07-01T09:55:17.000Z</time>
      </trkpt>
      <trkpt lat="47.21303" lon="6.71267">
        <ele>883</ele>
        <time>2018-07-01T09:55:18.000Z</time>
      </trkpt>
      <trkpt lat="47.21302" lon="6.71267">
        <ele>883</ele>
        <time>2018-07-01T09:55:19.000Z</time>
      </trkpt>
      <trkpt lat="47.21302" lon="6.71267">
        <ele>883</ele>
        <time>2018-07-01T09:55:20.000Z</time>
      </trkpt>
      <trkpt lat="47.21301" lon="6.71268">
        <ele>883</ele>
        <time>2018-07-01T09:55:21.000Z</time>
      </trkpt>
      <trkpt lat="47.213" lon="6.71267">
        <ele>883</ele>
        <time>2018-07-01T09:55:22.000Z</time>
      </trkpt>
      <trkpt lat="47.21299" lon="6.71267">
        <ele>883</ele>
        <time>2018-07-01T09:55:23.000Z</time>
      </trkpt>
      <trkpt lat="47.21299" lon="6.71267">
        <ele>883</ele>
        <time>2018-07-01T09:55:24.000Z</time>
      </trkpt>
      <trkpt lat="47.21298" lon="6.71267">
        <ele>883</ele>
        <time>2018-07-01T09:55:25.000Z</time>
      </trkpt>
      <trkpt lat="47.21297" lon="6.71267">
        <ele>884</ele>
        <time>2018-07-01T09:55:26.000Z</time>
      </trkpt>
      <trkpt lat="47.21297" lon="6.71267">
        <ele>884</ele>
        <time>2018-07-01T09:55:27.000Z</time>
      </trkpt>
      <trkpt lat="47.21296" lon="6.71266">
        <ele>884</ele>
        <time>2018-07-01T09:55:28.000Z</time>
      </trkpt>
      <trkpt lat="47.21295" lon="6.71266">
        <ele>884</ele>
        <time>2018-07-01T09:55:29.000Z</time>
      </trkpt>
      <trkpt lat="47.21295" lon="6.71265">
        <ele>884</ele>
        <time>2018-07-01T09:55:30.000Z</time>
      </trkpt>
      <trkpt lat="47.21294" lon="6.71264">
        <ele>884</ele>
        <time>2018-07-01T09:55:31.000Z</time>
      </trkpt>
      <trkpt lat="47.21294" lon="6.71263">
        <ele>884</ele>
        <time>2018-07-01T09:55:32.000Z</time>
      </trkpt>
      <trkpt lat="47.21293" lon="6.71262">
        <ele>884</ele>
        <time>2018-07-01T09:55:33.000Z</time>
      </trkpt>
      <trkpt lat="47.21293" lon="6.7126">
        <ele>884</ele>
        <time>2018-07-01T09:55:34.000Z</time>
      </trkpt>
      <trkpt lat="47.21292" lon="6.71259">
        <ele>884</ele>
        <time>2018-07-01T09:55:35.000Z</time>
      </trkpt>
      <trkpt lat="47.21291" lon="6.71258">
        <ele>884</ele>
        <time>2018-07-01T09:55:36.000Z</time>
      </trkpt>
      <trkpt lat="47.2129" lon="6.71256">
        <ele>885</ele>
        <time>2018-07-01T09:55:37.000Z</time>
      </trkpt>
      <trkpt lat="47.21289" lon="6.71256">
        <ele>885</ele>
        <time>2018-07-01T09:55:38.000Z</time>
      </trkpt>
      <trkpt lat="47.21288" lon="6.71255">
        <ele>885</ele>
        <time>2018-07-01T09:55:39.000Z</time>
      </trkpt>
      <trkpt lat="47.21287" lon="6.71254">
        <ele>885</ele>
        <time>2018-07-01T09:55:40.000Z</time>
      </trkpt>
      <trkpt lat="47.21285" lon="6.71254">
        <ele>886</ele>
        <time>2018-07-01T09:55:41.000Z</time>
      </trkpt>
      <trkpt lat="47.21284" lon="6.71253">
        <ele>886</ele>
        <time>2018-07-01T09:55:42.000Z</time>
      </trkpt>
      <trkpt lat="47.21283" lon="6.71253">
        <ele>886</ele>
        <time>2018-07-01T09:55:43.000Z</time>
      </trkpt>
      <trkpt lat="47.21282" lon="6.71252">
        <ele>886</ele>
        <time>2018-07-01T09:55:44.000Z</time>
      </trkpt>
      <trkpt lat="47.21281" lon="6.71252">
        <ele>886</ele>
        <time>2018-07-01T09:55:45.000Z</time>
      </trkpt>
      <trkpt lat="47.21279" lon="6.71251">
        <ele>887</ele>
        <time>2018-07-01T09:55:46.000Z</time>
      </trkpt>
      <trkpt lat="47.21278" lon="6.71251">
        <ele>887</ele>
        <time>2018-07-01T09:55:47.000Z</time>
      </trkpt>
      <trkpt lat="47.21277" lon="6.71251">
        <ele>887</ele>
        <time>2018-07-01T09:55:48.000Z</time>
      </trkpt>
      <trkpt lat="47.21275" lon="6.7125">
        <ele>888</ele>
        <time>2018-07-01T09:55:49.000Z</time>
      </trkpt>
      <trkpt lat="47.21275" lon="6.7125">
        <ele>888</ele>
        <time>2018-07-01T09:55:50.000Z</time>
      </trkpt>
      <trkpt lat="47.21274" lon="6.7125">
        <ele>885</ele>
        <time>2018-07-01T09:55:51.000Z</time>
      </trkpt>
      <trkpt lat="47.21274" lon="6.71249">
        <ele>885</ele>
        <time>2018-07-01T09:55:52.000Z</time>
      </trkpt>
      <trkpt lat="47.21273" lon="6.71249">
        <ele>885</ele>
        <time>2018-07-01T09:55:53.000Z</time>
      </trkpt>
      <trkpt lat="47.21272" lon="6.71248">
        <ele>886</ele>
        <time>2018-07-01T09:55:54.000Z</time>
      </trkpt>
      <trkpt lat="47.21271" lon="6.71247">
        <ele>886</ele>
        <time>2018-07-01T09:55:55.000Z</time>
      </trkpt>
      <trkpt lat="47.2127" lon="6.71247">
        <ele>886</ele>
        <time>2018-07-01T09:55:56.000Z</time>
      </trkpt>
      <trkpt lat="47.21269" lon="6.71246">
        <ele>886</ele>
        <time>2018-07-01T09:55:57.000Z</time>
      </trkpt>
      <trkpt lat="47.21268" lon="6.71245">
        <ele>886</ele>
        <time>2018-07-01T09:55:58.000Z</time>
      </trkpt>
      <trkpt lat="47.21267" lon="6.71245">
        <ele>887</ele>
        <time>2018-07-01T09:55:59.000Z</time>
      </trkpt>
      <trkpt lat="47.21267" lon="6.71245">
        <ele>887</ele>
        <time>2018-07-01T09:56:00.000Z</time>
      </trkpt>
      <trkpt lat="47.21266" lon="6.71245">
        <ele>887</ele>
        <time>2018-07-01T09:56:01.000Z</time>
      </trkpt>
      <trkpt lat="47.21265" lon="6.71245">
        <ele>887</ele>
        <time>2018-07-01T09:56:02.000Z</time>
      </trkpt>
      <trkpt lat="47.21265" lon="6.71245">
        <ele>888</ele>
        <time>2018-07-01T09:56:03.000Z</time>
      </trkpt>
      <trkpt lat="47.21264" lon="6.71246">
        <ele>888</ele>
        <time>2018-07-01T09:56:04.000Z</time>
      </trkpt>
      <trkpt lat="47.21263" lon="6.71246">
        <ele>888</ele>
        <time>2018-07-01T09:56:05.000Z</time>
      </trkpt>
      <trkpt lat="47.21262" lon="6.71247">
        <ele>889</ele>
        <time>2018-07-01T09:56:06.000Z</time>
      </trkpt>
      <trkpt lat="47.21262" lon="6.71247">
        <ele>889</ele>
        <time>2018-07-01T09:56:07.000Z</time>
      </trkpt>
      <trkpt lat="47.21261" lon="6.71248">
        <ele>889</ele>
        <time>2018-07-01T09:56:08.000Z</time>
      </trkpt>
      <trkpt lat="47.21259" lon="6.71248">
        <ele>890</ele>
        <time>2018-07-01T09:56:09.000Z</time>
      </trkpt>
      <trkpt lat="47.21258" lon="6.71249">
        <ele>891</ele>
        <time>2018-07-01T09:56:10.000Z</time>
      </trkpt>
      <trkpt lat="47.21257" lon="6.7125">
        <ele>891</ele>
        <time>2018-07-01T09:56:11.000Z</time>
      </trkpt>
      <trkpt lat="47.21256" lon="6.7125">
        <ele>893</ele>
        <time>2018-07-01T09:56:12.000Z</time>
      </trkpt>
      <trkpt lat="47.21255" lon="6.71252">
        <ele>893</ele>
        <time>2018-07-01T09:56:13.000Z</time>
      </trkpt>
      <trkpt lat="47.21254" lon="6.71253">
        <ele>893</ele>
        <time>2018-07-01T09:56:14.000Z</time>
      </trkpt>
      <trkpt lat="47.21253" lon="6.71255">
        <ele>893</ele>
        <time>2018-07-01T09:56:15.000Z</time>
      </trkpt>
      <trkpt lat="47.21252" lon="6.71257">
        <ele>892</ele>
        <time>2018-07-01T09:56:16.000Z</time>
      </trkpt>
      <trkpt lat="47.21251" lon="6.71259">
        <ele>892</ele>
        <time>2018-07-01T09:56:17.000Z</time>
      </trkpt>
      <trkpt lat="47.2125" lon="6.7126">
        <ele>895</ele>
        <time>2018-07-01T09:56:18.000Z</time>
      </trkpt>
      <trkpt lat="47.21249" lon="6.71261">
        <ele>895</ele>
        <time>2018-07-01T09:56:19.000Z</time>
      </trkpt>
      <trkpt lat="47.21248" lon="6.71262">
        <ele>895</ele>
        <time>2018-07-01T09:56:20.000Z</time>
      </trkpt>
      <trkpt lat="47.21246" lon="6.71264">
        <ele>895</ele>
        <time>2018-07-01T09:56:21.000Z</time>
      </trkpt>
      <trkpt lat="47.21245" lon="6.71265">
        <ele>895</ele>
        <time>2018-07-01T09:56:22.000Z</time>
      </trkpt>
      <trkpt lat="47.21243" lon="6.71266">
        <ele>896</ele>
        <time>2018-07-01T09:56:23.000Z</time>
      </trkpt>
      <trkpt lat="47.21242" lon="6.71266">
        <ele>896</ele>
        <time>2018-07-01T09:56:24.000Z</time>
      </trkpt>
      <trkpt lat="47.2124" lon="6.71267">
        <ele>896</ele>
        <time>2018-07-01T09:56:25.000Z</time>
      </trkpt>
      <trkpt lat="47.21239" lon="6.71267">
        <ele>896</ele>
        <time>2018-07-01T09:56:26.000Z</time>
      </trkpt>
      <trkpt lat="47.21237" lon="6.71268">
        <ele>896</ele>
        <time>2018-07-01T09:56:27.000Z</time>
      </trkpt>
      <trkpt lat="47.21235" lon="6.71268">
        <ele>896</ele>
        <time>2018-07-01T09:56:28.000Z</time>
      </trkpt>
      <trkpt lat="47.21234" lon="6.71268">
        <ele>896</ele>
        <time>2018-07-01T09:56:29.000Z</time>
      </trkpt>
      <trkpt lat="47.21232" lon="6.71269">
        <ele>896</ele>
        <time>2018-07-01T09:56:30.000Z</time>
      </trkpt>
      <trkpt lat="47.2123" lon="6.71269">
        <ele>896</ele>
        <time>2018-07-01T09:56:31.000Z</time>
      </trkpt>
      <trkpt lat="47.21228" lon="6.71269">
        <ele>896</ele>
        <time>2018-07-01T09:56:32.000Z</time>
      </trkpt>
      <trkpt lat="47.21226" lon="6.71269">
        <ele>896</ele>
        <time>2018-07-01T09:56:33.000Z</time>
      </trkpt>
      <trkpt lat="47.21224" lon="6.71269">
        <ele>896</ele>
        <time>2018-07-01T09:56:34.000Z</time>
      </trkpt>
      <trkpt lat="47.21221" lon="6.7127">
        <ele>896</ele>
        <time>2018-07-01T09:56:35.000Z</time>
      </trkpt>
      <trkpt lat="47.21219" lon="6.7127">
        <ele>896</ele>
        <time>2018-07-01T09:56:36.000Z</time>
      </trkpt>
      <trkpt lat="47.21217" lon="6.7127">
        <ele>897</ele>
        <time>2018-07-01T09:56:37.000Z</time>
      </trkpt>
      <trkpt lat="47.21214" lon="6.71271">
        <ele>897</ele>
        <time>2018-07-01T09:56:38.000Z</time>
      </trkpt>
      <trkpt lat="47.21212" lon="6.71271">
        <ele>897</ele>
        <time>2018-07-01T09:56:39.000Z</time>
      </trkpt>
      <trkpt lat="47.2121" lon="6.71271">
        <ele>897</ele>
        <time>2018-07-01T09:56:40.000Z</time>
      </trkpt>
      <trkpt lat="47.21208" lon="6.71272">
        <ele>897</ele>
        <time>2018-07-01T09:56:41.000Z</time>
      </trkpt>
      <trkpt lat="47.21206" lon="6.71272">
        <ele>897</ele>
        <time>2018-07-01T09:56:42.000Z</time>
      </trkpt>
      <trkpt lat="47.21203" lon="6.71273">
        <ele>897</ele>
        <time>2018-07-01T09:56:43.000Z</time>
      </trkpt>
      <trkpt lat="47.21201" lon="6.71273">
        <ele>898</ele>
        <time>2018-07-01T09:56:44.000Z</time>
      </trkpt>
      <trkpt lat="47.21199" lon="6.71274">
        <ele>898</ele>
        <time>2018-07-01T09:56:45.000Z</time>
      </trkpt>
      <trkpt lat="47.21197" lon="6.71274">
        <ele>898</ele>
        <time>2018-07-01T09:56:46.000Z</time>
      </trkpt>
      <trkpt lat="47.21194" lon="6.71274">
        <ele>898</ele>
        <time>2018-07-01T09:56:47.000Z</time>
      </trkpt>
      <trkpt lat="47.21192" lon="6.71275">
        <ele>898</ele>
        <time>2018-07-01T09:56:48.000Z</time>
      </trkpt>
      <trkpt lat="47.21189" lon="6.71275">
        <ele>898</ele>
        <time>2018-07-01T09:56:49.000Z</time>
      </trkpt>
      <trkpt lat="47.21187" lon="6.71275">
        <ele>899</ele>
        <time>2018-07-01T09:56:50.000Z</time>
      </trkpt>
      <trkpt lat="47.21184" lon="6.71275">
        <ele>899</ele>
        <time>2018-07-01T09:56:51.000Z</time>
      </trkpt>
      <trkpt lat="47.21182" lon="6.71275">
        <ele>899</ele>
        <time>2018-07-01T09:56:52.000Z</time>
      </trkpt>
      <trkpt lat="47.21179" lon="6.71275">
        <ele>899</ele>
        <time>2018-07-01T09:56:53.000Z</time>
      </trkpt>
      <trkpt lat="47.21177" lon="6.71275">
        <ele>899</ele>
        <time>2018-07-01T09:56:54.000Z</time>
      </trkpt>
      <trkpt lat="47.21174" lon="6.71276">
        <ele>899</ele>
        <time>2018-07-01T09:56:55.000Z</time>
      </trkpt>
      <trkpt lat="47.21172" lon="6.71276">
        <ele>899</ele>
        <time>2018-07-01T09:56:56.000Z</time>
      </trkpt>
      <trkpt lat="47.21169" lon="6.71275">
        <ele>899</ele>
        <time>2018-07-01T09:56:57.000Z</time>
      </trkpt>
      <trkpt lat="47.21166" lon="6.71275">
        <ele>903</ele>
        <time>2018-07-01T09:56:58.000Z</time>
      </trkpt>
      <trkpt lat="47.21163" lon="6.71275">
        <ele>903</ele>
        <time>2018-07-01T09:56:59.000Z</time>
      </trkpt>
      <trkpt lat="47.2116" lon="6.71275">
        <ele>903</ele>
        <time>2018-07-01T09:57:00.000Z</time>
      </trkpt>
      <trkpt lat="47.21158" lon="6.71275">
        <ele>903</ele>
        <time>2018-07-01T09:57:01.000Z</time>
      </trkpt>
      <trkpt lat="47.21155" lon="6.71275">
        <ele>903</ele>
        <time>2018-07-01T09:57:02.000Z</time>
      </trkpt>
      <trkpt lat="47.21152" lon="6.71275">
        <ele>903</ele>
        <time>2018-07-01T09:57:03.000Z</time>
      </trkpt>
      <trkpt lat="47.21149" lon="6.71275">
        <ele>903</ele>
        <time>2018-07-01T09:57:04.000Z</time>
      </trkpt>
      <trkpt lat="47.21146" lon="6.71275">
        <ele>903</ele>
        <time>2018-07-01T09:57:05.000Z</time>
      </trkpt>
      <trkpt lat="47.21144" lon="6.71274">
        <ele>903</ele>
        <time>2018-07-01T09:57:06.000Z</time>
      </trkpt>
      <trkpt lat="47.21141" lon="6.71274">
        <ele>903</ele>
        <time>2018-07-01T09:57:07.000Z</time>
      </trkpt>
      <trkpt lat="47.21138" lon="6.71274">
        <ele>903</ele>
        <time>2018-07-01T09:57:08.000Z</time>
      </trkpt>
      <trkpt lat="47.21136" lon="6.71274">
        <ele>903</ele>
        <time>2018-07-01T09:57:09.000Z</time>
      </trkpt>
      <trkpt lat="47.21133" lon="6.71275">
        <ele>903</ele>
        <time>2018-07-01T09:57:10.000Z</time>
      </trkpt>
      <trkpt lat="47.2113" lon="6.71275">
        <ele>903</ele>
        <time>2018-07-01T09:57:11.000Z</time>
      </trkpt>
      <trkpt lat="47.21127" lon="6.71275">
        <ele>903</ele>
        <time>2018-07-01T09:57:12.000Z</time>
      </trkpt>
      <trkpt lat="47.21125" lon="6.71275">
        <ele>903</ele>
        <time>2018-07-01T09:57:13.000Z</time>
      </trkpt>
      <trkpt lat="47.21122" lon="6.71275">
        <ele>903</ele>
        <time>2018-07-01T09:57:14.000Z</time>
      </trkpt>
      <trkpt lat="47.2112" lon="6.71275">
        <ele>903</ele>
        <time>2018-07-01T09:57:15.000Z</time>
      </trkpt>
      <trkpt lat="47.21117" lon="6.71275">
        <ele>903</ele>
        <time>2018-07-01T09:57:16.000Z</time>
      </trkpt>
      <trkpt lat="47.21114" lon="6.71275">
        <ele>903</ele>
        <time>2018-07-01T09:57:17.000Z</time>
      </trkpt>
      <trkpt lat="47.21112" lon="6.71275">
        <ele>903</ele>
        <time>2018-07-01T09:57:18.000Z</time>
      </trkpt>
      <trkpt lat="47.21109" lon="6.71276">
        <ele>903</ele>
        <time>2018-07-01T09:57:19.000Z</time>
      </trkpt>
      <trkpt lat="47.21106" lon="6.71276">
        <ele>903</ele>
        <time>2018-07-01T09:57:20.000Z</time>
      </trkpt>
      <trkpt lat="47.21104" lon="6.71276">
        <ele>903</ele>
        <time>2018-07-01T09:57:21.000Z</time>
      </trkpt>
      <trkpt lat="47.21101" lon="6.71276">
        <ele>903</ele>
        <time>2018-07-01T09:57:22.000Z</time>
      </trkpt>
      <trkpt lat="47.21098" lon="6.71277">
        <ele>903</ele>
        <time>2018-07-01T09:57:23.000Z</time>
      </trkpt>
      <trkpt lat="47.21095" lon="6.71277">
        <ele>903</ele>
        <time>2018-07-01T09:57:24.000Z</time>
      </trkpt>
      <trkpt lat="47.21093" lon="6.71277">
        <ele>903</ele>
        <time>2018-07-01T09:57:25.000Z</time>
      </trkpt>
      <trkpt lat="47.2109" lon="6.71277">
        <ele>903</ele>
        <time>2018-07-01T09:57:26.000Z</time>
      </trkpt>
      <trkpt lat="47.21087" lon="6.71278">
        <ele>903</ele>
        <time>2018-07-01T09:57:27.000Z</time>
      </trkpt>
      <trkpt lat="47.21085" lon="6.71278">
        <ele>903</ele>
        <time>2018-07-01T09:57:28.000Z</time>
      </trkpt>
      <trkpt lat="47.21082" lon="6.71279">
        <ele>905</ele>
        <time>2018-07-01T09:57:29.000Z</time>
      </trkpt>
      <trkpt lat="47.2108" lon="6.71279">
        <ele>905</ele>
        <time>2018-07-01T09:57:30.000Z</time>
      </trkpt>
      <trkpt lat="47.21077" lon="6.7128">
        <ele>905</ele>
        <time>2018-07-01T09:57:31.000Z</time>
      </trkpt>
      <trkpt lat="47.21075" lon="6.7128">
        <ele>905</ele>
        <time>2018-07-01T09:57:32.000Z</time>
      </trkpt>
      <trkpt lat="47.21072" lon="6.71281">
        <ele>905</ele>
        <time>2018-07-01T09:57:33.000Z</time>
      </trkpt>
      <trkpt lat="47.2107" lon="6.71281">
        <ele>905</ele>
        <time>2018-07-01T09:57:34.000Z</time>
      </trkpt>
      <trkpt lat="47.21067" lon="6.71282">
        <ele>906</ele>
        <time>2018-07-01T09:57:35.000Z</time>
      </trkpt>
      <trkpt lat="47.21064" lon="6.71282">
        <ele>906</ele>
        <time>2018-07-01T09:57:36.000Z</time>
      </trkpt>
      <trkpt lat="47.21061" lon="6.71283">
        <ele>906</ele>
        <time>2018-07-01T09:57:37.000Z</time>
      </trkpt>
      <trkpt lat="47.21059" lon="6.71284">
        <ele>906</ele>
        <time>2018-07-01T09:57:38.000Z</time>
      </trkpt>
      <trkpt lat="47.21056" lon="6.71284">
        <ele>906</ele>
        <time>2018-07-01T09:57:39.000Z</time>
      </trkpt>
      <trkpt lat="47.21053" lon="6.71285">
        <ele>906</ele>
        <time>2018-07-01T09:57:40.000Z</time>
      </trkpt>
      <trkpt lat="47.21051" lon="6.71285">
        <ele>906</ele>
        <time>2018-07-01T09:57:41.000Z</time>
      </trkpt>
      <trkpt lat="47.21048" lon="6.71285">
        <ele>906</ele>
        <time>2018-07-01T09:57:42.000Z</time>
      </trkpt>
      <trkpt lat="47.21045" lon="6.71286">
        <ele>906</ele>
        <time>2018-07-01T09:57:43.000Z</time>
      </trkpt>
      <trkpt lat="47.21043" lon="6.71287">
        <ele>906</ele>
        <time>2018-07-01T09:57:44.000Z</time>
      </trkpt>
      <trkpt lat="47.2104" lon="6.71287">
        <ele>906</ele>
        <time>2018-07-01T09:57:45.000Z</time>
      </trkpt>
      <trkpt lat="47.21038" lon="6.71287">
        <ele>906</ele>
        <time>2018-07-01T09:57:46.000Z</time>
      </trkpt>
      <trkpt lat="47.21035" lon="6.71288">
        <ele>906</ele>
        <time>2018-07-01T09:57:47.000Z</time>
      </trkpt>
      <trkpt lat="47.21033" lon="6.71289">
        <ele>906</ele>
        <time>2018-07-01T09:57:48.000Z</time>
      </trkpt>
      <trkpt lat="47.2103" lon="6.71289">
        <ele>906</ele>
        <time>2018-07-01T09:57:49.000Z</time>
      </trkpt>
      <trkpt lat="47.21028" lon="6.7129">
        <ele>906</ele>
        <time>2018-07-01T09:57:50.000Z</time>
      </trkpt>
      <trkpt lat="47.21026" lon="6.71291">
        <ele>906</ele>
        <time>2018-07-01T09:57:51.000Z</time>
      </trkpt>
      <trkpt lat="47.21023" lon="6.71291">
        <ele>907</ele>
        <time>2018-07-01T09:57:52.000Z</time>
      </trkpt>
      <trkpt lat="47.21021" lon="6.71292">
        <ele>907</ele>
        <time>2018-07-01T09:57:53.000Z</time>
      </trkpt>
      <trkpt lat="47.21019" lon="6.71293">
        <ele>907</ele>
        <time>2018-07-01T09:57:54.000Z</time>
      </trkpt>
      <trkpt lat="47.21016" lon="6.71294">
        <ele>907</ele>
        <time>2018-07-01T09:57:55.000Z</time>
      </trkpt>
      <trkpt lat="47.21014" lon="6.71295">
        <ele>907</ele>
        <time>2018-07-01T09:57:56.000Z</time>
      </trkpt>
      <trkpt lat="47.21012" lon="6.71298">
        <ele>907</ele>
        <time>2018-07-01T09:57:57.000Z</time>
      </trkpt>
      <trkpt lat="47.2101" lon="6.71301">
        <ele>907</ele>
        <time>2018-07-01T09:57:58.000Z</time>
      </trkpt>
      <trkpt lat="47.21007" lon="6.71303">
        <ele>906</ele>
        <time>2018-07-01T09:57:59.000Z</time>
      </trkpt>
      <trkpt lat="47.21005" lon="6.71306">
        <ele>906</ele>
        <time>2018-07-01T09:58:00.000Z</time>
      </trkpt>
      <trkpt lat="47.21002" lon="6.71308">
        <ele>906</ele>
        <time>2018-07-01T09:58:01.000Z</time>
      </trkpt>
      <trkpt lat="47.21" lon="6.71311">
        <ele>910</ele>
        <time>2018-07-01T09:58:02.000Z</time>
      </trkpt>
      <trkpt lat="47.20997" lon="6.71312">
        <ele>910</ele>
        <time>2018-07-01T09:58:03.000Z</time>
      </trkpt>
      <trkpt lat="47.20994" lon="6.71313">
        <ele>910</ele>
        <time>2018-07-01T09:58:04.000Z</time>
      </trkpt>
      <trkpt lat="47.20992" lon="6.71314">
        <ele>910</ele>
        <time>2018-07-01T09:58:05.000Z</time>
      </trkpt>
      <trkpt lat="47.2099" lon="6.71314">
        <ele>911</ele>
        <time>2018-07-01T09:58:06.000Z</time>
      </trkpt>
      <trkpt lat="47.20988" lon="6.71314">
        <ele>911</ele>
        <time>2018-07-01T09:58:07.000Z</time>
      </trkpt>
      <trkpt lat="47.20986" lon="6.71313">
        <ele>911</ele>
        <time>2018-07-01T09:58:08.000Z</time>
      </trkpt>
      <trkpt lat="47.20984" lon="6.71312">
        <ele>911</ele>
        <time>2018-07-01T09:58:09.000Z</time>
      </trkpt>
      <trkpt lat="47.20983" lon="6.7131">
        <ele>911</ele>
        <time>2018-07-01T09:58:10.000Z</time>
      </trkpt>
      <trkpt lat="47.20982" lon="6.71309">
        <ele>912</ele>
        <time>2018-07-01T09:58:11.000Z</time>
      </trkpt>
      <trkpt lat="47.2098" lon="6.71307">
        <ele>912</ele>
        <time>2018-07-01T09:58:12.000Z</time>
      </trkpt>
      <trkpt lat="47.20978" lon="6.71305">
        <ele>912</ele>
        <time>2018-07-01T09:58:13.000Z</time>
      </trkpt>
      <trkpt lat="47.20977" lon="6.71303">
        <ele>912</ele>
        <time>2018-07-01T09:58:14.000Z</time>
      </trkpt>
      <trkpt lat="47.20975" lon="6.713">
        <ele>913</ele>
        <time>2018-07-01T09:58:15.000Z</time>
      </trkpt>
      <trkpt lat="47.20974" lon="6.71297">
        <ele>913</ele>
        <time>2018-07-01T09:58:16.000Z</time>
      </trkpt>
      <trkpt lat="47.20973" lon="6.71295">
        <ele>913</ele>
        <time>2018-07-01T09:58:17.000Z</time>
      </trkpt>
      <trkpt lat="47.20972" lon="6.71292">
        <ele>913</ele>
        <time>2018-07-01T09:58:18.000Z</time>
      </trkpt>
      <trkpt lat="47.20971" lon="6.71289">
        <ele>913</ele>
        <time>2018-07-01T09:58:19.000Z</time>
      </trkpt>
      <trkpt lat="47.2097" lon="6.71286">
        <ele>913</ele>
        <time>2018-07-01T09:58:20.000Z</time>
      </trkpt>
      <trkpt lat="47.2097" lon="6.71284">
        <ele>913</ele>
        <time>2018-07-01T09:58:21.000Z</time>
      </trkpt>
      <trkpt lat="47.20969" lon="6.71281">
        <ele>913</ele>
        <time>2018-07-01T09:58:22.000Z</time>
      </trkpt>
      <trkpt lat="47.20969" lon="6.71278">
        <ele>913</ele>
        <time>2018-07-01T09:58:23.000Z</time>
      </trkpt>
      <trkpt lat="47.20969" lon="6.71275">
        <ele>913</ele>
        <time>2018-07-01T09:58:24.000Z</time>
      </trkpt>
      <trkpt lat="47.20968" lon="6.71273">
        <ele>913</ele>
        <time>2018-07-01T09:58:25.000Z</time>
      </trkpt>
      <trkpt lat="47.20967" lon="6.71271">
        <ele>913</ele>
        <time>2018-07-01T09:58:26.000Z</time>
      </trkpt>
      <trkpt lat="47.20967" lon="6.71269">
        <ele>913</ele>
        <time>2018-07-01T09:58:27.000Z</time>
      </trkpt>
      <trkpt lat="47.20966" lon="6.71267">
        <ele>913</ele>
        <time>2018-07-01T09:58:28.000Z</time>
      </trkpt>
      <trkpt lat="47.20965" lon="6.71264">
        <ele>913</ele>
        <time>2018-07-01T09:58:29.000Z</time>
      </trkpt>
      <trkpt lat="47.20964" lon="6.71262">
        <ele>913</ele>
        <time>2018-07-01T09:58:30.000Z</time>
      </trkpt>
      <trkpt lat="47.20964" lon="6.7126">
        <ele>914</ele>
        <time>2018-07-01T09:58:31.000Z</time>
      </trkpt>
      <trkpt lat="47.20963" lon="6.71258">
        <ele>914</ele>
        <time>2018-07-01T09:58:32.000Z</time>
      </trkpt>
      <trkpt lat="47.20962" lon="6.71256">
        <ele>914</ele>
        <time>2018-07-01T09:58:33.000Z</time>
      </trkpt>
      <trkpt lat="47.20961" lon="6.71255">
        <ele>914</ele>
        <time>2018-07-01T09:58:34.000Z</time>
      </trkpt>
      <trkpt lat="47.20959" lon="6.71253">
        <ele>914</ele>
        <time>2018-07-01T09:58:35.000Z</time>
      </trkpt>
      <trkpt lat="47.20958" lon="6.71252">
        <ele>914</ele>
        <time>2018-07-01T09:58:36.000Z</time>
      </trkpt>
      <trkpt lat="47.20956" lon="6.7125">
        <ele>914</ele>
        <time>2018-07-01T09:58:37.000Z</time>
      </trkpt>
      <trkpt lat="47.20954" lon="6.71249">
        <ele>915</ele>
        <time>2018-07-01T09:58:38.000Z</time>
      </trkpt>
      <trkpt lat="47.20952" lon="6.71249">
        <ele>915</ele>
        <time>2018-07-01T09:58:39.000Z</time>
      </trkpt>
      <trkpt lat="47.2095" lon="6.71248">
        <ele>915</ele>
        <time>2018-07-01T09:58:40.000Z</time>
      </trkpt>
      <trkpt lat="47.20948" lon="6.71247">
        <ele>915</ele>
        <time>2018-07-01T09:58:41.000Z</time>
      </trkpt>
      <trkpt lat="47.20946" lon="6.71247">
        <ele>915</ele>
        <time>2018-07-01T09:58:42.000Z</time>
      </trkpt>
      <trkpt lat="47.20944" lon="6.71246">
        <ele>915</ele>
        <time>2018-07-01T09:58:43.000Z</time>
      </trkpt>
      <trkpt lat="47.20942" lon="6.71245">
        <ele>915</ele>
        <time>2018-07-01T09:58:44.000Z</time>
      </trkpt>
      <trkpt lat="47.20939" lon="6.71245">
        <ele>915</ele>
        <time>2018-07-01T09:58:45.000Z</time>
      </trkpt>
      <trkpt lat="47.20937" lon="6.71244">
        <ele>915</ele>
        <time>2018-07-01T09:58:46.000Z</time>
      </trkpt>
      <trkpt lat="47.20935" lon="6.71244">
        <ele>916</ele>
        <time>2018-07-01T09:58:47.000Z</time>
      </trkpt>
      <trkpt lat="47.20933" lon="6.71243">
        <ele>916</ele>
        <time>2018-07-01T09:58:48.000Z</time>
      </trkpt>
      <trkpt lat="47.20931" lon="6.71242">
        <ele>916</ele>
        <time>2018-07-01T09:58:49.000Z</time>
      </trkpt>
      <trkpt lat="47.2093" lon="6.7124">
        <ele>916</ele>
        <time>2018-07-01T09:58:50.000Z</time>
      </trkpt>
      <trkpt lat="47.20928" lon="6.71238">
        <ele>916</ele>
        <time>2018-07-01T09:58:51.000Z</time>
      </trkpt>
      <trkpt lat="47.20926" lon="6.71236">
        <ele>916</ele>
        <time>2018-07-01T09:58:52.000Z</time>
      </trkpt>
      <trkpt lat="47.20924" lon="6.71233">
        <ele>916</ele>
        <time>2018-07-01T09:58:53.000Z</time>
      </trkpt>
      <trkpt lat="47.20923" lon="6.71231">
        <ele>916</ele>
        <time>2018-07-01T09:58:54.000Z</time>
      </trkpt>
      <trkpt lat="47.20921" lon="6.71228">
        <ele>916</ele>
        <time>2018-07-01T09:58:55.000Z</time>
      </trkpt>
      <trkpt lat="47.20919" lon="6.71225">
        <ele>916</ele>
        <time>2018-07-01T09:58:56.000Z</time>
      </trkpt>
      <trkpt lat="47.20918" lon="6.71222">
        <ele>916</ele>
        <time>2018-07-01T09:58:57.000Z</time>
      </trkpt>
      <trkpt lat="47.20916" lon="6.71219">
        <ele>923</ele>
        <time>2018-07-01T09:58:58.000Z</time>
      </trkpt>
      <trkpt lat="47.20915" lon="6.71216">
        <ele>924</ele>
        <time>2018-07-01T09:58:59.000Z</time>
      </trkpt>
      <trkpt lat="47.20913" lon="6.71213">
        <ele>924</ele>
        <time>2018-07-01T09:59:00.000Z</time>
      </trkpt>
      <trkpt lat="47.20912" lon="6.7121">
        <ele>924</ele>
        <time>2018-07-01T09:59:01.000Z</time>
      </trkpt>
      <trkpt lat="47.20911" lon="6.71206">
        <ele>924</ele>
        <time>2018-07-01T09:59:02.000Z</time>
      </trkpt>
      <trkpt lat="47.2091" lon="6.71203">
        <ele>924</ele>
        <time>2018-07-01T09:59:03.000Z</time>
      </trkpt>
      <trkpt lat="47.20908" lon="6.712">
        <ele>924</ele>
        <time>2018-07-01T09:59:04.000Z</time>
      </trkpt>
      <trkpt lat="47.20907" lon="6.71197">
        <ele>924</ele>
        <time>2018-07-01T09:59:05.000Z</time>
      </trkpt>
      <trkpt lat="47.20905" lon="6.71194">
        <ele>923</ele>
        <time>2018-07-01T09:59:06.000Z</time>
      </trkpt>
      <trkpt lat="47.20904" lon="6.71191">
        <ele>923</ele>
        <time>2018-07-01T09:59:07.000Z</time>
      </trkpt>
      <trkpt lat="47.20902" lon="6.71188">
        <ele>923</ele>
        <time>2018-07-01T09:59:08.000Z</time>
      </trkpt>
      <trkpt lat="47.209" lon="6.71184">
        <ele>923</ele>
        <time>2018-07-01T09:59:09.000Z</time>
      </trkpt>
      <trkpt lat="47.20899" lon="6.71181">
        <ele>923</ele>
        <time>2018-07-01T09:59:10.000Z</time>
      </trkpt>
      <trkpt lat="47.20897" lon="6.71177">
        <ele>923</ele>
        <time>2018-07-01T09:59:11.000Z</time>
      </trkpt>
      <trkpt lat="47.20896" lon="6.71174">
        <ele>923</ele>
        <time>2018-07-01T09:59:12.000Z</time>
      </trkpt>
      <trkpt lat="47.20894" lon="6.71171">
        <ele>923</ele>
        <time>2018-07-01T09:59:13.000Z</time>
      </trkpt>
      <trkpt lat="47.20892" lon="6.71168">
        <ele>923</ele>
        <time>2018-07-01T09:59:14.000Z</time>
      </trkpt>
      <trkpt lat="47.2089" lon="6.71164">
        <ele>921</ele>
        <time>2018-07-01T09:59:15.000Z</time>
      </trkpt>
      <trkpt lat="47.20889" lon="6.71162">
        <ele>921</ele>
        <time>2018-07-01T09:59:16.000Z</time>
      </trkpt>
      <trkpt lat="47.20887" lon="6.71159">
        <ele>921</ele>
        <time>2018-07-01T09:59:17.000Z</time>
      </trkpt>
      <trkpt lat="47.20885" lon="6.71156">
        <ele>921</ele>
        <time>2018-07-01T09:59:18.000Z</time>
      </trkpt>
      <trkpt lat="47.20883" lon="6.71153">
        <ele>922</ele>
        <time>2018-07-01T09:59:19.000Z</time>
      </trkpt>
      <trkpt lat="47.20881" lon="6.7115">
        <ele>922</ele>
        <time>2018-07-01T09:59:20.000Z</time>
      </trkpt>
      <trkpt lat="47.20879" lon="6.71147">
        <ele>922</ele>
        <time>2018-07-01T09:59:21.000Z</time>
      </trkpt>
      <trkpt lat="47.20877" lon="6.71144">
        <ele>922</ele>
        <time>2018-07-01T09:59:22.000Z</time>
      </trkpt>
      <trkpt lat="47.20875" lon="6.71141">
        <ele>922</ele>
        <time>2018-07-01T09:59:23.000Z</time>
      </trkpt>
      <trkpt lat="47.20873" lon="6.71138">
        <ele>922</ele>
        <time>2018-07-01T09:59:24.000Z</time>
      </trkpt>
      <trkpt lat="47.20871" lon="6.71134">
        <ele>922</ele>
        <time>2018-07-01T09:59:25.000Z</time>
      </trkpt>
      <trkpt lat="47.20869" lon="6.71131">
        <ele>922</ele>
        <time>2018-07-01T09:59:26.000Z</time>
      </trkpt>
      <trkpt lat="47.20867" lon="6.71127">
        <ele>922</ele>
        <time>2018-07-01T09:59:27.000Z</time>
      </trkpt>
      <trkpt lat="47.20865" lon="6.71124">
        <ele>922</ele>
        <time>2018-07-01T09:59:28.000Z</time>
      </trkpt>
      <trkpt lat="47.20863" lon="6.7112">
        <ele>922</ele>
        <time>2018-07-01T09:59:29.000Z</time>
      </trkpt>
      <trkpt lat="47.20861" lon="6.71117">
        <ele>922</ele>
        <time>2018-07-01T09:59:30.000Z</time>
      </trkpt>
      <trkpt lat="47.20859" lon="6.71114">
        <ele>922</ele>
        <time>2018-07-01T09:59:31.000Z</time>
      </trkpt>
      <trkpt lat="47.20858" lon="6.71111">
        <ele>922</ele>
        <time>2018-07-01T09:59:32.000Z</time>
      </trkpt>
      <trkpt lat="47.20856" lon="6.71108">
        <ele>922</ele>
        <time>2018-07-01T09:59:33.000Z</time>
      </trkpt>
      <trkpt lat="47.20855" lon="6.71106">
        <ele>922</ele>
        <time>2018-07-01T09:59:34.000Z</time>
      </trkpt>
      <trkpt lat="47.20853" lon="6.71103">
        <ele>922</ele>
        <time>2018-07-01T09:59:35.000Z</time>
      </trkpt>
      <trkpt lat="47.20852" lon="6.711">
        <ele>922</ele>
        <time>2018-07-01T09:59:36.000Z</time>
      </trkpt>
      <trkpt lat="47.2085" lon="6.71098">
        <ele>922</ele>
        <time>2018-07-01T09:59:37.000Z</time>
      </trkpt>
      <trkpt lat="47.20848" lon="6.71095">
        <ele>922</ele>
        <time>2018-07-01T09:59:38.000Z</time>
      </trkpt>
      <trkpt lat="47.20846" lon="6.71093">
        <ele>922</ele>
        <time>2018-07-01T09:59:39.000Z</time>
      </trkpt>
      <trkpt lat="47.20844" lon="6.7109">
        <ele>922</ele>
        <time>2018-07-01T09:59:40.000Z</time>
      </trkpt>
      <trkpt lat="47.20842" lon="6.71087">
        <ele>922</ele>
        <time>2018-07-01T09:59:41.000Z</time>
      </trkpt>
      <trkpt lat="47.2084" lon="6.71085">
        <ele>922</ele>
        <time>2018-07-01T09:59:42.000Z</time>
      </trkpt>
      <trkpt lat="47.20839" lon="6.71081">
        <ele>922</ele>
        <time>2018-07-01T09:59:43.000Z</time>
      </trkpt>
      <trkpt lat="47.20837" lon="6.71078">
        <ele>922</ele>
        <time>2018-07-01T09:59:44.000Z</time>
      </trkpt>
      <trkpt lat="47.20836" lon="6.71074">
        <ele>922</ele>
        <time>2018-07-01T09:59:45.000Z</time>
      </trkpt>
      <trkpt lat="47.20835" lon="6.7107">
        <ele>922</ele>
        <time>2018-07-01T09:59:46.000Z</time>
      </trkpt>
      <trkpt lat="47.20834" lon="6.71066">
        <ele>922</ele>
        <time>2018-07-01T09:59:47.000Z</time>
      </trkpt>
      <trkpt lat="47.20833" lon="6.71062">
        <ele>926</ele>
        <time>2018-07-01T09:59:48.000Z</time>
      </trkpt>
      <trkpt lat="47.20832" lon="6.71059">
        <ele>926</ele>
        <time>2018-07-01T09:59:49.000Z</time>
      </trkpt>
      <trkpt lat="47.20832" lon="6.71054">
        <ele>926</ele>
        <time>2018-07-01T09:59:50.000Z</time>
      </trkpt>
      <trkpt lat="47.20831" lon="6.7105">
        <ele>926</ele>
        <time>2018-07-01T09:59:51.000Z</time>
      </trkpt>
      <trkpt lat="47.20831" lon="6.71046">
        <ele>927</ele>
        <time>2018-07-01T09:59:52.000Z</time>
      </trkpt>
      <trkpt lat="47.2083" lon="6.71042">
        <ele>927</ele>
        <time>2018-07-01T09:59:53.000Z</time>
      </trkpt>
      <trkpt lat="47.2083" lon="6.71038">
        <ele>927</ele>
        <time>2018-07-01T09:59:54.000Z</time>
      </trkpt>
      <trkpt lat="47.2083" lon="6.71033">
        <ele>927</ele>
        <time>2018-07-01T09:59:55.000Z</time>
      </trkpt>
      <trkpt lat="47.2083" lon="6.71029">
        <ele>926</ele>
        <time>2018-07-01T09:59:56.000Z</time>
      </trkpt>
      <trkpt lat="47.2083" lon="6.71025">
        <ele>926</ele>
        <time>2018-07-01T09:59:57.000Z</time>
      </trkpt>
      <trkpt lat="47.20831" lon="6.71021">
        <ele>926</ele>
        <time>2018-07-01T09:59:58.000Z</time>
      </trkpt>
      <trkpt lat="47.20831" lon="6.71017">
        <ele>926</ele>
        <time>2018-07-01T09:59:59.000Z</time>
      </trkpt>
      <trkpt lat="47.20832" lon="6.71013">
        <ele>926</ele>
        <time>2018-07-01T10:00:00.000Z</time>
      </trkpt>
      <trkpt lat="47.20834" lon="6.71009">
        <ele>923</ele>
        <time>2018-07-01T10:00:01.000Z</time>
      </trkpt>
      <trkpt lat="47.20835" lon="6.71005">
        <ele>924</ele>
        <time>2018-07-01T10:00:02.000Z</time>
      </trkpt>
      <trkpt lat="47.20836" lon="6.71001">
        <ele>924</ele>
        <time>2018-07-01T10:00:03.000Z</time>
      </trkpt>
      <trkpt lat="47.20837" lon="6.70998">
        <ele>925</ele>
        <time>2018-07-01T10:00:04.000Z</time>
      </trkpt>
      <trkpt lat="47.20839" lon="6.70994">
        <ele>925</ele>
        <time>2018-07-01T10:00:05.000Z</time>
      </trkpt>
      <trkpt lat="47.2084" lon="6.70991">
        <ele>925</ele>
        <time>2018-07-01T10:00:06.000Z</time>
      </trkpt>
      <trkpt lat="47.20842" lon="6.70987">
        <ele>925</ele>
        <time>2018-07-01T10:00:07.000Z</time>
      </trkpt>
      <trkpt lat="47.20843" lon="6.70985">
        <ele>926</ele>
        <time>2018-07-01T10:00:08.000Z</time>
      </trkpt>
      <trkpt lat="47.20845" lon="6.70982">
        <ele>926</ele>
        <time>2018-07-01T10:00:09.000Z</time>
      </trkpt>
      <trkpt lat="47.20846" lon="6.7098">
        <ele>926</ele>
        <time>2018-07-01T10:00:10.000Z</time>
      </trkpt>
      <trkpt lat="47.20848" lon="6.70977">
        <ele>926</ele>
        <time>2018-07-01T10:00:11.000Z</time>
      </trkpt>
      <trkpt lat="47.20849" lon="6.70975">
        <ele>926</ele>
        <time>2018-07-01T10:00:12.000Z</time>
      </trkpt>
      <trkpt lat="47.20851" lon="6.70973">
        <ele>926</ele>
        <time>2018-07-01T10:00:13.000Z</time>
      </trkpt>
      <trkpt lat="47.20852" lon="6.70971">
        <ele>927</ele>
        <time>2018-07-01T10:00:14.000Z</time>
      </trkpt>
      <trkpt lat="47.20853" lon="6.70969">
        <ele>927</ele>
        <time>2018-07-01T10:00:15.000Z</time>
      </trkpt>
      <trkpt lat="47.20854" lon="6.70966">
        <ele>927</ele>
        <time>2018-07-01T10:00:16.000Z</time>
      </trkpt>
      <trkpt lat="47.20854" lon="6.70964">
        <ele>927</ele>
        <time>2018-07-01T10:00:17.000Z</time>
      </trkpt>
      <trkpt lat="47.20854" lon="6.70961">
        <ele>927</ele>
        <time>2018-07-01T10:00:18.000Z</time>
      </trkpt>
      <trkpt lat="47.20854" lon="6.70958">
        <ele>927</ele>
        <time>2018-07-01T10:00:19.000Z</time>
      </trkpt>
      <trkpt lat="47.20853" lon="6.70955">
        <ele>927</ele>
        <time>2018-07-01T10:00:20.000Z</time>
      </trkpt>
      <trkpt lat="47.20852" lon="6.70952">
        <ele>927</ele>
        <time>2018-07-01T10:00:21.000Z</time>
      </trkpt>
      <trkpt lat="47.20852" lon="6.70949">
        <ele>928</ele>
        <time>2018-07-01T10:00:22.000Z</time>
      </trkpt>
      <trkpt lat="47.20851" lon="6.70946">
        <ele>928</ele>
        <time>2018-07-01T10:00:23.000Z</time>
      </trkpt>
      <trkpt lat="47.2085" lon="6.70943">
        <ele>928</ele>
        <time>2018-07-01T10:00:24.000Z</time>
      </trkpt>
      <trkpt lat="47.20849" lon="6.7094">
        <ele>928</ele>
        <time>2018-07-01T10:00:25.000Z</time>
      </trkpt>
      <trkpt lat="47.20847" lon="6.70937">
        <ele>928</ele>
        <time>2018-07-01T10:00:26.000Z</time>
      </trkpt>
      <trkpt lat="47.20846" lon="6.70935">
        <ele>929</ele>
        <time>2018-07-01T10:00:27.000Z</time>
      </trkpt>
      <trkpt lat="47.20845" lon="6.70932">
        <ele>929</ele>
        <time>2018-07-01T10:00:28.000Z</time>
      </trkpt>
      <trkpt lat="47.20843" lon="6.70929">
        <ele>929</ele>
        <time>2018-07-01T10:00:29.000Z</time>
      </trkpt>
      <trkpt lat="47.20841" lon="6.70927">
        <ele>929</ele>
        <time>2018-07-01T10:00:30.000Z</time>
      </trkpt>
      <trkpt lat="47.20839" lon="6.70924">
        <ele>930</ele>
        <time>2018-07-01T10:00:31.000Z</time>
      </trkpt>
      <trkpt lat="47.20838" lon="6.70921">
        <ele>930</ele>
        <time>2018-07-01T10:00:32.000Z</time>
      </trkpt>
      <trkpt lat="47.20836" lon="6.70918">
        <ele>930</ele>
        <time>2018-07-01T10:00:33.000Z</time>
      </trkpt>
      <trkpt lat="47.20835" lon="6.70915">
        <ele>931</ele>
        <time>2018-07-01T10:00:34.000Z</time>
      </trkpt>
      <trkpt lat="47.20833" lon="6.70912">
        <ele>932</ele>
        <time>2018-07-01T10:00:35.000Z</time>
      </trkpt>
      <trkpt lat="47.20832" lon="6.70909">
        <ele>932</ele>
        <time>2018-07-01T10:00:36.000Z</time>
      </trkpt>
      <trkpt lat="47.2083" lon="6.70906">
        <ele>932</ele>
        <time>2018-07-01T10:00:37.000Z</time>
      </trkpt>
      <trkpt lat="47.20828" lon="6.70903">
        <ele>932</ele>
        <time>2018-07-01T10:00:38.000Z</time>
      </trkpt>
      <trkpt lat="47.20826" lon="6.709">
        <ele>933</ele>
        <time>2018-07-01T10:00:39.000Z</time>
      </trkpt>
      <trkpt lat="47.20824" lon="6.70897">
        <ele>933</ele>
        <time>2018-07-01T10:00:40.000Z</time>
      </trkpt>
      <trkpt lat="47.20822" lon="6.70895">
        <ele>933</ele>
        <time>2018-07-01T10:00:41.000Z</time>
      </trkpt>
      <trkpt lat="47.2082" lon="6.70892">
        <ele>933</ele>
        <time>2018-07-01T10:00:42.000Z</time>
      </trkpt>
      <trkpt lat="47.20818" lon="6.70888">
        <ele>933</ele>
        <time>2018-07-01T10:00:43.000Z</time>
      </trkpt>
      <trkpt lat="47.20816" lon="6.70886">
        <ele>934</ele>
        <time>2018-07-01T10:00:44.000Z</time>
      </trkpt>
      <trkpt lat="47.20814" lon="6.70883">
        <ele>934</ele>
        <time>2018-07-01T10:00:45.000Z</time>
      </trkpt>
      <trkpt lat="47.20812" lon="6.7088">
        <ele>934</ele>
        <time>2018-07-01T10:00:46.000Z</time>
      </trkpt>
      <trkpt lat="47.2081" lon="6.70878">
        <ele>934</ele>
        <time>2018-07-01T10:00:47.000Z</time>
      </trkpt>
      <trkpt lat="47.20808" lon="6.70875">
        <ele>934</ele>
        <time>2018-07-01T10:00:48.000Z</time>
      </trkpt>
      <trkpt lat="47.20806" lon="6.70872">
        <ele>934</ele>
        <time>2018-07-01T10:00:49.000Z</time>
      </trkpt>
      <trkpt lat="47.20804" lon="6.7087">
        <ele>934</ele>
        <time>2018-07-01T10:00:50.000Z</time>
      </trkpt>
      <trkpt lat="47.20802" lon="6.70867">
        <ele>934</ele>
        <time>2018-07-01T10:00:51.000Z</time>
      </trkpt>
      <trkpt lat="47.20801" lon="6.70865">
        <ele>935</ele>
        <time>2018-07-01T10:00:52.000Z</time>
      </trkpt>
      <trkpt lat="47.20799" lon="6.70862">
        <ele>935</ele>
        <time>2018-07-01T10:00:53.000Z</time>
      </trkpt>
      <trkpt lat="47.20797" lon="6.70859">
        <ele>935</ele>
        <time>2018-07-01T10:00:54.000Z</time>
      </trkpt>
      <trkpt lat="47.20795" lon="6.70856">
        <ele>935</ele>
        <time>2018-07-01T10:00:55.000Z</time>
      </trkpt>
      <trkpt lat="47.20794" lon="6.70853">
        <ele>935</ele>
        <time>2018-07-01T10:00:56.000Z</time>
      </trkpt>
      <trkpt lat="47.20792" lon="6.7085">
        <ele>935</ele>
        <time>2018-07-01T10:00:57.000Z</time>
      </trkpt>
      <trkpt lat="47.2079" lon="6.70848">
        <ele>935</ele>
        <time>2018-07-01T10:00:58.000Z</time>
      </trkpt>
      <trkpt lat="47.20788" lon="6.70845">
        <ele>935</ele>
        <time>2018-07-01T10:00:59.000Z</time>
      </trkpt>
      <trkpt lat="47.20786" lon="6.70842">
        <ele>935</ele>
        <time>2018-07-01T10:01:00.000Z</time>
      </trkpt>
      <trkpt lat="47.20784" lon="6.70839">
        <ele>935</ele>
        <time>2018-07-01T10:01:01.000Z</time>
      </trkpt>
      <trkpt lat="47.20782" lon="6.70836">
        <ele>935</ele>
        <time>2018-07-01T10:01:02.000Z</time>
      </trkpt>
      <trkpt lat="47.2078" lon="6.70834">
        <ele>936</ele>
        <time>2018-07-01T10:01:03.000Z</time>
      </trkpt>
      <trkpt lat="47.20779" lon="6.70832">
        <ele>939</ele>
        <time>2018-07-01T10:01:04.000Z</time>
      </trkpt>
      <trkpt lat="47.20777" lon="6.70829">
        <ele>939</ele>
        <time>2018-07-01T10:01:05.000Z</time>
      </trkpt>
      <trkpt lat="47.20775" lon="6.70827">
        <ele>939</ele>
        <time>2018-07-01T10:01:06.000Z</time>
      </trkpt>
      <trkpt lat="47.20774" lon="6.70824">
        <ele>939</ele>
        <time>2018-07-01T10:01:07.000Z</time>
      </trkpt>
      <trkpt lat="47.20772" lon="6.70821">
        <ele>939</ele>
        <time>2018-07-01T10:01:08.000Z</time>
      </trkpt>
      <trkpt lat="47.2077" lon="6.70819">
        <ele>939</ele>
        <time>2018-07-01T10:01:09.000Z</time>
      </trkpt>
      <trkpt lat="47.20769" lon="6.70817">
        <ele>940</ele>
        <time>2018-07-01T10:01:10.000Z</time>
      </trkpt>
      <trkpt lat="47.20767" lon="6.70815">
        <ele>940</ele>
        <time>2018-07-01T10:01:11.000Z</time>
      </trkpt>
      <trkpt lat="47.20766" lon="6.70813">
        <ele>940</ele>
        <time>2018-07-01T10:01:12.000Z</time>
      </trkpt>
      <trkpt lat="47.20764" lon="6.7081">
        <ele>940</ele>
        <time>2018-07-01T10:01:13.000Z</time>
      </trkpt>
      <trkpt lat="47.20763" lon="6.70808">
        <ele>940</ele>
        <time>2018-07-01T10:01:14.000Z</time>
      </trkpt>
      <trkpt lat="47.20761" lon="6.70806">
        <ele>940</ele>
        <time>2018-07-01T10:01:15.000Z</time>
      </trkpt>
      <trkpt lat="47.20759" lon="6.70804">
        <ele>940</ele>
        <time>2018-07-01T10:01:16.000Z</time>
      </trkpt>
      <trkpt lat="47.20757" lon="6.70801">
        <ele>940</ele>
        <time>2018-07-01T10:01:17.000Z</time>
      </trkpt>
      <trkpt lat="47.20755" lon="6.70799">
        <ele>941</ele>
        <time>2018-07-01T10:01:18.000Z</time>
      </trkpt>
      <trkpt lat="47.20753" lon="6.70796">
        <ele>941</ele>
        <time>2018-07-01T10:01:19.000Z</time>
      </trkpt>
      <trkpt lat="47.20751" lon="6.70794">
        <ele>941</ele>
        <time>2018-07-01T10:01:20.000Z</time>
      </trkpt>
      <trkpt lat="47.20749" lon="6.70791">
        <ele>944</ele>
        <time>2018-07-01T10:01:21.000Z</time>
      </trkpt>
      <trkpt lat="47.20747" lon="6.70789">
        <ele>944</ele>
        <time>2018-07-01T10:01:22.000Z</time>
      </trkpt>
      <trkpt lat="47.20745" lon="6.70786">
        <ele>944</ele>
        <time>2018-07-01T10:01:23.000Z</time>
      </trkpt>
      <trkpt lat="47.20744" lon="6.70783">
        <ele>944</ele>
        <time>2018-07-01T10:01:24.000Z</time>
      </trkpt>
      <trkpt lat="47.20742" lon="6.70781">
        <ele>944</ele>
        <time>2018-07-01T10:01:25.000Z</time>
      </trkpt>
      <trkpt lat="47.2074" lon="6.70779">
        <ele>944</ele>
        <time>2018-07-01T10:01:26.000Z</time>
      </trkpt>
      <trkpt lat="47.20738" lon="6.70777">
        <ele>945</ele>
        <time>2018-07-01T10:01:27.000Z</time>
      </trkpt>
      <trkpt lat="47.20736" lon="6.70774">
        <ele>945</ele>
        <time>2018-07-01T10:01:28.000Z</time>
      </trkpt>
      <trkpt lat="47.20734" lon="6.70772">
        <ele>945</ele>
        <time>2018-07-01T10:01:29.000Z</time>
      </trkpt>
      <trkpt lat="47.20732" lon="6.7077">
        <ele>945</ele>
        <time>2018-07-01T10:01:30.000Z</time>
      </trkpt>
      <trkpt lat="47.20731" lon="6.70767">
        <ele>945</ele>
        <time>2018-07-01T10:01:31.000Z</time>
      </trkpt>
      <trkpt lat="47.20729" lon="6.70765">
        <ele>945</ele>
        <time>2018-07-01T10:01:32.000Z</time>
      </trkpt>
      <trkpt lat="47.20727" lon="6.70762">
        <ele>945</ele>
        <time>2018-07-01T10:01:33.000Z</time>
      </trkpt>
      <trkpt lat="47.20725" lon="6.7076">
        <ele>945</ele>
        <time>2018-07-01T10:01:34.000Z</time>
      </trkpt>
      <trkpt lat="47.20723" lon="6.70757">
        <ele>945</ele>
        <time>2018-07-01T10:01:35.000Z</time>
      </trkpt>
      <trkpt lat="47.20722" lon="6.70755">
        <ele>945</ele>
        <time>2018-07-01T10:01:36.000Z</time>
      </trkpt>
      <trkpt lat="47.2072" lon="6.70752">
        <ele>945</ele>
        <time>2018-07-01T10:01:37.000Z</time>
      </trkpt>
      <trkpt lat="47.20718" lon="6.7075">
        <ele>945</ele>
        <time>2018-07-01T10:01:38.000Z</time>
      </trkpt>
      <trkpt lat="47.20716" lon="6.70748">
        <ele>949</ele>
        <time>2018-07-01T10:01:39.000Z</time>
      </trkpt>
      <trkpt lat="47.20714" lon="6.70746">
        <ele>949</ele>
        <time>2018-07-01T10:01:40.000Z</time>
      </trkpt>
      <trkpt lat="47.20712" lon="6.70744">
        <ele>949</ele>
        <time>2018-07-01T10:01:41.000Z</time>
      </trkpt>
      <trkpt lat="47.2071" lon="6.70742">
        <ele>949</ele>
        <time>2018-07-01T10:01:42.000Z</time>
      </trkpt>
      <trkpt lat="47.20708" lon="6.7074">
        <ele>949</ele>
        <time>2018-07-01T10:01:43.000Z</time>
      </trkpt>
      <trkpt lat="47.20706" lon="6.70737">
        <ele>949</ele>
        <time>2018-07-01T10:01:44.000Z</time>
      </trkpt>
      <trkpt lat="47.20703" lon="6.70735">
        <ele>949</ele>
        <time>2018-07-01T10:01:45.000Z</time>
      </trkpt>
      <trkpt lat="47.207" lon="6.70733">
        <ele>949</ele>
        <time>2018-07-01T10:01:46.000Z</time>
      </trkpt>
      <trkpt lat="47.20698" lon="6.7073">
        <ele>949</ele>
        <time>2018-07-01T10:01:47.000Z</time>
      </trkpt>
      <trkpt lat="47.20695" lon="6.70728">
        <ele>949</ele>
        <time>2018-07-01T10:01:48.000Z</time>
      </trkpt>
      <trkpt lat="47.20693" lon="6.70726">
        <ele>949</ele>
        <time>2018-07-01T10:01:49.000Z</time>
      </trkpt>
      <trkpt lat="47.2069" lon="6.70724">
        <ele>949</ele>
        <time>2018-07-01T10:01:50.000Z</time>
      </trkpt>
      <trkpt lat="47.20688" lon="6.70722">
        <ele>949</ele>
        <time>2018-07-01T10:01:51.000Z</time>
      </trkpt>
      <trkpt lat="47.20685" lon="6.70719">
        <ele>949</ele>
        <time>2018-07-01T10:01:52.000Z</time>
      </trkpt>
      <trkpt lat="47.20683" lon="6.70716">
        <ele>949</ele>
        <time>2018-07-01T10:01:53.000Z</time>
      </trkpt>
      <trkpt lat="47.20681" lon="6.70713">
        <ele>950</ele>
        <time>2018-07-01T10:01:54.000Z</time>
      </trkpt>
      <trkpt lat="47.20679" lon="6.70709">
        <ele>950</ele>
        <time>2018-07-01T10:01:55.000Z</time>
      </trkpt>
      <trkpt lat="47.20677" lon="6.70706">
        <ele>950</ele>
        <time>2018-07-01T10:01:56.000Z</time>
      </trkpt>
      <trkpt lat="47.20676" lon="6.70703">
        <ele>950</ele>
        <time>2018-07-01T10:01:57.000Z</time>
      </trkpt>
      <trkpt lat="47.20675" lon="6.707">
        <ele>950</ele>
        <time>2018-07-01T10:01:58.000Z</time>
      </trkpt>
      <trkpt lat="47.20674" lon="6.70698">
        <ele>950</ele>
        <time>2018-07-01T10:01:59.000Z</time>
      </trkpt>
      <trkpt lat="47.20673" lon="6.70695">
        <ele>951</ele>
        <time>2018-07-01T10:02:00.000Z</time>
      </trkpt>
      <trkpt lat="47.20672" lon="6.70692">
        <ele>951</ele>
        <time>2018-07-01T10:02:01.000Z</time>
      </trkpt>
      <trkpt lat="47.20671" lon="6.70689">
        <ele>951</ele>
        <time>2018-07-01T10:02:02.000Z</time>
      </trkpt>
      <trkpt lat="47.2067" lon="6.70686">
        <ele>951</ele>
        <time>2018-07-01T10:02:03.000Z</time>
      </trkpt>
      <trkpt lat="47.20669" lon="6.70682">
        <ele>952</ele>
        <time>2018-07-01T10:02:04.000Z</time>
      </trkpt>
      <trkpt lat="47.20669" lon="6.70679">
        <ele>952</ele>
        <time>2018-07-01T10:02:05.000Z</time>
      </trkpt>
      <trkpt lat="47.20668" lon="6.70676">
        <ele>952</ele>
        <time>2018-07-01T10:02:06.000Z</time>
      </trkpt>
      <trkpt lat="47.20667" lon="6.70674">
        <ele>952</ele>
        <time>2018-07-01T10:02:07.000Z</time>
      </trkpt>
      <trkpt lat="47.20666" lon="6.70671">
        <ele>953</ele>
        <time>2018-07-01T10:02:08.000Z</time>
      </trkpt>
      <trkpt lat="47.20665" lon="6.70669">
        <ele>953</ele>
        <time>2018-07-01T10:02:09.000Z</time>
      </trkpt>
      <trkpt lat="47.20664" lon="6.70666">
        <ele>953</ele>
        <time>2018-07-01T10:02:10.000Z</time>
      </trkpt>
      <trkpt lat="47.20663" lon="6.70664">
        <ele>954</ele>
        <time>2018-07-01T10:02:11.000Z</time>
      </trkpt>
      <trkpt lat="47.20662" lon="6.70661">
        <ele>954</ele>
        <time>2018-07-01T10:02:12.000Z</time>
      </trkpt>
      <trkpt lat="47.20661" lon="6.70659">
        <ele>954</ele>
        <time>2018-07-01T10:02:13.000Z</time>
      </trkpt>
      <trkpt lat="47.2066" lon="6.70657">
        <ele>954</ele>
        <time>2018-07-01T10:02:14.000Z</time>
      </trkpt>
      <trkpt lat="47.20659" lon="6.70654">
        <ele>955</ele>
        <time>2018-07-01T10:02:15.000Z</time>
      </trkpt>
      <trkpt lat="47.20658" lon="6.70652">
        <ele>955</ele>
        <time>2018-07-01T10:02:16.000Z</time>
      </trkpt>
      <trkpt lat="47.20657" lon="6.70649">
        <ele>955</ele>
        <time>2018-07-01T10:02:17.000Z</time>
      </trkpt>
      <trkpt lat="47.20655" lon="6.70647">
        <ele>955</ele>
        <time>2018-07-01T10:02:18.000Z</time>
      </trkpt>
      <trkpt lat="47.20654" lon="6.70645">
        <ele>955</ele>
        <time>2018-07-01T10:02:19.000Z</time>
      </trkpt>
      <trkpt lat="47.20653" lon="6.70643">
        <ele>956</ele>
        <time>2018-07-01T10:02:20.000Z</time>
      </trkpt>
      <trkpt lat="47.20652" lon="6.70641">
        <ele>956</ele>
        <time>2018-07-01T10:02:21.000Z</time>
      </trkpt>
      <trkpt lat="47.20651" lon="6.70639">
        <ele>956</ele>
        <time>2018-07-01T10:02:22.000Z</time>
      </trkpt>
      <trkpt lat="47.2065" lon="6.70636">
        <ele>956</ele>
        <time>2018-07-01T10:02:23.000Z</time>
      </trkpt>
      <trkpt lat="47.20649" lon="6.70634">
        <ele>956</ele>
        <time>2018-07-01T10:02:24.000Z</time>
      </trkpt>
      <trkpt lat="47.20648" lon="6.70631">
        <ele>956</ele>
        <time>2018-07-01T10:02:25.000Z</time>
      </trkpt>
      <trkpt lat="47.20646" lon="6.70628">
        <ele>956</ele>
        <time>2018-07-01T10:02:26.000Z</time>
      </trkpt>
      <trkpt lat="47.20645" lon="6.70625">
        <ele>956</ele>
        <time>2018-07-01T10:02:27.000Z</time>
      </trkpt>
      <trkpt lat="47.20644" lon="6.70623">
        <ele>957</ele>
        <time>2018-07-01T10:02:28.000Z</time>
      </trkpt>
      <trkpt lat="47.20643" lon="6.70621">
        <ele>957</ele>
        <time>2018-07-01T10:02:29.000Z</time>
      </trkpt>
      <trkpt lat="47.20642" lon="6.70618">
        <ele>957</ele>
        <time>2018-07-01T10:02:30.000Z</time>
      </trkpt>
      <trkpt lat="47.2064" lon="6.70616">
        <ele>957</ele>
        <time>2018-07-01T10:02:31.000Z</time>
      </trkpt>
      <trkpt lat="47.20639" lon="6.70614">
        <ele>957</ele>
        <time>2018-07-01T10:02:32.000Z</time>
      </trkpt>
      <trkpt lat="47.20638" lon="6.70611">
        <ele>957</ele>
        <time>2018-07-01T10:02:33.000Z</time>
      </trkpt>
      <trkpt lat="47.20636" lon="6.70608">
        <ele>957</ele>
        <time>2018-07-01T10:02:34.000Z</time>
      </trkpt>
      <trkpt lat="47.20635" lon="6.70605">
        <ele>957</ele>
        <time>2018-07-01T10:02:35.000Z</time>
      </trkpt>
      <trkpt lat="47.20633" lon="6.70602">
        <ele>957</ele>
        <time>2018-07-01T10:02:36.000Z</time>
      </trkpt>
      <trkpt lat="47.20632" lon="6.706">
        <ele>957</ele>
        <time>2018-07-01T10:02:37.000Z</time>
      </trkpt>
      <trkpt lat="47.2063" lon="6.70596">
        <ele>957</ele>
        <time>2018-07-01T10:02:38.000Z</time>
      </trkpt>
      <trkpt lat="47.20629" lon="6.70593">
        <ele>957</ele>
        <time>2018-07-01T10:02:39.000Z</time>
      </trkpt>
      <trkpt lat="47.20627" lon="6.70591">
        <ele>957</ele>
        <time>2018-07-01T10:02:40.000Z</time>
      </trkpt>
      <trkpt lat="47.20626" lon="6.70588">
        <ele>957</ele>
        <time>2018-07-01T10:02:41.000Z</time>
      </trkpt>
      <trkpt lat="47.20625" lon="6.70585">
        <ele>957</ele>
        <time>2018-07-01T10:02:42.000Z</time>
      </trkpt>
      <trkpt lat="47.20623" lon="6.70582">
        <ele>961</ele>
        <time>2018-07-01T10:02:43.000Z</time>
      </trkpt>
      <trkpt lat="47.20622" lon="6.70579">
        <ele>961</ele>
        <time>2018-07-01T10:02:44.000Z</time>
      </trkpt>
      <trkpt lat="47.20621" lon="6.70577">
        <ele>961</ele>
        <time>2018-07-01T10:02:45.000Z</time>
      </trkpt>
      <trkpt lat="47.20621" lon="6.70574">
        <ele>961</ele>
        <time>2018-07-01T10:02:46.000Z</time>
      </trkpt>
      <trkpt lat="47.2062" lon="6.70572">
        <ele>961</ele>
        <time>2018-07-01T10:02:47.000Z</time>
      </trkpt>
      <trkpt lat="47.20619" lon="6.70569">
        <ele>961</ele>
        <time>2018-07-01T10:02:48.000Z</time>
      </trkpt>
      <trkpt lat="47.20619" lon="6.70567">
        <ele>961</ele>
        <time>2018-07-01T10:02:49.000Z</time>
      </trkpt>
      <trkpt lat="47.20618" lon="6.70564">
        <ele>961</ele>
        <time>2018-07-01T10:02:50.000Z</time>
      </trkpt>
      <trkpt lat="47.20617" lon="6.70562">
        <ele>961</ele>
        <time>2018-07-01T10:02:51.000Z</time>
      </trkpt>
      <trkpt lat="47.20617" lon="6.70559">
        <ele>961</ele>
        <time>2018-07-01T10:02:52.000Z</time>
      </trkpt>
      <trkpt lat="47.20616" lon="6.70556">
        <ele>961</ele>
        <time>2018-07-01T10:02:53.000Z</time>
      </trkpt>
      <trkpt lat="47.20615" lon="6.70552">
        <ele>961</ele>
        <time>2018-07-01T10:02:54.000Z</time>
      </trkpt>
      <trkpt lat="47.20613" lon="6.70549">
        <ele>961</ele>
        <time>2018-07-01T10:02:55.000Z</time>
      </trkpt>
      <trkpt lat="47.20611" lon="6.70546">
        <ele>961</ele>
        <time>2018-07-01T10:02:56.000Z</time>
      </trkpt>
      <trkpt lat="47.2061" lon="6.70543">
        <ele>961</ele>
        <time>2018-07-01T10:02:57.000Z</time>
      </trkpt>
      <trkpt lat="47.20608" lon="6.7054">
        <ele>962</ele>
        <time>2018-07-01T10:02:58.000Z</time>
      </trkpt>
      <trkpt lat="47.20607" lon="6.70536">
        <ele>962</ele>
        <time>2018-07-01T10:02:59.000Z</time>
      </trkpt>
      <trkpt lat="47.20606" lon="6.70533">
        <ele>962</ele>
        <time>2018-07-01T10:03:00.000Z</time>
      </trkpt>
      <trkpt lat="47.20604" lon="6.7053">
        <ele>962</ele>
        <time>2018-07-01T10:03:01.000Z</time>
      </trkpt>
      <trkpt lat="47.20603" lon="6.70527">
        <ele>962</ele>
        <time>2018-07-01T10:03:02.000Z</time>
      </trkpt>
      <trkpt lat="47.20602" lon="6.70524">
        <ele>962</ele>
        <time>2018-07-01T10:03:03.000Z</time>
      </trkpt>
      <trkpt lat="47.206" lon="6.70521">
        <ele>962</ele>
        <time>2018-07-01T10:03:04.000Z</time>
      </trkpt>
      <trkpt lat="47.20598" lon="6.70518">
        <ele>962</ele>
        <time>2018-07-01T10:03:05.000Z</time>
      </trkpt>
      <trkpt lat="47.20597" lon="6.70515">
        <ele>962</ele>
        <time>2018-07-01T10:03:06.000Z</time>
      </trkpt>
      <trkpt lat="47.20596" lon="6.70512">
        <ele>962</ele>
        <time>2018-07-01T10:03:07.000Z</time>
      </trkpt>
      <trkpt lat="47.20594" lon="6.70509">
        <ele>962</ele>
        <time>2018-07-01T10:03:08.000Z</time>
      </trkpt>
      <trkpt lat="47.20593" lon="6.70507">
        <ele>963</ele>
        <time>2018-07-01T10:03:09.000Z</time>
      </trkpt>
      <trkpt lat="47.20592" lon="6.70506">
        <ele>963</ele>
        <time>2018-07-01T10:03:10.000Z</time>
      </trkpt>
      <trkpt lat="47.20591" lon="6.70504">
        <ele>963</ele>
        <time>2018-07-01T10:03:11.000Z</time>
      </trkpt>
      <trkpt lat="47.20589" lon="6.70502">
        <ele>963</ele>
        <time>2018-07-01T10:03:12.000Z</time>
      </trkpt>
      <trkpt lat="47.20588" lon="6.705">
        <ele>963</ele>
        <time>2018-07-01T10:03:13.000Z</time>
      </trkpt>
      <trkpt lat="47.20587" lon="6.70498">
        <ele>963</ele>
        <time>2018-07-01T10:03:14.000Z</time>
      </trkpt>
      <trkpt lat="47.20586" lon="6.70496">
        <ele>963</ele>
        <time>2018-07-01T10:03:15.000Z</time>
      </trkpt>
      <trkpt lat="47.20584" lon="6.70494">
        <ele>963</ele>
        <time>2018-07-01T10:03:16.000Z</time>
      </trkpt>
      <trkpt lat="47.20583" lon="6.70492">
        <ele>964</ele>
        <time>2018-07-01T10:03:17.000Z</time>
      </trkpt>
      <trkpt lat="47.20581" lon="6.7049">
        <ele>964</ele>
        <time>2018-07-01T10:03:18.000Z</time>
      </trkpt>
      <trkpt lat="47.20579" lon="6.70489">
        <ele>964</ele>
        <time>2018-07-01T10:03:19.000Z</time>
      </trkpt>
      <trkpt lat="47.20577" lon="6.70488">
        <ele>964</ele>
        <time>2018-07-01T10:03:20.000Z</time>
      </trkpt>
      <trkpt lat="47.20575" lon="6.70488">
        <ele>964</ele>
        <time>2018-07-01T10:03:21.000Z</time>
      </trkpt>
      <trkpt lat="47.20572" lon="6.70488">
        <ele>964</ele>
        <time>2018-07-01T10:03:22.000Z</time>
      </trkpt>
      <trkpt lat="47.2057" lon="6.70488">
        <ele>964</ele>
        <time>2018-07-01T10:03:23.000Z</time>
      </trkpt>
      <trkpt lat="47.20567" lon="6.70489">
        <ele>964</ele>
        <time>2018-07-01T10:03:24.000Z</time>
      </trkpt>
      <trkpt lat="47.20565" lon="6.7049">
        <ele>964</ele>
        <time>2018-07-01T10:03:25.000Z</time>
      </trkpt>
      <trkpt lat="47.20562" lon="6.7049">
        <ele>965</ele>
        <time>2018-07-01T10:03:26.000Z</time>
      </trkpt>
      <trkpt lat="47.2056" lon="6.70491">
        <ele>965</ele>
        <time>2018-07-01T10:03:27.000Z</time>
      </trkpt>
      <trkpt lat="47.20558" lon="6.70492">
        <ele>965</ele>
        <time>2018-07-01T10:03:28.000Z</time>
      </trkpt>
      <trkpt lat="47.20556" lon="6.70493">
        <ele>965</ele>
        <time>2018-07-01T10:03:29.000Z</time>
      </trkpt>
      <trkpt lat="47.20553" lon="6.70493">
        <ele>965</ele>
        <time>2018-07-01T10:03:30.000Z</time>
      </trkpt>
      <trkpt lat="47.20551" lon="6.70493">
        <ele>965</ele>
        <time>2018-07-01T10:03:31.000Z</time>
      </trkpt>
      <trkpt lat="47.20548" lon="6.70491">
        <ele>965</ele>
        <time>2018-07-01T10:03:32.000Z</time>
      </trkpt>
      <trkpt lat="47.20546" lon="6.7049">
        <ele>965</ele>
        <time>2018-07-01T10:03:33.000Z</time>
      </trkpt>
      <trkpt lat="47.20544" lon="6.70488">
        <ele>965</ele>
        <time>2018-07-01T10:03:34.000Z</time>
      </trkpt>
      <trkpt lat="47.20542" lon="6.70487">
        <ele>966</ele>
        <time>2018-07-01T10:03:35.000Z</time>
      </trkpt>
      <trkpt lat="47.20541" lon="6.70485">
        <ele>966</ele>
        <time>2018-07-01T10:03:36.000Z</time>
      </trkpt>
      <trkpt lat="47.20539" lon="6.70484">
        <ele>966</ele>
        <time>2018-07-01T10:03:37.000Z</time>
      </trkpt>
      <trkpt lat="47.20538" lon="6.70483">
        <ele>966</ele>
        <time>2018-07-01T10:03:38.000Z</time>
      </trkpt>
      <trkpt lat="47.20536" lon="6.70482">
        <ele>966</ele>
        <time>2018-07-01T10:03:39.000Z</time>
      </trkpt>
      <trkpt lat="47.20534" lon="6.70481">
        <ele>966</ele>
        <time>2018-07-01T10:03:40.000Z</time>
      </trkpt>
      <trkpt lat="47.20533" lon="6.7048">
        <ele>966</ele>
        <time>2018-07-01T10:03:41.000Z</time>
      </trkpt>
      <trkpt lat="47.20532" lon="6.7048">
        <ele>966</ele>
        <time>2018-07-01T10:03:42.000Z</time>
      </trkpt>
      <trkpt lat="47.20531" lon="6.70479">
        <ele>966</ele>
        <time>2018-07-01T10:03:43.000Z</time>
      </trkpt>
      <trkpt lat="47.2053" lon="6.70478">
        <ele>966</ele>
        <time>2018-07-01T10:03:44.000Z</time>
      </trkpt>
      <trkpt lat="47.20529" lon="6.70477">
        <ele>966</ele>
        <time>2018-07-01T10:03:45.000Z</time>
      </trkpt>
      <trkpt lat="47.20527" lon="6.70476">
        <ele>966</ele>
        <time>2018-07-01T10:03:46.000Z</time>
      </trkpt>
      <trkpt lat="47.20526" lon="6.70475">
        <ele>966</ele>
        <time>2018-07-01T10:03:47.000Z</time>
      </trkpt>
      <trkpt lat="47.20525" lon="6.70474">
        <ele>966</ele>
        <time>2018-07-01T10:03:48.000Z</time>
      </trkpt>
      <trkpt lat="47.20525" lon="6.70473">
        <ele>966</ele>
        <time>2018-07-01T10:03:49.000Z</time>
      </trkpt>
      <trkpt lat="47.20524" lon="6.70473">
        <ele>966</ele>
        <time>2018-07-01T10:03:50.000Z</time>
      </trkpt>
      <trkpt lat="47.20523" lon="6.70472">
        <ele>966</ele>
        <time>2018-07-01T10:03:51.000Z</time>
      </trkpt>
      <trkpt lat="47.20523" lon="6.70471">
        <ele>966</ele>
        <time>2018-07-01T10:03:52.000Z</time>
      </trkpt>
      <trkpt lat="47.20522" lon="6.7047">
        <ele>966</ele>
        <time>2018-07-01T10:03:53.000Z</time>
      </trkpt>
      <trkpt lat="47.20521" lon="6.70469">
        <ele>966</ele>
        <time>2018-07-01T10:03:54.000Z</time>
      </trkpt>
      <trkpt lat="47.20521" lon="6.70469">
        <ele>966</ele>
        <time>2018-07-01T10:03:55.000Z</time>
      </trkpt>
      <trkpt lat="47.2052" lon="6.70468">
        <ele>966</ele>
        <time>2018-07-01T10:03:56.000Z</time>
      </trkpt>
      <trkpt lat="47.2052" lon="6.70467">
        <ele>966</ele>
        <time>2018-07-01T10:03:57.000Z</time>
      </trkpt>
      <trkpt lat="47.20519" lon="6.70467">
        <ele>966</ele>
        <time>2018-07-01T10:03:58.000Z</time>
      </trkpt>
      <trkpt lat="47.20518" lon="6.70466">
        <ele>966</ele>
        <time>2018-07-01T10:03:59.000Z</time>
      </trkpt>
      <trkpt lat="47.20517" lon="6.70465">
        <ele>966</ele>
        <time>2018-07-01T10:04:00.000Z</time>
      </trkpt>
      <trkpt lat="47.20516" lon="6.70465">
        <ele>966</ele>
        <time>2018-07-01T10:04:01.000Z</time>
      </trkpt>
      <trkpt lat="47.20515" lon="6.70464">
        <ele>966</ele>
        <time>2018-07-01T10:04:02.000Z</time>
      </trkpt>
      <trkpt lat="47.20514" lon="6.70464">
        <ele>966</ele>
        <time>2018-07-01T10:04:03.000Z</time>
      </trkpt>
      <trkpt lat="47.20513" lon="6.70463">
        <ele>966</ele>
        <time>2018-07-01T10:04:04.000Z</time>
      </trkpt>
      <trkpt lat="47.20513" lon="6.70462">
        <ele>966</ele>
        <time>2018-07-01T10:04:05.000Z</time>
      </trkpt>
      <trkpt lat="47.20512" lon="6.70462">
        <ele>966</ele>
        <time>2018-07-01T10:04:06.000Z</time>
      </trkpt>
      <trkpt lat="47.20511" lon="6.70462">
        <ele>966</ele>
        <time>2018-07-01T10:04:07.000Z</time>
      </trkpt>
      <trkpt lat="47.2051" lon="6.70462">
        <ele>966</ele>
        <time>2018-07-01T10:04:08.000Z</time>
      </trkpt>
      <trkpt lat="47.20509" lon="6.70462">
        <ele>966</ele>
        <time>2018-07-01T10:04:09.000Z</time>
      </trkpt>
      <trkpt lat="47.20508" lon="6.70462">
        <ele>966</ele>
        <time>2018-07-01T10:04:10.000Z</time>
      </trkpt>
      <trkpt lat="47.20508" lon="6.70462">
        <ele>966</ele>
        <time>2018-07-01T10:04:11.000Z</time>
      </trkpt>
      <trkpt lat="47.20507" lon="6.70462">
        <ele>966</ele>
        <time>2018-07-01T10:04:12.000Z</time>
      </trkpt>
      <trkpt lat="47.20506" lon="6.70461">
        <ele>966</ele>
        <time>2018-07-01T10:04:13.000Z</time>
      </trkpt>
      <trkpt lat="47.20505" lon="6.70462">
        <ele>966</ele>
        <time>2018-07-01T10:04:14.000Z</time>
      </trkpt>
      <trkpt lat="47.20505" lon="6.70462">
        <ele>966</ele>
        <time>2018-07-01T10:04:15.000Z</time>
      </trkpt>
      <trkpt lat="47.20504" lon="6.70464">
        <ele>966</ele>
        <time>2018-07-01T10:04:16.000Z</time>
      </trkpt>
      <trkpt lat="47.20503" lon="6.70465">
        <ele>966</ele>
        <time>2018-07-01T10:04:17.000Z</time>
      </trkpt>
      <trkpt lat="47.20503" lon="6.70465">
        <ele>966</ele>
        <time>2018-07-01T10:04:18.000Z</time>
      </trkpt>
      <trkpt lat="47.20503" lon="6.70466">
        <ele>966</ele>
        <time>2018-07-01T10:04:19.000Z</time>
      </trkpt>
      <trkpt lat="47.20503" lon="6.70467">
        <ele>966</ele>
        <time>2018-07-01T10:04:20.000Z</time>
      </trkpt>
      <trkpt lat="47.20503" lon="6.70468">
        <ele>966</ele>
        <time>2018-07-01T10:04:21.000Z</time>
      </trkpt>
      <trkpt lat="47.20502" lon="6.70469">
        <ele>966</ele>
        <time>2018-07-01T10:04:22.000Z</time>
      </trkpt>
      <trkpt lat="47.20502" lon="6.7047">
        <ele>966</ele>
        <time>2018-07-01T10:04:23.000Z</time>
      </trkpt>
      <trkpt lat="47.20502" lon="6.7047">
        <ele>966</ele>
        <time>2018-07-01T10:04:24.000Z</time>
      </trkpt>
      <trkpt lat="47.20501" lon="6.7047">
        <ele>967</ele>
        <time>2018-07-01T10:04:25.000Z</time>
      </trkpt>
      <trkpt lat="47.20501" lon="6.70471">
        <ele>967</ele>
        <time>2018-07-01T10:04:26.000Z</time>
      </trkpt>
      <trkpt lat="47.205" lon="6.7047">
        <ele>967</ele>
        <time>2018-07-01T10:04:27.000Z</time>
      </trkpt>
      <trkpt lat="47.205" lon="6.7047">
        <ele>969</ele>
        <time>2018-07-01T10:04:28.000Z</time>
      </trkpt>
      <trkpt lat="47.20499" lon="6.7047">
        <ele>969</ele>
        <time>2018-07-01T10:04:29.000Z</time>
      </trkpt>
      <trkpt lat="47.20499" lon="6.7047">
        <ele>969</ele>
        <time>2018-07-01T10:04:30.000Z</time>
      </trkpt>
      <trkpt lat="47.20498" lon="6.7047">
        <ele>969</ele>
        <time>2018-07-01T10:04:31.000Z</time>
      </trkpt>
      <trkpt lat="47.20498" lon="6.70471">
        <ele>970</ele>
        <time>2018-07-01T10:04:32.000Z</time>
      </trkpt>
      <trkpt lat="47.20497" lon="6.70471">
        <ele>970</ele>
        <time>2018-07-01T10:04:33.000Z</time>
      </trkpt>
      <trkpt lat="47.20496" lon="6.7047">
        <ele>970</ele>
        <time>2018-07-01T10:04:34.000Z</time>
      </trkpt>
      <trkpt lat="47.20495" lon="6.7047">
        <ele>969</ele>
        <time>2018-07-01T10:04:35.000Z</time>
      </trkpt>
      <trkpt lat="47.20495" lon="6.70469">
        <ele>969</ele>
        <time>2018-07-01T10:04:36.000Z</time>
      </trkpt>
      <trkpt lat="47.20494" lon="6.70468">
        <ele>969</ele>
        <time>2018-07-01T10:04:37.000Z</time>
      </trkpt>
      <trkpt lat="47.20493" lon="6.70468">
        <ele>969</ele>
        <time>2018-07-01T10:04:38.000Z</time>
      </trkpt>
      <trkpt lat="47.20493" lon="6.70467">
        <ele>969</ele>
        <time>2018-07-01T10:04:39.000Z</time>
      </trkpt>
      <trkpt lat="47.20492" lon="6.70466">
        <ele>969</ele>
        <time>2018-07-01T10:04:40.000Z</time>
      </trkpt>
      <trkpt lat="47.20491" lon="6.70466">
        <ele>969</ele>
        <time>2018-07-01T10:04:41.000Z</time>
      </trkpt>
      <trkpt lat="47.2049" lon="6.70466">
        <ele>969</ele>
        <time>2018-07-01T10:04:42.000Z</time>
      </trkpt>
      <trkpt lat="47.20489" lon="6.70466">
        <ele>969</ele>
        <time>2018-07-01T10:04:43.000Z</time>
      </trkpt>
      <trkpt lat="47.20488" lon="6.70467">
        <ele>969</ele>
        <time>2018-07-01T10:04:44.000Z</time>
      </trkpt>
      <trkpt lat="47.20487" lon="6.70467">
        <ele>969</ele>
        <time>2018-07-01T10:04:45.000Z</time>
      </trkpt>
      <trkpt lat="47.20486" lon="6.70468">
        <ele>970</ele>
        <time>2018-07-01T10:04:46.000Z</time>
      </trkpt>
      <trkpt lat="47.20484" lon="6.70468">
        <ele>970</ele>
        <time>2018-07-01T10:04:47.000Z</time>
      </trkpt>
      <trkpt lat="47.20483" lon="6.70468">
        <ele>970</ele>
        <time>2018-07-01T10:04:48.000Z</time>
      </trkpt>
      <trkpt lat="47.20481" lon="6.70469">
        <ele>970</ele>
        <time>2018-07-01T10:04:49.000Z</time>
      </trkpt>
      <trkpt lat="47.20479" lon="6.7047">
        <ele>970</ele>
        <time>2018-07-01T10:04:50.000Z</time>
      </trkpt>
      <trkpt lat="47.20478" lon="6.70471">
        <ele>970</ele>
        <time>2018-07-01T10:04:51.000Z</time>
      </trkpt>
      <trkpt lat="47.20476" lon="6.70472">
        <ele>970</ele>
        <time>2018-07-01T10:04:52.000Z</time>
      </trkpt>
      <trkpt lat="47.20473" lon="6.70473">
        <ele>970</ele>
        <time>2018-07-01T10:04:53.000Z</time>
      </trkpt>
      <trkpt lat="47.20471" lon="6.70473">
        <ele>970</ele>
        <time>2018-07-01T10:04:54.000Z</time>
      </trkpt>
      <trkpt lat="47.20468" lon="6.70474">
        <ele>970</ele>
        <time>2018-07-01T10:04:55.000Z</time>
      </trkpt>
      <trkpt lat="47.20466" lon="6.70474">
        <ele>970</ele>
        <time>2018-07-01T10:04:56.000Z</time>
      </trkpt>
      <trkpt lat="47.20463" lon="6.70474">
        <ele>970</ele>
        <time>2018-07-01T10:04:57.000Z</time>
      </trkpt>
      <trkpt lat="47.20461" lon="6.70475">
        <ele>970</ele>
        <time>2018-07-01T10:04:58.000Z</time>
      </trkpt>
      <trkpt lat="47.20459" lon="6.70475">
        <ele>971</ele>
        <time>2018-07-01T10:04:59.000Z</time>
      </trkpt>
      <trkpt lat="47.20457" lon="6.70476">
        <ele>971</ele>
        <time>2018-07-01T10:05:00.000Z</time>
      </trkpt>
      <trkpt lat="47.20456" lon="6.70476">
        <ele>971</ele>
        <time>2018-07-01T10:05:01.000Z</time>
      </trkpt>
      <trkpt lat="47.20454" lon="6.70475">
        <ele>971</ele>
        <time>2018-07-01T10:05:02.000Z</time>
      </trkpt>
      <trkpt lat="47.20453" lon="6.70474">
        <ele>971</ele>
        <time>2018-07-01T10:05:03.000Z</time>
      </trkpt>
      <trkpt lat="47.20452" lon="6.70474">
        <ele>971</ele>
        <time>2018-07-01T10:05:04.000Z</time>
      </trkpt>
      <trkpt lat="47.20451" lon="6.70473">
        <ele>971</ele>
        <time>2018-07-01T10:05:05.000Z</time>
      </trkpt>
      <trkpt lat="47.2045" lon="6.70472">
        <ele>971</ele>
        <time>2018-07-01T10:05:06.000Z</time>
      </trkpt>
      <trkpt lat="47.20448" lon="6.70472">
        <ele>971</ele>
        <time>2018-07-01T10:05:07.000Z</time>
      </trkpt>
      <trkpt lat="47.20445" lon="6.70471">
        <ele>971</ele>
        <time>2018-07-01T10:05:08.000Z</time>
      </trkpt>
      <trkpt lat="47.20443" lon="6.7047">
        <ele>971</ele>
        <time>2018-07-01T10:05:09.000Z</time>
      </trkpt>
      <trkpt lat="47.2044" lon="6.70469">
        <ele>971</ele>
        <time>2018-07-01T10:05:10.000Z</time>
      </trkpt>
      <trkpt lat="47.20437" lon="6.70468">
        <ele>971</ele>
        <time>2018-07-01T10:05:11.000Z</time>
      </trkpt>
      <trkpt lat="47.20434" lon="6.70467">
        <ele>971</ele>
        <time>2018-07-01T10:05:12.000Z</time>
      </trkpt>
      <trkpt lat="47.20431" lon="6.70466">
        <ele>971</ele>
        <time>2018-07-01T10:05:13.000Z</time>
      </trkpt>
      <trkpt lat="47.20428" lon="6.70465">
        <ele>971</ele>
        <time>2018-07-01T10:05:14.000Z</time>
      </trkpt>
      <trkpt lat="47.20425" lon="6.70464">
        <ele>971</ele>
        <time>2018-07-01T10:05:15.000Z</time>
      </trkpt>
      <trkpt lat="47.20422" lon="6.70462">
        <ele>971</ele>
        <time>2018-07-01T10:05:16.000Z</time>
      </trkpt>
      <trkpt lat="47.2042" lon="6.70461">
        <ele>971</ele>
        <time>2018-07-01T10:05:17.000Z</time>
      </trkpt>
      <trkpt lat="47.20417" lon="6.70459">
        <ele>971</ele>
        <time>2018-07-01T10:05:18.000Z</time>
      </trkpt>
      <trkpt lat="47.20414" lon="6.70458">
        <ele>973</ele>
        <time>2018-07-01T10:05:19.000Z</time>
      </trkpt>
      <trkpt lat="47.20411" lon="6.70456">
        <ele>973</ele>
        <time>2018-07-01T10:05:20.000Z</time>
      </trkpt>
      <trkpt lat="47.20408" lon="6.70455">
        <ele>973</ele>
        <time>2018-07-01T10:05:21.000Z</time>
      </trkpt>
      <trkpt lat="47.20405" lon="6.70453">
        <ele>973</ele>
        <time>2018-07-01T10:05:22.000Z</time>
      </trkpt>
      <trkpt lat="47.20402" lon="6.70452">
        <ele>973</ele>
        <time>2018-07-01T10:05:23.000Z</time>
      </trkpt>
      <trkpt lat="47.20399" lon="6.70451">
        <ele>973</ele>
        <time>2018-07-01T10:05:24.000Z</time>
      </trkpt>
      <trkpt lat="47.20396" lon="6.7045">
        <ele>973</ele>
        <time>2018-07-01T10:05:25.000Z</time>
      </trkpt>
      <trkpt lat="47.20394" lon="6.70449">
        <ele>973</ele>
        <time>2018-07-01T10:05:26.000Z</time>
      </trkpt>
      <trkpt lat="47.20391" lon="6.70448">
        <ele>973</ele>
        <time>2018-07-01T10:05:27.000Z</time>
      </trkpt>
      <trkpt lat="47.20388" lon="6.70447">
        <ele>973</ele>
        <time>2018-07-01T10:05:28.000Z</time>
      </trkpt>
      <trkpt lat="47.20385" lon="6.70445">
        <ele>973</ele>
        <time>2018-07-01T10:05:29.000Z</time>
      </trkpt>
      <trkpt lat="47.20382" lon="6.70443">
        <ele>973</ele>
        <time>2018-07-01T10:05:30.000Z</time>
      </trkpt>
      <trkpt lat="47.20379" lon="6.70441">
        <ele>973</ele>
        <time>2018-07-01T10:05:31.000Z</time>
      </trkpt>
      <trkpt lat="47.20377" lon="6.70439">
        <ele>973</ele>
        <time>2018-07-01T10:05:32.000Z</time>
      </trkpt>
      <trkpt lat="47.20374" lon="6.70437">
        <ele>974</ele>
        <time>2018-07-01T10:05:33.000Z</time>
      </trkpt>
      <trkpt lat="47.20371" lon="6.70434">
        <ele>974</ele>
        <time>2018-07-01T10:05:34.000Z</time>
      </trkpt>
      <trkpt lat="47.20369" lon="6.70432">
        <ele>974</ele>
        <time>2018-07-01T10:05:35.000Z</time>
      </trkpt>
      <trkpt lat="47.20366" lon="6.70431">
        <ele>974</ele>
        <time>2018-07-01T10:05:36.000Z</time>
      </trkpt>
      <trkpt lat="47.20364" lon="6.70429">
        <ele>974</ele>
        <time>2018-07-01T10:05:37.000Z</time>
      </trkpt>
      <trkpt lat="47.20361" lon="6.70427">
        <ele>974</ele>
        <time>2018-07-01T10:05:38.000Z</time>
      </trkpt>
      <trkpt lat="47.20359" lon="6.70426">
        <ele>974</ele>
        <time>2018-07-01T10:05:39.000Z</time>
      </trkpt>
      <trkpt lat="47.20356" lon="6.70425">
        <ele>974</ele>
        <time>2018-07-01T10:05:40.000Z</time>
      </trkpt>
      <trkpt lat="47.20354" lon="6.70424">
        <ele>974</ele>
        <time>2018-07-01T10:05:41.000Z</time>
      </trkpt>
      <trkpt lat="47.20351" lon="6.70422">
        <ele>974</ele>
        <time>2018-07-01T10:05:42.000Z</time>
      </trkpt>
      <trkpt lat="47.20349" lon="6.70421">
        <ele>974</ele>
        <time>2018-07-01T10:05:43.000Z</time>
      </trkpt>
      <trkpt lat="47.20346" lon="6.70419">
        <ele>974</ele>
        <time>2018-07-01T10:05:44.000Z</time>
      </trkpt>
      <trkpt lat="47.20343" lon="6.70417">
        <ele>974</ele>
        <time>2018-07-01T10:05:45.000Z</time>
      </trkpt>
      <trkpt lat="47.20341" lon="6.70415">
        <ele>974</ele>
        <time>2018-07-01T10:05:46.000Z</time>
      </trkpt>
      <trkpt lat="47.20338" lon="6.70413">
        <ele>974</ele>
        <time>2018-07-01T10:05:47.000Z</time>
      </trkpt>
      <trkpt lat="47.20336" lon="6.70411">
        <ele>974</ele>
        <time>2018-07-01T10:05:48.000Z</time>
      </trkpt>
      <trkpt lat="47.20333" lon="6.70409">
        <ele>974</ele>
        <time>2018-07-01T10:05:49.000Z</time>
      </trkpt>
      <trkpt lat="47.2033" lon="6.70407">
        <ele>974</ele>
        <time>2018-07-01T10:05:50.000Z</time>
      </trkpt>
      <trkpt lat="47.20327" lon="6.70406">
        <ele>974</ele>
        <time>2018-07-01T10:05:51.000Z</time>
      </trkpt>
      <trkpt lat="47.20324" lon="6.70404">
        <ele>974</ele>
        <time>2018-07-01T10:05:52.000Z</time>
      </trkpt>
      <trkpt lat="47.20322" lon="6.70401">
        <ele>974</ele>
        <time>2018-07-01T10:05:53.000Z</time>
      </trkpt>
      <trkpt lat="47.20319" lon="6.70399">
        <ele>973</ele>
        <time>2018-07-01T10:05:54.000Z</time>
      </trkpt>
      <trkpt lat="47.20316" lon="6.70398">
        <ele>973</ele>
        <time>2018-07-01T10:05:55.000Z</time>
      </trkpt>
      <trkpt lat="47.20313" lon="6.70396">
        <ele>973</ele>
        <time>2018-07-01T10:05:56.000Z</time>
      </trkpt>
      <trkpt lat="47.20311" lon="6.70394">
        <ele>973</ele>
        <time>2018-07-01T10:05:57.000Z</time>
      </trkpt>
      <trkpt lat="47.20308" lon="6.70393">
        <ele>973</ele>
        <time>2018-07-01T10:05:58.000Z</time>
      </trkpt>
      <trkpt lat="47.20306" lon="6.70391">
        <ele>973</ele>
        <time>2018-07-01T10:05:59.000Z</time>
      </trkpt>
      <trkpt lat="47.20303" lon="6.70389">
        <ele>973</ele>
        <time>2018-07-01T10:06:00.000Z</time>
      </trkpt>
      <trkpt lat="47.20301" lon="6.70387">
        <ele>973</ele>
        <time>2018-07-01T10:06:01.000Z</time>
      </trkpt>
      <trkpt lat="47.20299" lon="6.70386">
        <ele>973</ele>
        <time>2018-07-01T10:06:02.000Z</time>
      </trkpt>
      <trkpt lat="47.20297" lon="6.70384">
        <ele>973</ele>
        <time>2018-07-01T10:06:03.000Z</time>
      </trkpt>
      <trkpt lat="47.20294" lon="6.70381">
        <ele>973</ele>
        <time>2018-07-01T10:06:04.000Z</time>
      </trkpt>
      <trkpt lat="47.20292" lon="6.70379">
        <ele>973</ele>
        <time>2018-07-01T10:06:05.000Z</time>
      </trkpt>
      <trkpt lat="47.2029" lon="6.70377">
        <ele>973</ele>
        <time>2018-07-01T10:06:06.000Z</time>
      </trkpt>
      <trkpt lat="47.20288" lon="6.70375">
        <ele>972</ele>
        <time>2018-07-01T10:06:07.000Z</time>
      </trkpt>
      <trkpt lat="47.20286" lon="6.70373">
        <ele>972</ele>
        <time>2018-07-01T10:06:08.000Z</time>
      </trkpt>
      <trkpt lat="47.20283" lon="6.7037">
        <ele>972</ele>
        <time>2018-07-01T10:06:09.000Z</time>
      </trkpt>
      <trkpt lat="47.20282" lon="6.70368">
        <ele>972</ele>
        <time>2018-07-01T10:06:10.000Z</time>
      </trkpt>
      <trkpt lat="47.2028" lon="6.70366">
        <ele>972</ele>
        <time>2018-07-01T10:06:11.000Z</time>
      </trkpt>
      <trkpt lat="47.20278" lon="6.70365">
        <ele>972</ele>
        <time>2018-07-01T10:06:12.000Z</time>
      </trkpt>
      <trkpt lat="47.20277" lon="6.70364">
        <ele>972</ele>
        <time>2018-07-01T10:06:13.000Z</time>
      </trkpt>
      <trkpt lat="47.20275" lon="6.70363">
        <ele>972</ele>
        <time>2018-07-01T10:06:14.000Z</time>
      </trkpt>
      <trkpt lat="47.20274" lon="6.70362">
        <ele>972</ele>
        <time>2018-07-01T10:06:15.000Z</time>
      </trkpt>
      <trkpt lat="47.20272" lon="6.7036">
        <ele>972</ele>
        <time>2018-07-01T10:06:16.000Z</time>
      </trkpt>
      <trkpt lat="47.2027" lon="6.70357">
        <ele>972</ele>
        <time>2018-07-01T10:06:17.000Z</time>
      </trkpt>
      <trkpt lat="47.20267" lon="6.70355">
        <ele>972</ele>
        <time>2018-07-01T10:06:18.000Z</time>
      </trkpt>
      <trkpt lat="47.20265" lon="6.70353">
        <ele>972</ele>
        <time>2018-07-01T10:06:19.000Z</time>
      </trkpt>
      <trkpt lat="47.20262" lon="6.7035">
        <ele>972</ele>
        <time>2018-07-01T10:06:20.000Z</time>
      </trkpt>
      <trkpt lat="47.20259" lon="6.70348">
        <ele>972</ele>
        <time>2018-07-01T10:06:21.000Z</time>
      </trkpt>
      <trkpt lat="47.20257" lon="6.70345">
        <ele>972</ele>
        <time>2018-07-01T10:06:22.000Z</time>
      </trkpt>
      <trkpt lat="47.20254" lon="6.70343">
        <ele>972</ele>
        <time>2018-07-01T10:06:23.000Z</time>
      </trkpt>
      <trkpt lat="47.20252" lon="6.7034">
        <ele>972</ele>
        <time>2018-07-01T10:06:24.000Z</time>
      </trkpt>
      <trkpt lat="47.2025" lon="6.70337">
        <ele>972</ele>
        <time>2018-07-01T10:06:25.000Z</time>
      </trkpt>
      <trkpt lat="47.20248" lon="6.70335">
        <ele>972</ele>
        <time>2018-07-01T10:06:26.000Z</time>
      </trkpt>
      <trkpt lat="47.20246" lon="6.70332">
        <ele>971</ele>
        <time>2018-07-01T10:06:27.000Z</time>
      </trkpt>
      <trkpt lat="47.20244" lon="6.70329">
        <ele>971</ele>
        <time>2018-07-01T10:06:28.000Z</time>
      </trkpt>
      <trkpt lat="47.20242" lon="6.70327">
        <ele>971</ele>
        <time>2018-07-01T10:06:29.000Z</time>
      </trkpt>
      <trkpt lat="47.2024" lon="6.70324">
        <ele>970</ele>
        <time>2018-07-01T10:06:30.000Z</time>
      </trkpt>
      <trkpt lat="47.20238" lon="6.70321">
        <ele>970</ele>
        <time>2018-07-01T10:06:31.000Z</time>
      </trkpt>
      <trkpt lat="47.20235" lon="6.70319">
        <ele>970</ele>
        <time>2018-07-01T10:06:32.000Z</time>
      </trkpt>
      <trkpt lat="47.20233" lon="6.70316">
        <ele>970</ele>
        <time>2018-07-01T10:06:33.000Z</time>
      </trkpt>
      <trkpt lat="47.2023" lon="6.70313">
        <ele>969</ele>
        <time>2018-07-01T10:06:34.000Z</time>
      </trkpt>
      <trkpt lat="47.20227" lon="6.7031">
        <ele>969</ele>
        <time>2018-07-01T10:06:35.000Z</time>
      </trkpt>
      <trkpt lat="47.20225" lon="6.70308">
        <ele>969</ele>
        <time>2018-07-01T10:06:36.000Z</time>
      </trkpt>
      <trkpt lat="47.20222" lon="6.70305">
        <ele>969</ele>
        <time>2018-07-01T10:06:37.000Z</time>
      </trkpt>
      <trkpt lat="47.2022" lon="6.70302">
        <ele>969</ele>
        <time>2018-07-01T10:06:38.000Z</time>
      </trkpt>
      <trkpt lat="47.20217" lon="6.70299">
        <ele>969</ele>
        <time>2018-07-01T10:06:39.000Z</time>
      </trkpt>
      <trkpt lat="47.20215" lon="6.70296">
        <ele>969</ele>
        <time>2018-07-01T10:06:40.000Z</time>
      </trkpt>
      <trkpt lat="47.20213" lon="6.70293">
        <ele>969</ele>
        <time>2018-07-01T10:06:41.000Z</time>
      </trkpt>
      <trkpt lat="47.2021" lon="6.7029">
        <ele>969</ele>
        <time>2018-07-01T10:06:42.000Z</time>
      </trkpt>
      <trkpt lat="47.20208" lon="6.70287">
        <ele>968</ele>
        <time>2018-07-01T10:06:43.000Z</time>
      </trkpt>
      <trkpt lat="47.20206" lon="6.70284">
        <ele>968</ele>
        <time>2018-07-01T10:06:44.000Z</time>
      </trkpt>
      <trkpt lat="47.20204" lon="6.70282">
        <ele>968</ele>
        <time>2018-07-01T10:06:45.000Z</time>
      </trkpt>
      <trkpt lat="47.20201" lon="6.70279">
        <ele>968</ele>
        <time>2018-07-01T10:06:46.000Z</time>
      </trkpt>
      <trkpt lat="47.20199" lon="6.70278">
        <ele>968</ele>
        <time>2018-07-01T10:06:47.000Z</time>
      </trkpt>
      <trkpt lat="47.20196" lon="6.70276">
        <ele>968</ele>
        <time>2018-07-01T10:06:48.000Z</time>
      </trkpt>
      <trkpt lat="47.20193" lon="6.70274">
        <ele>968</ele>
        <time>2018-07-01T10:06:49.000Z</time>
      </trkpt>
      <trkpt lat="47.2019" lon="6.70272">
        <ele>968</ele>
        <time>2018-07-01T10:06:50.000Z</time>
      </trkpt>
      <trkpt lat="47.20188" lon="6.70269">
        <ele>968</ele>
        <time>2018-07-01T10:06:51.000Z</time>
      </trkpt>
      <trkpt lat="47.20185" lon="6.70266">
        <ele>968</ele>
        <time>2018-07-01T10:06:52.000Z</time>
      </trkpt>
      <trkpt lat="47.20183" lon="6.70263">
        <ele>968</ele>
        <time>2018-07-01T10:06:53.000Z</time>
      </trkpt>
      <trkpt lat="47.2018" lon="6.70259">
        <ele>968</ele>
        <time>2018-07-01T10:06:54.000Z</time>
      </trkpt>
      <trkpt lat="47.20178" lon="6.70255">
        <ele>968</ele>
        <time>2018-07-01T10:06:55.000Z</time>
      </trkpt>
      <trkpt lat="47.20176" lon="6.70251">
        <ele>967</ele>
        <time>2018-07-01T10:06:56.000Z</time>
      </trkpt>
      <trkpt lat="47.20174" lon="6.70247">
        <ele>966</ele>
        <time>2018-07-01T10:06:57.000Z</time>
      </trkpt>
      <trkpt lat="47.20173" lon="6.70243">
        <ele>966</ele>
        <time>2018-07-01T10:06:58.000Z</time>
      </trkpt>
      <trkpt lat="47.20171" lon="6.7024">
        <ele>966</ele>
        <time>2018-07-01T10:06:59.000Z</time>
      </trkpt>
      <trkpt lat="47.20171" lon="6.70238">
        <ele>966</ele>
        <time>2018-07-01T10:07:00.000Z</time>
      </trkpt>
      <trkpt lat="47.20172" lon="6.70236">
        <ele>966</ele>
        <time>2018-07-01T10:07:01.000Z</time>
      </trkpt>
      <trkpt lat="47.20173" lon="6.70233">
        <ele>965</ele>
        <time>2018-07-01T10:07:02.000Z</time>
      </trkpt>
      <trkpt lat="47.20175" lon="6.7023">
        <ele>965</ele>
        <time>2018-07-01T10:07:03.000Z</time>
      </trkpt>
      <trkpt lat="47.20177" lon="6.70226">
        <ele>965</ele>
        <time>2018-07-01T10:07:04.000Z</time>
      </trkpt>
      <trkpt lat="47.20178" lon="6.70222">
        <ele>965</ele>
        <time>2018-07-01T10:07:05.000Z</time>
      </trkpt>
      <trkpt lat="47.2018" lon="6.70218">
        <ele>964</ele>
        <time>2018-07-01T10:07:06.000Z</time>
      </trkpt>
      <trkpt lat="47.20182" lon="6.70213">
        <ele>964</ele>
        <time>2018-07-01T10:07:07.000Z</time>
      </trkpt>
      <trkpt lat="47.20184" lon="6.70207">
        <ele>964</ele>
        <time>2018-07-01T10:07:08.000Z</time>
      </trkpt>
      <trkpt lat="47.20185" lon="6.70202">
        <ele>964</ele>
        <time>2018-07-01T10:07:09.000Z</time>
      </trkpt>
      <trkpt lat="47.20187" lon="6.70197">
        <ele>963</ele>
        <time>2018-07-01T10:07:10.000Z</time>
      </trkpt>
      <trkpt lat="47.20188" lon="6.70192">
        <ele>963</ele>
        <time>2018-07-01T10:07:11.000Z</time>
      </trkpt>
      <trkpt lat="47.2019" lon="6.70187">
        <ele>963</ele>
        <time>2018-07-01T10:07:12.000Z</time>
      </trkpt>
      <trkpt lat="47.20191" lon="6.70181">
        <ele>963</ele>
        <time>2018-07-01T10:07:13.000Z</time>
      </trkpt>
      <trkpt lat="47.20193" lon="6.70176">
        <ele>962</ele>
        <time>2018-07-01T10:07:14.000Z</time>
      </trkpt>
      <trkpt lat="47.20194" lon="6.7017">
        <ele>962</ele>
        <time>2018-07-01T10:07:15.000Z</time>
      </trkpt>
      <trkpt lat="47.20195" lon="6.70165">
        <ele>958</ele>
        <time>2018-07-01T10:07:16.000Z</time>
      </trkpt>
      <trkpt lat="47.20197" lon="6.7016">
        <ele>958</ele>
        <time>2018-07-01T10:07:17.000Z</time>
      </trkpt>
      <trkpt lat="47.20198" lon="6.70156">
        <ele>958</ele>
        <time>2018-07-01T10:07:18.000Z</time>
      </trkpt>
      <trkpt lat="47.20199" lon="6.70151">
        <ele>958</ele>
        <time>2018-07-01T10:07:19.000Z</time>
      </trkpt>
      <trkpt lat="47.202" lon="6.70146">
        <ele>958</ele>
        <time>2018-07-01T10:07:20.000Z</time>
      </trkpt>
      <trkpt lat="47.202" lon="6.70142">
        <ele>957</ele>
        <time>2018-07-01T10:07:21.000Z</time>
      </trkpt>
      <trkpt lat="47.202" lon="6.70139">
        <ele>957</ele>
        <time>2018-07-01T10:07:22.000Z</time>
      </trkpt>
      <trkpt lat="47.20198" lon="6.70136">
        <ele>957</ele>
        <time>2018-07-01T10:07:23.000Z</time>
      </trkpt>
      <trkpt lat="47.20196" lon="6.70134">
        <ele>957</ele>
        <time>2018-07-01T10:07:24.000Z</time>
      </trkpt>
      <trkpt lat="47.20193" lon="6.70132">
        <ele>957</ele>
        <time>2018-07-01T10:07:25.000Z</time>
      </trkpt>
      <trkpt lat="47.20189" lon="6.70131">
        <ele>957</ele>
        <time>2018-07-01T10:07:26.000Z</time>
      </trkpt>
      <trkpt lat="47.20186" lon="6.7013">
        <ele>957</ele>
        <time>2018-07-01T10:07:27.000Z</time>
      </trkpt>
      <trkpt lat="47.20182" lon="6.70129">
        <ele>957</ele>
        <time>2018-07-01T10:07:28.000Z</time>
      </trkpt>
      <trkpt lat="47.20179" lon="6.70128">
        <ele>957</ele>
        <time>2018-07-01T10:07:29.000Z</time>
      </trkpt>
      <trkpt lat="47.20175" lon="6.70127">
        <ele>957</ele>
        <time>2018-07-01T10:07:30.000Z</time>
      </trkpt>
      <trkpt lat="47.20171" lon="6.70127">
        <ele>957</ele>
        <time>2018-07-01T10:07:31.000Z</time>
      </trkpt>
      <trkpt lat="47.20168" lon="6.70127">
        <ele>957</ele>
        <time>2018-07-01T10:07:32.000Z</time>
      </trkpt>
      <trkpt lat="47.20164" lon="6.70127">
        <ele>953</ele>
        <time>2018-07-01T10:07:33.000Z</time>
      </trkpt>
      <trkpt lat="47.2016" lon="6.70126">
        <ele>953</ele>
        <time>2018-07-01T10:07:34.000Z</time>
      </trkpt>
      <trkpt lat="47.20158" lon="6.70124">
        <ele>953</ele>
        <time>2018-07-01T10:07:35.000Z</time>
      </trkpt>
      <trkpt lat="47.20155" lon="6.70121">
        <ele>953</ele>
        <time>2018-07-01T10:07:36.000Z</time>
      </trkpt>
      <trkpt lat="47.20154" lon="6.70117">
        <ele>953</ele>
        <time>2018-07-01T10:07:37.000Z</time>
      </trkpt>
      <trkpt lat="47.20153" lon="6.70112">
        <ele>953</ele>
        <time>2018-07-01T10:07:38.000Z</time>
      </trkpt>
      <trkpt lat="47.20152" lon="6.70108">
        <ele>952</ele>
        <time>2018-07-01T10:07:39.000Z</time>
      </trkpt>
      <trkpt lat="47.20151" lon="6.70102">
        <ele>952</ele>
        <time>2018-07-01T10:07:40.000Z</time>
      </trkpt>
      <trkpt lat="47.20151" lon="6.70097">
        <ele>952</ele>
        <time>2018-07-01T10:07:41.000Z</time>
      </trkpt>
      <trkpt lat="47.2015" lon="6.70093">
        <ele>952</ele>
        <time>2018-07-01T10:07:42.000Z</time>
      </trkpt>
      <trkpt lat="47.2015" lon="6.70088">
        <ele>952</ele>
        <time>2018-07-01T10:07:43.000Z</time>
      </trkpt>
      <trkpt lat="47.2015" lon="6.70083">
        <ele>950</ele>
        <time>2018-07-01T10:07:44.000Z</time>
      </trkpt>
      <trkpt lat="47.20149" lon="6.70079">
        <ele>949</ele>
        <time>2018-07-01T10:07:45.000Z</time>
      </trkpt>
      <trkpt lat="47.20148" lon="6.70074">
        <ele>949</ele>
        <time>2018-07-01T10:07:46.000Z</time>
      </trkpt>
      <trkpt lat="47.20148" lon="6.7007">
        <ele>949</ele>
        <time>2018-07-01T10:07:47.000Z</time>
      </trkpt>
      <trkpt lat="47.20147" lon="6.70067">
        <ele>948</ele>
        <time>2018-07-01T10:07:48.000Z</time>
      </trkpt>
      <trkpt lat="47.20146" lon="6.70063">
        <ele>948</ele>
        <time>2018-07-01T10:07:49.000Z</time>
      </trkpt>
      <trkpt lat="47.20145" lon="6.70059">
        <ele>948</ele>
        <time>2018-07-01T10:07:50.000Z</time>
      </trkpt>
      <trkpt lat="47.20144" lon="6.70055">
        <ele>948</ele>
        <time>2018-07-01T10:07:51.000Z</time>
      </trkpt>
      <trkpt lat="47.20143" lon="6.70051">
        <ele>947</ele>
        <time>2018-07-01T10:07:52.000Z</time>
      </trkpt>
      <trkpt lat="47.20142" lon="6.70048">
        <ele>947</ele>
        <time>2018-07-01T10:07:53.000Z</time>
      </trkpt>
      <trkpt lat="47.20141" lon="6.70044">
        <ele>947</ele>
        <time>2018-07-01T10:07:54.000Z</time>
      </trkpt>
      <trkpt lat="47.2014" lon="6.7004">
        <ele>947</ele>
        <time>2018-07-01T10:07:55.000Z</time>
      </trkpt>
      <trkpt lat="47.20138" lon="6.70036">
        <ele>946</ele>
        <time>2018-07-01T10:07:56.000Z</time>
      </trkpt>
      <trkpt lat="47.20137" lon="6.70031">
        <ele>946</ele>
        <time>2018-07-01T10:07:57.000Z</time>
      </trkpt>
      <trkpt lat="47.20135" lon="6.70026">
        <ele>946</ele>
        <time>2018-07-01T10:07:58.000Z</time>
      </trkpt>
      <trkpt lat="47.20134" lon="6.70022">
        <ele>946</ele>
        <time>2018-07-01T10:07:59.000Z</time>
      </trkpt>
      <trkpt lat="47.20132" lon="6.70018">
        <ele>946</ele>
        <time>2018-07-01T10:08:00.000Z</time>
      </trkpt>
      <trkpt lat="47.2013" lon="6.70013">
        <ele>945</ele>
        <time>2018-07-01T10:08:01.000Z</time>
      </trkpt>
      <trkpt lat="47.20128" lon="6.70009">
        <ele>945</ele>
        <time>2018-07-01T10:08:02.000Z</time>
      </trkpt>
      <trkpt lat="47.20127" lon="6.70004">
        <ele>945</ele>
        <time>2018-07-01T10:08:03.000Z</time>
      </trkpt>
      <trkpt lat="47.20125" lon="6.69999">
        <ele>942</ele>
        <time>2018-07-01T10:08:04.000Z</time>
      </trkpt>
      <trkpt lat="47.20123" lon="6.69995">
        <ele>942</ele>
        <time>2018-07-01T10:08:05.000Z</time>
      </trkpt>
      <trkpt lat="47.20122" lon="6.6999">
        <ele>942</ele>
        <time>2018-07-01T10:08:06.000Z</time>
      </trkpt>
      <trkpt lat="47.2012" lon="6.69986">
        <ele>942</ele>
        <time>2018-07-01T10:08:07.000Z</time>
      </trkpt>
      <trkpt lat="47.20118" lon="6.69982">
        <ele>942</ele>
        <time>2018-07-01T10:08:08.000Z</time>
      </trkpt>
      <trkpt lat="47.20116" lon="6.69977">
        <ele>942</ele>
        <time>2018-07-01T10:08:09.000Z</time>
      </trkpt>
      <trkpt lat="47.20114" lon="6.69973">
        <ele>942</ele>
        <time>2018-07-01T10:08:10.000Z</time>
      </trkpt>
      <trkpt lat="47.20112" lon="6.69969">
        <ele>942</ele>
        <time>2018-07-01T10:08:11.000Z</time>
      </trkpt>
      <trkpt lat="47.2011" lon="6.69965">
        <ele>942</ele>
        <time>2018-07-01T10:08:12.000Z</time>
      </trkpt>
      <trkpt lat="47.20108" lon="6.6996">
        <ele>942</ele>
        <time>2018-07-01T10:08:13.000Z</time>
      </trkpt>
      <trkpt lat="47.20106" lon="6.69956">
        <ele>942</ele>
        <time>2018-07-01T10:08:14.000Z</time>
      </trkpt>
      <trkpt lat="47.20104" lon="6.69952">
        <ele>942</ele>
        <time>2018-07-01T10:08:15.000Z</time>
      </trkpt>
      <trkpt lat="47.20102" lon="6.69948">
        <ele>942</ele>
        <time>2018-07-01T10:08:16.000Z</time>
      </trkpt>
      <trkpt lat="47.201" lon="6.69944">
        <ele>942</ele>
        <time>2018-07-01T10:08:17.000Z</time>
      </trkpt>
      <trkpt lat="47.20097" lon="6.6994">
        <ele>942</ele>
        <time>2018-07-01T10:08:18.000Z</time>
      </trkpt>
      <trkpt lat="47.20095" lon="6.69936">
        <ele>942</ele>
        <time>2018-07-01T10:08:19.000Z</time>
      </trkpt>
      <trkpt lat="47.20093" lon="6.69932">
        <ele>942</ele>
        <time>2018-07-01T10:08:20.000Z</time>
      </trkpt>
      <trkpt lat="47.20091" lon="6.69927">
        <ele>942</ele>
        <time>2018-07-01T10:08:21.000Z</time>
      </trkpt>
      <trkpt lat="47.20089" lon="6.69923">
        <ele>942</ele>
        <time>2018-07-01T10:08:22.000Z</time>
      </trkpt>
      <trkpt lat="47.20087" lon="6.69919">
        <ele>942</ele>
        <time>2018-07-01T10:08:23.000Z</time>
      </trkpt>
      <trkpt lat="47.20085" lon="6.69915">
        <ele>942</ele>
        <time>2018-07-01T10:08:24.000Z</time>
      </trkpt>
      <trkpt lat="47.20083" lon="6.69911">
        <ele>942</ele>
        <time>2018-07-01T10:08:25.000Z</time>
      </trkpt>
      <trkpt lat="47.2008" lon="6.69907">
        <ele>941</ele>
        <time>2018-07-01T10:08:26.000Z</time>
      </trkpt>
      <trkpt lat="47.20078" lon="6.69904">
        <ele>941</ele>
        <time>2018-07-01T10:08:27.000Z</time>
      </trkpt>
      <trkpt lat="47.20076" lon="6.699">
        <ele>941</ele>
        <time>2018-07-01T10:08:28.000Z</time>
      </trkpt>
      <trkpt lat="47.20074" lon="6.69896">
        <ele>941</ele>
        <time>2018-07-01T10:08:29.000Z</time>
      </trkpt>
      <trkpt lat="47.20072" lon="6.69892">
        <ele>941</ele>
        <time>2018-07-01T10:08:30.000Z</time>
      </trkpt>
      <trkpt lat="47.2007" lon="6.69888">
        <ele>941</ele>
        <time>2018-07-01T10:08:31.000Z</time>
      </trkpt>
      <trkpt lat="47.20067" lon="6.69884">
        <ele>941</ele>
        <time>2018-07-01T10:08:32.000Z</time>
      </trkpt>
      <trkpt lat="47.20064" lon="6.6988">
        <ele>941</ele>
        <time>2018-07-01T10:08:33.000Z</time>
      </trkpt>
      <trkpt lat="47.20062" lon="6.69877">
        <ele>941</ele>
        <time>2018-07-01T10:08:34.000Z</time>
      </trkpt>
      <trkpt lat="47.20059" lon="6.69874">
        <ele>941</ele>
        <time>2018-07-01T10:08:35.000Z</time>
      </trkpt>
      <trkpt lat="47.20057" lon="6.69871">
        <ele>941</ele>
        <time>2018-07-01T10:08:36.000Z</time>
      </trkpt>
      <trkpt lat="47.20055" lon="6.69867">
        <ele>941</ele>
        <time>2018-07-01T10:08:37.000Z</time>
      </trkpt>
      <trkpt lat="47.20053" lon="6.69864">
        <ele>941</ele>
        <time>2018-07-01T10:08:38.000Z</time>
      </trkpt>
      <trkpt lat="47.20051" lon="6.6986">
        <ele>941</ele>
        <time>2018-07-01T10:08:39.000Z</time>
      </trkpt>
      <trkpt lat="47.20049" lon="6.69857">
        <ele>941</ele>
        <time>2018-07-01T10:08:40.000Z</time>
      </trkpt>
      <trkpt lat="47.20047" lon="6.69853">
        <ele>941</ele>
        <time>2018-07-01T10:08:41.000Z</time>
      </trkpt>
      <trkpt lat="47.20045" lon="6.69849">
        <ele>941</ele>
        <time>2018-07-01T10:08:42.000Z</time>
      </trkpt>
      <trkpt lat="47.20044" lon="6.69844">
        <ele>941</ele>
        <time>2018-07-01T10:08:43.000Z</time>
      </trkpt>
      <trkpt lat="47.20042" lon="6.69839">
        <ele>941</ele>
        <time>2018-07-01T10:08:44.000Z</time>
      </trkpt>
      <trkpt lat="47.20041" lon="6.69834">
        <ele>941</ele>
        <time>2018-07-01T10:08:45.000Z</time>
      </trkpt>
      <trkpt lat="47.2004" lon="6.69829">
        <ele>941</ele>
        <time>2018-07-01T10:08:46.000Z</time>
      </trkpt>
      <trkpt lat="47.20038" lon="6.69824">
        <ele>940</ele>
        <time>2018-07-01T10:08:47.000Z</time>
      </trkpt>
      <trkpt lat="47.20037" lon="6.69819">
        <ele>940</ele>
        <time>2018-07-01T10:08:48.000Z</time>
      </trkpt>
      <trkpt lat="47.20036" lon="6.69814">
        <ele>940</ele>
        <time>2018-07-01T10:08:49.000Z</time>
      </trkpt>
      <trkpt lat="47.20035" lon="6.69809">
        <ele>940</ele>
        <time>2018-07-01T10:08:50.000Z</time>
      </trkpt>
      <trkpt lat="47.20034" lon="6.69803">
        <ele>940</ele>
        <time>2018-07-01T10:08:51.000Z</time>
      </trkpt>
      <trkpt lat="47.20033" lon="6.69798">
        <ele>940</ele>
        <time>2018-07-01T10:08:52.000Z</time>
      </trkpt>
      <trkpt lat="47.20032" lon="6.69793">
        <ele>940</ele>
        <time>2018-07-01T10:08:53.000Z</time>
      </trkpt>
      <trkpt lat="47.20031" lon="6.69788">
        <ele>940</ele>
        <time>2018-07-01T10:08:54.000Z</time>
      </trkpt>
      <trkpt lat="47.2003" lon="6.69783">
        <ele>940</ele>
        <time>2018-07-01T10:08:55.000Z</time>
      </trkpt>
      <trkpt lat="47.20029" lon="6.69778">
        <ele>940</ele>
        <time>2018-07-01T10:08:56.000Z</time>
      </trkpt>
      <trkpt lat="47.20028" lon="6.69773">
        <ele>940</ele>
        <time>2018-07-01T10:08:57.000Z</time>
      </trkpt>
      <trkpt lat="47.20027" lon="6.69768">
        <ele>939</ele>
        <time>2018-07-01T10:08:58.000Z</time>
      </trkpt>
      <trkpt lat="47.20026" lon="6.69763">
        <ele>939</ele>
        <time>2018-07-01T10:08:59.000Z</time>
      </trkpt>
      <trkpt lat="47.20025" lon="6.69758">
        <ele>939</ele>
        <time>2018-07-01T10:09:00.000Z</time>
      </trkpt>
      <trkpt lat="47.20024" lon="6.69752">
        <ele>939</ele>
        <time>2018-07-01T10:09:01.000Z</time>
      </trkpt>
      <trkpt lat="47.20023" lon="6.69747">
        <ele>938</ele>
        <time>2018-07-01T10:09:02.000Z</time>
      </trkpt>
      <trkpt lat="47.20022" lon="6.69742">
        <ele>938</ele>
        <time>2018-07-01T10:09:03.000Z</time>
      </trkpt>
      <trkpt lat="47.20021" lon="6.69737">
        <ele>938</ele>
        <time>2018-07-01T10:09:04.000Z</time>
      </trkpt>
      <trkpt lat="47.2002" lon="6.69732">
        <ele>937</ele>
        <time>2018-07-01T10:09:05.000Z</time>
      </trkpt>
      <trkpt lat="47.20019" lon="6.69727">
        <ele>937</ele>
        <time>2018-07-01T10:09:06.000Z</time>
      </trkpt>
      <trkpt lat="47.20018" lon="6.69722">
        <ele>937</ele>
        <time>2018-07-01T10:09:07.000Z</time>
      </trkpt>
      <trkpt lat="47.20017" lon="6.69718">
        <ele>937</ele>
        <time>2018-07-01T10:09:08.000Z</time>
      </trkpt>
      <trkpt lat="47.20016" lon="6.69713">
        <ele>937</ele>
        <time>2018-07-01T10:09:09.000Z</time>
      </trkpt>
      <trkpt lat="47.20015" lon="6.69708">
        <ele>937</ele>
        <time>2018-07-01T10:09:10.000Z</time>
      </trkpt>
      <trkpt lat="47.20014" lon="6.69703">
        <ele>937</ele>
        <time>2018-07-01T10:09:11.000Z</time>
      </trkpt>
      <trkpt lat="47.20014" lon="6.69698">
        <ele>937</ele>
        <time>2018-07-01T10:09:12.000Z</time>
      </trkpt>
      <trkpt lat="47.20013" lon="6.69693">
        <ele>937</ele>
        <time>2018-07-01T10:09:13.000Z</time>
      </trkpt>
      <trkpt lat="47.20013" lon="6.69688">
        <ele>936</ele>
        <time>2018-07-01T10:09:14.000Z</time>
      </trkpt>
      <trkpt lat="47.20013" lon="6.69683">
        <ele>936</ele>
        <time>2018-07-01T10:09:15.000Z</time>
      </trkpt>
      <trkpt lat="47.20013" lon="6.69677">
        <ele>936</ele>
        <time>2018-07-01T10:09:16.000Z</time>
      </trkpt>
      <trkpt lat="47.20013" lon="6.69672">
        <ele>936</ele>
        <time>2018-07-01T10:09:17.000Z</time>
      </trkpt>
      <trkpt lat="47.20014" lon="6.69667">
        <ele>936</ele>
        <time>2018-07-01T10:09:18.000Z</time>
      </trkpt>
      <trkpt lat="47.20015" lon="6.69662">
        <ele>935</ele>
        <time>2018-07-01T10:09:19.000Z</time>
      </trkpt>
      <trkpt lat="47.20016" lon="6.69657">
        <ele>935</ele>
        <time>2018-07-01T10:09:20.000Z</time>
      </trkpt>
      <trkpt lat="47.20017" lon="6.69651">
        <ele>935</ele>
        <time>2018-07-01T10:09:21.000Z</time>
      </trkpt>
      <trkpt lat="47.20019" lon="6.69647">
        <ele>935</ele>
        <time>2018-07-01T10:09:22.000Z</time>
      </trkpt>
      <trkpt lat="47.2002" lon="6.69642">
        <ele>935</ele>
        <time>2018-07-01T10:09:23.000Z</time>
      </trkpt>
      <trkpt lat="47.20021" lon="6.69637">
        <ele>935</ele>
        <time>2018-07-01T10:09:24.000Z</time>
      </trkpt>
      <trkpt lat="47.20022" lon="6.69633">
        <ele>935</ele>
        <time>2018-07-01T10:09:25.000Z</time>
      </trkpt>
      <trkpt lat="47.20024" lon="6.69628">
        <ele>935</ele>
        <time>2018-07-01T10:09:26.000Z</time>
      </trkpt>
      <trkpt lat="47.20025" lon="6.69623">
        <ele>935</ele>
        <time>2018-07-01T10:09:27.000Z</time>
      </trkpt>
      <trkpt lat="47.20026" lon="6.69619">
        <ele>935</ele>
        <time>2018-07-01T10:09:28.000Z</time>
      </trkpt>
      <trkpt lat="47.20027" lon="6.69614">
        <ele>935</ele>
        <time>2018-07-01T10:09:29.000Z</time>
      </trkpt>
      <trkpt lat="47.20029" lon="6.6961">
        <ele>935</ele>
        <time>2018-07-01T10:09:30.000Z</time>
      </trkpt>
      <trkpt lat="47.20029" lon="6.69605">
        <ele>935</ele>
        <time>2018-07-01T10:09:31.000Z</time>
      </trkpt>
      <trkpt lat="47.2003" lon="6.69601">
        <ele>935</ele>
        <time>2018-07-01T10:09:32.000Z</time>
      </trkpt>
      <trkpt lat="47.20031" lon="6.69597">
        <ele>935</ele>
        <time>2018-07-01T10:09:33.000Z</time>
      </trkpt>
      <trkpt lat="47.20032" lon="6.69592">
        <ele>935</ele>
        <time>2018-07-01T10:09:34.000Z</time>
      </trkpt>
      <trkpt lat="47.20033" lon="6.69588">
        <ele>935</ele>
        <time>2018-07-01T10:09:35.000Z</time>
      </trkpt>
      <trkpt lat="47.20033" lon="6.69584">
        <ele>935</ele>
        <time>2018-07-01T10:09:36.000Z</time>
      </trkpt>
      <trkpt lat="47.20034" lon="6.69579">
        <ele>935</ele>
        <time>2018-07-01T10:09:37.000Z</time>
      </trkpt>
      <trkpt lat="47.20035" lon="6.69575">
        <ele>935</ele>
        <time>2018-07-01T10:09:38.000Z</time>
      </trkpt>
      <trkpt lat="47.20036" lon="6.6957">
        <ele>935</ele>
        <time>2018-07-01T10:09:39.000Z</time>
      </trkpt>
      <trkpt lat="47.20036" lon="6.69566">
        <ele>935</ele>
        <time>2018-07-01T10:09:40.000Z</time>
      </trkpt>
      <trkpt lat="47.20036" lon="6.69562">
        <ele>935</ele>
        <time>2018-07-01T10:09:41.000Z</time>
      </trkpt>
      <trkpt lat="47.20036" lon="6.69557">
        <ele>936</ele>
        <time>2018-07-01T10:09:42.000Z</time>
      </trkpt>
      <trkpt lat="47.20036" lon="6.69553">
        <ele>936</ele>
        <time>2018-07-01T10:09:43.000Z</time>
      </trkpt>
      <trkpt lat="47.20036" lon="6.69549">
        <ele>936</ele>
        <time>2018-07-01T10:09:44.000Z</time>
      </trkpt>
      <trkpt lat="47.20036" lon="6.69544">
        <ele>936</ele>
        <time>2018-07-01T10:09:45.000Z</time>
      </trkpt>
      <trkpt lat="47.20036" lon="6.6954">
        <ele>936</ele>
        <time>2018-07-01T10:09:46.000Z</time>
      </trkpt>
      <trkpt lat="47.20036" lon="6.69536">
        <ele>936</ele>
        <time>2018-07-01T10:09:47.000Z</time>
      </trkpt>
      <trkpt lat="47.20035" lon="6.69532">
        <ele>936</ele>
        <time>2018-07-01T10:09:48.000Z</time>
      </trkpt>
      <trkpt lat="47.20035" lon="6.69528">
        <ele>936</ele>
        <time>2018-07-01T10:09:49.000Z</time>
      </trkpt>
      <trkpt lat="47.20035" lon="6.69523">
        <ele>936</ele>
        <time>2018-07-01T10:09:50.000Z</time>
      </trkpt>
      <trkpt lat="47.20035" lon="6.69519">
        <ele>936</ele>
        <time>2018-07-01T10:09:51.000Z</time>
      </trkpt>
      <trkpt lat="47.20034" lon="6.69515">
        <ele>935</ele>
        <time>2018-07-01T10:09:52.000Z</time>
      </trkpt>
      <trkpt lat="47.20034" lon="6.69511">
        <ele>935</ele>
        <time>2018-07-01T10:09:53.000Z</time>
      </trkpt>
      <trkpt lat="47.20034" lon="6.69506">
        <ele>935</ele>
        <time>2018-07-01T10:09:54.000Z</time>
      </trkpt>
      <trkpt lat="47.20034" lon="6.69502">
        <ele>935</ele>
        <time>2018-07-01T10:09:55.000Z</time>
      </trkpt>
      <trkpt lat="47.20034" lon="6.69498">
        <ele>936</ele>
        <time>2018-07-01T10:09:56.000Z</time>
      </trkpt>
      <trkpt lat="47.20033" lon="6.69494">
        <ele>936</ele>
        <time>2018-07-01T10:09:57.000Z</time>
      </trkpt>
      <trkpt lat="47.20033" lon="6.6949">
        <ele>936</ele>
        <time>2018-07-01T10:09:58.000Z</time>
      </trkpt>
      <trkpt lat="47.20032" lon="6.69486">
        <ele>936</ele>
        <time>2018-07-01T10:09:59.000Z</time>
      </trkpt>
      <trkpt lat="47.20032" lon="6.69482">
        <ele>936</ele>
        <time>2018-07-01T10:10:00.000Z</time>
      </trkpt>
      <trkpt lat="47.20032" lon="6.69478">
        <ele>936</ele>
        <time>2018-07-01T10:10:01.000Z</time>
      </trkpt>
      <trkpt lat="47.20031" lon="6.69474">
        <ele>936</ele>
        <time>2018-07-01T10:10:02.000Z</time>
      </trkpt>
      <trkpt lat="47.2003" lon="6.6947">
        <ele>936</ele>
        <time>2018-07-01T10:10:03.000Z</time>
      </trkpt>
      <trkpt lat="47.20029" lon="6.69467">
        <ele>936</ele>
        <time>2018-07-01T10:10:04.000Z</time>
      </trkpt>
      <trkpt lat="47.20029" lon="6.69463">
        <ele>936</ele>
        <time>2018-07-01T10:10:05.000Z</time>
      </trkpt>
      <trkpt lat="47.20029" lon="6.69459">
        <ele>936</ele>
        <time>2018-07-01T10:10:06.000Z</time>
      </trkpt>
      <trkpt lat="47.20028" lon="6.69455">
        <ele>936</ele>
        <time>2018-07-01T10:10:07.000Z</time>
      </trkpt>
      <trkpt lat="47.20028" lon="6.69451">
        <ele>936</ele>
        <time>2018-07-01T10:10:08.000Z</time>
      </trkpt>
      <trkpt lat="47.20028" lon="6.69447">
        <ele>936</ele>
        <time>2018-07-01T10:10:09.000Z</time>
      </trkpt>
      <trkpt lat="47.20028" lon="6.69443">
        <ele>936</ele>
        <time>2018-07-01T10:10:10.000Z</time>
      </trkpt>
      <trkpt lat="47.20028" lon="6.69439">
        <ele>936</ele>
        <time>2018-07-01T10:10:11.000Z</time>
      </trkpt>
      <trkpt lat="47.20027" lon="6.69436">
        <ele>936</ele>
        <time>2018-07-01T10:10:12.000Z</time>
      </trkpt>
      <trkpt lat="47.20027" lon="6.69432">
        <ele>936</ele>
        <time>2018-07-01T10:10:13.000Z</time>
      </trkpt>
      <trkpt lat="47.20027" lon="6.69428">
        <ele>936</ele>
        <time>2018-07-01T10:10:14.000Z</time>
      </trkpt>
      <trkpt lat="47.20027" lon="6.69424">
        <ele>936</ele>
        <time>2018-07-01T10:10:15.000Z</time>
      </trkpt>
      <trkpt lat="47.20028" lon="6.6942">
        <ele>936</ele>
        <time>2018-07-01T10:10:16.000Z</time>
      </trkpt>
      <trkpt lat="47.20028" lon="6.69416">
        <ele>937</ele>
        <time>2018-07-01T10:10:17.000Z</time>
      </trkpt>
      <trkpt lat="47.20028" lon="6.69413">
        <ele>937</ele>
        <time>2018-07-01T10:10:18.000Z</time>
      </trkpt>
      <trkpt lat="47.20028" lon="6.69409">
        <ele>937</ele>
        <time>2018-07-01T10:10:19.000Z</time>
      </trkpt>
      <trkpt lat="47.20028" lon="6.69405">
        <ele>937</ele>
        <time>2018-07-01T10:10:20.000Z</time>
      </trkpt>
      <trkpt lat="47.20029" lon="6.69402">
        <ele>937</ele>
        <time>2018-07-01T10:10:21.000Z</time>
      </trkpt>
      <trkpt lat="47.20029" lon="6.69398">
        <ele>937</ele>
        <time>2018-07-01T10:10:22.000Z</time>
      </trkpt>
      <trkpt lat="47.2003" lon="6.69395">
        <ele>937</ele>
        <time>2018-07-01T10:10:23.000Z</time>
      </trkpt>
      <trkpt lat="47.20031" lon="6.69391">
        <ele>938</ele>
        <time>2018-07-01T10:10:24.000Z</time>
      </trkpt>
      <trkpt lat="47.20032" lon="6.69388">
        <ele>938</ele>
        <time>2018-07-01T10:10:25.000Z</time>
      </trkpt>
      <trkpt lat="47.20034" lon="6.69385">
        <ele>938</ele>
        <time>2018-07-01T10:10:26.000Z</time>
      </trkpt>
      <trkpt lat="47.20035" lon="6.69383">
        <ele>938</ele>
        <time>2018-07-01T10:10:27.000Z</time>
      </trkpt>
      <trkpt lat="47.20037" lon="6.69381">
        <ele>938</ele>
        <time>2018-07-01T10:10:28.000Z</time>
      </trkpt>
      <trkpt lat="47.20039" lon="6.69379">
        <ele>938</ele>
        <time>2018-07-01T10:10:29.000Z</time>
      </trkpt>
      <trkpt lat="47.20041" lon="6.69377">
        <ele>938</ele>
        <time>2018-07-01T10:10:30.000Z</time>
      </trkpt>
      <trkpt lat="47.20043" lon="6.69376">
        <ele>938</ele>
        <time>2018-07-01T10:10:31.000Z</time>
      </trkpt>
      <trkpt lat="47.20045" lon="6.69374">
        <ele>938</ele>
        <time>2018-07-01T10:10:32.000Z</time>
      </trkpt>
      <trkpt lat="47.20047" lon="6.69373">
        <ele>938</ele>
        <time>2018-07-01T10:10:33.000Z</time>
      </trkpt>
      <trkpt lat="47.20049" lon="6.69372">
        <ele>938</ele>
        <time>2018-07-01T10:10:34.000Z</time>
      </trkpt>
      <trkpt lat="47.20051" lon="6.6937">
        <ele>938</ele>
        <time>2018-07-01T10:10:35.000Z</time>
      </trkpt>
      <trkpt lat="47.20053" lon="6.69369">
        <ele>938</ele>
        <time>2018-07-01T10:10:36.000Z</time>
      </trkpt>
      <trkpt lat="47.20055" lon="6.69367">
        <ele>938</ele>
        <time>2018-07-01T10:10:37.000Z</time>
      </trkpt>
      <trkpt lat="47.20057" lon="6.69365">
        <ele>939</ele>
        <time>2018-07-01T10:10:38.000Z</time>
      </trkpt>
      <trkpt lat="47.2006" lon="6.69363">
        <ele>939</ele>
        <time>2018-07-01T10:10:39.000Z</time>
      </trkpt>
      <trkpt lat="47.20062" lon="6.69361">
        <ele>939</ele>
        <time>2018-07-01T10:10:40.000Z</time>
      </trkpt>
      <trkpt lat="47.20064" lon="6.69359">
        <ele>939</ele>
        <time>2018-07-01T10:10:41.000Z</time>
      </trkpt>
      <trkpt lat="47.20066" lon="6.69357">
        <ele>939</ele>
        <time>2018-07-01T10:10:42.000Z</time>
      </trkpt>
      <trkpt lat="47.20069" lon="6.69355">
        <ele>939</ele>
        <time>2018-07-01T10:10:43.000Z</time>
      </trkpt>
      <trkpt lat="47.20071" lon="6.69354">
        <ele>939</ele>
        <time>2018-07-01T10:10:44.000Z</time>
      </trkpt>
      <trkpt lat="47.20074" lon="6.69352">
        <ele>939</ele>
        <time>2018-07-01T10:10:45.000Z</time>
      </trkpt>
      <trkpt lat="47.20076" lon="6.69351">
        <ele>939</ele>
        <time>2018-07-01T10:10:46.000Z</time>
      </trkpt>
      <trkpt lat="47.20078" lon="6.6935">
        <ele>940</ele>
        <time>2018-07-01T10:10:47.000Z</time>
      </trkpt>
      <trkpt lat="47.20081" lon="6.69348">
        <ele>940</ele>
        <time>2018-07-01T10:10:48.000Z</time>
      </trkpt>
      <trkpt lat="47.20083" lon="6.69347">
        <ele>940</ele>
        <time>2018-07-01T10:10:49.000Z</time>
      </trkpt>
      <trkpt lat="47.20086" lon="6.69345">
        <ele>942</ele>
        <time>2018-07-01T10:10:50.000Z</time>
      </trkpt>
      <trkpt lat="47.20088" lon="6.69343">
        <ele>942</ele>
        <time>2018-07-01T10:10:51.000Z</time>
      </trkpt>
      <trkpt lat="47.2009" lon="6.69341">
        <ele>941</ele>
        <time>2018-07-01T10:10:52.000Z</time>
      </trkpt>
      <trkpt lat="47.20092" lon="6.69339">
        <ele>942</ele>
        <time>2018-07-01T10:10:53.000Z</time>
      </trkpt>
      <trkpt lat="47.20094" lon="6.69337">
        <ele>942</ele>
        <time>2018-07-01T10:10:54.000Z</time>
      </trkpt>
      <trkpt lat="47.20097" lon="6.69335">
        <ele>942</ele>
        <time>2018-07-01T10:10:55.000Z</time>
      </trkpt>
      <trkpt lat="47.20099" lon="6.69333">
        <ele>942</ele>
        <time>2018-07-01T10:10:56.000Z</time>
      </trkpt>
      <trkpt lat="47.20101" lon="6.6933">
        <ele>942</ele>
        <time>2018-07-01T10:10:57.000Z</time>
      </trkpt>
      <trkpt lat="47.20103" lon="6.69328">
        <ele>942</ele>
        <time>2018-07-01T10:10:58.000Z</time>
      </trkpt>
      <trkpt lat="47.20106" lon="6.69326">
        <ele>942</ele>
        <time>2018-07-01T10:10:59.000Z</time>
      </trkpt>
      <trkpt lat="47.20108" lon="6.69324">
        <ele>942</ele>
        <time>2018-07-01T10:11:00.000Z</time>
      </trkpt>
      <trkpt lat="47.2011" lon="6.69322">
        <ele>942</ele>
        <time>2018-07-01T10:11:01.000Z</time>
      </trkpt>
      <trkpt lat="47.20113" lon="6.6932">
        <ele>942</ele>
        <time>2018-07-01T10:11:02.000Z</time>
      </trkpt>
      <trkpt lat="47.20115" lon="6.69318">
        <ele>942</ele>
        <time>2018-07-01T10:11:03.000Z</time>
      </trkpt>
      <trkpt lat="47.20117" lon="6.69316">
        <ele>942</ele>
        <time>2018-07-01T10:11:04.000Z</time>
      </trkpt>
      <trkpt lat="47.2012" lon="6.69314">
        <ele>943</ele>
        <time>2018-07-01T10:11:05.000Z</time>
      </trkpt>
      <trkpt lat="47.20122" lon="6.69312">
        <ele>943</ele>
        <time>2018-07-01T10:11:06.000Z</time>
      </trkpt>
      <trkpt lat="47.20125" lon="6.6931">
        <ele>943</ele>
        <time>2018-07-01T10:11:07.000Z</time>
      </trkpt>
      <trkpt lat="47.20127" lon="6.69308">
        <ele>943</ele>
        <time>2018-07-01T10:11:08.000Z</time>
      </trkpt>
      <trkpt lat="47.2013" lon="6.69306">
        <ele>943</ele>
        <time>2018-07-01T10:11:09.000Z</time>
      </trkpt>
      <trkpt lat="47.20132" lon="6.69304">
        <ele>943</ele>
        <time>2018-07-01T10:11:10.000Z</time>
      </trkpt>
      <trkpt lat="47.20135" lon="6.69302">
        <ele>943</ele>
        <time>2018-07-01T10:11:11.000Z</time>
      </trkpt>
      <trkpt lat="47.20137" lon="6.693">
        <ele>943</ele>
        <time>2018-07-01T10:11:12.000Z</time>
      </trkpt>
      <trkpt lat="47.2014" lon="6.69299">
        <ele>943</ele>
        <time>2018-07-01T10:11:13.000Z</time>
      </trkpt>
      <trkpt lat="47.20143" lon="6.69297">
        <ele>943</ele>
        <time>2018-07-01T10:11:14.000Z</time>
      </trkpt>
      <trkpt lat="47.20146" lon="6.69296">
        <ele>943</ele>
        <time>2018-07-01T10:11:15.000Z</time>
      </trkpt>
      <trkpt lat="47.20148" lon="6.69294">
        <ele>943</ele>
        <time>2018-07-01T10:11:16.000Z</time>
      </trkpt>
      <trkpt lat="47.20151" lon="6.69292">
        <ele>943</ele>
        <time>2018-07-01T10:11:17.000Z</time>
      </trkpt>
      <trkpt lat="47.20154" lon="6.6929">
        <ele>943</ele>
        <time>2018-07-01T10:11:18.000Z</time>
      </trkpt>
      <trkpt lat="47.20156" lon="6.69288">
        <ele>943</ele>
        <time>2018-07-01T10:11:19.000Z</time>
      </trkpt>
      <trkpt lat="47.20159" lon="6.69287">
        <ele>943</ele>
        <time>2018-07-01T10:11:20.000Z</time>
      </trkpt>
      <trkpt lat="47.20162" lon="6.69285">
        <ele>942</ele>
        <time>2018-07-01T10:11:21.000Z</time>
      </trkpt>
      <trkpt lat="47.20164" lon="6.69283">
        <ele>942</ele>
        <time>2018-07-01T10:11:22.000Z</time>
      </trkpt>
      <trkpt lat="47.20167" lon="6.69281">
        <ele>942</ele>
        <time>2018-07-01T10:11:23.000Z</time>
      </trkpt>
      <trkpt lat="47.20169" lon="6.69278">
        <ele>941</ele>
        <time>2018-07-01T10:11:24.000Z</time>
      </trkpt>
      <trkpt lat="47.20172" lon="6.69276">
        <ele>941</ele>
        <time>2018-07-01T10:11:25.000Z</time>
      </trkpt>
      <trkpt lat="47.20174" lon="6.69274">
        <ele>941</ele>
        <time>2018-07-01T10:11:26.000Z</time>
      </trkpt>
      <trkpt lat="47.20177" lon="6.69271">
        <ele>941</ele>
        <time>2018-07-01T10:11:27.000Z</time>
      </trkpt>
      <trkpt lat="47.20179" lon="6.69268">
        <ele>941</ele>
        <time>2018-07-01T10:11:28.000Z</time>
      </trkpt>
      <trkpt lat="47.20182" lon="6.69266">
        <ele>941</ele>
        <time>2018-07-01T10:11:29.000Z</time>
      </trkpt>
      <trkpt lat="47.20185" lon="6.69263">
        <ele>941</ele>
        <time>2018-07-01T10:11:30.000Z</time>
      </trkpt>
      <trkpt lat="47.20187" lon="6.69261">
        <ele>941</ele>
        <time>2018-07-01T10:11:31.000Z</time>
      </trkpt>
      <trkpt lat="47.2019" lon="6.69259">
        <ele>941</ele>
        <time>2018-07-01T10:11:32.000Z</time>
      </trkpt>
      <trkpt lat="47.20193" lon="6.69256">
        <ele>941</ele>
        <time>2018-07-01T10:11:33.000Z</time>
      </trkpt>
      <trkpt lat="47.20196" lon="6.69254">
        <ele>940</ele>
        <time>2018-07-01T10:11:34.000Z</time>
      </trkpt>
      <trkpt lat="47.20199" lon="6.69251">
        <ele>940</ele>
        <time>2018-07-01T10:11:35.000Z</time>
      </trkpt>
      <trkpt lat="47.20202" lon="6.69249">
        <ele>941</ele>
        <time>2018-07-01T10:11:36.000Z</time>
      </trkpt>
      <trkpt lat="47.20205" lon="6.69246">
        <ele>941</ele>
        <time>2018-07-01T10:11:37.000Z</time>
      </trkpt>
      <trkpt lat="47.20208" lon="6.69244">
        <ele>941</ele>
        <time>2018-07-01T10:11:38.000Z</time>
      </trkpt>
      <trkpt lat="47.20211" lon="6.69241">
        <ele>941</ele>
        <time>2018-07-01T10:11:39.000Z</time>
      </trkpt>
      <trkpt lat="47.20214" lon="6.69238">
        <ele>941</ele>
        <time>2018-07-01T10:11:40.000Z</time>
      </trkpt>
      <trkpt lat="47.20217" lon="6.69235">
        <ele>941</ele>
        <time>2018-07-01T10:11:41.000Z</time>
      </trkpt>
      <trkpt lat="47.2022" lon="6.69232">
        <ele>941</ele>
        <time>2018-07-01T10:11:42.000Z</time>
      </trkpt>
      <trkpt lat="47.20223" lon="6.69229">
        <ele>941</ele>
        <time>2018-07-01T10:11:43.000Z</time>
      </trkpt>
      <trkpt lat="47.20226" lon="6.69226">
        <ele>941</ele>
        <time>2018-07-01T10:11:44.000Z</time>
      </trkpt>
      <trkpt lat="47.20229" lon="6.69223">
        <ele>941</ele>
        <time>2018-07-01T10:11:45.000Z</time>
      </trkpt>
      <trkpt lat="47.20232" lon="6.69221">
        <ele>941</ele>
        <time>2018-07-01T10:11:46.000Z</time>
      </trkpt>
      <trkpt lat="47.20235" lon="6.69218">
        <ele>941</ele>
        <time>2018-07-01T10:11:47.000Z</time>
      </trkpt>
      <trkpt lat="47.20238" lon="6.69216">
        <ele>941</ele>
        <time>2018-07-01T10:11:48.000Z</time>
      </trkpt>
      <trkpt lat="47.20241" lon="6.69213">
        <ele>941</ele>
        <time>2018-07-01T10:11:49.000Z</time>
      </trkpt>
      <trkpt lat="47.20243" lon="6.6921">
        <ele>941</ele>
        <time>2018-07-01T10:11:50.000Z</time>
      </trkpt>
      <trkpt lat="47.20246" lon="6.69207">
        <ele>941</ele>
        <time>2018-07-01T10:11:51.000Z</time>
      </trkpt>
      <trkpt lat="47.20249" lon="6.69205">
        <ele>941</ele>
        <time>2018-07-01T10:11:52.000Z</time>
      </trkpt>
      <trkpt lat="47.20252" lon="6.69203">
        <ele>938</ele>
        <time>2018-07-01T10:11:53.000Z</time>
      </trkpt>
      <trkpt lat="47.20255" lon="6.69201">
        <ele>938</ele>
        <time>2018-07-01T10:11:54.000Z</time>
      </trkpt>
      <trkpt lat="47.20258" lon="6.69198">
        <ele>938</ele>
        <time>2018-07-01T10:11:55.000Z</time>
      </trkpt>
      <trkpt lat="47.2026" lon="6.69196">
        <ele>938</ele>
        <time>2018-07-01T10:11:56.000Z</time>
      </trkpt>
      <trkpt lat="47.20263" lon="6.69193">
        <ele>938</ele>
        <time>2018-07-01T10:11:57.000Z</time>
      </trkpt>
      <trkpt lat="47.20265" lon="6.69191">
        <ele>938</ele>
        <time>2018-07-01T10:11:58.000Z</time>
      </trkpt>
      <trkpt lat="47.20268" lon="6.69189">
        <ele>938</ele>
        <time>2018-07-01T10:11:59.000Z</time>
      </trkpt>
      <trkpt lat="47.2027" lon="6.69187">
        <ele>938</ele>
        <time>2018-07-01T10:12:00.000Z</time>
      </trkpt>
      <trkpt lat="47.20272" lon="6.69184">
        <ele>938</ele>
        <time>2018-07-01T10:12:01.000Z</time>
      </trkpt>
      <trkpt lat="47.20275" lon="6.69182">
        <ele>938</ele>
        <time>2018-07-01T10:12:02.000Z</time>
      </trkpt>
      <trkpt lat="47.20277" lon="6.69179">
        <ele>938</ele>
        <time>2018-07-01T10:12:03.000Z</time>
      </trkpt>
      <trkpt lat="47.20279" lon="6.69177">
        <ele>938</ele>
        <time>2018-07-01T10:12:04.000Z</time>
      </trkpt>
      <trkpt lat="47.2028" lon="6.69174">
        <ele>938</ele>
        <time>2018-07-01T10:12:05.000Z</time>
      </trkpt>
      <trkpt lat="47.20282" lon="6.69171">
        <ele>938</ele>
        <time>2018-07-01T10:12:06.000Z</time>
      </trkpt>
      <trkpt lat="47.20284" lon="6.69167">
        <ele>938</ele>
        <time>2018-07-01T10:12:07.000Z</time>
      </trkpt>
      <trkpt lat="47.20286" lon="6.69163">
        <ele>939</ele>
        <time>2018-07-01T10:12:08.000Z</time>
      </trkpt>
      <trkpt lat="47.20287" lon="6.69159">
        <ele>939</ele>
        <time>2018-07-01T10:12:09.000Z</time>
      </trkpt>
      <trkpt lat="47.20288" lon="6.69155">
        <ele>939</ele>
        <time>2018-07-01T10:12:10.000Z</time>
      </trkpt>
      <trkpt lat="47.2029" lon="6.69151">
        <ele>939</ele>
        <time>2018-07-01T10:12:11.000Z</time>
      </trkpt>
      <trkpt lat="47.20291" lon="6.69147">
        <ele>939</ele>
        <time>2018-07-01T10:12:12.000Z</time>
      </trkpt>
      <trkpt lat="47.20292" lon="6.69143">
        <ele>939</ele>
        <time>2018-07-01T10:12:13.000Z</time>
      </trkpt>
      <trkpt lat="47.20293" lon="6.69139">
        <ele>939</ele>
        <time>2018-07-01T10:12:14.000Z</time>
      </trkpt>
      <trkpt lat="47.20294" lon="6.69135">
        <ele>939</ele>
        <time>2018-07-01T10:12:15.000Z</time>
      </trkpt>
      <trkpt lat="47.20295" lon="6.69131">
        <ele>939</ele>
        <time>2018-07-01T10:12:16.000Z</time>
      </trkpt>
      <trkpt lat="47.20296" lon="6.69126">
        <ele>939</ele>
        <time>2018-07-01T10:12:17.000Z</time>
      </trkpt>
      <trkpt lat="47.20297" lon="6.69122">
        <ele>938</ele>
        <time>2018-07-01T10:12:18.000Z</time>
      </trkpt>
      <trkpt lat="47.20298" lon="6.69118">
        <ele>938</ele>
        <time>2018-07-01T10:12:19.000Z</time>
      </trkpt>
      <trkpt lat="47.20299" lon="6.69115">
        <ele>938</ele>
        <time>2018-07-01T10:12:20.000Z</time>
      </trkpt>
      <trkpt lat="47.203" lon="6.69111">
        <ele>938</ele>
        <time>2018-07-01T10:12:21.000Z</time>
      </trkpt>
      <trkpt lat="47.20301" lon="6.69108">
        <ele>938</ele>
        <time>2018-07-01T10:12:22.000Z</time>
      </trkpt>
      <trkpt lat="47.20302" lon="6.69105">
        <ele>938</ele>
        <time>2018-07-01T10:12:23.000Z</time>
      </trkpt>
      <trkpt lat="47.20303" lon="6.69101">
        <ele>938</ele>
        <time>2018-07-01T10:12:24.000Z</time>
      </trkpt>
      <trkpt lat="47.20304" lon="6.69097">
        <ele>938</ele>
        <time>2018-07-01T10:12:25.000Z</time>
      </trkpt>
      <trkpt lat="47.20304" lon="6.69094">
        <ele>938</ele>
        <time>2018-07-01T10:12:26.000Z</time>
      </trkpt>
      <trkpt lat="47.20305" lon="6.69089">
        <ele>938</ele>
        <time>2018-07-01T10:12:27.000Z</time>
      </trkpt>
      <trkpt lat="47.20305" lon="6.69085">
        <ele>938</ele>
        <time>2018-07-01T10:12:28.000Z</time>
      </trkpt>
      <trkpt lat="47.20305" lon="6.6908">
        <ele>937</ele>
        <time>2018-07-01T10:12:29.000Z</time>
      </trkpt>
      <trkpt lat="47.20304" lon="6.69075">
        <ele>937</ele>
        <time>2018-07-01T10:12:30.000Z</time>
      </trkpt>
      <trkpt lat="47.20304" lon="6.6907">
        <ele>937</ele>
        <time>2018-07-01T10:12:31.000Z</time>
      </trkpt>
      <trkpt lat="47.20303" lon="6.69064">
        <ele>938</ele>
        <time>2018-07-01T10:12:32.000Z</time>
      </trkpt>
      <trkpt lat="47.20303" lon="6.69059">
        <ele>938</ele>
        <time>2018-07-01T10:12:33.000Z</time>
      </trkpt>
      <trkpt lat="47.20302" lon="6.69053">
        <ele>938</ele>
        <time>2018-07-01T10:12:34.000Z</time>
      </trkpt>
      <trkpt lat="47.20302" lon="6.69047">
        <ele>938</ele>
        <time>2018-07-01T10:12:35.000Z</time>
      </trkpt>
      <trkpt lat="47.20302" lon="6.69041">
        <ele>938</ele>
        <time>2018-07-01T10:12:36.000Z</time>
      </trkpt>
      <trkpt lat="47.20301" lon="6.69036">
        <ele>938</ele>
        <time>2018-07-01T10:12:37.000Z</time>
      </trkpt>
      <trkpt lat="47.20302" lon="6.6903">
        <ele>937</ele>
        <time>2018-07-01T10:12:38.000Z</time>
      </trkpt>
      <trkpt lat="47.20302" lon="6.69024">
        <ele>937</ele>
        <time>2018-07-01T10:12:39.000Z</time>
      </trkpt>
      <trkpt lat="47.20302" lon="6.69018">
        <ele>937</ele>
        <time>2018-07-01T10:12:40.000Z</time>
      </trkpt>
      <trkpt lat="47.20302" lon="6.69013">
        <ele>937</ele>
        <time>2018-07-01T10:12:41.000Z</time>
      </trkpt>
      <trkpt lat="47.20302" lon="6.69007">
        <ele>937</ele>
        <time>2018-07-01T10:12:42.000Z</time>
      </trkpt>
      <trkpt lat="47.20301" lon="6.69002">
        <ele>937</ele>
        <time>2018-07-01T10:12:43.000Z</time>
      </trkpt>
      <trkpt lat="47.20301" lon="6.68997">
        <ele>936</ele>
        <time>2018-07-01T10:12:44.000Z</time>
      </trkpt>
      <trkpt lat="47.203" lon="6.68992">
        <ele>936</ele>
        <time>2018-07-01T10:12:45.000Z</time>
      </trkpt>
      <trkpt lat="47.203" lon="6.68987">
        <ele>936</ele>
        <time>2018-07-01T10:12:46.000Z</time>
      </trkpt>
      <trkpt lat="47.203" lon="6.68982">
        <ele>937</ele>
        <time>2018-07-01T10:12:47.000Z</time>
      </trkpt>
      <trkpt lat="47.203" lon="6.68977">
        <ele>937</ele>
        <time>2018-07-01T10:12:48.000Z</time>
      </trkpt>
      <trkpt lat="47.20301" lon="6.68972">
        <ele>937</ele>
        <time>2018-07-01T10:12:49.000Z</time>
      </trkpt>
      <trkpt lat="47.20301" lon="6.68967">
        <ele>937</ele>
        <time>2018-07-01T10:12:50.000Z</time>
      </trkpt>
      <trkpt lat="47.20301" lon="6.68962">
        <ele>937</ele>
        <time>2018-07-01T10:12:51.000Z</time>
      </trkpt>
      <trkpt lat="47.20302" lon="6.68958">
        <ele>937</ele>
        <time>2018-07-01T10:12:52.000Z</time>
      </trkpt>
      <trkpt lat="47.20302" lon="6.68953">
        <ele>937</ele>
        <time>2018-07-01T10:12:53.000Z</time>
      </trkpt>
      <trkpt lat="47.20302" lon="6.68949">
        <ele>937</ele>
        <time>2018-07-01T10:12:54.000Z</time>
      </trkpt>
      <trkpt lat="47.20302" lon="6.68945">
        <ele>936</ele>
        <time>2018-07-01T10:12:55.000Z</time>
      </trkpt>
      <trkpt lat="47.20302" lon="6.68941">
        <ele>936</ele>
        <time>2018-07-01T10:12:56.000Z</time>
      </trkpt>
      <trkpt lat="47.20302" lon="6.68938">
        <ele>936</ele>
        <time>2018-07-01T10:12:57.000Z</time>
      </trkpt>
      <trkpt lat="47.20303" lon="6.68935">
        <ele>936</ele>
        <time>2018-07-01T10:12:58.000Z</time>
      </trkpt>
      <trkpt lat="47.20304" lon="6.68932">
        <ele>936</ele>
        <time>2018-07-01T10:12:59.000Z</time>
      </trkpt>
      <trkpt lat="47.20305" lon="6.6893">
        <ele>936</ele>
        <time>2018-07-01T10:13:00.000Z</time>
      </trkpt>
      <trkpt lat="47.20306" lon="6.68927">
        <ele>936</ele>
        <time>2018-07-01T10:13:01.000Z</time>
      </trkpt>
      <trkpt lat="47.20308" lon="6.68924">
        <ele>936</ele>
        <time>2018-07-01T10:13:02.000Z</time>
      </trkpt>
      <trkpt lat="47.20309" lon="6.68922">
        <ele>935</ele>
        <time>2018-07-01T10:13:03.000Z</time>
      </trkpt>
      <trkpt lat="47.20311" lon="6.68919">
        <ele>935</ele>
        <time>2018-07-01T10:13:04.000Z</time>
      </trkpt>
      <trkpt lat="47.20312" lon="6.68916">
        <ele>935</ele>
        <time>2018-07-01T10:13:05.000Z</time>
      </trkpt>
      <trkpt lat="47.20313" lon="6.68913">
        <ele>935</ele>
        <time>2018-07-01T10:13:06.000Z</time>
      </trkpt>
      <trkpt lat="47.20315" lon="6.68909">
        <ele>935</ele>
        <time>2018-07-01T10:13:07.000Z</time>
      </trkpt>
      <trkpt lat="47.20316" lon="6.68905">
        <ele>935</ele>
        <time>2018-07-01T10:13:08.000Z</time>
      </trkpt>
      <trkpt lat="47.20317" lon="6.68901">
        <ele>935</ele>
        <time>2018-07-01T10:13:09.000Z</time>
      </trkpt>
      <trkpt lat="47.20319" lon="6.68897">
        <ele>935</ele>
        <time>2018-07-01T10:13:10.000Z</time>
      </trkpt>
      <trkpt lat="47.2032" lon="6.68892">
        <ele>935</ele>
        <time>2018-07-01T10:13:11.000Z</time>
      </trkpt>
      <trkpt lat="47.20321" lon="6.68888">
        <ele>935</ele>
        <time>2018-07-01T10:13:12.000Z</time>
      </trkpt>
      <trkpt lat="47.20322" lon="6.68885">
        <ele>935</ele>
        <time>2018-07-01T10:13:13.000Z</time>
      </trkpt>
      <trkpt lat="47.20324" lon="6.68882">
        <ele>935</ele>
        <time>2018-07-01T10:13:14.000Z</time>
      </trkpt>
      <trkpt lat="47.20325" lon="6.68879">
        <ele>935</ele>
        <time>2018-07-01T10:13:15.000Z</time>
      </trkpt>
      <trkpt lat="47.20327" lon="6.68877">
        <ele>935</ele>
        <time>2018-07-01T10:13:16.000Z</time>
      </trkpt>
      <trkpt lat="47.20328" lon="6.68875">
        <ele>935</ele>
        <time>2018-07-01T10:13:17.000Z</time>
      </trkpt>
      <trkpt lat="47.2033" lon="6.68873">
        <ele>935</ele>
        <time>2018-07-01T10:13:18.000Z</time>
      </trkpt>
      <trkpt lat="47.20331" lon="6.68871">
        <ele>935</ele>
        <time>2018-07-01T10:13:19.000Z</time>
      </trkpt>
      <trkpt lat="47.20333" lon="6.68869">
        <ele>935</ele>
        <time>2018-07-01T10:13:20.000Z</time>
      </trkpt>
      <trkpt lat="47.20334" lon="6.68867">
        <ele>937</ele>
        <time>2018-07-01T10:13:21.000Z</time>
      </trkpt>
      <trkpt lat="47.20336" lon="6.68865">
        <ele>937</ele>
        <time>2018-07-01T10:13:22.000Z</time>
      </trkpt>
      <trkpt lat="47.20338" lon="6.68862">
        <ele>937</ele>
        <time>2018-07-01T10:13:23.000Z</time>
      </trkpt>
      <trkpt lat="47.2034" lon="6.6886">
        <ele>937</ele>
        <time>2018-07-01T10:13:24.000Z</time>
      </trkpt>
      <trkpt lat="47.20342" lon="6.68858">
        <ele>937</ele>
        <time>2018-07-01T10:13:25.000Z</time>
      </trkpt>
      <trkpt lat="47.20343" lon="6.68856">
        <ele>937</ele>
        <time>2018-07-01T10:13:26.000Z</time>
      </trkpt>
      <trkpt lat="47.20345" lon="6.68853">
        <ele>937</ele>
        <time>2018-07-01T10:13:27.000Z</time>
      </trkpt>
      <trkpt lat="47.20347" lon="6.68852">
        <ele>937</ele>
        <time>2018-07-01T10:13:28.000Z</time>
      </trkpt>
      <trkpt lat="47.20349" lon="6.68851">
        <ele>937</ele>
        <time>2018-07-01T10:13:29.000Z</time>
      </trkpt>
      <trkpt lat="47.20351" lon="6.6885">
        <ele>938</ele>
        <time>2018-07-01T10:13:30.000Z</time>
      </trkpt>
      <trkpt lat="47.20353" lon="6.6885">
        <ele>938</ele>
        <time>2018-07-01T10:13:31.000Z</time>
      </trkpt>
      <trkpt lat="47.20355" lon="6.6885">
        <ele>938</ele>
        <time>2018-07-01T10:13:32.000Z</time>
      </trkpt>
      <trkpt lat="47.20356" lon="6.68851">
        <ele>938</ele>
        <time>2018-07-01T10:13:33.000Z</time>
      </trkpt>
      <trkpt lat="47.20358" lon="6.68851">
        <ele>938</ele>
        <time>2018-07-01T10:13:34.000Z</time>
      </trkpt>
      <trkpt lat="47.20359" lon="6.6885">
        <ele>939</ele>
        <time>2018-07-01T10:13:35.000Z</time>
      </trkpt>
      <trkpt lat="47.20361" lon="6.6885">
        <ele>939</ele>
        <time>2018-07-01T10:13:36.000Z</time>
      </trkpt>
      <trkpt lat="47.20362" lon="6.68849">
        <ele>939</ele>
        <time>2018-07-01T10:13:37.000Z</time>
      </trkpt>
      <trkpt lat="47.20364" lon="6.68849">
        <ele>939</ele>
        <time>2018-07-01T10:13:38.000Z</time>
      </trkpt>
      <trkpt lat="47.20365" lon="6.68848">
        <ele>939</ele>
        <time>2018-07-01T10:13:39.000Z</time>
      </trkpt>
      <trkpt lat="47.20367" lon="6.68847">
        <ele>939</ele>
        <time>2018-07-01T10:13:40.000Z</time>
      </trkpt>
      <trkpt lat="47.20368" lon="6.68847">
        <ele>940</ele>
        <time>2018-07-01T10:13:41.000Z</time>
      </trkpt>
      <trkpt lat="47.2037" lon="6.68847">
        <ele>940</ele>
        <time>2018-07-01T10:13:42.000Z</time>
      </trkpt>
      <trkpt lat="47.20371" lon="6.68846">
        <ele>940</ele>
        <time>2018-07-01T10:13:43.000Z</time>
      </trkpt>
      <trkpt lat="47.20372" lon="6.68845">
        <ele>940</ele>
        <time>2018-07-01T10:13:44.000Z</time>
      </trkpt>
      <trkpt lat="47.20373" lon="6.68845">
        <ele>940</ele>
        <time>2018-07-01T10:13:45.000Z</time>
      </trkpt>
      <trkpt lat="47.20374" lon="6.68844">
        <ele>940</ele>
        <time>2018-07-01T10:13:46.000Z</time>
      </trkpt>
      <trkpt lat="47.20375" lon="6.68844">
        <ele>941</ele>
        <time>2018-07-01T10:13:47.000Z</time>
      </trkpt>
      <trkpt lat="47.20376" lon="6.68843">
        <ele>941</ele>
        <time>2018-07-01T10:13:48.000Z</time>
      </trkpt>
      <trkpt lat="47.20376" lon="6.68842">
        <ele>941</ele>
        <time>2018-07-01T10:13:49.000Z</time>
      </trkpt>
      <trkpt lat="47.20377" lon="6.68841">
        <ele>941</ele>
        <time>2018-07-01T10:13:50.000Z</time>
      </trkpt>
      <trkpt lat="47.20378" lon="6.6884">
        <ele>941</ele>
        <time>2018-07-01T10:13:51.000Z</time>
      </trkpt>
      <trkpt lat="47.20378" lon="6.68839">
        <ele>941</ele>
        <time>2018-07-01T10:13:52.000Z</time>
      </trkpt>
      <trkpt lat="47.20379" lon="6.68838">
        <ele>941</ele>
        <time>2018-07-01T10:13:53.000Z</time>
      </trkpt>
      <trkpt lat="47.2038" lon="6.68837">
        <ele>941</ele>
        <time>2018-07-01T10:13:54.000Z</time>
      </trkpt>
      <trkpt lat="47.2038" lon="6.68835">
        <ele>942</ele>
        <time>2018-07-01T10:13:55.000Z</time>
      </trkpt>
      <trkpt lat="47.20381" lon="6.68834">
        <ele>942</ele>
        <time>2018-07-01T10:13:56.000Z</time>
      </trkpt>
      <trkpt lat="47.20382" lon="6.68832">
        <ele>943</ele>
        <time>2018-07-01T10:13:57.000Z</time>
      </trkpt>
      <trkpt lat="47.20383" lon="6.68831">
        <ele>944</ele>
        <time>2018-07-01T10:13:58.000Z</time>
      </trkpt>
      <trkpt lat="47.20385" lon="6.6883">
        <ele>944</ele>
        <time>2018-07-01T10:13:59.000Z</time>
      </trkpt>
      <trkpt lat="47.20386" lon="6.68828">
        <ele>944</ele>
        <time>2018-07-01T10:14:00.000Z</time>
      </trkpt>
      <trkpt lat="47.20387" lon="6.68827">
        <ele>944</ele>
        <time>2018-07-01T10:14:01.000Z</time>
      </trkpt>
      <trkpt lat="47.20388" lon="6.68825">
        <ele>944</ele>
        <time>2018-07-01T10:14:02.000Z</time>
      </trkpt>
      <trkpt lat="47.20389" lon="6.68824">
        <ele>944</ele>
        <time>2018-07-01T10:14:03.000Z</time>
      </trkpt>
      <trkpt lat="47.2039" lon="6.68822">
        <ele>944</ele>
        <time>2018-07-01T10:14:04.000Z</time>
      </trkpt>
      <trkpt lat="47.20391" lon="6.6882">
        <ele>945</ele>
        <time>2018-07-01T10:14:05.000Z</time>
      </trkpt>
      <trkpt lat="47.20393" lon="6.68819">
        <ele>945</ele>
        <time>2018-07-01T10:14:06.000Z</time>
      </trkpt>
      <trkpt lat="47.20394" lon="6.68817">
        <ele>945</ele>
        <time>2018-07-01T10:14:07.000Z</time>
      </trkpt>
      <trkpt lat="47.20395" lon="6.68815">
        <ele>945</ele>
        <time>2018-07-01T10:14:08.000Z</time>
      </trkpt>
      <trkpt lat="47.20396" lon="6.68814">
        <ele>945</ele>
        <time>2018-07-01T10:14:09.000Z</time>
      </trkpt>
      <trkpt lat="47.20397" lon="6.68812">
        <ele>945</ele>
        <time>2018-07-01T10:14:10.000Z</time>
      </trkpt>
      <trkpt lat="47.20398" lon="6.68811">
        <ele>945</ele>
        <time>2018-07-01T10:14:11.000Z</time>
      </trkpt>
      <trkpt lat="47.20399" lon="6.68809">
        <ele>945</ele>
        <time>2018-07-01T10:14:12.000Z</time>
      </trkpt>
      <trkpt lat="47.20399" lon="6.68808">
        <ele>945</ele>
        <time>2018-07-01T10:14:13.000Z</time>
      </trkpt>
      <trkpt lat="47.204" lon="6.68807">
        <ele>945</ele>
        <time>2018-07-01T10:14:14.000Z</time>
      </trkpt>
      <trkpt lat="47.204" lon="6.68805">
        <ele>945</ele>
        <time>2018-07-01T10:14:15.000Z</time>
      </trkpt>
      <trkpt lat="47.204" lon="6.68803">
        <ele>945</ele>
        <time>2018-07-01T10:14:16.000Z</time>
      </trkpt>
      <trkpt lat="47.204" lon="6.68801">
        <ele>945</ele>
        <time>2018-07-01T10:14:17.000Z</time>
      </trkpt>
      <trkpt lat="47.204" lon="6.688">
        <ele>945</ele>
        <time>2018-07-01T10:14:18.000Z</time>
      </trkpt>
      <trkpt lat="47.204" lon="6.68798">
        <ele>945</ele>
        <time>2018-07-01T10:14:19.000Z</time>
      </trkpt>
      <trkpt lat="47.204" lon="6.68796">
        <ele>945</ele>
        <time>2018-07-01T10:14:20.000Z</time>
      </trkpt>
      <trkpt lat="47.20401" lon="6.68794">
        <ele>945</ele>
        <time>2018-07-01T10:14:21.000Z</time>
      </trkpt>
      <trkpt lat="47.20401" lon="6.68792">
        <ele>945</ele>
        <time>2018-07-01T10:14:22.000Z</time>
      </trkpt>
      <trkpt lat="47.20401" lon="6.6879">
        <ele>945</ele>
        <time>2018-07-01T10:14:23.000Z</time>
      </trkpt>
      <trkpt lat="47.20401" lon="6.68788">
        <ele>945</ele>
        <time>2018-07-01T10:14:24.000Z</time>
      </trkpt>
      <trkpt lat="47.20401" lon="6.68787">
        <ele>945</ele>
        <time>2018-07-01T10:14:25.000Z</time>
      </trkpt>
      <trkpt lat="47.20401" lon="6.68785">
        <ele>945</ele>
        <time>2018-07-01T10:14:26.000Z</time>
      </trkpt>
      <trkpt lat="47.20401" lon="6.68783">
        <ele>945</ele>
        <time>2018-07-01T10:14:27.000Z</time>
      </trkpt>
      <trkpt lat="47.20401" lon="6.6878">
        <ele>945</ele>
        <time>2018-07-01T10:14:28.000Z</time>
      </trkpt>
      <trkpt lat="47.20401" lon="6.68778">
        <ele>945</ele>
        <time>2018-07-01T10:14:29.000Z</time>
      </trkpt>
      <trkpt lat="47.20401" lon="6.68776">
        <ele>945</ele>
        <time>2018-07-01T10:14:30.000Z</time>
      </trkpt>
      <trkpt lat="47.20401" lon="6.68775">
        <ele>945</ele>
        <time>2018-07-01T10:14:31.000Z</time>
      </trkpt>
      <trkpt lat="47.20401" lon="6.68773">
        <ele>946</ele>
        <time>2018-07-01T10:14:32.000Z</time>
      </trkpt>
      <trkpt lat="47.204" lon="6.68772">
        <ele>946</ele>
        <time>2018-07-01T10:14:33.000Z</time>
      </trkpt>
      <trkpt lat="47.204" lon="6.6877">
        <ele>946</ele>
        <time>2018-07-01T10:14:34.000Z</time>
      </trkpt>
      <trkpt lat="47.204" lon="6.68768">
        <ele>946</ele>
        <time>2018-07-01T10:14:35.000Z</time>
      </trkpt>
      <trkpt lat="47.204" lon="6.68766">
        <ele>946</ele>
        <time>2018-07-01T10:14:36.000Z</time>
      </trkpt>
      <trkpt lat="47.204" lon="6.68764">
        <ele>946</ele>
        <time>2018-07-01T10:14:37.000Z</time>
      </trkpt>
      <trkpt lat="47.20401" lon="6.68762">
        <ele>947</ele>
        <time>2018-07-01T10:14:38.000Z</time>
      </trkpt>
      <trkpt lat="47.20401" lon="6.68759">
        <ele>947</ele>
        <time>2018-07-01T10:14:39.000Z</time>
      </trkpt>
      <trkpt lat="47.20401" lon="6.68757">
        <ele>947</ele>
        <time>2018-07-01T10:14:40.000Z</time>
      </trkpt>
      <trkpt lat="47.20401" lon="6.68755">
        <ele>947</ele>
        <time>2018-07-01T10:14:41.000Z</time>
      </trkpt>
      <trkpt lat="47.20401" lon="6.68752">
        <ele>947</ele>
        <time>2018-07-01T10:14:42.000Z</time>
      </trkpt>
      <trkpt lat="47.20402" lon="6.68749">
        <ele>948</ele>
        <time>2018-07-01T10:14:43.000Z</time>
      </trkpt>
      <trkpt lat="47.20402" lon="6.68746">
        <ele>948</ele>
        <time>2018-07-01T10:14:44.000Z</time>
      </trkpt>
      <trkpt lat="47.20402" lon="6.68743">
        <ele>948</ele>
        <time>2018-07-01T10:14:45.000Z</time>
      </trkpt>
      <trkpt lat="47.20402" lon="6.6874">
        <ele>948</ele>
        <time>2018-07-01T10:14:46.000Z</time>
      </trkpt>
      <trkpt lat="47.20402" lon="6.68737">
        <ele>948</ele>
        <time>2018-07-01T10:14:47.000Z</time>
      </trkpt>
      <trkpt lat="47.20402" lon="6.68734">
        <ele>948</ele>
        <time>2018-07-01T10:14:48.000Z</time>
      </trkpt>
      <trkpt lat="47.20402" lon="6.68731">
        <ele>948</ele>
        <time>2018-07-01T10:14:49.000Z</time>
      </trkpt>
      <trkpt lat="47.20403" lon="6.68727">
        <ele>947</ele>
        <time>2018-07-01T10:14:50.000Z</time>
      </trkpt>
      <trkpt lat="47.20403" lon="6.68724">
        <ele>947</ele>
        <time>2018-07-01T10:14:51.000Z</time>
      </trkpt>
      <trkpt lat="47.20405" lon="6.68722">
        <ele>947</ele>
        <time>2018-07-01T10:14:52.000Z</time>
      </trkpt>
      <trkpt lat="47.20406" lon="6.68719">
        <ele>947</ele>
        <time>2018-07-01T10:14:53.000Z</time>
      </trkpt>
      <trkpt lat="47.20407" lon="6.68717">
        <ele>947</ele>
        <time>2018-07-01T10:14:54.000Z</time>
      </trkpt>
      <trkpt lat="47.20409" lon="6.68715">
        <ele>948</ele>
        <time>2018-07-01T10:14:55.000Z</time>
      </trkpt>
      <trkpt lat="47.20409" lon="6.68714">
        <ele>948</ele>
        <time>2018-07-01T10:14:56.000Z</time>
      </trkpt>
      <trkpt lat="47.2041" lon="6.68713">
        <ele>948</ele>
        <time>2018-07-01T10:14:57.000Z</time>
      </trkpt>
      <trkpt lat="47.2041" lon="6.68712">
        <ele>948</ele>
        <time>2018-07-01T10:14:58.000Z</time>
      </trkpt>
      <trkpt lat="47.2041" lon="6.68712">
        <ele>948</ele>
        <time>2018-07-01T10:14:59.000Z</time>
      </trkpt>
      <trkpt lat="47.2041" lon="6.68711">
        <ele>948</ele>
        <time>2018-07-01T10:15:00.000Z</time>
      </trkpt>
      <trkpt lat="47.2041" lon="6.68711">
        <ele>948</ele>
        <time>2018-07-01T10:15:01.000Z</time>
      </trkpt>
      <trkpt lat="47.20409" lon="6.68711">
        <ele>948</ele>
        <time>2018-07-01T10:15:02.000Z</time>
      </trkpt>
      <trkpt lat="47.20409" lon="6.6871">
        <ele>948</ele>
        <time>2018-07-01T10:15:03.000Z</time>
      </trkpt>
      <trkpt lat="47.20409" lon="6.68709">
        <ele>948</ele>
        <time>2018-07-01T10:15:04.000Z</time>
      </trkpt>
      <trkpt lat="47.20409" lon="6.68708">
        <ele>948</ele>
        <time>2018-07-01T10:15:05.000Z</time>
      </trkpt>
      <trkpt lat="47.2041" lon="6.68706">
        <ele>948</ele>
        <time>2018-07-01T10:15:06.000Z</time>
      </trkpt>
      <trkpt lat="47.20411" lon="6.68704">
        <ele>948</ele>
        <time>2018-07-01T10:15:07.000Z</time>
      </trkpt>
      <trkpt lat="47.20412" lon="6.68701">
        <ele>948</ele>
        <time>2018-07-01T10:15:08.000Z</time>
      </trkpt>
      <trkpt lat="47.20412" lon="6.68698">
        <ele>948</ele>
        <time>2018-07-01T10:15:09.000Z</time>
      </trkpt>
      <trkpt lat="47.20413" lon="6.68695">
        <ele>948</ele>
        <time>2018-07-01T10:15:10.000Z</time>
      </trkpt>
      <trkpt lat="47.20413" lon="6.68691">
        <ele>949</ele>
        <time>2018-07-01T10:15:11.000Z</time>
      </trkpt>
      <trkpt lat="47.20413" lon="6.68688">
        <ele>949</ele>
        <time>2018-07-01T10:15:12.000Z</time>
      </trkpt>
      <trkpt lat="47.20413" lon="6.68684">
        <ele>949</ele>
        <time>2018-07-01T10:15:13.000Z</time>
      </trkpt>
      <trkpt lat="47.20412" lon="6.68681">
        <ele>950</ele>
        <time>2018-07-01T10:15:14.000Z</time>
      </trkpt>
      <trkpt lat="47.20412" lon="6.68679">
        <ele>950</ele>
        <time>2018-07-01T10:15:15.000Z</time>
      </trkpt>
      <trkpt lat="47.20412" lon="6.68676">
        <ele>950</ele>
        <time>2018-07-01T10:15:16.000Z</time>
      </trkpt>
      <trkpt lat="47.20411" lon="6.68673">
        <ele>951</ele>
        <time>2018-07-01T10:15:17.000Z</time>
      </trkpt>
      <trkpt lat="47.20411" lon="6.6867">
        <ele>951</ele>
        <time>2018-07-01T10:15:18.000Z</time>
      </trkpt>
      <trkpt lat="47.2041" lon="6.68667">
        <ele>951</ele>
        <time>2018-07-01T10:15:19.000Z</time>
      </trkpt>
      <trkpt lat="47.20409" lon="6.68664">
        <ele>952</ele>
        <time>2018-07-01T10:15:20.000Z</time>
      </trkpt>
      <trkpt lat="47.20408" lon="6.68661">
        <ele>952</ele>
        <time>2018-07-01T10:15:21.000Z</time>
      </trkpt>
      <trkpt lat="47.20407" lon="6.68658">
        <ele>952</ele>
        <time>2018-07-01T10:15:22.000Z</time>
      </trkpt>
      <trkpt lat="47.20406" lon="6.68654">
        <ele>952</ele>
        <time>2018-07-01T10:15:23.000Z</time>
      </trkpt>
      <trkpt lat="47.20405" lon="6.68651">
        <ele>952</ele>
        <time>2018-07-01T10:15:24.000Z</time>
      </trkpt>
      <trkpt lat="47.20404" lon="6.68648">
        <ele>952</ele>
        <time>2018-07-01T10:15:25.000Z</time>
      </trkpt>
      <trkpt lat="47.20403" lon="6.68645">
        <ele>952</ele>
        <time>2018-07-01T10:15:26.000Z</time>
      </trkpt>
      <trkpt lat="47.20401" lon="6.68642">
        <ele>952</ele>
        <time>2018-07-01T10:15:27.000Z</time>
      </trkpt>
      <trkpt lat="47.204" lon="6.68639">
        <ele>952</ele>
        <time>2018-07-01T10:15:28.000Z</time>
      </trkpt>
      <trkpt lat="47.20399" lon="6.68637">
        <ele>952</ele>
        <time>2018-07-01T10:15:29.000Z</time>
      </trkpt>
      <trkpt lat="47.20398" lon="6.68634">
        <ele>952</ele>
        <time>2018-07-01T10:15:30.000Z</time>
      </trkpt>
      <trkpt lat="47.20397" lon="6.68632">
        <ele>952</ele>
        <time>2018-07-01T10:15:31.000Z</time>
      </trkpt>
      <trkpt lat="47.20396" lon="6.68629">
        <ele>952</ele>
        <time>2018-07-01T10:15:32.000Z</time>
      </trkpt>
      <trkpt lat="47.20395" lon="6.68626">
        <ele>952</ele>
        <time>2018-07-01T10:15:33.000Z</time>
      </trkpt>
      <trkpt lat="47.20394" lon="6.68623">
        <ele>952</ele>
        <time>2018-07-01T10:15:34.000Z</time>
      </trkpt>
      <trkpt lat="47.20393" lon="6.6862">
        <ele>952</ele>
        <time>2018-07-01T10:15:35.000Z</time>
      </trkpt>
      <trkpt lat="47.20392" lon="6.68617">
        <ele>952</ele>
        <time>2018-07-01T10:15:36.000Z</time>
      </trkpt>
      <trkpt lat="47.2039" lon="6.68613">
        <ele>952</ele>
        <time>2018-07-01T10:15:37.000Z</time>
      </trkpt>
      <trkpt lat="47.20389" lon="6.6861">
        <ele>952</ele>
        <time>2018-07-01T10:15:38.000Z</time>
      </trkpt>
      <trkpt lat="47.20387" lon="6.68606">
        <ele>953</ele>
        <time>2018-07-01T10:15:39.000Z</time>
      </trkpt>
      <trkpt lat="47.20386" lon="6.68602">
        <ele>953</ele>
        <time>2018-07-01T10:15:40.000Z</time>
      </trkpt>
      <trkpt lat="47.20384" lon="6.68599">
        <ele>953</ele>
        <time>2018-07-01T10:15:41.000Z</time>
      </trkpt>
      <trkpt lat="47.20383" lon="6.68595">
        <ele>953</ele>
        <time>2018-07-01T10:15:42.000Z</time>
      </trkpt>
      <trkpt lat="47.20381" lon="6.68592">
        <ele>953</ele>
        <time>2018-07-01T10:15:43.000Z</time>
      </trkpt>
      <trkpt lat="47.2038" lon="6.68588">
        <ele>953</ele>
        <time>2018-07-01T10:15:44.000Z</time>
      </trkpt>
      <trkpt lat="47.20379" lon="6.68584">
        <ele>953</ele>
        <time>2018-07-01T10:15:45.000Z</time>
      </trkpt>
      <trkpt lat="47.20378" lon="6.6858">
        <ele>957</ele>
        <time>2018-07-01T10:15:46.000Z</time>
      </trkpt>
      <trkpt lat="47.20377" lon="6.68576">
        <ele>957</ele>
        <time>2018-07-01T10:15:47.000Z</time>
      </trkpt>
      <trkpt lat="47.20375" lon="6.68572">
        <ele>957</ele>
        <time>2018-07-01T10:15:48.000Z</time>
      </trkpt>
      <trkpt lat="47.20374" lon="6.68568">
        <ele>957</ele>
        <time>2018-07-01T10:15:49.000Z</time>
      </trkpt>
      <trkpt lat="47.20373" lon="6.68565">
        <ele>957</ele>
        <time>2018-07-01T10:15:50.000Z</time>
      </trkpt>
      <trkpt lat="47.20372" lon="6.68561">
        <ele>957</ele>
        <time>2018-07-01T10:15:51.000Z</time>
      </trkpt>
      <trkpt lat="47.20371" lon="6.68558">
        <ele>957</ele>
        <time>2018-07-01T10:15:52.000Z</time>
      </trkpt>
      <trkpt lat="47.20369" lon="6.68554">
        <ele>957</ele>
        <time>2018-07-01T10:15:53.000Z</time>
      </trkpt>
      <trkpt lat="47.20368" lon="6.68551">
        <ele>957</ele>
        <time>2018-07-01T10:15:54.000Z</time>
      </trkpt>
      <trkpt lat="47.20366" lon="6.68549">
        <ele>957</ele>
        <time>2018-07-01T10:15:55.000Z</time>
      </trkpt>
      <trkpt lat="47.20365" lon="6.68546">
        <ele>957</ele>
        <time>2018-07-01T10:15:56.000Z</time>
      </trkpt>
      <trkpt lat="47.20363" lon="6.68544">
        <ele>957</ele>
        <time>2018-07-01T10:15:57.000Z</time>
      </trkpt>
      <trkpt lat="47.20361" lon="6.68542">
        <ele>958</ele>
        <time>2018-07-01T10:15:58.000Z</time>
      </trkpt>
      <trkpt lat="47.2036" lon="6.68539">
        <ele>958</ele>
        <time>2018-07-01T10:15:59.000Z</time>
      </trkpt>
      <trkpt lat="47.20358" lon="6.68536">
        <ele>958</ele>
        <time>2018-07-01T10:16:00.000Z</time>
      </trkpt>
      <trkpt lat="47.20356" lon="6.68534">
        <ele>958</ele>
        <time>2018-07-01T10:16:01.000Z</time>
      </trkpt>
      <trkpt lat="47.20354" lon="6.68531">
        <ele>958</ele>
        <time>2018-07-01T10:16:02.000Z</time>
      </trkpt>
      <trkpt lat="47.20353" lon="6.68529">
        <ele>958</ele>
        <time>2018-07-01T10:16:03.000Z</time>
      </trkpt>
      <trkpt lat="47.20351" lon="6.68527">
        <ele>958</ele>
        <time>2018-07-01T10:16:04.000Z</time>
      </trkpt>
      <trkpt lat="47.20349" lon="6.68526">
        <ele>958</ele>
        <time>2018-07-01T10:16:05.000Z</time>
      </trkpt>
      <trkpt lat="47.20347" lon="6.68524">
        <ele>959</ele>
        <time>2018-07-01T10:16:06.000Z</time>
      </trkpt>
      <trkpt lat="47.20345" lon="6.68523">
        <ele>959</ele>
        <time>2018-07-01T10:16:07.000Z</time>
      </trkpt>
      <trkpt lat="47.20344" lon="6.68522">
        <ele>959</ele>
        <time>2018-07-01T10:16:08.000Z</time>
      </trkpt>
      <trkpt lat="47.20342" lon="6.6852">
        <ele>959</ele>
        <time>2018-07-01T10:16:09.000Z</time>
      </trkpt>
      <trkpt lat="47.2034" lon="6.68518">
        <ele>959</ele>
        <time>2018-07-01T10:16:10.000Z</time>
      </trkpt>
      <trkpt lat="47.20339" lon="6.68517">
        <ele>960</ele>
        <time>2018-07-01T10:16:11.000Z</time>
      </trkpt>
      <trkpt lat="47.20337" lon="6.68514">
        <ele>960</ele>
        <time>2018-07-01T10:16:12.000Z</time>
      </trkpt>
      <trkpt lat="47.20336" lon="6.68512">
        <ele>960</ele>
        <time>2018-07-01T10:16:13.000Z</time>
      </trkpt>
      <trkpt lat="47.20335" lon="6.6851">
        <ele>960</ele>
        <time>2018-07-01T10:16:14.000Z</time>
      </trkpt>
      <trkpt lat="47.20333" lon="6.68508">
        <ele>959</ele>
        <time>2018-07-01T10:16:15.000Z</time>
      </trkpt>
      <trkpt lat="47.20332" lon="6.68507">
        <ele>959</ele>
        <time>2018-07-01T10:16:16.000Z</time>
      </trkpt>
      <trkpt lat="47.20331" lon="6.68505">
        <ele>960</ele>
        <time>2018-07-01T10:16:17.000Z</time>
      </trkpt>
      <trkpt lat="47.2033" lon="6.68502">
        <ele>960</ele>
        <time>2018-07-01T10:16:18.000Z</time>
      </trkpt>
      <trkpt lat="47.20329" lon="6.685">
        <ele>962</ele>
        <time>2018-07-01T10:16:19.000Z</time>
      </trkpt>
      <trkpt lat="47.20328" lon="6.68498">
        <ele>962</ele>
        <time>2018-07-01T10:16:20.000Z</time>
      </trkpt>
      <trkpt lat="47.20327" lon="6.68495">
        <ele>962</ele>
        <time>2018-07-01T10:16:21.000Z</time>
      </trkpt>
      <trkpt lat="47.20325" lon="6.68493">
        <ele>961</ele>
        <time>2018-07-01T10:16:22.000Z</time>
      </trkpt>
      <trkpt lat="47.20324" lon="6.6849">
        <ele>961</ele>
        <time>2018-07-01T10:16:23.000Z</time>
      </trkpt>
      <trkpt lat="47.20322" lon="6.68488">
        <ele>961</ele>
        <time>2018-07-01T10:16:24.000Z</time>
      </trkpt>
      <trkpt lat="47.20321" lon="6.68485">
        <ele>961</ele>
        <time>2018-07-01T10:16:25.000Z</time>
      </trkpt>
      <trkpt lat="47.2032" lon="6.68482">
        <ele>961</ele>
        <time>2018-07-01T10:16:26.000Z</time>
      </trkpt>
      <trkpt lat="47.20318" lon="6.68479">
        <ele>961</ele>
        <time>2018-07-01T10:16:27.000Z</time>
      </trkpt>
      <trkpt lat="47.20316" lon="6.68476">
        <ele>961</ele>
        <time>2018-07-01T10:16:28.000Z</time>
      </trkpt>
      <trkpt lat="47.20314" lon="6.68473">
        <ele>961</ele>
        <time>2018-07-01T10:16:29.000Z</time>
      </trkpt>
      <trkpt lat="47.20313" lon="6.6847">
        <ele>961</ele>
        <time>2018-07-01T10:16:30.000Z</time>
      </trkpt>
      <trkpt lat="47.20311" lon="6.68467">
        <ele>961</ele>
        <time>2018-07-01T10:16:31.000Z</time>
      </trkpt>
      <trkpt lat="47.20309" lon="6.68464">
        <ele>961</ele>
        <time>2018-07-01T10:16:32.000Z</time>
      </trkpt>
      <trkpt lat="47.20308" lon="6.68462">
        <ele>962</ele>
        <time>2018-07-01T10:16:33.000Z</time>
      </trkpt>
      <trkpt lat="47.20306" lon="6.68459">
        <ele>962</ele>
        <time>2018-07-01T10:16:34.000Z</time>
      </trkpt>
      <trkpt lat="47.20305" lon="6.68457">
        <ele>962</ele>
        <time>2018-07-01T10:16:35.000Z</time>
      </trkpt>
      <trkpt lat="47.20304" lon="6.68454">
        <ele>962</ele>
        <time>2018-07-01T10:16:36.000Z</time>
      </trkpt>
      <trkpt lat="47.20303" lon="6.68452">
        <ele>962</ele>
        <time>2018-07-01T10:16:37.000Z</time>
      </trkpt>
      <trkpt lat="47.20302" lon="6.68449">
        <ele>962</ele>
        <time>2018-07-01T10:16:38.000Z</time>
      </trkpt>
      <trkpt lat="47.20301" lon="6.68447">
        <ele>962</ele>
        <time>2018-07-01T10:16:39.000Z</time>
      </trkpt>
      <trkpt lat="47.20299" lon="6.68444">
        <ele>962</ele>
        <time>2018-07-01T10:16:40.000Z</time>
      </trkpt>
      <trkpt lat="47.20298" lon="6.68442">
        <ele>962</ele>
        <time>2018-07-01T10:16:41.000Z</time>
      </trkpt>
      <trkpt lat="47.20297" lon="6.68439">
        <ele>963</ele>
        <time>2018-07-01T10:16:42.000Z</time>
      </trkpt>
      <trkpt lat="47.20296" lon="6.68436">
        <ele>963</ele>
        <time>2018-07-01T10:16:43.000Z</time>
      </trkpt>
      <trkpt lat="47.20294" lon="6.68433">
        <ele>963</ele>
        <time>2018-07-01T10:16:44.000Z</time>
      </trkpt>
      <trkpt lat="47.20293" lon="6.68431">
        <ele>963</ele>
        <time>2018-07-01T10:16:45.000Z</time>
      </trkpt>
      <trkpt lat="47.20291" lon="6.68428">
        <ele>963</ele>
        <time>2018-07-01T10:16:46.000Z</time>
      </trkpt>
      <trkpt lat="47.2029" lon="6.68426">
        <ele>963</ele>
        <time>2018-07-01T10:16:47.000Z</time>
      </trkpt>
      <trkpt lat="47.20288" lon="6.68423">
        <ele>963</ele>
        <time>2018-07-01T10:16:48.000Z</time>
      </trkpt>
      <trkpt lat="47.20287" lon="6.6842">
        <ele>963</ele>
        <time>2018-07-01T10:16:49.000Z</time>
      </trkpt>
      <trkpt lat="47.20285" lon="6.68417">
        <ele>963</ele>
        <time>2018-07-01T10:16:50.000Z</time>
      </trkpt>
      <trkpt lat="47.20284" lon="6.68414">
        <ele>967</ele>
        <time>2018-07-01T10:16:51.000Z</time>
      </trkpt>
      <trkpt lat="47.20282" lon="6.68411">
        <ele>967</ele>
        <time>2018-07-01T10:16:52.000Z</time>
      </trkpt>
      <trkpt lat="47.2028" lon="6.68409">
        <ele>967</ele>
        <time>2018-07-01T10:16:53.000Z</time>
      </trkpt>
      <trkpt lat="47.20279" lon="6.68406">
        <ele>967</ele>
        <time>2018-07-01T10:16:54.000Z</time>
      </trkpt>
      <trkpt lat="47.20277" lon="6.68404">
        <ele>967</ele>
        <time>2018-07-01T10:16:55.000Z</time>
      </trkpt>
      <trkpt lat="47.20276" lon="6.68403">
        <ele>967</ele>
        <time>2018-07-01T10:16:56.000Z</time>
      </trkpt>
      <trkpt lat="47.20274" lon="6.68403">
        <ele>967</ele>
        <time>2018-07-01T10:16:57.000Z</time>
      </trkpt>
      <trkpt lat="47.20273" lon="6.68402">
        <ele>967</ele>
        <time>2018-07-01T10:16:58.000Z</time>
      </trkpt>
      <trkpt lat="47.20272" lon="6.68401">
        <ele>967</ele>
        <time>2018-07-01T10:16:59.000Z</time>
      </trkpt>
      <trkpt lat="47.20271" lon="6.684">
        <ele>967</ele>
        <time>2018-07-01T10:17:00.000Z</time>
      </trkpt>
      <trkpt lat="47.2027" lon="6.68399">
        <ele>967</ele>
        <time>2018-07-01T10:17:01.000Z</time>
      </trkpt>
      <trkpt lat="47.20268" lon="6.68398">
        <ele>967</ele>
        <time>2018-07-01T10:17:02.000Z</time>
      </trkpt>
      <trkpt lat="47.20267" lon="6.68397">
        <ele>967</ele>
        <time>2018-07-01T10:17:03.000Z</time>
      </trkpt>
      <trkpt lat="47.20266" lon="6.68396">
        <ele>967</ele>
        <time>2018-07-01T10:17:04.000Z</time>
      </trkpt>
      <trkpt lat="47.20265" lon="6.68395">
        <ele>967</ele>
        <time>2018-07-01T10:17:05.000Z</time>
      </trkpt>
      <trkpt lat="47.20264" lon="6.68394">
        <ele>967</ele>
        <time>2018-07-01T10:17:06.000Z</time>
      </trkpt>
      <trkpt lat="47.20263" lon="6.68393">
        <ele>967</ele>
        <time>2018-07-01T10:17:07.000Z</time>
      </trkpt>
      <trkpt lat="47.20262" lon="6.68392">
        <ele>967</ele>
        <time>2018-07-01T10:17:08.000Z</time>
      </trkpt>
      <trkpt lat="47.20261" lon="6.68391">
        <ele>967</ele>
        <time>2018-07-01T10:17:09.000Z</time>
      </trkpt>
      <trkpt lat="47.2026" lon="6.6839">
        <ele>967</ele>
        <time>2018-07-01T10:17:10.000Z</time>
      </trkpt>
      <trkpt lat="47.20259" lon="6.68389">
        <ele>967</ele>
        <time>2018-07-01T10:17:11.000Z</time>
      </trkpt>
      <trkpt lat="47.20258" lon="6.68388">
        <ele>967</ele>
        <time>2018-07-01T10:17:12.000Z</time>
      </trkpt>
      <trkpt lat="47.20257" lon="6.68388">
        <ele>967</ele>
        <time>2018-07-01T10:17:13.000Z</time>
      </trkpt>
      <trkpt lat="47.20256" lon="6.68387">
        <ele>967</ele>
        <time>2018-07-01T10:17:14.000Z</time>
      </trkpt>
      <trkpt lat="47.20254" lon="6.68386">
        <ele>967</ele>
        <time>2018-07-01T10:17:15.000Z</time>
      </trkpt>
      <trkpt lat="47.20253" lon="6.68385">
        <ele>967</ele>
        <time>2018-07-01T10:17:16.000Z</time>
      </trkpt>
      <trkpt lat="47.20252" lon="6.68384">
        <ele>968</ele>
        <time>2018-07-01T10:17:17.000Z</time>
      </trkpt>
      <trkpt lat="47.2025" lon="6.68382">
        <ele>968</ele>
        <time>2018-07-01T10:17:18.000Z</time>
      </trkpt>
      <trkpt lat="47.20249" lon="6.68381">
        <ele>964</ele>
        <time>2018-07-01T10:17:19.000Z</time>
      </trkpt>
      <trkpt lat="47.20248" lon="6.6838">
        <ele>964</ele>
        <time>2018-07-01T10:17:20.000Z</time>
      </trkpt>
      <trkpt lat="47.20247" lon="6.68378">
        <ele>964</ele>
        <time>2018-07-01T10:17:21.000Z</time>
      </trkpt>
      <trkpt lat="47.20245" lon="6.68376">
        <ele>964</ele>
        <time>2018-07-01T10:17:22.000Z</time>
      </trkpt>
      <trkpt lat="47.20244" lon="6.68373">
        <ele>964</ele>
        <time>2018-07-01T10:17:23.000Z</time>
      </trkpt>
      <trkpt lat="47.20243" lon="6.68371">
        <ele>964</ele>
        <time>2018-07-01T10:17:24.000Z</time>
      </trkpt>
      <trkpt lat="47.20242" lon="6.68367">
        <ele>964</ele>
        <time>2018-07-01T10:17:25.000Z</time>
      </trkpt>
      <trkpt lat="47.20241" lon="6.68364">
        <ele>964</ele>
        <time>2018-07-01T10:17:26.000Z</time>
      </trkpt>
      <trkpt lat="47.20239" lon="6.68361">
        <ele>965</ele>
        <time>2018-07-01T10:17:27.000Z</time>
      </trkpt>
      <trkpt lat="47.20237" lon="6.68359">
        <ele>965</ele>
        <time>2018-07-01T10:17:28.000Z</time>
      </trkpt>
      <trkpt lat="47.20236" lon="6.68355">
        <ele>965</ele>
        <time>2018-07-01T10:17:29.000Z</time>
      </trkpt>
      <trkpt lat="47.20234" lon="6.68352">
        <ele>965</ele>
        <time>2018-07-01T10:17:30.000Z</time>
      </trkpt>
      <trkpt lat="47.20233" lon="6.68349">
        <ele>965</ele>
        <time>2018-07-01T10:17:31.000Z</time>
      </trkpt>
      <trkpt lat="47.20231" lon="6.68346">
        <ele>965</ele>
        <time>2018-07-01T10:17:32.000Z</time>
      </trkpt>
      <trkpt lat="47.2023" lon="6.68343">
        <ele>965</ele>
        <time>2018-07-01T10:17:33.000Z</time>
      </trkpt>
      <trkpt lat="47.20228" lon="6.6834">
        <ele>965</ele>
        <time>2018-07-01T10:17:34.000Z</time>
      </trkpt>
      <trkpt lat="47.20227" lon="6.68336">
        <ele>965</ele>
        <time>2018-07-01T10:17:35.000Z</time>
      </trkpt>
      <trkpt lat="47.20226" lon="6.68333">
        <ele>968</ele>
        <time>2018-07-01T10:17:36.000Z</time>
      </trkpt>
      <trkpt lat="47.20224" lon="6.68329">
        <ele>967</ele>
        <time>2018-07-01T10:17:37.000Z</time>
      </trkpt>
      <trkpt lat="47.20223" lon="6.68326">
        <ele>967</ele>
        <time>2018-07-01T10:17:38.000Z</time>
      </trkpt>
      <trkpt lat="47.20221" lon="6.68323">
        <ele>967</ele>
        <time>2018-07-01T10:17:39.000Z</time>
      </trkpt>
      <trkpt lat="47.2022" lon="6.6832">
        <ele>967</ele>
        <time>2018-07-01T10:17:40.000Z</time>
      </trkpt>
      <trkpt lat="47.20218" lon="6.68317">
        <ele>967</ele>
        <time>2018-07-01T10:17:41.000Z</time>
      </trkpt>
      <trkpt lat="47.20216" lon="6.68315">
        <ele>966</ele>
        <time>2018-07-01T10:17:42.000Z</time>
      </trkpt>
      <trkpt lat="47.20214" lon="6.68313">
        <ele>966</ele>
        <time>2018-07-01T10:17:43.000Z</time>
      </trkpt>
      <trkpt lat="47.20212" lon="6.6831">
        <ele>966</ele>
        <time>2018-07-01T10:17:44.000Z</time>
      </trkpt>
      <trkpt lat="47.2021" lon="6.68308">
        <ele>966</ele>
        <time>2018-07-01T10:17:45.000Z</time>
      </trkpt>
      <trkpt lat="47.20209" lon="6.68304">
        <ele>966</ele>
        <time>2018-07-01T10:17:46.000Z</time>
      </trkpt>
      <trkpt lat="47.20207" lon="6.68301">
        <ele>966</ele>
        <time>2018-07-01T10:17:47.000Z</time>
      </trkpt>
      <trkpt lat="47.20205" lon="6.68297">
        <ele>966</ele>
        <time>2018-07-01T10:17:48.000Z</time>
      </trkpt>
      <trkpt lat="47.20203" lon="6.68294">
        <ele>966</ele>
        <time>2018-07-01T10:17:49.000Z</time>
      </trkpt>
      <trkpt lat="47.20202" lon="6.68291">
        <ele>966</ele>
        <time>2018-07-01T10:17:50.000Z</time>
      </trkpt>
      <trkpt lat="47.202" lon="6.68287">
        <ele>966</ele>
        <time>2018-07-01T10:17:51.000Z</time>
      </trkpt>
      <trkpt lat="47.20199" lon="6.68283">
        <ele>966</ele>
        <time>2018-07-01T10:17:52.000Z</time>
      </trkpt>
      <trkpt lat="47.20197" lon="6.6828">
        <ele>966</ele>
        <time>2018-07-01T10:17:53.000Z</time>
      </trkpt>
      <trkpt lat="47.20196" lon="6.68276">
        <ele>966</ele>
        <time>2018-07-01T10:17:54.000Z</time>
      </trkpt>
      <trkpt lat="47.20195" lon="6.68272">
        <ele>966</ele>
        <time>2018-07-01T10:17:55.000Z</time>
      </trkpt>
      <trkpt lat="47.20194" lon="6.68268">
        <ele>966</ele>
        <time>2018-07-01T10:17:56.000Z</time>
      </trkpt>
      <trkpt lat="47.20193" lon="6.68265">
        <ele>966</ele>
        <time>2018-07-01T10:17:57.000Z</time>
      </trkpt>
      <trkpt lat="47.20192" lon="6.68261">
        <ele>966</ele>
        <time>2018-07-01T10:17:58.000Z</time>
      </trkpt>
      <trkpt lat="47.20191" lon="6.68258">
        <ele>966</ele>
        <time>2018-07-01T10:17:59.000Z</time>
      </trkpt>
      <trkpt lat="47.20189" lon="6.68254">
        <ele>966</ele>
        <time>2018-07-01T10:18:00.000Z</time>
      </trkpt>
      <trkpt lat="47.20188" lon="6.68251">
        <ele>966</ele>
        <time>2018-07-01T10:18:01.000Z</time>
      </trkpt>
      <trkpt lat="47.20187" lon="6.68248">
        <ele>965</ele>
        <time>2018-07-01T10:18:02.000Z</time>
      </trkpt>
      <trkpt lat="47.20185" lon="6.68244">
        <ele>965</ele>
        <time>2018-07-01T10:18:03.000Z</time>
      </trkpt>
      <trkpt lat="47.20184" lon="6.68241">
        <ele>965</ele>
        <time>2018-07-01T10:18:04.000Z</time>
      </trkpt>
      <trkpt lat="47.20182" lon="6.68238">
        <ele>965</ele>
        <time>2018-07-01T10:18:05.000Z</time>
      </trkpt>
      <trkpt lat="47.20181" lon="6.68234">
        <ele>965</ele>
        <time>2018-07-01T10:18:06.000Z</time>
      </trkpt>
      <trkpt lat="47.2018" lon="6.6823">
        <ele>965</ele>
        <time>2018-07-01T10:18:07.000Z</time>
      </trkpt>
      <trkpt lat="47.20179" lon="6.68227">
        <ele>965</ele>
        <time>2018-07-01T10:18:08.000Z</time>
      </trkpt>
      <trkpt lat="47.20178" lon="6.68224">
        <ele>965</ele>
        <time>2018-07-01T10:18:09.000Z</time>
      </trkpt>
      <trkpt lat="47.20177" lon="6.68222">
        <ele>965</ele>
        <time>2018-07-01T10:18:10.000Z</time>
      </trkpt>
      <trkpt lat="47.20176" lon="6.68219">
        <ele>965</ele>
        <time>2018-07-01T10:18:11.000Z</time>
      </trkpt>
      <trkpt lat="47.20176" lon="6.68216">
        <ele>965</ele>
        <time>2018-07-01T10:18:12.000Z</time>
      </trkpt>
      <trkpt lat="47.20175" lon="6.68212">
        <ele>965</ele>
        <time>2018-07-01T10:18:13.000Z</time>
      </trkpt>
      <trkpt lat="47.20174" lon="6.68209">
        <ele>966</ele>
        <time>2018-07-01T10:18:14.000Z</time>
      </trkpt>
      <trkpt lat="47.20173" lon="6.68205">
        <ele>966</ele>
        <time>2018-07-01T10:18:15.000Z</time>
      </trkpt>
      <trkpt lat="47.20171" lon="6.68202">
        <ele>966</ele>
        <time>2018-07-01T10:18:16.000Z</time>
      </trkpt>
      <trkpt lat="47.2017" lon="6.68198">
        <ele>966</ele>
        <time>2018-07-01T10:18:17.000Z</time>
      </trkpt>
      <trkpt lat="47.20169" lon="6.68194">
        <ele>966</ele>
        <time>2018-07-01T10:18:18.000Z</time>
      </trkpt>
      <trkpt lat="47.20168" lon="6.68191">
        <ele>966</ele>
        <time>2018-07-01T10:18:19.000Z</time>
      </trkpt>
      <trkpt lat="47.20168" lon="6.68187">
        <ele>966</ele>
        <time>2018-07-01T10:18:20.000Z</time>
      </trkpt>
      <trkpt lat="47.20167" lon="6.68184">
        <ele>966</ele>
        <time>2018-07-01T10:18:21.000Z</time>
      </trkpt>
      <trkpt lat="47.20166" lon="6.6818">
        <ele>963</ele>
        <time>2018-07-01T10:18:22.000Z</time>
      </trkpt>
      <trkpt lat="47.20166" lon="6.68176">
        <ele>964</ele>
        <time>2018-07-01T10:18:23.000Z</time>
      </trkpt>
      <trkpt lat="47.20165" lon="6.68171">
        <ele>965</ele>
        <time>2018-07-01T10:18:24.000Z</time>
      </trkpt>
      <trkpt lat="47.20164" lon="6.68167">
        <ele>966</ele>
        <time>2018-07-01T10:18:25.000Z</time>
      </trkpt>
      <trkpt lat="47.20163" lon="6.68164">
        <ele>966</ele>
        <time>2018-07-01T10:18:26.000Z</time>
      </trkpt>
      <trkpt lat="47.20161" lon="6.68161">
        <ele>965</ele>
        <time>2018-07-01T10:18:27.000Z</time>
      </trkpt>
      <trkpt lat="47.2016" lon="6.68158">
        <ele>964</ele>
        <time>2018-07-01T10:18:28.000Z</time>
      </trkpt>
      <trkpt lat="47.20159" lon="6.68155">
        <ele>964</ele>
        <time>2018-07-01T10:18:29.000Z</time>
      </trkpt>
      <trkpt lat="47.20158" lon="6.68152">
        <ele>963</ele>
        <time>2018-07-01T10:18:30.000Z</time>
      </trkpt>
      <trkpt lat="47.20157" lon="6.68149">
        <ele>963</ele>
        <time>2018-07-01T10:18:31.000Z</time>
      </trkpt>
      <trkpt lat="47.20156" lon="6.68146">
        <ele>963</ele>
        <time>2018-07-01T10:18:32.000Z</time>
      </trkpt>
      <trkpt lat="47.20155" lon="6.68143">
        <ele>962</ele>
        <time>2018-07-01T10:18:33.000Z</time>
      </trkpt>
      <trkpt lat="47.20154" lon="6.68139">
        <ele>962</ele>
        <time>2018-07-01T10:18:34.000Z</time>
      </trkpt>
      <trkpt lat="47.20153" lon="6.68136">
        <ele>962</ele>
        <time>2018-07-01T10:18:35.000Z</time>
      </trkpt>
      <trkpt lat="47.20152" lon="6.68133">
        <ele>962</ele>
        <time>2018-07-01T10:18:36.000Z</time>
      </trkpt>
      <trkpt lat="47.20151" lon="6.68129">
        <ele>962</ele>
        <time>2018-07-01T10:18:37.000Z</time>
      </trkpt>
      <trkpt lat="47.20149" lon="6.68126">
        <ele>962</ele>
        <time>2018-07-01T10:18:38.000Z</time>
      </trkpt>
      <trkpt lat="47.20148" lon="6.68123">
        <ele>961</ele>
        <time>2018-07-01T10:18:39.000Z</time>
      </trkpt>
      <trkpt lat="47.20146" lon="6.6812">
        <ele>961</ele>
        <time>2018-07-01T10:18:40.000Z</time>
      </trkpt>
      <trkpt lat="47.20145" lon="6.68117">
        <ele>961</ele>
        <time>2018-07-01T10:18:41.000Z</time>
      </trkpt>
      <trkpt lat="47.20143" lon="6.68114">
        <ele>961</ele>
        <time>2018-07-01T10:18:42.000Z</time>
      </trkpt>
      <trkpt lat="47.20141" lon="6.68111">
        <ele>961</ele>
        <time>2018-07-01T10:18:43.000Z</time>
      </trkpt>
      <trkpt lat="47.2014" lon="6.68108">
        <ele>961</ele>
        <time>2018-07-01T10:18:44.000Z</time>
      </trkpt>
      <trkpt lat="47.20138" lon="6.68104">
        <ele>961</ele>
        <time>2018-07-01T10:18:45.000Z</time>
      </trkpt>
      <trkpt lat="47.20137" lon="6.68102">
        <ele>961</ele>
        <time>2018-07-01T10:18:46.000Z</time>
      </trkpt>
      <trkpt lat="47.20136" lon="6.68099">
        <ele>961</ele>
        <time>2018-07-01T10:18:47.000Z</time>
      </trkpt>
      <trkpt lat="47.20134" lon="6.68097">
        <ele>961</ele>
        <time>2018-07-01T10:18:48.000Z</time>
      </trkpt>
      <trkpt lat="47.20133" lon="6.68095">
        <ele>961</ele>
        <time>2018-07-01T10:18:49.000Z</time>
      </trkpt>
      <trkpt lat="47.20132" lon="6.68094">
        <ele>961</ele>
        <time>2018-07-01T10:18:50.000Z</time>
      </trkpt>
      <trkpt lat="47.2013" lon="6.68095">
        <ele>961</ele>
        <time>2018-07-01T10:18:51.000Z</time>
      </trkpt>
      <trkpt lat="47.20129" lon="6.68095">
        <ele>961</ele>
        <time>2018-07-01T10:18:52.000Z</time>
      </trkpt>
      <trkpt lat="47.20128" lon="6.68095">
        <ele>961</ele>
        <time>2018-07-01T10:18:53.000Z</time>
      </trkpt>
      <trkpt lat="47.20127" lon="6.68094">
        <ele>961</ele>
        <time>2018-07-01T10:18:54.000Z</time>
      </trkpt>
      <trkpt lat="47.20127" lon="6.68092">
        <ele>961</ele>
        <time>2018-07-01T10:18:55.000Z</time>
      </trkpt>
      <trkpt lat="47.20126" lon="6.68091">
        <ele>961</ele>
        <time>2018-07-01T10:18:56.000Z</time>
      </trkpt>
      <trkpt lat="47.20124" lon="6.6809">
        <ele>961</ele>
        <time>2018-07-01T10:18:57.000Z</time>
      </trkpt>
      <trkpt lat="47.20123" lon="6.68088">
        <ele>961</ele>
        <time>2018-07-01T10:18:58.000Z</time>
      </trkpt>
      <trkpt lat="47.20122" lon="6.68086">
        <ele>961</ele>
        <time>2018-07-01T10:18:59.000Z</time>
      </trkpt>
      <trkpt lat="47.20121" lon="6.68084">
        <ele>961</ele>
        <time>2018-07-01T10:19:00.000Z</time>
      </trkpt>
      <trkpt lat="47.20119" lon="6.68082">
        <ele>961</ele>
        <time>2018-07-01T10:19:01.000Z</time>
      </trkpt>
      <trkpt lat="47.20117" lon="6.6808">
        <ele>961</ele>
        <time>2018-07-01T10:19:02.000Z</time>
      </trkpt>
      <trkpt lat="47.20116" lon="6.68078">
        <ele>961</ele>
        <time>2018-07-01T10:19:03.000Z</time>
      </trkpt>
      <trkpt lat="47.20114" lon="6.68076">
        <ele>961</ele>
        <time>2018-07-01T10:19:04.000Z</time>
      </trkpt>
      <trkpt lat="47.20112" lon="6.68074">
        <ele>961</ele>
        <time>2018-07-01T10:19:05.000Z</time>
      </trkpt>
      <trkpt lat="47.2011" lon="6.68072">
        <ele>961</ele>
        <time>2018-07-01T10:19:06.000Z</time>
      </trkpt>
      <trkpt lat="47.20108" lon="6.6807">
        <ele>961</ele>
        <time>2018-07-01T10:19:07.000Z</time>
      </trkpt>
      <trkpt lat="47.20106" lon="6.68067">
        <ele>961</ele>
        <time>2018-07-01T10:19:08.000Z</time>
      </trkpt>
      <trkpt lat="47.20104" lon="6.68064">
        <ele>961</ele>
        <time>2018-07-01T10:19:09.000Z</time>
      </trkpt>
      <trkpt lat="47.20102" lon="6.68062">
        <ele>961</ele>
        <time>2018-07-01T10:19:10.000Z</time>
      </trkpt>
      <trkpt lat="47.201" lon="6.6806">
        <ele>962</ele>
        <time>2018-07-01T10:19:11.000Z</time>
      </trkpt>
      <trkpt lat="47.20098" lon="6.68059">
        <ele>962</ele>
        <time>2018-07-01T10:19:12.000Z</time>
      </trkpt>
      <trkpt lat="47.20096" lon="6.68057">
        <ele>962</ele>
        <time>2018-07-01T10:19:13.000Z</time>
      </trkpt>
      <trkpt lat="47.20094" lon="6.68056">
        <ele>962</ele>
        <time>2018-07-01T10:19:14.000Z</time>
      </trkpt>
      <trkpt lat="47.20092" lon="6.68055">
        <ele>962</ele>
        <time>2018-07-01T10:19:15.000Z</time>
      </trkpt>
      <trkpt lat="47.2009" lon="6.68054">
        <ele>962</ele>
        <time>2018-07-01T10:19:16.000Z</time>
      </trkpt>
      <trkpt lat="47.20087" lon="6.68052">
        <ele>962</ele>
        <time>2018-07-01T10:19:17.000Z</time>
      </trkpt>
      <trkpt lat="47.20085" lon="6.68051">
        <ele>962</ele>
        <time>2018-07-01T10:19:18.000Z</time>
      </trkpt>
      <trkpt lat="47.20082" lon="6.68049">
        <ele>960</ele>
        <time>2018-07-01T10:19:19.000Z</time>
      </trkpt>
      <trkpt lat="47.2008" lon="6.68047">
        <ele>960</ele>
        <time>2018-07-01T10:19:20.000Z</time>
      </trkpt>
      <trkpt lat="47.20077" lon="6.68045">
        <ele>960</ele>
        <time>2018-07-01T10:19:21.000Z</time>
      </trkpt>
      <trkpt lat="47.20075" lon="6.68043">
        <ele>960</ele>
        <time>2018-07-01T10:19:22.000Z</time>
      </trkpt>
      <trkpt lat="47.20072" lon="6.68041">
        <ele>960</ele>
        <time>2018-07-01T10:19:23.000Z</time>
      </trkpt>
      <trkpt lat="47.2007" lon="6.68039">
        <ele>960</ele>
        <time>2018-07-01T10:19:24.000Z</time>
      </trkpt>
      <trkpt lat="47.20068" lon="6.68035">
        <ele>960</ele>
        <time>2018-07-01T10:19:25.000Z</time>
      </trkpt>
      <trkpt lat="47.20065" lon="6.68033">
        <ele>960</ele>
        <time>2018-07-01T10:19:26.000Z</time>
      </trkpt>
      <trkpt lat="47.20063" lon="6.6803">
        <ele>960</ele>
        <time>2018-07-01T10:19:27.000Z</time>
      </trkpt>
      <trkpt lat="47.2006" lon="6.68027">
        <ele>960</ele>
        <time>2018-07-01T10:19:28.000Z</time>
      </trkpt>
      <trkpt lat="47.20058" lon="6.68025">
        <ele>960</ele>
        <time>2018-07-01T10:19:29.000Z</time>
      </trkpt>
      <trkpt lat="47.20055" lon="6.68024">
        <ele>960</ele>
        <time>2018-07-01T10:19:30.000Z</time>
      </trkpt>
      <trkpt lat="47.20052" lon="6.68022">
        <ele>960</ele>
        <time>2018-07-01T10:19:31.000Z</time>
      </trkpt>
      <trkpt lat="47.20049" lon="6.6802">
        <ele>959</ele>
        <time>2018-07-01T10:19:32.000Z</time>
      </trkpt>
      <trkpt lat="47.20046" lon="6.68018">
        <ele>959</ele>
        <time>2018-07-01T10:19:33.000Z</time>
      </trkpt>
      <trkpt lat="47.20044" lon="6.68017">
        <ele>959</ele>
        <time>2018-07-01T10:19:34.000Z</time>
      </trkpt>
      <trkpt lat="47.20042" lon="6.68015">
        <ele>959</ele>
        <time>2018-07-01T10:19:35.000Z</time>
      </trkpt>
      <trkpt lat="47.2004" lon="6.68012">
        <ele>959</ele>
        <time>2018-07-01T10:19:36.000Z</time>
      </trkpt>
      <trkpt lat="47.20039" lon="6.6801">
        <ele>959</ele>
        <time>2018-07-01T10:19:37.000Z</time>
      </trkpt>
      <trkpt lat="47.20038" lon="6.68007">
        <ele>959</ele>
        <time>2018-07-01T10:19:38.000Z</time>
      </trkpt>
      <trkpt lat="47.20036" lon="6.68005">
        <ele>959</ele>
        <time>2018-07-01T10:19:39.000Z</time>
      </trkpt>
      <trkpt lat="47.20035" lon="6.68003">
        <ele>959</ele>
        <time>2018-07-01T10:19:40.000Z</time>
      </trkpt>
      <trkpt lat="47.20034" lon="6.68001">
        <ele>959</ele>
        <time>2018-07-01T10:19:41.000Z</time>
      </trkpt>
      <trkpt lat="47.20033" lon="6.67999">
        <ele>962</ele>
        <time>2018-07-01T10:19:42.000Z</time>
      </trkpt>
      <trkpt lat="47.20031" lon="6.67997">
        <ele>962</ele>
        <time>2018-07-01T10:19:43.000Z</time>
      </trkpt>
      <trkpt lat="47.2003" lon="6.67995">
        <ele>962</ele>
        <time>2018-07-01T10:19:44.000Z</time>
      </trkpt>
      <trkpt lat="47.20029" lon="6.67993">
        <ele>962</ele>
        <time>2018-07-01T10:19:45.000Z</time>
      </trkpt>
      <trkpt lat="47.20027" lon="6.67991">
        <ele>962</ele>
        <time>2018-07-01T10:19:46.000Z</time>
      </trkpt>
      <trkpt lat="47.20026" lon="6.67989">
        <ele>962</ele>
        <time>2018-07-01T10:19:47.000Z</time>
      </trkpt>
      <trkpt lat="47.20025" lon="6.67988">
        <ele>962</ele>
        <time>2018-07-01T10:19:48.000Z</time>
      </trkpt>
      <trkpt lat="47.20024" lon="6.67986">
        <ele>962</ele>
        <time>2018-07-01T10:19:49.000Z</time>
      </trkpt>
      <trkpt lat="47.20022" lon="6.67984">
        <ele>962</ele>
        <time>2018-07-01T10:19:50.000Z</time>
      </trkpt>
      <trkpt lat="47.20021" lon="6.67982">
        <ele>962</ele>
        <time>2018-07-01T10:19:51.000Z</time>
      </trkpt>
      <trkpt lat="47.20021" lon="6.6798">
        <ele>962</ele>
        <time>2018-07-01T10:19:52.000Z</time>
      </trkpt>
      <trkpt lat="47.2002" lon="6.67978">
        <ele>962</ele>
        <time>2018-07-01T10:19:53.000Z</time>
      </trkpt>
      <trkpt lat="47.20019" lon="6.67976">
        <ele>962</ele>
        <time>2018-07-01T10:19:54.000Z</time>
      </trkpt>
      <trkpt lat="47.20018" lon="6.67974">
        <ele>962</ele>
        <time>2018-07-01T10:19:55.000Z</time>
      </trkpt>
      <trkpt lat="47.20017" lon="6.67972">
        <ele>962</ele>
        <time>2018-07-01T10:19:56.000Z</time>
      </trkpt>
      <trkpt lat="47.20016" lon="6.6797">
        <ele>962</ele>
        <time>2018-07-01T10:19:57.000Z</time>
      </trkpt>
      <trkpt lat="47.20015" lon="6.67969">
        <ele>962</ele>
        <time>2018-07-01T10:19:58.000Z</time>
      </trkpt>
      <trkpt lat="47.20014" lon="6.67967">
        <ele>962</ele>
        <time>2018-07-01T10:19:59.000Z</time>
      </trkpt>
      <trkpt lat="47.20013" lon="6.67965">
        <ele>962</ele>
        <time>2018-07-01T10:20:00.000Z</time>
      </trkpt>
      <trkpt lat="47.20013" lon="6.67963">
        <ele>962</ele>
        <time>2018-07-01T10:20:01.000Z</time>
      </trkpt>
      <trkpt lat="47.20012" lon="6.67961">
        <ele>962</ele>
        <time>2018-07-01T10:20:02.000Z</time>
      </trkpt>
      <trkpt lat="47.20011" lon="6.67959">
        <ele>962</ele>
        <time>2018-07-01T10:20:03.000Z</time>
      </trkpt>
      <trkpt lat="47.20009" lon="6.67957">
        <ele>963</ele>
        <time>2018-07-01T10:20:04.000Z</time>
      </trkpt>
      <trkpt lat="47.20008" lon="6.67954">
        <ele>963</ele>
        <time>2018-07-01T10:20:05.000Z</time>
      </trkpt>
      <trkpt lat="47.20007" lon="6.67951">
        <ele>963</ele>
        <time>2018-07-01T10:20:06.000Z</time>
      </trkpt>
      <trkpt lat="47.20006" lon="6.67948">
        <ele>963</ele>
        <time>2018-07-01T10:20:07.000Z</time>
      </trkpt>
      <trkpt lat="47.20005" lon="6.67945">
        <ele>963</ele>
        <time>2018-07-01T10:20:08.000Z</time>
      </trkpt>
      <trkpt lat="47.20003" lon="6.67941">
        <ele>963</ele>
        <time>2018-07-01T10:20:09.000Z</time>
      </trkpt>
      <trkpt lat="47.20002" lon="6.67938">
        <ele>963</ele>
        <time>2018-07-01T10:20:10.000Z</time>
      </trkpt>
      <trkpt lat="47.2" lon="6.67935">
        <ele>964</ele>
        <time>2018-07-01T10:20:11.000Z</time>
      </trkpt>
      <trkpt lat="47.19999" lon="6.67932">
        <ele>961</ele>
        <time>2018-07-01T10:20:12.000Z</time>
      </trkpt>
      <trkpt lat="47.19998" lon="6.6793">
        <ele>962</ele>
        <time>2018-07-01T10:20:13.000Z</time>
      </trkpt>
      <trkpt lat="47.19997" lon="6.67926">
        <ele>962</ele>
        <time>2018-07-01T10:20:14.000Z</time>
      </trkpt>
      <trkpt lat="47.19995" lon="6.67923">
        <ele>963</ele>
        <time>2018-07-01T10:20:15.000Z</time>
      </trkpt>
      <trkpt lat="47.19994" lon="6.67921">
        <ele>963</ele>
        <time>2018-07-01T10:20:16.000Z</time>
      </trkpt>
      <trkpt lat="47.19992" lon="6.67917">
        <ele>963</ele>
        <time>2018-07-01T10:20:17.000Z</time>
      </trkpt>
      <trkpt lat="47.19991" lon="6.67914">
        <ele>964</ele>
        <time>2018-07-01T10:20:18.000Z</time>
      </trkpt>
      <trkpt lat="47.19989" lon="6.67912">
        <ele>963</ele>
        <time>2018-07-01T10:20:19.000Z</time>
      </trkpt>
      <trkpt lat="47.19988" lon="6.6791">
        <ele>963</ele>
        <time>2018-07-01T10:20:20.000Z</time>
      </trkpt>
      <trkpt lat="47.19986" lon="6.67907">
        <ele>963</ele>
        <time>2018-07-01T10:20:21.000Z</time>
      </trkpt>
      <trkpt lat="47.19985" lon="6.67904">
        <ele>963</ele>
        <time>2018-07-01T10:20:22.000Z</time>
      </trkpt>
      <trkpt lat="47.19984" lon="6.67901">
        <ele>963</ele>
        <time>2018-07-01T10:20:23.000Z</time>
      </trkpt>
      <trkpt lat="47.19982" lon="6.67898">
        <ele>962</ele>
        <time>2018-07-01T10:20:24.000Z</time>
      </trkpt>
      <trkpt lat="47.19981" lon="6.67895">
        <ele>962</ele>
        <time>2018-07-01T10:20:25.000Z</time>
      </trkpt>
      <trkpt lat="47.19979" lon="6.67892">
        <ele>962</ele>
        <time>2018-07-01T10:20:26.000Z</time>
      </trkpt>
      <trkpt lat="47.19977" lon="6.67889">
        <ele>962</ele>
        <time>2018-07-01T10:20:27.000Z</time>
      </trkpt>
      <trkpt lat="47.19975" lon="6.67886">
        <ele>962</ele>
        <time>2018-07-01T10:20:28.000Z</time>
      </trkpt>
      <trkpt lat="47.19972" lon="6.67884">
        <ele>962</ele>
        <time>2018-07-01T10:20:29.000Z</time>
      </trkpt>
      <trkpt lat="47.1997" lon="6.67881">
        <ele>962</ele>
        <time>2018-07-01T10:20:30.000Z</time>
      </trkpt>
      <trkpt lat="47.19968" lon="6.67879">
        <ele>962</ele>
        <time>2018-07-01T10:20:31.000Z</time>
      </trkpt>
      <trkpt lat="47.19966" lon="6.67876">
        <ele>962</ele>
        <time>2018-07-01T10:20:32.000Z</time>
      </trkpt>
      <trkpt lat="47.19964" lon="6.67874">
        <ele>962</ele>
        <time>2018-07-01T10:20:33.000Z</time>
      </trkpt>
      <trkpt lat="47.19962" lon="6.67871">
        <ele>962</ele>
        <time>2018-07-01T10:20:34.000Z</time>
      </trkpt>
      <trkpt lat="47.1996" lon="6.67868">
        <ele>962</ele>
        <time>2018-07-01T10:20:35.000Z</time>
      </trkpt>
      <trkpt lat="47.19958" lon="6.67866">
        <ele>962</ele>
        <time>2018-07-01T10:20:36.000Z</time>
      </trkpt>
      <trkpt lat="47.19957" lon="6.67863">
        <ele>962</ele>
        <time>2018-07-01T10:20:37.000Z</time>
      </trkpt>
      <trkpt lat="47.19955" lon="6.6786">
        <ele>962</ele>
        <time>2018-07-01T10:20:38.000Z</time>
      </trkpt>
      <trkpt lat="47.19953" lon="6.67858">
        <ele>962</ele>
        <time>2018-07-01T10:20:39.000Z</time>
      </trkpt>
      <trkpt lat="47.19951" lon="6.67856">
        <ele>962</ele>
        <time>2018-07-01T10:20:40.000Z</time>
      </trkpt>
      <trkpt lat="47.19949" lon="6.67854">
        <ele>962</ele>
        <time>2018-07-01T10:20:41.000Z</time>
      </trkpt>
      <trkpt lat="47.19948" lon="6.67852">
        <ele>962</ele>
        <time>2018-07-01T10:20:42.000Z</time>
      </trkpt>
      <trkpt lat="47.19947" lon="6.6785">
        <ele>962</ele>
        <time>2018-07-01T10:20:43.000Z</time>
      </trkpt>
      <trkpt lat="47.19945" lon="6.67848">
        <ele>962</ele>
        <time>2018-07-01T10:20:44.000Z</time>
      </trkpt>
      <trkpt lat="47.19944" lon="6.67845">
        <ele>962</ele>
        <time>2018-07-01T10:20:45.000Z</time>
      </trkpt>
      <trkpt lat="47.19942" lon="6.67843">
        <ele>962</ele>
        <time>2018-07-01T10:20:46.000Z</time>
      </trkpt>
      <trkpt lat="47.19941" lon="6.6784">
        <ele>962</ele>
        <time>2018-07-01T10:20:47.000Z</time>
      </trkpt>
      <trkpt lat="47.19939" lon="6.67837">
        <ele>962</ele>
        <time>2018-07-01T10:20:48.000Z</time>
      </trkpt>
      <trkpt lat="47.19937" lon="6.67834">
        <ele>963</ele>
        <time>2018-07-01T10:20:49.000Z</time>
      </trkpt>
      <trkpt lat="47.19935" lon="6.67832">
        <ele>963</ele>
        <time>2018-07-01T10:20:50.000Z</time>
      </trkpt>
      <trkpt lat="47.19932" lon="6.67829">
        <ele>963</ele>
        <time>2018-07-01T10:20:51.000Z</time>
      </trkpt>
      <trkpt lat="47.1993" lon="6.67827">
        <ele>963</ele>
        <time>2018-07-01T10:20:52.000Z</time>
      </trkpt>
      <trkpt lat="47.19929" lon="6.67825">
        <ele>963</ele>
        <time>2018-07-01T10:20:53.000Z</time>
      </trkpt>
      <trkpt lat="47.19927" lon="6.67822">
        <ele>963</ele>
        <time>2018-07-01T10:20:54.000Z</time>
      </trkpt>
      <trkpt lat="47.19925" lon="6.67819">
        <ele>963</ele>
        <time>2018-07-01T10:20:55.000Z</time>
      </trkpt>
      <trkpt lat="47.19923" lon="6.67816">
        <ele>963</ele>
        <time>2018-07-01T10:20:56.000Z</time>
      </trkpt>
      <trkpt lat="47.19921" lon="6.67813">
        <ele>963</ele>
        <time>2018-07-01T10:20:57.000Z</time>
      </trkpt>
      <trkpt lat="47.19918" lon="6.6781">
        <ele>963</ele>
        <time>2018-07-01T10:20:58.000Z</time>
      </trkpt>
      <trkpt lat="47.19916" lon="6.67807">
        <ele>961</ele>
        <time>2018-07-01T10:20:59.000Z</time>
      </trkpt>
      <trkpt lat="47.19914" lon="6.67805">
        <ele>961</ele>
        <time>2018-07-01T10:21:00.000Z</time>
      </trkpt>
      <trkpt lat="47.19913" lon="6.67802">
        <ele>961</ele>
        <time>2018-07-01T10:21:01.000Z</time>
      </trkpt>
      <trkpt lat="47.19911" lon="6.67799">
        <ele>961</ele>
        <time>2018-07-01T10:21:02.000Z</time>
      </trkpt>
      <trkpt lat="47.1991" lon="6.67796">
        <ele>961</ele>
        <time>2018-07-01T10:21:03.000Z</time>
      </trkpt>
      <trkpt lat="47.19908" lon="6.67794">
        <ele>961</ele>
        <time>2018-07-01T10:21:04.000Z</time>
      </trkpt>
      <trkpt lat="47.19906" lon="6.67791">
        <ele>961</ele>
        <time>2018-07-01T10:21:05.000Z</time>
      </trkpt>
      <trkpt lat="47.19905" lon="6.67788">
        <ele>961</ele>
        <time>2018-07-01T10:21:06.000Z</time>
      </trkpt>
      <trkpt lat="47.19903" lon="6.67786">
        <ele>961</ele>
        <time>2018-07-01T10:21:07.000Z</time>
      </trkpt>
      <trkpt lat="47.19901" lon="6.67784">
        <ele>961</ele>
        <time>2018-07-01T10:21:08.000Z</time>
      </trkpt>
      <trkpt lat="47.199" lon="6.67782">
        <ele>961</ele>
        <time>2018-07-01T10:21:09.000Z</time>
      </trkpt>
      <trkpt lat="47.19898" lon="6.6778">
        <ele>961</ele>
        <time>2018-07-01T10:21:10.000Z</time>
      </trkpt>
      <trkpt lat="47.19896" lon="6.67777">
        <ele>961</ele>
        <time>2018-07-01T10:21:11.000Z</time>
      </trkpt>
      <trkpt lat="47.19894" lon="6.67774">
        <ele>961</ele>
        <time>2018-07-01T10:21:12.000Z</time>
      </trkpt>
      <trkpt lat="47.19892" lon="6.67771">
        <ele>961</ele>
        <time>2018-07-01T10:21:13.000Z</time>
      </trkpt>
      <trkpt lat="47.1989" lon="6.67768">
        <ele>961</ele>
        <time>2018-07-01T10:21:14.000Z</time>
      </trkpt>
      <trkpt lat="47.19888" lon="6.67765">
        <ele>961</ele>
        <time>2018-07-01T10:21:15.000Z</time>
      </trkpt>
      <trkpt lat="47.19885" lon="6.67763">
        <ele>961</ele>
        <time>2018-07-01T10:21:16.000Z</time>
      </trkpt>
      <trkpt lat="47.19883" lon="6.6776">
        <ele>961</ele>
        <time>2018-07-01T10:21:17.000Z</time>
      </trkpt>
      <trkpt lat="47.19881" lon="6.67758">
        <ele>961</ele>
        <time>2018-07-01T10:21:18.000Z</time>
      </trkpt>
      <trkpt lat="47.19879" lon="6.67755">
        <ele>961</ele>
        <time>2018-07-01T10:21:19.000Z</time>
      </trkpt>
      <trkpt lat="47.19877" lon="6.67753">
        <ele>961</ele>
        <time>2018-07-01T10:21:20.000Z</time>
      </trkpt>
      <trkpt lat="47.19876" lon="6.6775">
        <ele>963</ele>
        <time>2018-07-01T10:21:21.000Z</time>
      </trkpt>
      <trkpt lat="47.19874" lon="6.67747">
        <ele>963</ele>
        <time>2018-07-01T10:21:22.000Z</time>
      </trkpt>
      <trkpt lat="47.19872" lon="6.67744">
        <ele>963</ele>
        <time>2018-07-01T10:21:23.000Z</time>
      </trkpt>
      <trkpt lat="47.19871" lon="6.67741">
        <ele>963</ele>
        <time>2018-07-01T10:21:24.000Z</time>
      </trkpt>
      <trkpt lat="47.19869" lon="6.67738">
        <ele>963</ele>
        <time>2018-07-01T10:21:25.000Z</time>
      </trkpt>
      <trkpt lat="47.19868" lon="6.67735">
        <ele>963</ele>
        <time>2018-07-01T10:21:26.000Z</time>
      </trkpt>
      <trkpt lat="47.19866" lon="6.67732">
        <ele>963</ele>
        <time>2018-07-01T10:21:27.000Z</time>
      </trkpt>
      <trkpt lat="47.19865" lon="6.67729">
        <ele>963</ele>
        <time>2018-07-01T10:21:28.000Z</time>
      </trkpt>
      <trkpt lat="47.19864" lon="6.67726">
        <ele>963</ele>
        <time>2018-07-01T10:21:29.000Z</time>
      </trkpt>
      <trkpt lat="47.19863" lon="6.67723">
        <ele>963</ele>
        <time>2018-07-01T10:21:30.000Z</time>
      </trkpt>
      <trkpt lat="47.19862" lon="6.67721">
        <ele>963</ele>
        <time>2018-07-01T10:21:31.000Z</time>
      </trkpt>
      <trkpt lat="47.19861" lon="6.67718">
        <ele>963</ele>
        <time>2018-07-01T10:21:32.000Z</time>
      </trkpt>
      <trkpt lat="47.19859" lon="6.67716">
        <ele>963</ele>
        <time>2018-07-01T10:21:33.000Z</time>
      </trkpt>
      <trkpt lat="47.19858" lon="6.67714">
        <ele>963</ele>
        <time>2018-07-01T10:21:34.000Z</time>
      </trkpt>
      <trkpt lat="47.19856" lon="6.67712">
        <ele>963</ele>
        <time>2018-07-01T10:21:35.000Z</time>
      </trkpt>
      <trkpt lat="47.19855" lon="6.67709">
        <ele>963</ele>
        <time>2018-07-01T10:21:36.000Z</time>
      </trkpt>
      <trkpt lat="47.19853" lon="6.67707">
        <ele>963</ele>
        <time>2018-07-01T10:21:37.000Z</time>
      </trkpt>
      <trkpt lat="47.19851" lon="6.67704">
        <ele>963</ele>
        <time>2018-07-01T10:21:38.000Z</time>
      </trkpt>
      <trkpt lat="47.19848" lon="6.67701">
        <ele>963</ele>
        <time>2018-07-01T10:21:39.000Z</time>
      </trkpt>
      <trkpt lat="47.19846" lon="6.67698">
        <ele>964</ele>
        <time>2018-07-01T10:21:40.000Z</time>
      </trkpt>
      <trkpt lat="47.19845" lon="6.67695">
        <ele>964</ele>
        <time>2018-07-01T10:21:41.000Z</time>
      </trkpt>
      <trkpt lat="47.19843" lon="6.67692">
        <ele>964</ele>
        <time>2018-07-01T10:21:42.000Z</time>
      </trkpt>
      <trkpt lat="47.19841" lon="6.67689">
        <ele>964</ele>
        <time>2018-07-01T10:21:43.000Z</time>
      </trkpt>
      <trkpt lat="47.19839" lon="6.67686">
        <ele>965</ele>
        <time>2018-07-01T10:21:44.000Z</time>
      </trkpt>
      <trkpt lat="47.19837" lon="6.67684">
        <ele>965</ele>
        <time>2018-07-01T10:21:45.000Z</time>
      </trkpt>
      <trkpt lat="47.19835" lon="6.67681">
        <ele>965</ele>
        <time>2018-07-01T10:21:46.000Z</time>
      </trkpt>
      <trkpt lat="47.19833" lon="6.67678">
        <ele>963</ele>
        <time>2018-07-01T10:21:47.000Z</time>
      </trkpt>
      <trkpt lat="47.1983" lon="6.67675">
        <ele>964</ele>
        <time>2018-07-01T10:21:48.000Z</time>
      </trkpt>
      <trkpt lat="47.19828" lon="6.67672">
        <ele>964</ele>
        <time>2018-07-01T10:21:49.000Z</time>
      </trkpt>
      <trkpt lat="47.19826" lon="6.67669">
        <ele>964</ele>
        <time>2018-07-01T10:21:50.000Z</time>
      </trkpt>
      <trkpt lat="47.19823" lon="6.67665">
        <ele>965</ele>
        <time>2018-07-01T10:21:51.000Z</time>
      </trkpt>
      <trkpt lat="47.19822" lon="6.67662">
        <ele>965</ele>
        <time>2018-07-01T10:21:52.000Z</time>
      </trkpt>
      <trkpt lat="47.1982" lon="6.67658">
        <ele>965</ele>
        <time>2018-07-01T10:21:53.000Z</time>
      </trkpt>
      <trkpt lat="47.19818" lon="6.67655">
        <ele>964</ele>
        <time>2018-07-01T10:21:54.000Z</time>
      </trkpt>
      <trkpt lat="47.19816" lon="6.67652">
        <ele>964</ele>
        <time>2018-07-01T10:21:55.000Z</time>
      </trkpt>
      <trkpt lat="47.19814" lon="6.67648">
        <ele>964</ele>
        <time>2018-07-01T10:21:56.000Z</time>
      </trkpt>
      <trkpt lat="47.19812" lon="6.67645">
        <ele>963</ele>
        <time>2018-07-01T10:21:57.000Z</time>
      </trkpt>
      <trkpt lat="47.1981" lon="6.67641">
        <ele>963</ele>
        <time>2018-07-01T10:21:58.000Z</time>
      </trkpt>
      <trkpt lat="47.19809" lon="6.67638">
        <ele>963</ele>
        <time>2018-07-01T10:21:59.000Z</time>
      </trkpt>
      <trkpt lat="47.19807" lon="6.67635">
        <ele>963</ele>
        <time>2018-07-01T10:22:00.000Z</time>
      </trkpt>
      <trkpt lat="47.19805" lon="6.67632">
        <ele>963</ele>
        <time>2018-07-01T10:22:01.000Z</time>
      </trkpt>
      <trkpt lat="47.19803" lon="6.6763">
        <ele>963</ele>
        <time>2018-07-01T10:22:02.000Z</time>
      </trkpt>
      <trkpt lat="47.198" lon="6.67627">
        <ele>963</ele>
        <time>2018-07-01T10:22:03.000Z</time>
      </trkpt>
      <trkpt lat="47.19798" lon="6.67624">
        <ele>963</ele>
        <time>2018-07-01T10:22:04.000Z</time>
      </trkpt>
      <trkpt lat="47.19796" lon="6.67622">
        <ele>963</ele>
        <time>2018-07-01T10:22:05.000Z</time>
      </trkpt>
      <trkpt lat="47.19794" lon="6.6762">
        <ele>963</ele>
        <time>2018-07-01T10:22:06.000Z</time>
      </trkpt>
      <trkpt lat="47.19792" lon="6.67618">
        <ele>963</ele>
        <time>2018-07-01T10:22:07.000Z</time>
      </trkpt>
      <trkpt lat="47.19789" lon="6.67616">
        <ele>963</ele>
        <time>2018-07-01T10:22:08.000Z</time>
      </trkpt>
      <trkpt lat="47.19786" lon="6.67614">
        <ele>963</ele>
        <time>2018-07-01T10:22:09.000Z</time>
      </trkpt>
      <trkpt lat="47.19784" lon="6.67612">
        <ele>963</ele>
        <time>2018-07-01T10:22:10.000Z</time>
      </trkpt>
      <trkpt lat="47.19781" lon="6.6761">
        <ele>963</ele>
        <time>2018-07-01T10:22:11.000Z</time>
      </trkpt>
      <trkpt lat="47.19779" lon="6.67607">
        <ele>963</ele>
        <time>2018-07-01T10:22:12.000Z</time>
      </trkpt>
      <trkpt lat="47.19777" lon="6.67605">
        <ele>963</ele>
        <time>2018-07-01T10:22:13.000Z</time>
      </trkpt>
      <trkpt lat="47.19774" lon="6.67602">
        <ele>963</ele>
        <time>2018-07-01T10:22:14.000Z</time>
      </trkpt>
      <trkpt lat="47.19772" lon="6.67599">
        <ele>963</ele>
        <time>2018-07-01T10:22:15.000Z</time>
      </trkpt>
      <trkpt lat="47.19769" lon="6.67597">
        <ele>963</ele>
        <time>2018-07-01T10:22:16.000Z</time>
      </trkpt>
      <trkpt lat="47.19767" lon="6.67594">
        <ele>963</ele>
        <time>2018-07-01T10:22:17.000Z</time>
      </trkpt>
      <trkpt lat="47.19765" lon="6.6759">
        <ele>963</ele>
        <time>2018-07-01T10:22:18.000Z</time>
      </trkpt>
      <trkpt lat="47.19763" lon="6.67587">
        <ele>963</ele>
        <time>2018-07-01T10:22:19.000Z</time>
      </trkpt>
      <trkpt lat="47.19761" lon="6.67584">
        <ele>963</ele>
        <time>2018-07-01T10:22:20.000Z</time>
      </trkpt>
      <trkpt lat="47.1976" lon="6.67581">
        <ele>964</ele>
        <time>2018-07-01T10:22:21.000Z</time>
      </trkpt>
      <trkpt lat="47.19759" lon="6.67578">
        <ele>964</ele>
        <time>2018-07-01T10:22:22.000Z</time>
      </trkpt>
      <trkpt lat="47.19757" lon="6.67575">
        <ele>964</ele>
        <time>2018-07-01T10:22:23.000Z</time>
      </trkpt>
      <trkpt lat="47.19756" lon="6.67572">
        <ele>964</ele>
        <time>2018-07-01T10:22:24.000Z</time>
      </trkpt>
      <trkpt lat="47.19755" lon="6.67569">
        <ele>964</ele>
        <time>2018-07-01T10:22:25.000Z</time>
      </trkpt>
      <trkpt lat="47.19753" lon="6.67567">
        <ele>964</ele>
        <time>2018-07-01T10:22:26.000Z</time>
      </trkpt>
      <trkpt lat="47.19752" lon="6.67564">
        <ele>964</ele>
        <time>2018-07-01T10:22:27.000Z</time>
      </trkpt>
      <trkpt lat="47.19752" lon="6.67562">
        <ele>964</ele>
        <time>2018-07-01T10:22:28.000Z</time>
      </trkpt>
      <trkpt lat="47.19751" lon="6.67558">
        <ele>964</ele>
        <time>2018-07-01T10:22:29.000Z</time>
      </trkpt>
      <trkpt lat="47.19749" lon="6.67554">
        <ele>960</ele>
        <time>2018-07-01T10:22:30.000Z</time>
      </trkpt>
      <trkpt lat="47.19748" lon="6.6755">
        <ele>960</ele>
        <time>2018-07-01T10:22:31.000Z</time>
      </trkpt>
      <trkpt lat="47.19747" lon="6.67546">
        <ele>960</ele>
        <time>2018-07-01T10:22:32.000Z</time>
      </trkpt>
      <trkpt lat="47.19746" lon="6.67542">
        <ele>960</ele>
        <time>2018-07-01T10:22:33.000Z</time>
      </trkpt>
      <trkpt lat="47.19745" lon="6.67539">
        <ele>960</ele>
        <time>2018-07-01T10:22:34.000Z</time>
      </trkpt>
      <trkpt lat="47.19743" lon="6.67535">
        <ele>960</ele>
        <time>2018-07-01T10:22:35.000Z</time>
      </trkpt>
      <trkpt lat="47.19742" lon="6.67531">
        <ele>960</ele>
        <time>2018-07-01T10:22:36.000Z</time>
      </trkpt>
      <trkpt lat="47.19741" lon="6.67527">
        <ele>961</ele>
        <time>2018-07-01T10:22:37.000Z</time>
      </trkpt>
      <trkpt lat="47.1974" lon="6.67522">
        <ele>961</ele>
        <time>2018-07-01T10:22:38.000Z</time>
      </trkpt>
      <trkpt lat="47.19739" lon="6.67516">
        <ele>962</ele>
        <time>2018-07-01T10:22:39.000Z</time>
      </trkpt>
      <trkpt lat="47.19738" lon="6.67512">
        <ele>963</ele>
        <time>2018-07-01T10:22:40.000Z</time>
      </trkpt>
      <trkpt lat="47.19737" lon="6.67507">
        <ele>963</ele>
        <time>2018-07-01T10:22:41.000Z</time>
      </trkpt>
      <trkpt lat="47.19735" lon="6.67503">
        <ele>963</ele>
        <time>2018-07-01T10:22:42.000Z</time>
      </trkpt>
      <trkpt lat="47.19734" lon="6.675">
        <ele>965</ele>
        <time>2018-07-01T10:22:43.000Z</time>
      </trkpt>
      <trkpt lat="47.19733" lon="6.67497">
        <ele>965</ele>
        <time>2018-07-01T10:22:44.000Z</time>
      </trkpt>
      <trkpt lat="47.19731" lon="6.67494">
        <ele>965</ele>
        <time>2018-07-01T10:22:45.000Z</time>
      </trkpt>
      <trkpt lat="47.1973" lon="6.6749">
        <ele>964</ele>
        <time>2018-07-01T10:22:46.000Z</time>
      </trkpt>
      <trkpt lat="47.19728" lon="6.67487">
        <ele>964</ele>
        <time>2018-07-01T10:22:47.000Z</time>
      </trkpt>
      <trkpt lat="47.19727" lon="6.67484">
        <ele>964</ele>
        <time>2018-07-01T10:22:48.000Z</time>
      </trkpt>
      <trkpt lat="47.19726" lon="6.6748">
        <ele>964</ele>
        <time>2018-07-01T10:22:49.000Z</time>
      </trkpt>
      <trkpt lat="47.19724" lon="6.67477">
        <ele>964</ele>
        <time>2018-07-01T10:22:50.000Z</time>
      </trkpt>
      <trkpt lat="47.19723" lon="6.67474">
        <ele>963</ele>
        <time>2018-07-01T10:22:51.000Z</time>
      </trkpt>
      <trkpt lat="47.19721" lon="6.67471">
        <ele>963</ele>
        <time>2018-07-01T10:22:52.000Z</time>
      </trkpt>
      <trkpt lat="47.1972" lon="6.67469">
        <ele>963</ele>
        <time>2018-07-01T10:22:53.000Z</time>
      </trkpt>
      <trkpt lat="47.19718" lon="6.67467">
        <ele>963</ele>
        <time>2018-07-01T10:22:54.000Z</time>
      </trkpt>
      <trkpt lat="47.19716" lon="6.67465">
        <ele>963</ele>
        <time>2018-07-01T10:22:55.000Z</time>
      </trkpt>
      <trkpt lat="47.19714" lon="6.67463">
        <ele>963</ele>
        <time>2018-07-01T10:22:56.000Z</time>
      </trkpt>
      <trkpt lat="47.19713" lon="6.67461">
        <ele>963</ele>
        <time>2018-07-01T10:22:57.000Z</time>
      </trkpt>
      <trkpt lat="47.19711" lon="6.67459">
        <ele>963</ele>
        <time>2018-07-01T10:22:58.000Z</time>
      </trkpt>
      <trkpt lat="47.19709" lon="6.67456">
        <ele>963</ele>
        <time>2018-07-01T10:22:59.000Z</time>
      </trkpt>
      <trkpt lat="47.19708" lon="6.67453">
        <ele>963</ele>
        <time>2018-07-01T10:23:00.000Z</time>
      </trkpt>
      <trkpt lat="47.19707" lon="6.6745">
        <ele>963</ele>
        <time>2018-07-01T10:23:01.000Z</time>
      </trkpt>
      <trkpt lat="47.19706" lon="6.67448">
        <ele>963</ele>
        <time>2018-07-01T10:23:02.000Z</time>
      </trkpt>
      <trkpt lat="47.19705" lon="6.67444">
        <ele>963</ele>
        <time>2018-07-01T10:23:03.000Z</time>
      </trkpt>
      <trkpt lat="47.19704" lon="6.6744">
        <ele>963</ele>
        <time>2018-07-01T10:23:04.000Z</time>
      </trkpt>
      <trkpt lat="47.19702" lon="6.67436">
        <ele>963</ele>
        <time>2018-07-01T10:23:05.000Z</time>
      </trkpt>
      <trkpt lat="47.19701" lon="6.67433">
        <ele>963</ele>
        <time>2018-07-01T10:23:06.000Z</time>
      </trkpt>
      <trkpt lat="47.19699" lon="6.67429">
        <ele>963</ele>
        <time>2018-07-01T10:23:07.000Z</time>
      </trkpt>
      <trkpt lat="47.19697" lon="6.67426">
        <ele>963</ele>
        <time>2018-07-01T10:23:08.000Z</time>
      </trkpt>
      <trkpt lat="47.19695" lon="6.67422">
        <ele>963</ele>
        <time>2018-07-01T10:23:09.000Z</time>
      </trkpt>
      <trkpt lat="47.19693" lon="6.67419">
        <ele>963</ele>
        <time>2018-07-01T10:23:10.000Z</time>
      </trkpt>
      <trkpt lat="47.19691" lon="6.67415">
        <ele>965</ele>
        <time>2018-07-01T10:23:11.000Z</time>
      </trkpt>
      <trkpt lat="47.19689" lon="6.67412">
        <ele>965</ele>
        <time>2018-07-01T10:23:12.000Z</time>
      </trkpt>
      <trkpt lat="47.19687" lon="6.67409">
        <ele>965</ele>
        <time>2018-07-01T10:23:13.000Z</time>
      </trkpt>
      <trkpt lat="47.19685" lon="6.67405">
        <ele>965</ele>
        <time>2018-07-01T10:23:14.000Z</time>
      </trkpt>
      <trkpt lat="47.19684" lon="6.67402">
        <ele>965</ele>
        <time>2018-07-01T10:23:15.000Z</time>
      </trkpt>
      <trkpt lat="47.19683" lon="6.67398">
        <ele>965</ele>
        <time>2018-07-01T10:23:16.000Z</time>
      </trkpt>
      <trkpt lat="47.19681" lon="6.67394">
        <ele>965</ele>
        <time>2018-07-01T10:23:17.000Z</time>
      </trkpt>
      <trkpt lat="47.1968" lon="6.67389">
        <ele>965</ele>
        <time>2018-07-01T10:23:18.000Z</time>
      </trkpt>
      <trkpt lat="47.19678" lon="6.67385">
        <ele>965</ele>
        <time>2018-07-01T10:23:19.000Z</time>
      </trkpt>
      <trkpt lat="47.19677" lon="6.67382">
        <ele>966</ele>
        <time>2018-07-01T10:23:20.000Z</time>
      </trkpt>
      <trkpt lat="47.19675" lon="6.67379">
        <ele>966</ele>
        <time>2018-07-01T10:23:21.000Z</time>
      </trkpt>
      <trkpt lat="47.19674" lon="6.67377">
        <ele>966</ele>
        <time>2018-07-01T10:23:22.000Z</time>
      </trkpt>
      <trkpt lat="47.19671" lon="6.67375">
        <ele>966</ele>
        <time>2018-07-01T10:23:23.000Z</time>
      </trkpt>
      <trkpt lat="47.19669" lon="6.67372">
        <ele>966</ele>
        <time>2018-07-01T10:23:24.000Z</time>
      </trkpt>
      <trkpt lat="47.19668" lon="6.67369">
        <ele>966</ele>
        <time>2018-07-01T10:23:25.000Z</time>
      </trkpt>
      <trkpt lat="47.19666" lon="6.67366">
        <ele>960</ele>
        <time>2018-07-01T10:23:26.000Z</time>
      </trkpt>
      <trkpt lat="47.19665" lon="6.67363">
        <ele>960</ele>
        <time>2018-07-01T10:23:27.000Z</time>
      </trkpt>
      <trkpt lat="47.19663" lon="6.67359">
        <ele>960</ele>
        <time>2018-07-01T10:23:28.000Z</time>
      </trkpt>
      <trkpt lat="47.19661" lon="6.67356">
        <ele>961</ele>
        <time>2018-07-01T10:23:29.000Z</time>
      </trkpt>
      <trkpt lat="47.1966" lon="6.67352">
        <ele>961</ele>
        <time>2018-07-01T10:23:30.000Z</time>
      </trkpt>
      <trkpt lat="47.19658" lon="6.67347">
        <ele>962</ele>
        <time>2018-07-01T10:23:31.000Z</time>
      </trkpt>
      <trkpt lat="47.19657" lon="6.67342">
        <ele>963</ele>
        <time>2018-07-01T10:23:32.000Z</time>
      </trkpt>
      <trkpt lat="47.19655" lon="6.67337">
        <ele>964</ele>
        <time>2018-07-01T10:23:33.000Z</time>
      </trkpt>
      <trkpt lat="47.19654" lon="6.67332">
        <ele>965</ele>
        <time>2018-07-01T10:23:34.000Z</time>
      </trkpt>
      <trkpt lat="47.19652" lon="6.67327">
        <ele>964</ele>
        <time>2018-07-01T10:23:35.000Z</time>
      </trkpt>
      <trkpt lat="47.19651" lon="6.67322">
        <ele>964</ele>
        <time>2018-07-01T10:23:36.000Z</time>
      </trkpt>
      <trkpt lat="47.1965" lon="6.67317">
        <ele>963</ele>
        <time>2018-07-01T10:23:37.000Z</time>
      </trkpt>
      <trkpt lat="47.19649" lon="6.67312">
        <ele>962</ele>
        <time>2018-07-01T10:23:38.000Z</time>
      </trkpt>
      <trkpt lat="47.19647" lon="6.67309">
        <ele>962</ele>
        <time>2018-07-01T10:23:39.000Z</time>
      </trkpt>
      <trkpt lat="47.19646" lon="6.67307">
        <ele>962</ele>
        <time>2018-07-01T10:23:40.000Z</time>
      </trkpt>
      <trkpt lat="47.19644" lon="6.67304">
        <ele>961</ele>
        <time>2018-07-01T10:23:41.000Z</time>
      </trkpt>
      <trkpt lat="47.19642" lon="6.67302">
        <ele>961</ele>
        <time>2018-07-01T10:23:42.000Z</time>
      </trkpt>
      <trkpt lat="47.1964" lon="6.67301">
        <ele>961</ele>
        <time>2018-07-01T10:23:43.000Z</time>
      </trkpt>
      <trkpt lat="47.19638" lon="6.67299">
        <ele>961</ele>
        <time>2018-07-01T10:23:44.000Z</time>
      </trkpt>
      <trkpt lat="47.19636" lon="6.67297">
        <ele>961</ele>
        <time>2018-07-01T10:23:45.000Z</time>
      </trkpt>
      <trkpt lat="47.19635" lon="6.67295">
        <ele>960</ele>
        <time>2018-07-01T10:23:46.000Z</time>
      </trkpt>
      <trkpt lat="47.19633" lon="6.67293">
        <ele>960</ele>
        <time>2018-07-01T10:23:47.000Z</time>
      </trkpt>
      <trkpt lat="47.19632" lon="6.67289">
        <ele>960</ele>
        <time>2018-07-01T10:23:48.000Z</time>
      </trkpt>
      <trkpt lat="47.19631" lon="6.67286">
        <ele>960</ele>
        <time>2018-07-01T10:23:49.000Z</time>
      </trkpt>
      <trkpt lat="47.1963" lon="6.67282">
        <ele>960</ele>
        <time>2018-07-01T10:23:50.000Z</time>
      </trkpt>
      <trkpt lat="47.19629" lon="6.67279">
        <ele>960</ele>
        <time>2018-07-01T10:23:51.000Z</time>
      </trkpt>
      <trkpt lat="47.19627" lon="6.67276">
        <ele>960</ele>
        <time>2018-07-01T10:23:52.000Z</time>
      </trkpt>
      <trkpt lat="47.19626" lon="6.67274">
        <ele>960</ele>
        <time>2018-07-01T10:23:53.000Z</time>
      </trkpt>
      <trkpt lat="47.19624" lon="6.67272">
        <ele>960</ele>
        <time>2018-07-01T10:23:54.000Z</time>
      </trkpt>
      <trkpt lat="47.19623" lon="6.67269">
        <ele>960</ele>
        <time>2018-07-01T10:23:55.000Z</time>
      </trkpt>
      <trkpt lat="47.19621" lon="6.67266">
        <ele>959</ele>
        <time>2018-07-01T10:23:56.000Z</time>
      </trkpt>
      <trkpt lat="47.1962" lon="6.67263">
        <ele>959</ele>
        <time>2018-07-01T10:23:57.000Z</time>
      </trkpt>
      <trkpt lat="47.19618" lon="6.67259">
        <ele>959</ele>
        <time>2018-07-01T10:23:58.000Z</time>
      </trkpt>
      <trkpt lat="47.19617" lon="6.67256">
        <ele>959</ele>
        <time>2018-07-01T10:23:59.000Z</time>
      </trkpt>
      <trkpt lat="47.19616" lon="6.67252">
        <ele>959</ele>
        <time>2018-07-01T10:24:00.000Z</time>
      </trkpt>
      <trkpt lat="47.19614" lon="6.67249">
        <ele>959</ele>
        <time>2018-07-01T10:24:01.000Z</time>
      </trkpt>
      <trkpt lat="47.19613" lon="6.67245">
        <ele>959</ele>
        <time>2018-07-01T10:24:02.000Z</time>
      </trkpt>
      <trkpt lat="47.19611" lon="6.67241">
        <ele>959</ele>
        <time>2018-07-01T10:24:03.000Z</time>
      </trkpt>
      <trkpt lat="47.1961" lon="6.67238">
        <ele>959</ele>
        <time>2018-07-01T10:24:04.000Z</time>
      </trkpt>
      <trkpt lat="47.19608" lon="6.67235">
        <ele>959</ele>
        <time>2018-07-01T10:24:05.000Z</time>
      </trkpt>
      <trkpt lat="47.19606" lon="6.67232">
        <ele>959</ele>
        <time>2018-07-01T10:24:06.000Z</time>
      </trkpt>
      <trkpt lat="47.19604" lon="6.67229">
        <ele>959</ele>
        <time>2018-07-01T10:24:07.000Z</time>
      </trkpt>
      <trkpt lat="47.19602" lon="6.67226">
        <ele>959</ele>
        <time>2018-07-01T10:24:08.000Z</time>
      </trkpt>
      <trkpt lat="47.196" lon="6.67223">
        <ele>959</ele>
        <time>2018-07-01T10:24:09.000Z</time>
      </trkpt>
      <trkpt lat="47.19597" lon="6.6722">
        <ele>959</ele>
        <time>2018-07-01T10:24:10.000Z</time>
      </trkpt>
      <trkpt lat="47.19596" lon="6.67216">
        <ele>959</ele>
        <time>2018-07-01T10:24:11.000Z</time>
      </trkpt>
      <trkpt lat="47.19594" lon="6.67213">
        <ele>959</ele>
        <time>2018-07-01T10:24:12.000Z</time>
      </trkpt>
      <trkpt lat="47.19592" lon="6.67209">
        <ele>959</ele>
        <time>2018-07-01T10:24:13.000Z</time>
      </trkpt>
      <trkpt lat="47.1959" lon="6.67206">
        <ele>960</ele>
        <time>2018-07-01T10:24:14.000Z</time>
      </trkpt>
      <trkpt lat="47.19589" lon="6.67203">
        <ele>960</ele>
        <time>2018-07-01T10:24:15.000Z</time>
      </trkpt>
      <trkpt lat="47.19587" lon="6.672">
        <ele>960</ele>
        <time>2018-07-01T10:24:16.000Z</time>
      </trkpt>
      <trkpt lat="47.19585" lon="6.67198">
        <ele>960</ele>
        <time>2018-07-01T10:24:17.000Z</time>
      </trkpt>
      <trkpt lat="47.19583" lon="6.67196">
        <ele>952</ele>
        <time>2018-07-01T10:24:18.000Z</time>
      </trkpt>
      <trkpt lat="47.19581" lon="6.67194">
        <ele>952</ele>
        <time>2018-07-01T10:24:19.000Z</time>
      </trkpt>
      <trkpt lat="47.19579" lon="6.67191">
        <ele>953</ele>
        <time>2018-07-01T10:24:20.000Z</time>
      </trkpt>
      <trkpt lat="47.19578" lon="6.67188">
        <ele>953</ele>
        <time>2018-07-01T10:24:21.000Z</time>
      </trkpt>
      <trkpt lat="47.19576" lon="6.67185">
        <ele>954</ele>
        <time>2018-07-01T10:24:22.000Z</time>
      </trkpt>
      <trkpt lat="47.19575" lon="6.67181">
        <ele>954</ele>
        <time>2018-07-01T10:24:23.000Z</time>
      </trkpt>
      <trkpt lat="47.19573" lon="6.67178">
        <ele>954</ele>
        <time>2018-07-01T10:24:24.000Z</time>
      </trkpt>
      <trkpt lat="47.19571" lon="6.67174">
        <ele>955</ele>
        <time>2018-07-01T10:24:25.000Z</time>
      </trkpt>
      <trkpt lat="47.1957" lon="6.6717">
        <ele>955</ele>
        <time>2018-07-01T10:24:26.000Z</time>
      </trkpt>
      <trkpt lat="47.19568" lon="6.67166">
        <ele>957</ele>
        <time>2018-07-01T10:24:27.000Z</time>
      </trkpt>
      <trkpt lat="47.19567" lon="6.67162">
        <ele>956</ele>
        <time>2018-07-01T10:24:28.000Z</time>
      </trkpt>
      <trkpt lat="47.19566" lon="6.67159">
        <ele>956</ele>
        <time>2018-07-01T10:24:29.000Z</time>
      </trkpt>
      <trkpt lat="47.19565" lon="6.67156">
        <ele>955</ele>
        <time>2018-07-01T10:24:30.000Z</time>
      </trkpt>
      <trkpt lat="47.19563" lon="6.67153">
        <ele>955</ele>
        <time>2018-07-01T10:24:31.000Z</time>
      </trkpt>
      <trkpt lat="47.19562" lon="6.6715">
        <ele>955</ele>
        <time>2018-07-01T10:24:32.000Z</time>
      </trkpt>
      <trkpt lat="47.1956" lon="6.67147">
        <ele>954</ele>
        <time>2018-07-01T10:24:33.000Z</time>
      </trkpt>
      <trkpt lat="47.19558" lon="6.67144">
        <ele>954</ele>
        <time>2018-07-01T10:24:34.000Z</time>
      </trkpt>
      <trkpt lat="47.19556" lon="6.6714">
        <ele>954</ele>
        <time>2018-07-01T10:24:35.000Z</time>
      </trkpt>
      <trkpt lat="47.19554" lon="6.67136">
        <ele>953</ele>
        <time>2018-07-01T10:24:36.000Z</time>
      </trkpt>
      <trkpt lat="47.19552" lon="6.67133">
        <ele>953</ele>
        <time>2018-07-01T10:24:37.000Z</time>
      </trkpt>
      <trkpt lat="47.19551" lon="6.67129">
        <ele>953</ele>
        <time>2018-07-01T10:24:38.000Z</time>
      </trkpt>
      <trkpt lat="47.19549" lon="6.67126">
        <ele>953</ele>
        <time>2018-07-01T10:24:39.000Z</time>
      </trkpt>
      <trkpt lat="47.19547" lon="6.67123">
        <ele>953</ele>
        <time>2018-07-01T10:24:40.000Z</time>
      </trkpt>
      <trkpt lat="47.19545" lon="6.6712">
        <ele>953</ele>
        <time>2018-07-01T10:24:41.000Z</time>
      </trkpt>
      <trkpt lat="47.19544" lon="6.67117">
        <ele>953</ele>
        <time>2018-07-01T10:24:42.000Z</time>
      </trkpt>
      <trkpt lat="47.19543" lon="6.67113">
        <ele>953</ele>
        <time>2018-07-01T10:24:43.000Z</time>
      </trkpt>
      <trkpt lat="47.19542" lon="6.6711">
        <ele>953</ele>
        <time>2018-07-01T10:24:44.000Z</time>
      </trkpt>
      <trkpt lat="47.19541" lon="6.67107">
        <ele>953</ele>
        <time>2018-07-01T10:24:45.000Z</time>
      </trkpt>
      <trkpt lat="47.19539" lon="6.67105">
        <ele>953</ele>
        <time>2018-07-01T10:24:46.000Z</time>
      </trkpt>
      <trkpt lat="47.19539" lon="6.67102">
        <ele>953</ele>
        <time>2018-07-01T10:24:47.000Z</time>
      </trkpt>
      <trkpt lat="47.19538" lon="6.67101">
        <ele>952</ele>
        <time>2018-07-01T10:24:48.000Z</time>
      </trkpt>
      <trkpt lat="47.19537" lon="6.67098">
        <ele>952</ele>
        <time>2018-07-01T10:24:49.000Z</time>
      </trkpt>
      <trkpt lat="47.19537" lon="6.67096">
        <ele>952</ele>
        <time>2018-07-01T10:24:50.000Z</time>
      </trkpt>
      <trkpt lat="47.19536" lon="6.67094">
        <ele>952</ele>
        <time>2018-07-01T10:24:51.000Z</time>
      </trkpt>
      <trkpt lat="47.19534" lon="6.67092">
        <ele>952</ele>
        <time>2018-07-01T10:24:52.000Z</time>
      </trkpt>
      <trkpt lat="47.19533" lon="6.6709">
        <ele>952</ele>
        <time>2018-07-01T10:24:53.000Z</time>
      </trkpt>
      <trkpt lat="47.19532" lon="6.67089">
        <ele>952</ele>
        <time>2018-07-01T10:24:54.000Z</time>
      </trkpt>
      <trkpt lat="47.19531" lon="6.67087">
        <ele>952</ele>
        <time>2018-07-01T10:24:55.000Z</time>
      </trkpt>
      <trkpt lat="47.1953" lon="6.67084">
        <ele>952</ele>
        <time>2018-07-01T10:24:56.000Z</time>
      </trkpt>
      <trkpt lat="47.19529" lon="6.67082">
        <ele>953</ele>
        <time>2018-07-01T10:24:57.000Z</time>
      </trkpt>
      <trkpt lat="47.19528" lon="6.6708">
        <ele>953</ele>
        <time>2018-07-01T10:24:58.000Z</time>
      </trkpt>
      <trkpt lat="47.19527" lon="6.67077">
        <ele>952</ele>
        <time>2018-07-01T10:24:59.000Z</time>
      </trkpt>
      <trkpt lat="47.19525" lon="6.67075">
        <ele>952</ele>
        <time>2018-07-01T10:25:00.000Z</time>
      </trkpt>
      <trkpt lat="47.19523" lon="6.67073">
        <ele>952</ele>
        <time>2018-07-01T10:25:01.000Z</time>
      </trkpt>
      <trkpt lat="47.19521" lon="6.6707">
        <ele>952</ele>
        <time>2018-07-01T10:25:02.000Z</time>
      </trkpt>
      <trkpt lat="47.1952" lon="6.67068">
        <ele>952</ele>
        <time>2018-07-01T10:25:03.000Z</time>
      </trkpt>
      <trkpt lat="47.19518" lon="6.67065">
        <ele>952</ele>
        <time>2018-07-01T10:25:04.000Z</time>
      </trkpt>
      <trkpt lat="47.19516" lon="6.67061">
        <ele>952</ele>
        <time>2018-07-01T10:25:05.000Z</time>
      </trkpt>
      <trkpt lat="47.19514" lon="6.67057">
        <ele>952</ele>
        <time>2018-07-01T10:25:06.000Z</time>
      </trkpt>
      <trkpt lat="47.19513" lon="6.67054">
        <ele>952</ele>
        <time>2018-07-01T10:25:07.000Z</time>
      </trkpt>
      <trkpt lat="47.19511" lon="6.6705">
        <ele>952</ele>
        <time>2018-07-01T10:25:08.000Z</time>
      </trkpt>
      <trkpt lat="47.19511" lon="6.67046">
        <ele>953</ele>
        <time>2018-07-01T10:25:09.000Z</time>
      </trkpt>
      <trkpt lat="47.1951" lon="6.67043">
        <ele>953</ele>
        <time>2018-07-01T10:25:10.000Z</time>
      </trkpt>
      <trkpt lat="47.19508" lon="6.67039">
        <ele>953</ele>
        <time>2018-07-01T10:25:11.000Z</time>
      </trkpt>
      <trkpt lat="47.19507" lon="6.67036">
        <ele>953</ele>
        <time>2018-07-01T10:25:12.000Z</time>
      </trkpt>
      <trkpt lat="47.19505" lon="6.67033">
        <ele>953</ele>
        <time>2018-07-01T10:25:13.000Z</time>
      </trkpt>
      <trkpt lat="47.19504" lon="6.6703">
        <ele>953</ele>
        <time>2018-07-01T10:25:14.000Z</time>
      </trkpt>
      <trkpt lat="47.19502" lon="6.67027">
        <ele>953</ele>
        <time>2018-07-01T10:25:15.000Z</time>
      </trkpt>
      <trkpt lat="47.195" lon="6.67024">
        <ele>953</ele>
        <time>2018-07-01T10:25:16.000Z</time>
      </trkpt>
      <trkpt lat="47.19498" lon="6.67022">
        <ele>946</ele>
        <time>2018-07-01T10:25:17.000Z</time>
      </trkpt>
      <trkpt lat="47.19496" lon="6.6702">
        <ele>946</ele>
        <time>2018-07-01T10:25:18.000Z</time>
      </trkpt>
      <trkpt lat="47.19494" lon="6.67017">
        <ele>947</ele>
        <time>2018-07-01T10:25:19.000Z</time>
      </trkpt>
      <trkpt lat="47.19493" lon="6.67015">
        <ele>947</ele>
        <time>2018-07-01T10:25:20.000Z</time>
      </trkpt>
      <trkpt lat="47.19491" lon="6.67011">
        <ele>948</ele>
        <time>2018-07-01T10:25:21.000Z</time>
      </trkpt>
      <trkpt lat="47.1949" lon="6.67007">
        <ele>948</ele>
        <time>2018-07-01T10:25:22.000Z</time>
      </trkpt>
      <trkpt lat="47.19489" lon="6.67003">
        <ele>949</ele>
        <time>2018-07-01T10:25:23.000Z</time>
      </trkpt>
      <trkpt lat="47.19488" lon="6.66999">
        <ele>949</ele>
        <time>2018-07-01T10:25:24.000Z</time>
      </trkpt>
      <trkpt lat="47.19487" lon="6.66995">
        <ele>949</ele>
        <time>2018-07-01T10:25:25.000Z</time>
      </trkpt>
      <trkpt lat="47.19487" lon="6.66991">
        <ele>948</ele>
        <time>2018-07-01T10:25:26.000Z</time>
      </trkpt>
      <trkpt lat="47.19486" lon="6.66986">
        <ele>947</ele>
        <time>2018-07-01T10:25:27.000Z</time>
      </trkpt>
      <trkpt lat="47.19485" lon="6.66982">
        <ele>947</ele>
        <time>2018-07-01T10:25:28.000Z</time>
      </trkpt>
      <trkpt lat="47.19483" lon="6.66978">
        <ele>946</ele>
        <time>2018-07-01T10:25:29.000Z</time>
      </trkpt>
      <trkpt lat="47.19482" lon="6.66974">
        <ele>946</ele>
        <time>2018-07-01T10:25:30.000Z</time>
      </trkpt>
      <trkpt lat="47.19482" lon="6.6697">
        <ele>945</ele>
        <time>2018-07-01T10:25:31.000Z</time>
      </trkpt>
      <trkpt lat="47.19481" lon="6.66965">
        <ele>945</ele>
        <time>2018-07-01T10:25:32.000Z</time>
      </trkpt>
      <trkpt lat="47.19479" lon="6.66961">
        <ele>945</ele>
        <time>2018-07-01T10:25:33.000Z</time>
      </trkpt>
      <trkpt lat="47.19478" lon="6.66957">
        <ele>945</ele>
        <time>2018-07-01T10:25:34.000Z</time>
      </trkpt>
      <trkpt lat="47.19477" lon="6.66953">
        <ele>944</ele>
        <time>2018-07-01T10:25:35.000Z</time>
      </trkpt>
      <trkpt lat="47.19476" lon="6.66948">
        <ele>944</ele>
        <time>2018-07-01T10:25:36.000Z</time>
      </trkpt>
      <trkpt lat="47.19474" lon="6.66944">
        <ele>944</ele>
        <time>2018-07-01T10:25:37.000Z</time>
      </trkpt>
      <trkpt lat="47.19473" lon="6.6694">
        <ele>944</ele>
        <time>2018-07-01T10:25:38.000Z</time>
      </trkpt>
      <trkpt lat="47.19471" lon="6.66936">
        <ele>944</ele>
        <time>2018-07-01T10:25:39.000Z</time>
      </trkpt>
      <trkpt lat="47.19469" lon="6.66932">
        <ele>944</ele>
        <time>2018-07-01T10:25:40.000Z</time>
      </trkpt>
      <trkpt lat="47.19468" lon="6.66928">
        <ele>944</ele>
        <time>2018-07-01T10:25:41.000Z</time>
      </trkpt>
      <trkpt lat="47.19466" lon="6.66924">
        <ele>944</ele>
        <time>2018-07-01T10:25:42.000Z</time>
      </trkpt>
      <trkpt lat="47.19464" lon="6.6692">
        <ele>943</ele>
        <time>2018-07-01T10:25:43.000Z</time>
      </trkpt>
      <trkpt lat="47.19462" lon="6.66917">
        <ele>943</ele>
        <time>2018-07-01T10:25:44.000Z</time>
      </trkpt>
      <trkpt lat="47.1946" lon="6.66914">
        <ele>943</ele>
        <time>2018-07-01T10:25:45.000Z</time>
      </trkpt>
      <trkpt lat="47.19458" lon="6.66911">
        <ele>943</ele>
        <time>2018-07-01T10:25:46.000Z</time>
      </trkpt>
      <trkpt lat="47.19456" lon="6.66908">
        <ele>943</ele>
        <time>2018-07-01T10:25:47.000Z</time>
      </trkpt>
      <trkpt lat="47.19453" lon="6.66905">
        <ele>943</ele>
        <time>2018-07-01T10:25:48.000Z</time>
      </trkpt>
      <trkpt lat="47.19451" lon="6.66901">
        <ele>943</ele>
        <time>2018-07-01T10:25:49.000Z</time>
      </trkpt>
      <trkpt lat="47.19449" lon="6.66898">
        <ele>942</ele>
        <time>2018-07-01T10:25:50.000Z</time>
      </trkpt>
      <trkpt lat="47.19447" lon="6.66895">
        <ele>942</ele>
        <time>2018-07-01T10:25:51.000Z</time>
      </trkpt>
      <trkpt lat="47.19445" lon="6.66892">
        <ele>942</ele>
        <time>2018-07-01T10:25:52.000Z</time>
      </trkpt>
      <trkpt lat="47.19443" lon="6.66889">
        <ele>942</ele>
        <time>2018-07-01T10:25:53.000Z</time>
      </trkpt>
      <trkpt lat="47.19441" lon="6.66886">
        <ele>942</ele>
        <time>2018-07-01T10:25:54.000Z</time>
      </trkpt>
      <trkpt lat="47.1944" lon="6.66883">
        <ele>942</ele>
        <time>2018-07-01T10:25:55.000Z</time>
      </trkpt>
      <trkpt lat="47.19438" lon="6.6688">
        <ele>942</ele>
        <time>2018-07-01T10:25:56.000Z</time>
      </trkpt>
      <trkpt lat="47.19437" lon="6.66876">
        <ele>942</ele>
        <time>2018-07-01T10:25:57.000Z</time>
      </trkpt>
      <trkpt lat="47.19435" lon="6.66873">
        <ele>942</ele>
        <time>2018-07-01T10:25:58.000Z</time>
      </trkpt>
      <trkpt lat="47.19433" lon="6.6687">
        <ele>942</ele>
        <time>2018-07-01T10:25:59.000Z</time>
      </trkpt>
      <trkpt lat="47.19432" lon="6.66866">
        <ele>943</ele>
        <time>2018-07-01T10:26:00.000Z</time>
      </trkpt>
      <trkpt lat="47.1943" lon="6.66863">
        <ele>943</ele>
        <time>2018-07-01T10:26:01.000Z</time>
      </trkpt>
      <trkpt lat="47.19429" lon="6.6686">
        <ele>943</ele>
        <time>2018-07-01T10:26:02.000Z</time>
      </trkpt>
      <trkpt lat="47.19428" lon="6.66856">
        <ele>943</ele>
        <time>2018-07-01T10:26:03.000Z</time>
      </trkpt>
      <trkpt lat="47.19427" lon="6.66852">
        <ele>943</ele>
        <time>2018-07-01T10:26:04.000Z</time>
      </trkpt>
      <trkpt lat="47.19426" lon="6.66848">
        <ele>943</ele>
        <time>2018-07-01T10:26:05.000Z</time>
      </trkpt>
      <trkpt lat="47.19425" lon="6.66844">
        <ele>943</ele>
        <time>2018-07-01T10:26:06.000Z</time>
      </trkpt>
      <trkpt lat="47.19424" lon="6.6684">
        <ele>943</ele>
        <time>2018-07-01T10:26:07.000Z</time>
      </trkpt>
      <trkpt lat="47.19423" lon="6.66836">
        <ele>943</ele>
        <time>2018-07-01T10:26:08.000Z</time>
      </trkpt>
      <trkpt lat="47.19422" lon="6.66833">
        <ele>943</ele>
        <time>2018-07-01T10:26:09.000Z</time>
      </trkpt>
      <trkpt lat="47.1942" lon="6.6683">
        <ele>943</ele>
        <time>2018-07-01T10:26:10.000Z</time>
      </trkpt>
      <trkpt lat="47.19419" lon="6.66826">
        <ele>943</ele>
        <time>2018-07-01T10:26:11.000Z</time>
      </trkpt>
      <trkpt lat="47.19417" lon="6.66823">
        <ele>943</ele>
        <time>2018-07-01T10:26:12.000Z</time>
      </trkpt>
      <trkpt lat="47.19416" lon="6.6682">
        <ele>938</ele>
        <time>2018-07-01T10:26:13.000Z</time>
      </trkpt>
      <trkpt lat="47.19414" lon="6.66818">
        <ele>938</ele>
        <time>2018-07-01T10:26:14.000Z</time>
      </trkpt>
      <trkpt lat="47.19413" lon="6.66815">
        <ele>937</ele>
        <time>2018-07-01T10:26:15.000Z</time>
      </trkpt>
      <trkpt lat="47.19412" lon="6.66812">
        <ele>936</ele>
        <time>2018-07-01T10:26:16.000Z</time>
      </trkpt>
      <trkpt lat="47.19411" lon="6.66808">
        <ele>936</ele>
        <time>2018-07-01T10:26:17.000Z</time>
      </trkpt>
      <trkpt lat="47.1941" lon="6.66805">
        <ele>935</ele>
        <time>2018-07-01T10:26:18.000Z</time>
      </trkpt>
      <trkpt lat="47.19408" lon="6.66801">
        <ele>935</ele>
        <time>2018-07-01T10:26:19.000Z</time>
      </trkpt>
      <trkpt lat="47.19407" lon="6.66798">
        <ele>935</ele>
        <time>2018-07-01T10:26:20.000Z</time>
      </trkpt>
      <trkpt lat="47.19405" lon="6.66795">
        <ele>935</ele>
        <time>2018-07-01T10:26:21.000Z</time>
      </trkpt>
      <trkpt lat="47.19404" lon="6.66791">
        <ele>935</ele>
        <time>2018-07-01T10:26:22.000Z</time>
      </trkpt>
      <trkpt lat="47.19403" lon="6.66787">
        <ele>935</ele>
        <time>2018-07-01T10:26:23.000Z</time>
      </trkpt>
      <trkpt lat="47.19403" lon="6.66783">
        <ele>935</ele>
        <time>2018-07-01T10:26:24.000Z</time>
      </trkpt>
      <trkpt lat="47.19402" lon="6.6678">
        <ele>935</ele>
        <time>2018-07-01T10:26:25.000Z</time>
      </trkpt>
      <trkpt lat="47.19402" lon="6.66776">
        <ele>935</ele>
        <time>2018-07-01T10:26:26.000Z</time>
      </trkpt>
      <trkpt lat="47.19402" lon="6.66772">
        <ele>936</ele>
        <time>2018-07-01T10:26:27.000Z</time>
      </trkpt>
      <trkpt lat="47.19401" lon="6.66769">
        <ele>936</ele>
        <time>2018-07-01T10:26:28.000Z</time>
      </trkpt>
      <trkpt lat="47.19399" lon="6.66767">
        <ele>936</ele>
        <time>2018-07-01T10:26:29.000Z</time>
      </trkpt>
      <trkpt lat="47.19398" lon="6.66765">
        <ele>936</ele>
        <time>2018-07-01T10:26:30.000Z</time>
      </trkpt>
      <trkpt lat="47.19396" lon="6.66762">
        <ele>936</ele>
        <time>2018-07-01T10:26:31.000Z</time>
      </trkpt>
      <trkpt lat="47.19395" lon="6.66759">
        <ele>936</ele>
        <time>2018-07-01T10:26:32.000Z</time>
      </trkpt>
      <trkpt lat="47.19394" lon="6.66756">
        <ele>936</ele>
        <time>2018-07-01T10:26:33.000Z</time>
      </trkpt>
      <trkpt lat="47.19393" lon="6.66753">
        <ele>936</ele>
        <time>2018-07-01T10:26:34.000Z</time>
      </trkpt>
      <trkpt lat="47.19393" lon="6.6675">
        <ele>936</ele>
        <time>2018-07-01T10:26:35.000Z</time>
      </trkpt>
      <trkpt lat="47.19393" lon="6.66747">
        <ele>937</ele>
        <time>2018-07-01T10:26:36.000Z</time>
      </trkpt>
      <trkpt lat="47.19393" lon="6.66743">
        <ele>937</ele>
        <time>2018-07-01T10:26:37.000Z</time>
      </trkpt>
      <trkpt lat="47.19394" lon="6.66739">
        <ele>937</ele>
        <time>2018-07-01T10:26:38.000Z</time>
      </trkpt>
      <trkpt lat="47.19394" lon="6.66735">
        <ele>937</ele>
        <time>2018-07-01T10:26:39.000Z</time>
      </trkpt>
      <trkpt lat="47.19394" lon="6.66731">
        <ele>937</ele>
        <time>2018-07-01T10:26:40.000Z</time>
      </trkpt>
      <trkpt lat="47.19394" lon="6.66727">
        <ele>936</ele>
        <time>2018-07-01T10:26:41.000Z</time>
      </trkpt>
      <trkpt lat="47.19394" lon="6.66722">
        <ele>936</ele>
        <time>2018-07-01T10:26:42.000Z</time>
      </trkpt>
      <trkpt lat="47.19394" lon="6.66718">
        <ele>936</ele>
        <time>2018-07-01T10:26:43.000Z</time>
      </trkpt>
      <trkpt lat="47.19394" lon="6.66715">
        <ele>936</ele>
        <time>2018-07-01T10:26:44.000Z</time>
      </trkpt>
      <trkpt lat="47.19393" lon="6.66713">
        <ele>936</ele>
        <time>2018-07-01T10:26:45.000Z</time>
      </trkpt>
      <trkpt lat="47.19392" lon="6.6671">
        <ele>936</ele>
        <time>2018-07-01T10:26:46.000Z</time>
      </trkpt>
      <trkpt lat="47.19391" lon="6.66708">
        <ele>936</ele>
        <time>2018-07-01T10:26:47.000Z</time>
      </trkpt>
      <trkpt lat="47.19389" lon="6.66706">
        <ele>935</ele>
        <time>2018-07-01T10:26:48.000Z</time>
      </trkpt>
      <trkpt lat="47.19388" lon="6.66705">
        <ele>935</ele>
        <time>2018-07-01T10:26:49.000Z</time>
      </trkpt>
      <trkpt lat="47.19386" lon="6.66703">
        <ele>935</ele>
        <time>2018-07-01T10:26:50.000Z</time>
      </trkpt>
      <trkpt lat="47.19384" lon="6.66701">
        <ele>935</ele>
        <time>2018-07-01T10:26:51.000Z</time>
      </trkpt>
      <trkpt lat="47.19382" lon="6.667">
        <ele>935</ele>
        <time>2018-07-01T10:26:52.000Z</time>
      </trkpt>
      <trkpt lat="47.1938" lon="6.66699">
        <ele>934</ele>
        <time>2018-07-01T10:26:53.000Z</time>
      </trkpt>
      <trkpt lat="47.19378" lon="6.66697">
        <ele>934</ele>
        <time>2018-07-01T10:26:54.000Z</time>
      </trkpt>
      <trkpt lat="47.19376" lon="6.66695">
        <ele>934</ele>
        <time>2018-07-01T10:26:55.000Z</time>
      </trkpt>
      <trkpt lat="47.19375" lon="6.66693">
        <ele>934</ele>
        <time>2018-07-01T10:26:56.000Z</time>
      </trkpt>
      <trkpt lat="47.19374" lon="6.6669">
        <ele>934</ele>
        <time>2018-07-01T10:26:57.000Z</time>
      </trkpt>
      <trkpt lat="47.19374" lon="6.66687">
        <ele>934</ele>
        <time>2018-07-01T10:26:58.000Z</time>
      </trkpt>
      <trkpt lat="47.19374" lon="6.66685">
        <ele>934</ele>
        <time>2018-07-01T10:26:59.000Z</time>
      </trkpt>
      <trkpt lat="47.19374" lon="6.66683">
        <ele>934</ele>
        <time>2018-07-01T10:27:00.000Z</time>
      </trkpt>
      <trkpt lat="47.19375" lon="6.66681">
        <ele>934</ele>
        <time>2018-07-01T10:27:01.000Z</time>
      </trkpt>
      <trkpt lat="47.19376" lon="6.66678">
        <ele>934</ele>
        <time>2018-07-01T10:27:02.000Z</time>
      </trkpt>
      <trkpt lat="47.19377" lon="6.66675">
        <ele>934</ele>
        <time>2018-07-01T10:27:03.000Z</time>
      </trkpt>
      <trkpt lat="47.19378" lon="6.66671">
        <ele>935</ele>
        <time>2018-07-01T10:27:04.000Z</time>
      </trkpt>
      <trkpt lat="47.1938" lon="6.66667">
        <ele>935</ele>
        <time>2018-07-01T10:27:05.000Z</time>
      </trkpt>
      <trkpt lat="47.19381" lon="6.66663">
        <ele>935</ele>
        <time>2018-07-01T10:27:06.000Z</time>
      </trkpt>
      <trkpt lat="47.19383" lon="6.66659">
        <ele>935</ele>
        <time>2018-07-01T10:27:07.000Z</time>
      </trkpt>
      <trkpt lat="47.19384" lon="6.66654">
        <ele>935</ele>
        <time>2018-07-01T10:27:08.000Z</time>
      </trkpt>
      <trkpt lat="47.19385" lon="6.66649">
        <ele>935</ele>
        <time>2018-07-01T10:27:09.000Z</time>
      </trkpt>
      <trkpt lat="47.19386" lon="6.66645">
        <ele>934</ele>
        <time>2018-07-01T10:27:10.000Z</time>
      </trkpt>
      <trkpt lat="47.19386" lon="6.66641">
        <ele>934</ele>
        <time>2018-07-01T10:27:11.000Z</time>
      </trkpt>
      <trkpt lat="47.19386" lon="6.66637">
        <ele>934</ele>
        <time>2018-07-01T10:27:12.000Z</time>
      </trkpt>
      <trkpt lat="47.19386" lon="6.66634">
        <ele>934</ele>
        <time>2018-07-01T10:27:13.000Z</time>
      </trkpt>
      <trkpt lat="47.19385" lon="6.66631">
        <ele>934</ele>
        <time>2018-07-01T10:27:14.000Z</time>
      </trkpt>
      <trkpt lat="47.19383" lon="6.66627">
        <ele>934</ele>
        <time>2018-07-01T10:27:15.000Z</time>
      </trkpt>
      <trkpt lat="47.19381" lon="6.66624">
        <ele>933</ele>
        <time>2018-07-01T10:27:16.000Z</time>
      </trkpt>
      <trkpt lat="47.1938" lon="6.6662">
        <ele>933</ele>
        <time>2018-07-01T10:27:17.000Z</time>
      </trkpt>
      <trkpt lat="47.19378" lon="6.66617">
        <ele>933</ele>
        <time>2018-07-01T10:27:18.000Z</time>
      </trkpt>
      <trkpt lat="47.19376" lon="6.66613">
        <ele>933</ele>
        <time>2018-07-01T10:27:19.000Z</time>
      </trkpt>
      <trkpt lat="47.19374" lon="6.66611">
        <ele>933</ele>
        <time>2018-07-01T10:27:20.000Z</time>
      </trkpt>
      <trkpt lat="47.19372" lon="6.66608">
        <ele>933</ele>
        <time>2018-07-01T10:27:21.000Z</time>
      </trkpt>
      <trkpt lat="47.1937" lon="6.66604">
        <ele>933</ele>
        <time>2018-07-01T10:27:22.000Z</time>
      </trkpt>
      <trkpt lat="47.19368" lon="6.66601">
        <ele>933</ele>
        <time>2018-07-01T10:27:23.000Z</time>
      </trkpt>
      <trkpt lat="47.19367" lon="6.66598">
        <ele>933</ele>
        <time>2018-07-01T10:27:24.000Z</time>
      </trkpt>
      <trkpt lat="47.19365" lon="6.66595">
        <ele>933</ele>
        <time>2018-07-01T10:27:25.000Z</time>
      </trkpt>
      <trkpt lat="47.19364" lon="6.66591">
        <ele>933</ele>
        <time>2018-07-01T10:27:26.000Z</time>
      </trkpt>
      <trkpt lat="47.19363" lon="6.66589">
        <ele>933</ele>
        <time>2018-07-01T10:27:27.000Z</time>
      </trkpt>
      <trkpt lat="47.19361" lon="6.66587">
        <ele>933</ele>
        <time>2018-07-01T10:27:28.000Z</time>
      </trkpt>
      <trkpt lat="47.19359" lon="6.66585">
        <ele>933</ele>
        <time>2018-07-01T10:27:29.000Z</time>
      </trkpt>
      <trkpt lat="47.19357" lon="6.66584">
        <ele>933</ele>
        <time>2018-07-01T10:27:30.000Z</time>
      </trkpt>
      <trkpt lat="47.19354" lon="6.66583">
        <ele>931</ele>
        <time>2018-07-01T10:27:31.000Z</time>
      </trkpt>
      <trkpt lat="47.19351" lon="6.66583">
        <ele>931</ele>
        <time>2018-07-01T10:27:32.000Z</time>
      </trkpt>
      <trkpt lat="47.19349" lon="6.66583">
        <ele>931</ele>
        <time>2018-07-01T10:27:33.000Z</time>
      </trkpt>
      <trkpt lat="47.19347" lon="6.66584">
        <ele>933</ele>
        <time>2018-07-01T10:27:34.000Z</time>
      </trkpt>
      <trkpt lat="47.19345" lon="6.66585">
        <ele>933</ele>
        <time>2018-07-01T10:27:35.000Z</time>
      </trkpt>
      <trkpt lat="47.19343" lon="6.66585">
        <ele>933</ele>
        <time>2018-07-01T10:27:36.000Z</time>
      </trkpt>
      <trkpt lat="47.19342" lon="6.66584">
        <ele>934</ele>
        <time>2018-07-01T10:27:37.000Z</time>
      </trkpt>
      <trkpt lat="47.1934" lon="6.66582">
        <ele>933</ele>
        <time>2018-07-01T10:27:38.000Z</time>
      </trkpt>
      <trkpt lat="47.19339" lon="6.66581">
        <ele>933</ele>
        <time>2018-07-01T10:27:39.000Z</time>
      </trkpt>
      <trkpt lat="47.19337" lon="6.66579">
        <ele>933</ele>
        <time>2018-07-01T10:27:40.000Z</time>
      </trkpt>
      <trkpt lat="47.19334" lon="6.66577">
        <ele>933</ele>
        <time>2018-07-01T10:27:41.000Z</time>
      </trkpt>
      <trkpt lat="47.19331" lon="6.66575">
        <ele>931</ele>
        <time>2018-07-01T10:27:42.000Z</time>
      </trkpt>
      <trkpt lat="47.19328" lon="6.66573">
        <ele>930</ele>
        <time>2018-07-01T10:27:43.000Z</time>
      </trkpt>
      <trkpt lat="47.19325" lon="6.6657">
        <ele>930</ele>
        <time>2018-07-01T10:27:44.000Z</time>
      </trkpt>
      <trkpt lat="47.19323" lon="6.66568">
        <ele>929</ele>
        <time>2018-07-01T10:27:45.000Z</time>
      </trkpt>
      <trkpt lat="47.19321" lon="6.66565">
        <ele>929</ele>
        <time>2018-07-01T10:27:46.000Z</time>
      </trkpt>
      <trkpt lat="47.19319" lon="6.66563">
        <ele>928</ele>
        <time>2018-07-01T10:27:47.000Z</time>
      </trkpt>
      <trkpt lat="47.19317" lon="6.6656">
        <ele>928</ele>
        <time>2018-07-01T10:27:48.000Z</time>
      </trkpt>
      <trkpt lat="47.19315" lon="6.66557">
        <ele>927</ele>
        <time>2018-07-01T10:27:49.000Z</time>
      </trkpt>
      <trkpt lat="47.19314" lon="6.66554">
        <ele>927</ele>
        <time>2018-07-01T10:27:50.000Z</time>
      </trkpt>
      <trkpt lat="47.19311" lon="6.6655">
        <ele>927</ele>
        <time>2018-07-01T10:27:51.000Z</time>
      </trkpt>
      <trkpt lat="47.19308" lon="6.66546">
        <ele>926</ele>
        <time>2018-07-01T10:27:52.000Z</time>
      </trkpt>
      <trkpt lat="47.19306" lon="6.66541">
        <ele>926</ele>
        <time>2018-07-01T10:27:53.000Z</time>
      </trkpt>
      <trkpt lat="47.19304" lon="6.66536">
        <ele>926</ele>
        <time>2018-07-01T10:27:54.000Z</time>
      </trkpt>
      <trkpt lat="47.19301" lon="6.66531">
        <ele>926</ele>
        <time>2018-07-01T10:27:55.000Z</time>
      </trkpt>
      <trkpt lat="47.19299" lon="6.66526">
        <ele>926</ele>
        <time>2018-07-01T10:27:56.000Z</time>
      </trkpt>
      <trkpt lat="47.19297" lon="6.66522">
        <ele>926</ele>
        <time>2018-07-01T10:27:57.000Z</time>
      </trkpt>
      <trkpt lat="47.19295" lon="6.66518">
        <ele>926</ele>
        <time>2018-07-01T10:27:58.000Z</time>
      </trkpt>
      <trkpt lat="47.19293" lon="6.66515">
        <ele>926</ele>
        <time>2018-07-01T10:27:59.000Z</time>
      </trkpt>
      <trkpt lat="47.19291" lon="6.66512">
        <ele>926</ele>
        <time>2018-07-01T10:28:00.000Z</time>
      </trkpt>
      <trkpt lat="47.19289" lon="6.6651">
        <ele>925</ele>
        <time>2018-07-01T10:28:01.000Z</time>
      </trkpt>
      <trkpt lat="47.19287" lon="6.66507">
        <ele>925</ele>
        <time>2018-07-01T10:28:02.000Z</time>
      </trkpt>
      <trkpt lat="47.19286" lon="6.66504">
        <ele>925</ele>
        <time>2018-07-01T10:28:03.000Z</time>
      </trkpt>
      <trkpt lat="47.19284" lon="6.66501">
        <ele>925</ele>
        <time>2018-07-01T10:28:04.000Z</time>
      </trkpt>
      <trkpt lat="47.19283" lon="6.66498">
        <ele>928</ele>
        <time>2018-07-01T10:28:05.000Z</time>
      </trkpt>
      <trkpt lat="47.19282" lon="6.66495">
        <ele>928</ele>
        <time>2018-07-01T10:28:06.000Z</time>
      </trkpt>
      <trkpt lat="47.19281" lon="6.66492">
        <ele>928</ele>
        <time>2018-07-01T10:28:07.000Z</time>
      </trkpt>
      <trkpt lat="47.1928" lon="6.66489">
        <ele>928</ele>
        <time>2018-07-01T10:28:08.000Z</time>
      </trkpt>
      <trkpt lat="47.19279" lon="6.66486">
        <ele>928</ele>
        <time>2018-07-01T10:28:09.000Z</time>
      </trkpt>
      <trkpt lat="47.19277" lon="6.66483">
        <ele>929</ele>
        <time>2018-07-01T10:28:10.000Z</time>
      </trkpt>
      <trkpt lat="47.19276" lon="6.66481">
        <ele>929</ele>
        <time>2018-07-01T10:28:11.000Z</time>
      </trkpt>
      <trkpt lat="47.19274" lon="6.66478">
        <ele>929</ele>
        <time>2018-07-01T10:28:12.000Z</time>
      </trkpt>
      <trkpt lat="47.19272" lon="6.66475">
        <ele>929</ele>
        <time>2018-07-01T10:28:13.000Z</time>
      </trkpt>
      <trkpt lat="47.1927" lon="6.66472">
        <ele>929</ele>
        <time>2018-07-01T10:28:14.000Z</time>
      </trkpt>
      <trkpt lat="47.19269" lon="6.66469">
        <ele>929</ele>
        <time>2018-07-01T10:28:15.000Z</time>
      </trkpt>
      <trkpt lat="47.19268" lon="6.66466">
        <ele>929</ele>
        <time>2018-07-01T10:28:16.000Z</time>
      </trkpt>
      <trkpt lat="47.19266" lon="6.66463">
        <ele>930</ele>
        <time>2018-07-01T10:28:17.000Z</time>
      </trkpt>
      <trkpt lat="47.19264" lon="6.66461">
        <ele>930</ele>
        <time>2018-07-01T10:28:18.000Z</time>
      </trkpt>
      <trkpt lat="47.19263" lon="6.66458">
        <ele>930</ele>
        <time>2018-07-01T10:28:19.000Z</time>
      </trkpt>
      <trkpt lat="47.19261" lon="6.66456">
        <ele>930</ele>
        <time>2018-07-01T10:28:20.000Z</time>
      </trkpt>
      <trkpt lat="47.19259" lon="6.66455">
        <ele>930</ele>
        <time>2018-07-01T10:28:21.000Z</time>
      </trkpt>
      <trkpt lat="47.19257" lon="6.66454">
        <ele>930</ele>
        <time>2018-07-01T10:28:22.000Z</time>
      </trkpt>
      <trkpt lat="47.19255" lon="6.66454">
        <ele>930</ele>
        <time>2018-07-01T10:28:23.000Z</time>
      </trkpt>
      <trkpt lat="47.19254" lon="6.66454">
        <ele>930</ele>
        <time>2018-07-01T10:28:24.000Z</time>
      </trkpt>
      <trkpt lat="47.19252" lon="6.66454">
        <ele>930</ele>
        <time>2018-07-01T10:28:25.000Z</time>
      </trkpt>
      <trkpt lat="47.1925" lon="6.66453">
        <ele>931</ele>
        <time>2018-07-01T10:28:26.000Z</time>
      </trkpt>
      <trkpt lat="47.19249" lon="6.66451">
        <ele>924</ele>
        <time>2018-07-01T10:28:27.000Z</time>
      </trkpt>
      <trkpt lat="47.19246" lon="6.66449">
        <ele>924</ele>
        <time>2018-07-01T10:28:28.000Z</time>
      </trkpt>
      <trkpt lat="47.19244" lon="6.66447">
        <ele>925</ele>
        <time>2018-07-01T10:28:29.000Z</time>
      </trkpt>
      <trkpt lat="47.19242" lon="6.66444">
        <ele>925</ele>
        <time>2018-07-01T10:28:30.000Z</time>
      </trkpt>
      <trkpt lat="47.19241" lon="6.66442">
        <ele>925</ele>
        <time>2018-07-01T10:28:31.000Z</time>
      </trkpt>
      <trkpt lat="47.19239" lon="6.66439">
        <ele>926</ele>
        <time>2018-07-01T10:28:32.000Z</time>
      </trkpt>
      <trkpt lat="47.19237" lon="6.66436">
        <ele>926</ele>
        <time>2018-07-01T10:28:33.000Z</time>
      </trkpt>
      <trkpt lat="47.19235" lon="6.66434">
        <ele>926</ele>
        <time>2018-07-01T10:28:34.000Z</time>
      </trkpt>
      <trkpt lat="47.19233" lon="6.66431">
        <ele>926</ele>
        <time>2018-07-01T10:28:35.000Z</time>
      </trkpt>
      <trkpt lat="47.19231" lon="6.66429">
        <ele>926</ele>
        <time>2018-07-01T10:28:36.000Z</time>
      </trkpt>
      <trkpt lat="47.19229" lon="6.66428">
        <ele>926</ele>
        <time>2018-07-01T10:28:37.000Z</time>
      </trkpt>
      <trkpt lat="47.19227" lon="6.66426">
        <ele>926</ele>
        <time>2018-07-01T10:28:38.000Z</time>
      </trkpt>
      <trkpt lat="47.19226" lon="6.66424">
        <ele>925</ele>
        <time>2018-07-01T10:28:39.000Z</time>
      </trkpt>
      <trkpt lat="47.19224" lon="6.66422">
        <ele>925</ele>
        <time>2018-07-01T10:28:40.000Z</time>
      </trkpt>
      <trkpt lat="47.19223" lon="6.6642">
        <ele>925</ele>
        <time>2018-07-01T10:28:41.000Z</time>
      </trkpt>
      <trkpt lat="47.19222" lon="6.66418">
        <ele>925</ele>
        <time>2018-07-01T10:28:42.000Z</time>
      </trkpt>
      <trkpt lat="47.19221" lon="6.66415">
        <ele>931</ele>
        <time>2018-07-01T10:28:43.000Z</time>
      </trkpt>
      <trkpt lat="47.1922" lon="6.66413">
        <ele>931</ele>
        <time>2018-07-01T10:28:44.000Z</time>
      </trkpt>
      <trkpt lat="47.19219" lon="6.66411">
        <ele>931</ele>
        <time>2018-07-01T10:28:45.000Z</time>
      </trkpt>
      <trkpt lat="47.19218" lon="6.66409">
        <ele>931</ele>
        <time>2018-07-01T10:28:46.000Z</time>
      </trkpt>
      <trkpt lat="47.19217" lon="6.66406">
        <ele>931</ele>
        <time>2018-07-01T10:28:47.000Z</time>
      </trkpt>
      <trkpt lat="47.19216" lon="6.66403">
        <ele>930</ele>
        <time>2018-07-01T10:28:48.000Z</time>
      </trkpt>
      <trkpt lat="47.19214" lon="6.664">
        <ele>930</ele>
        <time>2018-07-01T10:28:49.000Z</time>
      </trkpt>
      <trkpt lat="47.19213" lon="6.66396">
        <ele>930</ele>
        <time>2018-07-01T10:28:50.000Z</time>
      </trkpt>
      <trkpt lat="47.19211" lon="6.66394">
        <ele>930</ele>
        <time>2018-07-01T10:28:51.000Z</time>
      </trkpt>
      <trkpt lat="47.19209" lon="6.66391">
        <ele>930</ele>
        <time>2018-07-01T10:28:52.000Z</time>
      </trkpt>
      <trkpt lat="47.19208" lon="6.66388">
        <ele>930</ele>
        <time>2018-07-01T10:28:53.000Z</time>
      </trkpt>
      <trkpt lat="47.19206" lon="6.66385">
        <ele>930</ele>
        <time>2018-07-01T10:28:54.000Z</time>
      </trkpt>
      <trkpt lat="47.19205" lon="6.66381">
        <ele>930</ele>
        <time>2018-07-01T10:28:55.000Z</time>
      </trkpt>
      <trkpt lat="47.19204" lon="6.66377">
        <ele>930</ele>
        <time>2018-07-01T10:28:56.000Z</time>
      </trkpt>
      <trkpt lat="47.19203" lon="6.66372">
        <ele>930</ele>
        <time>2018-07-01T10:28:57.000Z</time>
      </trkpt>
      <trkpt lat="47.19201" lon="6.66369">
        <ele>931</ele>
        <time>2018-07-01T10:28:58.000Z</time>
      </trkpt>
      <trkpt lat="47.192" lon="6.66366">
        <ele>931</ele>
        <time>2018-07-01T10:28:59.000Z</time>
      </trkpt>
      <trkpt lat="47.19198" lon="6.66364">
        <ele>931</ele>
        <time>2018-07-01T10:29:00.000Z</time>
      </trkpt>
      <trkpt lat="47.19197" lon="6.66362">
        <ele>931</ele>
        <time>2018-07-01T10:29:01.000Z</time>
      </trkpt>
      <trkpt lat="47.19195" lon="6.6636">
        <ele>931</ele>
        <time>2018-07-01T10:29:02.000Z</time>
      </trkpt>
      <trkpt lat="47.19194" lon="6.66358">
        <ele>931</ele>
        <time>2018-07-01T10:29:03.000Z</time>
      </trkpt>
      <trkpt lat="47.19193" lon="6.66356">
        <ele>931</ele>
        <time>2018-07-01T10:29:04.000Z</time>
      </trkpt>
      <trkpt lat="47.19191" lon="6.66353">
        <ele>931</ele>
        <time>2018-07-01T10:29:05.000Z</time>
      </trkpt>
      <trkpt lat="47.1919" lon="6.66351">
        <ele>931</ele>
        <time>2018-07-01T10:29:06.000Z</time>
      </trkpt>
      <trkpt lat="47.19188" lon="6.66349">
        <ele>931</ele>
        <time>2018-07-01T10:29:07.000Z</time>
      </trkpt>
      <trkpt lat="47.19186" lon="6.66346">
        <ele>931</ele>
        <time>2018-07-01T10:29:08.000Z</time>
      </trkpt>
      <trkpt lat="47.19185" lon="6.66343">
        <ele>931</ele>
        <time>2018-07-01T10:29:09.000Z</time>
      </trkpt>
      <trkpt lat="47.19183" lon="6.66339">
        <ele>931</ele>
        <time>2018-07-01T10:29:10.000Z</time>
      </trkpt>
      <trkpt lat="47.19182" lon="6.66336">
        <ele>931</ele>
        <time>2018-07-01T10:29:11.000Z</time>
      </trkpt>
      <trkpt lat="47.19181" lon="6.66332">
        <ele>933</ele>
        <time>2018-07-01T10:29:12.000Z</time>
      </trkpt>
      <trkpt lat="47.1918" lon="6.66329">
        <ele>933</ele>
        <time>2018-07-01T10:29:13.000Z</time>
      </trkpt>
      <trkpt lat="47.19179" lon="6.66325">
        <ele>933</ele>
        <time>2018-07-01T10:29:14.000Z</time>
      </trkpt>
      <trkpt lat="47.19178" lon="6.66322">
        <ele>933</ele>
        <time>2018-07-01T10:29:15.000Z</time>
      </trkpt>
      <trkpt lat="47.19176" lon="6.66319">
        <ele>934</ele>
        <time>2018-07-01T10:29:16.000Z</time>
      </trkpt>
      <trkpt lat="47.19175" lon="6.66315">
        <ele>934</ele>
        <time>2018-07-01T10:29:17.000Z</time>
      </trkpt>
      <trkpt lat="47.19173" lon="6.66311">
        <ele>934</ele>
        <time>2018-07-01T10:29:18.000Z</time>
      </trkpt>
      <trkpt lat="47.19172" lon="6.66308">
        <ele>934</ele>
        <time>2018-07-01T10:29:19.000Z</time>
      </trkpt>
      <trkpt lat="47.1917" lon="6.66305">
        <ele>935</ele>
        <time>2018-07-01T10:29:20.000Z</time>
      </trkpt>
      <trkpt lat="47.19169" lon="6.66302">
        <ele>935</ele>
        <time>2018-07-01T10:29:21.000Z</time>
      </trkpt>
      <trkpt lat="47.19167" lon="6.66299">
        <ele>935</ele>
        <time>2018-07-01T10:29:22.000Z</time>
      </trkpt>
      <trkpt lat="47.19166" lon="6.66295">
        <ele>926</ele>
        <time>2018-07-01T10:29:23.000Z</time>
      </trkpt>
      <trkpt lat="47.19164" lon="6.66292">
        <ele>926</ele>
        <time>2018-07-01T10:29:24.000Z</time>
      </trkpt>
      <trkpt lat="47.19163" lon="6.66288">
        <ele>926</ele>
        <time>2018-07-01T10:29:25.000Z</time>
      </trkpt>
      <trkpt lat="47.19161" lon="6.66283">
        <ele>927</ele>
        <time>2018-07-01T10:29:26.000Z</time>
      </trkpt>
      <trkpt lat="47.1916" lon="6.66279">
        <ele>927</ele>
        <time>2018-07-01T10:29:27.000Z</time>
      </trkpt>
      <trkpt lat="47.19159" lon="6.66274">
        <ele>928</ele>
        <time>2018-07-01T10:29:28.000Z</time>
      </trkpt>
      <trkpt lat="47.19158" lon="6.6627">
        <ele>929</ele>
        <time>2018-07-01T10:29:29.000Z</time>
      </trkpt>
      <trkpt lat="47.19157" lon="6.66267">
        <ele>930</ele>
        <time>2018-07-01T10:29:30.000Z</time>
      </trkpt>
      <trkpt lat="47.19156" lon="6.66263">
        <ele>930</ele>
        <time>2018-07-01T10:29:31.000Z</time>
      </trkpt>
      <trkpt lat="47.19154" lon="6.66261">
        <ele>930</ele>
        <time>2018-07-01T10:29:32.000Z</time>
      </trkpt>
      <trkpt lat="47.19152" lon="6.66258">
        <ele>930</ele>
        <time>2018-07-01T10:29:33.000Z</time>
      </trkpt>
      <trkpt lat="47.1915" lon="6.66254">
        <ele>930</ele>
        <time>2018-07-01T10:29:34.000Z</time>
      </trkpt>
      <trkpt lat="47.19148" lon="6.66251">
        <ele>929</ele>
        <time>2018-07-01T10:29:35.000Z</time>
      </trkpt>
      <trkpt lat="47.19146" lon="6.66248">
        <ele>932</ele>
        <time>2018-07-01T10:29:36.000Z</time>
      </trkpt>
      <trkpt lat="47.19144" lon="6.66245">
        <ele>931</ele>
        <time>2018-07-01T10:29:37.000Z</time>
      </trkpt>
      <trkpt lat="47.19142" lon="6.66241">
        <ele>930</ele>
        <time>2018-07-01T10:29:38.000Z</time>
      </trkpt>
      <trkpt lat="47.1914" lon="6.66237">
        <ele>930</ele>
        <time>2018-07-01T10:29:39.000Z</time>
      </trkpt>
      <trkpt lat="47.19138" lon="6.66233">
        <ele>929</ele>
        <time>2018-07-01T10:29:40.000Z</time>
      </trkpt>
      <trkpt lat="47.19137" lon="6.6623">
        <ele>929</ele>
        <time>2018-07-01T10:29:41.000Z</time>
      </trkpt>
      <trkpt lat="47.19136" lon="6.66226">
        <ele>929</ele>
        <time>2018-07-01T10:29:42.000Z</time>
      </trkpt>
      <trkpt lat="47.19135" lon="6.66223">
        <ele>928</ele>
        <time>2018-07-01T10:29:43.000Z</time>
      </trkpt>
      <trkpt lat="47.19133" lon="6.66219">
        <ele>928</ele>
        <time>2018-07-01T10:29:44.000Z</time>
      </trkpt>
      <trkpt lat="47.19132" lon="6.66215">
        <ele>928</ele>
        <time>2018-07-01T10:29:45.000Z</time>
      </trkpt>
      <trkpt lat="47.19131" lon="6.6621">
        <ele>928</ele>
        <time>2018-07-01T10:29:46.000Z</time>
      </trkpt>
      <trkpt lat="47.19129" lon="6.66206">
        <ele>928</ele>
        <time>2018-07-01T10:29:47.000Z</time>
      </trkpt>
      <trkpt lat="47.19128" lon="6.66202">
        <ele>927</ele>
        <time>2018-07-01T10:29:48.000Z</time>
      </trkpt>
      <trkpt lat="47.19127" lon="6.66197">
        <ele>927</ele>
        <time>2018-07-01T10:29:49.000Z</time>
      </trkpt>
      <trkpt lat="47.19126" lon="6.66193">
        <ele>927</ele>
        <time>2018-07-01T10:29:50.000Z</time>
      </trkpt>
      <trkpt lat="47.19124" lon="6.6619">
        <ele>927</ele>
        <time>2018-07-01T10:29:51.000Z</time>
      </trkpt>
      <trkpt lat="47.19123" lon="6.66186">
        <ele>927</ele>
        <time>2018-07-01T10:29:52.000Z</time>
      </trkpt>
      <trkpt lat="47.19122" lon="6.66182">
        <ele>927</ele>
        <time>2018-07-01T10:29:53.000Z</time>
      </trkpt>
      <trkpt lat="47.19121" lon="6.66178">
        <ele>927</ele>
        <time>2018-07-01T10:29:54.000Z</time>
      </trkpt>
      <trkpt lat="47.1912" lon="6.66175">
        <ele>927</ele>
        <time>2018-07-01T10:29:55.000Z</time>
      </trkpt>
      <trkpt lat="47.19118" lon="6.66171">
        <ele>926</ele>
        <time>2018-07-01T10:29:56.000Z</time>
      </trkpt>
      <trkpt lat="47.19117" lon="6.66167">
        <ele>926</ele>
        <time>2018-07-01T10:29:57.000Z</time>
      </trkpt>
      <trkpt lat="47.19115" lon="6.66163">
        <ele>927</ele>
        <time>2018-07-01T10:29:58.000Z</time>
      </trkpt>
      <trkpt lat="47.19114" lon="6.66159">
        <ele>927</ele>
        <time>2018-07-01T10:29:59.000Z</time>
      </trkpt>
      <trkpt lat="47.19113" lon="6.66155">
        <ele>927</ele>
        <time>2018-07-01T10:30:00.000Z</time>
      </trkpt>
      <trkpt lat="47.19113" lon="6.66152">
        <ele>927</ele>
        <time>2018-07-01T10:30:01.000Z</time>
      </trkpt>
      <trkpt lat="47.19112" lon="6.66148">
        <ele>927</ele>
        <time>2018-07-01T10:30:02.000Z</time>
      </trkpt>
      <trkpt lat="47.19111" lon="6.66144">
        <ele>927</ele>
        <time>2018-07-01T10:30:03.000Z</time>
      </trkpt>
      <trkpt lat="47.1911" lon="6.66139">
        <ele>927</ele>
        <time>2018-07-01T10:30:04.000Z</time>
      </trkpt>
      <trkpt lat="47.1911" lon="6.66134">
        <ele>927</ele>
        <time>2018-07-01T10:30:05.000Z</time>
      </trkpt>
      <trkpt lat="47.19109" lon="6.6613">
        <ele>927</ele>
        <time>2018-07-01T10:30:06.000Z</time>
      </trkpt>
      <trkpt lat="47.19107" lon="6.66125">
        <ele>927</ele>
        <time>2018-07-01T10:30:07.000Z</time>
      </trkpt>
      <trkpt lat="47.19106" lon="6.66121">
        <ele>927</ele>
        <time>2018-07-01T10:30:08.000Z</time>
      </trkpt>
      <trkpt lat="47.19104" lon="6.66117">
        <ele>927</ele>
        <time>2018-07-01T10:30:09.000Z</time>
      </trkpt>
      <trkpt lat="47.19102" lon="6.66112">
        <ele>926</ele>
        <time>2018-07-01T10:30:10.000Z</time>
      </trkpt>
      <trkpt lat="47.19101" lon="6.66107">
        <ele>926</ele>
        <time>2018-07-01T10:30:11.000Z</time>
      </trkpt>
      <trkpt lat="47.19101" lon="6.66103">
        <ele>926</ele>
        <time>2018-07-01T10:30:12.000Z</time>
      </trkpt>
      <trkpt lat="47.191" lon="6.66098">
        <ele>926</ele>
        <time>2018-07-01T10:30:13.000Z</time>
      </trkpt>
      <trkpt lat="47.19099" lon="6.66093">
        <ele>925</ele>
        <time>2018-07-01T10:30:14.000Z</time>
      </trkpt>
      <trkpt lat="47.19099" lon="6.66089">
        <ele>925</ele>
        <time>2018-07-01T10:30:15.000Z</time>
      </trkpt>
      <trkpt lat="47.19098" lon="6.66084">
        <ele>925</ele>
        <time>2018-07-01T10:30:16.000Z</time>
      </trkpt>
      <trkpt lat="47.19098" lon="6.6608">
        <ele>925</ele>
        <time>2018-07-01T10:30:17.000Z</time>
      </trkpt>
      <trkpt lat="47.19097" lon="6.66075">
        <ele>925</ele>
        <time>2018-07-01T10:30:18.000Z</time>
      </trkpt>
      <trkpt lat="47.19097" lon="6.66071">
        <ele>925</ele>
        <time>2018-07-01T10:30:19.000Z</time>
      </trkpt>
      <trkpt lat="47.19096" lon="6.66066">
        <ele>925</ele>
        <time>2018-07-01T10:30:20.000Z</time>
      </trkpt>
      <trkpt lat="47.19096" lon="6.66061">
        <ele>926</ele>
        <time>2018-07-01T10:30:21.000Z</time>
      </trkpt>
      <trkpt lat="47.19096" lon="6.66056">
        <ele>926</ele>
        <time>2018-07-01T10:30:22.000Z</time>
      </trkpt>
      <trkpt lat="47.19096" lon="6.66052">
        <ele>926</ele>
        <time>2018-07-01T10:30:23.000Z</time>
      </trkpt>
      <trkpt lat="47.19096" lon="6.66047">
        <ele>926</ele>
        <time>2018-07-01T10:30:24.000Z</time>
      </trkpt>
      <trkpt lat="47.19097" lon="6.66043">
        <ele>926</ele>
        <time>2018-07-01T10:30:25.000Z</time>
      </trkpt>
      <trkpt lat="47.19097" lon="6.66038">
        <ele>926</ele>
        <time>2018-07-01T10:30:26.000Z</time>
      </trkpt>
      <trkpt lat="47.19098" lon="6.66034">
        <ele>926</ele>
        <time>2018-07-01T10:30:27.000Z</time>
      </trkpt>
      <trkpt lat="47.19098" lon="6.6603">
        <ele>926</ele>
        <time>2018-07-01T10:30:28.000Z</time>
      </trkpt>
      <trkpt lat="47.19097" lon="6.66026">
        <ele>926</ele>
        <time>2018-07-01T10:30:29.000Z</time>
      </trkpt>
      <trkpt lat="47.19097" lon="6.66022">
        <ele>926</ele>
        <time>2018-07-01T10:30:30.000Z</time>
      </trkpt>
      <trkpt lat="47.19096" lon="6.66017">
        <ele>926</ele>
        <time>2018-07-01T10:30:31.000Z</time>
      </trkpt>
      <trkpt lat="47.19096" lon="6.66013">
        <ele>925</ele>
        <time>2018-07-01T10:30:32.000Z</time>
      </trkpt>
      <trkpt lat="47.19095" lon="6.66009">
        <ele>925</ele>
        <time>2018-07-01T10:30:33.000Z</time>
      </trkpt>
      <trkpt lat="47.19094" lon="6.66004">
        <ele>925</ele>
        <time>2018-07-01T10:30:34.000Z</time>
      </trkpt>
      <trkpt lat="47.19093" lon="6.66">
        <ele>924</ele>
        <time>2018-07-01T10:30:35.000Z</time>
      </trkpt>
      <trkpt lat="47.19092" lon="6.65996">
        <ele>924</ele>
        <time>2018-07-01T10:30:36.000Z</time>
      </trkpt>
      <trkpt lat="47.19091" lon="6.65991">
        <ele>924</ele>
        <time>2018-07-01T10:30:37.000Z</time>
      </trkpt>
      <trkpt lat="47.1909" lon="6.65986">
        <ele>924</ele>
        <time>2018-07-01T10:30:38.000Z</time>
      </trkpt>
      <trkpt lat="47.1909" lon="6.65981">
        <ele>924</ele>
        <time>2018-07-01T10:30:39.000Z</time>
      </trkpt>
      <trkpt lat="47.1909" lon="6.65975">
        <ele>924</ele>
        <time>2018-07-01T10:30:40.000Z</time>
      </trkpt>
      <trkpt lat="47.1909" lon="6.65969">
        <ele>924</ele>
        <time>2018-07-01T10:30:41.000Z</time>
      </trkpt>
      <trkpt lat="47.1909" lon="6.65964">
        <ele>924</ele>
        <time>2018-07-01T10:30:42.000Z</time>
      </trkpt>
      <trkpt lat="47.19089" lon="6.65959">
        <ele>924</ele>
        <time>2018-07-01T10:30:43.000Z</time>
      </trkpt>
      <trkpt lat="47.19089" lon="6.65954">
        <ele>924</ele>
        <time>2018-07-01T10:30:44.000Z</time>
      </trkpt>
      <trkpt lat="47.19088" lon="6.65949">
        <ele>924</ele>
        <time>2018-07-01T10:30:45.000Z</time>
      </trkpt>
      <trkpt lat="47.19088" lon="6.65944">
        <ele>924</ele>
        <time>2018-07-01T10:30:46.000Z</time>
      </trkpt>
      <trkpt lat="47.19087" lon="6.6594">
        <ele>924</ele>
        <time>2018-07-01T10:30:47.000Z</time>
      </trkpt>
      <trkpt lat="47.19086" lon="6.65935">
        <ele>924</ele>
        <time>2018-07-01T10:30:48.000Z</time>
      </trkpt>
      <trkpt lat="47.19085" lon="6.65931">
        <ele>924</ele>
        <time>2018-07-01T10:30:49.000Z</time>
      </trkpt>
      <trkpt lat="47.19083" lon="6.65926">
        <ele>918</ele>
        <time>2018-07-01T10:30:50.000Z</time>
      </trkpt>
      <trkpt lat="47.19082" lon="6.65922">
        <ele>920</ele>
        <time>2018-07-01T10:30:51.000Z</time>
      </trkpt>
      <trkpt lat="47.19081" lon="6.65918">
        <ele>921</ele>
        <time>2018-07-01T10:30:52.000Z</time>
      </trkpt>
      <trkpt lat="47.19079" lon="6.65914">
        <ele>920</ele>
        <time>2018-07-01T10:30:53.000Z</time>
      </trkpt>
      <trkpt lat="47.19078" lon="6.6591">
        <ele>918</ele>
        <time>2018-07-01T10:30:54.000Z</time>
      </trkpt>
      <trkpt lat="47.19077" lon="6.65906">
        <ele>916</ele>
        <time>2018-07-01T10:30:55.000Z</time>
      </trkpt>
      <trkpt lat="47.19077" lon="6.65901">
        <ele>915</ele>
        <time>2018-07-01T10:30:56.000Z</time>
      </trkpt>
      <trkpt lat="47.19076" lon="6.65897">
        <ele>914</ele>
        <time>2018-07-01T10:30:57.000Z</time>
      </trkpt>
      <trkpt lat="47.19075" lon="6.65893">
        <ele>913</ele>
        <time>2018-07-01T10:30:58.000Z</time>
      </trkpt>
      <trkpt lat="47.19074" lon="6.65888">
        <ele>912</ele>
        <time>2018-07-01T10:30:59.000Z</time>
      </trkpt>
      <trkpt lat="47.19073" lon="6.65883">
        <ele>911</ele>
        <time>2018-07-01T10:31:00.000Z</time>
      </trkpt>
      <trkpt lat="47.19072" lon="6.65877">
        <ele>910</ele>
        <time>2018-07-01T10:31:01.000Z</time>
      </trkpt>
      <trkpt lat="47.19071" lon="6.65872">
        <ele>910</ele>
        <time>2018-07-01T10:31:02.000Z</time>
      </trkpt>
      <trkpt lat="47.1907" lon="6.65867">
        <ele>910</ele>
        <time>2018-07-01T10:31:03.000Z</time>
      </trkpt>
      <trkpt lat="47.19069" lon="6.65862">
        <ele>910</ele>
        <time>2018-07-01T10:31:04.000Z</time>
      </trkpt>
      <trkpt lat="47.19068" lon="6.65858">
        <ele>910</ele>
        <time>2018-07-01T10:31:05.000Z</time>
      </trkpt>
      <trkpt lat="47.19067" lon="6.65853">
        <ele>910</ele>
        <time>2018-07-01T10:31:06.000Z</time>
      </trkpt>
      <trkpt lat="47.19066" lon="6.65849">
        <ele>911</ele>
        <time>2018-07-01T10:31:07.000Z</time>
      </trkpt>
      <trkpt lat="47.19066" lon="6.65846">
        <ele>911</ele>
        <time>2018-07-01T10:31:08.000Z</time>
      </trkpt>
      <trkpt lat="47.19066" lon="6.65843">
        <ele>911</ele>
        <time>2018-07-01T10:31:09.000Z</time>
      </trkpt>
      <trkpt lat="47.19065" lon="6.6584">
        <ele>911</ele>
        <time>2018-07-01T10:31:10.000Z</time>
      </trkpt>
      <trkpt lat="47.19065" lon="6.65838">
        <ele>911</ele>
        <time>2018-07-01T10:31:11.000Z</time>
      </trkpt>
      <trkpt lat="47.19064" lon="6.65834">
        <ele>911</ele>
        <time>2018-07-01T10:31:12.000Z</time>
      </trkpt>
      <trkpt lat="47.19063" lon="6.65831">
        <ele>910</ele>
        <time>2018-07-01T10:31:13.000Z</time>
      </trkpt>
      <trkpt lat="47.19063" lon="6.65826">
        <ele>909</ele>
        <time>2018-07-01T10:31:14.000Z</time>
      </trkpt>
      <trkpt lat="47.19062" lon="6.65821">
        <ele>909</ele>
        <time>2018-07-01T10:31:15.000Z</time>
      </trkpt>
      <trkpt lat="47.19061" lon="6.65816">
        <ele>908</ele>
        <time>2018-07-01T10:31:16.000Z</time>
      </trkpt>
      <trkpt lat="47.1906" lon="6.65811">
        <ele>907</ele>
        <time>2018-07-01T10:31:17.000Z</time>
      </trkpt>
      <trkpt lat="47.19059" lon="6.65806">
        <ele>907</ele>
        <time>2018-07-01T10:31:18.000Z</time>
      </trkpt>
      <trkpt lat="47.19058" lon="6.65801">
        <ele>906</ele>
        <time>2018-07-01T10:31:19.000Z</time>
      </trkpt>
      <trkpt lat="47.19056" lon="6.65796">
        <ele>906</ele>
        <time>2018-07-01T10:31:20.000Z</time>
      </trkpt>
      <trkpt lat="47.19055" lon="6.65791">
        <ele>906</ele>
        <time>2018-07-01T10:31:21.000Z</time>
      </trkpt>
      <trkpt lat="47.19054" lon="6.65786">
        <ele>905</ele>
        <time>2018-07-01T10:31:22.000Z</time>
      </trkpt>
      <trkpt lat="47.19052" lon="6.65782">
        <ele>905</ele>
        <time>2018-07-01T10:31:23.000Z</time>
      </trkpt>
      <trkpt lat="47.19051" lon="6.65777">
        <ele>905</ele>
        <time>2018-07-01T10:31:24.000Z</time>
      </trkpt>
      <trkpt lat="47.1905" lon="6.65773">
        <ele>905</ele>
        <time>2018-07-01T10:31:25.000Z</time>
      </trkpt>
      <trkpt lat="47.19049" lon="6.65769">
        <ele>905</ele>
        <time>2018-07-01T10:31:26.000Z</time>
      </trkpt>
      <trkpt lat="47.19047" lon="6.65764">
        <ele>905</ele>
        <time>2018-07-01T10:31:27.000Z</time>
      </trkpt>
      <trkpt lat="47.19046" lon="6.6576">
        <ele>904</ele>
        <time>2018-07-01T10:31:28.000Z</time>
      </trkpt>
      <trkpt lat="47.19045" lon="6.65755">
        <ele>904</ele>
        <time>2018-07-01T10:31:29.000Z</time>
      </trkpt>
      <trkpt lat="47.19045" lon="6.6575">
        <ele>902</ele>
        <time>2018-07-01T10:31:30.000Z</time>
      </trkpt>
      <trkpt lat="47.19044" lon="6.65745">
        <ele>902</ele>
        <time>2018-07-01T10:31:31.000Z</time>
      </trkpt>
      <trkpt lat="47.19043" lon="6.65739">
        <ele>902</ele>
        <time>2018-07-01T10:31:32.000Z</time>
      </trkpt>
      <trkpt lat="47.19043" lon="6.65734">
        <ele>901</ele>
        <time>2018-07-01T10:31:33.000Z</time>
      </trkpt>
      <trkpt lat="47.19042" lon="6.65729">
        <ele>901</ele>
        <time>2018-07-01T10:31:34.000Z</time>
      </trkpt>
      <trkpt lat="47.19041" lon="6.65724">
        <ele>901</ele>
        <time>2018-07-01T10:31:35.000Z</time>
      </trkpt>
      <trkpt lat="47.19041" lon="6.65719">
        <ele>901</ele>
        <time>2018-07-01T10:31:36.000Z</time>
      </trkpt>
      <trkpt lat="47.1904" lon="6.65714">
        <ele>900</ele>
        <time>2018-07-01T10:31:37.000Z</time>
      </trkpt>
      <trkpt lat="47.19039" lon="6.65709">
        <ele>900</ele>
        <time>2018-07-01T10:31:38.000Z</time>
      </trkpt>
      <trkpt lat="47.19039" lon="6.65705">
        <ele>900</ele>
        <time>2018-07-01T10:31:39.000Z</time>
      </trkpt>
      <trkpt lat="47.19038" lon="6.657">
        <ele>900</ele>
        <time>2018-07-01T10:31:40.000Z</time>
      </trkpt>
      <trkpt lat="47.19038" lon="6.65695">
        <ele>900</ele>
        <time>2018-07-01T10:31:41.000Z</time>
      </trkpt>
      <trkpt lat="47.19037" lon="6.6569">
        <ele>900</ele>
        <time>2018-07-01T10:31:42.000Z</time>
      </trkpt>
      <trkpt lat="47.19037" lon="6.65685">
        <ele>899</ele>
        <time>2018-07-01T10:31:43.000Z</time>
      </trkpt>
      <trkpt lat="47.19036" lon="6.65681">
        <ele>899</ele>
        <time>2018-07-01T10:31:44.000Z</time>
      </trkpt>
      <trkpt lat="47.19035" lon="6.65676">
        <ele>899</ele>
        <time>2018-07-01T10:31:45.000Z</time>
      </trkpt>
      <trkpt lat="47.19034" lon="6.65671">
        <ele>899</ele>
        <time>2018-07-01T10:31:46.000Z</time>
      </trkpt>
      <trkpt lat="47.19034" lon="6.65666">
        <ele>897</ele>
        <time>2018-07-01T10:31:47.000Z</time>
      </trkpt>
      <trkpt lat="47.19033" lon="6.65661">
        <ele>896</ele>
        <time>2018-07-01T10:31:48.000Z</time>
      </trkpt>
      <trkpt lat="47.19033" lon="6.65656">
        <ele>896</ele>
        <time>2018-07-01T10:31:49.000Z</time>
      </trkpt>
      <trkpt lat="47.19032" lon="6.65652">
        <ele>896</ele>
        <time>2018-07-01T10:31:50.000Z</time>
      </trkpt>
      <trkpt lat="47.19032" lon="6.65646">
        <ele>896</ele>
        <time>2018-07-01T10:31:51.000Z</time>
      </trkpt>
      <trkpt lat="47.19032" lon="6.65641">
        <ele>896</ele>
        <time>2018-07-01T10:31:52.000Z</time>
      </trkpt>
      <trkpt lat="47.19032" lon="6.65637">
        <ele>896</ele>
        <time>2018-07-01T10:31:53.000Z</time>
      </trkpt>
      <trkpt lat="47.19031" lon="6.65632">
        <ele>896</ele>
        <time>2018-07-01T10:31:54.000Z</time>
      </trkpt>
      <trkpt lat="47.19031" lon="6.65627">
        <ele>896</ele>
        <time>2018-07-01T10:31:55.000Z</time>
      </trkpt>
      <trkpt lat="47.1903" lon="6.65622">
        <ele>896</ele>
        <time>2018-07-01T10:31:56.000Z</time>
      </trkpt>
      <trkpt lat="47.1903" lon="6.65616">
        <ele>896</ele>
        <time>2018-07-01T10:31:57.000Z</time>
      </trkpt>
      <trkpt lat="47.1903" lon="6.65611">
        <ele>896</ele>
        <time>2018-07-01T10:31:58.000Z</time>
      </trkpt>
      <trkpt lat="47.1903" lon="6.65606">
        <ele>896</ele>
        <time>2018-07-01T10:31:59.000Z</time>
      </trkpt>
      <trkpt lat="47.1903" lon="6.656">
        <ele>896</ele>
        <time>2018-07-01T10:32:00.000Z</time>
      </trkpt>
      <trkpt lat="47.19031" lon="6.65595">
        <ele>896</ele>
        <time>2018-07-01T10:32:01.000Z</time>
      </trkpt>
      <trkpt lat="47.19032" lon="6.6559">
        <ele>896</ele>
        <time>2018-07-01T10:32:02.000Z</time>
      </trkpt>
      <trkpt lat="47.19032" lon="6.65585">
        <ele>896</ele>
        <time>2018-07-01T10:32:03.000Z</time>
      </trkpt>
      <trkpt lat="47.19033" lon="6.6558">
        <ele>893</ele>
        <time>2018-07-01T10:32:04.000Z</time>
      </trkpt>
      <trkpt lat="47.19034" lon="6.65574">
        <ele>893</ele>
        <time>2018-07-01T10:32:05.000Z</time>
      </trkpt>
      <trkpt lat="47.19035" lon="6.65569">
        <ele>893</ele>
        <time>2018-07-01T10:32:06.000Z</time>
      </trkpt>
      <trkpt lat="47.19036" lon="6.65564">
        <ele>893</ele>
        <time>2018-07-01T10:32:07.000Z</time>
      </trkpt>
      <trkpt lat="47.19038" lon="6.65558">
        <ele>893</ele>
        <time>2018-07-01T10:32:08.000Z</time>
      </trkpt>
      <trkpt lat="47.1904" lon="6.65554">
        <ele>892</ele>
        <time>2018-07-01T10:32:09.000Z</time>
      </trkpt>
      <trkpt lat="47.19042" lon="6.65549">
        <ele>892</ele>
        <time>2018-07-01T10:32:10.000Z</time>
      </trkpt>
      <trkpt lat="47.19045" lon="6.65545">
        <ele>892</ele>
        <time>2018-07-01T10:32:11.000Z</time>
      </trkpt>
      <trkpt lat="47.19047" lon="6.65541">
        <ele>892</ele>
        <time>2018-07-01T10:32:12.000Z</time>
      </trkpt>
      <trkpt lat="47.1905" lon="6.65536">
        <ele>892</ele>
        <time>2018-07-01T10:32:13.000Z</time>
      </trkpt>
      <trkpt lat="47.19052" lon="6.65532">
        <ele>892</ele>
        <time>2018-07-01T10:32:14.000Z</time>
      </trkpt>
      <trkpt lat="47.19054" lon="6.65529">
        <ele>892</ele>
        <time>2018-07-01T10:32:15.000Z</time>
      </trkpt>
      <trkpt lat="47.19057" lon="6.65526">
        <ele>892</ele>
        <time>2018-07-01T10:32:16.000Z</time>
      </trkpt>
      <trkpt lat="47.1906" lon="6.65523">
        <ele>892</ele>
        <time>2018-07-01T10:32:17.000Z</time>
      </trkpt>
      <trkpt lat="47.19062" lon="6.65521">
        <ele>892</ele>
        <time>2018-07-01T10:32:18.000Z</time>
      </trkpt>
      <trkpt lat="47.19065" lon="6.65519">
        <ele>892</ele>
        <time>2018-07-01T10:32:19.000Z</time>
      </trkpt>
      <trkpt lat="47.19067" lon="6.65516">
        <ele>892</ele>
        <time>2018-07-01T10:32:20.000Z</time>
      </trkpt>
      <trkpt lat="47.19069" lon="6.65514">
        <ele>892</ele>
        <time>2018-07-01T10:32:21.000Z</time>
      </trkpt>
      <trkpt lat="47.19071" lon="6.65511">
        <ele>892</ele>
        <time>2018-07-01T10:32:22.000Z</time>
      </trkpt>
      <trkpt lat="47.19073" lon="6.65508">
        <ele>892</ele>
        <time>2018-07-01T10:32:23.000Z</time>
      </trkpt>
      <trkpt lat="47.19075" lon="6.65505">
        <ele>892</ele>
        <time>2018-07-01T10:32:24.000Z</time>
      </trkpt>
      <trkpt lat="47.19077" lon="6.65501">
        <ele>892</ele>
        <time>2018-07-01T10:32:25.000Z</time>
      </trkpt>
      <trkpt lat="47.1908" lon="6.65497">
        <ele>890</ele>
        <time>2018-07-01T10:32:26.000Z</time>
      </trkpt>
      <trkpt lat="47.19082" lon="6.65493">
        <ele>889</ele>
        <time>2018-07-01T10:32:27.000Z</time>
      </trkpt>
      <trkpt lat="47.19083" lon="6.65489">
        <ele>888</ele>
        <time>2018-07-01T10:32:28.000Z</time>
      </trkpt>
      <trkpt lat="47.19084" lon="6.65484">
        <ele>886</ele>
        <time>2018-07-01T10:32:29.000Z</time>
      </trkpt>
      <trkpt lat="47.19084" lon="6.6548">
        <ele>884</ele>
        <time>2018-07-01T10:32:30.000Z</time>
      </trkpt>
      <trkpt lat="47.19084" lon="6.65476">
        <ele>883</ele>
        <time>2018-07-01T10:32:31.000Z</time>
      </trkpt>
      <trkpt lat="47.19084" lon="6.65472">
        <ele>883</ele>
        <time>2018-07-01T10:32:32.000Z</time>
      </trkpt>
      <trkpt lat="47.19083" lon="6.65469">
        <ele>884</ele>
        <time>2018-07-01T10:32:33.000Z</time>
      </trkpt>
      <trkpt lat="47.19083" lon="6.65467">
        <ele>884</ele>
        <time>2018-07-01T10:32:34.000Z</time>
      </trkpt>
      <trkpt lat="47.19082" lon="6.65465">
        <ele>883</ele>
        <time>2018-07-01T10:32:35.000Z</time>
      </trkpt>
      <trkpt lat="47.19082" lon="6.65463">
        <ele>883</ele>
        <time>2018-07-01T10:32:36.000Z</time>
      </trkpt>
      <trkpt lat="47.19083" lon="6.65462">
        <ele>883</ele>
        <time>2018-07-01T10:32:37.000Z</time>
      </trkpt>
      <trkpt lat="47.19084" lon="6.65464">
        <ele>881</ele>
        <time>2018-07-01T10:32:38.000Z</time>
      </trkpt>
      <trkpt lat="47.19085" lon="6.65465">
        <ele>881</ele>
        <time>2018-07-01T10:32:39.000Z</time>
      </trkpt>
      <trkpt lat="47.19087" lon="6.65467">
        <ele>882</ele>
        <time>2018-07-01T10:32:40.000Z</time>
      </trkpt>
      <trkpt lat="47.19088" lon="6.6547">
        <ele>882</ele>
        <time>2018-07-01T10:32:41.000Z</time>
      </trkpt>
      <trkpt lat="47.1909" lon="6.65471">
        <ele>882</ele>
        <time>2018-07-01T10:32:42.000Z</time>
      </trkpt>
      <trkpt lat="47.19092" lon="6.65472">
        <ele>882</ele>
        <time>2018-07-01T10:32:43.000Z</time>
      </trkpt>
      <trkpt lat="47.19093" lon="6.65473">
        <ele>882</ele>
        <time>2018-07-01T10:32:44.000Z</time>
      </trkpt>
      <trkpt lat="47.19094" lon="6.65472">
        <ele>882</ele>
        <time>2018-07-01T10:32:45.000Z</time>
      </trkpt>
      <trkpt lat="47.19095" lon="6.65472">
        <ele>882</ele>
        <time>2018-07-01T10:32:46.000Z</time>
      </trkpt>
      <trkpt lat="47.19095" lon="6.65471">
        <ele>882</ele>
        <time>2018-07-01T10:32:47.000Z</time>
      </trkpt>
      <trkpt lat="47.19096" lon="6.65469">
        <ele>882</ele>
        <time>2018-07-01T10:32:48.000Z</time>
      </trkpt>
      <trkpt lat="47.19096" lon="6.65468">
        <ele>881</ele>
        <time>2018-07-01T10:32:49.000Z</time>
      </trkpt>
      <trkpt lat="47.19096" lon="6.65465">
        <ele>881</ele>
        <time>2018-07-01T10:32:50.000Z</time>
      </trkpt>
      <trkpt lat="47.19097" lon="6.65462">
        <ele>881</ele>
        <time>2018-07-01T10:32:51.000Z</time>
      </trkpt>
      <trkpt lat="47.19098" lon="6.65459">
        <ele>880</ele>
        <time>2018-07-01T10:32:52.000Z</time>
      </trkpt>
      <trkpt lat="47.191" lon="6.65455">
        <ele>880</ele>
        <time>2018-07-01T10:32:53.000Z</time>
      </trkpt>
      <trkpt lat="47.19101" lon="6.65451">
        <ele>879</ele>
        <time>2018-07-01T10:32:54.000Z</time>
      </trkpt>
      <trkpt lat="47.19104" lon="6.65447">
        <ele>878</ele>
        <time>2018-07-01T10:32:55.000Z</time>
      </trkpt>
      <trkpt lat="47.19106" lon="6.65443">
        <ele>878</ele>
        <time>2018-07-01T10:32:56.000Z</time>
      </trkpt>
      <trkpt lat="47.19108" lon="6.65438">
        <ele>878</ele>
        <time>2018-07-01T10:32:57.000Z</time>
      </trkpt>
      <trkpt lat="47.19111" lon="6.65434">
        <ele>877</ele>
        <time>2018-07-01T10:32:58.000Z</time>
      </trkpt>
      <trkpt lat="47.19113" lon="6.6543">
        <ele>877</ele>
        <time>2018-07-01T10:32:59.000Z</time>
      </trkpt>
      <trkpt lat="47.19116" lon="6.65427">
        <ele>877</ele>
        <time>2018-07-01T10:33:00.000Z</time>
      </trkpt>
      <trkpt lat="47.19118" lon="6.65424">
        <ele>876</ele>
        <time>2018-07-01T10:33:01.000Z</time>
      </trkpt>
      <trkpt lat="47.1912" lon="6.6542">
        <ele>876</ele>
        <time>2018-07-01T10:33:02.000Z</time>
      </trkpt>
      <trkpt lat="47.19123" lon="6.65416">
        <ele>867</ele>
        <time>2018-07-01T10:33:03.000Z</time>
      </trkpt>
      <trkpt lat="47.19125" lon="6.65413">
        <ele>867</ele>
        <time>2018-07-01T10:33:04.000Z</time>
      </trkpt>
      <trkpt lat="47.19128" lon="6.65409">
        <ele>867</ele>
        <time>2018-07-01T10:33:05.000Z</time>
      </trkpt>
      <trkpt lat="47.1913" lon="6.65406">
        <ele>866</ele>
        <time>2018-07-01T10:33:06.000Z</time>
      </trkpt>
      <trkpt lat="47.19132" lon="6.65403">
        <ele>866</ele>
        <time>2018-07-01T10:33:07.000Z</time>
      </trkpt>
      <trkpt lat="47.19135" lon="6.65399">
        <ele>866</ele>
        <time>2018-07-01T10:33:08.000Z</time>
      </trkpt>
      <trkpt lat="47.19137" lon="6.65396">
        <ele>866</ele>
        <time>2018-07-01T10:33:09.000Z</time>
      </trkpt>
      <trkpt lat="47.1914" lon="6.65392">
        <ele>865</ele>
        <time>2018-07-01T10:33:10.000Z</time>
      </trkpt>
      <trkpt lat="47.19142" lon="6.65388">
        <ele>865</ele>
        <time>2018-07-01T10:33:11.000Z</time>
      </trkpt>
      <trkpt lat="47.19144" lon="6.65384">
        <ele>865</ele>
        <time>2018-07-01T10:33:12.000Z</time>
      </trkpt>
      <trkpt lat="47.19146" lon="6.65379">
        <ele>864</ele>
        <time>2018-07-01T10:33:13.000Z</time>
      </trkpt>
      <trkpt lat="47.19148" lon="6.65374">
        <ele>864</ele>
        <time>2018-07-01T10:33:14.000Z</time>
      </trkpt>
      <trkpt lat="47.1915" lon="6.65369">
        <ele>863</ele>
        <time>2018-07-01T10:33:15.000Z</time>
      </trkpt>
      <trkpt lat="47.19152" lon="6.65365">
        <ele>863</ele>
        <time>2018-07-01T10:33:16.000Z</time>
      </trkpt>
      <trkpt lat="47.19153" lon="6.6536">
        <ele>862</ele>
        <time>2018-07-01T10:33:17.000Z</time>
      </trkpt>
      <trkpt lat="47.19154" lon="6.65355">
        <ele>861</ele>
        <time>2018-07-01T10:33:18.000Z</time>
      </trkpt>
      <trkpt lat="47.19153" lon="6.65351">
        <ele>861</ele>
        <time>2018-07-01T10:33:19.000Z</time>
      </trkpt>
      <trkpt lat="47.19152" lon="6.65347">
        <ele>860</ele>
        <time>2018-07-01T10:33:20.000Z</time>
      </trkpt>
      <trkpt lat="47.1915" lon="6.65343">
        <ele>860</ele>
        <time>2018-07-01T10:33:21.000Z</time>
      </trkpt>
      <trkpt lat="47.19147" lon="6.6534">
        <ele>860</ele>
        <time>2018-07-01T10:33:22.000Z</time>
      </trkpt>
      <trkpt lat="47.19144" lon="6.65338">
        <ele>861</ele>
        <time>2018-07-01T10:33:23.000Z</time>
      </trkpt>
      <trkpt lat="47.1914" lon="6.65335">
        <ele>861</ele>
        <time>2018-07-01T10:33:24.000Z</time>
      </trkpt>
      <trkpt lat="47.19137" lon="6.65333">
        <ele>856</ele>
        <time>2018-07-01T10:33:25.000Z</time>
      </trkpt>
      <trkpt lat="47.19134" lon="6.6533">
        <ele>856</ele>
        <time>2018-07-01T10:33:26.000Z</time>
      </trkpt>
      <trkpt lat="47.19131" lon="6.65328">
        <ele>856</ele>
        <time>2018-07-01T10:33:27.000Z</time>
      </trkpt>
      <trkpt lat="47.19128" lon="6.65325">
        <ele>857</ele>
        <time>2018-07-01T10:33:28.000Z</time>
      </trkpt>
      <trkpt lat="47.19125" lon="6.65323">
        <ele>857</ele>
        <time>2018-07-01T10:33:29.000Z</time>
      </trkpt>
      <trkpt lat="47.19122" lon="6.6532">
        <ele>857</ele>
        <time>2018-07-01T10:33:30.000Z</time>
      </trkpt>
      <trkpt lat="47.19119" lon="6.65317">
        <ele>857</ele>
        <time>2018-07-01T10:33:31.000Z</time>
      </trkpt>
      <trkpt lat="47.19116" lon="6.65315">
        <ele>857</ele>
        <time>2018-07-01T10:33:32.000Z</time>
      </trkpt>
      <trkpt lat="47.19114" lon="6.65312">
        <ele>857</ele>
        <time>2018-07-01T10:33:33.000Z</time>
      </trkpt>
      <trkpt lat="47.19111" lon="6.65309">
        <ele>857</ele>
        <time>2018-07-01T10:33:34.000Z</time>
      </trkpt>
      <trkpt lat="47.19108" lon="6.65307">
        <ele>857</ele>
        <time>2018-07-01T10:33:35.000Z</time>
      </trkpt>
      <trkpt lat="47.19105" lon="6.65304">
        <ele>857</ele>
        <time>2018-07-01T10:33:36.000Z</time>
      </trkpt>
      <trkpt lat="47.19103" lon="6.65302">
        <ele>857</ele>
        <time>2018-07-01T10:33:37.000Z</time>
      </trkpt>
      <trkpt lat="47.191" lon="6.65299">
        <ele>857</ele>
        <time>2018-07-01T10:33:38.000Z</time>
      </trkpt>
      <trkpt lat="47.19097" lon="6.65297">
        <ele>857</ele>
        <time>2018-07-01T10:33:39.000Z</time>
      </trkpt>
      <trkpt lat="47.19095" lon="6.65294">
        <ele>857</ele>
        <time>2018-07-01T10:33:40.000Z</time>
      </trkpt>
      <trkpt lat="47.19092" lon="6.65291">
        <ele>857</ele>
        <time>2018-07-01T10:33:41.000Z</time>
      </trkpt>
      <trkpt lat="47.19089" lon="6.65288">
        <ele>857</ele>
        <time>2018-07-01T10:33:42.000Z</time>
      </trkpt>
      <trkpt lat="47.19087" lon="6.65286">
        <ele>857</ele>
        <time>2018-07-01T10:33:43.000Z</time>
      </trkpt>
      <trkpt lat="47.19084" lon="6.65283">
        <ele>857</ele>
        <time>2018-07-01T10:33:44.000Z</time>
      </trkpt>
      <trkpt lat="47.19082" lon="6.6528">
        <ele>861</ele>
        <time>2018-07-01T10:33:45.000Z</time>
      </trkpt>
      <trkpt lat="47.19079" lon="6.65278">
        <ele>861</ele>
        <time>2018-07-01T10:33:46.000Z</time>
      </trkpt>
      <trkpt lat="47.19077" lon="6.65275">
        <ele>860</ele>
        <time>2018-07-01T10:33:47.000Z</time>
      </trkpt>
      <trkpt lat="47.19074" lon="6.65273">
        <ele>860</ele>
        <time>2018-07-01T10:33:48.000Z</time>
      </trkpt>
      <trkpt lat="47.19072" lon="6.6527">
        <ele>860</ele>
        <time>2018-07-01T10:33:49.000Z</time>
      </trkpt>
      <trkpt lat="47.19069" lon="6.65267">
        <ele>860</ele>
        <time>2018-07-01T10:33:50.000Z</time>
      </trkpt>
      <trkpt lat="47.19067" lon="6.65265">
        <ele>860</ele>
        <time>2018-07-01T10:33:51.000Z</time>
      </trkpt>
      <trkpt lat="47.19064" lon="6.65262">
        <ele>860</ele>
        <time>2018-07-01T10:33:52.000Z</time>
      </trkpt>
      <trkpt lat="47.19061" lon="6.65259">
        <ele>860</ele>
        <time>2018-07-01T10:33:53.000Z</time>
      </trkpt>
      <trkpt lat="47.19059" lon="6.65256">
        <ele>860</ele>
        <time>2018-07-01T10:33:54.000Z</time>
      </trkpt>
      <trkpt lat="47.19056" lon="6.65253">
        <ele>861</ele>
        <time>2018-07-01T10:33:55.000Z</time>
      </trkpt>
      <trkpt lat="47.19054" lon="6.6525">
        <ele>861</ele>
        <time>2018-07-01T10:33:56.000Z</time>
      </trkpt>
      <trkpt lat="47.19051" lon="6.65247">
        <ele>858</ele>
        <time>2018-07-01T10:33:57.000Z</time>
      </trkpt>
      <trkpt lat="47.19048" lon="6.65245">
        <ele>858</ele>
        <time>2018-07-01T10:33:58.000Z</time>
      </trkpt>
      <trkpt lat="47.19046" lon="6.65242">
        <ele>858</ele>
        <time>2018-07-01T10:33:59.000Z</time>
      </trkpt>
      <trkpt lat="47.19043" lon="6.65239">
        <ele>858</ele>
        <time>2018-07-01T10:34:00.000Z</time>
      </trkpt>
      <trkpt lat="47.19041" lon="6.65237">
        <ele>858</ele>
        <time>2018-07-01T10:34:01.000Z</time>
      </trkpt>
      <trkpt lat="47.19038" lon="6.65234">
        <ele>858</ele>
        <time>2018-07-01T10:34:02.000Z</time>
      </trkpt>
      <trkpt lat="47.19036" lon="6.65231">
        <ele>859</ele>
        <time>2018-07-01T10:34:03.000Z</time>
      </trkpt>
      <trkpt lat="47.19033" lon="6.65228">
        <ele>859</ele>
        <time>2018-07-01T10:34:04.000Z</time>
      </trkpt>
      <trkpt lat="47.1903" lon="6.65225">
        <ele>859</ele>
        <time>2018-07-01T10:34:05.000Z</time>
      </trkpt>
      <trkpt lat="47.19028" lon="6.65223">
        <ele>859</ele>
        <time>2018-07-01T10:34:06.000Z</time>
      </trkpt>
      <trkpt lat="47.19025" lon="6.6522">
        <ele>859</ele>
        <time>2018-07-01T10:34:07.000Z</time>
      </trkpt>
      <trkpt lat="47.19023" lon="6.65217">
        <ele>859</ele>
        <time>2018-07-01T10:34:08.000Z</time>
      </trkpt>
      <trkpt lat="47.1902" lon="6.65215">
        <ele>859</ele>
        <time>2018-07-01T10:34:09.000Z</time>
      </trkpt>
      <trkpt lat="47.19018" lon="6.65212">
        <ele>859</ele>
        <time>2018-07-01T10:34:10.000Z</time>
      </trkpt>
      <trkpt lat="47.19015" lon="6.65209">
        <ele>859</ele>
        <time>2018-07-01T10:34:11.000Z</time>
      </trkpt>
      <trkpt lat="47.19013" lon="6.65206">
        <ele>859</ele>
        <time>2018-07-01T10:34:12.000Z</time>
      </trkpt>
      <trkpt lat="47.19011" lon="6.65203">
        <ele>859</ele>
        <time>2018-07-01T10:34:13.000Z</time>
      </trkpt>
      <trkpt lat="47.19009" lon="6.652">
        <ele>859</ele>
        <time>2018-07-01T10:34:14.000Z</time>
      </trkpt>
      <trkpt lat="47.19006" lon="6.65197">
        <ele>859</ele>
        <time>2018-07-01T10:34:15.000Z</time>
      </trkpt>
      <trkpt lat="47.19004" lon="6.65194">
        <ele>859</ele>
        <time>2018-07-01T10:34:16.000Z</time>
      </trkpt>
      <trkpt lat="47.19002" lon="6.65192">
        <ele>859</ele>
        <time>2018-07-01T10:34:17.000Z</time>
      </trkpt>
      <trkpt lat="47.18999" lon="6.65189">
        <ele>862</ele>
        <time>2018-07-01T10:34:18.000Z</time>
      </trkpt>
      <trkpt lat="47.18997" lon="6.65186">
        <ele>862</ele>
        <time>2018-07-01T10:34:19.000Z</time>
      </trkpt>
      <trkpt lat="47.18994" lon="6.65183">
        <ele>862</ele>
        <time>2018-07-01T10:34:20.000Z</time>
      </trkpt>
      <trkpt lat="47.18992" lon="6.6518">
        <ele>862</ele>
        <time>2018-07-01T10:34:21.000Z</time>
      </trkpt>
      <trkpt lat="47.1899" lon="6.65177">
        <ele>862</ele>
        <time>2018-07-01T10:34:22.000Z</time>
      </trkpt>
      <trkpt lat="47.18988" lon="6.65173">
        <ele>862</ele>
        <time>2018-07-01T10:34:23.000Z</time>
      </trkpt>
      <trkpt lat="47.18986" lon="6.6517">
        <ele>862</ele>
        <time>2018-07-01T10:34:24.000Z</time>
      </trkpt>
      <trkpt lat="47.18985" lon="6.65166">
        <ele>860</ele>
        <time>2018-07-01T10:34:25.000Z</time>
      </trkpt>
      <trkpt lat="47.18983" lon="6.65163">
        <ele>860</ele>
        <time>2018-07-01T10:34:26.000Z</time>
      </trkpt>
      <trkpt lat="47.18982" lon="6.65159">
        <ele>860</ele>
        <time>2018-07-01T10:34:27.000Z</time>
      </trkpt>
      <trkpt lat="47.1898" lon="6.65155">
        <ele>860</ele>
        <time>2018-07-01T10:34:28.000Z</time>
      </trkpt>
      <trkpt lat="47.18978" lon="6.65153">
        <ele>860</ele>
        <time>2018-07-01T10:34:29.000Z</time>
      </trkpt>
      <trkpt lat="47.18976" lon="6.65151">
        <ele>860</ele>
        <time>2018-07-01T10:34:30.000Z</time>
      </trkpt>
      <trkpt lat="47.18973" lon="6.65149">
        <ele>860</ele>
        <time>2018-07-01T10:34:31.000Z</time>
      </trkpt>
      <trkpt lat="47.18971" lon="6.65148">
        <ele>860</ele>
        <time>2018-07-01T10:34:32.000Z</time>
      </trkpt>
      <trkpt lat="47.18969" lon="6.65148">
        <ele>860</ele>
        <time>2018-07-01T10:34:33.000Z</time>
      </trkpt>
      <trkpt lat="47.18967" lon="6.65148">
        <ele>860</ele>
        <time>2018-07-01T10:34:34.000Z</time>
      </trkpt>
      <trkpt lat="47.18964" lon="6.65148">
        <ele>860</ele>
        <time>2018-07-01T10:34:35.000Z</time>
      </trkpt>
      <trkpt lat="47.18962" lon="6.65148">
        <ele>860</ele>
        <time>2018-07-01T10:34:36.000Z</time>
      </trkpt>
      <trkpt lat="47.18959" lon="6.65148">
        <ele>860</ele>
        <time>2018-07-01T10:34:37.000Z</time>
      </trkpt>
      <trkpt lat="47.18956" lon="6.65148">
        <ele>860</ele>
        <time>2018-07-01T10:34:38.000Z</time>
      </trkpt>
      <trkpt lat="47.18954" lon="6.65148">
        <ele>860</ele>
        <time>2018-07-01T10:34:39.000Z</time>
      </trkpt>
      <trkpt lat="47.18951" lon="6.65148">
        <ele>860</ele>
        <time>2018-07-01T10:34:40.000Z</time>
      </trkpt>
      <trkpt lat="47.18948" lon="6.65149">
        <ele>861</ele>
        <time>2018-07-01T10:34:41.000Z</time>
      </trkpt>
      <trkpt lat="47.18946" lon="6.65149">
        <ele>861</ele>
        <time>2018-07-01T10:34:42.000Z</time>
      </trkpt>
      <trkpt lat="47.18943" lon="6.65148">
        <ele>861</ele>
        <time>2018-07-01T10:34:43.000Z</time>
      </trkpt>
      <trkpt lat="47.18941" lon="6.65148">
        <ele>861</ele>
        <time>2018-07-01T10:34:44.000Z</time>
      </trkpt>
      <trkpt lat="47.18938" lon="6.65148">
        <ele>861</ele>
        <time>2018-07-01T10:34:45.000Z</time>
      </trkpt>
      <trkpt lat="47.18936" lon="6.65148">
        <ele>861</ele>
        <time>2018-07-01T10:34:46.000Z</time>
      </trkpt>
      <trkpt lat="47.18934" lon="6.65148">
        <ele>861</ele>
        <time>2018-07-01T10:34:47.000Z</time>
      </trkpt>
      <trkpt lat="47.18931" lon="6.65148">
        <ele>861</ele>
        <time>2018-07-01T10:34:48.000Z</time>
      </trkpt>
      <trkpt lat="47.18928" lon="6.65148">
        <ele>861</ele>
        <time>2018-07-01T10:34:49.000Z</time>
      </trkpt>
      <trkpt lat="47.18926" lon="6.65148">
        <ele>862</ele>
        <time>2018-07-01T10:34:50.000Z</time>
      </trkpt>
      <trkpt lat="47.18923" lon="6.65147">
        <ele>862</ele>
        <time>2018-07-01T10:34:51.000Z</time>
      </trkpt>
      <trkpt lat="47.1892" lon="6.65147">
        <ele>862</ele>
        <time>2018-07-01T10:34:52.000Z</time>
      </trkpt>
      <trkpt lat="47.18917" lon="6.65146">
        <ele>862</ele>
        <time>2018-07-01T10:34:53.000Z</time>
      </trkpt>
      <trkpt lat="47.18915" lon="6.65145">
        <ele>863</ele>
        <time>2018-07-01T10:34:54.000Z</time>
      </trkpt>
      <trkpt lat="47.18912" lon="6.65144">
        <ele>863</ele>
        <time>2018-07-01T10:34:55.000Z</time>
      </trkpt>
      <trkpt lat="47.18909" lon="6.65143">
        <ele>863</ele>
        <time>2018-07-01T10:34:56.000Z</time>
      </trkpt>
      <trkpt lat="47.18906" lon="6.65142">
        <ele>863</ele>
        <time>2018-07-01T10:34:57.000Z</time>
      </trkpt>
      <trkpt lat="47.18904" lon="6.65141">
        <ele>863</ele>
        <time>2018-07-01T10:34:58.000Z</time>
      </trkpt>
      <trkpt lat="47.18901" lon="6.6514">
        <ele>863</ele>
        <time>2018-07-01T10:34:59.000Z</time>
      </trkpt>
      <trkpt lat="47.18898" lon="6.65139">
        <ele>863</ele>
        <time>2018-07-01T10:35:00.000Z</time>
      </trkpt>
      <trkpt lat="47.18895" lon="6.65138">
        <ele>863</ele>
        <time>2018-07-01T10:35:01.000Z</time>
      </trkpt>
      <trkpt lat="47.18893" lon="6.65137">
        <ele>863</ele>
        <time>2018-07-01T10:35:02.000Z</time>
      </trkpt>
      <trkpt lat="47.1889" lon="6.65136">
        <ele>863</ele>
        <time>2018-07-01T10:35:03.000Z</time>
      </trkpt>
      <trkpt lat="47.18888" lon="6.65135">
        <ele>863</ele>
        <time>2018-07-01T10:35:04.000Z</time>
      </trkpt>
      <trkpt lat="47.18885" lon="6.65134">
        <ele>863</ele>
        <time>2018-07-01T10:35:05.000Z</time>
      </trkpt>
      <trkpt lat="47.18882" lon="6.65133">
        <ele>863</ele>
        <time>2018-07-01T10:35:06.000Z</time>
      </trkpt>
      <trkpt lat="47.18879" lon="6.65131">
        <ele>863</ele>
        <time>2018-07-01T10:35:07.000Z</time>
      </trkpt>
      <trkpt lat="47.18876" lon="6.6513">
        <ele>863</ele>
        <time>2018-07-01T10:35:08.000Z</time>
      </trkpt>
      <trkpt lat="47.18874" lon="6.65129">
        <ele>863</ele>
        <time>2018-07-01T10:35:09.000Z</time>
      </trkpt>
      <trkpt lat="47.18871" lon="6.65127">
        <ele>863</ele>
        <time>2018-07-01T10:35:10.000Z</time>
      </trkpt>
      <trkpt lat="47.18868" lon="6.65126">
        <ele>863</ele>
        <time>2018-07-01T10:35:11.000Z</time>
      </trkpt>
      <trkpt lat="47.18865" lon="6.65125">
        <ele>863</ele>
        <time>2018-07-01T10:35:12.000Z</time>
      </trkpt>
      <trkpt lat="47.18861" lon="6.65123">
        <ele>863</ele>
        <time>2018-07-01T10:35:13.000Z</time>
      </trkpt>
      <trkpt lat="47.18859" lon="6.65122">
        <ele>863</ele>
        <time>2018-07-01T10:35:14.000Z</time>
      </trkpt>
      <trkpt lat="47.18856" lon="6.65121">
        <ele>863</ele>
        <time>2018-07-01T10:35:15.000Z</time>
      </trkpt>
      <trkpt lat="47.18853" lon="6.65119">
        <ele>863</ele>
        <time>2018-07-01T10:35:16.000Z</time>
      </trkpt>
      <trkpt lat="47.1885" lon="6.65118">
        <ele>863</ele>
        <time>2018-07-01T10:35:17.000Z</time>
      </trkpt>
      <trkpt lat="47.18847" lon="6.65116">
        <ele>863</ele>
        <time>2018-07-01T10:35:18.000Z</time>
      </trkpt>
      <trkpt lat="47.18844" lon="6.65114">
        <ele>863</ele>
        <time>2018-07-01T10:35:19.000Z</time>
      </trkpt>
      <trkpt lat="47.18841" lon="6.65112">
        <ele>863</ele>
        <time>2018-07-01T10:35:20.000Z</time>
      </trkpt>
      <trkpt lat="47.18838" lon="6.6511">
        <ele>863</ele>
        <time>2018-07-01T10:35:21.000Z</time>
      </trkpt>
      <trkpt lat="47.18836" lon="6.65108">
        <ele>863</ele>
        <time>2018-07-01T10:35:22.000Z</time>
      </trkpt>
      <trkpt lat="47.18833" lon="6.65106">
        <ele>863</ele>
        <time>2018-07-01T10:35:23.000Z</time>
      </trkpt>
      <trkpt lat="47.1883" lon="6.65104">
        <ele>863</ele>
        <time>2018-07-01T10:35:24.000Z</time>
      </trkpt>
      <trkpt lat="47.18828" lon="6.65102">
        <ele>863</ele>
        <time>2018-07-01T10:35:25.000Z</time>
      </trkpt>
      <trkpt lat="47.18825" lon="6.65101">
        <ele>863</ele>
        <time>2018-07-01T10:35:26.000Z</time>
      </trkpt>
      <trkpt lat="47.18822" lon="6.65099">
        <ele>863</ele>
        <time>2018-07-01T10:35:27.000Z</time>
      </trkpt>
      <trkpt lat="47.1882" lon="6.65097">
        <ele>863</ele>
        <time>2018-07-01T10:35:28.000Z</time>
      </trkpt>
      <trkpt lat="47.18817" lon="6.65095">
        <ele>863</ele>
        <time>2018-07-01T10:35:29.000Z</time>
      </trkpt>
      <trkpt lat="47.18815" lon="6.65094">
        <ele>863</ele>
        <time>2018-07-01T10:35:30.000Z</time>
      </trkpt>
      <trkpt lat="47.18812" lon="6.65092">
        <ele>862</ele>
        <time>2018-07-01T10:35:31.000Z</time>
      </trkpt>
      <trkpt lat="47.18809" lon="6.65091">
        <ele>862</ele>
        <time>2018-07-01T10:35:32.000Z</time>
      </trkpt>
      <trkpt lat="47.18806" lon="6.65089">
        <ele>862</ele>
        <time>2018-07-01T10:35:33.000Z</time>
      </trkpt>
      <trkpt lat="47.18804" lon="6.65087">
        <ele>862</ele>
        <time>2018-07-01T10:35:34.000Z</time>
      </trkpt>
      <trkpt lat="47.18801" lon="6.65085">
        <ele>862</ele>
        <time>2018-07-01T10:35:35.000Z</time>
      </trkpt>
      <trkpt lat="47.18798" lon="6.65084">
        <ele>862</ele>
        <time>2018-07-01T10:35:36.000Z</time>
      </trkpt>
      <trkpt lat="47.18796" lon="6.65082">
        <ele>863</ele>
        <time>2018-07-01T10:35:37.000Z</time>
      </trkpt>
      <trkpt lat="47.18793" lon="6.6508">
        <ele>863</ele>
        <time>2018-07-01T10:35:38.000Z</time>
      </trkpt>
      <trkpt lat="47.1879" lon="6.65079">
        <ele>863</ele>
        <time>2018-07-01T10:35:39.000Z</time>
      </trkpt>
      <trkpt lat="47.18787" lon="6.65078">
        <ele>863</ele>
        <time>2018-07-01T10:35:40.000Z</time>
      </trkpt>
      <trkpt lat="47.18784" lon="6.65076">
        <ele>863</ele>
        <time>2018-07-01T10:35:41.000Z</time>
      </trkpt>
      <trkpt lat="47.18782" lon="6.65075">
        <ele>863</ele>
        <time>2018-07-01T10:35:42.000Z</time>
      </trkpt>
      <trkpt lat="47.18779" lon="6.65073">
        <ele>863</ele>
        <time>2018-07-01T10:35:43.000Z</time>
      </trkpt>
      <trkpt lat="47.18776" lon="6.65071">
        <ele>863</ele>
        <time>2018-07-01T10:35:44.000Z</time>
      </trkpt>
      <trkpt lat="47.18774" lon="6.6507">
        <ele>863</ele>
        <time>2018-07-01T10:35:45.000Z</time>
      </trkpt>
      <trkpt lat="47.18772" lon="6.65069">
        <ele>863</ele>
        <time>2018-07-01T10:35:46.000Z</time>
      </trkpt>
      <trkpt lat="47.18769" lon="6.6507">
        <ele>863</ele>
        <time>2018-07-01T10:35:47.000Z</time>
      </trkpt>
      <trkpt lat="47.18767" lon="6.65071">
        <ele>863</ele>
        <time>2018-07-01T10:35:48.000Z</time>
      </trkpt>
      <trkpt lat="47.18764" lon="6.65074">
        <ele>863</ele>
        <time>2018-07-01T10:35:49.000Z</time>
      </trkpt>
      <trkpt lat="47.18762" lon="6.65077">
        <ele>863</ele>
        <time>2018-07-01T10:35:50.000Z</time>
      </trkpt>
      <trkpt lat="47.1876" lon="6.65081">
        <ele>862</ele>
        <time>2018-07-01T10:35:51.000Z</time>
      </trkpt>
      <trkpt lat="47.18758" lon="6.65085">
        <ele>862</ele>
        <time>2018-07-01T10:35:52.000Z</time>
      </trkpt>
      <trkpt lat="47.18757" lon="6.65089">
        <ele>862</ele>
        <time>2018-07-01T10:35:53.000Z</time>
      </trkpt>
      <trkpt lat="47.18755" lon="6.65093">
        <ele>862</ele>
        <time>2018-07-01T10:35:54.000Z</time>
      </trkpt>
      <trkpt lat="47.18754" lon="6.65098">
        <ele>861</ele>
        <time>2018-07-01T10:35:55.000Z</time>
      </trkpt>
      <trkpt lat="47.18753" lon="6.65103">
        <ele>861</ele>
        <time>2018-07-01T10:35:56.000Z</time>
      </trkpt>
      <trkpt lat="47.18752" lon="6.65108">
        <ele>861</ele>
        <time>2018-07-01T10:35:57.000Z</time>
      </trkpt>
      <trkpt lat="47.18751" lon="6.65113">
        <ele>861</ele>
        <time>2018-07-01T10:35:58.000Z</time>
      </trkpt>
      <trkpt lat="47.18751" lon="6.65118">
        <ele>861</ele>
        <time>2018-07-01T10:35:59.000Z</time>
      </trkpt>
      <trkpt lat="47.18751" lon="6.65122">
        <ele>860</ele>
        <time>2018-07-01T10:36:00.000Z</time>
      </trkpt>
      <trkpt lat="47.18752" lon="6.65125">
        <ele>860</ele>
        <time>2018-07-01T10:36:01.000Z</time>
      </trkpt>
      <trkpt lat="47.18754" lon="6.65127">
        <ele>860</ele>
        <time>2018-07-01T10:36:02.000Z</time>
      </trkpt>
      <trkpt lat="47.18757" lon="6.65129">
        <ele>860</ele>
        <time>2018-07-01T10:36:03.000Z</time>
      </trkpt>
      <trkpt lat="47.1876" lon="6.65129">
        <ele>860</ele>
        <time>2018-07-01T10:36:04.000Z</time>
      </trkpt>
      <trkpt lat="47.18763" lon="6.65129">
        <ele>860</ele>
        <time>2018-07-01T10:36:05.000Z</time>
      </trkpt>
      <trkpt lat="47.18767" lon="6.65129">
        <ele>860</ele>
        <time>2018-07-01T10:36:06.000Z</time>
      </trkpt>
      <trkpt lat="47.1877" lon="6.65129">
        <ele>860</ele>
        <time>2018-07-01T10:36:07.000Z</time>
      </trkpt>
      <trkpt lat="47.18773" lon="6.65129">
        <ele>861</ele>
        <time>2018-07-01T10:36:08.000Z</time>
      </trkpt>
      <trkpt lat="47.18777" lon="6.65129">
        <ele>861</ele>
        <time>2018-07-01T10:36:09.000Z</time>
      </trkpt>
      <trkpt lat="47.1878" lon="6.65129">
        <ele>861</ele>
        <time>2018-07-01T10:36:10.000Z</time>
      </trkpt>
      <trkpt lat="47.18783" lon="6.6513">
        <ele>861</ele>
        <time>2018-07-01T10:36:11.000Z</time>
      </trkpt>
      <trkpt lat="47.18787" lon="6.6513">
        <ele>861</ele>
        <time>2018-07-01T10:36:12.000Z</time>
      </trkpt>
      <trkpt lat="47.1879" lon="6.6513">
        <ele>861</ele>
        <time>2018-07-01T10:36:13.000Z</time>
      </trkpt>
      <trkpt lat="47.18793" lon="6.6513">
        <ele>861</ele>
        <time>2018-07-01T10:36:14.000Z</time>
      </trkpt>
      <trkpt lat="47.18797" lon="6.6513">
        <ele>861</ele>
        <time>2018-07-01T10:36:15.000Z</time>
      </trkpt>
      <trkpt lat="47.188" lon="6.6513">
        <ele>861</ele>
        <time>2018-07-01T10:36:16.000Z</time>
      </trkpt>
      <trkpt lat="47.18804" lon="6.6513">
        <ele>862</ele>
        <time>2018-07-01T10:36:17.000Z</time>
      </trkpt>
      <trkpt lat="47.18807" lon="6.65131">
        <ele>862</ele>
        <time>2018-07-01T10:36:18.000Z</time>
      </trkpt>
      <trkpt lat="47.1881" lon="6.65131">
        <ele>862</ele>
        <time>2018-07-01T10:36:19.000Z</time>
      </trkpt>
      <trkpt lat="47.18814" lon="6.65131">
        <ele>862</ele>
        <time>2018-07-01T10:36:20.000Z</time>
      </trkpt>
      <trkpt lat="47.18816" lon="6.65131">
        <ele>862</ele>
        <time>2018-07-01T10:36:21.000Z</time>
      </trkpt>
      <trkpt lat="47.1882" lon="6.65132">
        <ele>862</ele>
        <time>2018-07-01T10:36:22.000Z</time>
      </trkpt>
      <trkpt lat="47.18823" lon="6.65132">
        <ele>862</ele>
        <time>2018-07-01T10:36:23.000Z</time>
      </trkpt>
      <trkpt lat="47.18826" lon="6.65132">
        <ele>862</ele>
        <time>2018-07-01T10:36:24.000Z</time>
      </trkpt>
      <trkpt lat="47.1883" lon="6.65132">
        <ele>862</ele>
        <time>2018-07-01T10:36:25.000Z</time>
      </trkpt>
      <trkpt lat="47.18833" lon="6.65132">
        <ele>862</ele>
        <time>2018-07-01T10:36:26.000Z</time>
      </trkpt>
      <trkpt lat="47.18836" lon="6.65132">
        <ele>863</ele>
        <time>2018-07-01T10:36:27.000Z</time>
      </trkpt>
      <trkpt lat="47.18838" lon="6.65133">
        <ele>863</ele>
        <time>2018-07-01T10:36:28.000Z</time>
      </trkpt>
      <trkpt lat="47.18841" lon="6.65133">
        <ele>863</ele>
        <time>2018-07-01T10:36:29.000Z</time>
      </trkpt>
      <trkpt lat="47.18843" lon="6.65133">
        <ele>863</ele>
        <time>2018-07-01T10:36:30.000Z</time>
      </trkpt>
      <trkpt lat="47.18844" lon="6.65134">
        <ele>863</ele>
        <time>2018-07-01T10:36:31.000Z</time>
      </trkpt>
      <trkpt lat="47.18845" lon="6.65134">
        <ele>863</ele>
        <time>2018-07-01T10:36:32.000Z</time>
      </trkpt>
      <trkpt lat="47.18846" lon="6.65135">
        <ele>863</ele>
        <time>2018-07-01T10:36:33.000Z</time>
      </trkpt>
      <trkpt lat="47.18847" lon="6.65135">
        <ele>863</ele>
        <time>2018-07-01T10:36:34.000Z</time>
      </trkpt>
    </trkseg>
  </trk>
</gpx>